<?xml version="1.0" encoding="UTF-8"?>
<gpx xmlns:xsi="http://www.w3.org/2001/XMLSchema-instance" xmlns="http://www.topografix.com/GPX/1/0" xsi:schemaLocation="http://www.topografix.com/GPX/1/1 http://www.topografix.com/GPX/1/1/gpx.xsd" creator="Geographica - http://geographica.biz/" appVersion="286" device="" ios="" carrier="">
<trk>
<name>komonofpt2026</name>
<trkseg>
<trkpt lat="35.045721" lon="136.478579">
<ele>174.000000</ele>
<time>2026-03-26T23:00:00Z</time>
<speed>0.000000</speed>
<trueHeading>0.000000</trueHeading>
<magneticHeading>0.000000</magneticHeading>
<gpsHeading>0.000000</gpsHeading>
<haccuracy>-1.000000</haccuracy>
<vaccuracy>-1.000000</vaccuracy>
<internetconnect>-1</internetconnect>
</trkpt>
<trkpt lat="35.045721" lon="136.478579">
<ele>174.000000</ele>
<time>2026-03-26T23:00:00Z</time>
<speed>0.000000</speed>
<trueHeading>0.000000</trueHeading>
<magneticHeading>0.000000</magneticHeading>
<gpsHeading>0.000000</gpsHeading>
<haccuracy>-1.000000</haccuracy>
<vaccuracy>-1.000000</vaccuracy>
<internetconnect>-1</internetconnect>
</trkpt>
<trkpt lat="35.045659" lon="136.478483">
<ele>175.000000</ele>
<time>2026-03-26T23:00:21Z</time>
<speed>0.000000</speed>
<trueHeading>0.000000</trueHeading>
<magneticHeading>0.000000</magneticHeading>
<gpsHeading>0.000000</gpsHeading>
<haccuracy>-1.000000</haccuracy>
<vaccuracy>-1.000000</vaccuracy>
<internetconnect>-1</internetconnect>
</trkpt>
<trkpt lat="35.045606" lon="136.478393">
<ele>175.000000</ele>
<time>2026-03-26T23:00:40Z</time>
<speed>0.000000</speed>
<trueHeading>0.000000</trueHeading>
<magneticHeading>0.000000</magneticHeading>
<gpsHeading>0.000000</gpsHeading>
<haccuracy>-1.000000</haccuracy>
<vaccuracy>-1.000000</vaccuracy>
<internetconnect>-1</internetconnect>
</trkpt>
<trkpt lat="35.045533" lon="136.478323">
<ele>176.000000</ele>
<time>2026-03-26T23:00:59Z</time>
<speed>0.000000</speed>
<trueHeading>0.000000</trueHeading>
<magneticHeading>0.000000</magneticHeading>
<gpsHeading>0.000000</gpsHeading>
<haccuracy>-1.000000</haccuracy>
<vaccuracy>-1.000000</vaccuracy>
<internetconnect>-1</internetconnect>
</trkpt>
<trkpt lat="35.045522" lon="136.478175">
<ele>178.000000</ele>
<time>2026-03-26T23:01:25Z</time>
<speed>0.000000</speed>
<trueHeading>0.000000</trueHeading>
<magneticHeading>0.000000</magneticHeading>
<gpsHeading>0.000000</gpsHeading>
<haccuracy>-1.000000</haccuracy>
<vaccuracy>-1.000000</vaccuracy>
<internetconnect>-1</internetconnect>
</trkpt>
<trkpt lat="35.045496" lon="136.478060">
<ele>179.000000</ele>
<time>2026-03-26T23:01:45Z</time>
<speed>0.000000</speed>
<trueHeading>0.000000</trueHeading>
<magneticHeading>0.000000</magneticHeading>
<gpsHeading>0.000000</gpsHeading>
<haccuracy>-1.000000</haccuracy>
<vaccuracy>-1.000000</vaccuracy>
<internetconnect>-1</internetconnect>
</trkpt>
<trkpt lat="35.045449" lon="136.477964">
<ele>180.000000</ele>
<time>2026-03-26T23:02:05Z</time>
<speed>0.000000</speed>
<trueHeading>0.000000</trueHeading>
<magneticHeading>0.000000</magneticHeading>
<gpsHeading>0.000000</gpsHeading>
<haccuracy>-1.000000</haccuracy>
<vaccuracy>-1.000000</vaccuracy>
<internetconnect>-1</internetconnect>
</trkpt>
<trkpt lat="35.045444" lon="136.477849">
<ele>181.000000</ele>
<time>2026-03-26T23:02:24Z</time>
<speed>0.000000</speed>
<trueHeading>0.000000</trueHeading>
<magneticHeading>0.000000</magneticHeading>
<gpsHeading>0.000000</gpsHeading>
<haccuracy>-1.000000</haccuracy>
<vaccuracy>-1.000000</vaccuracy>
<internetconnect>-1</internetconnect>
</trkpt>
<trkpt lat="35.045444" lon="136.477734">
<ele>183.000000</ele>
<time>2026-03-26T23:02:44Z</time>
<speed>0.000000</speed>
<trueHeading>0.000000</trueHeading>
<magneticHeading>0.000000</magneticHeading>
<gpsHeading>0.000000</gpsHeading>
<haccuracy>-1.000000</haccuracy>
<vaccuracy>-1.000000</vaccuracy>
<internetconnect>-1</internetconnect>
</trkpt>
<trkpt lat="35.045475" lon="136.477619">
<ele>183.000000</ele>
<time>2026-03-26T23:03:05Z</time>
<speed>0.000000</speed>
<trueHeading>0.000000</trueHeading>
<magneticHeading>0.000000</magneticHeading>
<gpsHeading>0.000000</gpsHeading>
<haccuracy>-1.000000</haccuracy>
<vaccuracy>-1.000000</vaccuracy>
<internetconnect>-1</internetconnect>
</trkpt>
<trkpt lat="35.045501" lon="136.477491">
<ele>184.000000</ele>
<time>2026-03-26T23:03:28Z</time>
<speed>0.000000</speed>
<trueHeading>0.000000</trueHeading>
<magneticHeading>0.000000</magneticHeading>
<gpsHeading>0.000000</gpsHeading>
<haccuracy>-1.000000</haccuracy>
<vaccuracy>-1.000000</vaccuracy>
<internetconnect>-1</internetconnect>
</trkpt>
<trkpt lat="35.045527" lon="136.477382">
<ele>187.000000</ele>
<time>2026-03-26T23:03:48Z</time>
<speed>0.000000</speed>
<trueHeading>0.000000</trueHeading>
<magneticHeading>0.000000</magneticHeading>
<gpsHeading>0.000000</gpsHeading>
<haccuracy>-1.000000</haccuracy>
<vaccuracy>-1.000000</vaccuracy>
<internetconnect>-1</internetconnect>
</trkpt>
<trkpt lat="35.045554" lon="136.477267">
<ele>188.000000</ele>
<time>2026-03-26T23:04:08Z</time>
<speed>0.000000</speed>
<trueHeading>0.000000</trueHeading>
<magneticHeading>0.000000</magneticHeading>
<gpsHeading>0.000000</gpsHeading>
<haccuracy>-1.000000</haccuracy>
<vaccuracy>-1.000000</vaccuracy>
<internetconnect>-1</internetconnect>
</trkpt>
<trkpt lat="35.045601" lon="136.477158">
<ele>189.000000</ele>
<time>2026-03-26T23:04:29Z</time>
<speed>0.000000</speed>
<trueHeading>0.000000</trueHeading>
<magneticHeading>0.000000</magneticHeading>
<gpsHeading>0.000000</gpsHeading>
<haccuracy>-1.000000</haccuracy>
<vaccuracy>-1.000000</vaccuracy>
<internetconnect>-1</internetconnect>
</trkpt>
<trkpt lat="35.045643" lon="136.477056">
<ele>194.000000</ele>
<time>2026-03-26T23:04:49Z</time>
<speed>0.000000</speed>
<trueHeading>0.000000</trueHeading>
<magneticHeading>0.000000</magneticHeading>
<gpsHeading>0.000000</gpsHeading>
<haccuracy>-1.000000</haccuracy>
<vaccuracy>-1.000000</vaccuracy>
<internetconnect>-1</internetconnect>
</trkpt>
<trkpt lat="35.045674" lon="136.477056">
<ele>195.000000</ele>
<time>2026-03-26T23:04:56Z</time>
<speed>0.000000</speed>
<trueHeading>0.000000</trueHeading>
<magneticHeading>0.000000</magneticHeading>
<gpsHeading>0.000000</gpsHeading>
<haccuracy>-1.000000</haccuracy>
<vaccuracy>-1.000000</vaccuracy>
<internetconnect>-1</internetconnect>
</trkpt>
<trkpt lat="35.045672" lon="136.477033">
<ele>195.000000</ele>
<time>2026-03-26T23:05:00Z</time>
<speed>0.000000</speed>
<trueHeading>0.000000</trueHeading>
<magneticHeading>0.000000</magneticHeading>
<gpsHeading>0.000000</gpsHeading>
<haccuracy>-1.000000</haccuracy>
<vaccuracy>-1.000000</vaccuracy>
<internetconnect>-1</internetconnect>
</trkpt>
<trkpt lat="35.045729" lon="136.477012">
<ele>192.000000</ele>
<time>2026-03-26T23:05:00Z</time>
<speed>0.000000</speed>
<trueHeading>0.000000</trueHeading>
<magneticHeading>0.000000</magneticHeading>
<gpsHeading>0.000000</gpsHeading>
<haccuracy>-1.000000</haccuracy>
<vaccuracy>-1.000000</vaccuracy>
<internetconnect>-1</internetconnect>
</trkpt>
<trkpt lat="35.046002" lon="136.476964">
<ele>195.000000</ele>
<time>2026-03-26T23:05:47Z</time>
<speed>0.000000</speed>
<trueHeading>0.000000</trueHeading>
<magneticHeading>0.000000</magneticHeading>
<gpsHeading>0.000000</gpsHeading>
<haccuracy>-1.000000</haccuracy>
<vaccuracy>-1.000000</vaccuracy>
<internetconnect>-1</internetconnect>
</trkpt>
<trkpt lat="35.046239" lon="136.476915">
<ele>200.000000</ele>
<time>2026-03-26T23:06:29Z</time>
<speed>0.000000</speed>
<trueHeading>0.000000</trueHeading>
<magneticHeading>0.000000</magneticHeading>
<gpsHeading>0.000000</gpsHeading>
<haccuracy>-1.000000</haccuracy>
<vaccuracy>-1.000000</vaccuracy>
<internetconnect>-1</internetconnect>
</trkpt>
<trkpt lat="35.046397" lon="136.476851">
<ele>203.000000</ele>
<time>2026-03-26T23:06:58Z</time>
<speed>0.000000</speed>
<trueHeading>0.000000</trueHeading>
<magneticHeading>0.000000</magneticHeading>
<gpsHeading>0.000000</gpsHeading>
<haccuracy>-1.000000</haccuracy>
<vaccuracy>-1.000000</vaccuracy>
<internetconnect>-1</internetconnect>
</trkpt>
<trkpt lat="35.046775" lon="136.476637">
<ele>212.000000</ele>
<time>2026-03-26T23:08:10Z</time>
<speed>0.000000</speed>
<trueHeading>0.000000</trueHeading>
<magneticHeading>0.000000</magneticHeading>
<gpsHeading>0.000000</gpsHeading>
<haccuracy>-1.000000</haccuracy>
<vaccuracy>-1.000000</vaccuracy>
<internetconnect>-1</internetconnect>
</trkpt>
<trkpt lat="35.046849" lon="136.476567">
<ele>214.000000</ele>
<time>2026-03-26T23:08:26Z</time>
<speed>0.000000</speed>
<trueHeading>0.000000</trueHeading>
<magneticHeading>0.000000</magneticHeading>
<gpsHeading>0.000000</gpsHeading>
<haccuracy>-1.000000</haccuracy>
<vaccuracy>-1.000000</vaccuracy>
<internetconnect>-1</internetconnect>
</trkpt>
<trkpt lat="35.046889" lon="136.476508">
<ele>215.000000</ele>
<time>2026-03-26T23:08:37Z</time>
<speed>0.000000</speed>
<trueHeading>0.000000</trueHeading>
<magneticHeading>0.000000</magneticHeading>
<gpsHeading>0.000000</gpsHeading>
<haccuracy>-1.000000</haccuracy>
<vaccuracy>-1.000000</vaccuracy>
<internetconnect>-1</internetconnect>
</trkpt>
<trkpt lat="35.046915" lon="136.476438">
<ele>217.000000</ele>
<time>2026-03-26T23:08:48Z</time>
<speed>0.000000</speed>
<trueHeading>0.000000</trueHeading>
<magneticHeading>0.000000</magneticHeading>
<gpsHeading>0.000000</gpsHeading>
<haccuracy>-1.000000</haccuracy>
<vaccuracy>-1.000000</vaccuracy>
<internetconnect>-1</internetconnect>
</trkpt>
<trkpt lat="35.046928" lon="136.476277">
<ele>220.000000</ele>
<time>2026-03-26T23:09:11Z</time>
<speed>0.000000</speed>
<trueHeading>0.000000</trueHeading>
<magneticHeading>0.000000</magneticHeading>
<gpsHeading>0.000000</gpsHeading>
<haccuracy>-1.000000</haccuracy>
<vaccuracy>-1.000000</vaccuracy>
<internetconnect>-1</internetconnect>
</trkpt>
<trkpt lat="35.046867" lon="136.475430">
<ele>234.000000</ele>
<time>2026-03-26T23:11:12Z</time>
<speed>0.000000</speed>
<trueHeading>0.000000</trueHeading>
<magneticHeading>0.000000</magneticHeading>
<gpsHeading>0.000000</gpsHeading>
<haccuracy>-1.000000</haccuracy>
<vaccuracy>-1.000000</vaccuracy>
<internetconnect>-1</internetconnect>
</trkpt>
<trkpt lat="35.046858" lon="136.475258">
<ele>235.000000</ele>
<time>2026-03-26T23:11:36Z</time>
<speed>0.000000</speed>
<trueHeading>0.000000</trueHeading>
<magneticHeading>0.000000</magneticHeading>
<gpsHeading>0.000000</gpsHeading>
<haccuracy>-1.000000</haccuracy>
<vaccuracy>-1.000000</vaccuracy>
<internetconnect>-1</internetconnect>
</trkpt>
<trkpt lat="35.046876" lon="136.475145">
<ele>236.000000</ele>
<time>2026-03-26T23:11:53Z</time>
<speed>0.000000</speed>
<trueHeading>0.000000</trueHeading>
<magneticHeading>0.000000</magneticHeading>
<gpsHeading>0.000000</gpsHeading>
<haccuracy>-1.000000</haccuracy>
<vaccuracy>-1.000000</vaccuracy>
<internetconnect>-1</internetconnect>
</trkpt>
<trkpt lat="35.046920" lon="136.475006">
<ele>238.000000</ele>
<time>2026-03-26T23:12:14Z</time>
<speed>0.000000</speed>
<trueHeading>0.000000</trueHeading>
<magneticHeading>0.000000</magneticHeading>
<gpsHeading>0.000000</gpsHeading>
<haccuracy>-1.000000</haccuracy>
<vaccuracy>-1.000000</vaccuracy>
<internetconnect>-1</internetconnect>
</trkpt>
<trkpt lat="35.047029" lon="136.474754">
<ele>241.000000</ele>
<time>2026-03-26T23:12:55Z</time>
<speed>0.000000</speed>
<trueHeading>0.000000</trueHeading>
<magneticHeading>0.000000</magneticHeading>
<gpsHeading>0.000000</gpsHeading>
<haccuracy>-1.000000</haccuracy>
<vaccuracy>-1.000000</vaccuracy>
<internetconnect>-1</internetconnect>
</trkpt>
<trkpt lat="35.047117" lon="136.474501">
<ele>243.000000</ele>
<time>2026-03-26T23:13:33Z</time>
<speed>0.000000</speed>
<trueHeading>0.000000</trueHeading>
<magneticHeading>0.000000</magneticHeading>
<gpsHeading>0.000000</gpsHeading>
<haccuracy>-1.000000</haccuracy>
<vaccuracy>-1.000000</vaccuracy>
<internetconnect>-1</internetconnect>
</trkpt>
<trkpt lat="35.047187" lon="136.474137">
<ele>247.000000</ele>
<time>2026-03-26T23:14:27Z</time>
<speed>0.000000</speed>
<trueHeading>0.000000</trueHeading>
<magneticHeading>0.000000</magneticHeading>
<gpsHeading>0.000000</gpsHeading>
<haccuracy>-1.000000</haccuracy>
<vaccuracy>-1.000000</vaccuracy>
<internetconnect>-1</internetconnect>
</trkpt>
<trkpt lat="35.047214" lon="136.473836">
<ele>249.000000</ele>
<time>2026-03-26T23:15:10Z</time>
<speed>0.000000</speed>
<trueHeading>0.000000</trueHeading>
<magneticHeading>0.000000</magneticHeading>
<gpsHeading>0.000000</gpsHeading>
<haccuracy>-1.000000</haccuracy>
<vaccuracy>-1.000000</vaccuracy>
<internetconnect>-1</internetconnect>
</trkpt>
<trkpt lat="35.047196" lon="136.473413">
<ele>253.000000</ele>
<time>2026-03-26T23:16:10Z</time>
<speed>0.000000</speed>
<trueHeading>0.000000</trueHeading>
<magneticHeading>0.000000</magneticHeading>
<gpsHeading>0.000000</gpsHeading>
<haccuracy>-1.000000</haccuracy>
<vaccuracy>-1.000000</vaccuracy>
<internetconnect>-1</internetconnect>
</trkpt>
<trkpt lat="35.047205" lon="136.473294">
<ele>254.000000</ele>
<time>2026-03-26T23:16:27Z</time>
<speed>0.000000</speed>
<trueHeading>0.000000</trueHeading>
<magneticHeading>0.000000</magneticHeading>
<gpsHeading>0.000000</gpsHeading>
<haccuracy>-1.000000</haccuracy>
<vaccuracy>-1.000000</vaccuracy>
<internetconnect>-1</internetconnect>
</trkpt>
<trkpt lat="35.047266" lon="136.473069">
<ele>256.000000</ele>
<time>2026-03-26T23:17:01Z</time>
<speed>0.000000</speed>
<trueHeading>0.000000</trueHeading>
<magneticHeading>0.000000</magneticHeading>
<gpsHeading>0.000000</gpsHeading>
<haccuracy>-1.000000</haccuracy>
<vaccuracy>-1.000000</vaccuracy>
<internetconnect>-1</internetconnect>
</trkpt>
<trkpt lat="35.047266" lon="136.473069">
<ele>256.000000</ele>
<time>2026-03-26T23:17:01Z</time>
<speed>0.000000</speed>
<trueHeading>0.000000</trueHeading>
<magneticHeading>0.000000</magneticHeading>
<gpsHeading>0.000000</gpsHeading>
<haccuracy>-1.000000</haccuracy>
<vaccuracy>-1.000000</vaccuracy>
<internetconnect>-1</internetconnect>
</trkpt>
<trkpt lat="35.047284" lon="136.473042">
<ele>257.000000</ele>
<time>2026-03-26T23:17:06Z</time>
<speed>0.000000</speed>
<trueHeading>0.000000</trueHeading>
<magneticHeading>0.000000</magneticHeading>
<gpsHeading>0.000000</gpsHeading>
<haccuracy>-1.000000</haccuracy>
<vaccuracy>-1.000000</vaccuracy>
<internetconnect>-1</internetconnect>
</trkpt>
<trkpt lat="35.047635" lon="136.472222">
<ele>261.000000</ele>
<time>2026-03-26T23:19:17Z</time>
<speed>0.000000</speed>
<trueHeading>0.000000</trueHeading>
<magneticHeading>0.000000</magneticHeading>
<gpsHeading>0.000000</gpsHeading>
<haccuracy>-1.000000</haccuracy>
<vaccuracy>-1.000000</vaccuracy>
<internetconnect>-1</internetconnect>
</trkpt>
<trkpt lat="35.047653" lon="136.472147">
<ele>260.000000</ele>
<time>2026-03-26T23:19:28Z</time>
<speed>0.000000</speed>
<trueHeading>0.000000</trueHeading>
<magneticHeading>0.000000</magneticHeading>
<gpsHeading>0.000000</gpsHeading>
<haccuracy>-1.000000</haccuracy>
<vaccuracy>-1.000000</vaccuracy>
<internetconnect>-1</internetconnect>
</trkpt>
<trkpt lat="35.047644" lon="136.472007">
<ele>259.000000</ele>
<time>2026-03-26T23:19:48Z</time>
<speed>0.000000</speed>
<trueHeading>0.000000</trueHeading>
<magneticHeading>0.000000</magneticHeading>
<gpsHeading>0.000000</gpsHeading>
<haccuracy>-1.000000</haccuracy>
<vaccuracy>-1.000000</vaccuracy>
<internetconnect>-1</internetconnect>
</trkpt>
<trkpt lat="35.047644" lon="136.471851">
<ele>260.000000</ele>
<time>2026-03-26T23:20:11Z</time>
<speed>0.000000</speed>
<trueHeading>0.000000</trueHeading>
<magneticHeading>0.000000</magneticHeading>
<gpsHeading>0.000000</gpsHeading>
<haccuracy>-1.000000</haccuracy>
<vaccuracy>-1.000000</vaccuracy>
<internetconnect>-1</internetconnect>
</trkpt>
<trkpt lat="35.047675" lon="136.471792">
<ele>259.000000</ele>
<time>2026-03-26T23:20:20Z</time>
<speed>0.000000</speed>
<trueHeading>0.000000</trueHeading>
<magneticHeading>0.000000</magneticHeading>
<gpsHeading>0.000000</gpsHeading>
<haccuracy>-1.000000</haccuracy>
<vaccuracy>-1.000000</vaccuracy>
<internetconnect>-1</internetconnect>
</trkpt>
<trkpt lat="35.047851" lon="136.471653">
<ele>257.000000</ele>
<time>2026-03-26T23:20:57Z</time>
<speed>0.000000</speed>
<trueHeading>0.000000</trueHeading>
<magneticHeading>0.000000</magneticHeading>
<gpsHeading>0.000000</gpsHeading>
<haccuracy>-1.000000</haccuracy>
<vaccuracy>-1.000000</vaccuracy>
<internetconnect>-1</internetconnect>
</trkpt>
<trkpt lat="35.047930" lon="136.471567">
<ele>257.000000</ele>
<time>2026-03-26T23:21:15Z</time>
<speed>0.000000</speed>
<trueHeading>0.000000</trueHeading>
<magneticHeading>0.000000</magneticHeading>
<gpsHeading>0.000000</gpsHeading>
<haccuracy>-1.000000</haccuracy>
<vaccuracy>-1.000000</vaccuracy>
<internetconnect>-1</internetconnect>
</trkpt>
<trkpt lat="35.048004" lon="136.471428">
<ele>258.000000</ele>
<time>2026-03-26T23:21:39Z</time>
<speed>0.000000</speed>
<trueHeading>0.000000</trueHeading>
<magneticHeading>0.000000</magneticHeading>
<gpsHeading>0.000000</gpsHeading>
<haccuracy>-1.000000</haccuracy>
<vaccuracy>-1.000000</vaccuracy>
<internetconnect>-1</internetconnect>
</trkpt>
<trkpt lat="35.048149" lon="136.471235">
<ele>256.000000</ele>
<time>2026-03-26T23:22:16Z</time>
<speed>0.000000</speed>
<trueHeading>0.000000</trueHeading>
<magneticHeading>0.000000</magneticHeading>
<gpsHeading>0.000000</gpsHeading>
<haccuracy>-1.000000</haccuracy>
<vaccuracy>-1.000000</vaccuracy>
<internetconnect>-1</internetconnect>
</trkpt>
<trkpt lat="35.048193" lon="136.471202">
<ele>256.000000</ele>
<time>2026-03-26T23:22:25Z</time>
<speed>0.000000</speed>
<trueHeading>0.000000</trueHeading>
<magneticHeading>0.000000</magneticHeading>
<gpsHeading>0.000000</gpsHeading>
<haccuracy>-1.000000</haccuracy>
<vaccuracy>-1.000000</vaccuracy>
<internetconnect>-1</internetconnect>
</trkpt>
<trkpt lat="35.048237" lon="136.471192">
<ele>256.000000</ele>
<time>2026-03-26T23:22:33Z</time>
<speed>0.000000</speed>
<trueHeading>0.000000</trueHeading>
<magneticHeading>0.000000</magneticHeading>
<gpsHeading>0.000000</gpsHeading>
<haccuracy>-1.000000</haccuracy>
<vaccuracy>-1.000000</vaccuracy>
<internetconnect>-1</internetconnect>
</trkpt>
<trkpt lat="35.048329" lon="136.471245">
<ele>256.000000</ele>
<time>2026-03-26T23:22:50Z</time>
<speed>0.000000</speed>
<trueHeading>0.000000</trueHeading>
<magneticHeading>0.000000</magneticHeading>
<gpsHeading>0.000000</gpsHeading>
<haccuracy>-1.000000</haccuracy>
<vaccuracy>-1.000000</vaccuracy>
<internetconnect>-1</internetconnect>
</trkpt>
<trkpt lat="35.048382" lon="136.471277">
<ele>256.000000</ele>
<time>2026-03-26T23:23:01Z</time>
<speed>0.000000</speed>
<trueHeading>0.000000</trueHeading>
<magneticHeading>0.000000</magneticHeading>
<gpsHeading>0.000000</gpsHeading>
<haccuracy>-1.000000</haccuracy>
<vaccuracy>-1.000000</vaccuracy>
<internetconnect>-1</internetconnect>
</trkpt>
<trkpt lat="35.048400" lon="136.471326">
<ele>255.000000</ele>
<time>2026-03-26T23:23:08Z</time>
<speed>0.000000</speed>
<trueHeading>0.000000</trueHeading>
<magneticHeading>0.000000</magneticHeading>
<gpsHeading>0.000000</gpsHeading>
<haccuracy>-1.000000</haccuracy>
<vaccuracy>-1.000000</vaccuracy>
<internetconnect>-1</internetconnect>
</trkpt>
<trkpt lat="35.048369" lon="136.471465">
<ele>253.000000</ele>
<time>2026-03-26T23:23:29Z</time>
<speed>0.000000</speed>
<trueHeading>0.000000</trueHeading>
<magneticHeading>0.000000</magneticHeading>
<gpsHeading>0.000000</gpsHeading>
<haccuracy>-1.000000</haccuracy>
<vaccuracy>-1.000000</vaccuracy>
<internetconnect>-1</internetconnect>
</trkpt>
<trkpt lat="35.048290" lon="136.471615">
<ele>251.000000</ele>
<time>2026-03-26T23:23:54Z</time>
<speed>0.000000</speed>
<trueHeading>0.000000</trueHeading>
<magneticHeading>0.000000</magneticHeading>
<gpsHeading>0.000000</gpsHeading>
<haccuracy>-1.000000</haccuracy>
<vaccuracy>-1.000000</vaccuracy>
<internetconnect>-1</internetconnect>
</trkpt>
<trkpt lat="35.048154" lon="136.471782">
<ele>248.000000</ele>
<time>2026-03-26T23:24:27Z</time>
<speed>0.000000</speed>
<trueHeading>0.000000</trueHeading>
<magneticHeading>0.000000</magneticHeading>
<gpsHeading>0.000000</gpsHeading>
<haccuracy>-1.000000</haccuracy>
<vaccuracy>-1.000000</vaccuracy>
<internetconnect>-1</internetconnect>
</trkpt>
<trkpt lat="35.048110" lon="136.471857">
<ele>248.000000</ele>
<time>2026-03-26T23:24:40Z</time>
<speed>0.000000</speed>
<trueHeading>0.000000</trueHeading>
<magneticHeading>0.000000</magneticHeading>
<gpsHeading>0.000000</gpsHeading>
<haccuracy>-1.000000</haccuracy>
<vaccuracy>-1.000000</vaccuracy>
<internetconnect>-1</internetconnect>
</trkpt>
<trkpt lat="35.048092" lon="136.471948">
<ele>246.000000</ele>
<time>2026-03-26T23:24:54Z</time>
<speed>0.000000</speed>
<trueHeading>0.000000</trueHeading>
<magneticHeading>0.000000</magneticHeading>
<gpsHeading>0.000000</gpsHeading>
<haccuracy>-1.000000</haccuracy>
<vaccuracy>-1.000000</vaccuracy>
<internetconnect>-1</internetconnect>
</trkpt>
<trkpt lat="35.048070" lon="136.472147">
<ele>243.000000</ele>
<time>2026-03-26T23:25:22Z</time>
<speed>0.000000</speed>
<trueHeading>0.000000</trueHeading>
<magneticHeading>0.000000</magneticHeading>
<gpsHeading>0.000000</gpsHeading>
<haccuracy>-1.000000</haccuracy>
<vaccuracy>-1.000000</vaccuracy>
<internetconnect>-1</internetconnect>
</trkpt>
<trkpt lat="35.048057" lon="136.472270">
<ele>241.000000</ele>
<time>2026-03-26T23:25:40Z</time>
<speed>0.000000</speed>
<trueHeading>0.000000</trueHeading>
<magneticHeading>0.000000</magneticHeading>
<gpsHeading>0.000000</gpsHeading>
<haccuracy>-1.000000</haccuracy>
<vaccuracy>-1.000000</vaccuracy>
<internetconnect>-1</internetconnect>
</trkpt>
<trkpt lat="35.047934" lon="136.472517">
<ele>237.000000</ele>
<time>2026-03-26T23:26:21Z</time>
<speed>0.000000</speed>
<trueHeading>0.000000</trueHeading>
<magneticHeading>0.000000</magneticHeading>
<gpsHeading>0.000000</gpsHeading>
<haccuracy>-1.000000</haccuracy>
<vaccuracy>-1.000000</vaccuracy>
<internetconnect>-1</internetconnect>
</trkpt>
<trkpt lat="35.047895" lon="136.472570">
<ele>237.000000</ele>
<time>2026-03-26T23:26:31Z</time>
<speed>0.000000</speed>
<trueHeading>0.000000</trueHeading>
<magneticHeading>0.000000</magneticHeading>
<gpsHeading>0.000000</gpsHeading>
<haccuracy>-1.000000</haccuracy>
<vaccuracy>-1.000000</vaccuracy>
<internetconnect>-1</internetconnect>
</trkpt>
<trkpt lat="35.047895" lon="136.472602">
<ele>236.000000</ele>
<time>2026-03-26T23:26:36Z</time>
<speed>0.000000</speed>
<trueHeading>0.000000</trueHeading>
<magneticHeading>0.000000</magneticHeading>
<gpsHeading>0.000000</gpsHeading>
<haccuracy>-1.000000</haccuracy>
<vaccuracy>-1.000000</vaccuracy>
<internetconnect>-1</internetconnect>
</trkpt>
<trkpt lat="35.047916" lon="136.472640">
<ele>234.000000</ele>
<time>2026-03-26T23:26:42Z</time>
<speed>0.000000</speed>
<trueHeading>0.000000</trueHeading>
<magneticHeading>0.000000</magneticHeading>
<gpsHeading>0.000000</gpsHeading>
<haccuracy>-1.000000</haccuracy>
<vaccuracy>-1.000000</vaccuracy>
<internetconnect>-1</internetconnect>
</trkpt>
<trkpt lat="35.048044" lon="136.472753">
<ele>231.000000</ele>
<time>2026-03-26T23:27:10Z</time>
<speed>0.000000</speed>
<trueHeading>0.000000</trueHeading>
<magneticHeading>0.000000</magneticHeading>
<gpsHeading>0.000000</gpsHeading>
<haccuracy>-1.000000</haccuracy>
<vaccuracy>-1.000000</vaccuracy>
<internetconnect>-1</internetconnect>
</trkpt>
<trkpt lat="35.048083" lon="136.472780">
<ele>230.000000</ele>
<time>2026-03-26T23:27:18Z</time>
<speed>0.000000</speed>
<trueHeading>0.000000</trueHeading>
<magneticHeading>0.000000</magneticHeading>
<gpsHeading>0.000000</gpsHeading>
<haccuracy>-1.000000</haccuracy>
<vaccuracy>-1.000000</vaccuracy>
<internetconnect>-1</internetconnect>
</trkpt>
<trkpt lat="35.048127" lon="136.472790">
<ele>230.000000</ele>
<time>2026-03-26T23:27:25Z</time>
<speed>0.000000</speed>
<trueHeading>0.000000</trueHeading>
<magneticHeading>0.000000</magneticHeading>
<gpsHeading>0.000000</gpsHeading>
<haccuracy>-1.000000</haccuracy>
<vaccuracy>-1.000000</vaccuracy>
<internetconnect>-1</internetconnect>
</trkpt>
<trkpt lat="35.048219" lon="136.472780">
<ele>229.000000</ele>
<time>2026-03-26T23:27:41Z</time>
<speed>0.000000</speed>
<trueHeading>0.000000</trueHeading>
<magneticHeading>0.000000</magneticHeading>
<gpsHeading>0.000000</gpsHeading>
<haccuracy>-1.000000</haccuracy>
<vaccuracy>-1.000000</vaccuracy>
<internetconnect>-1</internetconnect>
</trkpt>
<trkpt lat="35.048263" lon="136.472796">
<ele>229.000000</ele>
<time>2026-03-26T23:27:49Z</time>
<speed>0.000000</speed>
<trueHeading>0.000000</trueHeading>
<magneticHeading>0.000000</magneticHeading>
<gpsHeading>0.000000</gpsHeading>
<haccuracy>-1.000000</haccuracy>
<vaccuracy>-1.000000</vaccuracy>
<internetconnect>-1</internetconnect>
</trkpt>
<trkpt lat="35.048285" lon="136.472833">
<ele>227.000000</ele>
<time>2026-03-26T23:27:56Z</time>
<speed>0.000000</speed>
<trueHeading>0.000000</trueHeading>
<magneticHeading>0.000000</magneticHeading>
<gpsHeading>0.000000</gpsHeading>
<haccuracy>-1.000000</haccuracy>
<vaccuracy>-1.000000</vaccuracy>
<internetconnect>-1</internetconnect>
</trkpt>
<trkpt lat="35.048285" lon="136.472865">
<ele>226.000000</ele>
<time>2026-03-26T23:28:00Z</time>
<speed>0.000000</speed>
<trueHeading>0.000000</trueHeading>
<magneticHeading>0.000000</magneticHeading>
<gpsHeading>0.000000</gpsHeading>
<haccuracy>-1.000000</haccuracy>
<vaccuracy>-1.000000</vaccuracy>
<internetconnect>-1</internetconnect>
</trkpt>
<trkpt lat="35.048277" lon="136.472903">
<ele>225.000000</ele>
<time>2026-03-26T23:28:06Z</time>
<speed>0.000000</speed>
<trueHeading>0.000000</trueHeading>
<magneticHeading>0.000000</magneticHeading>
<gpsHeading>0.000000</gpsHeading>
<haccuracy>-1.000000</haccuracy>
<vaccuracy>-1.000000</vaccuracy>
<internetconnect>-1</internetconnect>
</trkpt>
<trkpt lat="35.048136" lon="136.473155">
<ele>221.000000</ele>
<time>2026-03-26T23:28:49Z</time>
<speed>0.000000</speed>
<trueHeading>0.000000</trueHeading>
<magneticHeading>0.000000</magneticHeading>
<gpsHeading>0.000000</gpsHeading>
<haccuracy>-1.000000</haccuracy>
<vaccuracy>-1.000000</vaccuracy>
<internetconnect>-1</internetconnect>
</trkpt>
<trkpt lat="35.048097" lon="136.473198">
<ele>221.000000</ele>
<time>2026-03-26T23:28:58Z</time>
<speed>0.000000</speed>
<trueHeading>0.000000</trueHeading>
<magneticHeading>0.000000</magneticHeading>
<gpsHeading>0.000000</gpsHeading>
<haccuracy>-1.000000</haccuracy>
<vaccuracy>-1.000000</vaccuracy>
<internetconnect>-1</internetconnect>
</trkpt>
<trkpt lat="35.047978" lon="136.473235">
<ele>219.000000</ele>
<time>2026-03-26T23:29:20Z</time>
<speed>0.000000</speed>
<trueHeading>0.000000</trueHeading>
<magneticHeading>0.000000</magneticHeading>
<gpsHeading>0.000000</gpsHeading>
<haccuracy>-1.000000</haccuracy>
<vaccuracy>-1.000000</vaccuracy>
<internetconnect>-1</internetconnect>
</trkpt>
<trkpt lat="35.047912" lon="136.473278">
<ele>219.000000</ele>
<time>2026-03-26T23:29:33Z</time>
<speed>0.000000</speed>
<trueHeading>0.000000</trueHeading>
<magneticHeading>0.000000</magneticHeading>
<gpsHeading>0.000000</gpsHeading>
<haccuracy>-1.000000</haccuracy>
<vaccuracy>-1.000000</vaccuracy>
<internetconnect>-1</internetconnect>
</trkpt>
<trkpt lat="35.047873" lon="136.473321">
<ele>218.000000</ele>
<time>2026-03-26T23:29:42Z</time>
<speed>0.000000</speed>
<trueHeading>0.000000</trueHeading>
<magneticHeading>0.000000</magneticHeading>
<gpsHeading>0.000000</gpsHeading>
<haccuracy>-1.000000</haccuracy>
<vaccuracy>-1.000000</vaccuracy>
<internetconnect>-1</internetconnect>
</trkpt>
<trkpt lat="35.047846" lon="136.473380">
<ele>216.000000</ele>
<time>2026-03-26T23:29:51Z</time>
<speed>0.000000</speed>
<trueHeading>0.000000</trueHeading>
<magneticHeading>0.000000</magneticHeading>
<gpsHeading>0.000000</gpsHeading>
<haccuracy>-1.000000</haccuracy>
<vaccuracy>-1.000000</vaccuracy>
<internetconnect>-1</internetconnect>
</trkpt>
<trkpt lat="35.047833" lon="136.473418">
<ele>220.000000</ele>
<time>2026-03-26T23:29:57Z</time>
<speed>0.000000</speed>
<trueHeading>0.000000</trueHeading>
<magneticHeading>0.000000</magneticHeading>
<gpsHeading>0.000000</gpsHeading>
<haccuracy>-1.000000</haccuracy>
<vaccuracy>-1.000000</vaccuracy>
<internetconnect>-1</internetconnect>
</trkpt>
<trkpt lat="35.047846" lon="136.473573">
<ele>219.000000</ele>
<time>2026-03-26T23:30:19Z</time>
<speed>0.000000</speed>
<trueHeading>0.000000</trueHeading>
<magneticHeading>0.000000</magneticHeading>
<gpsHeading>0.000000</gpsHeading>
<haccuracy>-1.000000</haccuracy>
<vaccuracy>-1.000000</vaccuracy>
<internetconnect>-1</internetconnect>
</trkpt>
<trkpt lat="35.047859" lon="136.473809">
<ele>219.000000</ele>
<time>2026-03-26T23:30:53Z</time>
<speed>0.000000</speed>
<trueHeading>0.000000</trueHeading>
<magneticHeading>0.000000</magneticHeading>
<gpsHeading>0.000000</gpsHeading>
<haccuracy>-1.000000</haccuracy>
<vaccuracy>-1.000000</vaccuracy>
<internetconnect>-1</internetconnect>
</trkpt>
<trkpt lat="35.047925" lon="136.474373">
<ele>211.000000</ele>
<time>2026-03-26T23:32:14Z</time>
<speed>0.000000</speed>
<trueHeading>0.000000</trueHeading>
<magneticHeading>0.000000</magneticHeading>
<gpsHeading>0.000000</gpsHeading>
<haccuracy>-1.000000</haccuracy>
<vaccuracy>-1.000000</vaccuracy>
<internetconnect>-1</internetconnect>
</trkpt>
<trkpt lat="35.047982" lon="136.474770">
<ele>210.000000</ele>
<time>2026-03-26T23:33:11Z</time>
<speed>0.000000</speed>
<trueHeading>0.000000</trueHeading>
<magneticHeading>0.000000</magneticHeading>
<gpsHeading>0.000000</gpsHeading>
<haccuracy>-1.000000</haccuracy>
<vaccuracy>-1.000000</vaccuracy>
<internetconnect>-1</internetconnect>
</trkpt>
<trkpt lat="35.048022" lon="136.475526">
<ele>201.000000</ele>
<time>2026-03-26T23:34:59Z</time>
<speed>0.000000</speed>
<trueHeading>0.000000</trueHeading>
<magneticHeading>0.000000</magneticHeading>
<gpsHeading>0.000000</gpsHeading>
<haccuracy>-1.000000</haccuracy>
<vaccuracy>-1.000000</vaccuracy>
<internetconnect>-1</internetconnect>
</trkpt>
<trkpt lat="35.048035" lon="136.475778">
<ele>199.000000</ele>
<time>2026-03-26T23:35:35Z</time>
<speed>0.000000</speed>
<trueHeading>0.000000</trueHeading>
<magneticHeading>0.000000</magneticHeading>
<gpsHeading>0.000000</gpsHeading>
<haccuracy>-1.000000</haccuracy>
<vaccuracy>-1.000000</vaccuracy>
<internetconnect>-1</internetconnect>
</trkpt>
<trkpt lat="35.048031" lon="136.475902">
<ele>198.000000</ele>
<time>2026-03-26T23:35:53Z</time>
<speed>0.000000</speed>
<trueHeading>0.000000</trueHeading>
<magneticHeading>0.000000</magneticHeading>
<gpsHeading>0.000000</gpsHeading>
<haccuracy>-1.000000</haccuracy>
<vaccuracy>-1.000000</vaccuracy>
<internetconnect>-1</internetconnect>
</trkpt>
<trkpt lat="35.048013" lon="136.475998">
<ele>199.000000</ele>
<time>2026-03-26T23:36:07Z</time>
<speed>0.000000</speed>
<trueHeading>0.000000</trueHeading>
<magneticHeading>0.000000</magneticHeading>
<gpsHeading>0.000000</gpsHeading>
<haccuracy>-1.000000</haccuracy>
<vaccuracy>-1.000000</vaccuracy>
<internetconnect>-1</internetconnect>
</trkpt>
<trkpt lat="35.047991" lon="136.476079">
<ele>199.000000</ele>
<time>2026-03-26T23:36:19Z</time>
<speed>0.000000</speed>
<trueHeading>0.000000</trueHeading>
<magneticHeading>0.000000</magneticHeading>
<gpsHeading>0.000000</gpsHeading>
<haccuracy>-1.000000</haccuracy>
<vaccuracy>-1.000000</vaccuracy>
<internetconnect>-1</internetconnect>
</trkpt>
<trkpt lat="35.047934" lon="136.476288">
<ele>199.000000</ele>
<time>2026-03-26T23:36:50Z</time>
<speed>0.000000</speed>
<trueHeading>0.000000</trueHeading>
<magneticHeading>0.000000</magneticHeading>
<gpsHeading>0.000000</gpsHeading>
<haccuracy>-1.000000</haccuracy>
<vaccuracy>-1.000000</vaccuracy>
<internetconnect>-1</internetconnect>
</trkpt>
<trkpt lat="35.047912" lon="136.476363">
<ele>198.000000</ele>
<time>2026-03-26T23:37:02Z</time>
<speed>0.000000</speed>
<trueHeading>0.000000</trueHeading>
<magneticHeading>0.000000</magneticHeading>
<gpsHeading>0.000000</gpsHeading>
<haccuracy>-1.000000</haccuracy>
<vaccuracy>-1.000000</vaccuracy>
<internetconnect>-1</internetconnect>
</trkpt>
<trkpt lat="35.047890" lon="136.476513">
<ele>197.000000</ele>
<time>2026-03-26T23:37:23Z</time>
<speed>0.000000</speed>
<trueHeading>0.000000</trueHeading>
<magneticHeading>0.000000</magneticHeading>
<gpsHeading>0.000000</gpsHeading>
<haccuracy>-1.000000</haccuracy>
<vaccuracy>-1.000000</vaccuracy>
<internetconnect>-1</internetconnect>
</trkpt>
<trkpt lat="35.047877" lon="136.477189">
<ele>190.000000</ele>
<time>2026-03-26T23:39:00Z</time>
<speed>0.000000</speed>
<trueHeading>0.000000</trueHeading>
<magneticHeading>0.000000</magneticHeading>
<gpsHeading>0.000000</gpsHeading>
<haccuracy>-1.000000</haccuracy>
<vaccuracy>-1.000000</vaccuracy>
<internetconnect>-1</internetconnect>
</trkpt>
<trkpt lat="35.047949" lon="136.477111">
<ele>189.000000</ele>
<time>2026-03-26T23:39:00Z</time>
<speed>0.000000</speed>
<trueHeading>0.000000</trueHeading>
<magneticHeading>0.000000</magneticHeading>
<gpsHeading>0.000000</gpsHeading>
<haccuracy>-1.000000</haccuracy>
<vaccuracy>-1.000000</vaccuracy>
<internetconnect>-1</internetconnect>
</trkpt>
<trkpt lat="35.048049" lon="136.477111">
<ele>189.000000</ele>
<time>2026-03-26T23:39:15Z</time>
<speed>0.000000</speed>
<trueHeading>0.000000</trueHeading>
<magneticHeading>0.000000</magneticHeading>
<gpsHeading>0.000000</gpsHeading>
<haccuracy>-1.000000</haccuracy>
<vaccuracy>-1.000000</vaccuracy>
<internetconnect>-1</internetconnect>
</trkpt>
<trkpt lat="35.048145" lon="136.477111">
<ele>189.000000</ele>
<time>2026-03-26T23:39:30Z</time>
<speed>0.000000</speed>
<trueHeading>0.000000</trueHeading>
<magneticHeading>0.000000</magneticHeading>
<gpsHeading>0.000000</gpsHeading>
<haccuracy>-1.000000</haccuracy>
<vaccuracy>-1.000000</vaccuracy>
<internetconnect>-1</internetconnect>
</trkpt>
<trkpt lat="35.048244" lon="136.477111">
<ele>191.000000</ele>
<time>2026-03-26T23:39:45Z</time>
<speed>0.000000</speed>
<trueHeading>0.000000</trueHeading>
<magneticHeading>0.000000</magneticHeading>
<gpsHeading>0.000000</gpsHeading>
<haccuracy>-1.000000</haccuracy>
<vaccuracy>-1.000000</vaccuracy>
<internetconnect>-1</internetconnect>
</trkpt>
<trkpt lat="35.048344" lon="136.477097">
<ele>194.000000</ele>
<time>2026-03-26T23:40:01Z</time>
<speed>0.000000</speed>
<trueHeading>0.000000</trueHeading>
<magneticHeading>0.000000</magneticHeading>
<gpsHeading>0.000000</gpsHeading>
<haccuracy>-1.000000</haccuracy>
<vaccuracy>-1.000000</vaccuracy>
<internetconnect>-1</internetconnect>
</trkpt>
<trkpt lat="35.048432" lon="136.477067">
<ele>195.000000</ele>
<time>2026-03-26T23:40:15Z</time>
<speed>0.000000</speed>
<trueHeading>0.000000</trueHeading>
<magneticHeading>0.000000</magneticHeading>
<gpsHeading>0.000000</gpsHeading>
<haccuracy>-1.000000</haccuracy>
<vaccuracy>-1.000000</vaccuracy>
<internetconnect>-1</internetconnect>
</trkpt>
<trkpt lat="35.048524" lon="136.477048">
<ele>197.000000</ele>
<time>2026-03-26T23:40:29Z</time>
<speed>0.000000</speed>
<trueHeading>0.000000</trueHeading>
<magneticHeading>0.000000</magneticHeading>
<gpsHeading>0.000000</gpsHeading>
<haccuracy>-1.000000</haccuracy>
<vaccuracy>-1.000000</vaccuracy>
<internetconnect>-1</internetconnect>
</trkpt>
<trkpt lat="35.048620" lon="136.477043">
<ele>198.000000</ele>
<time>2026-03-26T23:40:44Z</time>
<speed>0.000000</speed>
<trueHeading>0.000000</trueHeading>
<magneticHeading>0.000000</magneticHeading>
<gpsHeading>0.000000</gpsHeading>
<haccuracy>-1.000000</haccuracy>
<vaccuracy>-1.000000</vaccuracy>
<internetconnect>-1</internetconnect>
</trkpt>
<trkpt lat="35.048711" lon="136.477043">
<ele>198.000000</ele>
<time>2026-03-26T23:40:58Z</time>
<speed>0.000000</speed>
<trueHeading>0.000000</trueHeading>
<magneticHeading>0.000000</magneticHeading>
<gpsHeading>0.000000</gpsHeading>
<haccuracy>-1.000000</haccuracy>
<vaccuracy>-1.000000</vaccuracy>
<internetconnect>-1</internetconnect>
</trkpt>
<trkpt lat="35.048815" lon="136.477043">
<ele>198.000000</ele>
<time>2026-03-26T23:41:14Z</time>
<speed>0.000000</speed>
<trueHeading>0.000000</trueHeading>
<magneticHeading>0.000000</magneticHeading>
<gpsHeading>0.000000</gpsHeading>
<haccuracy>-1.000000</haccuracy>
<vaccuracy>-1.000000</vaccuracy>
<internetconnect>-1</internetconnect>
</trkpt>
<trkpt lat="35.048907" lon="136.477038">
<ele>197.000000</ele>
<time>2026-03-26T23:41:29Z</time>
<speed>0.000000</speed>
<trueHeading>0.000000</trueHeading>
<magneticHeading>0.000000</magneticHeading>
<gpsHeading>0.000000</gpsHeading>
<haccuracy>-1.000000</haccuracy>
<vaccuracy>-1.000000</vaccuracy>
<internetconnect>-1</internetconnect>
</trkpt>
<trkpt lat="35.049003" lon="136.477038">
<ele>197.000000</ele>
<time>2026-03-26T23:41:44Z</time>
<speed>0.000000</speed>
<trueHeading>0.000000</trueHeading>
<magneticHeading>0.000000</magneticHeading>
<gpsHeading>0.000000</gpsHeading>
<haccuracy>-1.000000</haccuracy>
<vaccuracy>-1.000000</vaccuracy>
<internetconnect>-1</internetconnect>
</trkpt>
<trkpt lat="35.049043" lon="136.476931">
<ele>197.000000</ele>
<time>2026-03-26T23:41:59Z</time>
<speed>0.000000</speed>
<trueHeading>0.000000</trueHeading>
<magneticHeading>0.000000</magneticHeading>
<gpsHeading>0.000000</gpsHeading>
<haccuracy>-1.000000</haccuracy>
<vaccuracy>-1.000000</vaccuracy>
<internetconnect>-1</internetconnect>
</trkpt>
<trkpt lat="35.049023" lon="136.476819">
<ele>198.000000</ele>
<time>2026-03-26T23:42:13Z</time>
<speed>0.000000</speed>
<trueHeading>0.000000</trueHeading>
<magneticHeading>0.000000</magneticHeading>
<gpsHeading>0.000000</gpsHeading>
<haccuracy>-1.000000</haccuracy>
<vaccuracy>-1.000000</vaccuracy>
<internetconnect>-1</internetconnect>
</trkpt>
<trkpt lat="35.049007" lon="136.476702">
<ele>200.000000</ele>
<time>2026-03-26T23:42:28Z</time>
<speed>0.000000</speed>
<trueHeading>0.000000</trueHeading>
<magneticHeading>0.000000</magneticHeading>
<gpsHeading>0.000000</gpsHeading>
<haccuracy>-1.000000</haccuracy>
<vaccuracy>-1.000000</vaccuracy>
<internetconnect>-1</internetconnect>
</trkpt>
<trkpt lat="35.048979" lon="136.476580">
<ele>200.000000</ele>
<time>2026-03-26T23:42:44Z</time>
<speed>0.000000</speed>
<trueHeading>0.000000</trueHeading>
<magneticHeading>0.000000</magneticHeading>
<gpsHeading>0.000000</gpsHeading>
<haccuracy>-1.000000</haccuracy>
<vaccuracy>-1.000000</vaccuracy>
<internetconnect>-1</internetconnect>
</trkpt>
<trkpt lat="35.048939" lon="136.476467">
<ele>202.000000</ele>
<time>2026-03-26T23:43:00Z</time>
<speed>0.000000</speed>
<trueHeading>0.000000</trueHeading>
<magneticHeading>0.000000</magneticHeading>
<gpsHeading>0.000000</gpsHeading>
<haccuracy>-1.000000</haccuracy>
<vaccuracy>-1.000000</vaccuracy>
<internetconnect>-1</internetconnect>
</trkpt>
<trkpt lat="35.049031" lon="136.476419">
<ele>203.000000</ele>
<time>2026-03-26T23:43:16Z</time>
<speed>0.000000</speed>
<trueHeading>0.000000</trueHeading>
<magneticHeading>0.000000</magneticHeading>
<gpsHeading>0.000000</gpsHeading>
<haccuracy>-1.000000</haccuracy>
<vaccuracy>-1.000000</vaccuracy>
<internetconnect>-1</internetconnect>
</trkpt>
<trkpt lat="35.049123" lon="136.476375">
<ele>201.000000</ele>
<time>2026-03-26T23:43:31Z</time>
<speed>0.000000</speed>
<trueHeading>0.000000</trueHeading>
<magneticHeading>0.000000</magneticHeading>
<gpsHeading>0.000000</gpsHeading>
<haccuracy>-1.000000</haccuracy>
<vaccuracy>-1.000000</vaccuracy>
<internetconnect>-1</internetconnect>
</trkpt>
<trkpt lat="35.049174" lon="136.476272">
<ele>203.000000</ele>
<time>2026-03-26T23:43:46Z</time>
<speed>0.000000</speed>
<trueHeading>0.000000</trueHeading>
<magneticHeading>0.000000</magneticHeading>
<gpsHeading>0.000000</gpsHeading>
<haccuracy>-1.000000</haccuracy>
<vaccuracy>-1.000000</vaccuracy>
<internetconnect>-1</internetconnect>
</trkpt>
<trkpt lat="35.049250" lon="136.476209">
<ele>202.000000</ele>
<time>2026-03-26T23:44:00Z</time>
<speed>0.000000</speed>
<trueHeading>0.000000</trueHeading>
<magneticHeading>0.000000</magneticHeading>
<gpsHeading>0.000000</gpsHeading>
<haccuracy>-1.000000</haccuracy>
<vaccuracy>-1.000000</vaccuracy>
<internetconnect>-1</internetconnect>
</trkpt>
<trkpt lat="35.049342" lon="136.476160">
<ele>203.000000</ele>
<time>2026-03-26T23:44:16Z</time>
<speed>0.000000</speed>
<trueHeading>0.000000</trueHeading>
<magneticHeading>0.000000</magneticHeading>
<gpsHeading>0.000000</gpsHeading>
<haccuracy>-1.000000</haccuracy>
<vaccuracy>-1.000000</vaccuracy>
<internetconnect>-1</internetconnect>
</trkpt>
<trkpt lat="35.049426" lon="136.476097">
<ele>205.000000</ele>
<time>2026-03-26T23:44:31Z</time>
<speed>0.000000</speed>
<trueHeading>0.000000</trueHeading>
<magneticHeading>0.000000</magneticHeading>
<gpsHeading>0.000000</gpsHeading>
<haccuracy>-1.000000</haccuracy>
<vaccuracy>-1.000000</vaccuracy>
<internetconnect>-1</internetconnect>
</trkpt>
<trkpt lat="35.049498" lon="136.476024">
<ele>207.000000</ele>
<time>2026-03-26T23:44:46Z</time>
<speed>0.000000</speed>
<trueHeading>0.000000</trueHeading>
<magneticHeading>0.000000</magneticHeading>
<gpsHeading>0.000000</gpsHeading>
<haccuracy>-1.000000</haccuracy>
<vaccuracy>-1.000000</vaccuracy>
<internetconnect>-1</internetconnect>
</trkpt>
<trkpt lat="35.049582" lon="136.475965">
<ele>206.000000</ele>
<time>2026-03-26T23:45:01Z</time>
<speed>0.000000</speed>
<trueHeading>0.000000</trueHeading>
<magneticHeading>0.000000</magneticHeading>
<gpsHeading>0.000000</gpsHeading>
<haccuracy>-1.000000</haccuracy>
<vaccuracy>-1.000000</vaccuracy>
<internetconnect>-1</internetconnect>
</trkpt>
<trkpt lat="35.049670" lon="136.475902">
<ele>207.000000</ele>
<time>2026-03-26T23:45:16Z</time>
<speed>0.000000</speed>
<trueHeading>0.000000</trueHeading>
<magneticHeading>0.000000</magneticHeading>
<gpsHeading>0.000000</gpsHeading>
<haccuracy>-1.000000</haccuracy>
<vaccuracy>-1.000000</vaccuracy>
<internetconnect>-1</internetconnect>
</trkpt>
<trkpt lat="35.049757" lon="136.475868">
<ele>206.000000</ele>
<time>2026-03-26T23:45:31Z</time>
<speed>0.000000</speed>
<trueHeading>0.000000</trueHeading>
<magneticHeading>0.000000</magneticHeading>
<gpsHeading>0.000000</gpsHeading>
<haccuracy>-1.000000</haccuracy>
<vaccuracy>-1.000000</vaccuracy>
<internetconnect>-1</internetconnect>
</trkpt>
<trkpt lat="35.049857" lon="136.475868">
<ele>206.000000</ele>
<time>2026-03-26T23:45:46Z</time>
<speed>0.000000</speed>
<trueHeading>0.000000</trueHeading>
<magneticHeading>0.000000</magneticHeading>
<gpsHeading>0.000000</gpsHeading>
<haccuracy>-1.000000</haccuracy>
<vaccuracy>-1.000000</vaccuracy>
<internetconnect>-1</internetconnect>
</trkpt>
<trkpt lat="35.049957" lon="136.475868">
<ele>204.000000</ele>
<time>2026-03-26T23:46:02Z</time>
<speed>0.000000</speed>
<trueHeading>0.000000</trueHeading>
<magneticHeading>0.000000</magneticHeading>
<gpsHeading>0.000000</gpsHeading>
<haccuracy>-1.000000</haccuracy>
<vaccuracy>-1.000000</vaccuracy>
<internetconnect>-1</internetconnect>
</trkpt>
<trkpt lat="35.050061" lon="136.475853">
<ele>207.000000</ele>
<time>2026-03-26T23:46:18Z</time>
<speed>0.000000</speed>
<trueHeading>0.000000</trueHeading>
<magneticHeading>0.000000</magneticHeading>
<gpsHeading>0.000000</gpsHeading>
<haccuracy>-1.000000</haccuracy>
<vaccuracy>-1.000000</vaccuracy>
<internetconnect>-1</internetconnect>
</trkpt>
<trkpt lat="35.050149" lon="136.475829">
<ele>206.000000</ele>
<time>2026-03-26T23:46:32Z</time>
<speed>0.000000</speed>
<trueHeading>0.000000</trueHeading>
<magneticHeading>0.000000</magneticHeading>
<gpsHeading>0.000000</gpsHeading>
<haccuracy>-1.000000</haccuracy>
<vaccuracy>-1.000000</vaccuracy>
<internetconnect>-1</internetconnect>
</trkpt>
<trkpt lat="35.050236" lon="136.475785">
<ele>204.000000</ele>
<time>2026-03-26T23:46:46Z</time>
<speed>0.000000</speed>
<trueHeading>0.000000</trueHeading>
<magneticHeading>0.000000</magneticHeading>
<gpsHeading>0.000000</gpsHeading>
<haccuracy>-1.000000</haccuracy>
<vaccuracy>-1.000000</vaccuracy>
<internetconnect>-1</internetconnect>
</trkpt>
<trkpt lat="35.050328" lon="136.475755">
<ele>208.000000</ele>
<time>2026-03-26T23:47:01Z</time>
<speed>0.000000</speed>
<trueHeading>0.000000</trueHeading>
<magneticHeading>0.000000</magneticHeading>
<gpsHeading>0.000000</gpsHeading>
<haccuracy>-1.000000</haccuracy>
<vaccuracy>-1.000000</vaccuracy>
<internetconnect>-1</internetconnect>
</trkpt>
<trkpt lat="35.050420" lon="136.475726">
<ele>206.000000</ele>
<time>2026-03-26T23:47:16Z</time>
<speed>0.000000</speed>
<trueHeading>0.000000</trueHeading>
<magneticHeading>0.000000</magneticHeading>
<gpsHeading>0.000000</gpsHeading>
<haccuracy>-1.000000</haccuracy>
<vaccuracy>-1.000000</vaccuracy>
<internetconnect>-1</internetconnect>
</trkpt>
<trkpt lat="35.050508" lon="136.475692">
<ele>205.000000</ele>
<time>2026-03-26T23:47:30Z</time>
<speed>0.000000</speed>
<trueHeading>0.000000</trueHeading>
<magneticHeading>0.000000</magneticHeading>
<gpsHeading>0.000000</gpsHeading>
<haccuracy>-1.000000</haccuracy>
<vaccuracy>-1.000000</vaccuracy>
<internetconnect>-1</internetconnect>
</trkpt>
<trkpt lat="35.050604" lon="136.475673">
<ele>208.000000</ele>
<time>2026-03-26T23:47:45Z</time>
<speed>0.000000</speed>
<trueHeading>0.000000</trueHeading>
<magneticHeading>0.000000</magneticHeading>
<gpsHeading>0.000000</gpsHeading>
<haccuracy>-1.000000</haccuracy>
<vaccuracy>-1.000000</vaccuracy>
<internetconnect>-1</internetconnect>
</trkpt>
<trkpt lat="35.050699" lon="136.475643">
<ele>206.000000</ele>
<time>2026-03-26T23:48:00Z</time>
<speed>0.000000</speed>
<trueHeading>0.000000</trueHeading>
<magneticHeading>0.000000</magneticHeading>
<gpsHeading>0.000000</gpsHeading>
<haccuracy>-1.000000</haccuracy>
<vaccuracy>-1.000000</vaccuracy>
<internetconnect>-1</internetconnect>
</trkpt>
<trkpt lat="35.050787" lon="136.475590">
<ele>209.000000</ele>
<time>2026-03-26T23:48:16Z</time>
<speed>0.000000</speed>
<trueHeading>0.000000</trueHeading>
<magneticHeading>0.000000</magneticHeading>
<gpsHeading>0.000000</gpsHeading>
<haccuracy>-1.000000</haccuracy>
<vaccuracy>-1.000000</vaccuracy>
<internetconnect>-1</internetconnect>
</trkpt>
<trkpt lat="35.050875" lon="136.475556">
<ele>206.000000</ele>
<time>2026-03-26T23:48:30Z</time>
<speed>0.000000</speed>
<trueHeading>0.000000</trueHeading>
<magneticHeading>0.000000</magneticHeading>
<gpsHeading>0.000000</gpsHeading>
<haccuracy>-1.000000</haccuracy>
<vaccuracy>-1.000000</vaccuracy>
<internetconnect>-1</internetconnect>
</trkpt>
<trkpt lat="35.050971" lon="136.475531">
<ele>204.000000</ele>
<time>2026-03-26T23:48:45Z</time>
<speed>0.000000</speed>
<trueHeading>0.000000</trueHeading>
<magneticHeading>0.000000</magneticHeading>
<gpsHeading>0.000000</gpsHeading>
<haccuracy>-1.000000</haccuracy>
<vaccuracy>-1.000000</vaccuracy>
<internetconnect>-1</internetconnect>
</trkpt>
<trkpt lat="35.051067" lon="136.475507">
<ele>205.000000</ele>
<time>2026-03-26T23:49:00Z</time>
<speed>0.000000</speed>
<trueHeading>0.000000</trueHeading>
<magneticHeading>0.000000</magneticHeading>
<gpsHeading>0.000000</gpsHeading>
<haccuracy>-1.000000</haccuracy>
<vaccuracy>-1.000000</vaccuracy>
<internetconnect>-1</internetconnect>
</trkpt>
<trkpt lat="35.051154" lon="136.475468">
<ele>201.000000</ele>
<time>2026-03-26T23:49:15Z</time>
<speed>0.000000</speed>
<trueHeading>0.000000</trueHeading>
<magneticHeading>0.000000</magneticHeading>
<gpsHeading>0.000000</gpsHeading>
<haccuracy>-1.000000</haccuracy>
<vaccuracy>-1.000000</vaccuracy>
<internetconnect>-1</internetconnect>
</trkpt>
<trkpt lat="35.051246" lon="136.475468">
<ele>199.000000</ele>
<time>2026-03-26T23:49:29Z</time>
<speed>0.000000</speed>
<trueHeading>0.000000</trueHeading>
<magneticHeading>0.000000</magneticHeading>
<gpsHeading>0.000000</gpsHeading>
<haccuracy>-1.000000</haccuracy>
<vaccuracy>-1.000000</vaccuracy>
<internetconnect>-1</internetconnect>
</trkpt>
<trkpt lat="35.051310" lon="136.475585">
<ele>196.000000</ele>
<time>2026-03-26T23:49:47Z</time>
<speed>0.000000</speed>
<trueHeading>0.000000</trueHeading>
<magneticHeading>0.000000</magneticHeading>
<gpsHeading>0.000000</gpsHeading>
<haccuracy>-1.000000</haccuracy>
<vaccuracy>-1.000000</vaccuracy>
<internetconnect>-1</internetconnect>
</trkpt>
<trkpt lat="35.051318" lon="136.475702">
<ele>194.000000</ele>
<time>2026-03-26T23:50:02Z</time>
<speed>0.000000</speed>
<trueHeading>0.000000</trueHeading>
<magneticHeading>0.000000</magneticHeading>
<gpsHeading>0.000000</gpsHeading>
<haccuracy>-1.000000</haccuracy>
<vaccuracy>-1.000000</vaccuracy>
<internetconnect>-1</internetconnect>
</trkpt>
<trkpt lat="35.051326" lon="136.475814">
<ele>193.000000</ele>
<time>2026-03-26T23:50:16Z</time>
<speed>0.000000</speed>
<trueHeading>0.000000</trueHeading>
<magneticHeading>0.000000</magneticHeading>
<gpsHeading>0.000000</gpsHeading>
<haccuracy>-1.000000</haccuracy>
<vaccuracy>-1.000000</vaccuracy>
<internetconnect>-1</internetconnect>
</trkpt>
<trkpt lat="35.051334" lon="136.475926">
<ele>192.000000</ele>
<time>2026-03-26T23:50:30Z</time>
<speed>0.000000</speed>
<trueHeading>0.000000</trueHeading>
<magneticHeading>0.000000</magneticHeading>
<gpsHeading>0.000000</gpsHeading>
<haccuracy>-1.000000</haccuracy>
<vaccuracy>-1.000000</vaccuracy>
<internetconnect>-1</internetconnect>
</trkpt>
<trkpt lat="35.051418" lon="136.475975">
<ele>191.000000</ele>
<time>2026-03-26T23:50:45Z</time>
<speed>0.000000</speed>
<trueHeading>0.000000</trueHeading>
<magneticHeading>0.000000</magneticHeading>
<gpsHeading>0.000000</gpsHeading>
<haccuracy>-1.000000</haccuracy>
<vaccuracy>-1.000000</vaccuracy>
<internetconnect>-1</internetconnect>
</trkpt>
<trkpt lat="35.051510" lon="136.475980">
<ele>192.000000</ele>
<time>2026-03-26T23:50:59Z</time>
<speed>0.000000</speed>
<trueHeading>0.000000</trueHeading>
<magneticHeading>0.000000</magneticHeading>
<gpsHeading>0.000000</gpsHeading>
<haccuracy>-1.000000</haccuracy>
<vaccuracy>-1.000000</vaccuracy>
<internetconnect>-1</internetconnect>
</trkpt>
<trkpt lat="35.051561" lon="136.475882">
<ele>192.000000</ele>
<time>2026-03-26T23:51:14Z</time>
<speed>0.000000</speed>
<trueHeading>0.000000</trueHeading>
<magneticHeading>0.000000</magneticHeading>
<gpsHeading>0.000000</gpsHeading>
<haccuracy>-1.000000</haccuracy>
<vaccuracy>-1.000000</vaccuracy>
<internetconnect>-1</internetconnect>
</trkpt>
<trkpt lat="35.051597" lon="136.475775">
<ele>194.000000</ele>
<time>2026-03-26T23:51:29Z</time>
<speed>0.000000</speed>
<trueHeading>0.000000</trueHeading>
<magneticHeading>0.000000</magneticHeading>
<gpsHeading>0.000000</gpsHeading>
<haccuracy>-1.000000</haccuracy>
<vaccuracy>-1.000000</vaccuracy>
<internetconnect>-1</internetconnect>
</trkpt>
<trkpt lat="35.051610" lon="136.475663">
<ele>196.000000</ele>
<time>2026-03-26T23:51:43Z</time>
<speed>0.000000</speed>
<trueHeading>0.000000</trueHeading>
<magneticHeading>0.000000</magneticHeading>
<gpsHeading>0.000000</gpsHeading>
<haccuracy>-1.000000</haccuracy>
<vaccuracy>-1.000000</vaccuracy>
<internetconnect>-1</internetconnect>
</trkpt>
<trkpt lat="35.051638" lon="136.475551">
<ele>197.000000</ele>
<time>2026-03-26T23:51:58Z</time>
<speed>0.000000</speed>
<trueHeading>0.000000</trueHeading>
<magneticHeading>0.000000</magneticHeading>
<gpsHeading>0.000000</gpsHeading>
<haccuracy>-1.000000</haccuracy>
<vaccuracy>-1.000000</vaccuracy>
<internetconnect>-1</internetconnect>
</trkpt>
<trkpt lat="35.051725" lon="136.475512">
<ele>199.000000</ele>
<time>2026-03-26T23:52:12Z</time>
<speed>0.000000</speed>
<trueHeading>0.000000</trueHeading>
<magneticHeading>0.000000</magneticHeading>
<gpsHeading>0.000000</gpsHeading>
<haccuracy>-1.000000</haccuracy>
<vaccuracy>-1.000000</vaccuracy>
<internetconnect>-1</internetconnect>
</trkpt>
<trkpt lat="35.051825" lon="136.475536">
<ele>199.000000</ele>
<time>2026-03-26T23:52:28Z</time>
<speed>0.000000</speed>
<trueHeading>0.000000</trueHeading>
<magneticHeading>0.000000</magneticHeading>
<gpsHeading>0.000000</gpsHeading>
<haccuracy>-1.000000</haccuracy>
<vaccuracy>-1.000000</vaccuracy>
<internetconnect>-1</internetconnect>
</trkpt>
<trkpt lat="35.051913" lon="136.475585">
<ele>199.000000</ele>
<time>2026-03-26T23:52:43Z</time>
<speed>0.000000</speed>
<trueHeading>0.000000</trueHeading>
<magneticHeading>0.000000</magneticHeading>
<gpsHeading>0.000000</gpsHeading>
<haccuracy>-1.000000</haccuracy>
<vaccuracy>-1.000000</vaccuracy>
<internetconnect>-1</internetconnect>
</trkpt>
<trkpt lat="35.052001" lon="136.475609">
<ele>199.000000</ele>
<time>2026-03-26T23:52:57Z</time>
<speed>0.000000</speed>
<trueHeading>0.000000</trueHeading>
<magneticHeading>0.000000</magneticHeading>
<gpsHeading>0.000000</gpsHeading>
<haccuracy>-1.000000</haccuracy>
<vaccuracy>-1.000000</vaccuracy>
<internetconnect>-1</internetconnect>
</trkpt>
<trkpt lat="35.052093" lon="136.475614">
<ele>199.000000</ele>
<time>2026-03-26T23:53:11Z</time>
<speed>0.000000</speed>
<trueHeading>0.000000</trueHeading>
<magneticHeading>0.000000</magneticHeading>
<gpsHeading>0.000000</gpsHeading>
<haccuracy>-1.000000</haccuracy>
<vaccuracy>-1.000000</vaccuracy>
<internetconnect>-1</internetconnect>
</trkpt>
<trkpt lat="35.052184" lon="136.475614">
<ele>200.000000</ele>
<time>2026-03-26T23:53:26Z</time>
<speed>0.000000</speed>
<trueHeading>0.000000</trueHeading>
<magneticHeading>0.000000</magneticHeading>
<gpsHeading>0.000000</gpsHeading>
<haccuracy>-1.000000</haccuracy>
<vaccuracy>-1.000000</vaccuracy>
<internetconnect>-1</internetconnect>
</trkpt>
<trkpt lat="35.052276" lon="136.475638">
<ele>203.000000</ele>
<time>2026-03-26T23:53:40Z</time>
<speed>0.000000</speed>
<trueHeading>0.000000</trueHeading>
<magneticHeading>0.000000</magneticHeading>
<gpsHeading>0.000000</gpsHeading>
<haccuracy>-1.000000</haccuracy>
<vaccuracy>-1.000000</vaccuracy>
<internetconnect>-1</internetconnect>
</trkpt>
<trkpt lat="35.052332" lon="136.475692">
<ele>201.000000</ele>
<time>2026-03-26T23:53:51Z</time>
<speed>0.000000</speed>
<trueHeading>0.000000</trueHeading>
<magneticHeading>0.000000</magneticHeading>
<gpsHeading>0.000000</gpsHeading>
<haccuracy>-1.000000</haccuracy>
<vaccuracy>-1.000000</vaccuracy>
<internetconnect>-1</internetconnect>
</trkpt>
<trkpt lat="35.052290" lon="136.475649">
<ele>203.000000</ele>
<time>2026-03-26T23:54:00Z</time>
<speed>0.000000</speed>
<trueHeading>0.000000</trueHeading>
<magneticHeading>0.000000</magneticHeading>
<gpsHeading>0.000000</gpsHeading>
<haccuracy>-1.000000</haccuracy>
<vaccuracy>-1.000000</vaccuracy>
<internetconnect>-1</internetconnect>
</trkpt>
<trkpt lat="35.052141" lon="136.476958">
<ele>176.000000</ele>
<time>2026-03-26T23:54:00Z</time>
<speed>0.000000</speed>
<trueHeading>0.000000</trueHeading>
<magneticHeading>0.000000</magneticHeading>
<gpsHeading>0.000000</gpsHeading>
<haccuracy>-1.000000</haccuracy>
<vaccuracy>-1.000000</vaccuracy>
<internetconnect>-1</internetconnect>
</trkpt>
<trkpt lat="35.052110" lon="136.477329">
<ele>172.000000</ele>
<time>2026-03-26T23:54:57Z</time>
<speed>0.000000</speed>
<trueHeading>0.000000</trueHeading>
<magneticHeading>0.000000</magneticHeading>
<gpsHeading>0.000000</gpsHeading>
<haccuracy>-1.000000</haccuracy>
<vaccuracy>-1.000000</vaccuracy>
<internetconnect>-1</internetconnect>
</trkpt>
<trkpt lat="35.052080" lon="136.477956">
<ele>171.000000</ele>
<time>2026-03-26T23:56:34Z</time>
<speed>0.000000</speed>
<trueHeading>0.000000</trueHeading>
<magneticHeading>0.000000</magneticHeading>
<gpsHeading>0.000000</gpsHeading>
<haccuracy>-1.000000</haccuracy>
<vaccuracy>-1.000000</vaccuracy>
<internetconnect>-1</internetconnect>
</trkpt>
<trkpt lat="35.052080" lon="136.478031">
<ele>170.000000</ele>
<time>2026-03-26T23:56:46Z</time>
<speed>0.000000</speed>
<trueHeading>0.000000</trueHeading>
<magneticHeading>0.000000</magneticHeading>
<gpsHeading>0.000000</gpsHeading>
<haccuracy>-1.000000</haccuracy>
<vaccuracy>-1.000000</vaccuracy>
<internetconnect>-1</internetconnect>
</trkpt>
<trkpt lat="35.052080" lon="136.478031">
<ele>170.000000</ele>
<time>2026-03-26T23:56:46Z</time>
<speed>0.000000</speed>
<trueHeading>0.000000</trueHeading>
<magneticHeading>0.000000</magneticHeading>
<gpsHeading>0.000000</gpsHeading>
<haccuracy>-1.000000</haccuracy>
<vaccuracy>-1.000000</vaccuracy>
<internetconnect>-1</internetconnect>
</trkpt>
<trkpt lat="35.052128" lon="136.478106">
<ele>169.000000</ele>
<time>2026-03-26T23:57:00Z</time>
<speed>0.000000</speed>
<trueHeading>0.000000</trueHeading>
<magneticHeading>0.000000</magneticHeading>
<gpsHeading>0.000000</gpsHeading>
<haccuracy>-1.000000</haccuracy>
<vaccuracy>-1.000000</vaccuracy>
<internetconnect>-1</internetconnect>
</trkpt>
<trkpt lat="35.052181" lon="136.478224">
<ele>168.000000</ele>
<time>2026-03-26T23:57:21Z</time>
<speed>0.000000</speed>
<trueHeading>0.000000</trueHeading>
<magneticHeading>0.000000</magneticHeading>
<gpsHeading>0.000000</gpsHeading>
<haccuracy>-1.000000</haccuracy>
<vaccuracy>-1.000000</vaccuracy>
<internetconnect>-1</internetconnect>
</trkpt>
<trkpt lat="35.052541" lon="136.479185">
<ele>162.000000</ele>
<time>2026-03-27T00:00:04Z</time>
<speed>0.000000</speed>
<trueHeading>0.000000</trueHeading>
<magneticHeading>0.000000</magneticHeading>
<gpsHeading>0.000000</gpsHeading>
<haccuracy>-1.000000</haccuracy>
<vaccuracy>-1.000000</vaccuracy>
<internetconnect>-1</internetconnect>
</trkpt>
<trkpt lat="35.052637" lon="136.479410">
<ele>161.000000</ele>
<time>2026-03-27T00:00:44Z</time>
<speed>0.000000</speed>
<trueHeading>0.000000</trueHeading>
<magneticHeading>0.000000</magneticHeading>
<gpsHeading>0.000000</gpsHeading>
<haccuracy>-1.000000</haccuracy>
<vaccuracy>-1.000000</vaccuracy>
<internetconnect>-1</internetconnect>
</trkpt>
<trkpt lat="35.052668" lon="136.479506">
<ele>160.000000</ele>
<time>2026-03-27T00:01:00Z</time>
<speed>0.000000</speed>
<trueHeading>0.000000</trueHeading>
<magneticHeading>0.000000</magneticHeading>
<gpsHeading>0.000000</gpsHeading>
<haccuracy>-1.000000</haccuracy>
<vaccuracy>-1.000000</vaccuracy>
<internetconnect>-1</internetconnect>
</trkpt>
<trkpt lat="35.052765" lon="136.479516">
<ele>164.000000</ele>
<time>2026-03-27T00:01:00Z</time>
<speed>0.000000</speed>
<trueHeading>0.000000</trueHeading>
<magneticHeading>0.000000</magneticHeading>
<gpsHeading>0.000000</gpsHeading>
<haccuracy>-1.000000</haccuracy>
<vaccuracy>-1.000000</vaccuracy>
<internetconnect>-1</internetconnect>
</trkpt>
<trkpt lat="35.052854" lon="136.479543">
<ele>163.000000</ele>
<time>2026-03-27T00:01:12Z</time>
<speed>0.000000</speed>
<trueHeading>0.000000</trueHeading>
<magneticHeading>0.000000</magneticHeading>
<gpsHeading>0.000000</gpsHeading>
<haccuracy>-1.000000</haccuracy>
<vaccuracy>-1.000000</vaccuracy>
<internetconnect>-1</internetconnect>
</trkpt>
<trkpt lat="35.052951" lon="136.479570">
<ele>162.000000</ele>
<time>2026-03-27T00:01:25Z</time>
<speed>0.000000</speed>
<trueHeading>0.000000</trueHeading>
<magneticHeading>0.000000</magneticHeading>
<gpsHeading>0.000000</gpsHeading>
<haccuracy>-1.000000</haccuracy>
<vaccuracy>-1.000000</vaccuracy>
<internetconnect>-1</internetconnect>
</trkpt>
<trkpt lat="35.053047" lon="136.479579">
<ele>161.000000</ele>
<time>2026-03-27T00:01:37Z</time>
<speed>0.000000</speed>
<trueHeading>0.000000</trueHeading>
<magneticHeading>0.000000</magneticHeading>
<gpsHeading>0.000000</gpsHeading>
<haccuracy>-1.000000</haccuracy>
<vaccuracy>-1.000000</vaccuracy>
<internetconnect>-1</internetconnect>
</trkpt>
<trkpt lat="35.053136" lon="136.479597">
<ele>160.000000</ele>
<time>2026-03-27T00:01:49Z</time>
<speed>0.000000</speed>
<trueHeading>0.000000</trueHeading>
<magneticHeading>0.000000</magneticHeading>
<gpsHeading>0.000000</gpsHeading>
<haccuracy>-1.000000</haccuracy>
<vaccuracy>-1.000000</vaccuracy>
<internetconnect>-1</internetconnect>
</trkpt>
<trkpt lat="35.053240" lon="136.479606">
<ele>160.000000</ele>
<time>2026-03-27T00:02:03Z</time>
<speed>0.000000</speed>
<trueHeading>0.000000</trueHeading>
<magneticHeading>0.000000</magneticHeading>
<gpsHeading>0.000000</gpsHeading>
<haccuracy>-1.000000</haccuracy>
<vaccuracy>-1.000000</vaccuracy>
<internetconnect>-1</internetconnect>
</trkpt>
<trkpt lat="35.053344" lon="136.479625">
<ele>159.000000</ele>
<time>2026-03-27T00:02:17Z</time>
<speed>0.000000</speed>
<trueHeading>0.000000</trueHeading>
<magneticHeading>0.000000</magneticHeading>
<gpsHeading>0.000000</gpsHeading>
<haccuracy>-1.000000</haccuracy>
<vaccuracy>-1.000000</vaccuracy>
<internetconnect>-1</internetconnect>
</trkpt>
<trkpt lat="35.053434" lon="136.479652">
<ele>158.000000</ele>
<time>2026-03-27T00:02:29Z</time>
<speed>0.000000</speed>
<trueHeading>0.000000</trueHeading>
<magneticHeading>0.000000</magneticHeading>
<gpsHeading>0.000000</gpsHeading>
<haccuracy>-1.000000</haccuracy>
<vaccuracy>-1.000000</vaccuracy>
<internetconnect>-1</internetconnect>
</trkpt>
<trkpt lat="35.053538" lon="136.479679">
<ele>159.000000</ele>
<time>2026-03-27T00:02:43Z</time>
<speed>0.000000</speed>
<trueHeading>0.000000</trueHeading>
<magneticHeading>0.000000</magneticHeading>
<gpsHeading>0.000000</gpsHeading>
<haccuracy>-1.000000</haccuracy>
<vaccuracy>-1.000000</vaccuracy>
<internetconnect>-1</internetconnect>
</trkpt>
<trkpt lat="35.053635" lon="136.479706">
<ele>159.000000</ele>
<time>2026-03-27T00:02:56Z</time>
<speed>0.000000</speed>
<trueHeading>0.000000</trueHeading>
<magneticHeading>0.000000</magneticHeading>
<gpsHeading>0.000000</gpsHeading>
<haccuracy>-1.000000</haccuracy>
<vaccuracy>-1.000000</vaccuracy>
<internetconnect>-1</internetconnect>
</trkpt>
<trkpt lat="35.053724" lon="136.479743">
<ele>158.000000</ele>
<time>2026-03-27T00:03:08Z</time>
<speed>0.000000</speed>
<trueHeading>0.000000</trueHeading>
<magneticHeading>0.000000</magneticHeading>
<gpsHeading>0.000000</gpsHeading>
<haccuracy>-1.000000</haccuracy>
<vaccuracy>-1.000000</vaccuracy>
<internetconnect>-1</internetconnect>
</trkpt>
<trkpt lat="35.053820" lon="136.479752">
<ele>158.000000</ele>
<time>2026-03-27T00:03:21Z</time>
<speed>0.000000</speed>
<trueHeading>0.000000</trueHeading>
<magneticHeading>0.000000</magneticHeading>
<gpsHeading>0.000000</gpsHeading>
<haccuracy>-1.000000</haccuracy>
<vaccuracy>-1.000000</vaccuracy>
<internetconnect>-1</internetconnect>
</trkpt>
<trkpt lat="35.053917" lon="136.479770">
<ele>157.000000</ele>
<time>2026-03-27T00:03:34Z</time>
<speed>0.000000</speed>
<trueHeading>0.000000</trueHeading>
<magneticHeading>0.000000</magneticHeading>
<gpsHeading>0.000000</gpsHeading>
<haccuracy>-1.000000</haccuracy>
<vaccuracy>-1.000000</vaccuracy>
<internetconnect>-1</internetconnect>
</trkpt>
<trkpt lat="35.054014" lon="136.479770">
<ele>156.000000</ele>
<time>2026-03-27T00:03:46Z</time>
<speed>0.000000</speed>
<trueHeading>0.000000</trueHeading>
<magneticHeading>0.000000</magneticHeading>
<gpsHeading>0.000000</gpsHeading>
<haccuracy>-1.000000</haccuracy>
<vaccuracy>-1.000000</vaccuracy>
<internetconnect>-1</internetconnect>
</trkpt>
<trkpt lat="35.054110" lon="136.479770">
<ele>155.000000</ele>
<time>2026-03-27T00:03:59Z</time>
<speed>0.000000</speed>
<trueHeading>0.000000</trueHeading>
<magneticHeading>0.000000</magneticHeading>
<gpsHeading>0.000000</gpsHeading>
<haccuracy>-1.000000</haccuracy>
<vaccuracy>-1.000000</vaccuracy>
<internetconnect>-1</internetconnect>
</trkpt>
<trkpt lat="35.054214" lon="136.479779">
<ele>155.000000</ele>
<time>2026-03-27T00:04:13Z</time>
<speed>0.000000</speed>
<trueHeading>0.000000</trueHeading>
<magneticHeading>0.000000</magneticHeading>
<gpsHeading>0.000000</gpsHeading>
<haccuracy>-1.000000</haccuracy>
<vaccuracy>-1.000000</vaccuracy>
<internetconnect>-1</internetconnect>
</trkpt>
<trkpt lat="35.054318" lon="136.479779">
<ele>156.000000</ele>
<time>2026-03-27T00:04:26Z</time>
<speed>0.000000</speed>
<trueHeading>0.000000</trueHeading>
<magneticHeading>0.000000</magneticHeading>
<gpsHeading>0.000000</gpsHeading>
<haccuracy>-1.000000</haccuracy>
<vaccuracy>-1.000000</vaccuracy>
<internetconnect>-1</internetconnect>
</trkpt>
<trkpt lat="35.054415" lon="136.479779">
<ele>157.000000</ele>
<time>2026-03-27T00:04:39Z</time>
<speed>0.000000</speed>
<trueHeading>0.000000</trueHeading>
<magneticHeading>0.000000</magneticHeading>
<gpsHeading>0.000000</gpsHeading>
<haccuracy>-1.000000</haccuracy>
<vaccuracy>-1.000000</vaccuracy>
<internetconnect>-1</internetconnect>
</trkpt>
<trkpt lat="35.054511" lon="136.479779">
<ele>157.000000</ele>
<time>2026-03-27T00:04:52Z</time>
<speed>0.000000</speed>
<trueHeading>0.000000</trueHeading>
<magneticHeading>0.000000</magneticHeading>
<gpsHeading>0.000000</gpsHeading>
<haccuracy>-1.000000</haccuracy>
<vaccuracy>-1.000000</vaccuracy>
<internetconnect>-1</internetconnect>
</trkpt>
<trkpt lat="35.054601" lon="136.479752">
<ele>158.000000</ele>
<time>2026-03-27T00:05:04Z</time>
<speed>0.000000</speed>
<trueHeading>0.000000</trueHeading>
<magneticHeading>0.000000</magneticHeading>
<gpsHeading>0.000000</gpsHeading>
<haccuracy>-1.000000</haccuracy>
<vaccuracy>-1.000000</vaccuracy>
<internetconnect>-1</internetconnect>
</trkpt>
<trkpt lat="35.054682" lon="136.479688">
<ele>159.000000</ele>
<time>2026-03-27T00:05:16Z</time>
<speed>0.000000</speed>
<trueHeading>0.000000</trueHeading>
<magneticHeading>0.000000</magneticHeading>
<gpsHeading>0.000000</gpsHeading>
<haccuracy>-1.000000</haccuracy>
<vaccuracy>-1.000000</vaccuracy>
<internetconnect>-1</internetconnect>
</trkpt>
<trkpt lat="35.054749" lon="136.479606">
<ele>159.000000</ele>
<time>2026-03-27T00:05:29Z</time>
<speed>0.000000</speed>
<trueHeading>0.000000</trueHeading>
<magneticHeading>0.000000</magneticHeading>
<gpsHeading>0.000000</gpsHeading>
<haccuracy>-1.000000</haccuracy>
<vaccuracy>-1.000000</vaccuracy>
<internetconnect>-1</internetconnect>
</trkpt>
<trkpt lat="35.054823" lon="136.479543">
<ele>160.000000</ele>
<time>2026-03-27T00:05:41Z</time>
<speed>0.000000</speed>
<trueHeading>0.000000</trueHeading>
<magneticHeading>0.000000</magneticHeading>
<gpsHeading>0.000000</gpsHeading>
<haccuracy>-1.000000</haccuracy>
<vaccuracy>-1.000000</vaccuracy>
<internetconnect>-1</internetconnect>
</trkpt>
<trkpt lat="35.054920" lon="136.479506">
<ele>159.000000</ele>
<time>2026-03-27T00:05:54Z</time>
<speed>0.000000</speed>
<trueHeading>0.000000</trueHeading>
<magneticHeading>0.000000</magneticHeading>
<gpsHeading>0.000000</gpsHeading>
<haccuracy>-1.000000</haccuracy>
<vaccuracy>-1.000000</vaccuracy>
<internetconnect>-1</internetconnect>
</trkpt>
<trkpt lat="35.055024" lon="136.479506">
<ele>159.000000</ele>
<time>2026-03-27T00:06:08Z</time>
<speed>0.000000</speed>
<trueHeading>0.000000</trueHeading>
<magneticHeading>0.000000</magneticHeading>
<gpsHeading>0.000000</gpsHeading>
<haccuracy>-1.000000</haccuracy>
<vaccuracy>-1.000000</vaccuracy>
<internetconnect>-1</internetconnect>
</trkpt>
<trkpt lat="35.055121" lon="136.479506">
<ele>159.000000</ele>
<time>2026-03-27T00:06:20Z</time>
<speed>0.000000</speed>
<trueHeading>0.000000</trueHeading>
<magneticHeading>0.000000</magneticHeading>
<gpsHeading>0.000000</gpsHeading>
<haccuracy>-1.000000</haccuracy>
<vaccuracy>-1.000000</vaccuracy>
<internetconnect>-1</internetconnect>
</trkpt>
<trkpt lat="35.055210" lon="136.479488">
<ele>159.000000</ele>
<time>2026-03-27T00:06:32Z</time>
<speed>0.000000</speed>
<trueHeading>0.000000</trueHeading>
<magneticHeading>0.000000</magneticHeading>
<gpsHeading>0.000000</gpsHeading>
<haccuracy>-1.000000</haccuracy>
<vaccuracy>-1.000000</vaccuracy>
<internetconnect>-1</internetconnect>
</trkpt>
<trkpt lat="35.055314" lon="136.479470">
<ele>157.000000</ele>
<time>2026-03-27T00:06:46Z</time>
<speed>0.000000</speed>
<trueHeading>0.000000</trueHeading>
<magneticHeading>0.000000</magneticHeading>
<gpsHeading>0.000000</gpsHeading>
<haccuracy>-1.000000</haccuracy>
<vaccuracy>-1.000000</vaccuracy>
<internetconnect>-1</internetconnect>
</trkpt>
<trkpt lat="35.055418" lon="136.479470">
<ele>157.000000</ele>
<time>2026-03-27T00:07:00Z</time>
<speed>0.000000</speed>
<trueHeading>0.000000</trueHeading>
<magneticHeading>0.000000</magneticHeading>
<gpsHeading>0.000000</gpsHeading>
<haccuracy>-1.000000</haccuracy>
<vaccuracy>-1.000000</vaccuracy>
<internetconnect>-1</internetconnect>
</trkpt>
<trkpt lat="35.055515" lon="136.479470">
<ele>155.000000</ele>
<time>2026-03-27T00:07:12Z</time>
<speed>0.000000</speed>
<trueHeading>0.000000</trueHeading>
<magneticHeading>0.000000</magneticHeading>
<gpsHeading>0.000000</gpsHeading>
<haccuracy>-1.000000</haccuracy>
<vaccuracy>-1.000000</vaccuracy>
<internetconnect>-1</internetconnect>
</trkpt>
<trkpt lat="35.055619" lon="136.479470">
<ele>154.000000</ele>
<time>2026-03-27T00:07:26Z</time>
<speed>0.000000</speed>
<trueHeading>0.000000</trueHeading>
<magneticHeading>0.000000</magneticHeading>
<gpsHeading>0.000000</gpsHeading>
<haccuracy>-1.000000</haccuracy>
<vaccuracy>-1.000000</vaccuracy>
<internetconnect>-1</internetconnect>
</trkpt>
<trkpt lat="35.055730" lon="136.479470">
<ele>152.000000</ele>
<time>2026-03-27T00:07:40Z</time>
<speed>0.000000</speed>
<trueHeading>0.000000</trueHeading>
<magneticHeading>0.000000</magneticHeading>
<gpsHeading>0.000000</gpsHeading>
<haccuracy>-1.000000</haccuracy>
<vaccuracy>-1.000000</vaccuracy>
<internetconnect>-1</internetconnect>
</trkpt>
<trkpt lat="35.055827" lon="136.479470">
<ele>150.000000</ele>
<time>2026-03-27T00:07:53Z</time>
<speed>0.000000</speed>
<trueHeading>0.000000</trueHeading>
<magneticHeading>0.000000</magneticHeading>
<gpsHeading>0.000000</gpsHeading>
<haccuracy>-1.000000</haccuracy>
<vaccuracy>-1.000000</vaccuracy>
<internetconnect>-1</internetconnect>
</trkpt>
<trkpt lat="35.055931" lon="136.479534">
<ele>148.000000</ele>
<time>2026-03-27T00:08:08Z</time>
<speed>0.000000</speed>
<trueHeading>0.000000</trueHeading>
<magneticHeading>0.000000</magneticHeading>
<gpsHeading>0.000000</gpsHeading>
<haccuracy>-1.000000</haccuracy>
<vaccuracy>-1.000000</vaccuracy>
<internetconnect>-1</internetconnect>
</trkpt>
<trkpt lat="35.055998" lon="136.479615">
<ele>147.000000</ele>
<time>2026-03-27T00:08:21Z</time>
<speed>0.000000</speed>
<trueHeading>0.000000</trueHeading>
<magneticHeading>0.000000</magneticHeading>
<gpsHeading>0.000000</gpsHeading>
<haccuracy>-1.000000</haccuracy>
<vaccuracy>-1.000000</vaccuracy>
<internetconnect>-1</internetconnect>
</trkpt>
<trkpt lat="35.056080" lon="136.479697">
<ele>146.000000</ele>
<time>2026-03-27T00:08:35Z</time>
<speed>0.000000</speed>
<trueHeading>0.000000</trueHeading>
<magneticHeading>0.000000</magneticHeading>
<gpsHeading>0.000000</gpsHeading>
<haccuracy>-1.000000</haccuracy>
<vaccuracy>-1.000000</vaccuracy>
<internetconnect>-1</internetconnect>
</trkpt>
<trkpt lat="35.056161" lon="136.479779">
<ele>147.000000</ele>
<time>2026-03-27T00:08:49Z</time>
<speed>0.000000</speed>
<trueHeading>0.000000</trueHeading>
<magneticHeading>0.000000</magneticHeading>
<gpsHeading>0.000000</gpsHeading>
<haccuracy>-1.000000</haccuracy>
<vaccuracy>-1.000000</vaccuracy>
<internetconnect>-1</internetconnect>
</trkpt>
<trkpt lat="35.056236" lon="136.479870">
<ele>148.000000</ele>
<time>2026-03-27T00:09:02Z</time>
<speed>0.000000</speed>
<trueHeading>0.000000</trueHeading>
<magneticHeading>0.000000</magneticHeading>
<gpsHeading>0.000000</gpsHeading>
<haccuracy>-1.000000</haccuracy>
<vaccuracy>-1.000000</vaccuracy>
<internetconnect>-1</internetconnect>
</trkpt>
<trkpt lat="35.056310" lon="136.479960">
<ele>149.000000</ele>
<time>2026-03-27T00:09:16Z</time>
<speed>0.000000</speed>
<trueHeading>0.000000</trueHeading>
<magneticHeading>0.000000</magneticHeading>
<gpsHeading>0.000000</gpsHeading>
<haccuracy>-1.000000</haccuracy>
<vaccuracy>-1.000000</vaccuracy>
<internetconnect>-1</internetconnect>
</trkpt>
<trkpt lat="35.056384" lon="136.480069">
<ele>148.000000</ele>
<time>2026-03-27T00:09:32Z</time>
<speed>0.000000</speed>
<trueHeading>0.000000</trueHeading>
<magneticHeading>0.000000</magneticHeading>
<gpsHeading>0.000000</gpsHeading>
<haccuracy>-1.000000</haccuracy>
<vaccuracy>-1.000000</vaccuracy>
<internetconnect>-1</internetconnect>
</trkpt>
<trkpt lat="35.056459" lon="136.480178">
<ele>148.000000</ele>
<time>2026-03-27T00:09:47Z</time>
<speed>0.000000</speed>
<trueHeading>0.000000</trueHeading>
<magneticHeading>0.000000</magneticHeading>
<gpsHeading>0.000000</gpsHeading>
<haccuracy>-1.000000</haccuracy>
<vaccuracy>-1.000000</vaccuracy>
<internetconnect>-1</internetconnect>
</trkpt>
<trkpt lat="35.056511" lon="136.480278">
<ele>148.000000</ele>
<time>2026-03-27T00:10:00Z</time>
<speed>0.000000</speed>
<trueHeading>0.000000</trueHeading>
<magneticHeading>0.000000</magneticHeading>
<gpsHeading>0.000000</gpsHeading>
<haccuracy>-1.000000</haccuracy>
<vaccuracy>-1.000000</vaccuracy>
<internetconnect>-1</internetconnect>
</trkpt>
<trkpt lat="35.056570" lon="136.480387">
<ele>148.000000</ele>
<time>2026-03-27T00:10:14Z</time>
<speed>0.000000</speed>
<trueHeading>0.000000</trueHeading>
<magneticHeading>0.000000</magneticHeading>
<gpsHeading>0.000000</gpsHeading>
<haccuracy>-1.000000</haccuracy>
<vaccuracy>-1.000000</vaccuracy>
<internetconnect>-1</internetconnect>
</trkpt>
<trkpt lat="35.056637" lon="136.480469">
<ele>148.000000</ele>
<time>2026-03-27T00:10:26Z</time>
<speed>0.000000</speed>
<trueHeading>0.000000</trueHeading>
<magneticHeading>0.000000</magneticHeading>
<gpsHeading>0.000000</gpsHeading>
<haccuracy>-1.000000</haccuracy>
<vaccuracy>-1.000000</vaccuracy>
<internetconnect>-1</internetconnect>
</trkpt>
<trkpt lat="35.056719" lon="136.480569">
<ele>148.000000</ele>
<time>2026-03-27T00:10:41Z</time>
<speed>0.000000</speed>
<trueHeading>0.000000</trueHeading>
<magneticHeading>0.000000</magneticHeading>
<gpsHeading>0.000000</gpsHeading>
<haccuracy>-1.000000</haccuracy>
<vaccuracy>-1.000000</vaccuracy>
<internetconnect>-1</internetconnect>
</trkpt>
<trkpt lat="35.056793" lon="136.480632">
<ele>148.000000</ele>
<time>2026-03-27T00:10:53Z</time>
<speed>0.000000</speed>
<trueHeading>0.000000</trueHeading>
<magneticHeading>0.000000</magneticHeading>
<gpsHeading>0.000000</gpsHeading>
<haccuracy>-1.000000</haccuracy>
<vaccuracy>-1.000000</vaccuracy>
<internetconnect>-1</internetconnect>
</trkpt>
<trkpt lat="35.056882" lon="136.480714">
<ele>147.000000</ele>
<time>2026-03-27T00:11:08Z</time>
<speed>0.000000</speed>
<trueHeading>0.000000</trueHeading>
<magneticHeading>0.000000</magneticHeading>
<gpsHeading>0.000000</gpsHeading>
<haccuracy>-1.000000</haccuracy>
<vaccuracy>-1.000000</vaccuracy>
<internetconnect>-1</internetconnect>
</trkpt>
<trkpt lat="35.056979" lon="136.480768">
<ele>144.000000</ele>
<time>2026-03-27T00:11:22Z</time>
<speed>0.000000</speed>
<trueHeading>0.000000</trueHeading>
<magneticHeading>0.000000</magneticHeading>
<gpsHeading>0.000000</gpsHeading>
<haccuracy>-1.000000</haccuracy>
<vaccuracy>-1.000000</vaccuracy>
<internetconnect>-1</internetconnect>
</trkpt>
<trkpt lat="35.057083" lon="136.480823">
<ele>143.000000</ele>
<time>2026-03-27T00:11:37Z</time>
<speed>0.000000</speed>
<trueHeading>0.000000</trueHeading>
<magneticHeading>0.000000</magneticHeading>
<gpsHeading>0.000000</gpsHeading>
<haccuracy>-1.000000</haccuracy>
<vaccuracy>-1.000000</vaccuracy>
<internetconnect>-1</internetconnect>
</trkpt>
<trkpt lat="35.057157" lon="136.480896">
<ele>143.000000</ele>
<time>2026-03-27T00:11:49Z</time>
<speed>0.000000</speed>
<trueHeading>0.000000</trueHeading>
<magneticHeading>0.000000</magneticHeading>
<gpsHeading>0.000000</gpsHeading>
<haccuracy>-1.000000</haccuracy>
<vaccuracy>-1.000000</vaccuracy>
<internetconnect>-1</internetconnect>
</trkpt>
<trkpt lat="35.057224" lon="136.480995">
<ele>143.000000</ele>
<time>2026-03-27T00:12:03Z</time>
<speed>0.000000</speed>
<trueHeading>0.000000</trueHeading>
<magneticHeading>0.000000</magneticHeading>
<gpsHeading>0.000000</gpsHeading>
<haccuracy>-1.000000</haccuracy>
<vaccuracy>-1.000000</vaccuracy>
<internetconnect>-1</internetconnect>
</trkpt>
<trkpt lat="35.057291" lon="136.481077">
<ele>144.000000</ele>
<time>2026-03-27T00:12:16Z</time>
<speed>0.000000</speed>
<trueHeading>0.000000</trueHeading>
<magneticHeading>0.000000</magneticHeading>
<gpsHeading>0.000000</gpsHeading>
<haccuracy>-1.000000</haccuracy>
<vaccuracy>-1.000000</vaccuracy>
<internetconnect>-1</internetconnect>
</trkpt>
<trkpt lat="35.057343" lon="136.481195">
<ele>146.000000</ele>
<time>2026-03-27T00:12:30Z</time>
<speed>0.000000</speed>
<trueHeading>0.000000</trueHeading>
<magneticHeading>0.000000</magneticHeading>
<gpsHeading>0.000000</gpsHeading>
<haccuracy>-1.000000</haccuracy>
<vaccuracy>-1.000000</vaccuracy>
<internetconnect>-1</internetconnect>
</trkpt>
<trkpt lat="35.057403" lon="136.481295">
<ele>148.000000</ele>
<time>2026-03-27T00:12:43Z</time>
<speed>0.000000</speed>
<trueHeading>0.000000</trueHeading>
<magneticHeading>0.000000</magneticHeading>
<gpsHeading>0.000000</gpsHeading>
<haccuracy>-1.000000</haccuracy>
<vaccuracy>-1.000000</vaccuracy>
<internetconnect>-1</internetconnect>
</trkpt>
<trkpt lat="35.057462" lon="136.481386">
<ele>147.000000</ele>
<time>2026-03-27T00:12:56Z</time>
<speed>0.000000</speed>
<trueHeading>0.000000</trueHeading>
<magneticHeading>0.000000</magneticHeading>
<gpsHeading>0.000000</gpsHeading>
<haccuracy>-1.000000</haccuracy>
<vaccuracy>-1.000000</vaccuracy>
<internetconnect>-1</internetconnect>
</trkpt>
<trkpt lat="35.057544" lon="136.481504">
<ele>149.000000</ele>
<time>2026-03-27T00:13:12Z</time>
<speed>0.000000</speed>
<trueHeading>0.000000</trueHeading>
<magneticHeading>0.000000</magneticHeading>
<gpsHeading>0.000000</gpsHeading>
<haccuracy>-1.000000</haccuracy>
<vaccuracy>-1.000000</vaccuracy>
<internetconnect>-1</internetconnect>
</trkpt>
<trkpt lat="35.057603" lon="136.481595">
<ele>147.000000</ele>
<time>2026-03-27T00:13:25Z</time>
<speed>0.000000</speed>
<trueHeading>0.000000</trueHeading>
<magneticHeading>0.000000</magneticHeading>
<gpsHeading>0.000000</gpsHeading>
<haccuracy>-1.000000</haccuracy>
<vaccuracy>-1.000000</vaccuracy>
<internetconnect>-1</internetconnect>
</trkpt>
<trkpt lat="35.057685" lon="136.481704">
<ele>146.000000</ele>
<time>2026-03-27T00:13:41Z</time>
<speed>0.000000</speed>
<trueHeading>0.000000</trueHeading>
<magneticHeading>0.000000</magneticHeading>
<gpsHeading>0.000000</gpsHeading>
<haccuracy>-1.000000</haccuracy>
<vaccuracy>-1.000000</vaccuracy>
<internetconnect>-1</internetconnect>
</trkpt>
<trkpt lat="35.057782" lon="136.481813">
<ele>145.000000</ele>
<time>2026-03-27T00:13:58Z</time>
<speed>0.000000</speed>
<trueHeading>0.000000</trueHeading>
<magneticHeading>0.000000</magneticHeading>
<gpsHeading>0.000000</gpsHeading>
<haccuracy>-1.000000</haccuracy>
<vaccuracy>-1.000000</vaccuracy>
<internetconnect>-1</internetconnect>
</trkpt>
<trkpt lat="35.057863" lon="136.481894">
<ele>144.000000</ele>
<time>2026-03-27T00:14:12Z</time>
<speed>0.000000</speed>
<trueHeading>0.000000</trueHeading>
<magneticHeading>0.000000</magneticHeading>
<gpsHeading>0.000000</gpsHeading>
<haccuracy>-1.000000</haccuracy>
<vaccuracy>-1.000000</vaccuracy>
<internetconnect>-1</internetconnect>
</trkpt>
<trkpt lat="35.057967" lon="136.481994">
<ele>142.000000</ele>
<time>2026-03-27T00:14:29Z</time>
<speed>0.000000</speed>
<trueHeading>0.000000</trueHeading>
<magneticHeading>0.000000</magneticHeading>
<gpsHeading>0.000000</gpsHeading>
<haccuracy>-1.000000</haccuracy>
<vaccuracy>-1.000000</vaccuracy>
<internetconnect>-1</internetconnect>
</trkpt>
<trkpt lat="35.058049" lon="136.482067">
<ele>141.000000</ele>
<time>2026-03-27T00:14:43Z</time>
<speed>0.000000</speed>
<trueHeading>0.000000</trueHeading>
<magneticHeading>0.000000</magneticHeading>
<gpsHeading>0.000000</gpsHeading>
<haccuracy>-1.000000</haccuracy>
<vaccuracy>-1.000000</vaccuracy>
<internetconnect>-1</internetconnect>
</trkpt>
<trkpt lat="35.058138" lon="136.482112">
<ele>142.000000</ele>
<time>2026-03-27T00:14:55Z</time>
<speed>0.000000</speed>
<trueHeading>0.000000</trueHeading>
<magneticHeading>0.000000</magneticHeading>
<gpsHeading>0.000000</gpsHeading>
<haccuracy>-1.000000</haccuracy>
<vaccuracy>-1.000000</vaccuracy>
<internetconnect>-1</internetconnect>
</trkpt>
<trkpt lat="35.058220" lon="136.482185">
<ele>141.000000</ele>
<time>2026-03-27T00:15:09Z</time>
<speed>0.000000</speed>
<trueHeading>0.000000</trueHeading>
<magneticHeading>0.000000</magneticHeading>
<gpsHeading>0.000000</gpsHeading>
<haccuracy>-1.000000</haccuracy>
<vaccuracy>-1.000000</vaccuracy>
<internetconnect>-1</internetconnect>
</trkpt>
<trkpt lat="35.058302" lon="136.482276">
<ele>141.000000</ele>
<time>2026-03-27T00:15:23Z</time>
<speed>0.000000</speed>
<trueHeading>0.000000</trueHeading>
<magneticHeading>0.000000</magneticHeading>
<gpsHeading>0.000000</gpsHeading>
<haccuracy>-1.000000</haccuracy>
<vaccuracy>-1.000000</vaccuracy>
<internetconnect>-1</internetconnect>
</trkpt>
<trkpt lat="35.058376" lon="136.482394">
<ele>141.000000</ele>
<time>2026-03-27T00:15:39Z</time>
<speed>0.000000</speed>
<trueHeading>0.000000</trueHeading>
<magneticHeading>0.000000</magneticHeading>
<gpsHeading>0.000000</gpsHeading>
<haccuracy>-1.000000</haccuracy>
<vaccuracy>-1.000000</vaccuracy>
<internetconnect>-1</internetconnect>
</trkpt>
<trkpt lat="35.058428" lon="136.482484">
<ele>141.000000</ele>
<time>2026-03-27T00:15:51Z</time>
<speed>0.000000</speed>
<trueHeading>0.000000</trueHeading>
<magneticHeading>0.000000</magneticHeading>
<gpsHeading>0.000000</gpsHeading>
<haccuracy>-1.000000</haccuracy>
<vaccuracy>-1.000000</vaccuracy>
<internetconnect>-1</internetconnect>
</trkpt>
<trkpt lat="35.058503" lon="136.482584">
<ele>141.000000</ele>
<time>2026-03-27T00:16:06Z</time>
<speed>0.000000</speed>
<trueHeading>0.000000</trueHeading>
<magneticHeading>0.000000</magneticHeading>
<gpsHeading>0.000000</gpsHeading>
<haccuracy>-1.000000</haccuracy>
<vaccuracy>-1.000000</vaccuracy>
<internetconnect>-1</internetconnect>
</trkpt>
<trkpt lat="35.058569" lon="136.482684">
<ele>141.000000</ele>
<time>2026-03-27T00:16:19Z</time>
<speed>0.000000</speed>
<trueHeading>0.000000</trueHeading>
<magneticHeading>0.000000</magneticHeading>
<gpsHeading>0.000000</gpsHeading>
<haccuracy>-1.000000</haccuracy>
<vaccuracy>-1.000000</vaccuracy>
<internetconnect>-1</internetconnect>
</trkpt>
<trkpt lat="35.058658" lon="136.482757">
<ele>141.000000</ele>
<time>2026-03-27T00:16:34Z</time>
<speed>0.000000</speed>
<trueHeading>0.000000</trueHeading>
<magneticHeading>0.000000</magneticHeading>
<gpsHeading>0.000000</gpsHeading>
<haccuracy>-1.000000</haccuracy>
<vaccuracy>-1.000000</vaccuracy>
<internetconnect>-1</internetconnect>
</trkpt>
<trkpt lat="35.058755" lon="136.482820">
<ele>141.000000</ele>
<time>2026-03-27T00:16:48Z</time>
<speed>0.000000</speed>
<trueHeading>0.000000</trueHeading>
<magneticHeading>0.000000</magneticHeading>
<gpsHeading>0.000000</gpsHeading>
<haccuracy>-1.000000</haccuracy>
<vaccuracy>-1.000000</vaccuracy>
<internetconnect>-1</internetconnect>
</trkpt>
<trkpt lat="35.058852" lon="136.482875">
<ele>141.000000</ele>
<time>2026-03-27T00:17:02Z</time>
<speed>0.000000</speed>
<trueHeading>0.000000</trueHeading>
<magneticHeading>0.000000</magneticHeading>
<gpsHeading>0.000000</gpsHeading>
<haccuracy>-1.000000</haccuracy>
<vaccuracy>-1.000000</vaccuracy>
<internetconnect>-1</internetconnect>
</trkpt>
<trkpt lat="35.058933" lon="136.482929">
<ele>142.000000</ele>
<time>2026-03-27T00:17:14Z</time>
<speed>0.000000</speed>
<trueHeading>0.000000</trueHeading>
<magneticHeading>0.000000</magneticHeading>
<gpsHeading>0.000000</gpsHeading>
<haccuracy>-1.000000</haccuracy>
<vaccuracy>-1.000000</vaccuracy>
<internetconnect>-1</internetconnect>
</trkpt>
<trkpt lat="35.059015" lon="136.483002">
<ele>144.000000</ele>
<time>2026-03-27T00:17:27Z</time>
<speed>0.000000</speed>
<trueHeading>0.000000</trueHeading>
<magneticHeading>0.000000</magneticHeading>
<gpsHeading>0.000000</gpsHeading>
<haccuracy>-1.000000</haccuracy>
<vaccuracy>-1.000000</vaccuracy>
<internetconnect>-1</internetconnect>
</trkpt>
<trkpt lat="35.059090" lon="136.483065">
<ele>147.000000</ele>
<time>2026-03-27T00:17:39Z</time>
<speed>0.000000</speed>
<trueHeading>0.000000</trueHeading>
<magneticHeading>0.000000</magneticHeading>
<gpsHeading>0.000000</gpsHeading>
<haccuracy>-1.000000</haccuracy>
<vaccuracy>-1.000000</vaccuracy>
<internetconnect>-1</internetconnect>
</trkpt>
<trkpt lat="35.059171" lon="136.483138">
<ele>148.000000</ele>
<time>2026-03-27T00:17:53Z</time>
<speed>0.000000</speed>
<trueHeading>0.000000</trueHeading>
<magneticHeading>0.000000</magneticHeading>
<gpsHeading>0.000000</gpsHeading>
<haccuracy>-1.000000</haccuracy>
<vaccuracy>-1.000000</vaccuracy>
<internetconnect>-1</internetconnect>
</trkpt>
<trkpt lat="35.059253" lon="136.483193">
<ele>149.000000</ele>
<time>2026-03-27T00:18:05Z</time>
<speed>0.000000</speed>
<trueHeading>0.000000</trueHeading>
<magneticHeading>0.000000</magneticHeading>
<gpsHeading>0.000000</gpsHeading>
<haccuracy>-1.000000</haccuracy>
<vaccuracy>-1.000000</vaccuracy>
<internetconnect>-1</internetconnect>
</trkpt>
<trkpt lat="35.059342" lon="136.483211">
<ele>149.000000</ele>
<time>2026-03-27T00:18:17Z</time>
<speed>0.000000</speed>
<trueHeading>0.000000</trueHeading>
<magneticHeading>0.000000</magneticHeading>
<gpsHeading>0.000000</gpsHeading>
<haccuracy>-1.000000</haccuracy>
<vaccuracy>-1.000000</vaccuracy>
<internetconnect>-1</internetconnect>
</trkpt>
<trkpt lat="35.059439" lon="136.483211">
<ele>150.000000</ele>
<time>2026-03-27T00:18:29Z</time>
<speed>0.000000</speed>
<trueHeading>0.000000</trueHeading>
<magneticHeading>0.000000</magneticHeading>
<gpsHeading>0.000000</gpsHeading>
<haccuracy>-1.000000</haccuracy>
<vaccuracy>-1.000000</vaccuracy>
<internetconnect>-1</internetconnect>
</trkpt>
<trkpt lat="35.059469" lon="136.483329">
<ele>148.000000</ele>
<time>2026-03-27T00:18:43Z</time>
<speed>0.000000</speed>
<trueHeading>0.000000</trueHeading>
<magneticHeading>0.000000</magneticHeading>
<gpsHeading>0.000000</gpsHeading>
<haccuracy>-1.000000</haccuracy>
<vaccuracy>-1.000000</vaccuracy>
<internetconnect>-1</internetconnect>
</trkpt>
<trkpt lat="35.059506" lon="136.483401">
<ele>148.000000</ele>
<time>2026-03-27T00:18:52Z</time>
<speed>0.000000</speed>
<trueHeading>0.000000</trueHeading>
<magneticHeading>0.000000</magneticHeading>
<gpsHeading>0.000000</gpsHeading>
<haccuracy>-1.000000</haccuracy>
<vaccuracy>-1.000000</vaccuracy>
<internetconnect>-1</internetconnect>
</trkpt>
<trkpt lat="35.059501" lon="136.483331">
<ele>148.000000</ele>
<time>2026-03-27T00:19:00Z</time>
<speed>0.000000</speed>
<trueHeading>0.000000</trueHeading>
<magneticHeading>0.000000</magneticHeading>
<gpsHeading>0.000000</gpsHeading>
<haccuracy>-1.000000</haccuracy>
<vaccuracy>-1.000000</vaccuracy>
<internetconnect>-1</internetconnect>
</trkpt>
<trkpt lat="35.059993" lon="136.483406">
<ele>147.000000</ele>
<time>2026-03-27T00:19:00Z</time>
<speed>0.000000</speed>
<trueHeading>0.000000</trueHeading>
<magneticHeading>0.000000</magneticHeading>
<gpsHeading>0.000000</gpsHeading>
<haccuracy>-1.000000</haccuracy>
<vaccuracy>-1.000000</vaccuracy>
<internetconnect>-1</internetconnect>
</trkpt>
<trkpt lat="35.061332" lon="136.483589">
<ele>150.000000</ele>
<time>2026-03-27T00:22:05Z</time>
<speed>0.000000</speed>
<trueHeading>0.000000</trueHeading>
<magneticHeading>0.000000</magneticHeading>
<gpsHeading>0.000000</gpsHeading>
<haccuracy>-1.000000</haccuracy>
<vaccuracy>-1.000000</vaccuracy>
<internetconnect>-1</internetconnect>
</trkpt>
<trkpt lat="35.062228" lon="136.483669">
<ele>151.000000</ele>
<time>2026-03-27T00:24:09Z</time>
<speed>0.000000</speed>
<trueHeading>0.000000</trueHeading>
<magneticHeading>0.000000</magneticHeading>
<gpsHeading>0.000000</gpsHeading>
<haccuracy>-1.000000</haccuracy>
<vaccuracy>-1.000000</vaccuracy>
<internetconnect>-1</internetconnect>
</trkpt>
<trkpt lat="35.063027" lon="136.483728">
<ele>155.000000</ele>
<time>2026-03-27T00:26:00Z</time>
<speed>0.000000</speed>
<trueHeading>0.000000</trueHeading>
<magneticHeading>0.000000</magneticHeading>
<gpsHeading>0.000000</gpsHeading>
<haccuracy>-1.000000</haccuracy>
<vaccuracy>-1.000000</vaccuracy>
<internetconnect>-1</internetconnect>
</trkpt>
<trkpt lat="35.063108" lon="136.483610">
<ele>156.000000</ele>
<time>2026-03-27T00:26:00Z</time>
<speed>0.000000</speed>
<trueHeading>0.000000</trueHeading>
<magneticHeading>0.000000</magneticHeading>
<gpsHeading>0.000000</gpsHeading>
<haccuracy>-1.000000</haccuracy>
<vaccuracy>-1.000000</vaccuracy>
<internetconnect>-1</internetconnect>
</trkpt>
<trkpt lat="35.063190" lon="136.483501">
<ele>156.000000</ele>
<time>2026-03-27T00:26:20Z</time>
<speed>0.000000</speed>
<trueHeading>0.000000</trueHeading>
<magneticHeading>0.000000</magneticHeading>
<gpsHeading>0.000000</gpsHeading>
<haccuracy>-1.000000</haccuracy>
<vaccuracy>-1.000000</vaccuracy>
<internetconnect>-1</internetconnect>
</trkpt>
<trkpt lat="35.063265" lon="136.483401">
<ele>157.000000</ele>
<time>2026-03-27T00:26:38Z</time>
<speed>0.000000</speed>
<trueHeading>0.000000</trueHeading>
<magneticHeading>0.000000</magneticHeading>
<gpsHeading>0.000000</gpsHeading>
<haccuracy>-1.000000</haccuracy>
<vaccuracy>-1.000000</vaccuracy>
<internetconnect>-1</internetconnect>
</trkpt>
<trkpt lat="35.063346" lon="136.483320">
<ele>158.000000</ele>
<time>2026-03-27T00:26:56Z</time>
<speed>0.000000</speed>
<trueHeading>0.000000</trueHeading>
<magneticHeading>0.000000</magneticHeading>
<gpsHeading>0.000000</gpsHeading>
<haccuracy>-1.000000</haccuracy>
<vaccuracy>-1.000000</vaccuracy>
<internetconnect>-1</internetconnect>
</trkpt>
<trkpt lat="35.063413" lon="136.483229">
<ele>159.000000</ele>
<time>2026-03-27T00:27:13Z</time>
<speed>0.000000</speed>
<trueHeading>0.000000</trueHeading>
<magneticHeading>0.000000</magneticHeading>
<gpsHeading>0.000000</gpsHeading>
<haccuracy>-1.000000</haccuracy>
<vaccuracy>-1.000000</vaccuracy>
<internetconnect>-1</internetconnect>
</trkpt>
<trkpt lat="35.063487" lon="136.483138">
<ele>159.000000</ele>
<time>2026-03-27T00:27:31Z</time>
<speed>0.000000</speed>
<trueHeading>0.000000</trueHeading>
<magneticHeading>0.000000</magneticHeading>
<gpsHeading>0.000000</gpsHeading>
<haccuracy>-1.000000</haccuracy>
<vaccuracy>-1.000000</vaccuracy>
<internetconnect>-1</internetconnect>
</trkpt>
<trkpt lat="35.063562" lon="136.483075">
<ele>160.000000</ele>
<time>2026-03-27T00:27:46Z</time>
<speed>0.000000</speed>
<trueHeading>0.000000</trueHeading>
<magneticHeading>0.000000</magneticHeading>
<gpsHeading>0.000000</gpsHeading>
<haccuracy>-1.000000</haccuracy>
<vaccuracy>-1.000000</vaccuracy>
<internetconnect>-1</internetconnect>
</trkpt>
<trkpt lat="35.063636" lon="136.483002">
<ele>161.000000</ele>
<time>2026-03-27T00:28:02Z</time>
<speed>0.000000</speed>
<trueHeading>0.000000</trueHeading>
<magneticHeading>0.000000</magneticHeading>
<gpsHeading>0.000000</gpsHeading>
<haccuracy>-1.000000</haccuracy>
<vaccuracy>-1.000000</vaccuracy>
<internetconnect>-1</internetconnect>
</trkpt>
<trkpt lat="35.063718" lon="136.482938">
<ele>163.000000</ele>
<time>2026-03-27T00:28:18Z</time>
<speed>0.000000</speed>
<trueHeading>0.000000</trueHeading>
<magneticHeading>0.000000</magneticHeading>
<gpsHeading>0.000000</gpsHeading>
<haccuracy>-1.000000</haccuracy>
<vaccuracy>-1.000000</vaccuracy>
<internetconnect>-1</internetconnect>
</trkpt>
<trkpt lat="35.063762" lon="136.482838">
<ele>164.000000</ele>
<time>2026-03-27T00:28:34Z</time>
<speed>0.000000</speed>
<trueHeading>0.000000</trueHeading>
<magneticHeading>0.000000</magneticHeading>
<gpsHeading>0.000000</gpsHeading>
<haccuracy>-1.000000</haccuracy>
<vaccuracy>-1.000000</vaccuracy>
<internetconnect>-1</internetconnect>
</trkpt>
<trkpt lat="35.063807" lon="136.482720">
<ele>165.000000</ele>
<time>2026-03-27T00:28:52Z</time>
<speed>0.000000</speed>
<trueHeading>0.000000</trueHeading>
<magneticHeading>0.000000</magneticHeading>
<gpsHeading>0.000000</gpsHeading>
<haccuracy>-1.000000</haccuracy>
<vaccuracy>-1.000000</vaccuracy>
<internetconnect>-1</internetconnect>
</trkpt>
<trkpt lat="35.063852" lon="136.482611">
<ele>165.000000</ele>
<time>2026-03-27T00:29:09Z</time>
<speed>0.000000</speed>
<trueHeading>0.000000</trueHeading>
<magneticHeading>0.000000</magneticHeading>
<gpsHeading>0.000000</gpsHeading>
<haccuracy>-1.000000</haccuracy>
<vaccuracy>-1.000000</vaccuracy>
<internetconnect>-1</internetconnect>
</trkpt>
<trkpt lat="35.063896" lon="136.482493">
<ele>166.000000</ele>
<time>2026-03-27T00:29:26Z</time>
<speed>0.000000</speed>
<trueHeading>0.000000</trueHeading>
<magneticHeading>0.000000</magneticHeading>
<gpsHeading>0.000000</gpsHeading>
<haccuracy>-1.000000</haccuracy>
<vaccuracy>-1.000000</vaccuracy>
<internetconnect>-1</internetconnect>
</trkpt>
<trkpt lat="35.063911" lon="136.482375">
<ele>167.000000</ele>
<time>2026-03-27T00:29:43Z</time>
<speed>0.000000</speed>
<trueHeading>0.000000</trueHeading>
<magneticHeading>0.000000</magneticHeading>
<gpsHeading>0.000000</gpsHeading>
<haccuracy>-1.000000</haccuracy>
<vaccuracy>-1.000000</vaccuracy>
<internetconnect>-1</internetconnect>
</trkpt>
<trkpt lat="35.063911" lon="136.482239">
<ele>167.000000</ele>
<time>2026-03-27T00:30:02Z</time>
<speed>0.000000</speed>
<trueHeading>0.000000</trueHeading>
<magneticHeading>0.000000</magneticHeading>
<gpsHeading>0.000000</gpsHeading>
<haccuracy>-1.000000</haccuracy>
<vaccuracy>-1.000000</vaccuracy>
<internetconnect>-1</internetconnect>
</trkpt>
<trkpt lat="35.063926" lon="136.482130">
<ele>167.000000</ele>
<time>2026-03-27T00:30:17Z</time>
<speed>0.000000</speed>
<trueHeading>0.000000</trueHeading>
<magneticHeading>0.000000</magneticHeading>
<gpsHeading>0.000000</gpsHeading>
<haccuracy>-1.000000</haccuracy>
<vaccuracy>-1.000000</vaccuracy>
<internetconnect>-1</internetconnect>
</trkpt>
<trkpt lat="35.064008" lon="136.481967">
<ele>169.000000</ele>
<time>2026-03-27T00:30:43Z</time>
<speed>0.000000</speed>
<trueHeading>0.000000</trueHeading>
<magneticHeading>0.000000</magneticHeading>
<gpsHeading>0.000000</gpsHeading>
<haccuracy>-1.000000</haccuracy>
<vaccuracy>-1.000000</vaccuracy>
<internetconnect>-1</internetconnect>
</trkpt>
<trkpt lat="35.064097" lon="136.481831">
<ele>171.000000</ele>
<time>2026-03-27T00:31:07Z</time>
<speed>0.000000</speed>
<trueHeading>0.000000</trueHeading>
<magneticHeading>0.000000</magneticHeading>
<gpsHeading>0.000000</gpsHeading>
<haccuracy>-1.000000</haccuracy>
<vaccuracy>-1.000000</vaccuracy>
<internetconnect>-1</internetconnect>
</trkpt>
<trkpt lat="35.064149" lon="136.481731">
<ele>172.000000</ele>
<time>2026-03-27T00:31:24Z</time>
<speed>0.000000</speed>
<trueHeading>0.000000</trueHeading>
<magneticHeading>0.000000</magneticHeading>
<gpsHeading>0.000000</gpsHeading>
<haccuracy>-1.000000</haccuracy>
<vaccuracy>-1.000000</vaccuracy>
<internetconnect>-1</internetconnect>
</trkpt>
<trkpt lat="35.064216" lon="136.481631">
<ele>173.000000</ele>
<time>2026-03-27T00:31:41Z</time>
<speed>0.000000</speed>
<trueHeading>0.000000</trueHeading>
<magneticHeading>0.000000</magneticHeading>
<gpsHeading>0.000000</gpsHeading>
<haccuracy>-1.000000</haccuracy>
<vaccuracy>-1.000000</vaccuracy>
<internetconnect>-1</internetconnect>
</trkpt>
<trkpt lat="35.064268" lon="136.481531">
<ele>174.000000</ele>
<time>2026-03-27T00:31:58Z</time>
<speed>0.000000</speed>
<trueHeading>0.000000</trueHeading>
<magneticHeading>0.000000</magneticHeading>
<gpsHeading>0.000000</gpsHeading>
<haccuracy>-1.000000</haccuracy>
<vaccuracy>-1.000000</vaccuracy>
<internetconnect>-1</internetconnect>
</trkpt>
<trkpt lat="35.064283" lon="136.481422">
<ele>176.000000</ele>
<time>2026-03-27T00:32:13Z</time>
<speed>0.000000</speed>
<trueHeading>0.000000</trueHeading>
<magneticHeading>0.000000</magneticHeading>
<gpsHeading>0.000000</gpsHeading>
<haccuracy>-1.000000</haccuracy>
<vaccuracy>-1.000000</vaccuracy>
<internetconnect>-1</internetconnect>
</trkpt>
<trkpt lat="35.064283" lon="136.481304">
<ele>176.000000</ele>
<time>2026-03-27T00:32:29Z</time>
<speed>0.000000</speed>
<trueHeading>0.000000</trueHeading>
<magneticHeading>0.000000</magneticHeading>
<gpsHeading>0.000000</gpsHeading>
<haccuracy>-1.000000</haccuracy>
<vaccuracy>-1.000000</vaccuracy>
<internetconnect>-1</internetconnect>
</trkpt>
<trkpt lat="35.064350" lon="136.481195">
<ele>177.000000</ele>
<time>2026-03-27T00:32:48Z</time>
<speed>0.000000</speed>
<trueHeading>0.000000</trueHeading>
<magneticHeading>0.000000</magneticHeading>
<gpsHeading>0.000000</gpsHeading>
<haccuracy>-1.000000</haccuracy>
<vaccuracy>-1.000000</vaccuracy>
<internetconnect>-1</internetconnect>
</trkpt>
<trkpt lat="35.064439" lon="136.481086">
<ele>178.000000</ele>
<time>2026-03-27T00:33:09Z</time>
<speed>0.000000</speed>
<trueHeading>0.000000</trueHeading>
<magneticHeading>0.000000</magneticHeading>
<gpsHeading>0.000000</gpsHeading>
<haccuracy>-1.000000</haccuracy>
<vaccuracy>-1.000000</vaccuracy>
<internetconnect>-1</internetconnect>
</trkpt>
<trkpt lat="35.064498" lon="136.480995">
<ele>179.000000</ele>
<time>2026-03-27T00:33:25Z</time>
<speed>0.000000</speed>
<trueHeading>0.000000</trueHeading>
<magneticHeading>0.000000</magneticHeading>
<gpsHeading>0.000000</gpsHeading>
<haccuracy>-1.000000</haccuracy>
<vaccuracy>-1.000000</vaccuracy>
<internetconnect>-1</internetconnect>
</trkpt>
<trkpt lat="35.064587" lon="136.480914">
<ele>180.000000</ele>
<time>2026-03-27T00:33:44Z</time>
<speed>0.000000</speed>
<trueHeading>0.000000</trueHeading>
<magneticHeading>0.000000</magneticHeading>
<gpsHeading>0.000000</gpsHeading>
<haccuracy>-1.000000</haccuracy>
<vaccuracy>-1.000000</vaccuracy>
<internetconnect>-1</internetconnect>
</trkpt>
<trkpt lat="35.064669" lon="136.480832">
<ele>182.000000</ele>
<time>2026-03-27T00:34:02Z</time>
<speed>0.000000</speed>
<trueHeading>0.000000</trueHeading>
<magneticHeading>0.000000</magneticHeading>
<gpsHeading>0.000000</gpsHeading>
<haccuracy>-1.000000</haccuracy>
<vaccuracy>-1.000000</vaccuracy>
<internetconnect>-1</internetconnect>
</trkpt>
<trkpt lat="35.064706" lon="136.480723">
<ele>182.000000</ele>
<time>2026-03-27T00:34:18Z</time>
<speed>0.000000</speed>
<trueHeading>0.000000</trueHeading>
<magneticHeading>0.000000</magneticHeading>
<gpsHeading>0.000000</gpsHeading>
<haccuracy>-1.000000</haccuracy>
<vaccuracy>-1.000000</vaccuracy>
<internetconnect>-1</internetconnect>
</trkpt>
<trkpt lat="35.064736" lon="136.480596">
<ele>184.000000</ele>
<time>2026-03-27T00:34:36Z</time>
<speed>0.000000</speed>
<trueHeading>0.000000</trueHeading>
<magneticHeading>0.000000</magneticHeading>
<gpsHeading>0.000000</gpsHeading>
<haccuracy>-1.000000</haccuracy>
<vaccuracy>-1.000000</vaccuracy>
<internetconnect>-1</internetconnect>
</trkpt>
<trkpt lat="35.064743" lon="136.480478">
<ele>185.000000</ele>
<time>2026-03-27T00:34:52Z</time>
<speed>0.000000</speed>
<trueHeading>0.000000</trueHeading>
<magneticHeading>0.000000</magneticHeading>
<gpsHeading>0.000000</gpsHeading>
<haccuracy>-1.000000</haccuracy>
<vaccuracy>-1.000000</vaccuracy>
<internetconnect>-1</internetconnect>
</trkpt>
<trkpt lat="35.064743" lon="136.480333">
<ele>186.000000</ele>
<time>2026-03-27T00:35:12Z</time>
<speed>0.000000</speed>
<trueHeading>0.000000</trueHeading>
<magneticHeading>0.000000</magneticHeading>
<gpsHeading>0.000000</gpsHeading>
<haccuracy>-1.000000</haccuracy>
<vaccuracy>-1.000000</vaccuracy>
<internetconnect>-1</internetconnect>
</trkpt>
<trkpt lat="35.064766" lon="136.480224">
<ele>187.000000</ele>
<time>2026-03-27T00:35:28Z</time>
<speed>0.000000</speed>
<trueHeading>0.000000</trueHeading>
<magneticHeading>0.000000</magneticHeading>
<gpsHeading>0.000000</gpsHeading>
<haccuracy>-1.000000</haccuracy>
<vaccuracy>-1.000000</vaccuracy>
<internetconnect>-1</internetconnect>
</trkpt>
<trkpt lat="35.064818" lon="136.480060">
<ele>189.000000</ele>
<time>2026-03-27T00:35:52Z</time>
<speed>0.000000</speed>
<trueHeading>0.000000</trueHeading>
<magneticHeading>0.000000</magneticHeading>
<gpsHeading>0.000000</gpsHeading>
<haccuracy>-1.000000</haccuracy>
<vaccuracy>-1.000000</vaccuracy>
<internetconnect>-1</internetconnect>
</trkpt>
<trkpt lat="35.064870" lon="136.479970">
<ele>190.000000</ele>
<time>2026-03-27T00:36:07Z</time>
<speed>0.000000</speed>
<trueHeading>0.000000</trueHeading>
<magneticHeading>0.000000</magneticHeading>
<gpsHeading>0.000000</gpsHeading>
<haccuracy>-1.000000</haccuracy>
<vaccuracy>-1.000000</vaccuracy>
<internetconnect>-1</internetconnect>
</trkpt>
<trkpt lat="35.064914" lon="136.479861">
<ele>191.000000</ele>
<time>2026-03-27T00:36:24Z</time>
<speed>0.000000</speed>
<trueHeading>0.000000</trueHeading>
<magneticHeading>0.000000</magneticHeading>
<gpsHeading>0.000000</gpsHeading>
<haccuracy>-1.000000</haccuracy>
<vaccuracy>-1.000000</vaccuracy>
<internetconnect>-1</internetconnect>
</trkpt>
<trkpt lat="35.064944" lon="136.479743">
<ele>192.000000</ele>
<time>2026-03-27T00:36:41Z</time>
<speed>0.000000</speed>
<trueHeading>0.000000</trueHeading>
<magneticHeading>0.000000</magneticHeading>
<gpsHeading>0.000000</gpsHeading>
<haccuracy>-1.000000</haccuracy>
<vaccuracy>-1.000000</vaccuracy>
<internetconnect>-1</internetconnect>
</trkpt>
<trkpt lat="35.064981" lon="136.479634">
<ele>191.000000</ele>
<time>2026-03-27T00:36:57Z</time>
<speed>0.000000</speed>
<trueHeading>0.000000</trueHeading>
<magneticHeading>0.000000</magneticHeading>
<gpsHeading>0.000000</gpsHeading>
<haccuracy>-1.000000</haccuracy>
<vaccuracy>-1.000000</vaccuracy>
<internetconnect>-1</internetconnect>
</trkpt>
<trkpt lat="35.065063" lon="136.479534">
<ele>193.000000</ele>
<time>2026-03-27T00:37:17Z</time>
<speed>0.000000</speed>
<trueHeading>0.000000</trueHeading>
<magneticHeading>0.000000</magneticHeading>
<gpsHeading>0.000000</gpsHeading>
<haccuracy>-1.000000</haccuracy>
<vaccuracy>-1.000000</vaccuracy>
<internetconnect>-1</internetconnect>
</trkpt>
<trkpt lat="35.065159" lon="136.479434">
<ele>194.000000</ele>
<time>2026-03-27T00:37:38Z</time>
<speed>0.000000</speed>
<trueHeading>0.000000</trueHeading>
<magneticHeading>0.000000</magneticHeading>
<gpsHeading>0.000000</gpsHeading>
<haccuracy>-1.000000</haccuracy>
<vaccuracy>-1.000000</vaccuracy>
<internetconnect>-1</internetconnect>
</trkpt>
<trkpt lat="35.065241" lon="136.479361">
<ele>196.000000</ele>
<time>2026-03-27T00:37:55Z</time>
<speed>0.000000</speed>
<trueHeading>0.000000</trueHeading>
<magneticHeading>0.000000</magneticHeading>
<gpsHeading>0.000000</gpsHeading>
<haccuracy>-1.000000</haccuracy>
<vaccuracy>-1.000000</vaccuracy>
<internetconnect>-1</internetconnect>
</trkpt>
<trkpt lat="35.065316" lon="136.479289">
<ele>198.000000</ele>
<time>2026-03-27T00:38:11Z</time>
<speed>0.000000</speed>
<trueHeading>0.000000</trueHeading>
<magneticHeading>0.000000</magneticHeading>
<gpsHeading>0.000000</gpsHeading>
<haccuracy>-1.000000</haccuracy>
<vaccuracy>-1.000000</vaccuracy>
<internetconnect>-1</internetconnect>
</trkpt>
<trkpt lat="35.065383" lon="136.479207">
<ele>198.000000</ele>
<time>2026-03-27T00:38:27Z</time>
<speed>0.000000</speed>
<trueHeading>0.000000</trueHeading>
<magneticHeading>0.000000</magneticHeading>
<gpsHeading>0.000000</gpsHeading>
<haccuracy>-1.000000</haccuracy>
<vaccuracy>-1.000000</vaccuracy>
<internetconnect>-1</internetconnect>
</trkpt>
<trkpt lat="35.065449" lon="136.479125">
<ele>199.000000</ele>
<time>2026-03-27T00:38:43Z</time>
<speed>0.000000</speed>
<trueHeading>0.000000</trueHeading>
<magneticHeading>0.000000</magneticHeading>
<gpsHeading>0.000000</gpsHeading>
<haccuracy>-1.000000</haccuracy>
<vaccuracy>-1.000000</vaccuracy>
<internetconnect>-1</internetconnect>
</trkpt>
<trkpt lat="35.065516" lon="136.479034">
<ele>201.000000</ele>
<time>2026-03-27T00:39:00Z</time>
<speed>0.000000</speed>
<trueHeading>0.000000</trueHeading>
<magneticHeading>0.000000</magneticHeading>
<gpsHeading>0.000000</gpsHeading>
<haccuracy>-1.000000</haccuracy>
<vaccuracy>-1.000000</vaccuracy>
<internetconnect>-1</internetconnect>
</trkpt>
<trkpt lat="35.065591" lon="136.478944">
<ele>202.000000</ele>
<time>2026-03-27T00:39:17Z</time>
<speed>0.000000</speed>
<trueHeading>0.000000</trueHeading>
<magneticHeading>0.000000</magneticHeading>
<gpsHeading>0.000000</gpsHeading>
<haccuracy>-1.000000</haccuracy>
<vaccuracy>-1.000000</vaccuracy>
<internetconnect>-1</internetconnect>
</trkpt>
<trkpt lat="35.065665" lon="136.478880">
<ele>202.000000</ele>
<time>2026-03-27T00:39:33Z</time>
<speed>0.000000</speed>
<trueHeading>0.000000</trueHeading>
<magneticHeading>0.000000</magneticHeading>
<gpsHeading>0.000000</gpsHeading>
<haccuracy>-1.000000</haccuracy>
<vaccuracy>-1.000000</vaccuracy>
<internetconnect>-1</internetconnect>
</trkpt>
<trkpt lat="35.065732" lon="136.478789">
<ele>203.000000</ele>
<time>2026-03-27T00:39:49Z</time>
<speed>0.000000</speed>
<trueHeading>0.000000</trueHeading>
<magneticHeading>0.000000</magneticHeading>
<gpsHeading>0.000000</gpsHeading>
<haccuracy>-1.000000</haccuracy>
<vaccuracy>-1.000000</vaccuracy>
<internetconnect>-1</internetconnect>
</trkpt>
<trkpt lat="35.065747" lon="136.478671">
<ele>204.000000</ele>
<time>2026-03-27T00:40:06Z</time>
<speed>0.000000</speed>
<trueHeading>0.000000</trueHeading>
<magneticHeading>0.000000</magneticHeading>
<gpsHeading>0.000000</gpsHeading>
<haccuracy>-1.000000</haccuracy>
<vaccuracy>-1.000000</vaccuracy>
<internetconnect>-1</internetconnect>
</trkpt>
<trkpt lat="35.065747" lon="136.478544">
<ele>205.000000</ele>
<time>2026-03-27T00:40:23Z</time>
<speed>0.000000</speed>
<trueHeading>0.000000</trueHeading>
<magneticHeading>0.000000</magneticHeading>
<gpsHeading>0.000000</gpsHeading>
<haccuracy>-1.000000</haccuracy>
<vaccuracy>-1.000000</vaccuracy>
<internetconnect>-1</internetconnect>
</trkpt>
<trkpt lat="35.065784" lon="136.478435">
<ele>206.000000</ele>
<time>2026-03-27T00:40:40Z</time>
<speed>0.000000</speed>
<trueHeading>0.000000</trueHeading>
<magneticHeading>0.000000</magneticHeading>
<gpsHeading>0.000000</gpsHeading>
<haccuracy>-1.000000</haccuracy>
<vaccuracy>-1.000000</vaccuracy>
<internetconnect>-1</internetconnect>
</trkpt>
<trkpt lat="35.065866" lon="136.478381">
<ele>206.000000</ele>
<time>2026-03-27T00:40:55Z</time>
<speed>0.000000</speed>
<trueHeading>0.000000</trueHeading>
<magneticHeading>0.000000</magneticHeading>
<gpsHeading>0.000000</gpsHeading>
<haccuracy>-1.000000</haccuracy>
<vaccuracy>-1.000000</vaccuracy>
<internetconnect>-1</internetconnect>
</trkpt>
<trkpt lat="35.065970" lon="136.478317">
<ele>207.000000</ele>
<time>2026-03-27T00:41:15Z</time>
<speed>0.000000</speed>
<trueHeading>0.000000</trueHeading>
<magneticHeading>0.000000</magneticHeading>
<gpsHeading>0.000000</gpsHeading>
<haccuracy>-1.000000</haccuracy>
<vaccuracy>-1.000000</vaccuracy>
<internetconnect>-1</internetconnect>
</trkpt>
<trkpt lat="35.066051" lon="136.478254">
<ele>208.000000</ele>
<time>2026-03-27T00:41:31Z</time>
<speed>0.000000</speed>
<trueHeading>0.000000</trueHeading>
<magneticHeading>0.000000</magneticHeading>
<gpsHeading>0.000000</gpsHeading>
<haccuracy>-1.000000</haccuracy>
<vaccuracy>-1.000000</vaccuracy>
<internetconnect>-1</internetconnect>
</trkpt>
<trkpt lat="35.066126" lon="136.478190">
<ele>207.000000</ele>
<time>2026-03-27T00:41:46Z</time>
<speed>0.000000</speed>
<trueHeading>0.000000</trueHeading>
<magneticHeading>0.000000</magneticHeading>
<gpsHeading>0.000000</gpsHeading>
<haccuracy>-1.000000</haccuracy>
<vaccuracy>-1.000000</vaccuracy>
<internetconnect>-1</internetconnect>
</trkpt>
<trkpt lat="35.066192" lon="136.478108">
<ele>208.000000</ele>
<time>2026-03-27T00:42:02Z</time>
<speed>0.000000</speed>
<trueHeading>0.000000</trueHeading>
<magneticHeading>0.000000</magneticHeading>
<gpsHeading>0.000000</gpsHeading>
<haccuracy>-1.000000</haccuracy>
<vaccuracy>-1.000000</vaccuracy>
<internetconnect>-1</internetconnect>
</trkpt>
<trkpt lat="35.066207" lon="136.478154">
<ele>208.000000</ele>
<time>2026-03-27T00:42:09Z</time>
<speed>0.000000</speed>
<trueHeading>0.000000</trueHeading>
<magneticHeading>0.000000</magneticHeading>
<gpsHeading>0.000000</gpsHeading>
<haccuracy>-1.000000</haccuracy>
<vaccuracy>-1.000000</vaccuracy>
<internetconnect>-1</internetconnect>
</trkpt>
<trkpt lat="35.066252" lon="136.478036">
<ele>209.000000</ele>
<time>2026-03-27T00:42:27Z</time>
<speed>0.000000</speed>
<trueHeading>0.000000</trueHeading>
<magneticHeading>0.000000</magneticHeading>
<gpsHeading>0.000000</gpsHeading>
<haccuracy>-1.000000</haccuracy>
<vaccuracy>-1.000000</vaccuracy>
<internetconnect>-1</internetconnect>
</trkpt>
<trkpt lat="35.066297" lon="136.477936">
<ele>210.000000</ele>
<time>2026-03-27T00:42:43Z</time>
<speed>0.000000</speed>
<trueHeading>0.000000</trueHeading>
<magneticHeading>0.000000</magneticHeading>
<gpsHeading>0.000000</gpsHeading>
<haccuracy>-1.000000</haccuracy>
<vaccuracy>-1.000000</vaccuracy>
<internetconnect>-1</internetconnect>
</trkpt>
<trkpt lat="35.066334" lon="136.477827">
<ele>211.000000</ele>
<time>2026-03-27T00:42:59Z</time>
<speed>0.000000</speed>
<trueHeading>0.000000</trueHeading>
<magneticHeading>0.000000</magneticHeading>
<gpsHeading>0.000000</gpsHeading>
<haccuracy>-1.000000</haccuracy>
<vaccuracy>-1.000000</vaccuracy>
<internetconnect>-1</internetconnect>
</trkpt>
<trkpt lat="35.066386" lon="136.477736">
<ele>212.000000</ele>
<time>2026-03-27T00:43:14Z</time>
<speed>0.000000</speed>
<trueHeading>0.000000</trueHeading>
<magneticHeading>0.000000</magneticHeading>
<gpsHeading>0.000000</gpsHeading>
<haccuracy>-1.000000</haccuracy>
<vaccuracy>-1.000000</vaccuracy>
<internetconnect>-1</internetconnect>
</trkpt>
<trkpt lat="35.066445" lon="136.477645">
<ele>213.000000</ele>
<time>2026-03-27T00:43:30Z</time>
<speed>0.000000</speed>
<trueHeading>0.000000</trueHeading>
<magneticHeading>0.000000</magneticHeading>
<gpsHeading>0.000000</gpsHeading>
<haccuracy>-1.000000</haccuracy>
<vaccuracy>-1.000000</vaccuracy>
<internetconnect>-1</internetconnect>
</trkpt>
<trkpt lat="35.066497" lon="136.477555">
<ele>214.000000</ele>
<time>2026-03-27T00:43:45Z</time>
<speed>0.000000</speed>
<trueHeading>0.000000</trueHeading>
<magneticHeading>0.000000</magneticHeading>
<gpsHeading>0.000000</gpsHeading>
<haccuracy>-1.000000</haccuracy>
<vaccuracy>-1.000000</vaccuracy>
<internetconnect>-1</internetconnect>
</trkpt>
<trkpt lat="35.066542" lon="136.477455">
<ele>215.000000</ele>
<time>2026-03-27T00:44:01Z</time>
<speed>0.000000</speed>
<trueHeading>0.000000</trueHeading>
<magneticHeading>0.000000</magneticHeading>
<gpsHeading>0.000000</gpsHeading>
<haccuracy>-1.000000</haccuracy>
<vaccuracy>-1.000000</vaccuracy>
<internetconnect>-1</internetconnect>
</trkpt>
<trkpt lat="35.066557" lon="136.477337">
<ele>215.000000</ele>
<time>2026-03-27T00:44:18Z</time>
<speed>0.000000</speed>
<trueHeading>0.000000</trueHeading>
<magneticHeading>0.000000</magneticHeading>
<gpsHeading>0.000000</gpsHeading>
<haccuracy>-1.000000</haccuracy>
<vaccuracy>-1.000000</vaccuracy>
<internetconnect>-1</internetconnect>
</trkpt>
<trkpt lat="35.066616" lon="136.477237">
<ele>216.000000</ele>
<time>2026-03-27T00:44:35Z</time>
<speed>0.000000</speed>
<trueHeading>0.000000</trueHeading>
<magneticHeading>0.000000</magneticHeading>
<gpsHeading>0.000000</gpsHeading>
<haccuracy>-1.000000</haccuracy>
<vaccuracy>-1.000000</vaccuracy>
<internetconnect>-1</internetconnect>
</trkpt>
<trkpt lat="35.066705" lon="136.477164">
<ele>217.000000</ele>
<time>2026-03-27T00:44:53Z</time>
<speed>0.000000</speed>
<trueHeading>0.000000</trueHeading>
<magneticHeading>0.000000</magneticHeading>
<gpsHeading>0.000000</gpsHeading>
<haccuracy>-1.000000</haccuracy>
<vaccuracy>-1.000000</vaccuracy>
<internetconnect>-1</internetconnect>
</trkpt>
<trkpt lat="35.066772" lon="136.477082">
<ele>218.000000</ele>
<time>2026-03-27T00:45:08Z</time>
<speed>0.000000</speed>
<trueHeading>0.000000</trueHeading>
<magneticHeading>0.000000</magneticHeading>
<gpsHeading>0.000000</gpsHeading>
<haccuracy>-1.000000</haccuracy>
<vaccuracy>-1.000000</vaccuracy>
<internetconnect>-1</internetconnect>
</trkpt>
<trkpt lat="35.066854" lon="136.477001">
<ele>219.000000</ele>
<time>2026-03-27T00:45:26Z</time>
<speed>0.000000</speed>
<trueHeading>0.000000</trueHeading>
<magneticHeading>0.000000</magneticHeading>
<gpsHeading>0.000000</gpsHeading>
<haccuracy>-1.000000</haccuracy>
<vaccuracy>-1.000000</vaccuracy>
<internetconnect>-1</internetconnect>
</trkpt>
<trkpt lat="35.066980" lon="136.476983">
<ele>219.000000</ele>
<time>2026-03-27T00:45:48Z</time>
<speed>0.000000</speed>
<trueHeading>0.000000</trueHeading>
<magneticHeading>0.000000</magneticHeading>
<gpsHeading>0.000000</gpsHeading>
<haccuracy>-1.000000</haccuracy>
<vaccuracy>-1.000000</vaccuracy>
<internetconnect>-1</internetconnect>
</trkpt>
<trkpt lat="35.067077" lon="136.476983">
<ele>219.000000</ele>
<time>2026-03-27T00:46:04Z</time>
<speed>0.000000</speed>
<trueHeading>0.000000</trueHeading>
<magneticHeading>0.000000</magneticHeading>
<gpsHeading>0.000000</gpsHeading>
<haccuracy>-1.000000</haccuracy>
<vaccuracy>-1.000000</vaccuracy>
<internetconnect>-1</internetconnect>
</trkpt>
<trkpt lat="35.067173" lon="136.476983">
<ele>219.000000</ele>
<time>2026-03-27T00:46:20Z</time>
<speed>0.000000</speed>
<trueHeading>0.000000</trueHeading>
<magneticHeading>0.000000</magneticHeading>
<gpsHeading>0.000000</gpsHeading>
<haccuracy>-1.000000</haccuracy>
<vaccuracy>-1.000000</vaccuracy>
<internetconnect>-1</internetconnect>
</trkpt>
<trkpt lat="35.067270" lon="136.476983">
<ele>219.000000</ele>
<time>2026-03-27T00:46:36Z</time>
<speed>0.000000</speed>
<trueHeading>0.000000</trueHeading>
<magneticHeading>0.000000</magneticHeading>
<gpsHeading>0.000000</gpsHeading>
<haccuracy>-1.000000</haccuracy>
<vaccuracy>-1.000000</vaccuracy>
<internetconnect>-1</internetconnect>
</trkpt>
<trkpt lat="35.067359" lon="136.477010">
<ele>219.000000</ele>
<time>2026-03-27T00:46:52Z</time>
<speed>0.000000</speed>
<trueHeading>0.000000</trueHeading>
<magneticHeading>0.000000</magneticHeading>
<gpsHeading>0.000000</gpsHeading>
<haccuracy>-1.000000</haccuracy>
<vaccuracy>-1.000000</vaccuracy>
<internetconnect>-1</internetconnect>
</trkpt>
<trkpt lat="35.067441" lon="136.477064">
<ele>218.000000</ele>
<time>2026-03-27T00:47:07Z</time>
<speed>0.000000</speed>
<trueHeading>0.000000</trueHeading>
<magneticHeading>0.000000</magneticHeading>
<gpsHeading>0.000000</gpsHeading>
<haccuracy>-1.000000</haccuracy>
<vaccuracy>-1.000000</vaccuracy>
<internetconnect>-1</internetconnect>
</trkpt>
<trkpt lat="35.067552" lon="136.477064">
<ele>218.000000</ele>
<time>2026-03-27T00:47:26Z</time>
<speed>0.000000</speed>
<trueHeading>0.000000</trueHeading>
<magneticHeading>0.000000</magneticHeading>
<gpsHeading>0.000000</gpsHeading>
<haccuracy>-1.000000</haccuracy>
<vaccuracy>-1.000000</vaccuracy>
<internetconnect>-1</internetconnect>
</trkpt>
<trkpt lat="35.067649" lon="136.477064">
<ele>218.000000</ele>
<time>2026-03-27T00:47:42Z</time>
<speed>0.000000</speed>
<trueHeading>0.000000</trueHeading>
<magneticHeading>0.000000</magneticHeading>
<gpsHeading>0.000000</gpsHeading>
<haccuracy>-1.000000</haccuracy>
<vaccuracy>-1.000000</vaccuracy>
<internetconnect>-1</internetconnect>
</trkpt>
<trkpt lat="35.067746" lon="136.477064">
<ele>218.000000</ele>
<time>2026-03-27T00:47:58Z</time>
<speed>0.000000</speed>
<trueHeading>0.000000</trueHeading>
<magneticHeading>0.000000</magneticHeading>
<gpsHeading>0.000000</gpsHeading>
<haccuracy>-1.000000</haccuracy>
<vaccuracy>-1.000000</vaccuracy>
<internetconnect>-1</internetconnect>
</trkpt>
<trkpt lat="35.067842" lon="136.477064">
<ele>218.000000</ele>
<time>2026-03-27T00:48:14Z</time>
<speed>0.000000</speed>
<trueHeading>0.000000</trueHeading>
<magneticHeading>0.000000</magneticHeading>
<gpsHeading>0.000000</gpsHeading>
<haccuracy>-1.000000</haccuracy>
<vaccuracy>-1.000000</vaccuracy>
<internetconnect>-1</internetconnect>
</trkpt>
<trkpt lat="35.067931" lon="136.477046">
<ele>219.000000</ele>
<time>2026-03-27T00:48:30Z</time>
<speed>0.000000</speed>
<trueHeading>0.000000</trueHeading>
<magneticHeading>0.000000</magneticHeading>
<gpsHeading>0.000000</gpsHeading>
<haccuracy>-1.000000</haccuracy>
<vaccuracy>-1.000000</vaccuracy>
<internetconnect>-1</internetconnect>
</trkpt>
<trkpt lat="35.068021" lon="136.477019">
<ele>220.000000</ele>
<time>2026-03-27T00:48:45Z</time>
<speed>0.000000</speed>
<trueHeading>0.000000</trueHeading>
<magneticHeading>0.000000</magneticHeading>
<gpsHeading>0.000000</gpsHeading>
<haccuracy>-1.000000</haccuracy>
<vaccuracy>-1.000000</vaccuracy>
<internetconnect>-1</internetconnect>
</trkpt>
<trkpt lat="35.068102" lon="136.476937">
<ele>221.000000</ele>
<time>2026-03-27T00:49:03Z</time>
<speed>0.000000</speed>
<trueHeading>0.000000</trueHeading>
<magneticHeading>0.000000</magneticHeading>
<gpsHeading>0.000000</gpsHeading>
<haccuracy>-1.000000</haccuracy>
<vaccuracy>-1.000000</vaccuracy>
<internetconnect>-1</internetconnect>
</trkpt>
<trkpt lat="35.068125" lon="136.476828">
<ele>221.000000</ele>
<time>2026-03-27T00:49:18Z</time>
<speed>0.000000</speed>
<trueHeading>0.000000</trueHeading>
<magneticHeading>0.000000</magneticHeading>
<gpsHeading>0.000000</gpsHeading>
<haccuracy>-1.000000</haccuracy>
<vaccuracy>-1.000000</vaccuracy>
<internetconnect>-1</internetconnect>
</trkpt>
<trkpt lat="35.068199" lon="136.476756">
<ele>222.000000</ele>
<time>2026-03-27T00:49:34Z</time>
<speed>0.000000</speed>
<trueHeading>0.000000</trueHeading>
<magneticHeading>0.000000</magneticHeading>
<gpsHeading>0.000000</gpsHeading>
<haccuracy>-1.000000</haccuracy>
<vaccuracy>-1.000000</vaccuracy>
<internetconnect>-1</internetconnect>
</trkpt>
<trkpt lat="35.068273" lon="136.476692">
<ele>223.000000</ele>
<time>2026-03-27T00:49:50Z</time>
<speed>0.000000</speed>
<trueHeading>0.000000</trueHeading>
<magneticHeading>0.000000</magneticHeading>
<gpsHeading>0.000000</gpsHeading>
<haccuracy>-1.000000</haccuracy>
<vaccuracy>-1.000000</vaccuracy>
<internetconnect>-1</internetconnect>
</trkpt>
<trkpt lat="35.068333" lon="136.476601">
<ele>224.000000</ele>
<time>2026-03-27T00:50:06Z</time>
<speed>0.000000</speed>
<trueHeading>0.000000</trueHeading>
<magneticHeading>0.000000</magneticHeading>
<gpsHeading>0.000000</gpsHeading>
<haccuracy>-1.000000</haccuracy>
<vaccuracy>-1.000000</vaccuracy>
<internetconnect>-1</internetconnect>
</trkpt>
<trkpt lat="35.068392" lon="136.476510">
<ele>225.000000</ele>
<time>2026-03-27T00:50:22Z</time>
<speed>0.000000</speed>
<trueHeading>0.000000</trueHeading>
<magneticHeading>0.000000</magneticHeading>
<gpsHeading>0.000000</gpsHeading>
<haccuracy>-1.000000</haccuracy>
<vaccuracy>-1.000000</vaccuracy>
<internetconnect>-1</internetconnect>
</trkpt>
<trkpt lat="35.068429" lon="136.476392">
<ele>225.000000</ele>
<time>2026-03-27T00:50:39Z</time>
<speed>0.000000</speed>
<trueHeading>0.000000</trueHeading>
<magneticHeading>0.000000</magneticHeading>
<gpsHeading>0.000000</gpsHeading>
<haccuracy>-1.000000</haccuracy>
<vaccuracy>-1.000000</vaccuracy>
<internetconnect>-1</internetconnect>
</trkpt>
<trkpt lat="35.068437" lon="136.476265">
<ele>227.000000</ele>
<time>2026-03-27T00:50:57Z</time>
<speed>0.000000</speed>
<trueHeading>0.000000</trueHeading>
<magneticHeading>0.000000</magneticHeading>
<gpsHeading>0.000000</gpsHeading>
<haccuracy>-1.000000</haccuracy>
<vaccuracy>-1.000000</vaccuracy>
<internetconnect>-1</internetconnect>
</trkpt>
<trkpt lat="35.068444" lon="136.476147">
<ele>227.000000</ele>
<time>2026-03-27T00:51:13Z</time>
<speed>0.000000</speed>
<trueHeading>0.000000</trueHeading>
<magneticHeading>0.000000</magneticHeading>
<gpsHeading>0.000000</gpsHeading>
<haccuracy>-1.000000</haccuracy>
<vaccuracy>-1.000000</vaccuracy>
<internetconnect>-1</internetconnect>
</trkpt>
<trkpt lat="35.068489" lon="136.476047">
<ele>228.000000</ele>
<time>2026-03-27T00:51:29Z</time>
<speed>0.000000</speed>
<trueHeading>0.000000</trueHeading>
<magneticHeading>0.000000</magneticHeading>
<gpsHeading>0.000000</gpsHeading>
<haccuracy>-1.000000</haccuracy>
<vaccuracy>-1.000000</vaccuracy>
<internetconnect>-1</internetconnect>
</trkpt>
<trkpt lat="35.068556" lon="136.475948">
<ele>229.000000</ele>
<time>2026-03-27T00:51:46Z</time>
<speed>0.000000</speed>
<trueHeading>0.000000</trueHeading>
<magneticHeading>0.000000</magneticHeading>
<gpsHeading>0.000000</gpsHeading>
<haccuracy>-1.000000</haccuracy>
<vaccuracy>-1.000000</vaccuracy>
<internetconnect>-1</internetconnect>
</trkpt>
<trkpt lat="35.068615" lon="136.475857">
<ele>231.000000</ele>
<time>2026-03-27T00:52:02Z</time>
<speed>0.000000</speed>
<trueHeading>0.000000</trueHeading>
<magneticHeading>0.000000</magneticHeading>
<gpsHeading>0.000000</gpsHeading>
<haccuracy>-1.000000</haccuracy>
<vaccuracy>-1.000000</vaccuracy>
<internetconnect>-1</internetconnect>
</trkpt>
<trkpt lat="35.068645" lon="136.475730">
<ele>232.000000</ele>
<time>2026-03-27T00:52:21Z</time>
<speed>0.000000</speed>
<trueHeading>0.000000</trueHeading>
<magneticHeading>0.000000</magneticHeading>
<gpsHeading>0.000000</gpsHeading>
<haccuracy>-1.000000</haccuracy>
<vaccuracy>-1.000000</vaccuracy>
<internetconnect>-1</internetconnect>
</trkpt>
<trkpt lat="35.068660" lon="136.475612">
<ele>233.000000</ele>
<time>2026-03-27T00:52:37Z</time>
<speed>0.000000</speed>
<trueHeading>0.000000</trueHeading>
<magneticHeading>0.000000</magneticHeading>
<gpsHeading>0.000000</gpsHeading>
<haccuracy>-1.000000</haccuracy>
<vaccuracy>-1.000000</vaccuracy>
<internetconnect>-1</internetconnect>
</trkpt>
<trkpt lat="35.068712" lon="136.475494">
<ele>235.000000</ele>
<time>2026-03-27T00:52:55Z</time>
<speed>0.000000</speed>
<trueHeading>0.000000</trueHeading>
<magneticHeading>0.000000</magneticHeading>
<gpsHeading>0.000000</gpsHeading>
<haccuracy>-1.000000</haccuracy>
<vaccuracy>-1.000000</vaccuracy>
<internetconnect>-1</internetconnect>
</trkpt>
<trkpt lat="35.068764" lon="136.475403">
<ele>236.000000</ele>
<time>2026-03-27T00:53:11Z</time>
<speed>0.000000</speed>
<trueHeading>0.000000</trueHeading>
<magneticHeading>0.000000</magneticHeading>
<gpsHeading>0.000000</gpsHeading>
<haccuracy>-1.000000</haccuracy>
<vaccuracy>-1.000000</vaccuracy>
<internetconnect>-1</internetconnect>
</trkpt>
<trkpt lat="35.068816" lon="136.475276">
<ele>238.000000</ele>
<time>2026-03-27T00:53:30Z</time>
<speed>0.000000</speed>
<trueHeading>0.000000</trueHeading>
<magneticHeading>0.000000</magneticHeading>
<gpsHeading>0.000000</gpsHeading>
<haccuracy>-1.000000</haccuracy>
<vaccuracy>-1.000000</vaccuracy>
<internetconnect>-1</internetconnect>
</trkpt>
<trkpt lat="35.068831" lon="136.475167">
<ele>239.000000</ele>
<time>2026-03-27T00:53:46Z</time>
<speed>0.000000</speed>
<trueHeading>0.000000</trueHeading>
<magneticHeading>0.000000</magneticHeading>
<gpsHeading>0.000000</gpsHeading>
<haccuracy>-1.000000</haccuracy>
<vaccuracy>-1.000000</vaccuracy>
<internetconnect>-1</internetconnect>
</trkpt>
<trkpt lat="35.068875" lon="136.475049">
<ele>241.000000</ele>
<time>2026-03-27T00:54:03Z</time>
<speed>0.000000</speed>
<trueHeading>0.000000</trueHeading>
<magneticHeading>0.000000</magneticHeading>
<gpsHeading>0.000000</gpsHeading>
<haccuracy>-1.000000</haccuracy>
<vaccuracy>-1.000000</vaccuracy>
<internetconnect>-1</internetconnect>
</trkpt>
<trkpt lat="35.068920" lon="136.474949">
<ele>241.000000</ele>
<time>2026-03-27T00:54:19Z</time>
<speed>0.000000</speed>
<trueHeading>0.000000</trueHeading>
<magneticHeading>0.000000</magneticHeading>
<gpsHeading>0.000000</gpsHeading>
<haccuracy>-1.000000</haccuracy>
<vaccuracy>-1.000000</vaccuracy>
<internetconnect>-1</internetconnect>
</trkpt>
<trkpt lat="35.068964" lon="136.474849">
<ele>242.000000</ele>
<time>2026-03-27T00:54:35Z</time>
<speed>0.000000</speed>
<trueHeading>0.000000</trueHeading>
<magneticHeading>0.000000</magneticHeading>
<gpsHeading>0.000000</gpsHeading>
<haccuracy>-1.000000</haccuracy>
<vaccuracy>-1.000000</vaccuracy>
<internetconnect>-1</internetconnect>
</trkpt>
<trkpt lat="35.069002" lon="136.474740">
<ele>244.000000</ele>
<time>2026-03-27T00:54:51Z</time>
<speed>0.000000</speed>
<trueHeading>0.000000</trueHeading>
<magneticHeading>0.000000</magneticHeading>
<gpsHeading>0.000000</gpsHeading>
<haccuracy>-1.000000</haccuracy>
<vaccuracy>-1.000000</vaccuracy>
<internetconnect>-1</internetconnect>
</trkpt>
<trkpt lat="35.069031" lon="136.474613">
<ele>244.000000</ele>
<time>2026-03-27T00:55:09Z</time>
<speed>0.000000</speed>
<trueHeading>0.000000</trueHeading>
<magneticHeading>0.000000</magneticHeading>
<gpsHeading>0.000000</gpsHeading>
<haccuracy>-1.000000</haccuracy>
<vaccuracy>-1.000000</vaccuracy>
<internetconnect>-1</internetconnect>
</trkpt>
<trkpt lat="35.069113" lon="136.474531">
<ele>245.000000</ele>
<time>2026-03-27T00:55:27Z</time>
<speed>0.000000</speed>
<trueHeading>0.000000</trueHeading>
<magneticHeading>0.000000</magneticHeading>
<gpsHeading>0.000000</gpsHeading>
<haccuracy>-1.000000</haccuracy>
<vaccuracy>-1.000000</vaccuracy>
<internetconnect>-1</internetconnect>
</trkpt>
<trkpt lat="35.069210" lon="136.474531">
<ele>246.000000</ele>
<time>2026-03-27T00:55:43Z</time>
<speed>0.000000</speed>
<trueHeading>0.000000</trueHeading>
<magneticHeading>0.000000</magneticHeading>
<gpsHeading>0.000000</gpsHeading>
<haccuracy>-1.000000</haccuracy>
<vaccuracy>-1.000000</vaccuracy>
<internetconnect>-1</internetconnect>
</trkpt>
<trkpt lat="35.069299" lon="136.474558">
<ele>246.000000</ele>
<time>2026-03-27T00:55:59Z</time>
<speed>0.000000</speed>
<trueHeading>0.000000</trueHeading>
<magneticHeading>0.000000</magneticHeading>
<gpsHeading>0.000000</gpsHeading>
<haccuracy>-1.000000</haccuracy>
<vaccuracy>-1.000000</vaccuracy>
<internetconnect>-1</internetconnect>
</trkpt>
<trkpt lat="35.069395" lon="136.474604">
<ele>244.000000</ele>
<time>2026-03-27T00:56:16Z</time>
<speed>0.000000</speed>
<trueHeading>0.000000</trueHeading>
<magneticHeading>0.000000</magneticHeading>
<gpsHeading>0.000000</gpsHeading>
<haccuracy>-1.000000</haccuracy>
<vaccuracy>-1.000000</vaccuracy>
<internetconnect>-1</internetconnect>
</trkpt>
<trkpt lat="35.069477" lon="136.474667">
<ele>243.000000</ele>
<time>2026-03-27T00:56:32Z</time>
<speed>0.000000</speed>
<trueHeading>0.000000</trueHeading>
<magneticHeading>0.000000</magneticHeading>
<gpsHeading>0.000000</gpsHeading>
<haccuracy>-1.000000</haccuracy>
<vaccuracy>-1.000000</vaccuracy>
<internetconnect>-1</internetconnect>
</trkpt>
<trkpt lat="35.069581" lon="136.474722">
<ele>242.000000</ele>
<time>2026-03-27T00:56:51Z</time>
<speed>0.000000</speed>
<trueHeading>0.000000</trueHeading>
<magneticHeading>0.000000</magneticHeading>
<gpsHeading>0.000000</gpsHeading>
<haccuracy>-1.000000</haccuracy>
<vaccuracy>-1.000000</vaccuracy>
<internetconnect>-1</internetconnect>
</trkpt>
<trkpt lat="35.069678" lon="136.474776">
<ele>240.000000</ele>
<time>2026-03-27T00:57:09Z</time>
<speed>0.000000</speed>
<trueHeading>0.000000</trueHeading>
<magneticHeading>0.000000</magneticHeading>
<gpsHeading>0.000000</gpsHeading>
<haccuracy>-1.000000</haccuracy>
<vaccuracy>-1.000000</vaccuracy>
<internetconnect>-1</internetconnect>
</trkpt>
<trkpt lat="35.069767" lon="136.474831">
<ele>239.000000</ele>
<time>2026-03-27T00:57:26Z</time>
<speed>0.000000</speed>
<trueHeading>0.000000</trueHeading>
<magneticHeading>0.000000</magneticHeading>
<gpsHeading>0.000000</gpsHeading>
<haccuracy>-1.000000</haccuracy>
<vaccuracy>-1.000000</vaccuracy>
<internetconnect>-1</internetconnect>
</trkpt>
<trkpt lat="35.069849" lon="136.474903">
<ele>239.000000</ele>
<time>2026-03-27T00:57:43Z</time>
<speed>0.000000</speed>
<trueHeading>0.000000</trueHeading>
<magneticHeading>0.000000</magneticHeading>
<gpsHeading>0.000000</gpsHeading>
<haccuracy>-1.000000</haccuracy>
<vaccuracy>-1.000000</vaccuracy>
<internetconnect>-1</internetconnect>
</trkpt>
<trkpt lat="35.069945" lon="136.474967">
<ele>239.000000</ele>
<time>2026-03-27T00:58:01Z</time>
<speed>0.000000</speed>
<trueHeading>0.000000</trueHeading>
<magneticHeading>0.000000</magneticHeading>
<gpsHeading>0.000000</gpsHeading>
<haccuracy>-1.000000</haccuracy>
<vaccuracy>-1.000000</vaccuracy>
<internetconnect>-1</internetconnect>
</trkpt>
<trkpt lat="35.069975" lon="136.475085">
<ele>238.000000</ele>
<time>2026-03-27T00:58:18Z</time>
<speed>0.000000</speed>
<trueHeading>0.000000</trueHeading>
<magneticHeading>0.000000</magneticHeading>
<gpsHeading>0.000000</gpsHeading>
<haccuracy>-1.000000</haccuracy>
<vaccuracy>-1.000000</vaccuracy>
<internetconnect>-1</internetconnect>
</trkpt>
<trkpt lat="35.069975" lon="136.475221">
<ele>236.000000</ele>
<time>2026-03-27T00:58:37Z</time>
<speed>0.000000</speed>
<trueHeading>0.000000</trueHeading>
<magneticHeading>0.000000</magneticHeading>
<gpsHeading>0.000000</gpsHeading>
<haccuracy>-1.000000</haccuracy>
<vaccuracy>-1.000000</vaccuracy>
<internetconnect>-1</internetconnect>
</trkpt>
<trkpt lat="35.069975" lon="136.475348">
<ele>234.000000</ele>
<time>2026-03-27T00:58:55Z</time>
<speed>0.000000</speed>
<trueHeading>0.000000</trueHeading>
<magneticHeading>0.000000</magneticHeading>
<gpsHeading>0.000000</gpsHeading>
<haccuracy>-1.000000</haccuracy>
<vaccuracy>-1.000000</vaccuracy>
<internetconnect>-1</internetconnect>
</trkpt>
<trkpt lat="35.069975" lon="136.475466">
<ele>234.000000</ele>
<time>2026-03-27T00:59:11Z</time>
<speed>0.000000</speed>
<trueHeading>0.000000</trueHeading>
<magneticHeading>0.000000</magneticHeading>
<gpsHeading>0.000000</gpsHeading>
<haccuracy>-1.000000</haccuracy>
<vaccuracy>-1.000000</vaccuracy>
<internetconnect>-1</internetconnect>
</trkpt>
<trkpt lat="35.069975" lon="136.475593">
<ele>233.000000</ele>
<time>2026-03-27T00:59:28Z</time>
<speed>0.000000</speed>
<trueHeading>0.000000</trueHeading>
<magneticHeading>0.000000</magneticHeading>
<gpsHeading>0.000000</gpsHeading>
<haccuracy>-1.000000</haccuracy>
<vaccuracy>-1.000000</vaccuracy>
<internetconnect>-1</internetconnect>
</trkpt>
<trkpt lat="35.070005" lon="136.475721">
<ele>232.000000</ele>
<time>2026-03-27T00:59:47Z</time>
<speed>0.000000</speed>
<trueHeading>0.000000</trueHeading>
<magneticHeading>0.000000</magneticHeading>
<gpsHeading>0.000000</gpsHeading>
<haccuracy>-1.000000</haccuracy>
<vaccuracy>-1.000000</vaccuracy>
<internetconnect>-1</internetconnect>
</trkpt>
<trkpt lat="35.070072" lon="136.475820">
<ele>231.000000</ele>
<time>2026-03-27T01:00:04Z</time>
<speed>0.000000</speed>
<trueHeading>0.000000</trueHeading>
<magneticHeading>0.000000</magneticHeading>
<gpsHeading>0.000000</gpsHeading>
<haccuracy>-1.000000</haccuracy>
<vaccuracy>-1.000000</vaccuracy>
<internetconnect>-1</internetconnect>
</trkpt>
<trkpt lat="35.070168" lon="136.475929">
<ele>229.000000</ele>
<time>2026-03-27T01:00:27Z</time>
<speed>0.000000</speed>
<trueHeading>0.000000</trueHeading>
<magneticHeading>0.000000</magneticHeading>
<gpsHeading>0.000000</gpsHeading>
<haccuracy>-1.000000</haccuracy>
<vaccuracy>-1.000000</vaccuracy>
<internetconnect>-1</internetconnect>
</trkpt>
<trkpt lat="35.070265" lon="136.475984">
<ele>229.000000</ele>
<time>2026-03-27T01:00:44Z</time>
<speed>0.000000</speed>
<trueHeading>0.000000</trueHeading>
<magneticHeading>0.000000</magneticHeading>
<gpsHeading>0.000000</gpsHeading>
<haccuracy>-1.000000</haccuracy>
<vaccuracy>-1.000000</vaccuracy>
<internetconnect>-1</internetconnect>
</trkpt>
<trkpt lat="35.070354" lon="136.476029">
<ele>229.000000</ele>
<time>2026-03-27T01:01:01Z</time>
<speed>0.000000</speed>
<trueHeading>0.000000</trueHeading>
<magneticHeading>0.000000</magneticHeading>
<gpsHeading>0.000000</gpsHeading>
<haccuracy>-1.000000</haccuracy>
<vaccuracy>-1.000000</vaccuracy>
<internetconnect>-1</internetconnect>
</trkpt>
<trkpt lat="35.070428" lon="136.476093">
<ele>228.000000</ele>
<time>2026-03-27T01:01:16Z</time>
<speed>0.000000</speed>
<trueHeading>0.000000</trueHeading>
<magneticHeading>0.000000</magneticHeading>
<gpsHeading>0.000000</gpsHeading>
<haccuracy>-1.000000</haccuracy>
<vaccuracy>-1.000000</vaccuracy>
<internetconnect>-1</internetconnect>
</trkpt>
<trkpt lat="35.070510" lon="136.476202">
<ele>227.000000</ele>
<time>2026-03-27T01:01:36Z</time>
<speed>0.000000</speed>
<trueHeading>0.000000</trueHeading>
<magneticHeading>0.000000</magneticHeading>
<gpsHeading>0.000000</gpsHeading>
<haccuracy>-1.000000</haccuracy>
<vaccuracy>-1.000000</vaccuracy>
<internetconnect>-1</internetconnect>
</trkpt>
<trkpt lat="35.070577" lon="136.476320">
<ele>225.000000</ele>
<time>2026-03-27T01:01:56Z</time>
<speed>0.000000</speed>
<trueHeading>0.000000</trueHeading>
<magneticHeading>0.000000</magneticHeading>
<gpsHeading>0.000000</gpsHeading>
<haccuracy>-1.000000</haccuracy>
<vaccuracy>-1.000000</vaccuracy>
<internetconnect>-1</internetconnect>
</trkpt>
<trkpt lat="35.070636" lon="136.476411">
<ele>224.000000</ele>
<time>2026-03-27T01:02:12Z</time>
<speed>0.000000</speed>
<trueHeading>0.000000</trueHeading>
<magneticHeading>0.000000</magneticHeading>
<gpsHeading>0.000000</gpsHeading>
<haccuracy>-1.000000</haccuracy>
<vaccuracy>-1.000000</vaccuracy>
<internetconnect>-1</internetconnect>
</trkpt>
<trkpt lat="35.070718" lon="136.476520">
<ele>222.000000</ele>
<time>2026-03-27T01:02:32Z</time>
<speed>0.000000</speed>
<trueHeading>0.000000</trueHeading>
<magneticHeading>0.000000</magneticHeading>
<gpsHeading>0.000000</gpsHeading>
<haccuracy>-1.000000</haccuracy>
<vaccuracy>-1.000000</vaccuracy>
<internetconnect>-1</internetconnect>
</trkpt>
<trkpt lat="35.070763" lon="136.476619">
<ele>221.000000</ele>
<time>2026-03-27T01:02:48Z</time>
<speed>0.000000</speed>
<trueHeading>0.000000</trueHeading>
<magneticHeading>0.000000</magneticHeading>
<gpsHeading>0.000000</gpsHeading>
<haccuracy>-1.000000</haccuracy>
<vaccuracy>-1.000000</vaccuracy>
<internetconnect>-1</internetconnect>
</trkpt>
<trkpt lat="35.070815" lon="136.476728">
<ele>220.000000</ele>
<time>2026-03-27T01:03:05Z</time>
<speed>0.000000</speed>
<trueHeading>0.000000</trueHeading>
<magneticHeading>0.000000</magneticHeading>
<gpsHeading>0.000000</gpsHeading>
<haccuracy>-1.000000</haccuracy>
<vaccuracy>-1.000000</vaccuracy>
<internetconnect>-1</internetconnect>
</trkpt>
<trkpt lat="35.070867" lon="136.476819">
<ele>218.000000</ele>
<time>2026-03-27T01:03:21Z</time>
<speed>0.000000</speed>
<trueHeading>0.000000</trueHeading>
<magneticHeading>0.000000</magneticHeading>
<gpsHeading>0.000000</gpsHeading>
<haccuracy>-1.000000</haccuracy>
<vaccuracy>-1.000000</vaccuracy>
<internetconnect>-1</internetconnect>
</trkpt>
<trkpt lat="35.070933" lon="136.476910">
<ele>217.000000</ele>
<time>2026-03-27T01:03:37Z</time>
<speed>0.000000</speed>
<trueHeading>0.000000</trueHeading>
<magneticHeading>0.000000</magneticHeading>
<gpsHeading>0.000000</gpsHeading>
<haccuracy>-1.000000</haccuracy>
<vaccuracy>-1.000000</vaccuracy>
<internetconnect>-1</internetconnect>
</trkpt>
<trkpt lat="35.071015" lon="136.477001">
<ele>216.000000</ele>
<time>2026-03-27T01:03:56Z</time>
<speed>0.000000</speed>
<trueHeading>0.000000</trueHeading>
<magneticHeading>0.000000</magneticHeading>
<gpsHeading>0.000000</gpsHeading>
<haccuracy>-1.000000</haccuracy>
<vaccuracy>-1.000000</vaccuracy>
<internetconnect>-1</internetconnect>
</trkpt>
<trkpt lat="35.071075" lon="136.477091">
<ele>214.000000</ele>
<time>2026-03-27T01:04:12Z</time>
<speed>0.000000</speed>
<trueHeading>0.000000</trueHeading>
<magneticHeading>0.000000</magneticHeading>
<gpsHeading>0.000000</gpsHeading>
<haccuracy>-1.000000</haccuracy>
<vaccuracy>-1.000000</vaccuracy>
<internetconnect>-1</internetconnect>
</trkpt>
<trkpt lat="35.071149" lon="136.477182">
<ele>213.000000</ele>
<time>2026-03-27T01:04:30Z</time>
<speed>0.000000</speed>
<trueHeading>0.000000</trueHeading>
<magneticHeading>0.000000</magneticHeading>
<gpsHeading>0.000000</gpsHeading>
<haccuracy>-1.000000</haccuracy>
<vaccuracy>-1.000000</vaccuracy>
<internetconnect>-1</internetconnect>
</trkpt>
<trkpt lat="35.071216" lon="136.477282">
<ele>211.000000</ele>
<time>2026-03-27T01:04:47Z</time>
<speed>0.000000</speed>
<trueHeading>0.000000</trueHeading>
<magneticHeading>0.000000</magneticHeading>
<gpsHeading>0.000000</gpsHeading>
<haccuracy>-1.000000</haccuracy>
<vaccuracy>-1.000000</vaccuracy>
<internetconnect>-1</internetconnect>
</trkpt>
<trkpt lat="35.071298" lon="136.477382">
<ele>210.000000</ele>
<time>2026-03-27T01:05:07Z</time>
<speed>0.000000</speed>
<trueHeading>0.000000</trueHeading>
<magneticHeading>0.000000</magneticHeading>
<gpsHeading>0.000000</gpsHeading>
<haccuracy>-1.000000</haccuracy>
<vaccuracy>-1.000000</vaccuracy>
<internetconnect>-1</internetconnect>
</trkpt>
<trkpt lat="35.071365" lon="136.477464">
<ele>208.000000</ele>
<time>2026-03-27T01:05:23Z</time>
<speed>0.000000</speed>
<trueHeading>0.000000</trueHeading>
<magneticHeading>0.000000</magneticHeading>
<gpsHeading>0.000000</gpsHeading>
<haccuracy>-1.000000</haccuracy>
<vaccuracy>-1.000000</vaccuracy>
<internetconnect>-1</internetconnect>
</trkpt>
<trkpt lat="35.071454" lon="136.477545">
<ele>207.000000</ele>
<time>2026-03-27T01:05:41Z</time>
<speed>0.000000</speed>
<trueHeading>0.000000</trueHeading>
<magneticHeading>0.000000</magneticHeading>
<gpsHeading>0.000000</gpsHeading>
<haccuracy>-1.000000</haccuracy>
<vaccuracy>-1.000000</vaccuracy>
<internetconnect>-1</internetconnect>
</trkpt>
<trkpt lat="35.071543" lon="136.477564">
<ele>208.000000</ele>
<time>2026-03-27T01:05:57Z</time>
<speed>0.000000</speed>
<trueHeading>0.000000</trueHeading>
<magneticHeading>0.000000</magneticHeading>
<gpsHeading>0.000000</gpsHeading>
<haccuracy>-1.000000</haccuracy>
<vaccuracy>-1.000000</vaccuracy>
<internetconnect>-1</internetconnect>
</trkpt>
<trkpt lat="35.071639" lon="136.477573">
<ele>208.000000</ele>
<time>2026-03-27T01:06:13Z</time>
<speed>0.000000</speed>
<trueHeading>0.000000</trueHeading>
<magneticHeading>0.000000</magneticHeading>
<gpsHeading>0.000000</gpsHeading>
<haccuracy>-1.000000</haccuracy>
<vaccuracy>-1.000000</vaccuracy>
<internetconnect>-1</internetconnect>
</trkpt>
<trkpt lat="35.071729" lon="136.477618">
<ele>206.000000</ele>
<time>2026-03-27T01:06:29Z</time>
<speed>0.000000</speed>
<trueHeading>0.000000</trueHeading>
<magneticHeading>0.000000</magneticHeading>
<gpsHeading>0.000000</gpsHeading>
<haccuracy>-1.000000</haccuracy>
<vaccuracy>-1.000000</vaccuracy>
<internetconnect>-1</internetconnect>
</trkpt>
<trkpt lat="35.071780" lon="136.477654">
<ele>205.000000</ele>
<time>2026-03-27T01:06:39Z</time>
<speed>0.000000</speed>
<trueHeading>0.000000</trueHeading>
<magneticHeading>0.000000</magneticHeading>
<gpsHeading>0.000000</gpsHeading>
<haccuracy>-1.000000</haccuracy>
<vaccuracy>-1.000000</vaccuracy>
<internetconnect>-1</internetconnect>
</trkpt>
<trkpt lat="35.071832" lon="136.477745">
<ele>203.000000</ele>
<time>2026-03-27T01:06:54Z</time>
<speed>0.000000</speed>
<trueHeading>0.000000</trueHeading>
<magneticHeading>0.000000</magneticHeading>
<gpsHeading>0.000000</gpsHeading>
<haccuracy>-1.000000</haccuracy>
<vaccuracy>-1.000000</vaccuracy>
<internetconnect>-1</internetconnect>
</trkpt>
<trkpt lat="35.071870" lon="136.477636">
<ele>204.000000</ele>
<time>2026-03-27T01:07:11Z</time>
<speed>0.000000</speed>
<trueHeading>0.000000</trueHeading>
<magneticHeading>0.000000</magneticHeading>
<gpsHeading>0.000000</gpsHeading>
<haccuracy>-1.000000</haccuracy>
<vaccuracy>-1.000000</vaccuracy>
<internetconnect>-1</internetconnect>
</trkpt>
<trkpt lat="35.071870" lon="136.477509">
<ele>205.000000</ele>
<time>2026-03-27T01:07:28Z</time>
<speed>0.000000</speed>
<trueHeading>0.000000</trueHeading>
<magneticHeading>0.000000</magneticHeading>
<gpsHeading>0.000000</gpsHeading>
<haccuracy>-1.000000</haccuracy>
<vaccuracy>-1.000000</vaccuracy>
<internetconnect>-1</internetconnect>
</trkpt>
<trkpt lat="35.071870" lon="136.477391">
<ele>207.000000</ele>
<time>2026-03-27T01:07:44Z</time>
<speed>0.000000</speed>
<trueHeading>0.000000</trueHeading>
<magneticHeading>0.000000</magneticHeading>
<gpsHeading>0.000000</gpsHeading>
<haccuracy>-1.000000</haccuracy>
<vaccuracy>-1.000000</vaccuracy>
<internetconnect>-1</internetconnect>
</trkpt>
<trkpt lat="35.071855" lon="136.477282">
<ele>208.000000</ele>
<time>2026-03-27T01:08:00Z</time>
<speed>0.000000</speed>
<trueHeading>0.000000</trueHeading>
<magneticHeading>0.000000</magneticHeading>
<gpsHeading>0.000000</gpsHeading>
<haccuracy>-1.000000</haccuracy>
<vaccuracy>-1.000000</vaccuracy>
<internetconnect>-1</internetconnect>
</trkpt>
<trkpt lat="35.071810" lon="136.477182">
<ele>209.000000</ele>
<time>2026-03-27T01:08:15Z</time>
<speed>0.000000</speed>
<trueHeading>0.000000</trueHeading>
<magneticHeading>0.000000</magneticHeading>
<gpsHeading>0.000000</gpsHeading>
<haccuracy>-1.000000</haccuracy>
<vaccuracy>-1.000000</vaccuracy>
<internetconnect>-1</internetconnect>
</trkpt>
<trkpt lat="35.071780" lon="136.477073">
<ele>210.000000</ele>
<time>2026-03-27T01:08:31Z</time>
<speed>0.000000</speed>
<trueHeading>0.000000</trueHeading>
<magneticHeading>0.000000</magneticHeading>
<gpsHeading>0.000000</gpsHeading>
<haccuracy>-1.000000</haccuracy>
<vaccuracy>-1.000000</vaccuracy>
<internetconnect>-1</internetconnect>
</trkpt>
<trkpt lat="35.071780" lon="136.476946">
<ele>211.000000</ele>
<time>2026-03-27T01:08:49Z</time>
<speed>0.000000</speed>
<trueHeading>0.000000</trueHeading>
<magneticHeading>0.000000</magneticHeading>
<gpsHeading>0.000000</gpsHeading>
<haccuracy>-1.000000</haccuracy>
<vaccuracy>-1.000000</vaccuracy>
<internetconnect>-1</internetconnect>
</trkpt>
<trkpt lat="35.071780" lon="136.476801">
<ele>212.000000</ele>
<time>2026-03-27T01:09:09Z</time>
<speed>0.000000</speed>
<trueHeading>0.000000</trueHeading>
<magneticHeading>0.000000</magneticHeading>
<gpsHeading>0.000000</gpsHeading>
<haccuracy>-1.000000</haccuracy>
<vaccuracy>-1.000000</vaccuracy>
<internetconnect>-1</internetconnect>
</trkpt>
<trkpt lat="35.071780" lon="136.476665">
<ele>213.000000</ele>
<time>2026-03-27T01:09:28Z</time>
<speed>0.000000</speed>
<trueHeading>0.000000</trueHeading>
<magneticHeading>0.000000</magneticHeading>
<gpsHeading>0.000000</gpsHeading>
<haccuracy>-1.000000</haccuracy>
<vaccuracy>-1.000000</vaccuracy>
<internetconnect>-1</internetconnect>
</trkpt>
<trkpt lat="35.071780" lon="136.476547">
<ele>214.000000</ele>
<time>2026-03-27T01:09:44Z</time>
<speed>0.000000</speed>
<trueHeading>0.000000</trueHeading>
<magneticHeading>0.000000</magneticHeading>
<gpsHeading>0.000000</gpsHeading>
<haccuracy>-1.000000</haccuracy>
<vaccuracy>-1.000000</vaccuracy>
<internetconnect>-1</internetconnect>
</trkpt>
<trkpt lat="35.071780" lon="136.476429">
<ele>215.000000</ele>
<time>2026-03-27T01:10:00Z</time>
<speed>0.000000</speed>
<trueHeading>0.000000</trueHeading>
<magneticHeading>0.000000</magneticHeading>
<gpsHeading>0.000000</gpsHeading>
<haccuracy>-1.000000</haccuracy>
<vaccuracy>-1.000000</vaccuracy>
<internetconnect>-1</internetconnect>
</trkpt>
<trkpt lat="35.071780" lon="136.476302">
<ele>215.000000</ele>
<time>2026-03-27T01:10:18Z</time>
<speed>0.000000</speed>
<trueHeading>0.000000</trueHeading>
<magneticHeading>0.000000</magneticHeading>
<gpsHeading>0.000000</gpsHeading>
<haccuracy>-1.000000</haccuracy>
<vaccuracy>-1.000000</vaccuracy>
<internetconnect>-1</internetconnect>
</trkpt>
<trkpt lat="35.071780" lon="136.476175">
<ele>216.000000</ele>
<time>2026-03-27T01:10:35Z</time>
<speed>0.000000</speed>
<trueHeading>0.000000</trueHeading>
<magneticHeading>0.000000</magneticHeading>
<gpsHeading>0.000000</gpsHeading>
<haccuracy>-1.000000</haccuracy>
<vaccuracy>-1.000000</vaccuracy>
<internetconnect>-1</internetconnect>
</trkpt>
<trkpt lat="35.071780" lon="136.476057">
<ele>216.000000</ele>
<time>2026-03-27T01:10:51Z</time>
<speed>0.000000</speed>
<trueHeading>0.000000</trueHeading>
<magneticHeading>0.000000</magneticHeading>
<gpsHeading>0.000000</gpsHeading>
<haccuracy>-1.000000</haccuracy>
<vaccuracy>-1.000000</vaccuracy>
<internetconnect>-1</internetconnect>
</trkpt>
<trkpt lat="35.071795" lon="136.475920">
<ele>217.000000</ele>
<time>2026-03-27T01:11:10Z</time>
<speed>0.000000</speed>
<trueHeading>0.000000</trueHeading>
<magneticHeading>0.000000</magneticHeading>
<gpsHeading>0.000000</gpsHeading>
<haccuracy>-1.000000</haccuracy>
<vaccuracy>-1.000000</vaccuracy>
<internetconnect>-1</internetconnect>
</trkpt>
<trkpt lat="35.071870" lon="136.475839">
<ele>217.000000</ele>
<time>2026-03-27T01:11:27Z</time>
<speed>0.000000</speed>
<trueHeading>0.000000</trueHeading>
<magneticHeading>0.000000</magneticHeading>
<gpsHeading>0.000000</gpsHeading>
<haccuracy>-1.000000</haccuracy>
<vaccuracy>-1.000000</vaccuracy>
<internetconnect>-1</internetconnect>
</trkpt>
<trkpt lat="35.071966" lon="136.475811">
<ele>216.000000</ele>
<time>2026-03-27T01:11:44Z</time>
<speed>0.000000</speed>
<trueHeading>0.000000</trueHeading>
<magneticHeading>0.000000</magneticHeading>
<gpsHeading>0.000000</gpsHeading>
<haccuracy>-1.000000</haccuracy>
<vaccuracy>-1.000000</vaccuracy>
<internetconnect>-1</internetconnect>
</trkpt>
<trkpt lat="35.072055" lon="136.475793">
<ele>216.000000</ele>
<time>2026-03-27T01:11:59Z</time>
<speed>0.000000</speed>
<trueHeading>0.000000</trueHeading>
<magneticHeading>0.000000</magneticHeading>
<gpsHeading>0.000000</gpsHeading>
<haccuracy>-1.000000</haccuracy>
<vaccuracy>-1.000000</vaccuracy>
<internetconnect>-1</internetconnect>
</trkpt>
<trkpt lat="35.072159" lon="136.475766">
<ele>217.000000</ele>
<time>2026-03-27T01:12:17Z</time>
<speed>0.000000</speed>
<trueHeading>0.000000</trueHeading>
<magneticHeading>0.000000</magneticHeading>
<gpsHeading>0.000000</gpsHeading>
<haccuracy>-1.000000</haccuracy>
<vaccuracy>-1.000000</vaccuracy>
<internetconnect>-1</internetconnect>
</trkpt>
<trkpt lat="35.072211" lon="136.475675">
<ele>218.000000</ele>
<time>2026-03-27T01:12:32Z</time>
<speed>0.000000</speed>
<trueHeading>0.000000</trueHeading>
<magneticHeading>0.000000</magneticHeading>
<gpsHeading>0.000000</gpsHeading>
<haccuracy>-1.000000</haccuracy>
<vaccuracy>-1.000000</vaccuracy>
<internetconnect>-1</internetconnect>
</trkpt>
<trkpt lat="35.072211" lon="136.475548">
<ele>219.000000</ele>
<time>2026-03-27T01:12:50Z</time>
<speed>0.000000</speed>
<trueHeading>0.000000</trueHeading>
<magneticHeading>0.000000</magneticHeading>
<gpsHeading>0.000000</gpsHeading>
<haccuracy>-1.000000</haccuracy>
<vaccuracy>-1.000000</vaccuracy>
<internetconnect>-1</internetconnect>
</trkpt>
<trkpt lat="35.072211" lon="136.475430">
<ele>219.000000</ele>
<time>2026-03-27T01:13:06Z</time>
<speed>0.000000</speed>
<trueHeading>0.000000</trueHeading>
<magneticHeading>0.000000</magneticHeading>
<gpsHeading>0.000000</gpsHeading>
<haccuracy>-1.000000</haccuracy>
<vaccuracy>-1.000000</vaccuracy>
<internetconnect>-1</internetconnect>
</trkpt>
<trkpt lat="35.072211" lon="136.475312">
<ele>221.000000</ele>
<time>2026-03-27T01:13:22Z</time>
<speed>0.000000</speed>
<trueHeading>0.000000</trueHeading>
<magneticHeading>0.000000</magneticHeading>
<gpsHeading>0.000000</gpsHeading>
<haccuracy>-1.000000</haccuracy>
<vaccuracy>-1.000000</vaccuracy>
<internetconnect>-1</internetconnect>
</trkpt>
<trkpt lat="35.072211" lon="136.475185">
<ele>222.000000</ele>
<time>2026-03-27T01:13:40Z</time>
<speed>0.000000</speed>
<trueHeading>0.000000</trueHeading>
<magneticHeading>0.000000</magneticHeading>
<gpsHeading>0.000000</gpsHeading>
<haccuracy>-1.000000</haccuracy>
<vaccuracy>-1.000000</vaccuracy>
<internetconnect>-1</internetconnect>
</trkpt>
<trkpt lat="35.072211" lon="136.475058">
<ele>223.000000</ele>
<time>2026-03-27T01:13:57Z</time>
<speed>0.000000</speed>
<trueHeading>0.000000</trueHeading>
<magneticHeading>0.000000</magneticHeading>
<gpsHeading>0.000000</gpsHeading>
<haccuracy>-1.000000</haccuracy>
<vaccuracy>-1.000000</vaccuracy>
<internetconnect>-1</internetconnect>
</trkpt>
<trkpt lat="35.072211" lon="136.474913">
<ele>224.000000</ele>
<time>2026-03-27T01:14:17Z</time>
<speed>0.000000</speed>
<trueHeading>0.000000</trueHeading>
<magneticHeading>0.000000</magneticHeading>
<gpsHeading>0.000000</gpsHeading>
<haccuracy>-1.000000</haccuracy>
<vaccuracy>-1.000000</vaccuracy>
<internetconnect>-1</internetconnect>
</trkpt>
<trkpt lat="35.072234" lon="136.474795">
<ele>225.000000</ele>
<time>2026-03-27T01:14:34Z</time>
<speed>0.000000</speed>
<trueHeading>0.000000</trueHeading>
<magneticHeading>0.000000</magneticHeading>
<gpsHeading>0.000000</gpsHeading>
<haccuracy>-1.000000</haccuracy>
<vaccuracy>-1.000000</vaccuracy>
<internetconnect>-1</internetconnect>
</trkpt>
<trkpt lat="35.072256" lon="136.474677">
<ele>226.000000</ele>
<time>2026-03-27T01:14:51Z</time>
<speed>0.000000</speed>
<trueHeading>0.000000</trueHeading>
<magneticHeading>0.000000</magneticHeading>
<gpsHeading>0.000000</gpsHeading>
<haccuracy>-1.000000</haccuracy>
<vaccuracy>-1.000000</vaccuracy>
<internetconnect>-1</internetconnect>
</trkpt>
<trkpt lat="35.072263" lon="136.474558">
<ele>227.000000</ele>
<time>2026-03-27T01:15:07Z</time>
<speed>0.000000</speed>
<trueHeading>0.000000</trueHeading>
<magneticHeading>0.000000</magneticHeading>
<gpsHeading>0.000000</gpsHeading>
<haccuracy>-1.000000</haccuracy>
<vaccuracy>-1.000000</vaccuracy>
<internetconnect>-1</internetconnect>
</trkpt>
<trkpt lat="35.072263" lon="136.474440">
<ele>228.000000</ele>
<time>2026-03-27T01:15:23Z</time>
<speed>0.000000</speed>
<trueHeading>0.000000</trueHeading>
<magneticHeading>0.000000</magneticHeading>
<gpsHeading>0.000000</gpsHeading>
<haccuracy>-1.000000</haccuracy>
<vaccuracy>-1.000000</vaccuracy>
<internetconnect>-1</internetconnect>
</trkpt>
<trkpt lat="35.072263" lon="136.474304">
<ele>229.000000</ele>
<time>2026-03-27T01:15:42Z</time>
<speed>0.000000</speed>
<trueHeading>0.000000</trueHeading>
<magneticHeading>0.000000</magneticHeading>
<gpsHeading>0.000000</gpsHeading>
<haccuracy>-1.000000</haccuracy>
<vaccuracy>-1.000000</vaccuracy>
<internetconnect>-1</internetconnect>
</trkpt>
<trkpt lat="35.072263" lon="136.474150">
<ele>230.000000</ele>
<time>2026-03-27T01:16:03Z</time>
<speed>0.000000</speed>
<trueHeading>0.000000</trueHeading>
<magneticHeading>0.000000</magneticHeading>
<gpsHeading>0.000000</gpsHeading>
<haccuracy>-1.000000</haccuracy>
<vaccuracy>-1.000000</vaccuracy>
<internetconnect>-1</internetconnect>
</trkpt>
<trkpt lat="35.072293" lon="136.474014">
<ele>232.000000</ele>
<time>2026-03-27T01:16:23Z</time>
<speed>0.000000</speed>
<trueHeading>0.000000</trueHeading>
<magneticHeading>0.000000</magneticHeading>
<gpsHeading>0.000000</gpsHeading>
<haccuracy>-1.000000</haccuracy>
<vaccuracy>-1.000000</vaccuracy>
<internetconnect>-1</internetconnect>
</trkpt>
<trkpt lat="35.072323" lon="136.473896">
<ele>234.000000</ele>
<time>2026-03-27T01:16:40Z</time>
<speed>0.000000</speed>
<trueHeading>0.000000</trueHeading>
<magneticHeading>0.000000</magneticHeading>
<gpsHeading>0.000000</gpsHeading>
<haccuracy>-1.000000</haccuracy>
<vaccuracy>-1.000000</vaccuracy>
<internetconnect>-1</internetconnect>
</trkpt>
<trkpt lat="35.072397" lon="136.473805">
<ele>235.000000</ele>
<time>2026-03-27T01:16:57Z</time>
<speed>0.000000</speed>
<trueHeading>0.000000</trueHeading>
<magneticHeading>0.000000</magneticHeading>
<gpsHeading>0.000000</gpsHeading>
<haccuracy>-1.000000</haccuracy>
<vaccuracy>-1.000000</vaccuracy>
<internetconnect>-1</internetconnect>
</trkpt>
<trkpt lat="35.072434" lon="136.473687">
<ele>236.000000</ele>
<time>2026-03-27T01:17:15Z</time>
<speed>0.000000</speed>
<trueHeading>0.000000</trueHeading>
<magneticHeading>0.000000</magneticHeading>
<gpsHeading>0.000000</gpsHeading>
<haccuracy>-1.000000</haccuracy>
<vaccuracy>-1.000000</vaccuracy>
<internetconnect>-1</internetconnect>
</trkpt>
<trkpt lat="35.072442" lon="136.473569">
<ele>237.000000</ele>
<time>2026-03-27T01:17:31Z</time>
<speed>0.000000</speed>
<trueHeading>0.000000</trueHeading>
<magneticHeading>0.000000</magneticHeading>
<gpsHeading>0.000000</gpsHeading>
<haccuracy>-1.000000</haccuracy>
<vaccuracy>-1.000000</vaccuracy>
<internetconnect>-1</internetconnect>
</trkpt>
<trkpt lat="35.072442" lon="136.473451">
<ele>239.000000</ele>
<time>2026-03-27T01:17:48Z</time>
<speed>0.000000</speed>
<trueHeading>0.000000</trueHeading>
<magneticHeading>0.000000</magneticHeading>
<gpsHeading>0.000000</gpsHeading>
<haccuracy>-1.000000</haccuracy>
<vaccuracy>-1.000000</vaccuracy>
<internetconnect>-1</internetconnect>
</trkpt>
<trkpt lat="35.072442" lon="136.473333">
<ele>239.000000</ele>
<time>2026-03-27T01:18:04Z</time>
<speed>0.000000</speed>
<trueHeading>0.000000</trueHeading>
<magneticHeading>0.000000</magneticHeading>
<gpsHeading>0.000000</gpsHeading>
<haccuracy>-1.000000</haccuracy>
<vaccuracy>-1.000000</vaccuracy>
<internetconnect>-1</internetconnect>
</trkpt>
<trkpt lat="35.072442" lon="136.473206">
<ele>239.000000</ele>
<time>2026-03-27T01:18:21Z</time>
<speed>0.000000</speed>
<trueHeading>0.000000</trueHeading>
<magneticHeading>0.000000</magneticHeading>
<gpsHeading>0.000000</gpsHeading>
<haccuracy>-1.000000</haccuracy>
<vaccuracy>-1.000000</vaccuracy>
<internetconnect>-1</internetconnect>
</trkpt>
<trkpt lat="35.072442" lon="136.473088">
<ele>240.000000</ele>
<time>2026-03-27T01:18:38Z</time>
<speed>0.000000</speed>
<trueHeading>0.000000</trueHeading>
<magneticHeading>0.000000</magneticHeading>
<gpsHeading>0.000000</gpsHeading>
<haccuracy>-1.000000</haccuracy>
<vaccuracy>-1.000000</vaccuracy>
<internetconnect>-1</internetconnect>
</trkpt>
<trkpt lat="35.072442" lon="136.472952">
<ele>241.000000</ele>
<time>2026-03-27T01:18:56Z</time>
<speed>0.000000</speed>
<trueHeading>0.000000</trueHeading>
<magneticHeading>0.000000</magneticHeading>
<gpsHeading>0.000000</gpsHeading>
<haccuracy>-1.000000</haccuracy>
<vaccuracy>-1.000000</vaccuracy>
<internetconnect>-1</internetconnect>
</trkpt>
<trkpt lat="35.072442" lon="136.472824">
<ele>244.000000</ele>
<time>2026-03-27T01:19:14Z</time>
<speed>0.000000</speed>
<trueHeading>0.000000</trueHeading>
<magneticHeading>0.000000</magneticHeading>
<gpsHeading>0.000000</gpsHeading>
<haccuracy>-1.000000</haccuracy>
<vaccuracy>-1.000000</vaccuracy>
<internetconnect>-1</internetconnect>
</trkpt>
<trkpt lat="35.072457" lon="136.472706">
<ele>245.000000</ele>
<time>2026-03-27T01:19:30Z</time>
<speed>0.000000</speed>
<trueHeading>0.000000</trueHeading>
<magneticHeading>0.000000</magneticHeading>
<gpsHeading>0.000000</gpsHeading>
<haccuracy>-1.000000</haccuracy>
<vaccuracy>-1.000000</vaccuracy>
<internetconnect>-1</internetconnect>
</trkpt>
<trkpt lat="35.072508" lon="136.472607">
<ele>247.000000</ele>
<time>2026-03-27T01:19:47Z</time>
<speed>0.000000</speed>
<trueHeading>0.000000</trueHeading>
<magneticHeading>0.000000</magneticHeading>
<gpsHeading>0.000000</gpsHeading>
<haccuracy>-1.000000</haccuracy>
<vaccuracy>-1.000000</vaccuracy>
<internetconnect>-1</internetconnect>
</trkpt>
<trkpt lat="35.072575" lon="136.472525">
<ele>247.000000</ele>
<time>2026-03-27T01:20:03Z</time>
<speed>0.000000</speed>
<trueHeading>0.000000</trueHeading>
<magneticHeading>0.000000</magneticHeading>
<gpsHeading>0.000000</gpsHeading>
<haccuracy>-1.000000</haccuracy>
<vaccuracy>-1.000000</vaccuracy>
<internetconnect>-1</internetconnect>
</trkpt>
<trkpt lat="35.072590" lon="136.472407">
<ele>249.000000</ele>
<time>2026-03-27T01:20:19Z</time>
<speed>0.000000</speed>
<trueHeading>0.000000</trueHeading>
<magneticHeading>0.000000</magneticHeading>
<gpsHeading>0.000000</gpsHeading>
<haccuracy>-1.000000</haccuracy>
<vaccuracy>-1.000000</vaccuracy>
<internetconnect>-1</internetconnect>
</trkpt>
<trkpt lat="35.072620" lon="136.472380">
<ele>249.000000</ele>
<time>2026-03-27T01:20:25Z</time>
<speed>0.000000</speed>
<trueHeading>0.000000</trueHeading>
<magneticHeading>0.000000</magneticHeading>
<gpsHeading>0.000000</gpsHeading>
<haccuracy>-1.000000</haccuracy>
<vaccuracy>-1.000000</vaccuracy>
<internetconnect>-1</internetconnect>
</trkpt>
<trkpt lat="35.072657" lon="136.472271">
<ele>251.000000</ele>
<time>2026-03-27T01:20:42Z</time>
<speed>0.000000</speed>
<trueHeading>0.000000</trueHeading>
<magneticHeading>0.000000</magneticHeading>
<gpsHeading>0.000000</gpsHeading>
<haccuracy>-1.000000</haccuracy>
<vaccuracy>-1.000000</vaccuracy>
<internetconnect>-1</internetconnect>
</trkpt>
<trkpt lat="35.072665" lon="136.472107">
<ele>253.000000</ele>
<time>2026-03-27T01:21:04Z</time>
<speed>0.000000</speed>
<trueHeading>0.000000</trueHeading>
<magneticHeading>0.000000</magneticHeading>
<gpsHeading>0.000000</gpsHeading>
<haccuracy>-1.000000</haccuracy>
<vaccuracy>-1.000000</vaccuracy>
<internetconnect>-1</internetconnect>
</trkpt>
<trkpt lat="35.072665" lon="136.471989">
<ele>255.000000</ele>
<time>2026-03-27T01:21:20Z</time>
<speed>0.000000</speed>
<trueHeading>0.000000</trueHeading>
<magneticHeading>0.000000</magneticHeading>
<gpsHeading>0.000000</gpsHeading>
<haccuracy>-1.000000</haccuracy>
<vaccuracy>-1.000000</vaccuracy>
<internetconnect>-1</internetconnect>
</trkpt>
<trkpt lat="35.072665" lon="136.471862">
<ele>256.000000</ele>
<time>2026-03-27T01:21:38Z</time>
<speed>0.000000</speed>
<trueHeading>0.000000</trueHeading>
<magneticHeading>0.000000</magneticHeading>
<gpsHeading>0.000000</gpsHeading>
<haccuracy>-1.000000</haccuracy>
<vaccuracy>-1.000000</vaccuracy>
<internetconnect>-1</internetconnect>
</trkpt>
<trkpt lat="35.072665" lon="136.471744">
<ele>257.000000</ele>
<time>2026-03-27T01:21:54Z</time>
<speed>0.000000</speed>
<trueHeading>0.000000</trueHeading>
<magneticHeading>0.000000</magneticHeading>
<gpsHeading>0.000000</gpsHeading>
<haccuracy>-1.000000</haccuracy>
<vaccuracy>-1.000000</vaccuracy>
<internetconnect>-1</internetconnect>
</trkpt>
<trkpt lat="35.072687" lon="136.471626">
<ele>257.000000</ele>
<time>2026-03-27T01:22:11Z</time>
<speed>0.000000</speed>
<trueHeading>0.000000</trueHeading>
<magneticHeading>0.000000</magneticHeading>
<gpsHeading>0.000000</gpsHeading>
<haccuracy>-1.000000</haccuracy>
<vaccuracy>-1.000000</vaccuracy>
<internetconnect>-1</internetconnect>
</trkpt>
<trkpt lat="35.072709" lon="136.471499">
<ele>257.000000</ele>
<time>2026-03-27T01:22:29Z</time>
<speed>0.000000</speed>
<trueHeading>0.000000</trueHeading>
<magneticHeading>0.000000</magneticHeading>
<gpsHeading>0.000000</gpsHeading>
<haccuracy>-1.000000</haccuracy>
<vaccuracy>-1.000000</vaccuracy>
<internetconnect>-1</internetconnect>
</trkpt>
<trkpt lat="35.072739" lon="136.471381">
<ele>258.000000</ele>
<time>2026-03-27T01:22:46Z</time>
<speed>0.000000</speed>
<trueHeading>0.000000</trueHeading>
<magneticHeading>0.000000</magneticHeading>
<gpsHeading>0.000000</gpsHeading>
<haccuracy>-1.000000</haccuracy>
<vaccuracy>-1.000000</vaccuracy>
<internetconnect>-1</internetconnect>
</trkpt>
<trkpt lat="35.072761" lon="136.471254">
<ele>258.000000</ele>
<time>2026-03-27T01:23:04Z</time>
<speed>0.000000</speed>
<trueHeading>0.000000</trueHeading>
<magneticHeading>0.000000</magneticHeading>
<gpsHeading>0.000000</gpsHeading>
<haccuracy>-1.000000</haccuracy>
<vaccuracy>-1.000000</vaccuracy>
<internetconnect>-1</internetconnect>
</trkpt>
<trkpt lat="35.072776" lon="136.471136">
<ele>260.000000</ele>
<time>2026-03-27T01:23:20Z</time>
<speed>0.000000</speed>
<trueHeading>0.000000</trueHeading>
<magneticHeading>0.000000</magneticHeading>
<gpsHeading>0.000000</gpsHeading>
<haccuracy>-1.000000</haccuracy>
<vaccuracy>-1.000000</vaccuracy>
<internetconnect>-1</internetconnect>
</trkpt>
<trkpt lat="35.072776" lon="136.471018">
<ele>261.000000</ele>
<time>2026-03-27T01:23:36Z</time>
<speed>0.000000</speed>
<trueHeading>0.000000</trueHeading>
<magneticHeading>0.000000</magneticHeading>
<gpsHeading>0.000000</gpsHeading>
<haccuracy>-1.000000</haccuracy>
<vaccuracy>-1.000000</vaccuracy>
<internetconnect>-1</internetconnect>
</trkpt>
<trkpt lat="35.072776" lon="136.470900">
<ele>262.000000</ele>
<time>2026-03-27T01:23:53Z</time>
<speed>0.000000</speed>
<trueHeading>0.000000</trueHeading>
<magneticHeading>0.000000</magneticHeading>
<gpsHeading>0.000000</gpsHeading>
<haccuracy>-1.000000</haccuracy>
<vaccuracy>-1.000000</vaccuracy>
<internetconnect>-1</internetconnect>
</trkpt>
<trkpt lat="35.072776" lon="136.470773">
<ele>264.000000</ele>
<time>2026-03-27T01:24:10Z</time>
<speed>0.000000</speed>
<trueHeading>0.000000</trueHeading>
<magneticHeading>0.000000</magneticHeading>
<gpsHeading>0.000000</gpsHeading>
<haccuracy>-1.000000</haccuracy>
<vaccuracy>-1.000000</vaccuracy>
<internetconnect>-1</internetconnect>
</trkpt>
<trkpt lat="35.072776" lon="136.470645">
<ele>264.000000</ele>
<time>2026-03-27T01:24:28Z</time>
<speed>0.000000</speed>
<trueHeading>0.000000</trueHeading>
<magneticHeading>0.000000</magneticHeading>
<gpsHeading>0.000000</gpsHeading>
<haccuracy>-1.000000</haccuracy>
<vaccuracy>-1.000000</vaccuracy>
<internetconnect>-1</internetconnect>
</trkpt>
<trkpt lat="35.072799" lon="136.470537">
<ele>266.000000</ele>
<time>2026-03-27T01:24:43Z</time>
<speed>0.000000</speed>
<trueHeading>0.000000</trueHeading>
<magneticHeading>0.000000</magneticHeading>
<gpsHeading>0.000000</gpsHeading>
<haccuracy>-1.000000</haccuracy>
<vaccuracy>-1.000000</vaccuracy>
<internetconnect>-1</internetconnect>
</trkpt>
<trkpt lat="35.072821" lon="136.470418">
<ele>266.000000</ele>
<time>2026-03-27T01:25:00Z</time>
<speed>0.000000</speed>
<trueHeading>0.000000</trueHeading>
<magneticHeading>0.000000</magneticHeading>
<gpsHeading>0.000000</gpsHeading>
<haccuracy>-1.000000</haccuracy>
<vaccuracy>-1.000000</vaccuracy>
<internetconnect>-1</internetconnect>
</trkpt>
<trkpt lat="35.072836" lon="136.470310">
<ele>267.000000</ele>
<time>2026-03-27T01:25:15Z</time>
<speed>0.000000</speed>
<trueHeading>0.000000</trueHeading>
<magneticHeading>0.000000</magneticHeading>
<gpsHeading>0.000000</gpsHeading>
<haccuracy>-1.000000</haccuracy>
<vaccuracy>-1.000000</vaccuracy>
<internetconnect>-1</internetconnect>
</trkpt>
<trkpt lat="35.072836" lon="136.470164">
<ele>268.000000</ele>
<time>2026-03-27T01:25:35Z</time>
<speed>0.000000</speed>
<trueHeading>0.000000</trueHeading>
<magneticHeading>0.000000</magneticHeading>
<gpsHeading>0.000000</gpsHeading>
<haccuracy>-1.000000</haccuracy>
<vaccuracy>-1.000000</vaccuracy>
<internetconnect>-1</internetconnect>
</trkpt>
<trkpt lat="35.072843" lon="136.469983">
<ele>271.000000</ele>
<time>2026-03-27T01:26:00Z</time>
<speed>0.000000</speed>
<trueHeading>0.000000</trueHeading>
<magneticHeading>0.000000</magneticHeading>
<gpsHeading>0.000000</gpsHeading>
<haccuracy>-1.000000</haccuracy>
<vaccuracy>-1.000000</vaccuracy>
<internetconnect>-1</internetconnect>
</trkpt>
<trkpt lat="35.072851" lon="136.469819">
<ele>273.000000</ele>
<time>2026-03-27T01:26:23Z</time>
<speed>0.000000</speed>
<trueHeading>0.000000</trueHeading>
<magneticHeading>0.000000</magneticHeading>
<gpsHeading>0.000000</gpsHeading>
<haccuracy>-1.000000</haccuracy>
<vaccuracy>-1.000000</vaccuracy>
<internetconnect>-1</internetconnect>
</trkpt>
<trkpt lat="35.072851" lon="136.469701">
<ele>274.000000</ele>
<time>2026-03-27T01:26:39Z</time>
<speed>0.000000</speed>
<trueHeading>0.000000</trueHeading>
<magneticHeading>0.000000</magneticHeading>
<gpsHeading>0.000000</gpsHeading>
<haccuracy>-1.000000</haccuracy>
<vaccuracy>-1.000000</vaccuracy>
<internetconnect>-1</internetconnect>
</trkpt>
<trkpt lat="35.072873" lon="136.469583">
<ele>275.000000</ele>
<time>2026-03-27T01:26:56Z</time>
<speed>0.000000</speed>
<trueHeading>0.000000</trueHeading>
<magneticHeading>0.000000</magneticHeading>
<gpsHeading>0.000000</gpsHeading>
<haccuracy>-1.000000</haccuracy>
<vaccuracy>-1.000000</vaccuracy>
<internetconnect>-1</internetconnect>
</trkpt>
<trkpt lat="35.072932" lon="136.469429">
<ele>276.000000</ele>
<time>2026-03-27T01:27:19Z</time>
<speed>0.000000</speed>
<trueHeading>0.000000</trueHeading>
<magneticHeading>0.000000</magneticHeading>
<gpsHeading>0.000000</gpsHeading>
<haccuracy>-1.000000</haccuracy>
<vaccuracy>-1.000000</vaccuracy>
<internetconnect>-1</internetconnect>
</trkpt>
<trkpt lat="35.072984" lon="136.469311">
<ele>278.000000</ele>
<time>2026-03-27T01:27:38Z</time>
<speed>0.000000</speed>
<trueHeading>0.000000</trueHeading>
<magneticHeading>0.000000</magneticHeading>
<gpsHeading>0.000000</gpsHeading>
<haccuracy>-1.000000</haccuracy>
<vaccuracy>-1.000000</vaccuracy>
<internetconnect>-1</internetconnect>
</trkpt>
<trkpt lat="35.073036" lon="136.469157">
<ele>280.000000</ele>
<time>2026-03-27T01:28:01Z</time>
<speed>0.000000</speed>
<trueHeading>0.000000</trueHeading>
<magneticHeading>0.000000</magneticHeading>
<gpsHeading>0.000000</gpsHeading>
<haccuracy>-1.000000</haccuracy>
<vaccuracy>-1.000000</vaccuracy>
<internetconnect>-1</internetconnect>
</trkpt>
<trkpt lat="35.073088" lon="136.469057">
<ele>282.000000</ele>
<time>2026-03-27T01:28:17Z</time>
<speed>0.000000</speed>
<trueHeading>0.000000</trueHeading>
<magneticHeading>0.000000</magneticHeading>
<gpsHeading>0.000000</gpsHeading>
<haccuracy>-1.000000</haccuracy>
<vaccuracy>-1.000000</vaccuracy>
<internetconnect>-1</internetconnect>
</trkpt>
<trkpt lat="35.073140" lon="136.468911">
<ele>284.000000</ele>
<time>2026-03-27T01:28:39Z</time>
<speed>0.000000</speed>
<trueHeading>0.000000</trueHeading>
<magneticHeading>0.000000</magneticHeading>
<gpsHeading>0.000000</gpsHeading>
<haccuracy>-1.000000</haccuracy>
<vaccuracy>-1.000000</vaccuracy>
<internetconnect>-1</internetconnect>
</trkpt>
<trkpt lat="35.073185" lon="136.468812">
<ele>286.000000</ele>
<time>2026-03-27T01:28:55Z</time>
<speed>0.000000</speed>
<trueHeading>0.000000</trueHeading>
<magneticHeading>0.000000</magneticHeading>
<gpsHeading>0.000000</gpsHeading>
<haccuracy>-1.000000</haccuracy>
<vaccuracy>-1.000000</vaccuracy>
<internetconnect>-1</internetconnect>
</trkpt>
<trkpt lat="35.073252" lon="136.468684">
<ele>286.000000</ele>
<time>2026-03-27T01:29:15Z</time>
<speed>0.000000</speed>
<trueHeading>0.000000</trueHeading>
<magneticHeading>0.000000</magneticHeading>
<gpsHeading>0.000000</gpsHeading>
<haccuracy>-1.000000</haccuracy>
<vaccuracy>-1.000000</vaccuracy>
<internetconnect>-1</internetconnect>
</trkpt>
<trkpt lat="35.073319" lon="136.468594">
<ele>287.000000</ele>
<time>2026-03-27T01:29:32Z</time>
<speed>0.000000</speed>
<trueHeading>0.000000</trueHeading>
<magneticHeading>0.000000</magneticHeading>
<gpsHeading>0.000000</gpsHeading>
<haccuracy>-1.000000</haccuracy>
<vaccuracy>-1.000000</vaccuracy>
<internetconnect>-1</internetconnect>
</trkpt>
<trkpt lat="35.073393" lon="136.468512">
<ele>289.000000</ele>
<time>2026-03-27T01:29:49Z</time>
<speed>0.000000</speed>
<trueHeading>0.000000</trueHeading>
<magneticHeading>0.000000</magneticHeading>
<gpsHeading>0.000000</gpsHeading>
<haccuracy>-1.000000</haccuracy>
<vaccuracy>-1.000000</vaccuracy>
<internetconnect>-1</internetconnect>
</trkpt>
<trkpt lat="35.073482" lon="136.468421">
<ele>291.000000</ele>
<time>2026-03-27T01:30:09Z</time>
<speed>0.000000</speed>
<trueHeading>0.000000</trueHeading>
<magneticHeading>0.000000</magneticHeading>
<gpsHeading>0.000000</gpsHeading>
<haccuracy>-1.000000</haccuracy>
<vaccuracy>-1.000000</vaccuracy>
<internetconnect>-1</internetconnect>
</trkpt>
<trkpt lat="35.073549" lon="136.468339">
<ele>293.000000</ele>
<time>2026-03-27T01:30:24Z</time>
<speed>0.000000</speed>
<trueHeading>0.000000</trueHeading>
<magneticHeading>0.000000</magneticHeading>
<gpsHeading>0.000000</gpsHeading>
<haccuracy>-1.000000</haccuracy>
<vaccuracy>-1.000000</vaccuracy>
<internetconnect>-1</internetconnect>
</trkpt>
<trkpt lat="35.073638" lon="136.468212">
<ele>294.000000</ele>
<time>2026-03-27T01:30:48Z</time>
<speed>0.000000</speed>
<trueHeading>0.000000</trueHeading>
<magneticHeading>0.000000</magneticHeading>
<gpsHeading>0.000000</gpsHeading>
<haccuracy>-1.000000</haccuracy>
<vaccuracy>-1.000000</vaccuracy>
<internetconnect>-1</internetconnect>
</trkpt>
<trkpt lat="35.073690" lon="136.468122">
<ele>295.000000</ele>
<time>2026-03-27T01:31:03Z</time>
<speed>0.000000</speed>
<trueHeading>0.000000</trueHeading>
<magneticHeading>0.000000</magneticHeading>
<gpsHeading>0.000000</gpsHeading>
<haccuracy>-1.000000</haccuracy>
<vaccuracy>-1.000000</vaccuracy>
<internetconnect>-1</internetconnect>
</trkpt>
<trkpt lat="35.073742" lon="136.468022">
<ele>295.000000</ele>
<time>2026-03-27T01:31:19Z</time>
<speed>0.000000</speed>
<trueHeading>0.000000</trueHeading>
<magneticHeading>0.000000</magneticHeading>
<gpsHeading>0.000000</gpsHeading>
<haccuracy>-1.000000</haccuracy>
<vaccuracy>-1.000000</vaccuracy>
<internetconnect>-1</internetconnect>
</trkpt>
<trkpt lat="35.073802" lon="136.467922">
<ele>295.000000</ele>
<time>2026-03-27T01:31:36Z</time>
<speed>0.000000</speed>
<trueHeading>0.000000</trueHeading>
<magneticHeading>0.000000</magneticHeading>
<gpsHeading>0.000000</gpsHeading>
<haccuracy>-1.000000</haccuracy>
<vaccuracy>-1.000000</vaccuracy>
<internetconnect>-1</internetconnect>
</trkpt>
<trkpt lat="35.073891" lon="136.467822">
<ele>294.000000</ele>
<time>2026-03-27T01:31:56Z</time>
<speed>0.000000</speed>
<trueHeading>0.000000</trueHeading>
<magneticHeading>0.000000</magneticHeading>
<gpsHeading>0.000000</gpsHeading>
<haccuracy>-1.000000</haccuracy>
<vaccuracy>-1.000000</vaccuracy>
<internetconnect>-1</internetconnect>
</trkpt>
<trkpt lat="35.073965" lon="136.467731">
<ele>294.000000</ele>
<time>2026-03-27T01:32:14Z</time>
<speed>0.000000</speed>
<trueHeading>0.000000</trueHeading>
<magneticHeading>0.000000</magneticHeading>
<gpsHeading>0.000000</gpsHeading>
<haccuracy>-1.000000</haccuracy>
<vaccuracy>-1.000000</vaccuracy>
<internetconnect>-1</internetconnect>
</trkpt>
<trkpt lat="35.074077" lon="136.467649">
<ele>296.000000</ele>
<time>2026-03-27T01:32:36Z</time>
<speed>0.000000</speed>
<trueHeading>0.000000</trueHeading>
<magneticHeading>0.000000</magneticHeading>
<gpsHeading>0.000000</gpsHeading>
<haccuracy>-1.000000</haccuracy>
<vaccuracy>-1.000000</vaccuracy>
<internetconnect>-1</internetconnect>
</trkpt>
<trkpt lat="35.074151" lon="136.467577">
<ele>298.000000</ele>
<time>2026-03-27T01:32:52Z</time>
<speed>0.000000</speed>
<trueHeading>0.000000</trueHeading>
<magneticHeading>0.000000</magneticHeading>
<gpsHeading>0.000000</gpsHeading>
<haccuracy>-1.000000</haccuracy>
<vaccuracy>-1.000000</vaccuracy>
<internetconnect>-1</internetconnect>
</trkpt>
<trkpt lat="35.074233" lon="136.467486">
<ele>300.000000</ele>
<time>2026-03-27T01:33:10Z</time>
<speed>0.000000</speed>
<trueHeading>0.000000</trueHeading>
<magneticHeading>0.000000</magneticHeading>
<gpsHeading>0.000000</gpsHeading>
<haccuracy>-1.000000</haccuracy>
<vaccuracy>-1.000000</vaccuracy>
<internetconnect>-1</internetconnect>
</trkpt>
<trkpt lat="35.074299" lon="136.467404">
<ele>301.000000</ele>
<time>2026-03-27T01:33:26Z</time>
<speed>0.000000</speed>
<trueHeading>0.000000</trueHeading>
<magneticHeading>0.000000</magneticHeading>
<gpsHeading>0.000000</gpsHeading>
<haccuracy>-1.000000</haccuracy>
<vaccuracy>-1.000000</vaccuracy>
<internetconnect>-1</internetconnect>
</trkpt>
<trkpt lat="35.074366" lon="136.467304">
<ele>302.000000</ele>
<time>2026-03-27T01:33:44Z</time>
<speed>0.000000</speed>
<trueHeading>0.000000</trueHeading>
<magneticHeading>0.000000</magneticHeading>
<gpsHeading>0.000000</gpsHeading>
<haccuracy>-1.000000</haccuracy>
<vaccuracy>-1.000000</vaccuracy>
<internetconnect>-1</internetconnect>
</trkpt>
<trkpt lat="35.074433" lon="136.467195">
<ele>303.000000</ele>
<time>2026-03-27T01:34:03Z</time>
<speed>0.000000</speed>
<trueHeading>0.000000</trueHeading>
<magneticHeading>0.000000</magneticHeading>
<gpsHeading>0.000000</gpsHeading>
<haccuracy>-1.000000</haccuracy>
<vaccuracy>-1.000000</vaccuracy>
<internetconnect>-1</internetconnect>
</trkpt>
<trkpt lat="35.074500" lon="136.467105">
<ele>303.000000</ele>
<time>2026-03-27T01:34:20Z</time>
<speed>0.000000</speed>
<trueHeading>0.000000</trueHeading>
<magneticHeading>0.000000</magneticHeading>
<gpsHeading>0.000000</gpsHeading>
<haccuracy>-1.000000</haccuracy>
<vaccuracy>-1.000000</vaccuracy>
<internetconnect>-1</internetconnect>
</trkpt>
<trkpt lat="35.074567" lon="136.467005">
<ele>306.000000</ele>
<time>2026-03-27T01:34:37Z</time>
<speed>0.000000</speed>
<trueHeading>0.000000</trueHeading>
<magneticHeading>0.000000</magneticHeading>
<gpsHeading>0.000000</gpsHeading>
<haccuracy>-1.000000</haccuracy>
<vaccuracy>-1.000000</vaccuracy>
<internetconnect>-1</internetconnect>
</trkpt>
<trkpt lat="35.074649" lon="136.466905">
<ele>308.000000</ele>
<time>2026-03-27T01:34:57Z</time>
<speed>0.000000</speed>
<trueHeading>0.000000</trueHeading>
<magneticHeading>0.000000</magneticHeading>
<gpsHeading>0.000000</gpsHeading>
<haccuracy>-1.000000</haccuracy>
<vaccuracy>-1.000000</vaccuracy>
<internetconnect>-1</internetconnect>
</trkpt>
<trkpt lat="35.074723" lon="136.466832">
<ele>311.000000</ele>
<time>2026-03-27T01:35:13Z</time>
<speed>0.000000</speed>
<trueHeading>0.000000</trueHeading>
<magneticHeading>0.000000</magneticHeading>
<gpsHeading>0.000000</gpsHeading>
<haccuracy>-1.000000</haccuracy>
<vaccuracy>-1.000000</vaccuracy>
<internetconnect>-1</internetconnect>
</trkpt>
<trkpt lat="35.074797" lon="136.466732">
<ele>312.000000</ele>
<time>2026-03-27T01:35:31Z</time>
<speed>0.000000</speed>
<trueHeading>0.000000</trueHeading>
<magneticHeading>0.000000</magneticHeading>
<gpsHeading>0.000000</gpsHeading>
<haccuracy>-1.000000</haccuracy>
<vaccuracy>-1.000000</vaccuracy>
<internetconnect>-1</internetconnect>
</trkpt>
<trkpt lat="35.074901" lon="136.466614">
<ele>313.000000</ele>
<time>2026-03-27T01:35:55Z</time>
<speed>0.000000</speed>
<trueHeading>0.000000</trueHeading>
<magneticHeading>0.000000</magneticHeading>
<gpsHeading>0.000000</gpsHeading>
<haccuracy>-1.000000</haccuracy>
<vaccuracy>-1.000000</vaccuracy>
<internetconnect>-1</internetconnect>
</trkpt>
<trkpt lat="35.074991" lon="136.466505">
<ele>314.000000</ele>
<time>2026-03-27T01:36:17Z</time>
<speed>0.000000</speed>
<trueHeading>0.000000</trueHeading>
<magneticHeading>0.000000</magneticHeading>
<gpsHeading>0.000000</gpsHeading>
<haccuracy>-1.000000</haccuracy>
<vaccuracy>-1.000000</vaccuracy>
<internetconnect>-1</internetconnect>
</trkpt>
<trkpt lat="35.075065" lon="136.466415">
<ele>316.000000</ele>
<time>2026-03-27T01:36:34Z</time>
<speed>0.000000</speed>
<trueHeading>0.000000</trueHeading>
<magneticHeading>0.000000</magneticHeading>
<gpsHeading>0.000000</gpsHeading>
<haccuracy>-1.000000</haccuracy>
<vaccuracy>-1.000000</vaccuracy>
<internetconnect>-1</internetconnect>
</trkpt>
<trkpt lat="35.075124" lon="136.466342">
<ele>316.000000</ele>
<time>2026-03-27T01:36:48Z</time>
<speed>0.000000</speed>
<trueHeading>0.000000</trueHeading>
<magneticHeading>0.000000</magneticHeading>
<gpsHeading>0.000000</gpsHeading>
<haccuracy>-1.000000</haccuracy>
<vaccuracy>-1.000000</vaccuracy>
<internetconnect>-1</internetconnect>
</trkpt>
<trkpt lat="35.075147" lon="136.466224">
<ele>319.000000</ele>
<time>2026-03-27T01:37:05Z</time>
<speed>0.000000</speed>
<trueHeading>0.000000</trueHeading>
<magneticHeading>0.000000</magneticHeading>
<gpsHeading>0.000000</gpsHeading>
<haccuracy>-1.000000</haccuracy>
<vaccuracy>-1.000000</vaccuracy>
<internetconnect>-1</internetconnect>
</trkpt>
<trkpt lat="35.075169" lon="136.466115">
<ele>321.000000</ele>
<time>2026-03-27T01:37:20Z</time>
<speed>0.000000</speed>
<trueHeading>0.000000</trueHeading>
<magneticHeading>0.000000</magneticHeading>
<gpsHeading>0.000000</gpsHeading>
<haccuracy>-1.000000</haccuracy>
<vaccuracy>-1.000000</vaccuracy>
<internetconnect>-1</internetconnect>
</trkpt>
<trkpt lat="35.075191" lon="136.465997">
<ele>322.000000</ele>
<time>2026-03-27T01:37:37Z</time>
<speed>0.000000</speed>
<trueHeading>0.000000</trueHeading>
<magneticHeading>0.000000</magneticHeading>
<gpsHeading>0.000000</gpsHeading>
<haccuracy>-1.000000</haccuracy>
<vaccuracy>-1.000000</vaccuracy>
<internetconnect>-1</internetconnect>
</trkpt>
<trkpt lat="35.075228" lon="136.465888">
<ele>325.000000</ele>
<time>2026-03-27T01:37:53Z</time>
<speed>0.000000</speed>
<trueHeading>0.000000</trueHeading>
<magneticHeading>0.000000</magneticHeading>
<gpsHeading>0.000000</gpsHeading>
<haccuracy>-1.000000</haccuracy>
<vaccuracy>-1.000000</vaccuracy>
<internetconnect>-1</internetconnect>
</trkpt>
<trkpt lat="35.075288" lon="136.465779">
<ele>324.000000</ele>
<time>2026-03-27T01:38:11Z</time>
<speed>0.000000</speed>
<trueHeading>0.000000</trueHeading>
<magneticHeading>0.000000</magneticHeading>
<gpsHeading>0.000000</gpsHeading>
<haccuracy>-1.000000</haccuracy>
<vaccuracy>-1.000000</vaccuracy>
<internetconnect>-1</internetconnect>
</trkpt>
<trkpt lat="35.075354" lon="136.465688">
<ele>325.000000</ele>
<time>2026-03-27T01:38:28Z</time>
<speed>0.000000</speed>
<trueHeading>0.000000</trueHeading>
<magneticHeading>0.000000</magneticHeading>
<gpsHeading>0.000000</gpsHeading>
<haccuracy>-1.000000</haccuracy>
<vaccuracy>-1.000000</vaccuracy>
<internetconnect>-1</internetconnect>
</trkpt>
<trkpt lat="35.075429" lon="136.465598">
<ele>326.000000</ele>
<time>2026-03-27T01:38:46Z</time>
<speed>0.000000</speed>
<trueHeading>0.000000</trueHeading>
<magneticHeading>0.000000</magneticHeading>
<gpsHeading>0.000000</gpsHeading>
<haccuracy>-1.000000</haccuracy>
<vaccuracy>-1.000000</vaccuracy>
<internetconnect>-1</internetconnect>
</trkpt>
<trkpt lat="35.075474" lon="136.465498">
<ele>327.000000</ele>
<time>2026-03-27T01:39:02Z</time>
<speed>0.000000</speed>
<trueHeading>0.000000</trueHeading>
<magneticHeading>0.000000</magneticHeading>
<gpsHeading>0.000000</gpsHeading>
<haccuracy>-1.000000</haccuracy>
<vaccuracy>-1.000000</vaccuracy>
<internetconnect>-1</internetconnect>
</trkpt>
<trkpt lat="35.075511" lon="136.465389">
<ele>329.000000</ele>
<time>2026-03-27T01:39:18Z</time>
<speed>0.000000</speed>
<trueHeading>0.000000</trueHeading>
<magneticHeading>0.000000</magneticHeading>
<gpsHeading>0.000000</gpsHeading>
<haccuracy>-1.000000</haccuracy>
<vaccuracy>-1.000000</vaccuracy>
<internetconnect>-1</internetconnect>
</trkpt>
<trkpt lat="35.075525" lon="136.465244">
<ele>332.000000</ele>
<time>2026-03-27T01:39:38Z</time>
<speed>0.000000</speed>
<trueHeading>0.000000</trueHeading>
<magneticHeading>0.000000</magneticHeading>
<gpsHeading>0.000000</gpsHeading>
<haccuracy>-1.000000</haccuracy>
<vaccuracy>-1.000000</vaccuracy>
<internetconnect>-1</internetconnect>
</trkpt>
<trkpt lat="35.075533" lon="136.465116">
<ele>334.000000</ele>
<time>2026-03-27T01:39:56Z</time>
<speed>0.000000</speed>
<trueHeading>0.000000</trueHeading>
<magneticHeading>0.000000</magneticHeading>
<gpsHeading>0.000000</gpsHeading>
<haccuracy>-1.000000</haccuracy>
<vaccuracy>-1.000000</vaccuracy>
<internetconnect>-1</internetconnect>
</trkpt>
<trkpt lat="35.075533" lon="136.464989">
<ele>335.000000</ele>
<time>2026-03-27T01:40:13Z</time>
<speed>0.000000</speed>
<trueHeading>0.000000</trueHeading>
<magneticHeading>0.000000</magneticHeading>
<gpsHeading>0.000000</gpsHeading>
<haccuracy>-1.000000</haccuracy>
<vaccuracy>-1.000000</vaccuracy>
<internetconnect>-1</internetconnect>
</trkpt>
<trkpt lat="35.075407" lon="136.464817">
<ele>341.000000</ele>
<time>2026-03-27T01:40:45Z</time>
<speed>0.000000</speed>
<trueHeading>0.000000</trueHeading>
<magneticHeading>0.000000</magneticHeading>
<gpsHeading>0.000000</gpsHeading>
<haccuracy>-1.000000</haccuracy>
<vaccuracy>-1.000000</vaccuracy>
<internetconnect>-1</internetconnect>
</trkpt>
<trkpt lat="35.075458" lon="136.464908">
<ele>337.000000</ele>
<time>2026-03-27T01:41:00Z</time>
<speed>0.000000</speed>
<trueHeading>0.000000</trueHeading>
<magneticHeading>0.000000</magneticHeading>
<gpsHeading>0.000000</gpsHeading>
<haccuracy>-1.000000</haccuracy>
<vaccuracy>-1.000000</vaccuracy>
<internetconnect>-1</internetconnect>
</trkpt>
<trkpt lat="35.075548" lon="136.464953">
<ele>337.000000</ele>
<time>2026-03-27T01:41:16Z</time>
<speed>0.000000</speed>
<trueHeading>0.000000</trueHeading>
<magneticHeading>0.000000</magneticHeading>
<gpsHeading>0.000000</gpsHeading>
<haccuracy>-1.000000</haccuracy>
<vaccuracy>-1.000000</vaccuracy>
<internetconnect>-1</internetconnect>
</trkpt>
<trkpt lat="35.075555" lon="136.464835">
<ele>338.000000</ele>
<time>2026-03-27T01:41:33Z</time>
<speed>0.000000</speed>
<trueHeading>0.000000</trueHeading>
<magneticHeading>0.000000</magneticHeading>
<gpsHeading>0.000000</gpsHeading>
<haccuracy>-1.000000</haccuracy>
<vaccuracy>-1.000000</vaccuracy>
<internetconnect>-1</internetconnect>
</trkpt>
<trkpt lat="35.075562" lon="136.464717">
<ele>339.000000</ele>
<time>2026-03-27T01:41:49Z</time>
<speed>0.000000</speed>
<trueHeading>0.000000</trueHeading>
<magneticHeading>0.000000</magneticHeading>
<gpsHeading>0.000000</gpsHeading>
<haccuracy>-1.000000</haccuracy>
<vaccuracy>-1.000000</vaccuracy>
<internetconnect>-1</internetconnect>
</trkpt>
<trkpt lat="35.075600" lon="136.464608">
<ele>344.000000</ele>
<time>2026-03-27T01:42:05Z</time>
<speed>0.000000</speed>
<trueHeading>0.000000</trueHeading>
<magneticHeading>0.000000</magneticHeading>
<gpsHeading>0.000000</gpsHeading>
<haccuracy>-1.000000</haccuracy>
<vaccuracy>-1.000000</vaccuracy>
<internetconnect>-1</internetconnect>
</trkpt>
<trkpt lat="35.075637" lon="136.464499">
<ele>345.000000</ele>
<time>2026-03-27T01:42:22Z</time>
<speed>0.000000</speed>
<trueHeading>0.000000</trueHeading>
<magneticHeading>0.000000</magneticHeading>
<gpsHeading>0.000000</gpsHeading>
<haccuracy>-1.000000</haccuracy>
<vaccuracy>-1.000000</vaccuracy>
<internetconnect>-1</internetconnect>
</trkpt>
<trkpt lat="35.075659" lon="136.464381">
<ele>347.000000</ele>
<time>2026-03-27T01:42:38Z</time>
<speed>0.000000</speed>
<trueHeading>0.000000</trueHeading>
<magneticHeading>0.000000</magneticHeading>
<gpsHeading>0.000000</gpsHeading>
<haccuracy>-1.000000</haccuracy>
<vaccuracy>-1.000000</vaccuracy>
<internetconnect>-1</internetconnect>
</trkpt>
<trkpt lat="35.075666" lon="136.464254">
<ele>347.000000</ele>
<time>2026-03-27T01:42:56Z</time>
<speed>0.000000</speed>
<trueHeading>0.000000</trueHeading>
<magneticHeading>0.000000</magneticHeading>
<gpsHeading>0.000000</gpsHeading>
<haccuracy>-1.000000</haccuracy>
<vaccuracy>-1.000000</vaccuracy>
<internetconnect>-1</internetconnect>
</trkpt>
<trkpt lat="35.075666" lon="136.464127">
<ele>346.000000</ele>
<time>2026-03-27T01:43:13Z</time>
<speed>0.000000</speed>
<trueHeading>0.000000</trueHeading>
<magneticHeading>0.000000</magneticHeading>
<gpsHeading>0.000000</gpsHeading>
<haccuracy>-1.000000</haccuracy>
<vaccuracy>-1.000000</vaccuracy>
<internetconnect>-1</internetconnect>
</trkpt>
<trkpt lat="35.075666" lon="136.464000">
<ele>345.000000</ele>
<time>2026-03-27T01:43:31Z</time>
<speed>0.000000</speed>
<trueHeading>0.000000</trueHeading>
<magneticHeading>0.000000</magneticHeading>
<gpsHeading>0.000000</gpsHeading>
<haccuracy>-1.000000</haccuracy>
<vaccuracy>-1.000000</vaccuracy>
<internetconnect>-1</internetconnect>
</trkpt>
<trkpt lat="35.075622" lon="136.463900">
<ele>344.000000</ele>
<time>2026-03-27T01:43:47Z</time>
<speed>0.000000</speed>
<trueHeading>0.000000</trueHeading>
<magneticHeading>0.000000</magneticHeading>
<gpsHeading>0.000000</gpsHeading>
<haccuracy>-1.000000</haccuracy>
<vaccuracy>-1.000000</vaccuracy>
<internetconnect>-1</internetconnect>
</trkpt>
<trkpt lat="35.075570" lon="136.463791">
<ele>347.000000</ele>
<time>2026-03-27T01:44:04Z</time>
<speed>0.000000</speed>
<trueHeading>0.000000</trueHeading>
<magneticHeading>0.000000</magneticHeading>
<gpsHeading>0.000000</gpsHeading>
<haccuracy>-1.000000</haccuracy>
<vaccuracy>-1.000000</vaccuracy>
<internetconnect>-1</internetconnect>
</trkpt>
<trkpt lat="35.075525" lon="136.463682">
<ele>351.000000</ele>
<time>2026-03-27T01:44:21Z</time>
<speed>0.000000</speed>
<trueHeading>0.000000</trueHeading>
<magneticHeading>0.000000</magneticHeading>
<gpsHeading>0.000000</gpsHeading>
<haccuracy>-1.000000</haccuracy>
<vaccuracy>-1.000000</vaccuracy>
<internetconnect>-1</internetconnect>
</trkpt>
<trkpt lat="35.075496" lon="136.463573">
<ele>351.000000</ele>
<time>2026-03-27T01:44:37Z</time>
<speed>0.000000</speed>
<trueHeading>0.000000</trueHeading>
<magneticHeading>0.000000</magneticHeading>
<gpsHeading>0.000000</gpsHeading>
<haccuracy>-1.000000</haccuracy>
<vaccuracy>-1.000000</vaccuracy>
<internetconnect>-1</internetconnect>
</trkpt>
<trkpt lat="35.075466" lon="136.463455">
<ele>350.000000</ele>
<time>2026-03-27T01:44:54Z</time>
<speed>0.000000</speed>
<trueHeading>0.000000</trueHeading>
<magneticHeading>0.000000</magneticHeading>
<gpsHeading>0.000000</gpsHeading>
<haccuracy>-1.000000</haccuracy>
<vaccuracy>-1.000000</vaccuracy>
<internetconnect>-1</internetconnect>
</trkpt>
<trkpt lat="35.075444" lon="136.463346">
<ele>352.000000</ele>
<time>2026-03-27T01:45:09Z</time>
<speed>0.000000</speed>
<trueHeading>0.000000</trueHeading>
<magneticHeading>0.000000</magneticHeading>
<gpsHeading>0.000000</gpsHeading>
<haccuracy>-1.000000</haccuracy>
<vaccuracy>-1.000000</vaccuracy>
<internetconnect>-1</internetconnect>
</trkpt>
<trkpt lat="35.075407" lon="136.463228">
<ele>351.000000</ele>
<time>2026-03-27T01:45:27Z</time>
<speed>0.000000</speed>
<trueHeading>0.000000</trueHeading>
<magneticHeading>0.000000</magneticHeading>
<gpsHeading>0.000000</gpsHeading>
<haccuracy>-1.000000</haccuracy>
<vaccuracy>-1.000000</vaccuracy>
<internetconnect>-1</internetconnect>
</trkpt>
<trkpt lat="35.075362" lon="136.463110">
<ele>353.000000</ele>
<time>2026-03-27T01:45:44Z</time>
<speed>0.000000</speed>
<trueHeading>0.000000</trueHeading>
<magneticHeading>0.000000</magneticHeading>
<gpsHeading>0.000000</gpsHeading>
<haccuracy>-1.000000</haccuracy>
<vaccuracy>-1.000000</vaccuracy>
<internetconnect>-1</internetconnect>
</trkpt>
<trkpt lat="35.075317" lon="136.462983">
<ele>355.000000</ele>
<time>2026-03-27T01:46:04Z</time>
<speed>0.000000</speed>
<trueHeading>0.000000</trueHeading>
<magneticHeading>0.000000</magneticHeading>
<gpsHeading>0.000000</gpsHeading>
<haccuracy>-1.000000</haccuracy>
<vaccuracy>-1.000000</vaccuracy>
<internetconnect>-1</internetconnect>
</trkpt>
<trkpt lat="35.075280" lon="136.462874">
<ele>359.000000</ele>
<time>2026-03-27T01:46:20Z</time>
<speed>0.000000</speed>
<trueHeading>0.000000</trueHeading>
<magneticHeading>0.000000</magneticHeading>
<gpsHeading>0.000000</gpsHeading>
<haccuracy>-1.000000</haccuracy>
<vaccuracy>-1.000000</vaccuracy>
<internetconnect>-1</internetconnect>
</trkpt>
<trkpt lat="35.075265" lon="136.462756">
<ele>360.000000</ele>
<time>2026-03-27T01:46:36Z</time>
<speed>0.000000</speed>
<trueHeading>0.000000</trueHeading>
<magneticHeading>0.000000</magneticHeading>
<gpsHeading>0.000000</gpsHeading>
<haccuracy>-1.000000</haccuracy>
<vaccuracy>-1.000000</vaccuracy>
<internetconnect>-1</internetconnect>
</trkpt>
<trkpt lat="35.075258" lon="136.462629">
<ele>362.000000</ele>
<time>2026-03-27T01:46:54Z</time>
<speed>0.000000</speed>
<trueHeading>0.000000</trueHeading>
<magneticHeading>0.000000</magneticHeading>
<gpsHeading>0.000000</gpsHeading>
<haccuracy>-1.000000</haccuracy>
<vaccuracy>-1.000000</vaccuracy>
<internetconnect>-1</internetconnect>
</trkpt>
<trkpt lat="35.075250" lon="136.462493">
<ele>363.000000</ele>
<time>2026-03-27T01:47:13Z</time>
<speed>0.000000</speed>
<trueHeading>0.000000</trueHeading>
<magneticHeading>0.000000</magneticHeading>
<gpsHeading>0.000000</gpsHeading>
<haccuracy>-1.000000</haccuracy>
<vaccuracy>-1.000000</vaccuracy>
<internetconnect>-1</internetconnect>
</trkpt>
<trkpt lat="35.075243" lon="136.462366">
<ele>365.000000</ele>
<time>2026-03-27T01:47:30Z</time>
<speed>0.000000</speed>
<trueHeading>0.000000</trueHeading>
<magneticHeading>0.000000</magneticHeading>
<gpsHeading>0.000000</gpsHeading>
<haccuracy>-1.000000</haccuracy>
<vaccuracy>-1.000000</vaccuracy>
<internetconnect>-1</internetconnect>
</trkpt>
<trkpt lat="35.075243" lon="136.462202">
<ele>366.000000</ele>
<time>2026-03-27T01:47:53Z</time>
<speed>0.000000</speed>
<trueHeading>0.000000</trueHeading>
<magneticHeading>0.000000</magneticHeading>
<gpsHeading>0.000000</gpsHeading>
<haccuracy>-1.000000</haccuracy>
<vaccuracy>-1.000000</vaccuracy>
<internetconnect>-1</internetconnect>
</trkpt>
<trkpt lat="35.075243" lon="136.462057">
<ele>367.000000</ele>
<time>2026-03-27T01:48:13Z</time>
<speed>0.000000</speed>
<trueHeading>0.000000</trueHeading>
<magneticHeading>0.000000</magneticHeading>
<gpsHeading>0.000000</gpsHeading>
<haccuracy>-1.000000</haccuracy>
<vaccuracy>-1.000000</vaccuracy>
<internetconnect>-1</internetconnect>
</trkpt>
<trkpt lat="35.075243" lon="136.461939">
<ele>370.000000</ele>
<time>2026-03-27T01:48:29Z</time>
<speed>0.000000</speed>
<trueHeading>0.000000</trueHeading>
<magneticHeading>0.000000</magneticHeading>
<gpsHeading>0.000000</gpsHeading>
<haccuracy>-1.000000</haccuracy>
<vaccuracy>-1.000000</vaccuracy>
<internetconnect>-1</internetconnect>
</trkpt>
<trkpt lat="35.075243" lon="136.461821">
<ele>372.000000</ele>
<time>2026-03-27T01:48:45Z</time>
<speed>0.000000</speed>
<trueHeading>0.000000</trueHeading>
<magneticHeading>0.000000</magneticHeading>
<gpsHeading>0.000000</gpsHeading>
<haccuracy>-1.000000</haccuracy>
<vaccuracy>-1.000000</vaccuracy>
<internetconnect>-1</internetconnect>
</trkpt>
<trkpt lat="35.075243" lon="136.461703">
<ele>373.000000</ele>
<time>2026-03-27T01:49:02Z</time>
<speed>0.000000</speed>
<trueHeading>0.000000</trueHeading>
<magneticHeading>0.000000</magneticHeading>
<gpsHeading>0.000000</gpsHeading>
<haccuracy>-1.000000</haccuracy>
<vaccuracy>-1.000000</vaccuracy>
<internetconnect>-1</internetconnect>
</trkpt>
<trkpt lat="35.075243" lon="136.461585">
<ele>375.000000</ele>
<time>2026-03-27T01:49:18Z</time>
<speed>0.000000</speed>
<trueHeading>0.000000</trueHeading>
<magneticHeading>0.000000</magneticHeading>
<gpsHeading>0.000000</gpsHeading>
<haccuracy>-1.000000</haccuracy>
<vaccuracy>-1.000000</vaccuracy>
<internetconnect>-1</internetconnect>
</trkpt>
<trkpt lat="35.075243" lon="136.461458">
<ele>375.000000</ele>
<time>2026-03-27T01:49:35Z</time>
<speed>0.000000</speed>
<trueHeading>0.000000</trueHeading>
<magneticHeading>0.000000</magneticHeading>
<gpsHeading>0.000000</gpsHeading>
<haccuracy>-1.000000</haccuracy>
<vaccuracy>-1.000000</vaccuracy>
<internetconnect>-1</internetconnect>
</trkpt>
<trkpt lat="35.075250" lon="136.461331">
<ele>374.000000</ele>
<time>2026-03-27T01:49:53Z</time>
<speed>0.000000</speed>
<trueHeading>0.000000</trueHeading>
<magneticHeading>0.000000</magneticHeading>
<gpsHeading>0.000000</gpsHeading>
<haccuracy>-1.000000</haccuracy>
<vaccuracy>-1.000000</vaccuracy>
<internetconnect>-1</internetconnect>
</trkpt>
<trkpt lat="35.075302" lon="136.461240">
<ele>375.000000</ele>
<time>2026-03-27T01:50:08Z</time>
<speed>0.000000</speed>
<trueHeading>0.000000</trueHeading>
<magneticHeading>0.000000</magneticHeading>
<gpsHeading>0.000000</gpsHeading>
<haccuracy>-1.000000</haccuracy>
<vaccuracy>-1.000000</vaccuracy>
<internetconnect>-1</internetconnect>
</trkpt>
<trkpt lat="35.075392" lon="136.461194">
<ele>372.000000</ele>
<time>2026-03-27T01:50:24Z</time>
<speed>0.000000</speed>
<trueHeading>0.000000</trueHeading>
<magneticHeading>0.000000</magneticHeading>
<gpsHeading>0.000000</gpsHeading>
<haccuracy>-1.000000</haccuracy>
<vaccuracy>-1.000000</vaccuracy>
<internetconnect>-1</internetconnect>
</trkpt>
<trkpt lat="35.075481" lon="136.461149">
<ele>373.000000</ele>
<time>2026-03-27T01:50:41Z</time>
<speed>0.000000</speed>
<trueHeading>0.000000</trueHeading>
<magneticHeading>0.000000</magneticHeading>
<gpsHeading>0.000000</gpsHeading>
<haccuracy>-1.000000</haccuracy>
<vaccuracy>-1.000000</vaccuracy>
<internetconnect>-1</internetconnect>
</trkpt>
<trkpt lat="35.075548" lon="136.461067">
<ele>374.000000</ele>
<time>2026-03-27T01:50:57Z</time>
<speed>0.000000</speed>
<trueHeading>0.000000</trueHeading>
<magneticHeading>0.000000</magneticHeading>
<gpsHeading>0.000000</gpsHeading>
<haccuracy>-1.000000</haccuracy>
<vaccuracy>-1.000000</vaccuracy>
<internetconnect>-1</internetconnect>
</trkpt>
<trkpt lat="35.075607" lon="136.460958">
<ele>374.000000</ele>
<time>2026-03-27T01:51:15Z</time>
<speed>0.000000</speed>
<trueHeading>0.000000</trueHeading>
<magneticHeading>0.000000</magneticHeading>
<gpsHeading>0.000000</gpsHeading>
<haccuracy>-1.000000</haccuracy>
<vaccuracy>-1.000000</vaccuracy>
<internetconnect>-1</internetconnect>
</trkpt>
<trkpt lat="35.075674" lon="136.460877">
<ele>374.000000</ele>
<time>2026-03-27T01:51:30Z</time>
<speed>0.000000</speed>
<trueHeading>0.000000</trueHeading>
<magneticHeading>0.000000</magneticHeading>
<gpsHeading>0.000000</gpsHeading>
<haccuracy>-1.000000</haccuracy>
<vaccuracy>-1.000000</vaccuracy>
<internetconnect>-1</internetconnect>
</trkpt>
<trkpt lat="35.075711" lon="136.460768">
<ele>375.000000</ele>
<time>2026-03-27T01:51:47Z</time>
<speed>0.000000</speed>
<trueHeading>0.000000</trueHeading>
<magneticHeading>0.000000</magneticHeading>
<gpsHeading>0.000000</gpsHeading>
<haccuracy>-1.000000</haccuracy>
<vaccuracy>-1.000000</vaccuracy>
<internetconnect>-1</internetconnect>
</trkpt>
<trkpt lat="35.075726" lon="136.460695">
<ele>377.000000</ele>
<time>2026-03-27T01:51:57Z</time>
<speed>0.000000</speed>
<trueHeading>0.000000</trueHeading>
<magneticHeading>0.000000</magneticHeading>
<gpsHeading>0.000000</gpsHeading>
<haccuracy>-1.000000</haccuracy>
<vaccuracy>-1.000000</vaccuracy>
<internetconnect>-1</internetconnect>
</trkpt>
<trkpt lat="35.075716" lon="136.460683">
<ele>377.000000</ele>
<time>2026-03-27T01:52:00Z</time>
<speed>0.000000</speed>
<trueHeading>0.000000</trueHeading>
<magneticHeading>0.000000</magneticHeading>
<gpsHeading>0.000000</gpsHeading>
<haccuracy>-1.000000</haccuracy>
<vaccuracy>-1.000000</vaccuracy>
<internetconnect>-1</internetconnect>
</trkpt>
<trkpt lat="35.075751" lon="136.460613">
<ele>376.000000</ele>
<time>2026-03-27T01:52:00Z</time>
<speed>0.000000</speed>
<trueHeading>0.000000</trueHeading>
<magneticHeading>0.000000</magneticHeading>
<gpsHeading>0.000000</gpsHeading>
<haccuracy>-1.000000</haccuracy>
<vaccuracy>-1.000000</vaccuracy>
<internetconnect>-1</internetconnect>
</trkpt>
<trkpt lat="35.075839" lon="136.460500">
<ele>377.000000</ele>
<time>2026-03-27T01:52:20Z</time>
<speed>0.000000</speed>
<trueHeading>0.000000</trueHeading>
<magneticHeading>0.000000</magneticHeading>
<gpsHeading>0.000000</gpsHeading>
<haccuracy>-1.000000</haccuracy>
<vaccuracy>-1.000000</vaccuracy>
<internetconnect>-1</internetconnect>
</trkpt>
<trkpt lat="35.075939" lon="136.460382">
<ele>378.000000</ele>
<time>2026-03-27T01:52:42Z</time>
<speed>0.000000</speed>
<trueHeading>0.000000</trueHeading>
<magneticHeading>0.000000</magneticHeading>
<gpsHeading>0.000000</gpsHeading>
<haccuracy>-1.000000</haccuracy>
<vaccuracy>-1.000000</vaccuracy>
<internetconnect>-1</internetconnect>
</trkpt>
<trkpt lat="35.076128" lon="136.460200">
<ele>381.000000</ele>
<time>2026-03-27T01:53:20Z</time>
<speed>0.000000</speed>
<trueHeading>0.000000</trueHeading>
<magneticHeading>0.000000</magneticHeading>
<gpsHeading>0.000000</gpsHeading>
<haccuracy>-1.000000</haccuracy>
<vaccuracy>-1.000000</vaccuracy>
<internetconnect>-1</internetconnect>
</trkpt>
<trkpt lat="35.076260" lon="136.460082">
<ele>382.000000</ele>
<time>2026-03-27T01:53:47Z</time>
<speed>0.000000</speed>
<trueHeading>0.000000</trueHeading>
<magneticHeading>0.000000</magneticHeading>
<gpsHeading>0.000000</gpsHeading>
<haccuracy>-1.000000</haccuracy>
<vaccuracy>-1.000000</vaccuracy>
<internetconnect>-1</internetconnect>
</trkpt>
<trkpt lat="35.076339" lon="136.460018">
<ele>384.000000</ele>
<time>2026-03-27T01:54:02Z</time>
<speed>0.000000</speed>
<trueHeading>0.000000</trueHeading>
<magneticHeading>0.000000</magneticHeading>
<gpsHeading>0.000000</gpsHeading>
<haccuracy>-1.000000</haccuracy>
<vaccuracy>-1.000000</vaccuracy>
<internetconnect>-1</internetconnect>
</trkpt>
<trkpt lat="35.076409" lon="136.459980">
<ele>384.000000</ele>
<time>2026-03-27T01:54:14Z</time>
<speed>0.000000</speed>
<trueHeading>0.000000</trueHeading>
<magneticHeading>0.000000</magneticHeading>
<gpsHeading>0.000000</gpsHeading>
<haccuracy>-1.000000</haccuracy>
<vaccuracy>-1.000000</vaccuracy>
<internetconnect>-1</internetconnect>
</trkpt>
<trkpt lat="35.076528" lon="136.459942">
<ele>385.000000</ele>
<time>2026-03-27T01:54:33Z</time>
<speed>0.000000</speed>
<trueHeading>0.000000</trueHeading>
<magneticHeading>0.000000</magneticHeading>
<gpsHeading>0.000000</gpsHeading>
<haccuracy>-1.000000</haccuracy>
<vaccuracy>-1.000000</vaccuracy>
<internetconnect>-1</internetconnect>
</trkpt>
<trkpt lat="35.076638" lon="136.459900">
<ele>387.000000</ele>
<time>2026-03-27T01:54:52Z</time>
<speed>0.000000</speed>
<trueHeading>0.000000</trueHeading>
<magneticHeading>0.000000</magneticHeading>
<gpsHeading>0.000000</gpsHeading>
<haccuracy>-1.000000</haccuracy>
<vaccuracy>-1.000000</vaccuracy>
<internetconnect>-1</internetconnect>
</trkpt>
<trkpt lat="35.076684" lon="136.459880">
<ele>387.000000</ele>
<time>2026-03-27T01:55:00Z</time>
<speed>0.000000</speed>
<trueHeading>0.000000</trueHeading>
<magneticHeading>0.000000</magneticHeading>
<gpsHeading>0.000000</gpsHeading>
<haccuracy>-1.000000</haccuracy>
<vaccuracy>-1.000000</vaccuracy>
<internetconnect>-1</internetconnect>
</trkpt>
<trkpt lat="35.076861" lon="136.459803">
<ele>390.000000</ele>
<time>2026-03-27T01:55:00Z</time>
<speed>0.000000</speed>
<trueHeading>0.000000</trueHeading>
<magneticHeading>0.000000</magneticHeading>
<gpsHeading>0.000000</gpsHeading>
<haccuracy>-1.000000</haccuracy>
<vaccuracy>-1.000000</vaccuracy>
<internetconnect>-1</internetconnect>
</trkpt>
<trkpt lat="35.077107" lon="136.459701">
<ele>393.000000</ele>
<time>2026-03-27T01:57:03Z</time>
<speed>0.000000</speed>
<trueHeading>0.000000</trueHeading>
<magneticHeading>0.000000</magneticHeading>
<gpsHeading>0.000000</gpsHeading>
<haccuracy>-1.000000</haccuracy>
<vaccuracy>-1.000000</vaccuracy>
<internetconnect>-1</internetconnect>
</trkpt>
<trkpt lat="35.077344" lon="136.459621">
<ele>395.000000</ele>
<time>2026-03-27T01:59:00Z</time>
<speed>0.000000</speed>
<trueHeading>0.000000</trueHeading>
<magneticHeading>0.000000</magneticHeading>
<gpsHeading>0.000000</gpsHeading>
<haccuracy>-1.000000</haccuracy>
<vaccuracy>-1.000000</vaccuracy>
<internetconnect>-1</internetconnect>
</trkpt>
<trkpt lat="35.077529" lon="136.459567">
<ele>396.000000</ele>
<time>2026-03-27T02:00:30Z</time>
<speed>0.000000</speed>
<trueHeading>0.000000</trueHeading>
<magneticHeading>0.000000</magneticHeading>
<gpsHeading>0.000000</gpsHeading>
<haccuracy>-1.000000</haccuracy>
<vaccuracy>-1.000000</vaccuracy>
<internetconnect>-1</internetconnect>
</trkpt>
<trkpt lat="35.077770" lon="136.459508">
<ele>395.000000</ele>
<time>2026-03-27T02:02:27Z</time>
<speed>0.000000</speed>
<trueHeading>0.000000</trueHeading>
<magneticHeading>0.000000</magneticHeading>
<gpsHeading>0.000000</gpsHeading>
<haccuracy>-1.000000</haccuracy>
<vaccuracy>-1.000000</vaccuracy>
<internetconnect>-1</internetconnect>
</trkpt>
<trkpt lat="35.077928" lon="136.459454">
<ele>398.000000</ele>
<time>2026-03-27T02:03:46Z</time>
<speed>0.000000</speed>
<trueHeading>0.000000</trueHeading>
<magneticHeading>0.000000</magneticHeading>
<gpsHeading>0.000000</gpsHeading>
<haccuracy>-1.000000</haccuracy>
<vaccuracy>-1.000000</vaccuracy>
<internetconnect>-1</internetconnect>
</trkpt>
<trkpt lat="35.077990" lon="136.459411">
<ele>399.000000</ele>
<time>2026-03-27T02:04:19Z</time>
<speed>0.000000</speed>
<trueHeading>0.000000</trueHeading>
<magneticHeading>0.000000</magneticHeading>
<gpsHeading>0.000000</gpsHeading>
<haccuracy>-1.000000</haccuracy>
<vaccuracy>-1.000000</vaccuracy>
<internetconnect>-1</internetconnect>
</trkpt>
<trkpt lat="35.078020" lon="136.459363">
<ele>400.000000</ele>
<time>2026-03-27T02:04:43Z</time>
<speed>0.000000</speed>
<trueHeading>0.000000</trueHeading>
<magneticHeading>0.000000</magneticHeading>
<gpsHeading>0.000000</gpsHeading>
<haccuracy>-1.000000</haccuracy>
<vaccuracy>-1.000000</vaccuracy>
<internetconnect>-1</internetconnect>
</trkpt>
<trkpt lat="35.078029" lon="136.459309">
<ele>400.000000</ele>
<time>2026-03-27T02:05:05Z</time>
<speed>0.000000</speed>
<trueHeading>0.000000</trueHeading>
<magneticHeading>0.000000</magneticHeading>
<gpsHeading>0.000000</gpsHeading>
<haccuracy>-1.000000</haccuracy>
<vaccuracy>-1.000000</vaccuracy>
<internetconnect>-1</internetconnect>
</trkpt>
<trkpt lat="35.078016" lon="136.459224">
<ele>401.000000</ele>
<time>2026-03-27T02:05:39Z</time>
<speed>0.000000</speed>
<trueHeading>0.000000</trueHeading>
<magneticHeading>0.000000</magneticHeading>
<gpsHeading>0.000000</gpsHeading>
<haccuracy>-1.000000</haccuracy>
<vaccuracy>-1.000000</vaccuracy>
<internetconnect>-1</internetconnect>
</trkpt>
<trkpt lat="35.077858" lon="136.458752">
<ele>406.000000</ele>
<time>2026-03-27T02:08:58Z</time>
<speed>0.000000</speed>
<trueHeading>0.000000</trueHeading>
<magneticHeading>0.000000</magneticHeading>
<gpsHeading>0.000000</gpsHeading>
<haccuracy>-1.000000</haccuracy>
<vaccuracy>-1.000000</vaccuracy>
<internetconnect>-1</internetconnect>
</trkpt>
<trkpt lat="35.077858" lon="136.458752">
<ele>406.000000</ele>
<time>2026-03-27T02:08:58Z</time>
<speed>0.000000</speed>
<trueHeading>0.000000</trueHeading>
<magneticHeading>0.000000</magneticHeading>
<gpsHeading>0.000000</gpsHeading>
<haccuracy>-1.000000</haccuracy>
<vaccuracy>-1.000000</vaccuracy>
<internetconnect>-1</internetconnect>
</trkpt>
<trkpt lat="35.077880" lon="136.458730">
<ele>407.000000</ele>
<time>2026-03-27T02:09:11Z</time>
<speed>0.000000</speed>
<trueHeading>0.000000</trueHeading>
<magneticHeading>0.000000</magneticHeading>
<gpsHeading>0.000000</gpsHeading>
<haccuracy>-1.000000</haccuracy>
<vaccuracy>-1.000000</vaccuracy>
<internetconnect>-1</internetconnect>
</trkpt>
<trkpt lat="35.077919" lon="136.458719">
<ele>407.000000</ele>
<time>2026-03-27T02:09:31Z</time>
<speed>0.000000</speed>
<trueHeading>0.000000</trueHeading>
<magneticHeading>0.000000</magneticHeading>
<gpsHeading>0.000000</gpsHeading>
<haccuracy>-1.000000</haccuracy>
<vaccuracy>-1.000000</vaccuracy>
<internetconnect>-1</internetconnect>
</trkpt>
<trkpt lat="35.078034" lon="136.458703">
<ele>407.000000</ele>
<time>2026-03-27T02:10:25Z</time>
<speed>0.000000</speed>
<trueHeading>0.000000</trueHeading>
<magneticHeading>0.000000</magneticHeading>
<gpsHeading>0.000000</gpsHeading>
<haccuracy>-1.000000</haccuracy>
<vaccuracy>-1.000000</vaccuracy>
<internetconnect>-1</internetconnect>
</trkpt>
<trkpt lat="35.078306" lon="136.458693">
<ele>408.000000</ele>
<time>2026-03-27T02:12:35Z</time>
<speed>0.000000</speed>
<trueHeading>0.000000</trueHeading>
<magneticHeading>0.000000</magneticHeading>
<gpsHeading>0.000000</gpsHeading>
<haccuracy>-1.000000</haccuracy>
<vaccuracy>-1.000000</vaccuracy>
<internetconnect>-1</internetconnect>
</trkpt>
<trkpt lat="35.078578" lon="136.458698">
<ele>409.000000</ele>
<time>2026-03-27T02:14:44Z</time>
<speed>0.000000</speed>
<trueHeading>0.000000</trueHeading>
<magneticHeading>0.000000</magneticHeading>
<gpsHeading>0.000000</gpsHeading>
<haccuracy>-1.000000</haccuracy>
<vaccuracy>-1.000000</vaccuracy>
<internetconnect>-1</internetconnect>
</trkpt>
<trkpt lat="35.078683" lon="136.458698">
<ele>409.000000</ele>
<time>2026-03-27T02:15:34Z</time>
<speed>0.000000</speed>
<trueHeading>0.000000</trueHeading>
<magneticHeading>0.000000</magneticHeading>
<gpsHeading>0.000000</gpsHeading>
<haccuracy>-1.000000</haccuracy>
<vaccuracy>-1.000000</vaccuracy>
<internetconnect>-1</internetconnect>
</trkpt>
<trkpt lat="35.078811" lon="136.458671">
<ele>410.000000</ele>
<time>2026-03-27T02:16:36Z</time>
<speed>0.000000</speed>
<trueHeading>0.000000</trueHeading>
<magneticHeading>0.000000</magneticHeading>
<gpsHeading>0.000000</gpsHeading>
<haccuracy>-1.000000</haccuracy>
<vaccuracy>-1.000000</vaccuracy>
<internetconnect>-1</internetconnect>
</trkpt>
<trkpt lat="35.078969" lon="136.458617">
<ele>412.000000</ele>
<time>2026-03-27T02:17:54Z</time>
<speed>0.000000</speed>
<trueHeading>0.000000</trueHeading>
<magneticHeading>0.000000</magneticHeading>
<gpsHeading>0.000000</gpsHeading>
<haccuracy>-1.000000</haccuracy>
<vaccuracy>-1.000000</vaccuracy>
<internetconnect>-1</internetconnect>
</trkpt>
<trkpt lat="35.079070" lon="136.458553">
<ele>413.000000</ele>
<time>2026-03-27T02:18:48Z</time>
<speed>0.000000</speed>
<trueHeading>0.000000</trueHeading>
<magneticHeading>0.000000</magneticHeading>
<gpsHeading>0.000000</gpsHeading>
<haccuracy>-1.000000</haccuracy>
<vaccuracy>-1.000000</vaccuracy>
<internetconnect>-1</internetconnect>
</trkpt>
<trkpt lat="35.079184" lon="136.458446">
<ele>414.000000</ele>
<time>2026-03-27T02:19:57Z</time>
<speed>0.000000</speed>
<trueHeading>0.000000</trueHeading>
<magneticHeading>0.000000</magneticHeading>
<gpsHeading>0.000000</gpsHeading>
<haccuracy>-1.000000</haccuracy>
<vaccuracy>-1.000000</vaccuracy>
<internetconnect>-1</internetconnect>
</trkpt>
<trkpt lat="35.079289" lon="136.458322">
<ele>417.000000</ele>
<time>2026-03-27T02:21:06Z</time>
<speed>0.000000</speed>
<trueHeading>0.000000</trueHeading>
<magneticHeading>0.000000</magneticHeading>
<gpsHeading>0.000000</gpsHeading>
<haccuracy>-1.000000</haccuracy>
<vaccuracy>-1.000000</vaccuracy>
<internetconnect>-1</internetconnect>
</trkpt>
<trkpt lat="35.079386" lon="136.458145">
<ele>420.000000</ele>
<time>2026-03-27T02:22:30Z</time>
<speed>0.000000</speed>
<trueHeading>0.000000</trueHeading>
<magneticHeading>0.000000</magneticHeading>
<gpsHeading>0.000000</gpsHeading>
<haccuracy>-1.000000</haccuracy>
<vaccuracy>-1.000000</vaccuracy>
<internetconnect>-1</internetconnect>
</trkpt>
<trkpt lat="35.079425" lon="136.458049">
<ele>421.000000</ele>
<time>2026-03-27T02:23:12Z</time>
<speed>0.000000</speed>
<trueHeading>0.000000</trueHeading>
<magneticHeading>0.000000</magneticHeading>
<gpsHeading>0.000000</gpsHeading>
<haccuracy>-1.000000</haccuracy>
<vaccuracy>-1.000000</vaccuracy>
<internetconnect>-1</internetconnect>
</trkpt>
<trkpt lat="35.079438" lon="136.457947">
<ele>423.000000</ele>
<time>2026-03-27T02:23:52Z</time>
<speed>0.000000</speed>
<trueHeading>0.000000</trueHeading>
<magneticHeading>0.000000</magneticHeading>
<gpsHeading>0.000000</gpsHeading>
<haccuracy>-1.000000</haccuracy>
<vaccuracy>-1.000000</vaccuracy>
<internetconnect>-1</internetconnect>
</trkpt>
<trkpt lat="35.079425" lon="136.457813">
<ele>424.000000</ele>
<time>2026-03-27T02:24:45Z</time>
<speed>0.000000</speed>
<trueHeading>0.000000</trueHeading>
<magneticHeading>0.000000</magneticHeading>
<gpsHeading>0.000000</gpsHeading>
<haccuracy>-1.000000</haccuracy>
<vaccuracy>-1.000000</vaccuracy>
<internetconnect>-1</internetconnect>
</trkpt>
<trkpt lat="35.079430" lon="136.457743">
<ele>425.000000</ele>
<time>2026-03-27T02:25:12Z</time>
<speed>0.000000</speed>
<trueHeading>0.000000</trueHeading>
<magneticHeading>0.000000</magneticHeading>
<gpsHeading>0.000000</gpsHeading>
<haccuracy>-1.000000</haccuracy>
<vaccuracy>-1.000000</vaccuracy>
<internetconnect>-1</internetconnect>
</trkpt>
<trkpt lat="35.079443" lon="136.457700">
<ele>426.000000</ele>
<time>2026-03-27T02:25:30Z</time>
<speed>0.000000</speed>
<trueHeading>0.000000</trueHeading>
<magneticHeading>0.000000</magneticHeading>
<gpsHeading>0.000000</gpsHeading>
<haccuracy>-1.000000</haccuracy>
<vaccuracy>-1.000000</vaccuracy>
<internetconnect>-1</internetconnect>
</trkpt>
<trkpt lat="35.079465" lon="136.457657">
<ele>427.000000</ele>
<time>2026-03-27T02:25:50Z</time>
<speed>0.000000</speed>
<trueHeading>0.000000</trueHeading>
<magneticHeading>0.000000</magneticHeading>
<gpsHeading>0.000000</gpsHeading>
<haccuracy>-1.000000</haccuracy>
<vaccuracy>-1.000000</vaccuracy>
<internetconnect>-1</internetconnect>
</trkpt>
<trkpt lat="35.079561" lon="136.457566">
<ele>428.000000</ele>
<time>2026-03-27T02:26:48Z</time>
<speed>0.000000</speed>
<trueHeading>0.000000</trueHeading>
<magneticHeading>0.000000</magneticHeading>
<gpsHeading>0.000000</gpsHeading>
<haccuracy>-1.000000</haccuracy>
<vaccuracy>-1.000000</vaccuracy>
<internetconnect>-1</internetconnect>
</trkpt>
<trkpt lat="35.079662" lon="136.457475">
<ele>430.000000</ele>
<time>2026-03-27T02:27:48Z</time>
<speed>0.000000</speed>
<trueHeading>0.000000</trueHeading>
<magneticHeading>0.000000</magneticHeading>
<gpsHeading>0.000000</gpsHeading>
<haccuracy>-1.000000</haccuracy>
<vaccuracy>-1.000000</vaccuracy>
<internetconnect>-1</internetconnect>
</trkpt>
<trkpt lat="35.079724" lon="136.457405">
<ele>432.000000</ele>
<time>2026-03-27T02:28:28Z</time>
<speed>0.000000</speed>
<trueHeading>0.000000</trueHeading>
<magneticHeading>0.000000</magneticHeading>
<gpsHeading>0.000000</gpsHeading>
<haccuracy>-1.000000</haccuracy>
<vaccuracy>-1.000000</vaccuracy>
<internetconnect>-1</internetconnect>
</trkpt>
<trkpt lat="35.079842" lon="136.457207">
<ele>435.000000</ele>
<time>2026-03-27T02:30:04Z</time>
<speed>0.000000</speed>
<trueHeading>0.000000</trueHeading>
<magneticHeading>0.000000</magneticHeading>
<gpsHeading>0.000000</gpsHeading>
<haccuracy>-1.000000</haccuracy>
<vaccuracy>-1.000000</vaccuracy>
<internetconnect>-1</internetconnect>
</trkpt>
<trkpt lat="35.079842" lon="136.457207">
<ele>435.000000</ele>
<time>2026-03-27T02:30:04Z</time>
<speed>0.000000</speed>
<trueHeading>0.000000</trueHeading>
<magneticHeading>0.000000</magneticHeading>
<gpsHeading>0.000000</gpsHeading>
<haccuracy>-1.000000</haccuracy>
<vaccuracy>-1.000000</vaccuracy>
<internetconnect>-1</internetconnect>
</trkpt>
<trkpt lat="35.079921" lon="136.457185">
<ele>439.000000</ele>
<time>2026-03-27T02:30:42Z</time>
<speed>0.000000</speed>
<trueHeading>0.000000</trueHeading>
<magneticHeading>0.000000</magneticHeading>
<gpsHeading>0.000000</gpsHeading>
<haccuracy>-1.000000</haccuracy>
<vaccuracy>-1.000000</vaccuracy>
<internetconnect>-1</internetconnect>
</trkpt>
<trkpt lat="35.080005" lon="136.457153">
<ele>441.000000</ele>
<time>2026-03-27T02:31:24Z</time>
<speed>0.000000</speed>
<trueHeading>0.000000</trueHeading>
<magneticHeading>0.000000</magneticHeading>
<gpsHeading>0.000000</gpsHeading>
<haccuracy>-1.000000</haccuracy>
<vaccuracy>-1.000000</vaccuracy>
<internetconnect>-1</internetconnect>
</trkpt>
<trkpt lat="35.080097" lon="136.457094">
<ele>450.000000</ele>
<time>2026-03-27T02:32:13Z</time>
<speed>0.000000</speed>
<trueHeading>0.000000</trueHeading>
<magneticHeading>0.000000</magneticHeading>
<gpsHeading>0.000000</gpsHeading>
<haccuracy>-1.000000</haccuracy>
<vaccuracy>-1.000000</vaccuracy>
<internetconnect>-1</internetconnect>
</trkpt>
<trkpt lat="35.080185" lon="136.456997">
<ele>454.000000</ele>
<time>2026-03-27T02:33:10Z</time>
<speed>0.000000</speed>
<trueHeading>0.000000</trueHeading>
<magneticHeading>0.000000</magneticHeading>
<gpsHeading>0.000000</gpsHeading>
<haccuracy>-1.000000</haccuracy>
<vaccuracy>-1.000000</vaccuracy>
<internetconnect>-1</internetconnect>
</trkpt>
<trkpt lat="35.080290" lon="136.456847">
<ele>461.000000</ele>
<time>2026-03-27T02:34:27Z</time>
<speed>0.000000</speed>
<trueHeading>0.000000</trueHeading>
<magneticHeading>0.000000</magneticHeading>
<gpsHeading>0.000000</gpsHeading>
<haccuracy>-1.000000</haccuracy>
<vaccuracy>-1.000000</vaccuracy>
<internetconnect>-1</internetconnect>
</trkpt>
<trkpt lat="35.080422" lon="136.456692">
<ele>469.000000</ele>
<time>2026-03-27T02:35:54Z</time>
<speed>0.000000</speed>
<trueHeading>0.000000</trueHeading>
<magneticHeading>0.000000</magneticHeading>
<gpsHeading>0.000000</gpsHeading>
<haccuracy>-1.000000</haccuracy>
<vaccuracy>-1.000000</vaccuracy>
<internetconnect>-1</internetconnect>
</trkpt>
<trkpt lat="35.080523" lon="136.456600">
<ele>471.000000</ele>
<time>2026-03-27T02:36:54Z</time>
<speed>0.000000</speed>
<trueHeading>0.000000</trueHeading>
<magneticHeading>0.000000</magneticHeading>
<gpsHeading>0.000000</gpsHeading>
<haccuracy>-1.000000</haccuracy>
<vaccuracy>-1.000000</vaccuracy>
<internetconnect>-1</internetconnect>
</trkpt>
<trkpt lat="35.080641" lon="136.456520">
<ele>474.000000</ele>
<time>2026-03-27T02:37:59Z</time>
<speed>0.000000</speed>
<trueHeading>0.000000</trueHeading>
<magneticHeading>0.000000</magneticHeading>
<gpsHeading>0.000000</gpsHeading>
<haccuracy>-1.000000</haccuracy>
<vaccuracy>-1.000000</vaccuracy>
<internetconnect>-1</internetconnect>
</trkpt>
<trkpt lat="35.080711" lon="136.456482">
<ele>479.000000</ele>
<time>2026-03-27T02:38:35Z</time>
<speed>0.000000</speed>
<trueHeading>0.000000</trueHeading>
<magneticHeading>0.000000</magneticHeading>
<gpsHeading>0.000000</gpsHeading>
<haccuracy>-1.000000</haccuracy>
<vaccuracy>-1.000000</vaccuracy>
<internetconnect>-1</internetconnect>
</trkpt>
<trkpt lat="35.080777" lon="136.456472">
<ele>482.000000</ele>
<time>2026-03-27T02:39:07Z</time>
<speed>0.000000</speed>
<trueHeading>0.000000</trueHeading>
<magneticHeading>0.000000</magneticHeading>
<gpsHeading>0.000000</gpsHeading>
<haccuracy>-1.000000</haccuracy>
<vaccuracy>-1.000000</vaccuracy>
<internetconnect>-1</internetconnect>
</trkpt>
<trkpt lat="35.080821" lon="136.456488">
<ele>483.000000</ele>
<time>2026-03-27T02:39:29Z</time>
<speed>0.000000</speed>
<trueHeading>0.000000</trueHeading>
<magneticHeading>0.000000</magneticHeading>
<gpsHeading>0.000000</gpsHeading>
<haccuracy>-1.000000</haccuracy>
<vaccuracy>-1.000000</vaccuracy>
<internetconnect>-1</internetconnect>
</trkpt>
<trkpt lat="35.080839" lon="136.456509">
<ele>487.000000</ele>
<time>2026-03-27T02:39:40Z</time>
<speed>0.000000</speed>
<trueHeading>0.000000</trueHeading>
<magneticHeading>0.000000</magneticHeading>
<gpsHeading>0.000000</gpsHeading>
<haccuracy>-1.000000</haccuracy>
<vaccuracy>-1.000000</vaccuracy>
<internetconnect>-1</internetconnect>
</trkpt>
<trkpt lat="35.080861" lon="136.456633">
<ele>492.000000</ele>
<time>2026-03-27T02:40:30Z</time>
<speed>0.000000</speed>
<trueHeading>0.000000</trueHeading>
<magneticHeading>0.000000</magneticHeading>
<gpsHeading>0.000000</gpsHeading>
<haccuracy>-1.000000</haccuracy>
<vaccuracy>-1.000000</vaccuracy>
<internetconnect>-1</internetconnect>
</trkpt>
<trkpt lat="35.080896" lon="136.456697">
<ele>496.000000</ele>
<time>2026-03-27T02:41:00Z</time>
<speed>0.000000</speed>
<trueHeading>0.000000</trueHeading>
<magneticHeading>0.000000</magneticHeading>
<gpsHeading>0.000000</gpsHeading>
<haccuracy>-1.000000</haccuracy>
<vaccuracy>-1.000000</vaccuracy>
<internetconnect>-1</internetconnect>
</trkpt>
<trkpt lat="35.080927" lon="136.456724">
<ele>498.000000</ele>
<time>2026-03-27T02:41:18Z</time>
<speed>0.000000</speed>
<trueHeading>0.000000</trueHeading>
<magneticHeading>0.000000</magneticHeading>
<gpsHeading>0.000000</gpsHeading>
<haccuracy>-1.000000</haccuracy>
<vaccuracy>-1.000000</vaccuracy>
<internetconnect>-1</internetconnect>
</trkpt>
<trkpt lat="35.080997" lon="136.456745">
<ele>500.000000</ele>
<time>2026-03-27T02:41:52Z</time>
<speed>0.000000</speed>
<trueHeading>0.000000</trueHeading>
<magneticHeading>0.000000</magneticHeading>
<gpsHeading>0.000000</gpsHeading>
<haccuracy>-1.000000</haccuracy>
<vaccuracy>-1.000000</vaccuracy>
<internetconnect>-1</internetconnect>
</trkpt>
<trkpt lat="35.081076" lon="136.456740">
<ele>502.000000</ele>
<time>2026-03-27T02:42:30Z</time>
<speed>0.000000</speed>
<trueHeading>0.000000</trueHeading>
<magneticHeading>0.000000</magneticHeading>
<gpsHeading>0.000000</gpsHeading>
<haccuracy>-1.000000</haccuracy>
<vaccuracy>-1.000000</vaccuracy>
<internetconnect>-1</internetconnect>
</trkpt>
<trkpt lat="35.081168" lon="136.456708">
<ele>505.000000</ele>
<time>2026-03-27T02:43:16Z</time>
<speed>0.000000</speed>
<trueHeading>0.000000</trueHeading>
<magneticHeading>0.000000</magneticHeading>
<gpsHeading>0.000000</gpsHeading>
<haccuracy>-1.000000</haccuracy>
<vaccuracy>-1.000000</vaccuracy>
<internetconnect>-1</internetconnect>
</trkpt>
<trkpt lat="35.081265" lon="136.456649">
<ele>508.000000</ele>
<time>2026-03-27T02:44:07Z</time>
<speed>0.000000</speed>
<trueHeading>0.000000</trueHeading>
<magneticHeading>0.000000</magneticHeading>
<gpsHeading>0.000000</gpsHeading>
<haccuracy>-1.000000</haccuracy>
<vaccuracy>-1.000000</vaccuracy>
<internetconnect>-1</internetconnect>
</trkpt>
<trkpt lat="35.081357" lon="136.456568">
<ele>513.000000</ele>
<time>2026-03-27T02:45:01Z</time>
<speed>0.000000</speed>
<trueHeading>0.000000</trueHeading>
<magneticHeading>0.000000</magneticHeading>
<gpsHeading>0.000000</gpsHeading>
<haccuracy>-1.000000</haccuracy>
<vaccuracy>-1.000000</vaccuracy>
<internetconnect>-1</internetconnect>
</trkpt>
<trkpt lat="35.081453" lon="136.456466">
<ele>513.000000</ele>
<time>2026-03-27T02:46:02Z</time>
<speed>0.000000</speed>
<trueHeading>0.000000</trueHeading>
<magneticHeading>0.000000</magneticHeading>
<gpsHeading>0.000000</gpsHeading>
<haccuracy>-1.000000</haccuracy>
<vaccuracy>-1.000000</vaccuracy>
<internetconnect>-1</internetconnect>
</trkpt>
<trkpt lat="35.081559" lon="136.456321">
<ele>512.000000</ele>
<time>2026-03-27T02:47:18Z</time>
<speed>0.000000</speed>
<trueHeading>0.000000</trueHeading>
<magneticHeading>0.000000</magneticHeading>
<gpsHeading>0.000000</gpsHeading>
<haccuracy>-1.000000</haccuracy>
<vaccuracy>-1.000000</vaccuracy>
<internetconnect>-1</internetconnect>
</trkpt>
<trkpt lat="35.081651" lon="136.456166">
<ele>518.000000</ele>
<time>2026-03-27T02:48:33Z</time>
<speed>0.000000</speed>
<trueHeading>0.000000</trueHeading>
<magneticHeading>0.000000</magneticHeading>
<gpsHeading>0.000000</gpsHeading>
<haccuracy>-1.000000</haccuracy>
<vaccuracy>-1.000000</vaccuracy>
<internetconnect>-1</internetconnect>
</trkpt>
<trkpt lat="35.081761" lon="136.455957">
<ele>522.000000</ele>
<time>2026-03-27T02:50:10Z</time>
<speed>0.000000</speed>
<trueHeading>0.000000</trueHeading>
<magneticHeading>0.000000</magneticHeading>
<gpsHeading>0.000000</gpsHeading>
<haccuracy>-1.000000</haccuracy>
<vaccuracy>-1.000000</vaccuracy>
<internetconnect>-1</internetconnect>
</trkpt>
<trkpt lat="35.081844" lon="136.455801">
<ele>521.000000</ele>
<time>2026-03-27T02:51:22Z</time>
<speed>0.000000</speed>
<trueHeading>0.000000</trueHeading>
<magneticHeading>0.000000</magneticHeading>
<gpsHeading>0.000000</gpsHeading>
<haccuracy>-1.000000</haccuracy>
<vaccuracy>-1.000000</vaccuracy>
<internetconnect>-1</internetconnect>
</trkpt>
<trkpt lat="35.081897" lon="136.455678">
<ele>522.000000</ele>
<time>2026-03-27T02:52:17Z</time>
<speed>0.000000</speed>
<trueHeading>0.000000</trueHeading>
<magneticHeading>0.000000</magneticHeading>
<gpsHeading>0.000000</gpsHeading>
<haccuracy>-1.000000</haccuracy>
<vaccuracy>-1.000000</vaccuracy>
<internetconnect>-1</internetconnect>
</trkpt>
<trkpt lat="35.081932" lon="136.455511">
<ele>519.000000</ele>
<time>2026-03-27T02:53:24Z</time>
<speed>0.000000</speed>
<trueHeading>0.000000</trueHeading>
<magneticHeading>0.000000</magneticHeading>
<gpsHeading>0.000000</gpsHeading>
<haccuracy>-1.000000</haccuracy>
<vaccuracy>-1.000000</vaccuracy>
<internetconnect>-1</internetconnect>
</trkpt>
<trkpt lat="35.081945" lon="136.455356">
<ele>513.000000</ele>
<time>2026-03-27T02:54:25Z</time>
<speed>0.000000</speed>
<trueHeading>0.000000</trueHeading>
<magneticHeading>0.000000</magneticHeading>
<gpsHeading>0.000000</gpsHeading>
<haccuracy>-1.000000</haccuracy>
<vaccuracy>-1.000000</vaccuracy>
<internetconnect>-1</internetconnect>
</trkpt>
<trkpt lat="35.081963" lon="136.455216">
<ele>508.000000</ele>
<time>2026-03-27T02:55:20Z</time>
<speed>0.000000</speed>
<trueHeading>0.000000</trueHeading>
<magneticHeading>0.000000</magneticHeading>
<gpsHeading>0.000000</gpsHeading>
<haccuracy>-1.000000</haccuracy>
<vaccuracy>-1.000000</vaccuracy>
<internetconnect>-1</internetconnect>
</trkpt>
<trkpt lat="35.082002" lon="136.455055">
<ele>512.000000</ele>
<time>2026-03-27T02:56:26Z</time>
<speed>0.000000</speed>
<trueHeading>0.000000</trueHeading>
<magneticHeading>0.000000</magneticHeading>
<gpsHeading>0.000000</gpsHeading>
<haccuracy>-1.000000</haccuracy>
<vaccuracy>-1.000000</vaccuracy>
<internetconnect>-1</internetconnect>
</trkpt>
<trkpt lat="35.082055" lon="136.454921">
<ele>511.000000</ele>
<time>2026-03-27T02:57:24Z</time>
<speed>0.000000</speed>
<trueHeading>0.000000</trueHeading>
<magneticHeading>0.000000</magneticHeading>
<gpsHeading>0.000000</gpsHeading>
<haccuracy>-1.000000</haccuracy>
<vaccuracy>-1.000000</vaccuracy>
<internetconnect>-1</internetconnect>
</trkpt>
<trkpt lat="35.082165" lon="136.454750">
<ele>517.000000</ele>
<time>2026-03-27T02:58:49Z</time>
<speed>0.000000</speed>
<trueHeading>0.000000</trueHeading>
<magneticHeading>0.000000</magneticHeading>
<gpsHeading>0.000000</gpsHeading>
<haccuracy>-1.000000</haccuracy>
<vaccuracy>-1.000000</vaccuracy>
<internetconnect>-1</internetconnect>
</trkpt>
<trkpt lat="35.082252" lon="136.454626">
<ele>523.000000</ele>
<time>2026-03-27T02:59:53Z</time>
<speed>0.000000</speed>
<trueHeading>0.000000</trueHeading>
<magneticHeading>0.000000</magneticHeading>
<gpsHeading>0.000000</gpsHeading>
<haccuracy>-1.000000</haccuracy>
<vaccuracy>-1.000000</vaccuracy>
<internetconnect>-1</internetconnect>
</trkpt>
<trkpt lat="35.082309" lon="136.454551">
<ele>525.000000</ele>
<time>2026-03-27T03:00:33Z</time>
<speed>0.000000</speed>
<trueHeading>0.000000</trueHeading>
<magneticHeading>0.000000</magneticHeading>
<gpsHeading>0.000000</gpsHeading>
<haccuracy>-1.000000</haccuracy>
<vaccuracy>-1.000000</vaccuracy>
<internetconnect>-1</internetconnect>
</trkpt>
<trkpt lat="35.082349" lon="136.454455">
<ele>527.000000</ele>
<time>2026-03-27T03:01:15Z</time>
<speed>0.000000</speed>
<trueHeading>0.000000</trueHeading>
<magneticHeading>0.000000</magneticHeading>
<gpsHeading>0.000000</gpsHeading>
<haccuracy>-1.000000</haccuracy>
<vaccuracy>-1.000000</vaccuracy>
<internetconnect>-1</internetconnect>
</trkpt>
<trkpt lat="35.082375" lon="136.454315">
<ele>531.000000</ele>
<time>2026-03-27T03:02:11Z</time>
<speed>0.000000</speed>
<trueHeading>0.000000</trueHeading>
<magneticHeading>0.000000</magneticHeading>
<gpsHeading>0.000000</gpsHeading>
<haccuracy>-1.000000</haccuracy>
<vaccuracy>-1.000000</vaccuracy>
<internetconnect>-1</internetconnect>
</trkpt>
<trkpt lat="35.082388" lon="136.454181">
<ele>538.000000</ele>
<time>2026-03-27T03:03:04Z</time>
<speed>0.000000</speed>
<trueHeading>0.000000</trueHeading>
<magneticHeading>0.000000</magneticHeading>
<gpsHeading>0.000000</gpsHeading>
<haccuracy>-1.000000</haccuracy>
<vaccuracy>-1.000000</vaccuracy>
<internetconnect>-1</internetconnect>
</trkpt>
<trkpt lat="35.082419" lon="136.453999">
<ele>546.000000</ele>
<time>2026-03-27T03:04:17Z</time>
<speed>0.000000</speed>
<trueHeading>0.000000</trueHeading>
<magneticHeading>0.000000</magneticHeading>
<gpsHeading>0.000000</gpsHeading>
<haccuracy>-1.000000</haccuracy>
<vaccuracy>-1.000000</vaccuracy>
<internetconnect>-1</internetconnect>
</trkpt>
<trkpt lat="35.082459" lon="136.453811">
<ele>555.000000</ele>
<time>2026-03-27T03:05:32Z</time>
<speed>0.000000</speed>
<trueHeading>0.000000</trueHeading>
<magneticHeading>0.000000</magneticHeading>
<gpsHeading>0.000000</gpsHeading>
<haccuracy>-1.000000</haccuracy>
<vaccuracy>-1.000000</vaccuracy>
<internetconnect>-1</internetconnect>
</trkpt>
<trkpt lat="35.082481" lon="136.453736">
<ele>561.000000</ele>
<time>2026-03-27T03:06:03Z</time>
<speed>0.000000</speed>
<trueHeading>0.000000</trueHeading>
<magneticHeading>0.000000</magneticHeading>
<gpsHeading>0.000000</gpsHeading>
<haccuracy>-1.000000</haccuracy>
<vaccuracy>-1.000000</vaccuracy>
<internetconnect>-1</internetconnect>
</trkpt>
<trkpt lat="35.082555" lon="136.453580">
<ele>571.000000</ele>
<time>2026-03-27T03:07:14Z</time>
<speed>0.000000</speed>
<trueHeading>0.000000</trueHeading>
<magneticHeading>0.000000</magneticHeading>
<gpsHeading>0.000000</gpsHeading>
<haccuracy>-1.000000</haccuracy>
<vaccuracy>-1.000000</vaccuracy>
<internetconnect>-1</internetconnect>
</trkpt>
<trkpt lat="35.082604" lon="136.453468">
<ele>576.000000</ele>
<time>2026-03-27T03:08:04Z</time>
<speed>0.000000</speed>
<trueHeading>0.000000</trueHeading>
<magneticHeading>0.000000</magneticHeading>
<gpsHeading>0.000000</gpsHeading>
<haccuracy>-1.000000</haccuracy>
<vaccuracy>-1.000000</vaccuracy>
<internetconnect>-1</internetconnect>
</trkpt>
<trkpt lat="35.082634" lon="136.453355">
<ele>582.000000</ele>
<time>2026-03-27T03:08:50Z</time>
<speed>0.000000</speed>
<trueHeading>0.000000</trueHeading>
<magneticHeading>0.000000</magneticHeading>
<gpsHeading>0.000000</gpsHeading>
<haccuracy>-1.000000</haccuracy>
<vaccuracy>-1.000000</vaccuracy>
<internetconnect>-1</internetconnect>
</trkpt>
<trkpt lat="35.082647" lon="136.453248">
<ele>586.000000</ele>
<time>2026-03-27T03:09:32Z</time>
<speed>0.000000</speed>
<trueHeading>0.000000</trueHeading>
<magneticHeading>0.000000</magneticHeading>
<gpsHeading>0.000000</gpsHeading>
<haccuracy>-1.000000</haccuracy>
<vaccuracy>-1.000000</vaccuracy>
<internetconnect>-1</internetconnect>
</trkpt>
<trkpt lat="35.082687" lon="136.453012">
<ele>593.000000</ele>
<time>2026-03-27T03:11:07Z</time>
<speed>0.000000</speed>
<trueHeading>0.000000</trueHeading>
<magneticHeading>0.000000</magneticHeading>
<gpsHeading>0.000000</gpsHeading>
<haccuracy>-1.000000</haccuracy>
<vaccuracy>-1.000000</vaccuracy>
<internetconnect>-1</internetconnect>
</trkpt>
<trkpt lat="35.082726" lon="136.452770">
<ele>603.000000</ele>
<time>2026-03-27T03:12:43Z</time>
<speed>0.000000</speed>
<trueHeading>0.000000</trueHeading>
<magneticHeading>0.000000</magneticHeading>
<gpsHeading>0.000000</gpsHeading>
<haccuracy>-1.000000</haccuracy>
<vaccuracy>-1.000000</vaccuracy>
<internetconnect>-1</internetconnect>
</trkpt>
<trkpt lat="35.082757" lon="136.452582">
<ele>616.000000</ele>
<time>2026-03-27T03:13:58Z</time>
<speed>0.000000</speed>
<trueHeading>0.000000</trueHeading>
<magneticHeading>0.000000</magneticHeading>
<gpsHeading>0.000000</gpsHeading>
<haccuracy>-1.000000</haccuracy>
<vaccuracy>-1.000000</vaccuracy>
<internetconnect>-1</internetconnect>
</trkpt>
<trkpt lat="35.082797" lon="136.452464">
<ele>627.000000</ele>
<time>2026-03-27T03:14:48Z</time>
<speed>0.000000</speed>
<trueHeading>0.000000</trueHeading>
<magneticHeading>0.000000</magneticHeading>
<gpsHeading>0.000000</gpsHeading>
<haccuracy>-1.000000</haccuracy>
<vaccuracy>-1.000000</vaccuracy>
<internetconnect>-1</internetconnect>
</trkpt>
<trkpt lat="35.082836" lon="136.452389">
<ele>628.000000</ele>
<time>2026-03-27T03:15:22Z</time>
<speed>0.000000</speed>
<trueHeading>0.000000</trueHeading>
<magneticHeading>0.000000</magneticHeading>
<gpsHeading>0.000000</gpsHeading>
<haccuracy>-1.000000</haccuracy>
<vaccuracy>-1.000000</vaccuracy>
<internetconnect>-1</internetconnect>
</trkpt>
<trkpt lat="35.083038" lon="136.452094">
<ele>643.000000</ele>
<time>2026-03-27T03:17:53Z</time>
<speed>0.000000</speed>
<trueHeading>0.000000</trueHeading>
<magneticHeading>0.000000</magneticHeading>
<gpsHeading>0.000000</gpsHeading>
<haccuracy>-1.000000</haccuracy>
<vaccuracy>-1.000000</vaccuracy>
<internetconnect>-1</internetconnect>
</trkpt>
<trkpt lat="35.083231" lon="136.451864">
<ele>667.000000</ele>
<time>2026-03-27T03:20:01Z</time>
<speed>0.000000</speed>
<trueHeading>0.000000</trueHeading>
<magneticHeading>0.000000</magneticHeading>
<gpsHeading>0.000000</gpsHeading>
<haccuracy>-1.000000</haccuracy>
<vaccuracy>-1.000000</vaccuracy>
<internetconnect>-1</internetconnect>
</trkpt>
<trkpt lat="35.083315" lon="136.451772">
<ele>676.000000</ele>
<time>2026-03-27T03:20:55Z</time>
<speed>0.000000</speed>
<trueHeading>0.000000</trueHeading>
<magneticHeading>0.000000</magneticHeading>
<gpsHeading>0.000000</gpsHeading>
<haccuracy>-1.000000</haccuracy>
<vaccuracy>-1.000000</vaccuracy>
<internetconnect>-1</internetconnect>
</trkpt>
<trkpt lat="35.083398" lon="136.451633">
<ele>688.000000</ele>
<time>2026-03-27T03:22:02Z</time>
<speed>0.000000</speed>
<trueHeading>0.000000</trueHeading>
<magneticHeading>0.000000</magneticHeading>
<gpsHeading>0.000000</gpsHeading>
<haccuracy>-1.000000</haccuracy>
<vaccuracy>-1.000000</vaccuracy>
<internetconnect>-1</internetconnect>
</trkpt>
<trkpt lat="35.083451" lon="136.451515">
<ele>694.000000</ele>
<time>2026-03-27T03:22:55Z</time>
<speed>0.000000</speed>
<trueHeading>0.000000</trueHeading>
<magneticHeading>0.000000</magneticHeading>
<gpsHeading>0.000000</gpsHeading>
<haccuracy>-1.000000</haccuracy>
<vaccuracy>-1.000000</vaccuracy>
<internetconnect>-1</internetconnect>
</trkpt>
<trkpt lat="35.083490" lon="136.451434">
<ele>695.000000</ele>
<time>2026-03-27T03:23:31Z</time>
<speed>0.000000</speed>
<trueHeading>0.000000</trueHeading>
<magneticHeading>0.000000</magneticHeading>
<gpsHeading>0.000000</gpsHeading>
<haccuracy>-1.000000</haccuracy>
<vaccuracy>-1.000000</vaccuracy>
<internetconnect>-1</internetconnect>
</trkpt>
<trkpt lat="35.083534" lon="136.451375">
<ele>693.000000</ele>
<time>2026-03-27T03:24:02Z</time>
<speed>0.000000</speed>
<trueHeading>0.000000</trueHeading>
<magneticHeading>0.000000</magneticHeading>
<gpsHeading>0.000000</gpsHeading>
<haccuracy>-1.000000</haccuracy>
<vaccuracy>-1.000000</vaccuracy>
<internetconnect>-1</internetconnect>
</trkpt>
<trkpt lat="35.083613" lon="136.451311">
<ele>695.000000</ele>
<time>2026-03-27T03:24:48Z</time>
<speed>0.000000</speed>
<trueHeading>0.000000</trueHeading>
<magneticHeading>0.000000</magneticHeading>
<gpsHeading>0.000000</gpsHeading>
<haccuracy>-1.000000</haccuracy>
<vaccuracy>-1.000000</vaccuracy>
<internetconnect>-1</internetconnect>
</trkpt>
<trkpt lat="35.083701" lon="136.451220">
<ele>698.000000</ele>
<time>2026-03-27T03:25:43Z</time>
<speed>0.000000</speed>
<trueHeading>0.000000</trueHeading>
<magneticHeading>0.000000</magneticHeading>
<gpsHeading>0.000000</gpsHeading>
<haccuracy>-1.000000</haccuracy>
<vaccuracy>-1.000000</vaccuracy>
<internetconnect>-1</internetconnect>
</trkpt>
<trkpt lat="35.083754" lon="136.451156">
<ele>702.000000</ele>
<time>2026-03-27T03:26:18Z</time>
<speed>0.000000</speed>
<trueHeading>0.000000</trueHeading>
<magneticHeading>0.000000</magneticHeading>
<gpsHeading>0.000000</gpsHeading>
<haccuracy>-1.000000</haccuracy>
<vaccuracy>-1.000000</vaccuracy>
<internetconnect>-1</internetconnect>
</trkpt>
<trkpt lat="35.083793" lon="136.451070">
<ele>707.000000</ele>
<time>2026-03-27T03:26:57Z</time>
<speed>0.000000</speed>
<trueHeading>0.000000</trueHeading>
<magneticHeading>0.000000</magneticHeading>
<gpsHeading>0.000000</gpsHeading>
<haccuracy>-1.000000</haccuracy>
<vaccuracy>-1.000000</vaccuracy>
<internetconnect>-1</internetconnect>
</trkpt>
<trkpt lat="35.083815" lon="136.450957">
<ele>711.000000</ele>
<time>2026-03-27T03:27:42Z</time>
<speed>0.000000</speed>
<trueHeading>0.000000</trueHeading>
<magneticHeading>0.000000</magneticHeading>
<gpsHeading>0.000000</gpsHeading>
<haccuracy>-1.000000</haccuracy>
<vaccuracy>-1.000000</vaccuracy>
<internetconnect>-1</internetconnect>
</trkpt>
<trkpt lat="35.083850" lon="136.450801">
<ele>714.000000</ele>
<time>2026-03-27T03:28:45Z</time>
<speed>0.000000</speed>
<trueHeading>0.000000</trueHeading>
<magneticHeading>0.000000</magneticHeading>
<gpsHeading>0.000000</gpsHeading>
<haccuracy>-1.000000</haccuracy>
<vaccuracy>-1.000000</vaccuracy>
<internetconnect>-1</internetconnect>
</trkpt>
<trkpt lat="35.083881" lon="136.450705">
<ele>722.000000</ele>
<time>2026-03-27T03:29:25Z</time>
<speed>0.000000</speed>
<trueHeading>0.000000</trueHeading>
<magneticHeading>0.000000</magneticHeading>
<gpsHeading>0.000000</gpsHeading>
<haccuracy>-1.000000</haccuracy>
<vaccuracy>-1.000000</vaccuracy>
<internetconnect>-1</internetconnect>
</trkpt>
<trkpt lat="35.083907" lon="136.450635">
<ele>724.000000</ele>
<time>2026-03-27T03:29:55Z</time>
<speed>0.000000</speed>
<trueHeading>0.000000</trueHeading>
<magneticHeading>0.000000</magneticHeading>
<gpsHeading>0.000000</gpsHeading>
<haccuracy>-1.000000</haccuracy>
<vaccuracy>-1.000000</vaccuracy>
<internetconnect>-1</internetconnect>
</trkpt>
<trkpt lat="35.083951" lon="136.450565">
<ele>730.000000</ele>
<time>2026-03-27T03:30:30Z</time>
<speed>0.000000</speed>
<trueHeading>0.000000</trueHeading>
<magneticHeading>0.000000</magneticHeading>
<gpsHeading>0.000000</gpsHeading>
<haccuracy>-1.000000</haccuracy>
<vaccuracy>-1.000000</vaccuracy>
<internetconnect>-1</internetconnect>
</trkpt>
<trkpt lat="35.084057" lon="136.450458">
<ele>739.000000</ele>
<time>2026-03-27T03:31:35Z</time>
<speed>0.000000</speed>
<trueHeading>0.000000</trueHeading>
<magneticHeading>0.000000</magneticHeading>
<gpsHeading>0.000000</gpsHeading>
<haccuracy>-1.000000</haccuracy>
<vaccuracy>-1.000000</vaccuracy>
<internetconnect>-1</internetconnect>
</trkpt>
<trkpt lat="35.084136" lon="136.450351">
<ele>747.000000</ele>
<time>2026-03-27T03:32:31Z</time>
<speed>0.000000</speed>
<trueHeading>0.000000</trueHeading>
<magneticHeading>0.000000</magneticHeading>
<gpsHeading>0.000000</gpsHeading>
<haccuracy>-1.000000</haccuracy>
<vaccuracy>-1.000000</vaccuracy>
<internetconnect>-1</internetconnect>
</trkpt>
<trkpt lat="35.084197" lon="136.450254">
<ele>755.000000</ele>
<time>2026-03-27T03:33:19Z</time>
<speed>0.000000</speed>
<trueHeading>0.000000</trueHeading>
<magneticHeading>0.000000</magneticHeading>
<gpsHeading>0.000000</gpsHeading>
<haccuracy>-1.000000</haccuracy>
<vaccuracy>-1.000000</vaccuracy>
<internetconnect>-1</internetconnect>
</trkpt>
<trkpt lat="35.084267" lon="136.450120">
<ele>767.000000</ele>
<time>2026-03-27T03:34:21Z</time>
<speed>0.000000</speed>
<trueHeading>0.000000</trueHeading>
<magneticHeading>0.000000</magneticHeading>
<gpsHeading>0.000000</gpsHeading>
<haccuracy>-1.000000</haccuracy>
<vaccuracy>-1.000000</vaccuracy>
<internetconnect>-1</internetconnect>
</trkpt>
<trkpt lat="35.084351" lon="136.449922">
<ele>785.000000</ele>
<time>2026-03-27T03:35:49Z</time>
<speed>0.000000</speed>
<trueHeading>0.000000</trueHeading>
<magneticHeading>0.000000</magneticHeading>
<gpsHeading>0.000000</gpsHeading>
<haccuracy>-1.000000</haccuracy>
<vaccuracy>-1.000000</vaccuracy>
<internetconnect>-1</internetconnect>
</trkpt>
<trkpt lat="35.084399" lon="136.449750">
<ele>791.000000</ele>
<time>2026-03-27T03:36:59Z</time>
<speed>0.000000</speed>
<trueHeading>0.000000</trueHeading>
<magneticHeading>0.000000</magneticHeading>
<gpsHeading>0.000000</gpsHeading>
<haccuracy>-1.000000</haccuracy>
<vaccuracy>-1.000000</vaccuracy>
<internetconnect>-1</internetconnect>
</trkpt>
<trkpt lat="35.084465" lon="136.449589">
<ele>802.000000</ele>
<time>2026-03-27T03:38:10Z</time>
<speed>0.000000</speed>
<trueHeading>0.000000</trueHeading>
<magneticHeading>0.000000</magneticHeading>
<gpsHeading>0.000000</gpsHeading>
<haccuracy>-1.000000</haccuracy>
<vaccuracy>-1.000000</vaccuracy>
<internetconnect>-1</internetconnect>
</trkpt>
<trkpt lat="35.084517" lon="136.449482">
<ele>806.000000</ele>
<time>2026-03-27T03:38:59Z</time>
<speed>0.000000</speed>
<trueHeading>0.000000</trueHeading>
<magneticHeading>0.000000</magneticHeading>
<gpsHeading>0.000000</gpsHeading>
<haccuracy>-1.000000</haccuracy>
<vaccuracy>-1.000000</vaccuracy>
<internetconnect>-1</internetconnect>
</trkpt>
<trkpt lat="35.084566" lon="136.449417">
<ele>809.000000</ele>
<time>2026-03-27T03:39:33Z</time>
<speed>0.000000</speed>
<trueHeading>0.000000</trueHeading>
<magneticHeading>0.000000</magneticHeading>
<gpsHeading>0.000000</gpsHeading>
<haccuracy>-1.000000</haccuracy>
<vaccuracy>-1.000000</vaccuracy>
<internetconnect>-1</internetconnect>
</trkpt>
<trkpt lat="35.084658" lon="136.449310">
<ele>815.000000</ele>
<time>2026-03-27T03:40:33Z</time>
<speed>0.000000</speed>
<trueHeading>0.000000</trueHeading>
<magneticHeading>0.000000</magneticHeading>
<gpsHeading>0.000000</gpsHeading>
<haccuracy>-1.000000</haccuracy>
<vaccuracy>-1.000000</vaccuracy>
<internetconnect>-1</internetconnect>
</trkpt>
<trkpt lat="35.084728" lon="136.449219">
<ele>823.000000</ele>
<time>2026-03-27T03:41:22Z</time>
<speed>0.000000</speed>
<trueHeading>0.000000</trueHeading>
<magneticHeading>0.000000</magneticHeading>
<gpsHeading>0.000000</gpsHeading>
<haccuracy>-1.000000</haccuracy>
<vaccuracy>-1.000000</vaccuracy>
<internetconnect>-1</internetconnect>
</trkpt>
<trkpt lat="35.084794" lon="136.449128">
<ele>830.000000</ele>
<time>2026-03-27T03:42:10Z</time>
<speed>0.000000</speed>
<trueHeading>0.000000</trueHeading>
<magneticHeading>0.000000</magneticHeading>
<gpsHeading>0.000000</gpsHeading>
<haccuracy>-1.000000</haccuracy>
<vaccuracy>-1.000000</vaccuracy>
<internetconnect>-1</internetconnect>
</trkpt>
<trkpt lat="35.084834" lon="136.449047">
<ele>838.000000</ele>
<time>2026-03-27T03:42:46Z</time>
<speed>0.000000</speed>
<trueHeading>0.000000</trueHeading>
<magneticHeading>0.000000</magneticHeading>
<gpsHeading>0.000000</gpsHeading>
<haccuracy>-1.000000</haccuracy>
<vaccuracy>-1.000000</vaccuracy>
<internetconnect>-1</internetconnect>
</trkpt>
<trkpt lat="35.084882" lon="136.448945">
<ele>843.000000</ele>
<time>2026-03-27T03:43:32Z</time>
<speed>0.000000</speed>
<trueHeading>0.000000</trueHeading>
<magneticHeading>0.000000</magneticHeading>
<gpsHeading>0.000000</gpsHeading>
<haccuracy>-1.000000</haccuracy>
<vaccuracy>-1.000000</vaccuracy>
<internetconnect>-1</internetconnect>
</trkpt>
<trkpt lat="35.084939" lon="136.448843">
<ele>848.000000</ele>
<time>2026-03-27T03:44:21Z</time>
<speed>0.000000</speed>
<trueHeading>0.000000</trueHeading>
<magneticHeading>0.000000</magneticHeading>
<gpsHeading>0.000000</gpsHeading>
<haccuracy>-1.000000</haccuracy>
<vaccuracy>-1.000000</vaccuracy>
<internetconnect>-1</internetconnect>
</trkpt>
<trkpt lat="35.085000" lon="136.448779">
<ele>857.000000</ele>
<time>2026-03-27T03:44:59Z</time>
<speed>0.000000</speed>
<trueHeading>0.000000</trueHeading>
<magneticHeading>0.000000</magneticHeading>
<gpsHeading>0.000000</gpsHeading>
<haccuracy>-1.000000</haccuracy>
<vaccuracy>-1.000000</vaccuracy>
<internetconnect>-1</internetconnect>
</trkpt>
<trkpt lat="35.085106" lon="136.448693">
<ele>863.000000</ele>
<time>2026-03-27T03:46:00Z</time>
<speed>0.000000</speed>
<trueHeading>0.000000</trueHeading>
<magneticHeading>0.000000</magneticHeading>
<gpsHeading>0.000000</gpsHeading>
<haccuracy>-1.000000</haccuracy>
<vaccuracy>-1.000000</vaccuracy>
<internetconnect>-1</internetconnect>
</trkpt>
<trkpt lat="35.085132" lon="136.448672">
<ele>863.000000</ele>
<time>2026-03-27T03:46:00Z</time>
<speed>0.000000</speed>
<trueHeading>0.000000</trueHeading>
<magneticHeading>0.000000</magneticHeading>
<gpsHeading>0.000000</gpsHeading>
<haccuracy>-1.000000</haccuracy>
<vaccuracy>-1.000000</vaccuracy>
<internetconnect>-1</internetconnect>
</trkpt>
<trkpt lat="35.085220" lon="136.448575">
<ele>860.000000</ele>
<time>2026-03-27T03:46:38Z</time>
<speed>0.000000</speed>
<trueHeading>0.000000</trueHeading>
<magneticHeading>0.000000</magneticHeading>
<gpsHeading>0.000000</gpsHeading>
<haccuracy>-1.000000</haccuracy>
<vaccuracy>-1.000000</vaccuracy>
<internetconnect>-1</internetconnect>
</trkpt>
<trkpt lat="35.085330" lon="136.448468">
<ele>871.000000</ele>
<time>2026-03-27T03:47:25Z</time>
<speed>0.000000</speed>
<trueHeading>0.000000</trueHeading>
<magneticHeading>0.000000</magneticHeading>
<gpsHeading>0.000000</gpsHeading>
<haccuracy>-1.000000</haccuracy>
<vaccuracy>-1.000000</vaccuracy>
<internetconnect>-1</internetconnect>
</trkpt>
<trkpt lat="35.085439" lon="136.448339">
<ele>880.000000</ele>
<time>2026-03-27T03:48:15Z</time>
<speed>0.000000</speed>
<trueHeading>0.000000</trueHeading>
<magneticHeading>0.000000</magneticHeading>
<gpsHeading>0.000000</gpsHeading>
<haccuracy>-1.000000</haccuracy>
<vaccuracy>-1.000000</vaccuracy>
<internetconnect>-1</internetconnect>
</trkpt>
<trkpt lat="35.085531" lon="136.448178">
<ele>880.000000</ele>
<time>2026-03-27T03:49:08Z</time>
<speed>0.000000</speed>
<trueHeading>0.000000</trueHeading>
<magneticHeading>0.000000</magneticHeading>
<gpsHeading>0.000000</gpsHeading>
<haccuracy>-1.000000</haccuracy>
<vaccuracy>-1.000000</vaccuracy>
<internetconnect>-1</internetconnect>
</trkpt>
<trkpt lat="35.085589" lon="136.448044">
<ele>879.000000</ele>
<time>2026-03-27T03:49:49Z</time>
<speed>0.000000</speed>
<trueHeading>0.000000</trueHeading>
<magneticHeading>0.000000</magneticHeading>
<gpsHeading>0.000000</gpsHeading>
<haccuracy>-1.000000</haccuracy>
<vaccuracy>-1.000000</vaccuracy>
<internetconnect>-1</internetconnect>
</trkpt>
<trkpt lat="35.085641" lon="136.447867">
<ele>879.000000</ele>
<time>2026-03-27T03:50:39Z</time>
<speed>0.000000</speed>
<trueHeading>0.000000</trueHeading>
<magneticHeading>0.000000</magneticHeading>
<gpsHeading>0.000000</gpsHeading>
<haccuracy>-1.000000</haccuracy>
<vaccuracy>-1.000000</vaccuracy>
<internetconnect>-1</internetconnect>
</trkpt>
<trkpt lat="35.085681" lon="136.447744">
<ele>882.000000</ele>
<time>2026-03-27T03:51:15Z</time>
<speed>0.000000</speed>
<trueHeading>0.000000</trueHeading>
<magneticHeading>0.000000</magneticHeading>
<gpsHeading>0.000000</gpsHeading>
<haccuracy>-1.000000</haccuracy>
<vaccuracy>-1.000000</vaccuracy>
<internetconnect>-1</internetconnect>
</trkpt>
<trkpt lat="35.085707" lon="136.447588">
<ele>884.000000</ele>
<time>2026-03-27T03:51:58Z</time>
<speed>0.000000</speed>
<trueHeading>0.000000</trueHeading>
<magneticHeading>0.000000</magneticHeading>
<gpsHeading>0.000000</gpsHeading>
<haccuracy>-1.000000</haccuracy>
<vaccuracy>-1.000000</vaccuracy>
<internetconnect>-1</internetconnect>
</trkpt>
<trkpt lat="35.085720" lon="136.447368">
<ele>887.000000</ele>
<time>2026-03-27T03:52:58Z</time>
<speed>0.000000</speed>
<trueHeading>0.000000</trueHeading>
<magneticHeading>0.000000</magneticHeading>
<gpsHeading>0.000000</gpsHeading>
<haccuracy>-1.000000</haccuracy>
<vaccuracy>-1.000000</vaccuracy>
<internetconnect>-1</internetconnect>
</trkpt>
<trkpt lat="35.085716" lon="136.447218">
<ele>892.000000</ele>
<time>2026-03-27T03:53:38Z</time>
<speed>0.000000</speed>
<trueHeading>0.000000</trueHeading>
<magneticHeading>0.000000</magneticHeading>
<gpsHeading>0.000000</gpsHeading>
<haccuracy>-1.000000</haccuracy>
<vaccuracy>-1.000000</vaccuracy>
<internetconnect>-1</internetconnect>
</trkpt>
<trkpt lat="35.085698" lon="136.447111">
<ele>892.000000</ele>
<time>2026-03-27T03:54:08Z</time>
<speed>0.000000</speed>
<trueHeading>0.000000</trueHeading>
<magneticHeading>0.000000</magneticHeading>
<gpsHeading>0.000000</gpsHeading>
<haccuracy>-1.000000</haccuracy>
<vaccuracy>-1.000000</vaccuracy>
<internetconnect>-1</internetconnect>
</trkpt>
<trkpt lat="35.085646" lon="136.447003">
<ele>892.000000</ele>
<time>2026-03-27T03:54:42Z</time>
<speed>0.000000</speed>
<trueHeading>0.000000</trueHeading>
<magneticHeading>0.000000</magneticHeading>
<gpsHeading>0.000000</gpsHeading>
<haccuracy>-1.000000</haccuracy>
<vaccuracy>-1.000000</vaccuracy>
<internetconnect>-1</internetconnect>
</trkpt>
<trkpt lat="35.085496" lon="136.446789">
<ele>893.000000</ele>
<time>2026-03-27T03:55:57Z</time>
<speed>0.000000</speed>
<trueHeading>0.000000</trueHeading>
<magneticHeading>0.000000</magneticHeading>
<gpsHeading>0.000000</gpsHeading>
<haccuracy>-1.000000</haccuracy>
<vaccuracy>-1.000000</vaccuracy>
<internetconnect>-1</internetconnect>
</trkpt>
<trkpt lat="35.085452" lon="136.446703">
<ele>893.000000</ele>
<time>2026-03-27T03:56:25Z</time>
<speed>0.000000</speed>
<trueHeading>0.000000</trueHeading>
<magneticHeading>0.000000</magneticHeading>
<gpsHeading>0.000000</gpsHeading>
<haccuracy>-1.000000</haccuracy>
<vaccuracy>-1.000000</vaccuracy>
<internetconnect>-1</internetconnect>
</trkpt>
<trkpt lat="35.085435" lon="136.446639">
<ele>893.000000</ele>
<time>2026-03-27T03:56:43Z</time>
<speed>0.000000</speed>
<trueHeading>0.000000</trueHeading>
<magneticHeading>0.000000</magneticHeading>
<gpsHeading>0.000000</gpsHeading>
<haccuracy>-1.000000</haccuracy>
<vaccuracy>-1.000000</vaccuracy>
<internetconnect>-1</internetconnect>
</trkpt>
<trkpt lat="35.085426" lon="136.446553">
<ele>897.000000</ele>
<time>2026-03-27T03:57:06Z</time>
<speed>0.000000</speed>
<trueHeading>0.000000</trueHeading>
<magneticHeading>0.000000</magneticHeading>
<gpsHeading>0.000000</gpsHeading>
<haccuracy>-1.000000</haccuracy>
<vaccuracy>-1.000000</vaccuracy>
<internetconnect>-1</internetconnect>
</trkpt>
<trkpt lat="35.085435" lon="136.446451">
<ele>902.000000</ele>
<time>2026-03-27T03:57:34Z</time>
<speed>0.000000</speed>
<trueHeading>0.000000</trueHeading>
<magneticHeading>0.000000</magneticHeading>
<gpsHeading>0.000000</gpsHeading>
<haccuracy>-1.000000</haccuracy>
<vaccuracy>-1.000000</vaccuracy>
<internetconnect>-1</internetconnect>
</trkpt>
<trkpt lat="35.085431" lon="136.446354">
<ele>905.000000</ele>
<time>2026-03-27T03:58:00Z</time>
<speed>0.000000</speed>
<trueHeading>0.000000</trueHeading>
<magneticHeading>0.000000</magneticHeading>
<gpsHeading>0.000000</gpsHeading>
<haccuracy>-1.000000</haccuracy>
<vaccuracy>-1.000000</vaccuracy>
<internetconnect>-1</internetconnect>
</trkpt>
<trkpt lat="35.085395" lon="136.446279">
<ele>907.000000</ele>
<time>2026-03-27T03:58:24Z</time>
<speed>0.000000</speed>
<trueHeading>0.000000</trueHeading>
<magneticHeading>0.000000</magneticHeading>
<gpsHeading>0.000000</gpsHeading>
<haccuracy>-1.000000</haccuracy>
<vaccuracy>-1.000000</vaccuracy>
<internetconnect>-1</internetconnect>
</trkpt>
<trkpt lat="35.085268" lon="136.446065">
<ele>915.000000</ele>
<time>2026-03-27T03:59:35Z</time>
<speed>0.000000</speed>
<trueHeading>0.000000</trueHeading>
<magneticHeading>0.000000</magneticHeading>
<gpsHeading>0.000000</gpsHeading>
<haccuracy>-1.000000</haccuracy>
<vaccuracy>-1.000000</vaccuracy>
<internetconnect>-1</internetconnect>
</trkpt>
<trkpt lat="35.085202" lon="136.445936">
<ele>922.000000</ele>
<time>2026-03-27T04:00:16Z</time>
<speed>0.000000</speed>
<trueHeading>0.000000</trueHeading>
<magneticHeading>0.000000</magneticHeading>
<gpsHeading>0.000000</gpsHeading>
<haccuracy>-1.000000</haccuracy>
<vaccuracy>-1.000000</vaccuracy>
<internetconnect>-1</internetconnect>
</trkpt>
<trkpt lat="35.085163" lon="136.445823">
<ele>925.000000</ele>
<time>2026-03-27T04:00:49Z</time>
<speed>0.000000</speed>
<trueHeading>0.000000</trueHeading>
<magneticHeading>0.000000</magneticHeading>
<gpsHeading>0.000000</gpsHeading>
<haccuracy>-1.000000</haccuracy>
<vaccuracy>-1.000000</vaccuracy>
<internetconnect>-1</internetconnect>
</trkpt>
<trkpt lat="35.085154" lon="136.445711">
<ele>927.000000</ele>
<time>2026-03-27T04:01:20Z</time>
<speed>0.000000</speed>
<trueHeading>0.000000</trueHeading>
<magneticHeading>0.000000</magneticHeading>
<gpsHeading>0.000000</gpsHeading>
<haccuracy>-1.000000</haccuracy>
<vaccuracy>-1.000000</vaccuracy>
<internetconnect>-1</internetconnect>
</trkpt>
<trkpt lat="35.085163" lon="136.445614">
<ele>928.000000</ele>
<time>2026-03-27T04:01:46Z</time>
<speed>0.000000</speed>
<trueHeading>0.000000</trueHeading>
<magneticHeading>0.000000</magneticHeading>
<gpsHeading>0.000000</gpsHeading>
<haccuracy>-1.000000</haccuracy>
<vaccuracy>-1.000000</vaccuracy>
<internetconnect>-1</internetconnect>
</trkpt>
<trkpt lat="35.085237" lon="136.445341">
<ele>928.000000</ele>
<time>2026-03-27T04:03:04Z</time>
<speed>0.000000</speed>
<trueHeading>0.000000</trueHeading>
<magneticHeading>0.000000</magneticHeading>
<gpsHeading>0.000000</gpsHeading>
<haccuracy>-1.000000</haccuracy>
<vaccuracy>-1.000000</vaccuracy>
<internetconnect>-1</internetconnect>
</trkpt>
<trkpt lat="35.085294" lon="136.445045">
<ele>923.000000</ele>
<time>2026-03-27T04:04:26Z</time>
<speed>0.000000</speed>
<trueHeading>0.000000</trueHeading>
<magneticHeading>0.000000</magneticHeading>
<gpsHeading>0.000000</gpsHeading>
<haccuracy>-1.000000</haccuracy>
<vaccuracy>-1.000000</vaccuracy>
<internetconnect>-1</internetconnect>
</trkpt>
<trkpt lat="35.085330" lon="136.444783">
<ele>924.000000</ele>
<time>2026-03-27T04:05:38Z</time>
<speed>0.000000</speed>
<trueHeading>0.000000</trueHeading>
<magneticHeading>0.000000</magneticHeading>
<gpsHeading>0.000000</gpsHeading>
<haccuracy>-1.000000</haccuracy>
<vaccuracy>-1.000000</vaccuracy>
<internetconnect>-1</internetconnect>
</trkpt>
<trkpt lat="35.085343" lon="136.444584">
<ele>929.000000</ele>
<time>2026-03-27T04:06:31Z</time>
<speed>0.000000</speed>
<trueHeading>0.000000</trueHeading>
<magneticHeading>0.000000</magneticHeading>
<gpsHeading>0.000000</gpsHeading>
<haccuracy>-1.000000</haccuracy>
<vaccuracy>-1.000000</vaccuracy>
<internetconnect>-1</internetconnect>
</trkpt>
<trkpt lat="35.085338" lon="136.444488">
<ele>931.000000</ele>
<time>2026-03-27T04:06:57Z</time>
<speed>0.000000</speed>
<trueHeading>0.000000</trueHeading>
<magneticHeading>0.000000</magneticHeading>
<gpsHeading>0.000000</gpsHeading>
<haccuracy>-1.000000</haccuracy>
<vaccuracy>-1.000000</vaccuracy>
<internetconnect>-1</internetconnect>
</trkpt>
<trkpt lat="35.085294" lon="136.444278">
<ele>933.000000</ele>
<time>2026-03-27T04:07:56Z</time>
<speed>0.000000</speed>
<trueHeading>0.000000</trueHeading>
<magneticHeading>0.000000</magneticHeading>
<gpsHeading>0.000000</gpsHeading>
<haccuracy>-1.000000</haccuracy>
<vaccuracy>-1.000000</vaccuracy>
<internetconnect>-1</internetconnect>
</trkpt>
<trkpt lat="35.085259" lon="136.444010">
<ele>940.000000</ele>
<time>2026-03-27T04:09:09Z</time>
<speed>0.000000</speed>
<trueHeading>0.000000</trueHeading>
<magneticHeading>0.000000</magneticHeading>
<gpsHeading>0.000000</gpsHeading>
<haccuracy>-1.000000</haccuracy>
<vaccuracy>-1.000000</vaccuracy>
<internetconnect>-1</internetconnect>
</trkpt>
<trkpt lat="35.085255" lon="136.443812">
<ele>947.000000</ele>
<time>2026-03-27T04:10:03Z</time>
<speed>0.000000</speed>
<trueHeading>0.000000</trueHeading>
<magneticHeading>0.000000</magneticHeading>
<gpsHeading>0.000000</gpsHeading>
<haccuracy>-1.000000</haccuracy>
<vaccuracy>-1.000000</vaccuracy>
<internetconnect>-1</internetconnect>
</trkpt>
<trkpt lat="35.085264" lon="136.443635">
<ele>951.000000</ele>
<time>2026-03-27T04:10:51Z</time>
<speed>0.000000</speed>
<trueHeading>0.000000</trueHeading>
<magneticHeading>0.000000</magneticHeading>
<gpsHeading>0.000000</gpsHeading>
<haccuracy>-1.000000</haccuracy>
<vaccuracy>-1.000000</vaccuracy>
<internetconnect>-1</internetconnect>
</trkpt>
<trkpt lat="35.085299" lon="136.443399">
<ele>959.000000</ele>
<time>2026-03-27T04:11:55Z</time>
<speed>0.000000</speed>
<trueHeading>0.000000</trueHeading>
<magneticHeading>0.000000</magneticHeading>
<gpsHeading>0.000000</gpsHeading>
<haccuracy>-1.000000</haccuracy>
<vaccuracy>-1.000000</vaccuracy>
<internetconnect>-1</internetconnect>
</trkpt>
<trkpt lat="35.085347" lon="136.443211">
<ele>965.000000</ele>
<time>2026-03-27T04:12:49Z</time>
<speed>0.000000</speed>
<trueHeading>0.000000</trueHeading>
<magneticHeading>0.000000</magneticHeading>
<gpsHeading>0.000000</gpsHeading>
<haccuracy>-1.000000</haccuracy>
<vaccuracy>-1.000000</vaccuracy>
<internetconnect>-1</internetconnect>
</trkpt>
<trkpt lat="35.085395" lon="136.443061">
<ele>970.000000</ele>
<time>2026-03-27T04:13:32Z</time>
<speed>0.000000</speed>
<trueHeading>0.000000</trueHeading>
<magneticHeading>0.000000</magneticHeading>
<gpsHeading>0.000000</gpsHeading>
<haccuracy>-1.000000</haccuracy>
<vaccuracy>-1.000000</vaccuracy>
<internetconnect>-1</internetconnect>
</trkpt>
<trkpt lat="35.085439" lon="136.442975">
<ele>971.000000</ele>
<time>2026-03-27T04:14:00Z</time>
<speed>0.000000</speed>
<trueHeading>0.000000</trueHeading>
<magneticHeading>0.000000</magneticHeading>
<gpsHeading>0.000000</gpsHeading>
<haccuracy>-1.000000</haccuracy>
<vaccuracy>-1.000000</vaccuracy>
<internetconnect>-1</internetconnect>
</trkpt>
<trkpt lat="35.085474" lon="136.442932">
<ele>970.000000</ele>
<time>2026-03-27T04:14:00Z</time>
<speed>0.000000</speed>
<trueHeading>0.000000</trueHeading>
<magneticHeading>0.000000</magneticHeading>
<gpsHeading>0.000000</gpsHeading>
<haccuracy>-1.000000</haccuracy>
<vaccuracy>-1.000000</vaccuracy>
<internetconnect>-1</internetconnect>
</trkpt>
<trkpt lat="35.085567" lon="136.442846">
<ele>969.000000</ele>
<time>2026-03-27T04:14:31Z</time>
<speed>0.000000</speed>
<trueHeading>0.000000</trueHeading>
<magneticHeading>0.000000</magneticHeading>
<gpsHeading>0.000000</gpsHeading>
<haccuracy>-1.000000</haccuracy>
<vaccuracy>-1.000000</vaccuracy>
<internetconnect>-1</internetconnect>
</trkpt>
<trkpt lat="35.085659" lon="136.442750">
<ele>966.000000</ele>
<time>2026-03-27T04:15:03Z</time>
<speed>0.000000</speed>
<trueHeading>0.000000</trueHeading>
<magneticHeading>0.000000</magneticHeading>
<gpsHeading>0.000000</gpsHeading>
<haccuracy>-1.000000</haccuracy>
<vaccuracy>-1.000000</vaccuracy>
<internetconnect>-1</internetconnect>
</trkpt>
<trkpt lat="35.085751" lon="136.442621">
<ele>964.000000</ele>
<time>2026-03-27T04:15:41Z</time>
<speed>0.000000</speed>
<trueHeading>0.000000</trueHeading>
<magneticHeading>0.000000</magneticHeading>
<gpsHeading>0.000000</gpsHeading>
<haccuracy>-1.000000</haccuracy>
<vaccuracy>-1.000000</vaccuracy>
<internetconnect>-1</internetconnect>
</trkpt>
<trkpt lat="35.085852" lon="136.442454">
<ele>968.000000</ele>
<time>2026-03-27T04:16:26Z</time>
<speed>0.000000</speed>
<trueHeading>0.000000</trueHeading>
<magneticHeading>0.000000</magneticHeading>
<gpsHeading>0.000000</gpsHeading>
<haccuracy>-1.000000</haccuracy>
<vaccuracy>-1.000000</vaccuracy>
<internetconnect>-1</internetconnect>
</trkpt>
<trkpt lat="35.085896" lon="136.442363">
<ele>970.000000</ele>
<time>2026-03-27T04:16:50Z</time>
<speed>0.000000</speed>
<trueHeading>0.000000</trueHeading>
<magneticHeading>0.000000</magneticHeading>
<gpsHeading>0.000000</gpsHeading>
<haccuracy>-1.000000</haccuracy>
<vaccuracy>-1.000000</vaccuracy>
<internetconnect>-1</internetconnect>
</trkpt>
<trkpt lat="35.085896" lon="136.442363">
<ele>970.000000</ele>
<time>2026-03-27T04:16:50Z</time>
<speed>0.000000</speed>
<trueHeading>0.000000</trueHeading>
<magneticHeading>0.000000</magneticHeading>
<gpsHeading>0.000000</gpsHeading>
<haccuracy>-1.000000</haccuracy>
<vaccuracy>-1.000000</vaccuracy>
<internetconnect>-1</internetconnect>
</trkpt>
<trkpt lat="35.085869" lon="136.442331">
<ele>968.000000</ele>
<time>2026-03-27T04:17:00Z</time>
<speed>0.000000</speed>
<trueHeading>0.000000</trueHeading>
<magneticHeading>0.000000</magneticHeading>
<gpsHeading>0.000000</gpsHeading>
<haccuracy>-1.000000</haccuracy>
<vaccuracy>-1.000000</vaccuracy>
<internetconnect>-1</internetconnect>
</trkpt>
<trkpt lat="35.085848" lon="136.442326">
<ele>967.000000</ele>
<time>2026-03-27T04:17:06Z</time>
<speed>0.000000</speed>
<trueHeading>0.000000</trueHeading>
<magneticHeading>0.000000</magneticHeading>
<gpsHeading>0.000000</gpsHeading>
<haccuracy>-1.000000</haccuracy>
<vaccuracy>-1.000000</vaccuracy>
<internetconnect>-1</internetconnect>
</trkpt>
<trkpt lat="35.085799" lon="136.442288">
<ele>964.000000</ele>
<time>2026-03-27T04:17:21Z</time>
<speed>0.000000</speed>
<trueHeading>0.000000</trueHeading>
<magneticHeading>0.000000</magneticHeading>
<gpsHeading>0.000000</gpsHeading>
<haccuracy>-1.000000</haccuracy>
<vaccuracy>-1.000000</vaccuracy>
<internetconnect>-1</internetconnect>
</trkpt>
<trkpt lat="35.085747" lon="136.442245">
<ele>961.000000</ele>
<time>2026-03-27T04:17:38Z</time>
<speed>0.000000</speed>
<trueHeading>0.000000</trueHeading>
<magneticHeading>0.000000</magneticHeading>
<gpsHeading>0.000000</gpsHeading>
<haccuracy>-1.000000</haccuracy>
<vaccuracy>-1.000000</vaccuracy>
<internetconnect>-1</internetconnect>
</trkpt>
<trkpt lat="35.085698" lon="136.442176">
<ele>959.000000</ele>
<time>2026-03-27T04:17:58Z</time>
<speed>0.000000</speed>
<trueHeading>0.000000</trueHeading>
<magneticHeading>0.000000</magneticHeading>
<gpsHeading>0.000000</gpsHeading>
<haccuracy>-1.000000</haccuracy>
<vaccuracy>-1.000000</vaccuracy>
<internetconnect>-1</internetconnect>
</trkpt>
<trkpt lat="35.085676" lon="136.442100">
<ele>957.000000</ele>
<time>2026-03-27T04:18:15Z</time>
<speed>0.000000</speed>
<trueHeading>0.000000</trueHeading>
<magneticHeading>0.000000</magneticHeading>
<gpsHeading>0.000000</gpsHeading>
<haccuracy>-1.000000</haccuracy>
<vaccuracy>-1.000000</vaccuracy>
<internetconnect>-1</internetconnect>
</trkpt>
<trkpt lat="35.085654" lon="136.441977">
<ele>955.000000</ele>
<time>2026-03-27T04:18:43Z</time>
<speed>0.000000</speed>
<trueHeading>0.000000</trueHeading>
<magneticHeading>0.000000</magneticHeading>
<gpsHeading>0.000000</gpsHeading>
<haccuracy>-1.000000</haccuracy>
<vaccuracy>-1.000000</vaccuracy>
<internetconnect>-1</internetconnect>
</trkpt>
<trkpt lat="35.085641" lon="136.441838">
<ele>953.000000</ele>
<time>2026-03-27T04:19:14Z</time>
<speed>0.000000</speed>
<trueHeading>0.000000</trueHeading>
<magneticHeading>0.000000</magneticHeading>
<gpsHeading>0.000000</gpsHeading>
<haccuracy>-1.000000</haccuracy>
<vaccuracy>-1.000000</vaccuracy>
<internetconnect>-1</internetconnect>
</trkpt>
<trkpt lat="35.085624" lon="136.441752">
<ele>952.000000</ele>
<time>2026-03-27T04:19:34Z</time>
<speed>0.000000</speed>
<trueHeading>0.000000</trueHeading>
<magneticHeading>0.000000</magneticHeading>
<gpsHeading>0.000000</gpsHeading>
<haccuracy>-1.000000</haccuracy>
<vaccuracy>-1.000000</vaccuracy>
<internetconnect>-1</internetconnect>
</trkpt>
<trkpt lat="35.085593" lon="136.441671">
<ele>951.000000</ele>
<time>2026-03-27T04:19:53Z</time>
<speed>0.000000</speed>
<trueHeading>0.000000</trueHeading>
<magneticHeading>0.000000</magneticHeading>
<gpsHeading>0.000000</gpsHeading>
<haccuracy>-1.000000</haccuracy>
<vaccuracy>-1.000000</vaccuracy>
<internetconnect>-1</internetconnect>
</trkpt>
<trkpt lat="35.085549" lon="136.441612">
<ele>950.000000</ele>
<time>2026-03-27T04:20:11Z</time>
<speed>0.000000</speed>
<trueHeading>0.000000</trueHeading>
<magneticHeading>0.000000</magneticHeading>
<gpsHeading>0.000000</gpsHeading>
<haccuracy>-1.000000</haccuracy>
<vaccuracy>-1.000000</vaccuracy>
<internetconnect>-1</internetconnect>
</trkpt>
<trkpt lat="35.085466" lon="136.441516">
<ele>949.000000</ele>
<time>2026-03-27T04:20:42Z</time>
<speed>0.000000</speed>
<trueHeading>0.000000</trueHeading>
<magneticHeading>0.000000</magneticHeading>
<gpsHeading>0.000000</gpsHeading>
<haccuracy>-1.000000</haccuracy>
<vaccuracy>-1.000000</vaccuracy>
<internetconnect>-1</internetconnect>
</trkpt>
<trkpt lat="35.085426" lon="136.441419">
<ele>946.000000</ele>
<time>2026-03-27T04:21:05Z</time>
<speed>0.000000</speed>
<trueHeading>0.000000</trueHeading>
<magneticHeading>0.000000</magneticHeading>
<gpsHeading>0.000000</gpsHeading>
<haccuracy>-1.000000</haccuracy>
<vaccuracy>-1.000000</vaccuracy>
<internetconnect>-1</internetconnect>
</trkpt>
<trkpt lat="35.085409" lon="136.441301">
<ele>941.000000</ele>
<time>2026-03-27T04:21:32Z</time>
<speed>0.000000</speed>
<trueHeading>0.000000</trueHeading>
<magneticHeading>0.000000</magneticHeading>
<gpsHeading>0.000000</gpsHeading>
<haccuracy>-1.000000</haccuracy>
<vaccuracy>-1.000000</vaccuracy>
<internetconnect>-1</internetconnect>
</trkpt>
<trkpt lat="35.085404" lon="136.441135">
<ele>937.000000</ele>
<time>2026-03-27T04:22:08Z</time>
<speed>0.000000</speed>
<trueHeading>0.000000</trueHeading>
<magneticHeading>0.000000</magneticHeading>
<gpsHeading>0.000000</gpsHeading>
<haccuracy>-1.000000</haccuracy>
<vaccuracy>-1.000000</vaccuracy>
<internetconnect>-1</internetconnect>
</trkpt>
<trkpt lat="35.085395" lon="136.440947">
<ele>932.000000</ele>
<time>2026-03-27T04:22:50Z</time>
<speed>0.000000</speed>
<trueHeading>0.000000</trueHeading>
<magneticHeading>0.000000</magneticHeading>
<gpsHeading>0.000000</gpsHeading>
<haccuracy>-1.000000</haccuracy>
<vaccuracy>-1.000000</vaccuracy>
<internetconnect>-1</internetconnect>
</trkpt>
<trkpt lat="35.085378" lon="136.440818">
<ele>930.000000</ele>
<time>2026-03-27T04:23:18Z</time>
<speed>0.000000</speed>
<trueHeading>0.000000</trueHeading>
<magneticHeading>0.000000</magneticHeading>
<gpsHeading>0.000000</gpsHeading>
<haccuracy>-1.000000</haccuracy>
<vaccuracy>-1.000000</vaccuracy>
<internetconnect>-1</internetconnect>
</trkpt>
<trkpt lat="35.085334" lon="136.440684">
<ele>933.000000</ele>
<time>2026-03-27T04:23:50Z</time>
<speed>0.000000</speed>
<trueHeading>0.000000</trueHeading>
<magneticHeading>0.000000</magneticHeading>
<gpsHeading>0.000000</gpsHeading>
<haccuracy>-1.000000</haccuracy>
<vaccuracy>-1.000000</vaccuracy>
<internetconnect>-1</internetconnect>
</trkpt>
<trkpt lat="35.085264" lon="136.440550">
<ele>937.000000</ele>
<time>2026-03-27T04:24:25Z</time>
<speed>0.000000</speed>
<trueHeading>0.000000</trueHeading>
<magneticHeading>0.000000</magneticHeading>
<gpsHeading>0.000000</gpsHeading>
<haccuracy>-1.000000</haccuracy>
<vaccuracy>-1.000000</vaccuracy>
<internetconnect>-1</internetconnect>
</trkpt>
<trkpt lat="35.085167" lon="136.440411">
<ele>948.000000</ele>
<time>2026-03-27T04:25:05Z</time>
<speed>0.000000</speed>
<trueHeading>0.000000</trueHeading>
<magneticHeading>0.000000</magneticHeading>
<gpsHeading>0.000000</gpsHeading>
<haccuracy>-1.000000</haccuracy>
<vaccuracy>-1.000000</vaccuracy>
<internetconnect>-1</internetconnect>
</trkpt>
<trkpt lat="35.085009" lon="136.440196">
<ele>954.000000</ele>
<time>2026-03-27T04:26:09Z</time>
<speed>0.000000</speed>
<trueHeading>0.000000</trueHeading>
<magneticHeading>0.000000</magneticHeading>
<gpsHeading>0.000000</gpsHeading>
<haccuracy>-1.000000</haccuracy>
<vaccuracy>-1.000000</vaccuracy>
<internetconnect>-1</internetconnect>
</trkpt>
<trkpt lat="35.084803" lon="136.439917">
<ele>944.000000</ele>
<time>2026-03-27T04:27:31Z</time>
<speed>0.000000</speed>
<trueHeading>0.000000</trueHeading>
<magneticHeading>0.000000</magneticHeading>
<gpsHeading>0.000000</gpsHeading>
<haccuracy>-1.000000</haccuracy>
<vaccuracy>-1.000000</vaccuracy>
<internetconnect>-1</internetconnect>
</trkpt>
<trkpt lat="35.084693" lon="136.439788">
<ele>939.000000</ele>
<time>2026-03-27T04:28:12Z</time>
<speed>0.000000</speed>
<trueHeading>0.000000</trueHeading>
<magneticHeading>0.000000</magneticHeading>
<gpsHeading>0.000000</gpsHeading>
<haccuracy>-1.000000</haccuracy>
<vaccuracy>-1.000000</vaccuracy>
<internetconnect>-1</internetconnect>
</trkpt>
<trkpt lat="35.084570" lon="136.439670">
<ele>943.000000</ele>
<time>2026-03-27T04:28:54Z</time>
<speed>0.000000</speed>
<trueHeading>0.000000</trueHeading>
<magneticHeading>0.000000</magneticHeading>
<gpsHeading>0.000000</gpsHeading>
<haccuracy>-1.000000</haccuracy>
<vaccuracy>-1.000000</vaccuracy>
<internetconnect>-1</internetconnect>
</trkpt>
<trkpt lat="35.084465" lon="136.439606">
<ele>943.000000</ele>
<time>2026-03-27T04:29:26Z</time>
<speed>0.000000</speed>
<trueHeading>0.000000</trueHeading>
<magneticHeading>0.000000</magneticHeading>
<gpsHeading>0.000000</gpsHeading>
<haccuracy>-1.000000</haccuracy>
<vaccuracy>-1.000000</vaccuracy>
<internetconnect>-1</internetconnect>
</trkpt>
<trkpt lat="35.084324" lon="136.439515">
<ele>947.000000</ele>
<time>2026-03-27T04:30:08Z</time>
<speed>0.000000</speed>
<trueHeading>0.000000</trueHeading>
<magneticHeading>0.000000</magneticHeading>
<gpsHeading>0.000000</gpsHeading>
<haccuracy>-1.000000</haccuracy>
<vaccuracy>-1.000000</vaccuracy>
<internetconnect>-1</internetconnect>
</trkpt>
<trkpt lat="35.084228" lon="136.439434">
<ele>944.000000</ele>
<time>2026-03-27T04:30:40Z</time>
<speed>0.000000</speed>
<trueHeading>0.000000</trueHeading>
<magneticHeading>0.000000</magneticHeading>
<gpsHeading>0.000000</gpsHeading>
<haccuracy>-1.000000</haccuracy>
<vaccuracy>-1.000000</vaccuracy>
<internetconnect>-1</internetconnect>
</trkpt>
<trkpt lat="35.084153" lon="136.439343">
<ele>941.000000</ele>
<time>2026-03-27T04:31:08Z</time>
<speed>0.000000</speed>
<trueHeading>0.000000</trueHeading>
<magneticHeading>0.000000</magneticHeading>
<gpsHeading>0.000000</gpsHeading>
<haccuracy>-1.000000</haccuracy>
<vaccuracy>-1.000000</vaccuracy>
<internetconnect>-1</internetconnect>
</trkpt>
<trkpt lat="35.084100" lon="136.439236">
<ele>938.000000</ele>
<time>2026-03-27T04:31:36Z</time>
<speed>0.000000</speed>
<trueHeading>0.000000</trueHeading>
<magneticHeading>0.000000</magneticHeading>
<gpsHeading>0.000000</gpsHeading>
<haccuracy>-1.000000</haccuracy>
<vaccuracy>-1.000000</vaccuracy>
<internetconnect>-1</internetconnect>
</trkpt>
<trkpt lat="35.084052" lon="136.439145">
<ele>939.000000</ele>
<time>2026-03-27T04:32:00Z</time>
<speed>0.000000</speed>
<trueHeading>0.000000</trueHeading>
<magneticHeading>0.000000</magneticHeading>
<gpsHeading>0.000000</gpsHeading>
<haccuracy>-1.000000</haccuracy>
<vaccuracy>-1.000000</vaccuracy>
<internetconnect>-1</internetconnect>
</trkpt>
<trkpt lat="35.084008" lon="136.439102">
<ele>939.000000</ele>
<time>2026-03-27T04:32:00Z</time>
<speed>0.000000</speed>
<trueHeading>0.000000</trueHeading>
<magneticHeading>0.000000</magneticHeading>
<gpsHeading>0.000000</gpsHeading>
<haccuracy>-1.000000</haccuracy>
<vaccuracy>-1.000000</vaccuracy>
<internetconnect>-1</internetconnect>
</trkpt>
<trkpt lat="35.083938" lon="136.439032">
<ele>941.000000</ele>
<time>2026-03-27T04:32:19Z</time>
<speed>0.000000</speed>
<trueHeading>0.000000</trueHeading>
<magneticHeading>0.000000</magneticHeading>
<gpsHeading>0.000000</gpsHeading>
<haccuracy>-1.000000</haccuracy>
<vaccuracy>-1.000000</vaccuracy>
<internetconnect>-1</internetconnect>
</trkpt>
<trkpt lat="35.083872" lon="136.438984">
<ele>945.000000</ele>
<time>2026-03-27T04:32:35Z</time>
<speed>0.000000</speed>
<trueHeading>0.000000</trueHeading>
<magneticHeading>0.000000</magneticHeading>
<gpsHeading>0.000000</gpsHeading>
<haccuracy>-1.000000</haccuracy>
<vaccuracy>-1.000000</vaccuracy>
<internetconnect>-1</internetconnect>
</trkpt>
<trkpt lat="35.083802" lon="136.438930">
<ele>948.000000</ele>
<time>2026-03-27T04:32:52Z</time>
<speed>0.000000</speed>
<trueHeading>0.000000</trueHeading>
<magneticHeading>0.000000</magneticHeading>
<gpsHeading>0.000000</gpsHeading>
<haccuracy>-1.000000</haccuracy>
<vaccuracy>-1.000000</vaccuracy>
<internetconnect>-1</internetconnect>
</trkpt>
<trkpt lat="35.083767" lon="136.438887">
<ele>949.000000</ele>
<time>2026-03-27T04:33:03Z</time>
<speed>0.000000</speed>
<trueHeading>0.000000</trueHeading>
<magneticHeading>0.000000</magneticHeading>
<gpsHeading>0.000000</gpsHeading>
<haccuracy>-1.000000</haccuracy>
<vaccuracy>-1.000000</vaccuracy>
<internetconnect>-1</internetconnect>
</trkpt>
<trkpt lat="35.083756" lon="136.438857">
<ele>950.000000</ele>
<time>2026-03-27T04:33:08Z</time>
<speed>0.000000</speed>
<trueHeading>0.000000</trueHeading>
<magneticHeading>0.000000</magneticHeading>
<gpsHeading>0.000000</gpsHeading>
<haccuracy>-1.000000</haccuracy>
<vaccuracy>-1.000000</vaccuracy>
<internetconnect>-1</internetconnect>
</trkpt>
<trkpt lat="35.083754" lon="136.438850">
<ele>950.000000</ele>
<time>2026-03-27T04:33:10Z</time>
<speed>0.000000</speed>
<trueHeading>0.000000</trueHeading>
<magneticHeading>0.000000</magneticHeading>
<gpsHeading>0.000000</gpsHeading>
<haccuracy>-1.000000</haccuracy>
<vaccuracy>-1.000000</vaccuracy>
<internetconnect>-1</internetconnect>
</trkpt>
<trkpt lat="35.083754" lon="136.438785">
<ele>950.000000</ele>
<time>2026-03-27T04:33:21Z</time>
<speed>0.000000</speed>
<trueHeading>0.000000</trueHeading>
<magneticHeading>0.000000</magneticHeading>
<gpsHeading>0.000000</gpsHeading>
<haccuracy>-1.000000</haccuracy>
<vaccuracy>-1.000000</vaccuracy>
<internetconnect>-1</internetconnect>
</trkpt>
<trkpt lat="35.083754" lon="136.438673">
<ele>951.000000</ele>
<time>2026-03-27T04:33:41Z</time>
<speed>0.000000</speed>
<trueHeading>0.000000</trueHeading>
<magneticHeading>0.000000</magneticHeading>
<gpsHeading>0.000000</gpsHeading>
<haccuracy>-1.000000</haccuracy>
<vaccuracy>-1.000000</vaccuracy>
<internetconnect>-1</internetconnect>
</trkpt>
<trkpt lat="35.083745" lon="136.438624">
<ele>952.000000</ele>
<time>2026-03-27T04:33:49Z</time>
<speed>0.000000</speed>
<trueHeading>0.000000</trueHeading>
<magneticHeading>0.000000</magneticHeading>
<gpsHeading>0.000000</gpsHeading>
<haccuracy>-1.000000</haccuracy>
<vaccuracy>-1.000000</vaccuracy>
<internetconnect>-1</internetconnect>
</trkpt>
<trkpt lat="35.083714" lon="136.438587">
<ele>953.000000</ele>
<time>2026-03-27T04:33:58Z</time>
<speed>0.000000</speed>
<trueHeading>0.000000</trueHeading>
<magneticHeading>0.000000</magneticHeading>
<gpsHeading>0.000000</gpsHeading>
<haccuracy>-1.000000</haccuracy>
<vaccuracy>-1.000000</vaccuracy>
<internetconnect>-1</internetconnect>
</trkpt>
<trkpt lat="35.083670" lon="136.438571">
<ele>955.000000</ele>
<time>2026-03-27T04:34:08Z</time>
<speed>0.000000</speed>
<trueHeading>0.000000</trueHeading>
<magneticHeading>0.000000</magneticHeading>
<gpsHeading>0.000000</gpsHeading>
<haccuracy>-1.000000</haccuracy>
<vaccuracy>-1.000000</vaccuracy>
<internetconnect>-1</internetconnect>
</trkpt>
<trkpt lat="35.083635" lon="136.438571">
<ele>956.000000</ele>
<time>2026-03-27T04:34:15Z</time>
<speed>0.000000</speed>
<trueHeading>0.000000</trueHeading>
<magneticHeading>0.000000</magneticHeading>
<gpsHeading>0.000000</gpsHeading>
<haccuracy>-1.000000</haccuracy>
<vaccuracy>-1.000000</vaccuracy>
<internetconnect>-1</internetconnect>
</trkpt>
<trkpt lat="35.083560" lon="136.438581">
<ele>956.000000</ele>
<time>2026-03-27T04:34:31Z</time>
<speed>0.000000</speed>
<trueHeading>0.000000</trueHeading>
<magneticHeading>0.000000</magneticHeading>
<gpsHeading>0.000000</gpsHeading>
<haccuracy>-1.000000</haccuracy>
<vaccuracy>-1.000000</vaccuracy>
<internetconnect>-1</internetconnect>
</trkpt>
<trkpt lat="35.083464" lon="136.438587">
<ele>954.000000</ele>
<time>2026-03-27T04:34:52Z</time>
<speed>0.000000</speed>
<trueHeading>0.000000</trueHeading>
<magneticHeading>0.000000</magneticHeading>
<gpsHeading>0.000000</gpsHeading>
<haccuracy>-1.000000</haccuracy>
<vaccuracy>-1.000000</vaccuracy>
<internetconnect>-1</internetconnect>
</trkpt>
<trkpt lat="35.083398" lon="136.438571">
<ele>952.000000</ele>
<time>2026-03-27T04:35:06Z</time>
<speed>0.000000</speed>
<trueHeading>0.000000</trueHeading>
<magneticHeading>0.000000</magneticHeading>
<gpsHeading>0.000000</gpsHeading>
<haccuracy>-1.000000</haccuracy>
<vaccuracy>-1.000000</vaccuracy>
<internetconnect>-1</internetconnect>
</trkpt>
<trkpt lat="35.083341" lon="136.438538">
<ele>951.000000</ele>
<time>2026-03-27T04:35:19Z</time>
<speed>0.000000</speed>
<trueHeading>0.000000</trueHeading>
<magneticHeading>0.000000</magneticHeading>
<gpsHeading>0.000000</gpsHeading>
<haccuracy>-1.000000</haccuracy>
<vaccuracy>-1.000000</vaccuracy>
<internetconnect>-1</internetconnect>
</trkpt>
<trkpt lat="35.083258" lon="136.438474">
<ele>950.000000</ele>
<time>2026-03-27T04:35:40Z</time>
<speed>0.000000</speed>
<trueHeading>0.000000</trueHeading>
<magneticHeading>0.000000</magneticHeading>
<gpsHeading>0.000000</gpsHeading>
<haccuracy>-1.000000</haccuracy>
<vaccuracy>-1.000000</vaccuracy>
<internetconnect>-1</internetconnect>
</trkpt>
<trkpt lat="35.083201" lon="136.438394">
<ele>947.000000</ele>
<time>2026-03-27T04:35:58Z</time>
<speed>0.000000</speed>
<trueHeading>0.000000</trueHeading>
<magneticHeading>0.000000</magneticHeading>
<gpsHeading>0.000000</gpsHeading>
<haccuracy>-1.000000</haccuracy>
<vaccuracy>-1.000000</vaccuracy>
<internetconnect>-1</internetconnect>
</trkpt>
<trkpt lat="35.083170" lon="136.438335">
<ele>944.000000</ele>
<time>2026-03-27T04:36:10Z</time>
<speed>0.000000</speed>
<trueHeading>0.000000</trueHeading>
<magneticHeading>0.000000</magneticHeading>
<gpsHeading>0.000000</gpsHeading>
<haccuracy>-1.000000</haccuracy>
<vaccuracy>-1.000000</vaccuracy>
<internetconnect>-1</internetconnect>
</trkpt>
<trkpt lat="35.083143" lon="136.438249">
<ele>944.000000</ele>
<time>2026-03-27T04:36:26Z</time>
<speed>0.000000</speed>
<trueHeading>0.000000</trueHeading>
<magneticHeading>0.000000</magneticHeading>
<gpsHeading>0.000000</gpsHeading>
<haccuracy>-1.000000</haccuracy>
<vaccuracy>-1.000000</vaccuracy>
<internetconnect>-1</internetconnect>
</trkpt>
<trkpt lat="35.083135" lon="136.438168">
<ele>943.000000</ele>
<time>2026-03-27T04:36:40Z</time>
<speed>0.000000</speed>
<trueHeading>0.000000</trueHeading>
<magneticHeading>0.000000</magneticHeading>
<gpsHeading>0.000000</gpsHeading>
<haccuracy>-1.000000</haccuracy>
<vaccuracy>-1.000000</vaccuracy>
<internetconnect>-1</internetconnect>
</trkpt>
<trkpt lat="35.083117" lon="136.438013">
<ele>943.000000</ele>
<time>2026-03-27T04:37:08Z</time>
<speed>0.000000</speed>
<trueHeading>0.000000</trueHeading>
<magneticHeading>0.000000</magneticHeading>
<gpsHeading>0.000000</gpsHeading>
<haccuracy>-1.000000</haccuracy>
<vaccuracy>-1.000000</vaccuracy>
<internetconnect>-1</internetconnect>
</trkpt>
<trkpt lat="35.083095" lon="136.437905">
<ele>943.000000</ele>
<time>2026-03-27T04:37:27Z</time>
<speed>0.000000</speed>
<trueHeading>0.000000</trueHeading>
<magneticHeading>0.000000</magneticHeading>
<gpsHeading>0.000000</gpsHeading>
<haccuracy>-1.000000</haccuracy>
<vaccuracy>-1.000000</vaccuracy>
<internetconnect>-1</internetconnect>
</trkpt>
<trkpt lat="35.083064" lon="136.437804">
<ele>941.000000</ele>
<time>2026-03-27T04:37:46Z</time>
<speed>0.000000</speed>
<trueHeading>0.000000</trueHeading>
<magneticHeading>0.000000</magneticHeading>
<gpsHeading>0.000000</gpsHeading>
<haccuracy>-1.000000</haccuracy>
<vaccuracy>-1.000000</vaccuracy>
<internetconnect>-1</internetconnect>
</trkpt>
<trkpt lat="35.083038" lon="136.437734">
<ele>940.000000</ele>
<time>2026-03-27T04:37:59Z</time>
<speed>0.000000</speed>
<trueHeading>0.000000</trueHeading>
<magneticHeading>0.000000</magneticHeading>
<gpsHeading>0.000000</gpsHeading>
<haccuracy>-1.000000</haccuracy>
<vaccuracy>-1.000000</vaccuracy>
<internetconnect>-1</internetconnect>
</trkpt>
<trkpt lat="35.083016" lon="136.437643">
<ele>938.000000</ele>
<time>2026-03-27T04:38:15Z</time>
<speed>0.000000</speed>
<trueHeading>0.000000</trueHeading>
<magneticHeading>0.000000</magneticHeading>
<gpsHeading>0.000000</gpsHeading>
<haccuracy>-1.000000</haccuracy>
<vaccuracy>-1.000000</vaccuracy>
<internetconnect>-1</internetconnect>
</trkpt>
<trkpt lat="35.083012" lon="136.437567">
<ele>936.000000</ele>
<time>2026-03-27T04:38:28Z</time>
<speed>0.000000</speed>
<trueHeading>0.000000</trueHeading>
<magneticHeading>0.000000</magneticHeading>
<gpsHeading>0.000000</gpsHeading>
<haccuracy>-1.000000</haccuracy>
<vaccuracy>-1.000000</vaccuracy>
<internetconnect>-1</internetconnect>
</trkpt>
<trkpt lat="35.083029" lon="136.437482">
<ele>937.000000</ele>
<time>2026-03-27T04:38:44Z</time>
<speed>0.000000</speed>
<trueHeading>0.000000</trueHeading>
<magneticHeading>0.000000</magneticHeading>
<gpsHeading>0.000000</gpsHeading>
<haccuracy>-1.000000</haccuracy>
<vaccuracy>-1.000000</vaccuracy>
<internetconnect>-1</internetconnect>
</trkpt>
<trkpt lat="35.083069" lon="136.437396">
<ele>938.000000</ele>
<time>2026-03-27T04:39:01Z</time>
<speed>0.000000</speed>
<trueHeading>0.000000</trueHeading>
<magneticHeading>0.000000</magneticHeading>
<gpsHeading>0.000000</gpsHeading>
<haccuracy>-1.000000</haccuracy>
<vaccuracy>-1.000000</vaccuracy>
<internetconnect>-1</internetconnect>
</trkpt>
<trkpt lat="35.083082" lon="136.437321">
<ele>937.000000</ele>
<time>2026-03-27T04:39:14Z</time>
<speed>0.000000</speed>
<trueHeading>0.000000</trueHeading>
<magneticHeading>0.000000</magneticHeading>
<gpsHeading>0.000000</gpsHeading>
<haccuracy>-1.000000</haccuracy>
<vaccuracy>-1.000000</vaccuracy>
<internetconnect>-1</internetconnect>
</trkpt>
<trkpt lat="35.083078" lon="136.437272">
<ele>938.000000</ele>
<time>2026-03-27T04:39:23Z</time>
<speed>0.000000</speed>
<trueHeading>0.000000</trueHeading>
<magneticHeading>0.000000</magneticHeading>
<gpsHeading>0.000000</gpsHeading>
<haccuracy>-1.000000</haccuracy>
<vaccuracy>-1.000000</vaccuracy>
<internetconnect>-1</internetconnect>
</trkpt>
<trkpt lat="35.083047" lon="136.437181">
<ele>939.000000</ele>
<time>2026-03-27T04:39:40Z</time>
<speed>0.000000</speed>
<trueHeading>0.000000</trueHeading>
<magneticHeading>0.000000</magneticHeading>
<gpsHeading>0.000000</gpsHeading>
<haccuracy>-1.000000</haccuracy>
<vaccuracy>-1.000000</vaccuracy>
<internetconnect>-1</internetconnect>
</trkpt>
<trkpt lat="35.083007" lon="136.437090">
<ele>943.000000</ele>
<time>2026-03-27T04:39:58Z</time>
<speed>0.000000</speed>
<trueHeading>0.000000</trueHeading>
<magneticHeading>0.000000</magneticHeading>
<gpsHeading>0.000000</gpsHeading>
<haccuracy>-1.000000</haccuracy>
<vaccuracy>-1.000000</vaccuracy>
<internetconnect>-1</internetconnect>
</trkpt>
<trkpt lat="35.082990" lon="136.437010">
<ele>947.000000</ele>
<time>2026-03-27T04:40:12Z</time>
<speed>0.000000</speed>
<trueHeading>0.000000</trueHeading>
<magneticHeading>0.000000</magneticHeading>
<gpsHeading>0.000000</gpsHeading>
<haccuracy>-1.000000</haccuracy>
<vaccuracy>-1.000000</vaccuracy>
<internetconnect>-1</internetconnect>
</trkpt>
<trkpt lat="35.082985" lon="136.436918">
<ele>950.000000</ele>
<time>2026-03-27T04:40:28Z</time>
<speed>0.000000</speed>
<trueHeading>0.000000</trueHeading>
<magneticHeading>0.000000</magneticHeading>
<gpsHeading>0.000000</gpsHeading>
<haccuracy>-1.000000</haccuracy>
<vaccuracy>-1.000000</vaccuracy>
<internetconnect>-1</internetconnect>
</trkpt>
<trkpt lat="35.082977" lon="136.436827">
<ele>952.000000</ele>
<time>2026-03-27T04:40:44Z</time>
<speed>0.000000</speed>
<trueHeading>0.000000</trueHeading>
<magneticHeading>0.000000</magneticHeading>
<gpsHeading>0.000000</gpsHeading>
<haccuracy>-1.000000</haccuracy>
<vaccuracy>-1.000000</vaccuracy>
<internetconnect>-1</internetconnect>
</trkpt>
<trkpt lat="35.082955" lon="136.436768">
<ele>953.000000</ele>
<time>2026-03-27T04:40:55Z</time>
<speed>0.000000</speed>
<trueHeading>0.000000</trueHeading>
<magneticHeading>0.000000</magneticHeading>
<gpsHeading>0.000000</gpsHeading>
<haccuracy>-1.000000</haccuracy>
<vaccuracy>-1.000000</vaccuracy>
<internetconnect>-1</internetconnect>
</trkpt>
<trkpt lat="35.082906" lon="136.436709">
<ele>957.000000</ele>
<time>2026-03-27T04:41:09Z</time>
<speed>0.000000</speed>
<trueHeading>0.000000</trueHeading>
<magneticHeading>0.000000</magneticHeading>
<gpsHeading>0.000000</gpsHeading>
<haccuracy>-1.000000</haccuracy>
<vaccuracy>-1.000000</vaccuracy>
<internetconnect>-1</internetconnect>
</trkpt>
<trkpt lat="35.082858" lon="136.436682">
<ele>959.000000</ele>
<time>2026-03-27T04:41:21Z</time>
<speed>0.000000</speed>
<trueHeading>0.000000</trueHeading>
<magneticHeading>0.000000</magneticHeading>
<gpsHeading>0.000000</gpsHeading>
<haccuracy>-1.000000</haccuracy>
<vaccuracy>-1.000000</vaccuracy>
<internetconnect>-1</internetconnect>
</trkpt>
<trkpt lat="35.082784" lon="136.436666">
<ele>963.000000</ele>
<time>2026-03-27T04:41:37Z</time>
<speed>0.000000</speed>
<trueHeading>0.000000</trueHeading>
<magneticHeading>0.000000</magneticHeading>
<gpsHeading>0.000000</gpsHeading>
<haccuracy>-1.000000</haccuracy>
<vaccuracy>-1.000000</vaccuracy>
<internetconnect>-1</internetconnect>
</trkpt>
<trkpt lat="35.082735" lon="136.436650">
<ele>964.000000</ele>
<time>2026-03-27T04:41:47Z</time>
<speed>0.000000</speed>
<trueHeading>0.000000</trueHeading>
<magneticHeading>0.000000</magneticHeading>
<gpsHeading>0.000000</gpsHeading>
<haccuracy>-1.000000</haccuracy>
<vaccuracy>-1.000000</vaccuracy>
<internetconnect>-1</internetconnect>
</trkpt>
<trkpt lat="35.082687" lon="136.436618">
<ele>965.000000</ele>
<time>2026-03-27T04:41:59Z</time>
<speed>0.000000</speed>
<trueHeading>0.000000</trueHeading>
<magneticHeading>0.000000</magneticHeading>
<gpsHeading>0.000000</gpsHeading>
<haccuracy>-1.000000</haccuracy>
<vaccuracy>-1.000000</vaccuracy>
<internetconnect>-1</internetconnect>
</trkpt>
<trkpt lat="35.082656" lon="136.436559">
<ele>965.000000</ele>
<time>2026-03-27T04:42:11Z</time>
<speed>0.000000</speed>
<trueHeading>0.000000</trueHeading>
<magneticHeading>0.000000</magneticHeading>
<gpsHeading>0.000000</gpsHeading>
<haccuracy>-1.000000</haccuracy>
<vaccuracy>-1.000000</vaccuracy>
<internetconnect>-1</internetconnect>
</trkpt>
<trkpt lat="35.082625" lon="136.436468">
<ele>966.000000</ele>
<time>2026-03-27T04:42:28Z</time>
<speed>0.000000</speed>
<trueHeading>0.000000</trueHeading>
<magneticHeading>0.000000</magneticHeading>
<gpsHeading>0.000000</gpsHeading>
<haccuracy>-1.000000</haccuracy>
<vaccuracy>-1.000000</vaccuracy>
<internetconnect>-1</internetconnect>
</trkpt>
<trkpt lat="35.082582" lon="136.436366">
<ele>969.000000</ele>
<time>2026-03-27T04:42:48Z</time>
<speed>0.000000</speed>
<trueHeading>0.000000</trueHeading>
<magneticHeading>0.000000</magneticHeading>
<gpsHeading>0.000000</gpsHeading>
<haccuracy>-1.000000</haccuracy>
<vaccuracy>-1.000000</vaccuracy>
<internetconnect>-1</internetconnect>
</trkpt>
<trkpt lat="35.082538" lon="136.436291">
<ele>968.000000</ele>
<time>2026-03-27T04:43:04Z</time>
<speed>0.000000</speed>
<trueHeading>0.000000</trueHeading>
<magneticHeading>0.000000</magneticHeading>
<gpsHeading>0.000000</gpsHeading>
<haccuracy>-1.000000</haccuracy>
<vaccuracy>-1.000000</vaccuracy>
<internetconnect>-1</internetconnect>
</trkpt>
<trkpt lat="35.082450" lon="136.436173">
<ele>972.000000</ele>
<time>2026-03-27T04:43:32Z</time>
<speed>0.000000</speed>
<trueHeading>0.000000</trueHeading>
<magneticHeading>0.000000</magneticHeading>
<gpsHeading>0.000000</gpsHeading>
<haccuracy>-1.000000</haccuracy>
<vaccuracy>-1.000000</vaccuracy>
<internetconnect>-1</internetconnect>
</trkpt>
<trkpt lat="35.082410" lon="136.436092">
<ele>968.000000</ele>
<time>2026-03-27T04:43:48Z</time>
<speed>0.000000</speed>
<trueHeading>0.000000</trueHeading>
<magneticHeading>0.000000</magneticHeading>
<gpsHeading>0.000000</gpsHeading>
<haccuracy>-1.000000</haccuracy>
<vaccuracy>-1.000000</vaccuracy>
<internetconnect>-1</internetconnect>
</trkpt>
<trkpt lat="35.082380" lon="136.436001">
<ele>967.000000</ele>
<time>2026-03-27T04:44:05Z</time>
<speed>0.000000</speed>
<trueHeading>0.000000</trueHeading>
<magneticHeading>0.000000</magneticHeading>
<gpsHeading>0.000000</gpsHeading>
<haccuracy>-1.000000</haccuracy>
<vaccuracy>-1.000000</vaccuracy>
<internetconnect>-1</internetconnect>
</trkpt>
<trkpt lat="35.082362" lon="136.435894">
<ele>965.000000</ele>
<time>2026-03-27T04:44:24Z</time>
<speed>0.000000</speed>
<trueHeading>0.000000</trueHeading>
<magneticHeading>0.000000</magneticHeading>
<gpsHeading>0.000000</gpsHeading>
<haccuracy>-1.000000</haccuracy>
<vaccuracy>-1.000000</vaccuracy>
<internetconnect>-1</internetconnect>
</trkpt>
<trkpt lat="35.082362" lon="136.435792">
<ele>965.000000</ele>
<time>2026-03-27T04:44:41Z</time>
<speed>0.000000</speed>
<trueHeading>0.000000</trueHeading>
<magneticHeading>0.000000</magneticHeading>
<gpsHeading>0.000000</gpsHeading>
<haccuracy>-1.000000</haccuracy>
<vaccuracy>-1.000000</vaccuracy>
<internetconnect>-1</internetconnect>
</trkpt>
<trkpt lat="35.082349" lon="136.435749">
<ele>965.000000</ele>
<time>2026-03-27T04:44:49Z</time>
<speed>0.000000</speed>
<trueHeading>0.000000</trueHeading>
<magneticHeading>0.000000</magneticHeading>
<gpsHeading>0.000000</gpsHeading>
<haccuracy>-1.000000</haccuracy>
<vaccuracy>-1.000000</vaccuracy>
<internetconnect>-1</internetconnect>
</trkpt>
<trkpt lat="35.082327" lon="136.435733">
<ele>965.000000</ele>
<time>2026-03-27T04:44:55Z</time>
<speed>0.000000</speed>
<trueHeading>0.000000</trueHeading>
<magneticHeading>0.000000</magneticHeading>
<gpsHeading>0.000000</gpsHeading>
<haccuracy>-1.000000</haccuracy>
<vaccuracy>-1.000000</vaccuracy>
<internetconnect>-1</internetconnect>
</trkpt>
<trkpt lat="35.082287" lon="136.435733">
<ele>966.000000</ele>
<time>2026-03-27T04:45:03Z</time>
<speed>0.000000</speed>
<trueHeading>0.000000</trueHeading>
<magneticHeading>0.000000</magneticHeading>
<gpsHeading>0.000000</gpsHeading>
<haccuracy>-1.000000</haccuracy>
<vaccuracy>-1.000000</vaccuracy>
<internetconnect>-1</internetconnect>
</trkpt>
<trkpt lat="35.082222" lon="136.435744">
<ele>965.000000</ele>
<time>2026-03-27T04:45:17Z</time>
<speed>0.000000</speed>
<trueHeading>0.000000</trueHeading>
<magneticHeading>0.000000</magneticHeading>
<gpsHeading>0.000000</gpsHeading>
<haccuracy>-1.000000</haccuracy>
<vaccuracy>-1.000000</vaccuracy>
<internetconnect>-1</internetconnect>
</trkpt>
<trkpt lat="35.082151" lon="136.435786">
<ele>962.000000</ele>
<time>2026-03-27T04:45:34Z</time>
<speed>0.000000</speed>
<trueHeading>0.000000</trueHeading>
<magneticHeading>0.000000</magneticHeading>
<gpsHeading>0.000000</gpsHeading>
<haccuracy>-1.000000</haccuracy>
<vaccuracy>-1.000000</vaccuracy>
<internetconnect>-1</internetconnect>
</trkpt>
<trkpt lat="35.082033" lon="136.435921">
<ele>956.000000</ele>
<time>2026-03-27T04:46:08Z</time>
<speed>0.000000</speed>
<trueHeading>0.000000</trueHeading>
<magneticHeading>0.000000</magneticHeading>
<gpsHeading>0.000000</gpsHeading>
<haccuracy>-1.000000</haccuracy>
<vaccuracy>-1.000000</vaccuracy>
<internetconnect>-1</internetconnect>
</trkpt>
<trkpt lat="35.081949" lon="136.436028">
<ele>955.000000</ele>
<time>2026-03-27T04:46:34Z</time>
<speed>0.000000</speed>
<trueHeading>0.000000</trueHeading>
<magneticHeading>0.000000</magneticHeading>
<gpsHeading>0.000000</gpsHeading>
<haccuracy>-1.000000</haccuracy>
<vaccuracy>-1.000000</vaccuracy>
<internetconnect>-1</internetconnect>
</trkpt>
<trkpt lat="35.081888" lon="136.436065">
<ele>954.000000</ele>
<time>2026-03-27T04:46:48Z</time>
<speed>0.000000</speed>
<trueHeading>0.000000</trueHeading>
<magneticHeading>0.000000</magneticHeading>
<gpsHeading>0.000000</gpsHeading>
<haccuracy>-1.000000</haccuracy>
<vaccuracy>-1.000000</vaccuracy>
<internetconnect>-1</internetconnect>
</trkpt>
<trkpt lat="35.081818" lon="136.436082">
<ele>951.000000</ele>
<time>2026-03-27T04:47:03Z</time>
<speed>0.000000</speed>
<trueHeading>0.000000</trueHeading>
<magneticHeading>0.000000</magneticHeading>
<gpsHeading>0.000000</gpsHeading>
<haccuracy>-1.000000</haccuracy>
<vaccuracy>-1.000000</vaccuracy>
<internetconnect>-1</internetconnect>
</trkpt>
<trkpt lat="35.081730" lon="136.436082">
<ele>949.000000</ele>
<time>2026-03-27T04:47:22Z</time>
<speed>0.000000</speed>
<trueHeading>0.000000</trueHeading>
<magneticHeading>0.000000</magneticHeading>
<gpsHeading>0.000000</gpsHeading>
<haccuracy>-1.000000</haccuracy>
<vaccuracy>-1.000000</vaccuracy>
<internetconnect>-1</internetconnect>
</trkpt>
<trkpt lat="35.081629" lon="136.436082">
<ele>949.000000</ele>
<time>2026-03-27T04:47:43Z</time>
<speed>0.000000</speed>
<trueHeading>0.000000</trueHeading>
<magneticHeading>0.000000</magneticHeading>
<gpsHeading>0.000000</gpsHeading>
<haccuracy>-1.000000</haccuracy>
<vaccuracy>-1.000000</vaccuracy>
<internetconnect>-1</internetconnect>
</trkpt>
<trkpt lat="35.081550" lon="136.436103">
<ele>950.000000</ele>
<time>2026-03-27T04:48:00Z</time>
<speed>0.000000</speed>
<trueHeading>0.000000</trueHeading>
<magneticHeading>0.000000</magneticHeading>
<gpsHeading>0.000000</gpsHeading>
<haccuracy>-1.000000</haccuracy>
<vaccuracy>-1.000000</vaccuracy>
<internetconnect>-1</internetconnect>
</trkpt>
<trkpt lat="35.081379" lon="136.436173">
<ele>948.000000</ele>
<time>2026-03-27T04:48:38Z</time>
<speed>0.000000</speed>
<trueHeading>0.000000</trueHeading>
<magneticHeading>0.000000</magneticHeading>
<gpsHeading>0.000000</gpsHeading>
<haccuracy>-1.000000</haccuracy>
<vaccuracy>-1.000000</vaccuracy>
<internetconnect>-1</internetconnect>
</trkpt>
<trkpt lat="35.081208" lon="136.436210">
<ele>945.000000</ele>
<time>2026-03-27T04:49:15Z</time>
<speed>0.000000</speed>
<trueHeading>0.000000</trueHeading>
<magneticHeading>0.000000</magneticHeading>
<gpsHeading>0.000000</gpsHeading>
<haccuracy>-1.000000</haccuracy>
<vaccuracy>-1.000000</vaccuracy>
<internetconnect>-1</internetconnect>
</trkpt>
<trkpt lat="35.081085" lon="136.436232">
<ele>943.000000</ele>
<time>2026-03-27T04:49:41Z</time>
<speed>0.000000</speed>
<trueHeading>0.000000</trueHeading>
<magneticHeading>0.000000</magneticHeading>
<gpsHeading>0.000000</gpsHeading>
<haccuracy>-1.000000</haccuracy>
<vaccuracy>-1.000000</vaccuracy>
<internetconnect>-1</internetconnect>
</trkpt>
<trkpt lat="35.080997" lon="136.436226">
<ele>946.000000</ele>
<time>2026-03-27T04:50:00Z</time>
<speed>0.000000</speed>
<trueHeading>0.000000</trueHeading>
<magneticHeading>0.000000</magneticHeading>
<gpsHeading>0.000000</gpsHeading>
<haccuracy>-1.000000</haccuracy>
<vaccuracy>-1.000000</vaccuracy>
<internetconnect>-1</internetconnect>
</trkpt>
<trkpt lat="35.080905" lon="136.436210">
<ele>947.000000</ele>
<time>2026-03-27T04:50:00Z</time>
<speed>0.000000</speed>
<trueHeading>0.000000</trueHeading>
<magneticHeading>0.000000</magneticHeading>
<gpsHeading>0.000000</gpsHeading>
<haccuracy>-1.000000</haccuracy>
<vaccuracy>-1.000000</vaccuracy>
<internetconnect>-1</internetconnect>
</trkpt>
<trkpt lat="35.080830" lon="136.436189">
<ele>951.000000</ele>
<time>2026-03-27T04:50:28Z</time>
<speed>0.000000</speed>
<trueHeading>0.000000</trueHeading>
<magneticHeading>0.000000</magneticHeading>
<gpsHeading>0.000000</gpsHeading>
<haccuracy>-1.000000</haccuracy>
<vaccuracy>-1.000000</vaccuracy>
<internetconnect>-1</internetconnect>
</trkpt>
<trkpt lat="35.080764" lon="136.436108">
<ele>955.000000</ele>
<time>2026-03-27T04:51:03Z</time>
<speed>0.000000</speed>
<trueHeading>0.000000</trueHeading>
<magneticHeading>0.000000</magneticHeading>
<gpsHeading>0.000000</gpsHeading>
<haccuracy>-1.000000</haccuracy>
<vaccuracy>-1.000000</vaccuracy>
<internetconnect>-1</internetconnect>
</trkpt>
<trkpt lat="35.080676" lon="136.436049">
<ele>959.000000</ele>
<time>2026-03-27T04:51:41Z</time>
<speed>0.000000</speed>
<trueHeading>0.000000</trueHeading>
<magneticHeading>0.000000</magneticHeading>
<gpsHeading>0.000000</gpsHeading>
<haccuracy>-1.000000</haccuracy>
<vaccuracy>-1.000000</vaccuracy>
<internetconnect>-1</internetconnect>
</trkpt>
<trkpt lat="35.080571" lon="136.436044">
<ele>962.000000</ele>
<time>2026-03-27T04:52:20Z</time>
<speed>0.000000</speed>
<trueHeading>0.000000</trueHeading>
<magneticHeading>0.000000</magneticHeading>
<gpsHeading>0.000000</gpsHeading>
<haccuracy>-1.000000</haccuracy>
<vaccuracy>-1.000000</vaccuracy>
<internetconnect>-1</internetconnect>
</trkpt>
<trkpt lat="35.080422" lon="136.436082">
<ele>964.000000</ele>
<time>2026-03-27T04:53:17Z</time>
<speed>0.000000</speed>
<trueHeading>0.000000</trueHeading>
<magneticHeading>0.000000</magneticHeading>
<gpsHeading>0.000000</gpsHeading>
<haccuracy>-1.000000</haccuracy>
<vaccuracy>-1.000000</vaccuracy>
<internetconnect>-1</internetconnect>
</trkpt>
<trkpt lat="35.080308" lon="136.436098">
<ele>967.000000</ele>
<time>2026-03-27T04:54:00Z</time>
<speed>0.000000</speed>
<trueHeading>0.000000</trueHeading>
<magneticHeading>0.000000</magneticHeading>
<gpsHeading>0.000000</gpsHeading>
<haccuracy>-1.000000</haccuracy>
<vaccuracy>-1.000000</vaccuracy>
<internetconnect>-1</internetconnect>
</trkpt>
<trkpt lat="35.080163" lon="136.436039">
<ele>969.000000</ele>
<time>2026-03-27T04:54:57Z</time>
<speed>0.000000</speed>
<trueHeading>0.000000</trueHeading>
<magneticHeading>0.000000</magneticHeading>
<gpsHeading>0.000000</gpsHeading>
<haccuracy>-1.000000</haccuracy>
<vaccuracy>-1.000000</vaccuracy>
<internetconnect>-1</internetconnect>
</trkpt>
<trkpt lat="35.080071" lon="136.436001">
<ele>969.000000</ele>
<time>2026-03-27T04:55:34Z</time>
<speed>0.000000</speed>
<trueHeading>0.000000</trueHeading>
<magneticHeading>0.000000</magneticHeading>
<gpsHeading>0.000000</gpsHeading>
<haccuracy>-1.000000</haccuracy>
<vaccuracy>-1.000000</vaccuracy>
<internetconnect>-1</internetconnect>
</trkpt>
<trkpt lat="35.079996" lon="136.435937">
<ele>971.000000</ele>
<time>2026-03-27T04:56:08Z</time>
<speed>0.000000</speed>
<trueHeading>0.000000</trueHeading>
<magneticHeading>0.000000</magneticHeading>
<gpsHeading>0.000000</gpsHeading>
<haccuracy>-1.000000</haccuracy>
<vaccuracy>-1.000000</vaccuracy>
<internetconnect>-1</internetconnect>
</trkpt>
<trkpt lat="35.079926" lon="136.435856">
<ele>975.000000</ele>
<time>2026-03-27T04:56:44Z</time>
<speed>0.000000</speed>
<trueHeading>0.000000</trueHeading>
<magneticHeading>0.000000</magneticHeading>
<gpsHeading>0.000000</gpsHeading>
<haccuracy>-1.000000</haccuracy>
<vaccuracy>-1.000000</vaccuracy>
<internetconnect>-1</internetconnect>
</trkpt>
<trkpt lat="35.079825" lon="136.435808">
<ele>979.000000</ele>
<time>2026-03-27T04:57:25Z</time>
<speed>0.000000</speed>
<trueHeading>0.000000</trueHeading>
<magneticHeading>0.000000</magneticHeading>
<gpsHeading>0.000000</gpsHeading>
<haccuracy>-1.000000</haccuracy>
<vaccuracy>-1.000000</vaccuracy>
<internetconnect>-1</internetconnect>
</trkpt>
<trkpt lat="35.079733" lon="136.435819">
<ele>982.000000</ele>
<time>2026-03-27T04:58:00Z</time>
<speed>0.000000</speed>
<trueHeading>0.000000</trueHeading>
<magneticHeading>0.000000</magneticHeading>
<gpsHeading>0.000000</gpsHeading>
<haccuracy>-1.000000</haccuracy>
<vaccuracy>-1.000000</vaccuracy>
<internetconnect>-1</internetconnect>
</trkpt>
<trkpt lat="35.079741" lon="136.435937">
<ele>979.000000</ele>
<time>2026-03-27T04:58:00Z</time>
<speed>0.000000</speed>
<trueHeading>0.000000</trueHeading>
<magneticHeading>0.000000</magneticHeading>
<gpsHeading>0.000000</gpsHeading>
<haccuracy>-1.000000</haccuracy>
<vaccuracy>-1.000000</vaccuracy>
<internetconnect>-1</internetconnect>
</trkpt>
<trkpt lat="35.079741" lon="136.436028">
<ele>977.000000</ele>
<time>2026-03-27T04:58:13Z</time>
<speed>0.000000</speed>
<trueHeading>0.000000</trueHeading>
<magneticHeading>0.000000</magneticHeading>
<gpsHeading>0.000000</gpsHeading>
<haccuracy>-1.000000</haccuracy>
<vaccuracy>-1.000000</vaccuracy>
<internetconnect>-1</internetconnect>
</trkpt>
<trkpt lat="35.079733" lon="136.436103">
<ele>975.000000</ele>
<time>2026-03-27T04:58:25Z</time>
<speed>0.000000</speed>
<trueHeading>0.000000</trueHeading>
<magneticHeading>0.000000</magneticHeading>
<gpsHeading>0.000000</gpsHeading>
<haccuracy>-1.000000</haccuracy>
<vaccuracy>-1.000000</vaccuracy>
<internetconnect>-1</internetconnect>
</trkpt>
<trkpt lat="35.079697" lon="136.436183">
<ele>970.000000</ele>
<time>2026-03-27T04:58:39Z</time>
<speed>0.000000</speed>
<trueHeading>0.000000</trueHeading>
<magneticHeading>0.000000</magneticHeading>
<gpsHeading>0.000000</gpsHeading>
<haccuracy>-1.000000</haccuracy>
<vaccuracy>-1.000000</vaccuracy>
<internetconnect>-1</internetconnect>
</trkpt>
<trkpt lat="35.079645" lon="136.436253">
<ele>967.000000</ele>
<time>2026-03-27T04:58:54Z</time>
<speed>0.000000</speed>
<trueHeading>0.000000</trueHeading>
<magneticHeading>0.000000</magneticHeading>
<gpsHeading>0.000000</gpsHeading>
<haccuracy>-1.000000</haccuracy>
<vaccuracy>-1.000000</vaccuracy>
<internetconnect>-1</internetconnect>
</trkpt>
<trkpt lat="35.079535" lon="136.436318">
<ele>965.000000</ele>
<time>2026-03-27T04:59:16Z</time>
<speed>0.000000</speed>
<trueHeading>0.000000</trueHeading>
<magneticHeading>0.000000</magneticHeading>
<gpsHeading>0.000000</gpsHeading>
<haccuracy>-1.000000</haccuracy>
<vaccuracy>-1.000000</vaccuracy>
<internetconnect>-1</internetconnect>
</trkpt>
<trkpt lat="35.079416" lon="136.436371">
<ele>964.000000</ele>
<time>2026-03-27T04:59:40Z</time>
<speed>0.000000</speed>
<trueHeading>0.000000</trueHeading>
<magneticHeading>0.000000</magneticHeading>
<gpsHeading>0.000000</gpsHeading>
<haccuracy>-1.000000</haccuracy>
<vaccuracy>-1.000000</vaccuracy>
<internetconnect>-1</internetconnect>
</trkpt>
<trkpt lat="35.079307" lon="136.436409">
<ele>962.000000</ele>
<time>2026-03-27T05:00:01Z</time>
<speed>0.000000</speed>
<trueHeading>0.000000</trueHeading>
<magneticHeading>0.000000</magneticHeading>
<gpsHeading>0.000000</gpsHeading>
<haccuracy>-1.000000</haccuracy>
<vaccuracy>-1.000000</vaccuracy>
<internetconnect>-1</internetconnect>
</trkpt>
<trkpt lat="35.079184" lon="136.436430">
<ele>961.000000</ele>
<time>2026-03-27T05:00:24Z</time>
<speed>0.000000</speed>
<trueHeading>0.000000</trueHeading>
<magneticHeading>0.000000</magneticHeading>
<gpsHeading>0.000000</gpsHeading>
<haccuracy>-1.000000</haccuracy>
<vaccuracy>-1.000000</vaccuracy>
<internetconnect>-1</internetconnect>
</trkpt>
<trkpt lat="35.079127" lon="136.436473">
<ele>957.000000</ele>
<time>2026-03-27T05:00:37Z</time>
<speed>0.000000</speed>
<trueHeading>0.000000</trueHeading>
<magneticHeading>0.000000</magneticHeading>
<gpsHeading>0.000000</gpsHeading>
<haccuracy>-1.000000</haccuracy>
<vaccuracy>-1.000000</vaccuracy>
<internetconnect>-1</internetconnect>
</trkpt>
<trkpt lat="35.079070" lon="136.436505">
<ele>956.000000</ele>
<time>2026-03-27T05:00:49Z</time>
<speed>0.000000</speed>
<trueHeading>0.000000</trueHeading>
<magneticHeading>0.000000</magneticHeading>
<gpsHeading>0.000000</gpsHeading>
<haccuracy>-1.000000</haccuracy>
<vaccuracy>-1.000000</vaccuracy>
<internetconnect>-1</internetconnect>
</trkpt>
<trkpt lat="35.079026" lon="136.436559">
<ele>956.000000</ele>
<time>2026-03-27T05:01:00Z</time>
<speed>0.000000</speed>
<trueHeading>0.000000</trueHeading>
<magneticHeading>0.000000</magneticHeading>
<gpsHeading>0.000000</gpsHeading>
<haccuracy>-1.000000</haccuracy>
<vaccuracy>-1.000000</vaccuracy>
<internetconnect>-1</internetconnect>
</trkpt>
<trkpt lat="35.079021" lon="136.436672">
<ele>953.000000</ele>
<time>2026-03-27T05:01:18Z</time>
<speed>0.000000</speed>
<trueHeading>0.000000</trueHeading>
<magneticHeading>0.000000</magneticHeading>
<gpsHeading>0.000000</gpsHeading>
<haccuracy>-1.000000</haccuracy>
<vaccuracy>-1.000000</vaccuracy>
<internetconnect>-1</internetconnect>
</trkpt>
<trkpt lat="35.078999" lon="136.436752">
<ele>949.000000</ele>
<time>2026-03-27T05:01:31Z</time>
<speed>0.000000</speed>
<trueHeading>0.000000</trueHeading>
<magneticHeading>0.000000</magneticHeading>
<gpsHeading>0.000000</gpsHeading>
<haccuracy>-1.000000</haccuracy>
<vaccuracy>-1.000000</vaccuracy>
<internetconnect>-1</internetconnect>
</trkpt>
<trkpt lat="35.078955" lon="136.436774">
<ele>949.000000</ele>
<time>2026-03-27T05:01:39Z</time>
<speed>0.000000</speed>
<trueHeading>0.000000</trueHeading>
<magneticHeading>0.000000</magneticHeading>
<gpsHeading>0.000000</gpsHeading>
<haccuracy>-1.000000</haccuracy>
<vaccuracy>-1.000000</vaccuracy>
<internetconnect>-1</internetconnect>
</trkpt>
<trkpt lat="35.078863" lon="136.436774">
<ele>949.000000</ele>
<time>2026-03-27T05:01:57Z</time>
<speed>0.000000</speed>
<trueHeading>0.000000</trueHeading>
<magneticHeading>0.000000</magneticHeading>
<gpsHeading>0.000000</gpsHeading>
<haccuracy>-1.000000</haccuracy>
<vaccuracy>-1.000000</vaccuracy>
<internetconnect>-1</internetconnect>
</trkpt>
<trkpt lat="35.078789" lon="136.436795">
<ele>949.000000</ele>
<time>2026-03-27T05:02:11Z</time>
<speed>0.000000</speed>
<trueHeading>0.000000</trueHeading>
<magneticHeading>0.000000</magneticHeading>
<gpsHeading>0.000000</gpsHeading>
<haccuracy>-1.000000</haccuracy>
<vaccuracy>-1.000000</vaccuracy>
<internetconnect>-1</internetconnect>
</trkpt>
<trkpt lat="35.078732" lon="136.436833">
<ele>947.000000</ele>
<time>2026-03-27T05:02:23Z</time>
<speed>0.000000</speed>
<trueHeading>0.000000</trueHeading>
<magneticHeading>0.000000</magneticHeading>
<gpsHeading>0.000000</gpsHeading>
<haccuracy>-1.000000</haccuracy>
<vaccuracy>-1.000000</vaccuracy>
<internetconnect>-1</internetconnect>
</trkpt>
<trkpt lat="35.078688" lon="136.436913">
<ele>946.000000</ele>
<time>2026-03-27T05:02:38Z</time>
<speed>0.000000</speed>
<trueHeading>0.000000</trueHeading>
<magneticHeading>0.000000</magneticHeading>
<gpsHeading>0.000000</gpsHeading>
<haccuracy>-1.000000</haccuracy>
<vaccuracy>-1.000000</vaccuracy>
<internetconnect>-1</internetconnect>
</trkpt>
<trkpt lat="35.078626" lon="136.437010">
<ele>946.000000</ele>
<time>2026-03-27T05:02:57Z</time>
<speed>0.000000</speed>
<trueHeading>0.000000</trueHeading>
<magneticHeading>0.000000</magneticHeading>
<gpsHeading>0.000000</gpsHeading>
<haccuracy>-1.000000</haccuracy>
<vaccuracy>-1.000000</vaccuracy>
<internetconnect>-1</internetconnect>
</trkpt>
<trkpt lat="35.078560" lon="136.437085">
<ele>946.000000</ele>
<time>2026-03-27T05:03:13Z</time>
<speed>0.000000</speed>
<trueHeading>0.000000</trueHeading>
<magneticHeading>0.000000</magneticHeading>
<gpsHeading>0.000000</gpsHeading>
<haccuracy>-1.000000</haccuracy>
<vaccuracy>-1.000000</vaccuracy>
<internetconnect>-1</internetconnect>
</trkpt>
<trkpt lat="35.078468" lon="136.437111">
<ele>945.000000</ele>
<time>2026-03-27T05:03:31Z</time>
<speed>0.000000</speed>
<trueHeading>0.000000</trueHeading>
<magneticHeading>0.000000</magneticHeading>
<gpsHeading>0.000000</gpsHeading>
<haccuracy>-1.000000</haccuracy>
<vaccuracy>-1.000000</vaccuracy>
<internetconnect>-1</internetconnect>
</trkpt>
<trkpt lat="35.078319" lon="136.437149">
<ele>948.000000</ele>
<time>2026-03-27T05:04:00Z</time>
<speed>0.000000</speed>
<trueHeading>0.000000</trueHeading>
<magneticHeading>0.000000</magneticHeading>
<gpsHeading>0.000000</gpsHeading>
<haccuracy>-1.000000</haccuracy>
<vaccuracy>-1.000000</vaccuracy>
<internetconnect>-1</internetconnect>
</trkpt>
<trkpt lat="35.078271" lon="136.437176">
<ele>947.000000</ele>
<time>2026-03-27T05:04:00Z</time>
<speed>0.000000</speed>
<trueHeading>0.000000</trueHeading>
<magneticHeading>0.000000</magneticHeading>
<gpsHeading>0.000000</gpsHeading>
<haccuracy>-1.000000</haccuracy>
<vaccuracy>-1.000000</vaccuracy>
<internetconnect>-1</internetconnect>
</trkpt>
<trkpt lat="35.078205" lon="136.437246">
<ele>948.000000</ele>
<time>2026-03-27T05:04:20Z</time>
<speed>0.000000</speed>
<trueHeading>0.000000</trueHeading>
<magneticHeading>0.000000</magneticHeading>
<gpsHeading>0.000000</gpsHeading>
<haccuracy>-1.000000</haccuracy>
<vaccuracy>-1.000000</vaccuracy>
<internetconnect>-1</internetconnect>
</trkpt>
<trkpt lat="35.078139" lon="136.437321">
<ele>949.000000</ele>
<time>2026-03-27T05:04:41Z</time>
<speed>0.000000</speed>
<trueHeading>0.000000</trueHeading>
<magneticHeading>0.000000</magneticHeading>
<gpsHeading>0.000000</gpsHeading>
<haccuracy>-1.000000</haccuracy>
<vaccuracy>-1.000000</vaccuracy>
<internetconnect>-1</internetconnect>
</trkpt>
<trkpt lat="35.078069" lon="136.437423">
<ele>946.000000</ele>
<time>2026-03-27T05:05:07Z</time>
<speed>0.000000</speed>
<trueHeading>0.000000</trueHeading>
<magneticHeading>0.000000</magneticHeading>
<gpsHeading>0.000000</gpsHeading>
<haccuracy>-1.000000</haccuracy>
<vaccuracy>-1.000000</vaccuracy>
<internetconnect>-1</internetconnect>
</trkpt>
<trkpt lat="35.078003" lon="136.437492">
<ele>944.000000</ele>
<time>2026-03-27T05:05:27Z</time>
<speed>0.000000</speed>
<trueHeading>0.000000</trueHeading>
<magneticHeading>0.000000</magneticHeading>
<gpsHeading>0.000000</gpsHeading>
<haccuracy>-1.000000</haccuracy>
<vaccuracy>-1.000000</vaccuracy>
<internetconnect>-1</internetconnect>
</trkpt>
<trkpt lat="35.077893" lon="136.437541">
<ele>945.000000</ele>
<time>2026-03-27T05:05:54Z</time>
<speed>0.000000</speed>
<trueHeading>0.000000</trueHeading>
<magneticHeading>0.000000</magneticHeading>
<gpsHeading>0.000000</gpsHeading>
<haccuracy>-1.000000</haccuracy>
<vaccuracy>-1.000000</vaccuracy>
<internetconnect>-1</internetconnect>
</trkpt>
<trkpt lat="35.077805" lon="136.437557">
<ele>945.000000</ele>
<time>2026-03-27T05:06:15Z</time>
<speed>0.000000</speed>
<trueHeading>0.000000</trueHeading>
<magneticHeading>0.000000</magneticHeading>
<gpsHeading>0.000000</gpsHeading>
<haccuracy>-1.000000</haccuracy>
<vaccuracy>-1.000000</vaccuracy>
<internetconnect>-1</internetconnect>
</trkpt>
<trkpt lat="35.077687" lon="136.437557">
<ele>945.000000</ele>
<time>2026-03-27T05:06:43Z</time>
<speed>0.000000</speed>
<trueHeading>0.000000</trueHeading>
<magneticHeading>0.000000</magneticHeading>
<gpsHeading>0.000000</gpsHeading>
<haccuracy>-1.000000</haccuracy>
<vaccuracy>-1.000000</vaccuracy>
<internetconnect>-1</internetconnect>
</trkpt>
<trkpt lat="35.077603" lon="136.437573">
<ele>949.000000</ele>
<time>2026-03-27T05:07:03Z</time>
<speed>0.000000</speed>
<trueHeading>0.000000</trueHeading>
<magneticHeading>0.000000</magneticHeading>
<gpsHeading>0.000000</gpsHeading>
<haccuracy>-1.000000</haccuracy>
<vaccuracy>-1.000000</vaccuracy>
<internetconnect>-1</internetconnect>
</trkpt>
<trkpt lat="35.077524" lon="136.437626">
<ele>948.000000</ele>
<time>2026-03-27T05:07:24Z</time>
<speed>0.000000</speed>
<trueHeading>0.000000</trueHeading>
<magneticHeading>0.000000</magneticHeading>
<gpsHeading>0.000000</gpsHeading>
<haccuracy>-1.000000</haccuracy>
<vaccuracy>-1.000000</vaccuracy>
<internetconnect>-1</internetconnect>
</trkpt>
<trkpt lat="35.077437" lon="136.437734">
<ele>955.000000</ele>
<time>2026-03-27T05:07:53Z</time>
<speed>0.000000</speed>
<trueHeading>0.000000</trueHeading>
<magneticHeading>0.000000</magneticHeading>
<gpsHeading>0.000000</gpsHeading>
<haccuracy>-1.000000</haccuracy>
<vaccuracy>-1.000000</vaccuracy>
<internetconnect>-1</internetconnect>
</trkpt>
<trkpt lat="35.077371" lon="136.437825">
<ele>959.000000</ele>
<time>2026-03-27T05:08:17Z</time>
<speed>0.000000</speed>
<trueHeading>0.000000</trueHeading>
<magneticHeading>0.000000</magneticHeading>
<gpsHeading>0.000000</gpsHeading>
<haccuracy>-1.000000</haccuracy>
<vaccuracy>-1.000000</vaccuracy>
<internetconnect>-1</internetconnect>
</trkpt>
<trkpt lat="35.077296" lon="136.437905">
<ele>962.000000</ele>
<time>2026-03-27T05:08:40Z</time>
<speed>0.000000</speed>
<trueHeading>0.000000</trueHeading>
<magneticHeading>0.000000</magneticHeading>
<gpsHeading>0.000000</gpsHeading>
<haccuracy>-1.000000</haccuracy>
<vaccuracy>-1.000000</vaccuracy>
<internetconnect>-1</internetconnect>
</trkpt>
<trkpt lat="35.077239" lon="136.437932">
<ele>962.000000</ele>
<time>2026-03-27T05:08:54Z</time>
<speed>0.000000</speed>
<trueHeading>0.000000</trueHeading>
<magneticHeading>0.000000</magneticHeading>
<gpsHeading>0.000000</gpsHeading>
<haccuracy>-1.000000</haccuracy>
<vaccuracy>-1.000000</vaccuracy>
<internetconnect>-1</internetconnect>
</trkpt>
<trkpt lat="35.077178" lon="136.437927">
<ele>963.000000</ele>
<time>2026-03-27T05:09:09Z</time>
<speed>0.000000</speed>
<trueHeading>0.000000</trueHeading>
<magneticHeading>0.000000</magneticHeading>
<gpsHeading>0.000000</gpsHeading>
<haccuracy>-1.000000</haccuracy>
<vaccuracy>-1.000000</vaccuracy>
<internetconnect>-1</internetconnect>
</trkpt>
<trkpt lat="35.077120" lon="136.437900">
<ele>967.000000</ele>
<time>2026-03-27T05:09:23Z</time>
<speed>0.000000</speed>
<trueHeading>0.000000</trueHeading>
<magneticHeading>0.000000</magneticHeading>
<gpsHeading>0.000000</gpsHeading>
<haccuracy>-1.000000</haccuracy>
<vaccuracy>-1.000000</vaccuracy>
<internetconnect>-1</internetconnect>
</trkpt>
<trkpt lat="35.077068" lon="136.437879">
<ele>971.000000</ele>
<time>2026-03-27T05:09:36Z</time>
<speed>0.000000</speed>
<trueHeading>0.000000</trueHeading>
<magneticHeading>0.000000</magneticHeading>
<gpsHeading>0.000000</gpsHeading>
<haccuracy>-1.000000</haccuracy>
<vaccuracy>-1.000000</vaccuracy>
<internetconnect>-1</internetconnect>
</trkpt>
<trkpt lat="35.077011" lon="136.437863">
<ele>972.000000</ele>
<time>2026-03-27T05:09:50Z</time>
<speed>0.000000</speed>
<trueHeading>0.000000</trueHeading>
<magneticHeading>0.000000</magneticHeading>
<gpsHeading>0.000000</gpsHeading>
<haccuracy>-1.000000</haccuracy>
<vaccuracy>-1.000000</vaccuracy>
<internetconnect>-1</internetconnect>
</trkpt>
<trkpt lat="35.076962" lon="136.437873">
<ele>976.000000</ele>
<time>2026-03-27T05:10:01Z</time>
<speed>0.000000</speed>
<trueHeading>0.000000</trueHeading>
<magneticHeading>0.000000</magneticHeading>
<gpsHeading>0.000000</gpsHeading>
<haccuracy>-1.000000</haccuracy>
<vaccuracy>-1.000000</vaccuracy>
<internetconnect>-1</internetconnect>
</trkpt>
<trkpt lat="35.076879" lon="136.437932">
<ele>973.000000</ele>
<time>2026-03-27T05:10:24Z</time>
<speed>0.000000</speed>
<trueHeading>0.000000</trueHeading>
<magneticHeading>0.000000</magneticHeading>
<gpsHeading>0.000000</gpsHeading>
<haccuracy>-1.000000</haccuracy>
<vaccuracy>-1.000000</vaccuracy>
<internetconnect>-1</internetconnect>
</trkpt>
<trkpt lat="35.076791" lon="136.437981">
<ele>974.000000</ele>
<time>2026-03-27T05:10:46Z</time>
<speed>0.000000</speed>
<trueHeading>0.000000</trueHeading>
<magneticHeading>0.000000</magneticHeading>
<gpsHeading>0.000000</gpsHeading>
<haccuracy>-1.000000</haccuracy>
<vaccuracy>-1.000000</vaccuracy>
<internetconnect>-1</internetconnect>
</trkpt>
<trkpt lat="35.076677" lon="136.438040">
<ele>982.000000</ele>
<time>2026-03-27T05:11:15Z</time>
<speed>0.000000</speed>
<trueHeading>0.000000</trueHeading>
<magneticHeading>0.000000</magneticHeading>
<gpsHeading>0.000000</gpsHeading>
<haccuracy>-1.000000</haccuracy>
<vaccuracy>-1.000000</vaccuracy>
<internetconnect>-1</internetconnect>
</trkpt>
<trkpt lat="35.076620" lon="136.438093">
<ele>981.000000</ele>
<time>2026-03-27T05:11:32Z</time>
<speed>0.000000</speed>
<trueHeading>0.000000</trueHeading>
<magneticHeading>0.000000</magneticHeading>
<gpsHeading>0.000000</gpsHeading>
<haccuracy>-1.000000</haccuracy>
<vaccuracy>-1.000000</vaccuracy>
<internetconnect>-1</internetconnect>
</trkpt>
<trkpt lat="35.076585" lon="136.438163">
<ele>981.000000</ele>
<time>2026-03-27T05:11:48Z</time>
<speed>0.000000</speed>
<trueHeading>0.000000</trueHeading>
<magneticHeading>0.000000</magneticHeading>
<gpsHeading>0.000000</gpsHeading>
<haccuracy>-1.000000</haccuracy>
<vaccuracy>-1.000000</vaccuracy>
<internetconnect>-1</internetconnect>
</trkpt>
<trkpt lat="35.076572" lon="136.438238">
<ele>981.000000</ele>
<time>2026-03-27T05:12:03Z</time>
<speed>0.000000</speed>
<trueHeading>0.000000</trueHeading>
<magneticHeading>0.000000</magneticHeading>
<gpsHeading>0.000000</gpsHeading>
<haccuracy>-1.000000</haccuracy>
<vaccuracy>-1.000000</vaccuracy>
<internetconnect>-1</internetconnect>
</trkpt>
<trkpt lat="35.076567" lon="136.438361">
<ele>978.000000</ele>
<time>2026-03-27T05:12:27Z</time>
<speed>0.000000</speed>
<trueHeading>0.000000</trueHeading>
<magneticHeading>0.000000</magneticHeading>
<gpsHeading>0.000000</gpsHeading>
<haccuracy>-1.000000</haccuracy>
<vaccuracy>-1.000000</vaccuracy>
<internetconnect>-1</internetconnect>
</trkpt>
<trkpt lat="35.076563" lon="136.438442">
<ele>977.000000</ele>
<time>2026-03-27T05:12:42Z</time>
<speed>0.000000</speed>
<trueHeading>0.000000</trueHeading>
<magneticHeading>0.000000</magneticHeading>
<gpsHeading>0.000000</gpsHeading>
<haccuracy>-1.000000</haccuracy>
<vaccuracy>-1.000000</vaccuracy>
<internetconnect>-1</internetconnect>
</trkpt>
<trkpt lat="35.076537" lon="136.438522">
<ele>977.000000</ele>
<time>2026-03-27T05:12:59Z</time>
<speed>0.000000</speed>
<trueHeading>0.000000</trueHeading>
<magneticHeading>0.000000</magneticHeading>
<gpsHeading>0.000000</gpsHeading>
<haccuracy>-1.000000</haccuracy>
<vaccuracy>-1.000000</vaccuracy>
<internetconnect>-1</internetconnect>
</trkpt>
<trkpt lat="35.076501" lon="136.438587">
<ele>977.000000</ele>
<time>2026-03-27T05:13:14Z</time>
<speed>0.000000</speed>
<trueHeading>0.000000</trueHeading>
<magneticHeading>0.000000</magneticHeading>
<gpsHeading>0.000000</gpsHeading>
<haccuracy>-1.000000</haccuracy>
<vaccuracy>-1.000000</vaccuracy>
<internetconnect>-1</internetconnect>
</trkpt>
<trkpt lat="35.076427" lon="136.438689">
<ele>976.000000</ele>
<time>2026-03-27T05:13:40Z</time>
<speed>0.000000</speed>
<trueHeading>0.000000</trueHeading>
<magneticHeading>0.000000</magneticHeading>
<gpsHeading>0.000000</gpsHeading>
<haccuracy>-1.000000</haccuracy>
<vaccuracy>-1.000000</vaccuracy>
<internetconnect>-1</internetconnect>
</trkpt>
<trkpt lat="35.076343" lon="136.438801">
<ele>976.000000</ele>
<time>2026-03-27T05:14:09Z</time>
<speed>0.000000</speed>
<trueHeading>0.000000</trueHeading>
<magneticHeading>0.000000</magneticHeading>
<gpsHeading>0.000000</gpsHeading>
<haccuracy>-1.000000</haccuracy>
<vaccuracy>-1.000000</vaccuracy>
<internetconnect>-1</internetconnect>
</trkpt>
<trkpt lat="35.076264" lon="136.438909">
<ele>974.000000</ele>
<time>2026-03-27T05:14:37Z</time>
<speed>0.000000</speed>
<trueHeading>0.000000</trueHeading>
<magneticHeading>0.000000</magneticHeading>
<gpsHeading>0.000000</gpsHeading>
<haccuracy>-1.000000</haccuracy>
<vaccuracy>-1.000000</vaccuracy>
<internetconnect>-1</internetconnect>
</trkpt>
<trkpt lat="35.076172" lon="136.439075">
<ele>975.000000</ele>
<time>2026-03-27T05:15:16Z</time>
<speed>0.000000</speed>
<trueHeading>0.000000</trueHeading>
<magneticHeading>0.000000</magneticHeading>
<gpsHeading>0.000000</gpsHeading>
<haccuracy>-1.000000</haccuracy>
<vaccuracy>-1.000000</vaccuracy>
<internetconnect>-1</internetconnect>
</trkpt>
<trkpt lat="35.076076" lon="136.439230">
<ele>974.000000</ele>
<time>2026-03-27T05:15:53Z</time>
<speed>0.000000</speed>
<trueHeading>0.000000</trueHeading>
<magneticHeading>0.000000</magneticHeading>
<gpsHeading>0.000000</gpsHeading>
<haccuracy>-1.000000</haccuracy>
<vaccuracy>-1.000000</vaccuracy>
<internetconnect>-1</internetconnect>
</trkpt>
<trkpt lat="35.076058" lon="136.439255">
<ele>973.000000</ele>
<time>2026-03-27T05:16:00Z</time>
<speed>0.000000</speed>
<trueHeading>0.000000</trueHeading>
<magneticHeading>0.000000</magneticHeading>
<gpsHeading>0.000000</gpsHeading>
<haccuracy>-1.000000</haccuracy>
<vaccuracy>-1.000000</vaccuracy>
<internetconnect>-1</internetconnect>
</trkpt>
<trkpt lat="35.075957" lon="136.439397">
<ele>973.000000</ele>
<time>2026-03-27T05:16:00Z</time>
<speed>0.000000</speed>
<trueHeading>0.000000</trueHeading>
<magneticHeading>0.000000</magneticHeading>
<gpsHeading>0.000000</gpsHeading>
<haccuracy>-1.000000</haccuracy>
<vaccuracy>-1.000000</vaccuracy>
<internetconnect>-1</internetconnect>
</trkpt>
<trkpt lat="35.075790" lon="136.439579">
<ele>977.000000</ele>
<time>2026-03-27T05:16:42Z</time>
<speed>0.000000</speed>
<trueHeading>0.000000</trueHeading>
<magneticHeading>0.000000</magneticHeading>
<gpsHeading>0.000000</gpsHeading>
<haccuracy>-1.000000</haccuracy>
<vaccuracy>-1.000000</vaccuracy>
<internetconnect>-1</internetconnect>
</trkpt>
<trkpt lat="35.075645" lon="136.439772">
<ele>973.000000</ele>
<time>2026-03-27T05:17:23Z</time>
<speed>0.000000</speed>
<trueHeading>0.000000</trueHeading>
<magneticHeading>0.000000</magneticHeading>
<gpsHeading>0.000000</gpsHeading>
<haccuracy>-1.000000</haccuracy>
<vaccuracy>-1.000000</vaccuracy>
<internetconnect>-1</internetconnect>
</trkpt>
<trkpt lat="35.075562" lon="136.439874">
<ele>975.000000</ele>
<time>2026-03-27T05:17:45Z</time>
<speed>0.000000</speed>
<trueHeading>0.000000</trueHeading>
<magneticHeading>0.000000</magneticHeading>
<gpsHeading>0.000000</gpsHeading>
<haccuracy>-1.000000</haccuracy>
<vaccuracy>-1.000000</vaccuracy>
<internetconnect>-1</internetconnect>
</trkpt>
<trkpt lat="35.075487" lon="136.439949">
<ele>977.000000</ele>
<time>2026-03-27T05:18:03Z</time>
<speed>0.000000</speed>
<trueHeading>0.000000</trueHeading>
<magneticHeading>0.000000</magneticHeading>
<gpsHeading>0.000000</gpsHeading>
<haccuracy>-1.000000</haccuracy>
<vaccuracy>-1.000000</vaccuracy>
<internetconnect>-1</internetconnect>
</trkpt>
<trkpt lat="35.075430" lon="136.439987">
<ele>976.000000</ele>
<time>2026-03-27T05:18:16Z</time>
<speed>0.000000</speed>
<trueHeading>0.000000</trueHeading>
<magneticHeading>0.000000</magneticHeading>
<gpsHeading>0.000000</gpsHeading>
<haccuracy>-1.000000</haccuracy>
<vaccuracy>-1.000000</vaccuracy>
<internetconnect>-1</internetconnect>
</trkpt>
<trkpt lat="35.075347" lon="136.440014">
<ele>978.000000</ele>
<time>2026-03-27T05:18:32Z</time>
<speed>0.000000</speed>
<trueHeading>0.000000</trueHeading>
<magneticHeading>0.000000</magneticHeading>
<gpsHeading>0.000000</gpsHeading>
<haccuracy>-1.000000</haccuracy>
<vaccuracy>-1.000000</vaccuracy>
<internetconnect>-1</internetconnect>
</trkpt>
<trkpt lat="35.075255" lon="136.440019">
<ele>978.000000</ele>
<time>2026-03-27T05:18:49Z</time>
<speed>0.000000</speed>
<trueHeading>0.000000</trueHeading>
<magneticHeading>0.000000</magneticHeading>
<gpsHeading>0.000000</gpsHeading>
<haccuracy>-1.000000</haccuracy>
<vaccuracy>-1.000000</vaccuracy>
<internetconnect>-1</internetconnect>
</trkpt>
<trkpt lat="35.075189" lon="136.440040">
<ele>975.000000</ele>
<time>2026-03-27T05:19:02Z</time>
<speed>0.000000</speed>
<trueHeading>0.000000</trueHeading>
<magneticHeading>0.000000</magneticHeading>
<gpsHeading>0.000000</gpsHeading>
<haccuracy>-1.000000</haccuracy>
<vaccuracy>-1.000000</vaccuracy>
<internetconnect>-1</internetconnect>
</trkpt>
<trkpt lat="35.075132" lon="136.440073">
<ele>974.000000</ele>
<time>2026-03-27T05:19:14Z</time>
<speed>0.000000</speed>
<trueHeading>0.000000</trueHeading>
<magneticHeading>0.000000</magneticHeading>
<gpsHeading>0.000000</gpsHeading>
<haccuracy>-1.000000</haccuracy>
<vaccuracy>-1.000000</vaccuracy>
<internetconnect>-1</internetconnect>
</trkpt>
<trkpt lat="35.075044" lon="136.440137">
<ele>971.000000</ele>
<time>2026-03-27T05:19:33Z</time>
<speed>0.000000</speed>
<trueHeading>0.000000</trueHeading>
<magneticHeading>0.000000</magneticHeading>
<gpsHeading>0.000000</gpsHeading>
<haccuracy>-1.000000</haccuracy>
<vaccuracy>-1.000000</vaccuracy>
<internetconnect>-1</internetconnect>
</trkpt>
<trkpt lat="35.074917" lon="136.440260">
<ele>967.000000</ele>
<time>2026-03-27T05:20:04Z</time>
<speed>0.000000</speed>
<trueHeading>0.000000</trueHeading>
<magneticHeading>0.000000</magneticHeading>
<gpsHeading>0.000000</gpsHeading>
<haccuracy>-1.000000</haccuracy>
<vaccuracy>-1.000000</vaccuracy>
<internetconnect>-1</internetconnect>
</trkpt>
<trkpt lat="35.074789" lon="136.440395">
<ele>968.000000</ele>
<time>2026-03-27T05:20:36Z</time>
<speed>0.000000</speed>
<trueHeading>0.000000</trueHeading>
<magneticHeading>0.000000</magneticHeading>
<gpsHeading>0.000000</gpsHeading>
<haccuracy>-1.000000</haccuracy>
<vaccuracy>-1.000000</vaccuracy>
<internetconnect>-1</internetconnect>
</trkpt>
<trkpt lat="35.074693" lon="136.440480">
<ele>967.000000</ele>
<time>2026-03-27T05:20:59Z</time>
<speed>0.000000</speed>
<trueHeading>0.000000</trueHeading>
<magneticHeading>0.000000</magneticHeading>
<gpsHeading>0.000000</gpsHeading>
<haccuracy>-1.000000</haccuracy>
<vaccuracy>-1.000000</vaccuracy>
<internetconnect>-1</internetconnect>
</trkpt>
<trkpt lat="35.074689" lon="136.440482">
<ele>967.000000</ele>
<time>2026-03-27T05:21:00Z</time>
<speed>0.000000</speed>
<trueHeading>0.000000</trueHeading>
<magneticHeading>0.000000</magneticHeading>
<gpsHeading>0.000000</gpsHeading>
<haccuracy>-1.000000</haccuracy>
<vaccuracy>-1.000000</vaccuracy>
<internetconnect>-1</internetconnect>
</trkpt>
<trkpt lat="35.074627" lon="136.440513">
<ele>968.000000</ele>
<time>2026-03-27T05:21:00Z</time>
<speed>0.000000</speed>
<trueHeading>0.000000</trueHeading>
<magneticHeading>0.000000</magneticHeading>
<gpsHeading>0.000000</gpsHeading>
<haccuracy>-1.000000</haccuracy>
<vaccuracy>-1.000000</vaccuracy>
<internetconnect>-1</internetconnect>
</trkpt>
<trkpt lat="35.074539" lon="136.440529">
<ele>966.000000</ele>
<time>2026-03-27T05:21:25Z</time>
<speed>0.000000</speed>
<trueHeading>0.000000</trueHeading>
<magneticHeading>0.000000</magneticHeading>
<gpsHeading>0.000000</gpsHeading>
<haccuracy>-1.000000</haccuracy>
<vaccuracy>-1.000000</vaccuracy>
<internetconnect>-1</internetconnect>
</trkpt>
<trkpt lat="35.074478" lon="136.440523">
<ele>965.000000</ele>
<time>2026-03-27T05:21:43Z</time>
<speed>0.000000</speed>
<trueHeading>0.000000</trueHeading>
<magneticHeading>0.000000</magneticHeading>
<gpsHeading>0.000000</gpsHeading>
<haccuracy>-1.000000</haccuracy>
<vaccuracy>-1.000000</vaccuracy>
<internetconnect>-1</internetconnect>
</trkpt>
<trkpt lat="35.074381" lon="136.440507">
<ele>960.000000</ele>
<time>2026-03-27T05:22:11Z</time>
<speed>0.000000</speed>
<trueHeading>0.000000</trueHeading>
<magneticHeading>0.000000</magneticHeading>
<gpsHeading>0.000000</gpsHeading>
<haccuracy>-1.000000</haccuracy>
<vaccuracy>-1.000000</vaccuracy>
<internetconnect>-1</internetconnect>
</trkpt>
<trkpt lat="35.074232" lon="136.440480">
<ele>960.000000</ele>
<time>2026-03-27T05:22:54Z</time>
<speed>0.000000</speed>
<trueHeading>0.000000</trueHeading>
<magneticHeading>0.000000</magneticHeading>
<gpsHeading>0.000000</gpsHeading>
<haccuracy>-1.000000</haccuracy>
<vaccuracy>-1.000000</vaccuracy>
<internetconnect>-1</internetconnect>
</trkpt>
<trkpt lat="35.074100" lon="136.440470">
<ele>958.000000</ele>
<time>2026-03-27T05:23:32Z</time>
<speed>0.000000</speed>
<trueHeading>0.000000</trueHeading>
<magneticHeading>0.000000</magneticHeading>
<gpsHeading>0.000000</gpsHeading>
<haccuracy>-1.000000</haccuracy>
<vaccuracy>-1.000000</vaccuracy>
<internetconnect>-1</internetconnect>
</trkpt>
<trkpt lat="35.073977" lon="136.440448">
<ele>956.000000</ele>
<time>2026-03-27T05:24:07Z</time>
<speed>0.000000</speed>
<trueHeading>0.000000</trueHeading>
<magneticHeading>0.000000</magneticHeading>
<gpsHeading>0.000000</gpsHeading>
<haccuracy>-1.000000</haccuracy>
<vaccuracy>-1.000000</vaccuracy>
<internetconnect>-1</internetconnect>
</trkpt>
<trkpt lat="35.073889" lon="136.440416">
<ele>954.000000</ele>
<time>2026-03-27T05:24:34Z</time>
<speed>0.000000</speed>
<trueHeading>0.000000</trueHeading>
<magneticHeading>0.000000</magneticHeading>
<gpsHeading>0.000000</gpsHeading>
<haccuracy>-1.000000</haccuracy>
<vaccuracy>-1.000000</vaccuracy>
<internetconnect>-1</internetconnect>
</trkpt>
<trkpt lat="35.073832" lon="136.440378">
<ele>953.000000</ele>
<time>2026-03-27T05:24:52Z</time>
<speed>0.000000</speed>
<trueHeading>0.000000</trueHeading>
<magneticHeading>0.000000</magneticHeading>
<gpsHeading>0.000000</gpsHeading>
<haccuracy>-1.000000</haccuracy>
<vaccuracy>-1.000000</vaccuracy>
<internetconnect>-1</internetconnect>
</trkpt>
<trkpt lat="35.073727" lon="136.440282">
<ele>945.000000</ele>
<time>2026-03-27T05:25:30Z</time>
<speed>0.000000</speed>
<trueHeading>0.000000</trueHeading>
<magneticHeading>0.000000</magneticHeading>
<gpsHeading>0.000000</gpsHeading>
<haccuracy>-1.000000</haccuracy>
<vaccuracy>-1.000000</vaccuracy>
<internetconnect>-1</internetconnect>
</trkpt>
<trkpt lat="35.073635" lon="136.440191">
<ele>942.000000</ele>
<time>2026-03-27T05:26:04Z</time>
<speed>0.000000</speed>
<trueHeading>0.000000</trueHeading>
<magneticHeading>0.000000</magneticHeading>
<gpsHeading>0.000000</gpsHeading>
<haccuracy>-1.000000</haccuracy>
<vaccuracy>-1.000000</vaccuracy>
<internetconnect>-1</internetconnect>
</trkpt>
<trkpt lat="35.073560" lon="136.440142">
<ele>938.000000</ele>
<time>2026-03-27T05:26:28Z</time>
<speed>0.000000</speed>
<trueHeading>0.000000</trueHeading>
<magneticHeading>0.000000</magneticHeading>
<gpsHeading>0.000000</gpsHeading>
<haccuracy>-1.000000</haccuracy>
<vaccuracy>-1.000000</vaccuracy>
<internetconnect>-1</internetconnect>
</trkpt>
<trkpt lat="35.073472" lon="136.440110">
<ele>935.000000</ele>
<time>2026-03-27T05:26:55Z</time>
<speed>0.000000</speed>
<trueHeading>0.000000</trueHeading>
<magneticHeading>0.000000</magneticHeading>
<gpsHeading>0.000000</gpsHeading>
<haccuracy>-1.000000</haccuracy>
<vaccuracy>-1.000000</vaccuracy>
<internetconnect>-1</internetconnect>
</trkpt>
<trkpt lat="35.073406" lon="136.440099">
<ele>930.000000</ele>
<time>2026-03-27T05:27:14Z</time>
<speed>0.000000</speed>
<trueHeading>0.000000</trueHeading>
<magneticHeading>0.000000</magneticHeading>
<gpsHeading>0.000000</gpsHeading>
<haccuracy>-1.000000</haccuracy>
<vaccuracy>-1.000000</vaccuracy>
<internetconnect>-1</internetconnect>
</trkpt>
<trkpt lat="35.073239" lon="136.440116">
<ele>926.000000</ele>
<time>2026-03-27T05:28:02Z</time>
<speed>0.000000</speed>
<trueHeading>0.000000</trueHeading>
<magneticHeading>0.000000</magneticHeading>
<gpsHeading>0.000000</gpsHeading>
<haccuracy>-1.000000</haccuracy>
<vaccuracy>-1.000000</vaccuracy>
<internetconnect>-1</internetconnect>
</trkpt>
<trkpt lat="35.073152" lon="136.440110">
<ele>927.000000</ele>
<time>2026-03-27T05:28:27Z</time>
<speed>0.000000</speed>
<trueHeading>0.000000</trueHeading>
<magneticHeading>0.000000</magneticHeading>
<gpsHeading>0.000000</gpsHeading>
<haccuracy>-1.000000</haccuracy>
<vaccuracy>-1.000000</vaccuracy>
<internetconnect>-1</internetconnect>
</trkpt>
<trkpt lat="35.073064" lon="136.440083">
<ele>930.000000</ele>
<time>2026-03-27T05:28:53Z</time>
<speed>0.000000</speed>
<trueHeading>0.000000</trueHeading>
<magneticHeading>0.000000</magneticHeading>
<gpsHeading>0.000000</gpsHeading>
<haccuracy>-1.000000</haccuracy>
<vaccuracy>-1.000000</vaccuracy>
<internetconnect>-1</internetconnect>
</trkpt>
<trkpt lat="35.072985" lon="136.440024">
<ele>934.000000</ele>
<time>2026-03-27T05:29:20Z</time>
<speed>0.000000</speed>
<trueHeading>0.000000</trueHeading>
<magneticHeading>0.000000</magneticHeading>
<gpsHeading>0.000000</gpsHeading>
<haccuracy>-1.000000</haccuracy>
<vaccuracy>-1.000000</vaccuracy>
<internetconnect>-1</internetconnect>
</trkpt>
<trkpt lat="35.072897" lon="136.439955">
<ele>936.000000</ele>
<time>2026-03-27T05:29:50Z</time>
<speed>0.000000</speed>
<trueHeading>0.000000</trueHeading>
<magneticHeading>0.000000</magneticHeading>
<gpsHeading>0.000000</gpsHeading>
<haccuracy>-1.000000</haccuracy>
<vaccuracy>-1.000000</vaccuracy>
<internetconnect>-1</internetconnect>
</trkpt>
<trkpt lat="35.072735" lon="136.439880">
<ele>942.000000</ele>
<time>2026-03-27T05:30:39Z</time>
<speed>0.000000</speed>
<trueHeading>0.000000</trueHeading>
<magneticHeading>0.000000</magneticHeading>
<gpsHeading>0.000000</gpsHeading>
<haccuracy>-1.000000</haccuracy>
<vaccuracy>-1.000000</vaccuracy>
<internetconnect>-1</internetconnect>
</trkpt>
<trkpt lat="35.072620" lon="136.439842">
<ele>946.000000</ele>
<time>2026-03-27T05:31:13Z</time>
<speed>0.000000</speed>
<trueHeading>0.000000</trueHeading>
<magneticHeading>0.000000</magneticHeading>
<gpsHeading>0.000000</gpsHeading>
<haccuracy>-1.000000</haccuracy>
<vaccuracy>-1.000000</vaccuracy>
<internetconnect>-1</internetconnect>
</trkpt>
<trkpt lat="35.072502" lon="136.439831">
<ele>948.000000</ele>
<time>2026-03-27T05:31:47Z</time>
<speed>0.000000</speed>
<trueHeading>0.000000</trueHeading>
<magneticHeading>0.000000</magneticHeading>
<gpsHeading>0.000000</gpsHeading>
<haccuracy>-1.000000</haccuracy>
<vaccuracy>-1.000000</vaccuracy>
<internetconnect>-1</internetconnect>
</trkpt>
<trkpt lat="35.072418" lon="136.439837">
<ele>947.000000</ele>
<time>2026-03-27T05:32:11Z</time>
<speed>0.000000</speed>
<trueHeading>0.000000</trueHeading>
<magneticHeading>0.000000</magneticHeading>
<gpsHeading>0.000000</gpsHeading>
<haccuracy>-1.000000</haccuracy>
<vaccuracy>-1.000000</vaccuracy>
<internetconnect>-1</internetconnect>
</trkpt>
<trkpt lat="35.072309" lon="136.439885">
<ele>944.000000</ele>
<time>2026-03-27T05:32:45Z</time>
<speed>0.000000</speed>
<trueHeading>0.000000</trueHeading>
<magneticHeading>0.000000</magneticHeading>
<gpsHeading>0.000000</gpsHeading>
<haccuracy>-1.000000</haccuracy>
<vaccuracy>-1.000000</vaccuracy>
<internetconnect>-1</internetconnect>
</trkpt>
<trkpt lat="35.072089" lon="136.440030">
<ele>940.000000</ele>
<time>2026-03-27T05:33:57Z</time>
<speed>0.000000</speed>
<trueHeading>0.000000</trueHeading>
<magneticHeading>0.000000</magneticHeading>
<gpsHeading>0.000000</gpsHeading>
<haccuracy>-1.000000</haccuracy>
<vaccuracy>-1.000000</vaccuracy>
<internetconnect>-1</internetconnect>
</trkpt>
<trkpt lat="35.071914" lon="136.440132">
<ele>939.000000</ele>
<time>2026-03-27T05:34:52Z</time>
<speed>0.000000</speed>
<trueHeading>0.000000</trueHeading>
<magneticHeading>0.000000</magneticHeading>
<gpsHeading>0.000000</gpsHeading>
<haccuracy>-1.000000</haccuracy>
<vaccuracy>-1.000000</vaccuracy>
<internetconnect>-1</internetconnect>
</trkpt>
<trkpt lat="35.071712" lon="136.440239">
<ele>938.000000</ele>
<time>2026-03-27T05:35:56Z</time>
<speed>0.000000</speed>
<trueHeading>0.000000</trueHeading>
<magneticHeading>0.000000</magneticHeading>
<gpsHeading>0.000000</gpsHeading>
<haccuracy>-1.000000</haccuracy>
<vaccuracy>-1.000000</vaccuracy>
<internetconnect>-1</internetconnect>
</trkpt>
<trkpt lat="35.071562" lon="136.440325">
<ele>942.000000</ele>
<time>2026-03-27T05:36:43Z</time>
<speed>0.000000</speed>
<trueHeading>0.000000</trueHeading>
<magneticHeading>0.000000</magneticHeading>
<gpsHeading>0.000000</gpsHeading>
<haccuracy>-1.000000</haccuracy>
<vaccuracy>-1.000000</vaccuracy>
<internetconnect>-1</internetconnect>
</trkpt>
<trkpt lat="35.071422" lon="136.440421">
<ele>944.000000</ele>
<time>2026-03-27T05:37:29Z</time>
<speed>0.000000</speed>
<trueHeading>0.000000</trueHeading>
<magneticHeading>0.000000</magneticHeading>
<gpsHeading>0.000000</gpsHeading>
<haccuracy>-1.000000</haccuracy>
<vaccuracy>-1.000000</vaccuracy>
<internetconnect>-1</internetconnect>
</trkpt>
<trkpt lat="35.071286" lon="136.440486">
<ele>949.000000</ele>
<time>2026-03-27T05:38:11Z</time>
<speed>0.000000</speed>
<trueHeading>0.000000</trueHeading>
<magneticHeading>0.000000</magneticHeading>
<gpsHeading>0.000000</gpsHeading>
<haccuracy>-1.000000</haccuracy>
<vaccuracy>-1.000000</vaccuracy>
<internetconnect>-1</internetconnect>
</trkpt>
<trkpt lat="35.071136" lon="136.440539">
<ele>958.000000</ele>
<time>2026-03-27T05:38:56Z</time>
<speed>0.000000</speed>
<trueHeading>0.000000</trueHeading>
<magneticHeading>0.000000</magneticHeading>
<gpsHeading>0.000000</gpsHeading>
<haccuracy>-1.000000</haccuracy>
<vaccuracy>-1.000000</vaccuracy>
<internetconnect>-1</internetconnect>
</trkpt>
<trkpt lat="35.070886" lon="136.440604">
<ele>965.000000</ele>
<time>2026-03-27T05:40:09Z</time>
<speed>0.000000</speed>
<trueHeading>0.000000</trueHeading>
<magneticHeading>0.000000</magneticHeading>
<gpsHeading>0.000000</gpsHeading>
<haccuracy>-1.000000</haccuracy>
<vaccuracy>-1.000000</vaccuracy>
<internetconnect>-1</internetconnect>
</trkpt>
<trkpt lat="35.070759" lon="136.440641">
<ele>965.000000</ele>
<time>2026-03-27T05:40:47Z</time>
<speed>0.000000</speed>
<trueHeading>0.000000</trueHeading>
<magneticHeading>0.000000</magneticHeading>
<gpsHeading>0.000000</gpsHeading>
<haccuracy>-1.000000</haccuracy>
<vaccuracy>-1.000000</vaccuracy>
<internetconnect>-1</internetconnect>
</trkpt>
<trkpt lat="35.070671" lon="136.440684">
<ele>964.000000</ele>
<time>2026-03-27T05:41:14Z</time>
<speed>0.000000</speed>
<trueHeading>0.000000</trueHeading>
<magneticHeading>0.000000</magneticHeading>
<gpsHeading>0.000000</gpsHeading>
<haccuracy>-1.000000</haccuracy>
<vaccuracy>-1.000000</vaccuracy>
<internetconnect>-1</internetconnect>
</trkpt>
<trkpt lat="35.070570" lon="136.440749">
<ele>966.000000</ele>
<time>2026-03-27T05:41:46Z</time>
<speed>0.000000</speed>
<trueHeading>0.000000</trueHeading>
<magneticHeading>0.000000</magneticHeading>
<gpsHeading>0.000000</gpsHeading>
<haccuracy>-1.000000</haccuracy>
<vaccuracy>-1.000000</vaccuracy>
<internetconnect>-1</internetconnect>
</trkpt>
<trkpt lat="35.070491" lon="136.440808">
<ele>968.000000</ele>
<time>2026-03-27T05:42:13Z</time>
<speed>0.000000</speed>
<trueHeading>0.000000</trueHeading>
<magneticHeading>0.000000</magneticHeading>
<gpsHeading>0.000000</gpsHeading>
<haccuracy>-1.000000</haccuracy>
<vaccuracy>-1.000000</vaccuracy>
<internetconnect>-1</internetconnect>
</trkpt>
<trkpt lat="35.070434" lon="136.440877">
<ele>969.000000</ele>
<time>2026-03-27T05:42:36Z</time>
<speed>0.000000</speed>
<trueHeading>0.000000</trueHeading>
<magneticHeading>0.000000</magneticHeading>
<gpsHeading>0.000000</gpsHeading>
<haccuracy>-1.000000</haccuracy>
<vaccuracy>-1.000000</vaccuracy>
<internetconnect>-1</internetconnect>
</trkpt>
<trkpt lat="35.070359" lon="136.441017">
<ele>967.000000</ele>
<time>2026-03-27T05:43:15Z</time>
<speed>0.000000</speed>
<trueHeading>0.000000</trueHeading>
<magneticHeading>0.000000</magneticHeading>
<gpsHeading>0.000000</gpsHeading>
<haccuracy>-1.000000</haccuracy>
<vaccuracy>-1.000000</vaccuracy>
<internetconnect>-1</internetconnect>
</trkpt>
<trkpt lat="35.070302" lon="136.441108">
<ele>971.000000</ele>
<time>2026-03-27T05:43:42Z</time>
<speed>0.000000</speed>
<trueHeading>0.000000</trueHeading>
<magneticHeading>0.000000</magneticHeading>
<gpsHeading>0.000000</gpsHeading>
<haccuracy>-1.000000</haccuracy>
<vaccuracy>-1.000000</vaccuracy>
<internetconnect>-1</internetconnect>
</trkpt>
<trkpt lat="35.070258" lon="136.441140">
<ele>971.000000</ele>
<time>2026-03-27T05:43:57Z</time>
<speed>0.000000</speed>
<trueHeading>0.000000</trueHeading>
<magneticHeading>0.000000</magneticHeading>
<gpsHeading>0.000000</gpsHeading>
<haccuracy>-1.000000</haccuracy>
<vaccuracy>-1.000000</vaccuracy>
<internetconnect>-1</internetconnect>
</trkpt>
<trkpt lat="35.070214" lon="136.441151">
<ele>969.000000</ele>
<time>2026-03-27T05:44:10Z</time>
<speed>0.000000</speed>
<trueHeading>0.000000</trueHeading>
<magneticHeading>0.000000</magneticHeading>
<gpsHeading>0.000000</gpsHeading>
<haccuracy>-1.000000</haccuracy>
<vaccuracy>-1.000000</vaccuracy>
<internetconnect>-1</internetconnect>
</trkpt>
<trkpt lat="35.070166" lon="136.441151">
<ele>969.000000</ele>
<time>2026-03-27T05:44:24Z</time>
<speed>0.000000</speed>
<trueHeading>0.000000</trueHeading>
<magneticHeading>0.000000</magneticHeading>
<gpsHeading>0.000000</gpsHeading>
<haccuracy>-1.000000</haccuracy>
<vaccuracy>-1.000000</vaccuracy>
<internetconnect>-1</internetconnect>
</trkpt>
<trkpt lat="35.070087" lon="136.441124">
<ele>968.000000</ele>
<time>2026-03-27T05:44:47Z</time>
<speed>0.000000</speed>
<trueHeading>0.000000</trueHeading>
<magneticHeading>0.000000</magneticHeading>
<gpsHeading>0.000000</gpsHeading>
<haccuracy>-1.000000</haccuracy>
<vaccuracy>-1.000000</vaccuracy>
<internetconnect>-1</internetconnect>
</trkpt>
<trkpt lat="35.069969" lon="136.441081">
<ele>971.000000</ele>
<time>2026-03-27T05:45:23Z</time>
<speed>0.000000</speed>
<trueHeading>0.000000</trueHeading>
<magneticHeading>0.000000</magneticHeading>
<gpsHeading>0.000000</gpsHeading>
<haccuracy>-1.000000</haccuracy>
<vaccuracy>-1.000000</vaccuracy>
<internetconnect>-1</internetconnect>
</trkpt>
<trkpt lat="35.069841" lon="136.441054">
<ele>976.000000</ele>
<time>2026-03-27T05:46:00Z</time>
<speed>0.000000</speed>
<trueHeading>0.000000</trueHeading>
<magneticHeading>0.000000</magneticHeading>
<gpsHeading>0.000000</gpsHeading>
<haccuracy>-1.000000</haccuracy>
<vaccuracy>-1.000000</vaccuracy>
<internetconnect>-1</internetconnect>
</trkpt>
<trkpt lat="35.069745" lon="136.441049">
<ele>978.000000</ele>
<time>2026-03-27T05:46:28Z</time>
<speed>0.000000</speed>
<trueHeading>0.000000</trueHeading>
<magneticHeading>0.000000</magneticHeading>
<gpsHeading>0.000000</gpsHeading>
<haccuracy>-1.000000</haccuracy>
<vaccuracy>-1.000000</vaccuracy>
<internetconnect>-1</internetconnect>
</trkpt>
<trkpt lat="35.069631" lon="136.441070">
<ele>983.000000</ele>
<time>2026-03-27T05:47:01Z</time>
<speed>0.000000</speed>
<trueHeading>0.000000</trueHeading>
<magneticHeading>0.000000</magneticHeading>
<gpsHeading>0.000000</gpsHeading>
<haccuracy>-1.000000</haccuracy>
<vaccuracy>-1.000000</vaccuracy>
<internetconnect>-1</internetconnect>
</trkpt>
<trkpt lat="35.069516" lon="136.441108">
<ele>988.000000</ele>
<time>2026-03-27T05:47:35Z</time>
<speed>0.000000</speed>
<trueHeading>0.000000</trueHeading>
<magneticHeading>0.000000</magneticHeading>
<gpsHeading>0.000000</gpsHeading>
<haccuracy>-1.000000</haccuracy>
<vaccuracy>-1.000000</vaccuracy>
<internetconnect>-1</internetconnect>
</trkpt>
<trkpt lat="35.069389" lon="136.441129">
<ele>991.000000</ele>
<time>2026-03-27T05:48:12Z</time>
<speed>0.000000</speed>
<trueHeading>0.000000</trueHeading>
<magneticHeading>0.000000</magneticHeading>
<gpsHeading>0.000000</gpsHeading>
<haccuracy>-1.000000</haccuracy>
<vaccuracy>-1.000000</vaccuracy>
<internetconnect>-1</internetconnect>
</trkpt>
<trkpt lat="35.069275" lon="136.441135">
<ele>994.000000</ele>
<time>2026-03-27T05:48:44Z</time>
<speed>0.000000</speed>
<trueHeading>0.000000</trueHeading>
<magneticHeading>0.000000</magneticHeading>
<gpsHeading>0.000000</gpsHeading>
<haccuracy>-1.000000</haccuracy>
<vaccuracy>-1.000000</vaccuracy>
<internetconnect>-1</internetconnect>
</trkpt>
<trkpt lat="35.069152" lon="136.441129">
<ele>1002.000000</ele>
<time>2026-03-27T05:49:20Z</time>
<speed>0.000000</speed>
<trueHeading>0.000000</trueHeading>
<magneticHeading>0.000000</magneticHeading>
<gpsHeading>0.000000</gpsHeading>
<haccuracy>-1.000000</haccuracy>
<vaccuracy>-1.000000</vaccuracy>
<internetconnect>-1</internetconnect>
</trkpt>
<trkpt lat="35.069025" lon="136.441135">
<ele>1011.000000</ele>
<time>2026-03-27T05:49:56Z</time>
<speed>0.000000</speed>
<trueHeading>0.000000</trueHeading>
<magneticHeading>0.000000</magneticHeading>
<gpsHeading>0.000000</gpsHeading>
<haccuracy>-1.000000</haccuracy>
<vaccuracy>-1.000000</vaccuracy>
<internetconnect>-1</internetconnect>
</trkpt>
<trkpt lat="35.068845" lon="136.441194">
<ele>1017.000000</ele>
<time>2026-03-27T05:50:50Z</time>
<speed>0.000000</speed>
<trueHeading>0.000000</trueHeading>
<magneticHeading>0.000000</magneticHeading>
<gpsHeading>0.000000</gpsHeading>
<haccuracy>-1.000000</haccuracy>
<vaccuracy>-1.000000</vaccuracy>
<internetconnect>-1</internetconnect>
</trkpt>
<trkpt lat="35.068709" lon="136.441231">
<ele>1019.000000</ele>
<time>2026-03-27T05:51:30Z</time>
<speed>0.000000</speed>
<trueHeading>0.000000</trueHeading>
<magneticHeading>0.000000</magneticHeading>
<gpsHeading>0.000000</gpsHeading>
<haccuracy>-1.000000</haccuracy>
<vaccuracy>-1.000000</vaccuracy>
<internetconnect>-1</internetconnect>
</trkpt>
<trkpt lat="35.068577" lon="136.441280">
<ele>1021.000000</ele>
<time>2026-03-27T05:52:09Z</time>
<speed>0.000000</speed>
<trueHeading>0.000000</trueHeading>
<magneticHeading>0.000000</magneticHeading>
<gpsHeading>0.000000</gpsHeading>
<haccuracy>-1.000000</haccuracy>
<vaccuracy>-1.000000</vaccuracy>
<internetconnect>-1</internetconnect>
</trkpt>
<trkpt lat="35.068454" lon="136.441306">
<ele>1024.000000</ele>
<time>2026-03-27T05:52:45Z</time>
<speed>0.000000</speed>
<trueHeading>0.000000</trueHeading>
<magneticHeading>0.000000</magneticHeading>
<gpsHeading>0.000000</gpsHeading>
<haccuracy>-1.000000</haccuracy>
<vaccuracy>-1.000000</vaccuracy>
<internetconnect>-1</internetconnect>
</trkpt>
<trkpt lat="35.068322" lon="136.441323">
<ele>1026.000000</ele>
<time>2026-03-27T05:53:23Z</time>
<speed>0.000000</speed>
<trueHeading>0.000000</trueHeading>
<magneticHeading>0.000000</magneticHeading>
<gpsHeading>0.000000</gpsHeading>
<haccuracy>-1.000000</haccuracy>
<vaccuracy>-1.000000</vaccuracy>
<internetconnect>-1</internetconnect>
</trkpt>
<trkpt lat="35.068195" lon="136.441333">
<ele>1027.000000</ele>
<time>2026-03-27T05:54:00Z</time>
<speed>0.000000</speed>
<trueHeading>0.000000</trueHeading>
<magneticHeading>0.000000</magneticHeading>
<gpsHeading>0.000000</gpsHeading>
<haccuracy>-1.000000</haccuracy>
<vaccuracy>-1.000000</vaccuracy>
<internetconnect>-1</internetconnect>
</trkpt>
<trkpt lat="35.068125" lon="136.441333">
<ele>1027.000000</ele>
<time>2026-03-27T05:54:00Z</time>
<speed>0.000000</speed>
<trueHeading>0.000000</trueHeading>
<magneticHeading>0.000000</magneticHeading>
<gpsHeading>0.000000</gpsHeading>
<haccuracy>-1.000000</haccuracy>
<vaccuracy>-1.000000</vaccuracy>
<internetconnect>-1</internetconnect>
</trkpt>
<trkpt lat="35.067975" lon="136.441344">
<ele>1029.000000</ele>
<time>2026-03-27T05:54:54Z</time>
<speed>0.000000</speed>
<trueHeading>0.000000</trueHeading>
<magneticHeading>0.000000</magneticHeading>
<gpsHeading>0.000000</gpsHeading>
<haccuracy>-1.000000</haccuracy>
<vaccuracy>-1.000000</vaccuracy>
<internetconnect>-1</internetconnect>
</trkpt>
<trkpt lat="35.067808" lon="136.441349">
<ele>1027.000000</ele>
<time>2026-03-27T05:55:55Z</time>
<speed>0.000000</speed>
<trueHeading>0.000000</trueHeading>
<magneticHeading>0.000000</magneticHeading>
<gpsHeading>0.000000</gpsHeading>
<haccuracy>-1.000000</haccuracy>
<vaccuracy>-1.000000</vaccuracy>
<internetconnect>-1</internetconnect>
</trkpt>
<trkpt lat="35.067646" lon="136.441376">
<ele>1028.000000</ele>
<time>2026-03-27T05:56:54Z</time>
<speed>0.000000</speed>
<trueHeading>0.000000</trueHeading>
<magneticHeading>0.000000</magneticHeading>
<gpsHeading>0.000000</gpsHeading>
<haccuracy>-1.000000</haccuracy>
<vaccuracy>-1.000000</vaccuracy>
<internetconnect>-1</internetconnect>
</trkpt>
<trkpt lat="35.067484" lon="136.441403">
<ele>1034.000000</ele>
<time>2026-03-27T05:57:54Z</time>
<speed>0.000000</speed>
<trueHeading>0.000000</trueHeading>
<magneticHeading>0.000000</magneticHeading>
<gpsHeading>0.000000</gpsHeading>
<haccuracy>-1.000000</haccuracy>
<vaccuracy>-1.000000</vaccuracy>
<internetconnect>-1</internetconnect>
</trkpt>
<trkpt lat="35.067304" lon="136.441467">
<ele>1035.000000</ele>
<time>2026-03-27T05:59:02Z</time>
<speed>0.000000</speed>
<trueHeading>0.000000</trueHeading>
<magneticHeading>0.000000</magneticHeading>
<gpsHeading>0.000000</gpsHeading>
<haccuracy>-1.000000</haccuracy>
<vaccuracy>-1.000000</vaccuracy>
<internetconnect>-1</internetconnect>
</trkpt>
<trkpt lat="35.067080" lon="136.441569">
<ele>1038.000000</ele>
<time>2026-03-27T06:00:29Z</time>
<speed>0.000000</speed>
<trueHeading>0.000000</trueHeading>
<magneticHeading>0.000000</magneticHeading>
<gpsHeading>0.000000</gpsHeading>
<haccuracy>-1.000000</haccuracy>
<vaccuracy>-1.000000</vaccuracy>
<internetconnect>-1</internetconnect>
</trkpt>
<trkpt lat="35.066781" lon="136.441666">
<ele>1049.000000</ele>
<time>2026-03-27T06:02:21Z</time>
<speed>0.000000</speed>
<trueHeading>0.000000</trueHeading>
<magneticHeading>0.000000</magneticHeading>
<gpsHeading>0.000000</gpsHeading>
<haccuracy>-1.000000</haccuracy>
<vaccuracy>-1.000000</vaccuracy>
<internetconnect>-1</internetconnect>
</trkpt>
<trkpt lat="35.066641" lon="136.441693">
<ele>1051.000000</ele>
<time>2026-03-27T06:03:13Z</time>
<speed>0.000000</speed>
<trueHeading>0.000000</trueHeading>
<magneticHeading>0.000000</magneticHeading>
<gpsHeading>0.000000</gpsHeading>
<haccuracy>-1.000000</haccuracy>
<vaccuracy>-1.000000</vaccuracy>
<internetconnect>-1</internetconnect>
</trkpt>
<trkpt lat="35.066478" lon="136.441682">
<ele>1055.000000</ele>
<time>2026-03-27T06:04:12Z</time>
<speed>0.000000</speed>
<trueHeading>0.000000</trueHeading>
<magneticHeading>0.000000</magneticHeading>
<gpsHeading>0.000000</gpsHeading>
<haccuracy>-1.000000</haccuracy>
<vaccuracy>-1.000000</vaccuracy>
<internetconnect>-1</internetconnect>
</trkpt>
<trkpt lat="35.066276" lon="136.441623">
<ele>1063.000000</ele>
<time>2026-03-27T06:05:28Z</time>
<speed>0.000000</speed>
<trueHeading>0.000000</trueHeading>
<magneticHeading>0.000000</magneticHeading>
<gpsHeading>0.000000</gpsHeading>
<haccuracy>-1.000000</haccuracy>
<vaccuracy>-1.000000</vaccuracy>
<internetconnect>-1</internetconnect>
</trkpt>
<trkpt lat="35.066087" lon="136.441553">
<ele>1076.000000</ele>
<time>2026-03-27T06:06:40Z</time>
<speed>0.000000</speed>
<trueHeading>0.000000</trueHeading>
<magneticHeading>0.000000</magneticHeading>
<gpsHeading>0.000000</gpsHeading>
<haccuracy>-1.000000</haccuracy>
<vaccuracy>-1.000000</vaccuracy>
<internetconnect>-1</internetconnect>
</trkpt>
<trkpt lat="35.065999" lon="136.441516">
<ele>1078.000000</ele>
<time>2026-03-27T06:07:13Z</time>
<speed>0.000000</speed>
<trueHeading>0.000000</trueHeading>
<magneticHeading>0.000000</magneticHeading>
<gpsHeading>0.000000</gpsHeading>
<haccuracy>-1.000000</haccuracy>
<vaccuracy>-1.000000</vaccuracy>
<internetconnect>-1</internetconnect>
</trkpt>
<trkpt lat="35.065885" lon="136.441494">
<ele>1083.000000</ele>
<time>2026-03-27T06:07:55Z</time>
<speed>0.000000</speed>
<trueHeading>0.000000</trueHeading>
<magneticHeading>0.000000</magneticHeading>
<gpsHeading>0.000000</gpsHeading>
<haccuracy>-1.000000</haccuracy>
<vaccuracy>-1.000000</vaccuracy>
<internetconnect>-1</internetconnect>
</trkpt>
<trkpt lat="35.065784" lon="136.441494">
<ele>1089.000000</ele>
<time>2026-03-27T06:08:32Z</time>
<speed>0.000000</speed>
<trueHeading>0.000000</trueHeading>
<magneticHeading>0.000000</magneticHeading>
<gpsHeading>0.000000</gpsHeading>
<haccuracy>-1.000000</haccuracy>
<vaccuracy>-1.000000</vaccuracy>
<internetconnect>-1</internetconnect>
</trkpt>
<trkpt lat="35.065710" lon="136.441483">
<ele>1090.000000</ele>
<time>2026-03-27T06:09:00Z</time>
<speed>0.000000</speed>
<trueHeading>0.000000</trueHeading>
<magneticHeading>0.000000</magneticHeading>
<gpsHeading>0.000000</gpsHeading>
<haccuracy>-1.000000</haccuracy>
<vaccuracy>-1.000000</vaccuracy>
<internetconnect>-1</internetconnect>
</trkpt>
<trkpt lat="35.065481" lon="136.441355">
<ele>1088.000000</ele>
<time>2026-03-27T06:09:00Z</time>
<speed>0.000000</speed>
<trueHeading>0.000000</trueHeading>
<magneticHeading>0.000000</magneticHeading>
<gpsHeading>0.000000</gpsHeading>
<haccuracy>-1.000000</haccuracy>
<vaccuracy>-1.000000</vaccuracy>
<internetconnect>-1</internetconnect>
</trkpt>
<trkpt lat="35.065323" lon="136.441398">
<ele>1086.000000</ele>
<time>2026-03-27T06:09:45Z</time>
<speed>0.000000</speed>
<trueHeading>0.000000</trueHeading>
<magneticHeading>0.000000</magneticHeading>
<gpsHeading>0.000000</gpsHeading>
<haccuracy>-1.000000</haccuracy>
<vaccuracy>-1.000000</vaccuracy>
<internetconnect>-1</internetconnect>
</trkpt>
<trkpt lat="35.065253" lon="136.441569">
<ele>1090.000000</ele>
<time>2026-03-27T06:10:29Z</time>
<speed>0.000000</speed>
<trueHeading>0.000000</trueHeading>
<magneticHeading>0.000000</magneticHeading>
<gpsHeading>0.000000</gpsHeading>
<haccuracy>-1.000000</haccuracy>
<vaccuracy>-1.000000</vaccuracy>
<internetconnect>-1</internetconnect>
</trkpt>
<trkpt lat="35.065148" lon="136.441591">
<ele>1090.000000</ele>
<time>2026-03-27T06:10:59Z</time>
<speed>0.000000</speed>
<trueHeading>0.000000</trueHeading>
<magneticHeading>0.000000</magneticHeading>
<gpsHeading>0.000000</gpsHeading>
<haccuracy>-1.000000</haccuracy>
<vaccuracy>-1.000000</vaccuracy>
<internetconnect>-1</internetconnect>
</trkpt>
<trkpt lat="35.065141" lon="136.441579">
<ele>1090.000000</ele>
<time>2026-03-27T06:11:02Z</time>
<speed>0.000000</speed>
<trueHeading>0.000000</trueHeading>
<magneticHeading>0.000000</magneticHeading>
<gpsHeading>0.000000</gpsHeading>
<haccuracy>-1.000000</haccuracy>
<vaccuracy>-1.000000</vaccuracy>
<internetconnect>-1</internetconnect>
</trkpt>
<trkpt lat="35.064990" lon="136.441312">
<ele>1085.000000</ele>
<time>2026-03-27T06:12:16Z</time>
<speed>0.000000</speed>
<trueHeading>0.000000</trueHeading>
<magneticHeading>0.000000</magneticHeading>
<gpsHeading>0.000000</gpsHeading>
<haccuracy>-1.000000</haccuracy>
<vaccuracy>-1.000000</vaccuracy>
<internetconnect>-1</internetconnect>
</trkpt>
<trkpt lat="35.064884" lon="136.441119">
<ele>1091.000000</ele>
<time>2026-03-27T06:13:09Z</time>
<speed>0.000000</speed>
<trueHeading>0.000000</trueHeading>
<magneticHeading>0.000000</magneticHeading>
<gpsHeading>0.000000</gpsHeading>
<haccuracy>-1.000000</haccuracy>
<vaccuracy>-1.000000</vaccuracy>
<internetconnect>-1</internetconnect>
</trkpt>
<trkpt lat="35.064673" lon="136.441033">
<ele>1093.000000</ele>
<time>2026-03-27T06:14:11Z</time>
<speed>0.000000</speed>
<trueHeading>0.000000</trueHeading>
<magneticHeading>0.000000</magneticHeading>
<gpsHeading>0.000000</gpsHeading>
<haccuracy>-1.000000</haccuracy>
<vaccuracy>-1.000000</vaccuracy>
<internetconnect>-1</internetconnect>
</trkpt>
<trkpt lat="35.064428" lon="136.441033">
<ele>1090.000000</ele>
<time>2026-03-27T06:15:20Z</time>
<speed>0.000000</speed>
<trueHeading>0.000000</trueHeading>
<magneticHeading>0.000000</magneticHeading>
<gpsHeading>0.000000</gpsHeading>
<haccuracy>-1.000000</haccuracy>
<vaccuracy>-1.000000</vaccuracy>
<internetconnect>-1</internetconnect>
</trkpt>
<trkpt lat="35.064498" lon="136.440732">
<ele>1080.000000</ele>
<time>2026-03-27T06:16:32Z</time>
<speed>0.000000</speed>
<trueHeading>0.000000</trueHeading>
<magneticHeading>0.000000</magneticHeading>
<gpsHeading>0.000000</gpsHeading>
<haccuracy>-1.000000</haccuracy>
<vaccuracy>-1.000000</vaccuracy>
<internetconnect>-1</internetconnect>
</trkpt>
<trkpt lat="35.064726" lon="136.440346">
<ele>1065.000000</ele>
<time>2026-03-27T06:18:21Z</time>
<speed>0.000000</speed>
<trueHeading>0.000000</trueHeading>
<magneticHeading>0.000000</magneticHeading>
<gpsHeading>0.000000</gpsHeading>
<haccuracy>-1.000000</haccuracy>
<vaccuracy>-1.000000</vaccuracy>
<internetconnect>-1</internetconnect>
</trkpt>
<trkpt lat="35.064954" lon="136.440046">
<ele>1064.000000</ele>
<time>2026-03-27T06:19:55Z</time>
<speed>0.000000</speed>
<trueHeading>0.000000</trueHeading>
<magneticHeading>0.000000</magneticHeading>
<gpsHeading>0.000000</gpsHeading>
<haccuracy>-1.000000</haccuracy>
<vaccuracy>-1.000000</vaccuracy>
<internetconnect>-1</internetconnect>
</trkpt>
<trkpt lat="35.065183" lon="136.439788">
<ele>1057.000000</ele>
<time>2026-03-27T06:21:22Z</time>
<speed>0.000000</speed>
<trueHeading>0.000000</trueHeading>
<magneticHeading>0.000000</magneticHeading>
<gpsHeading>0.000000</gpsHeading>
<haccuracy>-1.000000</haccuracy>
<vaccuracy>-1.000000</vaccuracy>
<internetconnect>-1</internetconnect>
</trkpt>
<trkpt lat="35.065358" lon="136.439402">
<ele>1062.000000</ele>
<time>2026-03-27T06:23:03Z</time>
<speed>0.000000</speed>
<trueHeading>0.000000</trueHeading>
<magneticHeading>0.000000</magneticHeading>
<gpsHeading>0.000000</gpsHeading>
<haccuracy>-1.000000</haccuracy>
<vaccuracy>-1.000000</vaccuracy>
<internetconnect>-1</internetconnect>
</trkpt>
<trkpt lat="35.065411" lon="136.439102">
<ele>1067.000000</ele>
<time>2026-03-27T06:24:13Z</time>
<speed>0.000000</speed>
<trueHeading>0.000000</trueHeading>
<magneticHeading>0.000000</magneticHeading>
<gpsHeading>0.000000</gpsHeading>
<haccuracy>-1.000000</haccuracy>
<vaccuracy>-1.000000</vaccuracy>
<internetconnect>-1</internetconnect>
</trkpt>
<trkpt lat="35.065358" lon="136.438844">
<ele>1073.000000</ele>
<time>2026-03-27T06:25:14Z</time>
<speed>0.000000</speed>
<trueHeading>0.000000</trueHeading>
<magneticHeading>0.000000</magneticHeading>
<gpsHeading>0.000000</gpsHeading>
<haccuracy>-1.000000</haccuracy>
<vaccuracy>-1.000000</vaccuracy>
<internetconnect>-1</internetconnect>
</trkpt>
<trkpt lat="35.065429" lon="136.438608">
<ele>1079.000000</ele>
<time>2026-03-27T06:26:12Z</time>
<speed>0.000000</speed>
<trueHeading>0.000000</trueHeading>
<magneticHeading>0.000000</magneticHeading>
<gpsHeading>0.000000</gpsHeading>
<haccuracy>-1.000000</haccuracy>
<vaccuracy>-1.000000</vaccuracy>
<internetconnect>-1</internetconnect>
</trkpt>
<trkpt lat="35.065323" lon="136.438458">
<ele>1078.000000</ele>
<time>2026-03-27T06:26:57Z</time>
<speed>0.000000</speed>
<trueHeading>0.000000</trueHeading>
<magneticHeading>0.000000</magneticHeading>
<gpsHeading>0.000000</gpsHeading>
<haccuracy>-1.000000</haccuracy>
<vaccuracy>-1.000000</vaccuracy>
<internetconnect>-1</internetconnect>
</trkpt>
<trkpt lat="35.064937" lon="136.438286">
<ele>1066.000000</ele>
<time>2026-03-27T06:28:52Z</time>
<speed>0.000000</speed>
<trueHeading>0.000000</trueHeading>
<magneticHeading>0.000000</magneticHeading>
<gpsHeading>0.000000</gpsHeading>
<haccuracy>-1.000000</haccuracy>
<vaccuracy>-1.000000</vaccuracy>
<internetconnect>-1</internetconnect>
</trkpt>
<trkpt lat="35.064603" lon="136.438115">
<ele>1050.000000</ele>
<time>2026-03-27T06:30:33Z</time>
<speed>0.000000</speed>
<trueHeading>0.000000</trueHeading>
<magneticHeading>0.000000</magneticHeading>
<gpsHeading>0.000000</gpsHeading>
<haccuracy>-1.000000</haccuracy>
<vaccuracy>-1.000000</vaccuracy>
<internetconnect>-1</internetconnect>
</trkpt>
<trkpt lat="35.064340" lon="136.438115">
<ele>1043.000000</ele>
<time>2026-03-27T06:31:47Z</time>
<speed>0.000000</speed>
<trueHeading>0.000000</trueHeading>
<magneticHeading>0.000000</magneticHeading>
<gpsHeading>0.000000</gpsHeading>
<haccuracy>-1.000000</haccuracy>
<vaccuracy>-1.000000</vaccuracy>
<internetconnect>-1</internetconnect>
</trkpt>
<trkpt lat="35.064129" lon="136.438029">
<ele>1042.000000</ele>
<time>2026-03-27T06:32:49Z</time>
<speed>0.000000</speed>
<trueHeading>0.000000</trueHeading>
<magneticHeading>0.000000</magneticHeading>
<gpsHeading>0.000000</gpsHeading>
<haccuracy>-1.000000</haccuracy>
<vaccuracy>-1.000000</vaccuracy>
<internetconnect>-1</internetconnect>
</trkpt>
<trkpt lat="35.063760" lon="136.437685">
<ele>1038.000000</ele>
<time>2026-03-27T06:34:58Z</time>
<speed>0.000000</speed>
<trueHeading>0.000000</trueHeading>
<magneticHeading>0.000000</magneticHeading>
<gpsHeading>0.000000</gpsHeading>
<haccuracy>-1.000000</haccuracy>
<vaccuracy>-1.000000</vaccuracy>
<internetconnect>-1</internetconnect>
</trkpt>
<trkpt lat="35.063567" lon="136.437278">
<ele>1024.000000</ele>
<time>2026-03-27T06:36:46Z</time>
<speed>0.000000</speed>
<trueHeading>0.000000</trueHeading>
<magneticHeading>0.000000</magneticHeading>
<gpsHeading>0.000000</gpsHeading>
<haccuracy>-1.000000</haccuracy>
<vaccuracy>-1.000000</vaccuracy>
<internetconnect>-1</internetconnect>
</trkpt>
<trkpt lat="35.063479" lon="136.436934">
<ele>1011.000000</ele>
<time>2026-03-27T06:38:09Z</time>
<speed>0.000000</speed>
<trueHeading>0.000000</trueHeading>
<magneticHeading>0.000000</magneticHeading>
<gpsHeading>0.000000</gpsHeading>
<haccuracy>-1.000000</haccuracy>
<vaccuracy>-1.000000</vaccuracy>
<internetconnect>-1</internetconnect>
</trkpt>
<trkpt lat="35.063444" lon="136.436656">
<ele>1009.000000</ele>
<time>2026-03-27T06:39:14Z</time>
<speed>0.000000</speed>
<trueHeading>0.000000</trueHeading>
<magneticHeading>0.000000</magneticHeading>
<gpsHeading>0.000000</gpsHeading>
<haccuracy>-1.000000</haccuracy>
<vaccuracy>-1.000000</vaccuracy>
<internetconnect>-1</internetconnect>
</trkpt>
<trkpt lat="35.063356" lon="136.436505">
<ele>1001.000000</ele>
<time>2026-03-27T06:39:56Z</time>
<speed>0.000000</speed>
<trueHeading>0.000000</trueHeading>
<magneticHeading>0.000000</magneticHeading>
<gpsHeading>0.000000</gpsHeading>
<haccuracy>-1.000000</haccuracy>
<vaccuracy>-1.000000</vaccuracy>
<internetconnect>-1</internetconnect>
</trkpt>
<trkpt lat="35.063093" lon="136.436226">
<ele>1010.000000</ele>
<time>2026-03-27T06:41:33Z</time>
<speed>0.000000</speed>
<trueHeading>0.000000</trueHeading>
<magneticHeading>0.000000</magneticHeading>
<gpsHeading>0.000000</gpsHeading>
<haccuracy>-1.000000</haccuracy>
<vaccuracy>-1.000000</vaccuracy>
<internetconnect>-1</internetconnect>
</trkpt>
<trkpt lat="35.062847" lon="136.435990">
<ele>1020.000000</ele>
<time>2026-03-27T06:43:01Z</time>
<speed>0.000000</speed>
<trueHeading>0.000000</trueHeading>
<magneticHeading>0.000000</magneticHeading>
<gpsHeading>0.000000</gpsHeading>
<haccuracy>-1.000000</haccuracy>
<vaccuracy>-1.000000</vaccuracy>
<internetconnect>-1</internetconnect>
</trkpt>
<trkpt lat="35.062338" lon="136.435518">
<ele>1057.000000</ele>
<time>2026-03-27T06:46:00Z</time>
<speed>0.000000</speed>
<trueHeading>0.000000</trueHeading>
<magneticHeading>0.000000</magneticHeading>
<gpsHeading>0.000000</gpsHeading>
<haccuracy>-1.000000</haccuracy>
<vaccuracy>-1.000000</vaccuracy>
<internetconnect>-1</internetconnect>
</trkpt>
<trkpt lat="35.062298" lon="136.435470">
<ele>1057.000000</ele>
<time>2026-03-27T06:46:00Z</time>
<speed>0.000000</speed>
<trueHeading>0.000000</trueHeading>
<magneticHeading>0.000000</magneticHeading>
<gpsHeading>0.000000</gpsHeading>
<haccuracy>-1.000000</haccuracy>
<vaccuracy>-1.000000</vaccuracy>
<internetconnect>-1</internetconnect>
</trkpt>
<trkpt lat="35.062245" lon="136.435373">
<ele>1054.000000</ele>
<time>2026-03-27T06:46:16Z</time>
<speed>0.000000</speed>
<trueHeading>0.000000</trueHeading>
<magneticHeading>0.000000</magneticHeading>
<gpsHeading>0.000000</gpsHeading>
<haccuracy>-1.000000</haccuracy>
<vaccuracy>-1.000000</vaccuracy>
<internetconnect>-1</internetconnect>
</trkpt>
<trkpt lat="35.062219" lon="136.435298">
<ele>1052.000000</ele>
<time>2026-03-27T06:46:28Z</time>
<speed>0.000000</speed>
<trueHeading>0.000000</trueHeading>
<magneticHeading>0.000000</magneticHeading>
<gpsHeading>0.000000</gpsHeading>
<haccuracy>-1.000000</haccuracy>
<vaccuracy>-1.000000</vaccuracy>
<internetconnect>-1</internetconnect>
</trkpt>
<trkpt lat="35.062210" lon="136.435207">
<ele>1050.000000</ele>
<time>2026-03-27T06:46:41Z</time>
<speed>0.000000</speed>
<trueHeading>0.000000</trueHeading>
<magneticHeading>0.000000</magneticHeading>
<gpsHeading>0.000000</gpsHeading>
<haccuracy>-1.000000</haccuracy>
<vaccuracy>-1.000000</vaccuracy>
<internetconnect>-1</internetconnect>
</trkpt>
<trkpt lat="35.062215" lon="136.435105">
<ele>1046.000000</ele>
<time>2026-03-27T06:46:55Z</time>
<speed>0.000000</speed>
<trueHeading>0.000000</trueHeading>
<magneticHeading>0.000000</magneticHeading>
<gpsHeading>0.000000</gpsHeading>
<haccuracy>-1.000000</haccuracy>
<vaccuracy>-1.000000</vaccuracy>
<internetconnect>-1</internetconnect>
</trkpt>
<trkpt lat="35.062223" lon="136.434858">
<ele>1034.000000</ele>
<time>2026-03-27T06:47:31Z</time>
<speed>0.000000</speed>
<trueHeading>0.000000</trueHeading>
<magneticHeading>0.000000</magneticHeading>
<gpsHeading>0.000000</gpsHeading>
<haccuracy>-1.000000</haccuracy>
<vaccuracy>-1.000000</vaccuracy>
<internetconnect>-1</internetconnect>
</trkpt>
<trkpt lat="35.062210" lon="136.434676">
<ele>1029.000000</ele>
<time>2026-03-27T06:47:57Z</time>
<speed>0.000000</speed>
<trueHeading>0.000000</trueHeading>
<magneticHeading>0.000000</magneticHeading>
<gpsHeading>0.000000</gpsHeading>
<haccuracy>-1.000000</haccuracy>
<vaccuracy>-1.000000</vaccuracy>
<internetconnect>-1</internetconnect>
</trkpt>
<trkpt lat="35.062188" lon="136.434478">
<ele>1023.000000</ele>
<time>2026-03-27T06:48:26Z</time>
<speed>0.000000</speed>
<trueHeading>0.000000</trueHeading>
<magneticHeading>0.000000</magneticHeading>
<gpsHeading>0.000000</gpsHeading>
<haccuracy>-1.000000</haccuracy>
<vaccuracy>-1.000000</vaccuracy>
<internetconnect>-1</internetconnect>
</trkpt>
<trkpt lat="35.062158" lon="136.434343">
<ele>1019.000000</ele>
<time>2026-03-27T06:48:46Z</time>
<speed>0.000000</speed>
<trueHeading>0.000000</trueHeading>
<magneticHeading>0.000000</magneticHeading>
<gpsHeading>0.000000</gpsHeading>
<haccuracy>-1.000000</haccuracy>
<vaccuracy>-1.000000</vaccuracy>
<internetconnect>-1</internetconnect>
</trkpt>
<trkpt lat="35.062114" lon="136.434236">
<ele>1014.000000</ele>
<time>2026-03-27T06:49:03Z</time>
<speed>0.000000</speed>
<trueHeading>0.000000</trueHeading>
<magneticHeading>0.000000</magneticHeading>
<gpsHeading>0.000000</gpsHeading>
<haccuracy>-1.000000</haccuracy>
<vaccuracy>-1.000000</vaccuracy>
<internetconnect>-1</internetconnect>
</trkpt>
<trkpt lat="35.062061" lon="136.434166">
<ele>1010.000000</ele>
<time>2026-03-27T06:49:16Z</time>
<speed>0.000000</speed>
<trueHeading>0.000000</trueHeading>
<magneticHeading>0.000000</magneticHeading>
<gpsHeading>0.000000</gpsHeading>
<haccuracy>-1.000000</haccuracy>
<vaccuracy>-1.000000</vaccuracy>
<internetconnect>-1</internetconnect>
</trkpt>
<trkpt lat="35.061999" lon="136.434102">
<ele>1006.000000</ele>
<time>2026-03-27T06:49:30Z</time>
<speed>0.000000</speed>
<trueHeading>0.000000</trueHeading>
<magneticHeading>0.000000</magneticHeading>
<gpsHeading>0.000000</gpsHeading>
<haccuracy>-1.000000</haccuracy>
<vaccuracy>-1.000000</vaccuracy>
<internetconnect>-1</internetconnect>
</trkpt>
<trkpt lat="35.061898" lon="136.434022">
<ele>1003.000000</ele>
<time>2026-03-27T06:49:51Z</time>
<speed>0.000000</speed>
<trueHeading>0.000000</trueHeading>
<magneticHeading>0.000000</magneticHeading>
<gpsHeading>0.000000</gpsHeading>
<haccuracy>-1.000000</haccuracy>
<vaccuracy>-1.000000</vaccuracy>
<internetconnect>-1</internetconnect>
</trkpt>
<trkpt lat="35.061775" lon="136.433909">
<ele>1001.000000</ele>
<time>2026-03-27T06:50:18Z</time>
<speed>0.000000</speed>
<trueHeading>0.000000</trueHeading>
<magneticHeading>0.000000</magneticHeading>
<gpsHeading>0.000000</gpsHeading>
<haccuracy>-1.000000</haccuracy>
<vaccuracy>-1.000000</vaccuracy>
<internetconnect>-1</internetconnect>
</trkpt>
<trkpt lat="35.061683" lon="136.433802">
<ele>1004.000000</ele>
<time>2026-03-27T06:50:40Z</time>
<speed>0.000000</speed>
<trueHeading>0.000000</trueHeading>
<magneticHeading>0.000000</magneticHeading>
<gpsHeading>0.000000</gpsHeading>
<haccuracy>-1.000000</haccuracy>
<vaccuracy>-1.000000</vaccuracy>
<internetconnect>-1</internetconnect>
</trkpt>
<trkpt lat="35.061569" lon="136.433651">
<ele>1008.000000</ele>
<time>2026-03-27T06:51:10Z</time>
<speed>0.000000</speed>
<trueHeading>0.000000</trueHeading>
<magneticHeading>0.000000</magneticHeading>
<gpsHeading>0.000000</gpsHeading>
<haccuracy>-1.000000</haccuracy>
<vaccuracy>-1.000000</vaccuracy>
<internetconnect>-1</internetconnect>
</trkpt>
<trkpt lat="35.061481" lon="136.433517">
<ele>1009.000000</ele>
<time>2026-03-27T06:51:34Z</time>
<speed>0.000000</speed>
<trueHeading>0.000000</trueHeading>
<magneticHeading>0.000000</magneticHeading>
<gpsHeading>0.000000</gpsHeading>
<haccuracy>-1.000000</haccuracy>
<vaccuracy>-1.000000</vaccuracy>
<internetconnect>-1</internetconnect>
</trkpt>
<trkpt lat="35.061437" lon="136.433469">
<ele>1005.000000</ele>
<time>2026-03-27T06:51:44Z</time>
<speed>0.000000</speed>
<trueHeading>0.000000</trueHeading>
<magneticHeading>0.000000</magneticHeading>
<gpsHeading>0.000000</gpsHeading>
<haccuracy>-1.000000</haccuracy>
<vaccuracy>-1.000000</vaccuracy>
<internetconnect>-1</internetconnect>
</trkpt>
<trkpt lat="35.061385" lon="136.433442">
<ele>1003.000000</ele>
<time>2026-03-27T06:51:54Z</time>
<speed>0.000000</speed>
<trueHeading>0.000000</trueHeading>
<magneticHeading>0.000000</magneticHeading>
<gpsHeading>0.000000</gpsHeading>
<haccuracy>-1.000000</haccuracy>
<vaccuracy>-1.000000</vaccuracy>
<internetconnect>-1</internetconnect>
</trkpt>
<trkpt lat="35.061328" lon="136.433432">
<ele>1000.000000</ele>
<time>2026-03-27T06:52:04Z</time>
<speed>0.000000</speed>
<trueHeading>0.000000</trueHeading>
<magneticHeading>0.000000</magneticHeading>
<gpsHeading>0.000000</gpsHeading>
<haccuracy>-1.000000</haccuracy>
<vaccuracy>-1.000000</vaccuracy>
<internetconnect>-1</internetconnect>
</trkpt>
<trkpt lat="35.061244" lon="136.433448">
<ele>997.000000</ele>
<time>2026-03-27T06:52:19Z</time>
<speed>0.000000</speed>
<trueHeading>0.000000</trueHeading>
<magneticHeading>0.000000</magneticHeading>
<gpsHeading>0.000000</gpsHeading>
<haccuracy>-1.000000</haccuracy>
<vaccuracy>-1.000000</vaccuracy>
<internetconnect>-1</internetconnect>
</trkpt>
<trkpt lat="35.061130" lon="136.433469">
<ele>995.000000</ele>
<time>2026-03-27T06:52:39Z</time>
<speed>0.000000</speed>
<trueHeading>0.000000</trueHeading>
<magneticHeading>0.000000</magneticHeading>
<gpsHeading>0.000000</gpsHeading>
<haccuracy>-1.000000</haccuracy>
<vaccuracy>-1.000000</vaccuracy>
<internetconnect>-1</internetconnect>
</trkpt>
<trkpt lat="35.061011" lon="136.433485">
<ele>992.000000</ele>
<time>2026-03-27T06:53:00Z</time>
<speed>0.000000</speed>
<trueHeading>0.000000</trueHeading>
<magneticHeading>0.000000</magneticHeading>
<gpsHeading>0.000000</gpsHeading>
<haccuracy>-1.000000</haccuracy>
<vaccuracy>-1.000000</vaccuracy>
<internetconnect>-1</internetconnect>
</trkpt>
<trkpt lat="35.060919" lon="136.433491">
<ele>991.000000</ele>
<time>2026-03-27T06:53:16Z</time>
<speed>0.000000</speed>
<trueHeading>0.000000</trueHeading>
<magneticHeading>0.000000</magneticHeading>
<gpsHeading>0.000000</gpsHeading>
<haccuracy>-1.000000</haccuracy>
<vaccuracy>-1.000000</vaccuracy>
<internetconnect>-1</internetconnect>
</trkpt>
<trkpt lat="35.060809" lon="136.433469">
<ele>991.000000</ele>
<time>2026-03-27T06:53:35Z</time>
<speed>0.000000</speed>
<trueHeading>0.000000</trueHeading>
<magneticHeading>0.000000</magneticHeading>
<gpsHeading>0.000000</gpsHeading>
<haccuracy>-1.000000</haccuracy>
<vaccuracy>-1.000000</vaccuracy>
<internetconnect>-1</internetconnect>
</trkpt>
<trkpt lat="35.060717" lon="136.433464">
<ele>995.000000</ele>
<time>2026-03-27T06:53:51Z</time>
<speed>0.000000</speed>
<trueHeading>0.000000</trueHeading>
<magneticHeading>0.000000</magneticHeading>
<gpsHeading>0.000000</gpsHeading>
<haccuracy>-1.000000</haccuracy>
<vaccuracy>-1.000000</vaccuracy>
<internetconnect>-1</internetconnect>
</trkpt>
<trkpt lat="35.060629" lon="136.433485">
<ele>995.000000</ele>
<time>2026-03-27T06:54:07Z</time>
<speed>0.000000</speed>
<trueHeading>0.000000</trueHeading>
<magneticHeading>0.000000</magneticHeading>
<gpsHeading>0.000000</gpsHeading>
<haccuracy>-1.000000</haccuracy>
<vaccuracy>-1.000000</vaccuracy>
<internetconnect>-1</internetconnect>
</trkpt>
<trkpt lat="35.060502" lon="136.433592">
<ele>992.000000</ele>
<time>2026-03-27T06:54:34Z</time>
<speed>0.000000</speed>
<trueHeading>0.000000</trueHeading>
<magneticHeading>0.000000</magneticHeading>
<gpsHeading>0.000000</gpsHeading>
<haccuracy>-1.000000</haccuracy>
<vaccuracy>-1.000000</vaccuracy>
<internetconnect>-1</internetconnect>
</trkpt>
<trkpt lat="35.060357" lon="136.433721">
<ele>988.000000</ele>
<time>2026-03-27T06:55:05Z</time>
<speed>0.000000</speed>
<trueHeading>0.000000</trueHeading>
<magneticHeading>0.000000</magneticHeading>
<gpsHeading>0.000000</gpsHeading>
<haccuracy>-1.000000</haccuracy>
<vaccuracy>-1.000000</vaccuracy>
<internetconnect>-1</internetconnect>
</trkpt>
<trkpt lat="35.060168" lon="136.433834">
<ele>985.000000</ele>
<time>2026-03-27T06:55:42Z</time>
<speed>0.000000</speed>
<trueHeading>0.000000</trueHeading>
<magneticHeading>0.000000</magneticHeading>
<gpsHeading>0.000000</gpsHeading>
<haccuracy>-1.000000</haccuracy>
<vaccuracy>-1.000000</vaccuracy>
<internetconnect>-1</internetconnect>
</trkpt>
<trkpt lat="35.060037" lon="136.433877">
<ele>985.000000</ele>
<time>2026-03-27T06:56:06Z</time>
<speed>0.000000</speed>
<trueHeading>0.000000</trueHeading>
<magneticHeading>0.000000</magneticHeading>
<gpsHeading>0.000000</gpsHeading>
<haccuracy>-1.000000</haccuracy>
<vaccuracy>-1.000000</vaccuracy>
<internetconnect>-1</internetconnect>
</trkpt>
<trkpt lat="35.059914" lon="136.433882">
<ele>985.000000</ele>
<time>2026-03-27T06:56:27Z</time>
<speed>0.000000</speed>
<trueHeading>0.000000</trueHeading>
<magneticHeading>0.000000</magneticHeading>
<gpsHeading>0.000000</gpsHeading>
<haccuracy>-1.000000</haccuracy>
<vaccuracy>-1.000000</vaccuracy>
<internetconnect>-1</internetconnect>
</trkpt>
<trkpt lat="35.059821" lon="136.433861">
<ele>983.000000</ele>
<time>2026-03-27T06:56:43Z</time>
<speed>0.000000</speed>
<trueHeading>0.000000</trueHeading>
<magneticHeading>0.000000</magneticHeading>
<gpsHeading>0.000000</gpsHeading>
<haccuracy>-1.000000</haccuracy>
<vaccuracy>-1.000000</vaccuracy>
<internetconnect>-1</internetconnect>
</trkpt>
<trkpt lat="35.059760" lon="136.433828">
<ele>982.000000</ele>
<time>2026-03-27T06:56:55Z</time>
<speed>0.000000</speed>
<trueHeading>0.000000</trueHeading>
<magneticHeading>0.000000</magneticHeading>
<gpsHeading>0.000000</gpsHeading>
<haccuracy>-1.000000</haccuracy>
<vaccuracy>-1.000000</vaccuracy>
<internetconnect>-1</internetconnect>
</trkpt>
<trkpt lat="35.059650" lon="136.433727">
<ele>977.000000</ele>
<time>2026-03-27T06:57:19Z</time>
<speed>0.000000</speed>
<trueHeading>0.000000</trueHeading>
<magneticHeading>0.000000</magneticHeading>
<gpsHeading>0.000000</gpsHeading>
<haccuracy>-1.000000</haccuracy>
<vaccuracy>-1.000000</vaccuracy>
<internetconnect>-1</internetconnect>
</trkpt>
<trkpt lat="35.059527" lon="136.433598">
<ele>971.000000</ele>
<time>2026-03-27T06:57:47Z</time>
<speed>0.000000</speed>
<trueHeading>0.000000</trueHeading>
<magneticHeading>0.000000</magneticHeading>
<gpsHeading>0.000000</gpsHeading>
<haccuracy>-1.000000</haccuracy>
<vaccuracy>-1.000000</vaccuracy>
<internetconnect>-1</internetconnect>
</trkpt>
<trkpt lat="35.059409" lon="136.433491">
<ele>971.000000</ele>
<time>2026-03-27T06:58:13Z</time>
<speed>0.000000</speed>
<trueHeading>0.000000</trueHeading>
<magneticHeading>0.000000</magneticHeading>
<gpsHeading>0.000000</gpsHeading>
<haccuracy>-1.000000</haccuracy>
<vaccuracy>-1.000000</vaccuracy>
<internetconnect>-1</internetconnect>
</trkpt>
<trkpt lat="35.059347" lon="136.433415">
<ele>969.000000</ele>
<time>2026-03-27T06:58:28Z</time>
<speed>0.000000</speed>
<trueHeading>0.000000</trueHeading>
<magneticHeading>0.000000</magneticHeading>
<gpsHeading>0.000000</gpsHeading>
<haccuracy>-1.000000</haccuracy>
<vaccuracy>-1.000000</vaccuracy>
<internetconnect>-1</internetconnect>
</trkpt>
<trkpt lat="35.059312" lon="136.433351">
<ele>968.000000</ele>
<time>2026-03-27T06:58:39Z</time>
<speed>0.000000</speed>
<trueHeading>0.000000</trueHeading>
<magneticHeading>0.000000</magneticHeading>
<gpsHeading>0.000000</gpsHeading>
<haccuracy>-1.000000</haccuracy>
<vaccuracy>-1.000000</vaccuracy>
<internetconnect>-1</internetconnect>
</trkpt>
<trkpt lat="35.059303" lon="136.433271">
<ele>965.000000</ele>
<time>2026-03-27T06:58:51Z</time>
<speed>0.000000</speed>
<trueHeading>0.000000</trueHeading>
<magneticHeading>0.000000</magneticHeading>
<gpsHeading>0.000000</gpsHeading>
<haccuracy>-1.000000</haccuracy>
<vaccuracy>-1.000000</vaccuracy>
<internetconnect>-1</internetconnect>
</trkpt>
<trkpt lat="35.059308" lon="136.433185">
<ele>965.000000</ele>
<time>2026-03-27T06:59:03Z</time>
<speed>0.000000</speed>
<trueHeading>0.000000</trueHeading>
<magneticHeading>0.000000</magneticHeading>
<gpsHeading>0.000000</gpsHeading>
<haccuracy>-1.000000</haccuracy>
<vaccuracy>-1.000000</vaccuracy>
<internetconnect>-1</internetconnect>
</trkpt>
<trkpt lat="35.059325" lon="136.433056">
<ele>959.000000</ele>
<time>2026-03-27T06:59:22Z</time>
<speed>0.000000</speed>
<trueHeading>0.000000</trueHeading>
<magneticHeading>0.000000</magneticHeading>
<gpsHeading>0.000000</gpsHeading>
<haccuracy>-1.000000</haccuracy>
<vaccuracy>-1.000000</vaccuracy>
<internetconnect>-1</internetconnect>
</trkpt>
<trkpt lat="35.059317" lon="136.432906">
<ele>954.000000</ele>
<time>2026-03-27T06:59:43Z</time>
<speed>0.000000</speed>
<trueHeading>0.000000</trueHeading>
<magneticHeading>0.000000</magneticHeading>
<gpsHeading>0.000000</gpsHeading>
<haccuracy>-1.000000</haccuracy>
<vaccuracy>-1.000000</vaccuracy>
<internetconnect>-1</internetconnect>
</trkpt>
<trkpt lat="35.059290" lon="136.432756">
<ele>950.000000</ele>
<time>2026-03-27T07:00:05Z</time>
<speed>0.000000</speed>
<trueHeading>0.000000</trueHeading>
<magneticHeading>0.000000</magneticHeading>
<gpsHeading>0.000000</gpsHeading>
<haccuracy>-1.000000</haccuracy>
<vaccuracy>-1.000000</vaccuracy>
<internetconnect>-1</internetconnect>
</trkpt>
<trkpt lat="35.059242" lon="136.432638">
<ele>948.000000</ele>
<time>2026-03-27T07:00:24Z</time>
<speed>0.000000</speed>
<trueHeading>0.000000</trueHeading>
<magneticHeading>0.000000</magneticHeading>
<gpsHeading>0.000000</gpsHeading>
<haccuracy>-1.000000</haccuracy>
<vaccuracy>-1.000000</vaccuracy>
<internetconnect>-1</internetconnect>
</trkpt>
<trkpt lat="35.059207" lon="136.432530">
<ele>947.000000</ele>
<time>2026-03-27T07:00:41Z</time>
<speed>0.000000</speed>
<trueHeading>0.000000</trueHeading>
<magneticHeading>0.000000</magneticHeading>
<gpsHeading>0.000000</gpsHeading>
<haccuracy>-1.000000</haccuracy>
<vaccuracy>-1.000000</vaccuracy>
<internetconnect>-1</internetconnect>
</trkpt>
<trkpt lat="35.059194" lon="136.432434">
<ele>948.000000</ele>
<time>2026-03-27T07:00:55Z</time>
<speed>0.000000</speed>
<trueHeading>0.000000</trueHeading>
<magneticHeading>0.000000</magneticHeading>
<gpsHeading>0.000000</gpsHeading>
<haccuracy>-1.000000</haccuracy>
<vaccuracy>-1.000000</vaccuracy>
<internetconnect>-1</internetconnect>
</trkpt>
<trkpt lat="35.059202" lon="136.432321">
<ele>945.000000</ele>
<time>2026-03-27T07:01:11Z</time>
<speed>0.000000</speed>
<trueHeading>0.000000</trueHeading>
<magneticHeading>0.000000</magneticHeading>
<gpsHeading>0.000000</gpsHeading>
<haccuracy>-1.000000</haccuracy>
<vaccuracy>-1.000000</vaccuracy>
<internetconnect>-1</internetconnect>
</trkpt>
<trkpt lat="35.059220" lon="136.432198">
<ele>939.000000</ele>
<time>2026-03-27T07:01:29Z</time>
<speed>0.000000</speed>
<trueHeading>0.000000</trueHeading>
<magneticHeading>0.000000</magneticHeading>
<gpsHeading>0.000000</gpsHeading>
<haccuracy>-1.000000</haccuracy>
<vaccuracy>-1.000000</vaccuracy>
<internetconnect>-1</internetconnect>
</trkpt>
<trkpt lat="35.059268" lon="136.432026">
<ele>932.000000</ele>
<time>2026-03-27T07:01:55Z</time>
<speed>0.000000</speed>
<trueHeading>0.000000</trueHeading>
<magneticHeading>0.000000</magneticHeading>
<gpsHeading>0.000000</gpsHeading>
<haccuracy>-1.000000</haccuracy>
<vaccuracy>-1.000000</vaccuracy>
<internetconnect>-1</internetconnect>
</trkpt>
<trkpt lat="35.059290" lon="136.431903">
<ele>927.000000</ele>
<time>2026-03-27T07:02:13Z</time>
<speed>0.000000</speed>
<trueHeading>0.000000</trueHeading>
<magneticHeading>0.000000</magneticHeading>
<gpsHeading>0.000000</gpsHeading>
<haccuracy>-1.000000</haccuracy>
<vaccuracy>-1.000000</vaccuracy>
<internetconnect>-1</internetconnect>
</trkpt>
<trkpt lat="35.059290" lon="136.431785">
<ele>921.000000</ele>
<time>2026-03-27T07:02:30Z</time>
<speed>0.000000</speed>
<trueHeading>0.000000</trueHeading>
<magneticHeading>0.000000</magneticHeading>
<gpsHeading>0.000000</gpsHeading>
<haccuracy>-1.000000</haccuracy>
<vaccuracy>-1.000000</vaccuracy>
<internetconnect>-1</internetconnect>
</trkpt>
<trkpt lat="35.059273" lon="136.431672">
<ele>917.000000</ele>
<time>2026-03-27T07:02:46Z</time>
<speed>0.000000</speed>
<trueHeading>0.000000</trueHeading>
<magneticHeading>0.000000</magneticHeading>
<gpsHeading>0.000000</gpsHeading>
<haccuracy>-1.000000</haccuracy>
<vaccuracy>-1.000000</vaccuracy>
<internetconnect>-1</internetconnect>
</trkpt>
<trkpt lat="35.059246" lon="136.431575">
<ele>913.000000</ele>
<time>2026-03-27T07:03:01Z</time>
<speed>0.000000</speed>
<trueHeading>0.000000</trueHeading>
<magneticHeading>0.000000</magneticHeading>
<gpsHeading>0.000000</gpsHeading>
<haccuracy>-1.000000</haccuracy>
<vaccuracy>-1.000000</vaccuracy>
<internetconnect>-1</internetconnect>
</trkpt>
<trkpt lat="35.059224" lon="136.431447">
<ele>910.000000</ele>
<time>2026-03-27T07:03:19Z</time>
<speed>0.000000</speed>
<trueHeading>0.000000</trueHeading>
<magneticHeading>0.000000</magneticHeading>
<gpsHeading>0.000000</gpsHeading>
<haccuracy>-1.000000</haccuracy>
<vaccuracy>-1.000000</vaccuracy>
<internetconnect>-1</internetconnect>
</trkpt>
<trkpt lat="35.059202" lon="136.431313">
<ele>908.000000</ele>
<time>2026-03-27T07:03:39Z</time>
<speed>0.000000</speed>
<trueHeading>0.000000</trueHeading>
<magneticHeading>0.000000</magneticHeading>
<gpsHeading>0.000000</gpsHeading>
<haccuracy>-1.000000</haccuracy>
<vaccuracy>-1.000000</vaccuracy>
<internetconnect>-1</internetconnect>
</trkpt>
<trkpt lat="35.059176" lon="136.431205">
<ele>907.000000</ele>
<time>2026-03-27T07:03:55Z</time>
<speed>0.000000</speed>
<trueHeading>0.000000</trueHeading>
<magneticHeading>0.000000</magneticHeading>
<gpsHeading>0.000000</gpsHeading>
<haccuracy>-1.000000</haccuracy>
<vaccuracy>-1.000000</vaccuracy>
<internetconnect>-1</internetconnect>
</trkpt>
<trkpt lat="35.059115" lon="136.431093">
<ele>904.000000</ele>
<time>2026-03-27T07:04:14Z</time>
<speed>0.000000</speed>
<trueHeading>0.000000</trueHeading>
<magneticHeading>0.000000</magneticHeading>
<gpsHeading>0.000000</gpsHeading>
<haccuracy>-1.000000</haccuracy>
<vaccuracy>-1.000000</vaccuracy>
<internetconnect>-1</internetconnect>
</trkpt>
<trkpt lat="35.059027" lon="136.430996">
<ele>902.000000</ele>
<time>2026-03-27T07:04:35Z</time>
<speed>0.000000</speed>
<trueHeading>0.000000</trueHeading>
<magneticHeading>0.000000</magneticHeading>
<gpsHeading>0.000000</gpsHeading>
<haccuracy>-1.000000</haccuracy>
<vaccuracy>-1.000000</vaccuracy>
<internetconnect>-1</internetconnect>
</trkpt>
<trkpt lat="35.058860" lon="136.430819">
<ele>907.000000</ele>
<time>2026-03-27T07:05:13Z</time>
<speed>0.000000</speed>
<trueHeading>0.000000</trueHeading>
<magneticHeading>0.000000</magneticHeading>
<gpsHeading>0.000000</gpsHeading>
<haccuracy>-1.000000</haccuracy>
<vaccuracy>-1.000000</vaccuracy>
<internetconnect>-1</internetconnect>
</trkpt>
<trkpt lat="35.058794" lon="136.430712">
<ele>911.000000</ele>
<time>2026-03-27T07:05:33Z</time>
<speed>0.000000</speed>
<trueHeading>0.000000</trueHeading>
<magneticHeading>0.000000</magneticHeading>
<gpsHeading>0.000000</gpsHeading>
<haccuracy>-1.000000</haccuracy>
<vaccuracy>-1.000000</vaccuracy>
<internetconnect>-1</internetconnect>
</trkpt>
<trkpt lat="35.058741" lon="136.430604">
<ele>908.000000</ele>
<time>2026-03-27T07:05:50Z</time>
<speed>0.000000</speed>
<trueHeading>0.000000</trueHeading>
<magneticHeading>0.000000</magneticHeading>
<gpsHeading>0.000000</gpsHeading>
<haccuracy>-1.000000</haccuracy>
<vaccuracy>-1.000000</vaccuracy>
<internetconnect>-1</internetconnect>
</trkpt>
<trkpt lat="35.058711" lon="136.430508">
<ele>908.000000</ele>
<time>2026-03-27T07:06:05Z</time>
<speed>0.000000</speed>
<trueHeading>0.000000</trueHeading>
<magneticHeading>0.000000</magneticHeading>
<gpsHeading>0.000000</gpsHeading>
<haccuracy>-1.000000</haccuracy>
<vaccuracy>-1.000000</vaccuracy>
<internetconnect>-1</internetconnect>
</trkpt>
<trkpt lat="35.058689" lon="136.430406">
<ele>909.000000</ele>
<time>2026-03-27T07:06:20Z</time>
<speed>0.000000</speed>
<trueHeading>0.000000</trueHeading>
<magneticHeading>0.000000</magneticHeading>
<gpsHeading>0.000000</gpsHeading>
<haccuracy>-1.000000</haccuracy>
<vaccuracy>-1.000000</vaccuracy>
<internetconnect>-1</internetconnect>
</trkpt>
<trkpt lat="35.058662" lon="136.430336">
<ele>909.000000</ele>
<time>2026-03-27T07:06:31Z</time>
<speed>0.000000</speed>
<trueHeading>0.000000</trueHeading>
<magneticHeading>0.000000</magneticHeading>
<gpsHeading>0.000000</gpsHeading>
<haccuracy>-1.000000</haccuracy>
<vaccuracy>-1.000000</vaccuracy>
<internetconnect>-1</internetconnect>
</trkpt>
<trkpt lat="35.058627" lon="136.430299">
<ele>910.000000</ele>
<time>2026-03-27T07:06:39Z</time>
<speed>0.000000</speed>
<trueHeading>0.000000</trueHeading>
<magneticHeading>0.000000</magneticHeading>
<gpsHeading>0.000000</gpsHeading>
<haccuracy>-1.000000</haccuracy>
<vaccuracy>-1.000000</vaccuracy>
<internetconnect>-1</internetconnect>
</trkpt>
<trkpt lat="35.058566" lon="136.430261">
<ele>910.000000</ele>
<time>2026-03-27T07:06:51Z</time>
<speed>0.000000</speed>
<trueHeading>0.000000</trueHeading>
<magneticHeading>0.000000</magneticHeading>
<gpsHeading>0.000000</gpsHeading>
<haccuracy>-1.000000</haccuracy>
<vaccuracy>-1.000000</vaccuracy>
<internetconnect>-1</internetconnect>
</trkpt>
<trkpt lat="35.058425" lon="136.430202">
<ele>907.000000</ele>
<time>2026-03-27T07:07:17Z</time>
<speed>0.000000</speed>
<trueHeading>0.000000</trueHeading>
<magneticHeading>0.000000</magneticHeading>
<gpsHeading>0.000000</gpsHeading>
<haccuracy>-1.000000</haccuracy>
<vaccuracy>-1.000000</vaccuracy>
<internetconnect>-1</internetconnect>
</trkpt>
<trkpt lat="35.058285" lon="136.430138">
<ele>900.000000</ele>
<time>2026-03-27T07:07:43Z</time>
<speed>0.000000</speed>
<trueHeading>0.000000</trueHeading>
<magneticHeading>0.000000</magneticHeading>
<gpsHeading>0.000000</gpsHeading>
<haccuracy>-1.000000</haccuracy>
<vaccuracy>-1.000000</vaccuracy>
<internetconnect>-1</internetconnect>
</trkpt>
<trkpt lat="35.058131" lon="136.430068">
<ele>894.000000</ele>
<time>2026-03-27T07:08:12Z</time>
<speed>0.000000</speed>
<trueHeading>0.000000</trueHeading>
<magneticHeading>0.000000</magneticHeading>
<gpsHeading>0.000000</gpsHeading>
<haccuracy>-1.000000</haccuracy>
<vaccuracy>-1.000000</vaccuracy>
<internetconnect>-1</internetconnect>
</trkpt>
<trkpt lat="35.058021" lon="136.430036">
<ele>892.000000</ele>
<time>2026-03-27T07:08:32Z</time>
<speed>0.000000</speed>
<trueHeading>0.000000</trueHeading>
<magneticHeading>0.000000</magneticHeading>
<gpsHeading>0.000000</gpsHeading>
<haccuracy>-1.000000</haccuracy>
<vaccuracy>-1.000000</vaccuracy>
<internetconnect>-1</internetconnect>
</trkpt>
<trkpt lat="35.057876" lon="136.430014">
<ele>893.000000</ele>
<time>2026-03-27T07:08:57Z</time>
<speed>0.000000</speed>
<trueHeading>0.000000</trueHeading>
<magneticHeading>0.000000</magneticHeading>
<gpsHeading>0.000000</gpsHeading>
<haccuracy>-1.000000</haccuracy>
<vaccuracy>-1.000000</vaccuracy>
<internetconnect>-1</internetconnect>
</trkpt>
<trkpt lat="35.057736" lon="136.430020">
<ele>893.000000</ele>
<time>2026-03-27T07:09:21Z</time>
<speed>0.000000</speed>
<trueHeading>0.000000</trueHeading>
<magneticHeading>0.000000</magneticHeading>
<gpsHeading>0.000000</gpsHeading>
<haccuracy>-1.000000</haccuracy>
<vaccuracy>-1.000000</vaccuracy>
<internetconnect>-1</internetconnect>
</trkpt>
<trkpt lat="35.057639" lon="136.430004">
<ele>895.000000</ele>
<time>2026-03-27T07:09:38Z</time>
<speed>0.000000</speed>
<trueHeading>0.000000</trueHeading>
<magneticHeading>0.000000</magneticHeading>
<gpsHeading>0.000000</gpsHeading>
<haccuracy>-1.000000</haccuracy>
<vaccuracy>-1.000000</vaccuracy>
<internetconnect>-1</internetconnect>
</trkpt>
<trkpt lat="35.057591" lon="136.429977">
<ele>896.000000</ele>
<time>2026-03-27T07:09:48Z</time>
<speed>0.000000</speed>
<trueHeading>0.000000</trueHeading>
<magneticHeading>0.000000</magneticHeading>
<gpsHeading>0.000000</gpsHeading>
<haccuracy>-1.000000</haccuracy>
<vaccuracy>-1.000000</vaccuracy>
<internetconnect>-1</internetconnect>
</trkpt>
<trkpt lat="35.057538" lon="136.429918">
<ele>897.000000</ele>
<time>2026-03-27T07:10:00Z</time>
<speed>0.000000</speed>
<trueHeading>0.000000</trueHeading>
<magneticHeading>0.000000</magneticHeading>
<gpsHeading>0.000000</gpsHeading>
<haccuracy>-1.000000</haccuracy>
<vaccuracy>-1.000000</vaccuracy>
<internetconnect>-1</internetconnect>
</trkpt>
<trkpt lat="35.057485" lon="136.429853">
<ele>895.000000</ele>
<time>2026-03-27T07:10:13Z</time>
<speed>0.000000</speed>
<trueHeading>0.000000</trueHeading>
<magneticHeading>0.000000</magneticHeading>
<gpsHeading>0.000000</gpsHeading>
<haccuracy>-1.000000</haccuracy>
<vaccuracy>-1.000000</vaccuracy>
<internetconnect>-1</internetconnect>
</trkpt>
<trkpt lat="35.057402" lon="136.429762">
<ele>894.000000</ele>
<time>2026-03-27T07:10:33Z</time>
<speed>0.000000</speed>
<trueHeading>0.000000</trueHeading>
<magneticHeading>0.000000</magneticHeading>
<gpsHeading>0.000000</gpsHeading>
<haccuracy>-1.000000</haccuracy>
<vaccuracy>-1.000000</vaccuracy>
<internetconnect>-1</internetconnect>
</trkpt>
<trkpt lat="35.057314" lon="136.429693">
<ele>891.000000</ele>
<time>2026-03-27T07:10:51Z</time>
<speed>0.000000</speed>
<trueHeading>0.000000</trueHeading>
<magneticHeading>0.000000</magneticHeading>
<gpsHeading>0.000000</gpsHeading>
<haccuracy>-1.000000</haccuracy>
<vaccuracy>-1.000000</vaccuracy>
<internetconnect>-1</internetconnect>
</trkpt>
<trkpt lat="35.057204" lon="136.429623">
<ele>891.000000</ele>
<time>2026-03-27T07:11:12Z</time>
<speed>0.000000</speed>
<trueHeading>0.000000</trueHeading>
<magneticHeading>0.000000</magneticHeading>
<gpsHeading>0.000000</gpsHeading>
<haccuracy>-1.000000</haccuracy>
<vaccuracy>-1.000000</vaccuracy>
<internetconnect>-1</internetconnect>
</trkpt>
<trkpt lat="35.057059" lon="136.429548">
<ele>888.000000</ele>
<time>2026-03-27T07:11:40Z</time>
<speed>0.000000</speed>
<trueHeading>0.000000</trueHeading>
<magneticHeading>0.000000</magneticHeading>
<gpsHeading>0.000000</gpsHeading>
<haccuracy>-1.000000</haccuracy>
<vaccuracy>-1.000000</vaccuracy>
<internetconnect>-1</internetconnect>
</trkpt>
<trkpt lat="35.056879" lon="136.429478">
<ele>887.000000</ele>
<time>2026-03-27T07:12:13Z</time>
<speed>0.000000</speed>
<trueHeading>0.000000</trueHeading>
<magneticHeading>0.000000</magneticHeading>
<gpsHeading>0.000000</gpsHeading>
<haccuracy>-1.000000</haccuracy>
<vaccuracy>-1.000000</vaccuracy>
<internetconnect>-1</internetconnect>
</trkpt>
<trkpt lat="35.056686" lon="136.429376">
<ele>887.000000</ele>
<time>2026-03-27T07:12:49Z</time>
<speed>0.000000</speed>
<trueHeading>0.000000</trueHeading>
<magneticHeading>0.000000</magneticHeading>
<gpsHeading>0.000000</gpsHeading>
<haccuracy>-1.000000</haccuracy>
<vaccuracy>-1.000000</vaccuracy>
<internetconnect>-1</internetconnect>
</trkpt>
<trkpt lat="35.056598" lon="136.429312">
<ele>890.000000</ele>
<time>2026-03-27T07:13:07Z</time>
<speed>0.000000</speed>
<trueHeading>0.000000</trueHeading>
<magneticHeading>0.000000</magneticHeading>
<gpsHeading>0.000000</gpsHeading>
<haccuracy>-1.000000</haccuracy>
<vaccuracy>-1.000000</vaccuracy>
<internetconnect>-1</internetconnect>
</trkpt>
<trkpt lat="35.056484" lon="136.429188">
<ele>892.000000</ele>
<time>2026-03-27T07:13:34Z</time>
<speed>0.000000</speed>
<trueHeading>0.000000</trueHeading>
<magneticHeading>0.000000</magneticHeading>
<gpsHeading>0.000000</gpsHeading>
<haccuracy>-1.000000</haccuracy>
<vaccuracy>-1.000000</vaccuracy>
<internetconnect>-1</internetconnect>
</trkpt>
<trkpt lat="35.056388" lon="136.429065">
<ele>894.000000</ele>
<time>2026-03-27T07:13:58Z</time>
<speed>0.000000</speed>
<trueHeading>0.000000</trueHeading>
<magneticHeading>0.000000</magneticHeading>
<gpsHeading>0.000000</gpsHeading>
<haccuracy>-1.000000</haccuracy>
<vaccuracy>-1.000000</vaccuracy>
<internetconnect>-1</internetconnect>
</trkpt>
<trkpt lat="35.056317" lon="136.428958">
<ele>897.000000</ele>
<time>2026-03-27T07:14:18Z</time>
<speed>0.000000</speed>
<trueHeading>0.000000</trueHeading>
<magneticHeading>0.000000</magneticHeading>
<gpsHeading>0.000000</gpsHeading>
<haccuracy>-1.000000</haccuracy>
<vaccuracy>-1.000000</vaccuracy>
<internetconnect>-1</internetconnect>
</trkpt>
<trkpt lat="35.056282" lon="136.428877">
<ele>896.000000</ele>
<time>2026-03-27T07:14:31Z</time>
<speed>0.000000</speed>
<trueHeading>0.000000</trueHeading>
<magneticHeading>0.000000</magneticHeading>
<gpsHeading>0.000000</gpsHeading>
<haccuracy>-1.000000</haccuracy>
<vaccuracy>-1.000000</vaccuracy>
<internetconnect>-1</internetconnect>
</trkpt>
<trkpt lat="35.056269" lon="136.428775">
<ele>891.000000</ele>
<time>2026-03-27T07:14:45Z</time>
<speed>0.000000</speed>
<trueHeading>0.000000</trueHeading>
<magneticHeading>0.000000</magneticHeading>
<gpsHeading>0.000000</gpsHeading>
<haccuracy>-1.000000</haccuracy>
<vaccuracy>-1.000000</vaccuracy>
<internetconnect>-1</internetconnect>
</trkpt>
<trkpt lat="35.056273" lon="136.428700">
<ele>889.000000</ele>
<time>2026-03-27T07:14:56Z</time>
<speed>0.000000</speed>
<trueHeading>0.000000</trueHeading>
<magneticHeading>0.000000</magneticHeading>
<gpsHeading>0.000000</gpsHeading>
<haccuracy>-1.000000</haccuracy>
<vaccuracy>-1.000000</vaccuracy>
<internetconnect>-1</internetconnect>
</trkpt>
<trkpt lat="35.056309" lon="136.428566">
<ele>890.000000</ele>
<time>2026-03-27T07:15:16Z</time>
<speed>0.000000</speed>
<trueHeading>0.000000</trueHeading>
<magneticHeading>0.000000</magneticHeading>
<gpsHeading>0.000000</gpsHeading>
<haccuracy>-1.000000</haccuracy>
<vaccuracy>-1.000000</vaccuracy>
<internetconnect>-1</internetconnect>
</trkpt>
<trkpt lat="35.056379" lon="136.428378">
<ele>885.000000</ele>
<time>2026-03-27T07:15:46Z</time>
<speed>0.000000</speed>
<trueHeading>0.000000</trueHeading>
<magneticHeading>0.000000</magneticHeading>
<gpsHeading>0.000000</gpsHeading>
<haccuracy>-1.000000</haccuracy>
<vaccuracy>-1.000000</vaccuracy>
<internetconnect>-1</internetconnect>
</trkpt>
<trkpt lat="35.056432" lon="136.428233">
<ele>885.000000</ele>
<time>2026-03-27T07:16:09Z</time>
<speed>0.000000</speed>
<trueHeading>0.000000</trueHeading>
<magneticHeading>0.000000</magneticHeading>
<gpsHeading>0.000000</gpsHeading>
<haccuracy>-1.000000</haccuracy>
<vaccuracy>-1.000000</vaccuracy>
<internetconnect>-1</internetconnect>
</trkpt>
<trkpt lat="35.056489" lon="136.427997">
<ele>882.000000</ele>
<time>2026-03-27T07:16:44Z</time>
<speed>0.000000</speed>
<trueHeading>0.000000</trueHeading>
<magneticHeading>0.000000</magneticHeading>
<gpsHeading>0.000000</gpsHeading>
<haccuracy>-1.000000</haccuracy>
<vaccuracy>-1.000000</vaccuracy>
<internetconnect>-1</internetconnect>
</trkpt>
<trkpt lat="35.056550" lon="136.427751">
<ele>876.000000</ele>
<time>2026-03-27T07:17:21Z</time>
<speed>0.000000</speed>
<trueHeading>0.000000</trueHeading>
<magneticHeading>0.000000</magneticHeading>
<gpsHeading>0.000000</gpsHeading>
<haccuracy>-1.000000</haccuracy>
<vaccuracy>-1.000000</vaccuracy>
<internetconnect>-1</internetconnect>
</trkpt>
<trkpt lat="35.056594" lon="136.427584">
<ele>874.000000</ele>
<time>2026-03-27T07:17:46Z</time>
<speed>0.000000</speed>
<trueHeading>0.000000</trueHeading>
<magneticHeading>0.000000</magneticHeading>
<gpsHeading>0.000000</gpsHeading>
<haccuracy>-1.000000</haccuracy>
<vaccuracy>-1.000000</vaccuracy>
<internetconnect>-1</internetconnect>
</trkpt>
<trkpt lat="35.056629" lon="136.427482">
<ele>876.000000</ele>
<time>2026-03-27T07:18:01Z</time>
<speed>0.000000</speed>
<trueHeading>0.000000</trueHeading>
<magneticHeading>0.000000</magneticHeading>
<gpsHeading>0.000000</gpsHeading>
<haccuracy>-1.000000</haccuracy>
<vaccuracy>-1.000000</vaccuracy>
<internetconnect>-1</internetconnect>
</trkpt>
<trkpt lat="35.056669" lon="136.427418">
<ele>875.000000</ele>
<time>2026-03-27T07:18:13Z</time>
<speed>0.000000</speed>
<trueHeading>0.000000</trueHeading>
<magneticHeading>0.000000</magneticHeading>
<gpsHeading>0.000000</gpsHeading>
<haccuracy>-1.000000</haccuracy>
<vaccuracy>-1.000000</vaccuracy>
<internetconnect>-1</internetconnect>
</trkpt>
<trkpt lat="35.056717" lon="136.427343">
<ele>878.000000</ele>
<time>2026-03-27T07:18:27Z</time>
<speed>0.000000</speed>
<trueHeading>0.000000</trueHeading>
<magneticHeading>0.000000</magneticHeading>
<gpsHeading>0.000000</gpsHeading>
<haccuracy>-1.000000</haccuracy>
<vaccuracy>-1.000000</vaccuracy>
<internetconnect>-1</internetconnect>
</trkpt>
<trkpt lat="35.056774" lon="136.427273">
<ele>877.000000</ele>
<time>2026-03-27T07:18:41Z</time>
<speed>0.000000</speed>
<trueHeading>0.000000</trueHeading>
<magneticHeading>0.000000</magneticHeading>
<gpsHeading>0.000000</gpsHeading>
<haccuracy>-1.000000</haccuracy>
<vaccuracy>-1.000000</vaccuracy>
<internetconnect>-1</internetconnect>
</trkpt>
<trkpt lat="35.056836" lon="136.427155">
<ele>874.000000</ele>
<time>2026-03-27T07:19:01Z</time>
<speed>0.000000</speed>
<trueHeading>0.000000</trueHeading>
<magneticHeading>0.000000</magneticHeading>
<gpsHeading>0.000000</gpsHeading>
<haccuracy>-1.000000</haccuracy>
<vaccuracy>-1.000000</vaccuracy>
<internetconnect>-1</internetconnect>
</trkpt>
<trkpt lat="35.056866" lon="136.427000">
<ele>867.000000</ele>
<time>2026-03-27T07:19:24Z</time>
<speed>0.000000</speed>
<trueHeading>0.000000</trueHeading>
<magneticHeading>0.000000</magneticHeading>
<gpsHeading>0.000000</gpsHeading>
<haccuracy>-1.000000</haccuracy>
<vaccuracy>-1.000000</vaccuracy>
<internetconnect>-1</internetconnect>
</trkpt>
<trkpt lat="35.056879" lon="136.426871">
<ele>863.000000</ele>
<time>2026-03-27T07:19:42Z</time>
<speed>0.000000</speed>
<trueHeading>0.000000</trueHeading>
<magneticHeading>0.000000</magneticHeading>
<gpsHeading>0.000000</gpsHeading>
<haccuracy>-1.000000</haccuracy>
<vaccuracy>-1.000000</vaccuracy>
<internetconnect>-1</internetconnect>
</trkpt>
<trkpt lat="35.056879" lon="136.426715">
<ele>858.000000</ele>
<time>2026-03-27T07:20:04Z</time>
<speed>0.000000</speed>
<trueHeading>0.000000</trueHeading>
<magneticHeading>0.000000</magneticHeading>
<gpsHeading>0.000000</gpsHeading>
<haccuracy>-1.000000</haccuracy>
<vaccuracy>-1.000000</vaccuracy>
<internetconnect>-1</internetconnect>
</trkpt>
<trkpt lat="35.056857" lon="136.426474">
<ele>848.000000</ele>
<time>2026-03-27T07:20:39Z</time>
<speed>0.000000</speed>
<trueHeading>0.000000</trueHeading>
<magneticHeading>0.000000</magneticHeading>
<gpsHeading>0.000000</gpsHeading>
<haccuracy>-1.000000</haccuracy>
<vaccuracy>-1.000000</vaccuracy>
<internetconnect>-1</internetconnect>
</trkpt>
<trkpt lat="35.056831" lon="136.426222">
<ele>837.000000</ele>
<time>2026-03-27T07:21:15Z</time>
<speed>0.000000</speed>
<trueHeading>0.000000</trueHeading>
<magneticHeading>0.000000</magneticHeading>
<gpsHeading>0.000000</gpsHeading>
<haccuracy>-1.000000</haccuracy>
<vaccuracy>-1.000000</vaccuracy>
<internetconnect>-1</internetconnect>
</trkpt>
<trkpt lat="35.056827" lon="136.426077">
<ele>834.000000</ele>
<time>2026-03-27T07:21:36Z</time>
<speed>0.000000</speed>
<trueHeading>0.000000</trueHeading>
<magneticHeading>0.000000</magneticHeading>
<gpsHeading>0.000000</gpsHeading>
<haccuracy>-1.000000</haccuracy>
<vaccuracy>-1.000000</vaccuracy>
<internetconnect>-1</internetconnect>
</trkpt>
<trkpt lat="35.056831" lon="136.425948">
<ele>833.000000</ele>
<time>2026-03-27T07:21:55Z</time>
<speed>0.000000</speed>
<trueHeading>0.000000</trueHeading>
<magneticHeading>0.000000</magneticHeading>
<gpsHeading>0.000000</gpsHeading>
<haccuracy>-1.000000</haccuracy>
<vaccuracy>-1.000000</vaccuracy>
<internetconnect>-1</internetconnect>
</trkpt>
<trkpt lat="35.056853" lon="136.425803">
<ele>832.000000</ele>
<time>2026-03-27T07:22:16Z</time>
<speed>0.000000</speed>
<trueHeading>0.000000</trueHeading>
<magneticHeading>0.000000</magneticHeading>
<gpsHeading>0.000000</gpsHeading>
<haccuracy>-1.000000</haccuracy>
<vaccuracy>-1.000000</vaccuracy>
<internetconnect>-1</internetconnect>
</trkpt>
<trkpt lat="35.056910" lon="136.425632">
<ele>827.000000</ele>
<time>2026-03-27T07:22:42Z</time>
<speed>0.000000</speed>
<trueHeading>0.000000</trueHeading>
<magneticHeading>0.000000</magneticHeading>
<gpsHeading>0.000000</gpsHeading>
<haccuracy>-1.000000</haccuracy>
<vaccuracy>-1.000000</vaccuracy>
<internetconnect>-1</internetconnect>
</trkpt>
<trkpt lat="35.056945" lon="136.425540">
<ele>830.000000</ele>
<time>2026-03-27T07:22:57Z</time>
<speed>0.000000</speed>
<trueHeading>0.000000</trueHeading>
<magneticHeading>0.000000</magneticHeading>
<gpsHeading>0.000000</gpsHeading>
<haccuracy>-1.000000</haccuracy>
<vaccuracy>-1.000000</vaccuracy>
<internetconnect>-1</internetconnect>
</trkpt>
<trkpt lat="35.056884" lon="136.425481">
<ele>831.000000</ele>
<time>2026-03-27T07:23:10Z</time>
<speed>0.000000</speed>
<trueHeading>0.000000</trueHeading>
<magneticHeading>0.000000</magneticHeading>
<gpsHeading>0.000000</gpsHeading>
<haccuracy>-1.000000</haccuracy>
<vaccuracy>-1.000000</vaccuracy>
<internetconnect>-1</internetconnect>
</trkpt>
<trkpt lat="35.056792" lon="136.425401">
<ele>833.000000</ele>
<time>2026-03-27T07:23:30Z</time>
<speed>0.000000</speed>
<trueHeading>0.000000</trueHeading>
<magneticHeading>0.000000</magneticHeading>
<gpsHeading>0.000000</gpsHeading>
<haccuracy>-1.000000</haccuracy>
<vaccuracy>-1.000000</vaccuracy>
<internetconnect>-1</internetconnect>
</trkpt>
<trkpt lat="35.056655" lon="136.425321">
<ele>828.000000</ele>
<time>2026-03-27T07:23:56Z</time>
<speed>0.000000</speed>
<trueHeading>0.000000</trueHeading>
<magneticHeading>0.000000</magneticHeading>
<gpsHeading>0.000000</gpsHeading>
<haccuracy>-1.000000</haccuracy>
<vaccuracy>-1.000000</vaccuracy>
<internetconnect>-1</internetconnect>
</trkpt>
<trkpt lat="35.056550" lon="136.425272">
<ele>826.000000</ele>
<time>2026-03-27T07:24:16Z</time>
<speed>0.000000</speed>
<trueHeading>0.000000</trueHeading>
<magneticHeading>0.000000</magneticHeading>
<gpsHeading>0.000000</gpsHeading>
<haccuracy>-1.000000</haccuracy>
<vaccuracy>-1.000000</vaccuracy>
<internetconnect>-1</internetconnect>
</trkpt>
<trkpt lat="35.056462" lon="136.425245">
<ele>822.000000</ele>
<time>2026-03-27T07:24:32Z</time>
<speed>0.000000</speed>
<trueHeading>0.000000</trueHeading>
<magneticHeading>0.000000</magneticHeading>
<gpsHeading>0.000000</gpsHeading>
<haccuracy>-1.000000</haccuracy>
<vaccuracy>-1.000000</vaccuracy>
<internetconnect>-1</internetconnect>
</trkpt>
<trkpt lat="35.056243" lon="136.425224">
<ele>814.000000</ele>
<time>2026-03-27T07:25:10Z</time>
<speed>0.000000</speed>
<trueHeading>0.000000</trueHeading>
<magneticHeading>0.000000</magneticHeading>
<gpsHeading>0.000000</gpsHeading>
<haccuracy>-1.000000</haccuracy>
<vaccuracy>-1.000000</vaccuracy>
<internetconnect>-1</internetconnect>
</trkpt>
<trkpt lat="35.056032" lon="136.425208">
<ele>816.000000</ele>
<time>2026-03-27T07:25:47Z</time>
<speed>0.000000</speed>
<trueHeading>0.000000</trueHeading>
<magneticHeading>0.000000</magneticHeading>
<gpsHeading>0.000000</gpsHeading>
<haccuracy>-1.000000</haccuracy>
<vaccuracy>-1.000000</vaccuracy>
<internetconnect>-1</internetconnect>
</trkpt>
<trkpt lat="35.055760" lon="136.425197">
<ele>805.000000</ele>
<time>2026-03-27T07:26:34Z</time>
<speed>0.000000</speed>
<trueHeading>0.000000</trueHeading>
<magneticHeading>0.000000</magneticHeading>
<gpsHeading>0.000000</gpsHeading>
<haccuracy>-1.000000</haccuracy>
<vaccuracy>-1.000000</vaccuracy>
<internetconnect>-1</internetconnect>
</trkpt>
<trkpt lat="35.055700" lon="136.425194">
<ele>804.000000</ele>
<time>2026-03-27T07:26:44Z</time>
<speed>0.000000</speed>
<trueHeading>0.000000</trueHeading>
<magneticHeading>0.000000</magneticHeading>
<gpsHeading>0.000000</gpsHeading>
<haccuracy>-1.000000</haccuracy>
<vaccuracy>-1.000000</vaccuracy>
<internetconnect>-1</internetconnect>
</trkpt>
<trkpt lat="35.055700" lon="136.425194">
<ele>804.000000</ele>
<time>2026-03-27T07:26:44Z</time>
<speed>0.000000</speed>
<trueHeading>0.000000</trueHeading>
<magneticHeading>0.000000</magneticHeading>
<gpsHeading>0.000000</gpsHeading>
<haccuracy>-1.000000</haccuracy>
<vaccuracy>-1.000000</vaccuracy>
<internetconnect>-1</internetconnect>
</trkpt>
<trkpt lat="35.055667" lon="136.425315">
<ele>795.000000</ele>
<time>2026-03-27T07:27:03Z</time>
<speed>0.000000</speed>
<trueHeading>0.000000</trueHeading>
<magneticHeading>0.000000</magneticHeading>
<gpsHeading>0.000000</gpsHeading>
<haccuracy>-1.000000</haccuracy>
<vaccuracy>-1.000000</vaccuracy>
<internetconnect>-1</internetconnect>
</trkpt>
<trkpt lat="35.055637" lon="136.425369">
<ele>792.000000</ele>
<time>2026-03-27T07:27:12Z</time>
<speed>0.000000</speed>
<trueHeading>0.000000</trueHeading>
<magneticHeading>0.000000</magneticHeading>
<gpsHeading>0.000000</gpsHeading>
<haccuracy>-1.000000</haccuracy>
<vaccuracy>-1.000000</vaccuracy>
<internetconnect>-1</internetconnect>
</trkpt>
<trkpt lat="35.055597" lon="136.425417">
<ele>789.000000</ele>
<time>2026-03-27T07:27:22Z</time>
<speed>0.000000</speed>
<trueHeading>0.000000</trueHeading>
<magneticHeading>0.000000</magneticHeading>
<gpsHeading>0.000000</gpsHeading>
<haccuracy>-1.000000</haccuracy>
<vaccuracy>-1.000000</vaccuracy>
<internetconnect>-1</internetconnect>
</trkpt>
<trkpt lat="35.055549" lon="136.425455">
<ele>785.000000</ele>
<time>2026-03-27T07:27:32Z</time>
<speed>0.000000</speed>
<trueHeading>0.000000</trueHeading>
<magneticHeading>0.000000</magneticHeading>
<gpsHeading>0.000000</gpsHeading>
<haccuracy>-1.000000</haccuracy>
<vaccuracy>-1.000000</vaccuracy>
<internetconnect>-1</internetconnect>
</trkpt>
<trkpt lat="35.055514" lon="136.425487">
<ele>783.000000</ele>
<time>2026-03-27T07:27:39Z</time>
<speed>0.000000</speed>
<trueHeading>0.000000</trueHeading>
<magneticHeading>0.000000</magneticHeading>
<gpsHeading>0.000000</gpsHeading>
<haccuracy>-1.000000</haccuracy>
<vaccuracy>-1.000000</vaccuracy>
<internetconnect>-1</internetconnect>
</trkpt>
<trkpt lat="35.055452" lon="136.425567">
<ele>775.000000</ele>
<time>2026-03-27T07:27:55Z</time>
<speed>0.000000</speed>
<trueHeading>0.000000</trueHeading>
<magneticHeading>0.000000</magneticHeading>
<gpsHeading>0.000000</gpsHeading>
<haccuracy>-1.000000</haccuracy>
<vaccuracy>-1.000000</vaccuracy>
<internetconnect>-1</internetconnect>
</trkpt>
<trkpt lat="35.055435" lon="136.425626">
<ele>771.000000</ele>
<time>2026-03-27T07:28:04Z</time>
<speed>0.000000</speed>
<trueHeading>0.000000</trueHeading>
<magneticHeading>0.000000</magneticHeading>
<gpsHeading>0.000000</gpsHeading>
<haccuracy>-1.000000</haccuracy>
<vaccuracy>-1.000000</vaccuracy>
<internetconnect>-1</internetconnect>
</trkpt>
<trkpt lat="35.055422" lon="136.425669">
<ele>771.000000</ele>
<time>2026-03-27T07:28:11Z</time>
<speed>0.000000</speed>
<trueHeading>0.000000</trueHeading>
<magneticHeading>0.000000</magneticHeading>
<gpsHeading>0.000000</gpsHeading>
<haccuracy>-1.000000</haccuracy>
<vaccuracy>-1.000000</vaccuracy>
<internetconnect>-1</internetconnect>
</trkpt>
<trkpt lat="35.055426" lon="136.425717">
<ele>770.000000</ele>
<time>2026-03-27T07:28:18Z</time>
<speed>0.000000</speed>
<trueHeading>0.000000</trueHeading>
<magneticHeading>0.000000</magneticHeading>
<gpsHeading>0.000000</gpsHeading>
<haccuracy>-1.000000</haccuracy>
<vaccuracy>-1.000000</vaccuracy>
<internetconnect>-1</internetconnect>
</trkpt>
<trkpt lat="35.055426" lon="136.425776">
<ele>772.000000</ele>
<time>2026-03-27T07:28:26Z</time>
<speed>0.000000</speed>
<trueHeading>0.000000</trueHeading>
<magneticHeading>0.000000</magneticHeading>
<gpsHeading>0.000000</gpsHeading>
<haccuracy>-1.000000</haccuracy>
<vaccuracy>-1.000000</vaccuracy>
<internetconnect>-1</internetconnect>
</trkpt>
<trkpt lat="35.055360" lon="136.425878">
<ele>774.000000</ele>
<time>2026-03-27T07:28:45Z</time>
<speed>0.000000</speed>
<trueHeading>0.000000</trueHeading>
<magneticHeading>0.000000</magneticHeading>
<gpsHeading>0.000000</gpsHeading>
<haccuracy>-1.000000</haccuracy>
<vaccuracy>-1.000000</vaccuracy>
<internetconnect>-1</internetconnect>
</trkpt>
<trkpt lat="35.055241" lon="136.425943">
<ele>769.000000</ele>
<time>2026-03-27T07:29:07Z</time>
<speed>0.000000</speed>
<trueHeading>0.000000</trueHeading>
<magneticHeading>0.000000</magneticHeading>
<gpsHeading>0.000000</gpsHeading>
<haccuracy>-1.000000</haccuracy>
<vaccuracy>-1.000000</vaccuracy>
<internetconnect>-1</internetconnect>
</trkpt>
<trkpt lat="35.055184" lon="136.425964">
<ele>770.000000</ele>
<time>2026-03-27T07:29:18Z</time>
<speed>0.000000</speed>
<trueHeading>0.000000</trueHeading>
<magneticHeading>0.000000</magneticHeading>
<gpsHeading>0.000000</gpsHeading>
<haccuracy>-1.000000</haccuracy>
<vaccuracy>-1.000000</vaccuracy>
<internetconnect>-1</internetconnect>
</trkpt>
<trkpt lat="35.055132" lon="136.425954">
<ele>770.000000</ele>
<time>2026-03-27T07:29:27Z</time>
<speed>0.000000</speed>
<trueHeading>0.000000</trueHeading>
<magneticHeading>0.000000</magneticHeading>
<gpsHeading>0.000000</gpsHeading>
<haccuracy>-1.000000</haccuracy>
<vaccuracy>-1.000000</vaccuracy>
<internetconnect>-1</internetconnect>
</trkpt>
<trkpt lat="35.055083" lon="136.425916">
<ele>769.000000</ele>
<time>2026-03-27T07:29:37Z</time>
<speed>0.000000</speed>
<trueHeading>0.000000</trueHeading>
<magneticHeading>0.000000</magneticHeading>
<gpsHeading>0.000000</gpsHeading>
<haccuracy>-1.000000</haccuracy>
<vaccuracy>-1.000000</vaccuracy>
<internetconnect>-1</internetconnect>
</trkpt>
<trkpt lat="35.055022" lon="136.425857">
<ele>767.000000</ele>
<time>2026-03-27T07:29:50Z</time>
<speed>0.000000</speed>
<trueHeading>0.000000</trueHeading>
<magneticHeading>0.000000</magneticHeading>
<gpsHeading>0.000000</gpsHeading>
<haccuracy>-1.000000</haccuracy>
<vaccuracy>-1.000000</vaccuracy>
<internetconnect>-1</internetconnect>
</trkpt>
<trkpt lat="35.054912" lon="136.425798">
<ele>764.000000</ele>
<time>2026-03-27T07:30:11Z</time>
<speed>0.000000</speed>
<trueHeading>0.000000</trueHeading>
<magneticHeading>0.000000</magneticHeading>
<gpsHeading>0.000000</gpsHeading>
<haccuracy>-1.000000</haccuracy>
<vaccuracy>-1.000000</vaccuracy>
<internetconnect>-1</internetconnect>
</trkpt>
<trkpt lat="35.054723" lon="136.425750">
<ele>761.000000</ele>
<time>2026-03-27T07:30:45Z</time>
<speed>0.000000</speed>
<trueHeading>0.000000</trueHeading>
<magneticHeading>0.000000</magneticHeading>
<gpsHeading>0.000000</gpsHeading>
<haccuracy>-1.000000</haccuracy>
<vaccuracy>-1.000000</vaccuracy>
<internetconnect>-1</internetconnect>
</trkpt>
<trkpt lat="35.054473" lon="136.425696">
<ele>758.000000</ele>
<time>2026-03-27T07:31:29Z</time>
<speed>0.000000</speed>
<trueHeading>0.000000</trueHeading>
<magneticHeading>0.000000</magneticHeading>
<gpsHeading>0.000000</gpsHeading>
<haccuracy>-1.000000</haccuracy>
<vaccuracy>-1.000000</vaccuracy>
<internetconnect>-1</internetconnect>
</trkpt>
<trkpt lat="35.054240" lon="136.425728">
<ele>755.000000</ele>
<time>2026-03-27T07:32:10Z</time>
<speed>0.000000</speed>
<trueHeading>0.000000</trueHeading>
<magneticHeading>0.000000</magneticHeading>
<gpsHeading>0.000000</gpsHeading>
<haccuracy>-1.000000</haccuracy>
<vaccuracy>-1.000000</vaccuracy>
<internetconnect>-1</internetconnect>
</trkpt>
<trkpt lat="35.054073" lon="136.425744">
<ele>753.000000</ele>
<time>2026-03-27T07:32:39Z</time>
<speed>0.000000</speed>
<trueHeading>0.000000</trueHeading>
<magneticHeading>0.000000</magneticHeading>
<gpsHeading>0.000000</gpsHeading>
<haccuracy>-1.000000</haccuracy>
<vaccuracy>-1.000000</vaccuracy>
<internetconnect>-1</internetconnect>
</trkpt>
<trkpt lat="35.053928" lon="136.425782">
<ele>752.000000</ele>
<time>2026-03-27T07:33:05Z</time>
<speed>0.000000</speed>
<trueHeading>0.000000</trueHeading>
<magneticHeading>0.000000</magneticHeading>
<gpsHeading>0.000000</gpsHeading>
<haccuracy>-1.000000</haccuracy>
<vaccuracy>-1.000000</vaccuracy>
<internetconnect>-1</internetconnect>
</trkpt>
<trkpt lat="35.053814" lon="136.425846">
<ele>749.000000</ele>
<time>2026-03-27T07:33:27Z</time>
<speed>0.000000</speed>
<trueHeading>0.000000</trueHeading>
<magneticHeading>0.000000</magneticHeading>
<gpsHeading>0.000000</gpsHeading>
<haccuracy>-1.000000</haccuracy>
<vaccuracy>-1.000000</vaccuracy>
<internetconnect>-1</internetconnect>
</trkpt>
<trkpt lat="35.053669" lon="136.425911">
<ele>748.000000</ele>
<time>2026-03-27T07:33:54Z</time>
<speed>0.000000</speed>
<trueHeading>0.000000</trueHeading>
<magneticHeading>0.000000</magneticHeading>
<gpsHeading>0.000000</gpsHeading>
<haccuracy>-1.000000</haccuracy>
<vaccuracy>-1.000000</vaccuracy>
<internetconnect>-1</internetconnect>
</trkpt>
<trkpt lat="35.053542" lon="136.426034">
<ele>746.000000</ele>
<time>2026-03-27T07:34:22Z</time>
<speed>0.000000</speed>
<trueHeading>0.000000</trueHeading>
<magneticHeading>0.000000</magneticHeading>
<gpsHeading>0.000000</gpsHeading>
<haccuracy>-1.000000</haccuracy>
<vaccuracy>-1.000000</vaccuracy>
<internetconnect>-1</internetconnect>
</trkpt>
<trkpt lat="35.053441" lon="136.426120">
<ele>744.000000</ele>
<time>2026-03-27T07:34:43Z</time>
<speed>0.000000</speed>
<trueHeading>0.000000</trueHeading>
<magneticHeading>0.000000</magneticHeading>
<gpsHeading>0.000000</gpsHeading>
<haccuracy>-1.000000</haccuracy>
<vaccuracy>-1.000000</vaccuracy>
<internetconnect>-1</internetconnect>
</trkpt>
<trkpt lat="35.053336" lon="136.426147">
<ele>743.000000</ele>
<time>2026-03-27T07:35:02Z</time>
<speed>0.000000</speed>
<trueHeading>0.000000</trueHeading>
<magneticHeading>0.000000</magneticHeading>
<gpsHeading>0.000000</gpsHeading>
<haccuracy>-1.000000</haccuracy>
<vaccuracy>-1.000000</vaccuracy>
<internetconnect>-1</internetconnect>
</trkpt>
<trkpt lat="35.053235" lon="136.426163">
<ele>744.000000</ele>
<time>2026-03-27T07:35:20Z</time>
<speed>0.000000</speed>
<trueHeading>0.000000</trueHeading>
<magneticHeading>0.000000</magneticHeading>
<gpsHeading>0.000000</gpsHeading>
<haccuracy>-1.000000</haccuracy>
<vaccuracy>-1.000000</vaccuracy>
<internetconnect>-1</internetconnect>
</trkpt>
<trkpt lat="35.053077" lon="136.426173">
<ele>741.000000</ele>
<time>2026-03-27T07:35:47Z</time>
<speed>0.000000</speed>
<trueHeading>0.000000</trueHeading>
<magneticHeading>0.000000</magneticHeading>
<gpsHeading>0.000000</gpsHeading>
<haccuracy>-1.000000</haccuracy>
<vaccuracy>-1.000000</vaccuracy>
<internetconnect>-1</internetconnect>
</trkpt>
<trkpt lat="35.052804" lon="136.426173">
<ele>737.000000</ele>
<time>2026-03-27T07:36:35Z</time>
<speed>0.000000</speed>
<trueHeading>0.000000</trueHeading>
<magneticHeading>0.000000</magneticHeading>
<gpsHeading>0.000000</gpsHeading>
<haccuracy>-1.000000</haccuracy>
<vaccuracy>-1.000000</vaccuracy>
<internetconnect>-1</internetconnect>
</trkpt>
<trkpt lat="35.052716" lon="136.426157">
<ele>736.000000</ele>
<time>2026-03-27T07:36:50Z</time>
<speed>0.000000</speed>
<trueHeading>0.000000</trueHeading>
<magneticHeading>0.000000</magneticHeading>
<gpsHeading>0.000000</gpsHeading>
<haccuracy>-1.000000</haccuracy>
<vaccuracy>-1.000000</vaccuracy>
<internetconnect>-1</internetconnect>
</trkpt>
<trkpt lat="35.052651" lon="136.426114">
<ele>736.000000</ele>
<time>2026-03-27T07:37:03Z</time>
<speed>0.000000</speed>
<trueHeading>0.000000</trueHeading>
<magneticHeading>0.000000</magneticHeading>
<gpsHeading>0.000000</gpsHeading>
<haccuracy>-1.000000</haccuracy>
<vaccuracy>-1.000000</vaccuracy>
<internetconnect>-1</internetconnect>
</trkpt>
<trkpt lat="35.052593" lon="136.426066">
<ele>734.000000</ele>
<time>2026-03-27T07:37:15Z</time>
<speed>0.000000</speed>
<trueHeading>0.000000</trueHeading>
<magneticHeading>0.000000</magneticHeading>
<gpsHeading>0.000000</gpsHeading>
<haccuracy>-1.000000</haccuracy>
<vaccuracy>-1.000000</vaccuracy>
<internetconnect>-1</internetconnect>
</trkpt>
<trkpt lat="35.052541" lon="136.426034">
<ele>734.000000</ele>
<time>2026-03-27T07:37:25Z</time>
<speed>0.000000</speed>
<trueHeading>0.000000</trueHeading>
<magneticHeading>0.000000</magneticHeading>
<gpsHeading>0.000000</gpsHeading>
<haccuracy>-1.000000</haccuracy>
<vaccuracy>-1.000000</vaccuracy>
<internetconnect>-1</internetconnect>
</trkpt>
<trkpt lat="35.052506" lon="136.426023">
<ele>734.000000</ele>
<time>2026-03-27T07:37:32Z</time>
<speed>0.000000</speed>
<trueHeading>0.000000</trueHeading>
<magneticHeading>0.000000</magneticHeading>
<gpsHeading>0.000000</gpsHeading>
<haccuracy>-1.000000</haccuracy>
<vaccuracy>-1.000000</vaccuracy>
<internetconnect>-1</internetconnect>
</trkpt>
<trkpt lat="35.052391" lon="136.426066">
<ele>736.000000</ele>
<time>2026-03-27T07:37:53Z</time>
<speed>0.000000</speed>
<trueHeading>0.000000</trueHeading>
<magneticHeading>0.000000</magneticHeading>
<gpsHeading>0.000000</gpsHeading>
<haccuracy>-1.000000</haccuracy>
<vaccuracy>-1.000000</vaccuracy>
<internetconnect>-1</internetconnect>
</trkpt>
<trkpt lat="35.052334" lon="136.426098">
<ele>737.000000</ele>
<time>2026-03-27T07:38:04Z</time>
<speed>0.000000</speed>
<trueHeading>0.000000</trueHeading>
<magneticHeading>0.000000</magneticHeading>
<gpsHeading>0.000000</gpsHeading>
<haccuracy>-1.000000</haccuracy>
<vaccuracy>-1.000000</vaccuracy>
<internetconnect>-1</internetconnect>
</trkpt>
<trkpt lat="35.052251" lon="136.426082">
<ele>736.000000</ele>
<time>2026-03-27T07:38:18Z</time>
<speed>0.000000</speed>
<trueHeading>0.000000</trueHeading>
<magneticHeading>0.000000</magneticHeading>
<gpsHeading>0.000000</gpsHeading>
<haccuracy>-1.000000</haccuracy>
<vaccuracy>-1.000000</vaccuracy>
<internetconnect>-1</internetconnect>
</trkpt>
<trkpt lat="35.052137" lon="136.426055">
<ele>732.000000</ele>
<time>2026-03-27T07:38:38Z</time>
<speed>0.000000</speed>
<trueHeading>0.000000</trueHeading>
<magneticHeading>0.000000</magneticHeading>
<gpsHeading>0.000000</gpsHeading>
<haccuracy>-1.000000</haccuracy>
<vaccuracy>-1.000000</vaccuracy>
<internetconnect>-1</internetconnect>
</trkpt>
<trkpt lat="35.052137" lon="136.426055">
<ele>732.000000</ele>
<time>2026-03-27T07:38:38Z</time>
<speed>0.000000</speed>
<trueHeading>0.000000</trueHeading>
<magneticHeading>0.000000</magneticHeading>
<gpsHeading>0.000000</gpsHeading>
<haccuracy>-1.000000</haccuracy>
<vaccuracy>-1.000000</vaccuracy>
<internetconnect>-1</internetconnect>
</trkpt>
<trkpt lat="35.052049" lon="136.426013">
<ele>732.000000</ele>
<time>2026-03-27T07:38:55Z</time>
<speed>0.000000</speed>
<trueHeading>0.000000</trueHeading>
<magneticHeading>0.000000</magneticHeading>
<gpsHeading>0.000000</gpsHeading>
<haccuracy>-1.000000</haccuracy>
<vaccuracy>-1.000000</vaccuracy>
<internetconnect>-1</internetconnect>
</trkpt>
<trkpt lat="35.051961" lon="136.426007">
<ele>734.000000</ele>
<time>2026-03-27T07:39:10Z</time>
<speed>0.000000</speed>
<trueHeading>0.000000</trueHeading>
<magneticHeading>0.000000</magneticHeading>
<gpsHeading>0.000000</gpsHeading>
<haccuracy>-1.000000</haccuracy>
<vaccuracy>-1.000000</vaccuracy>
<internetconnect>-1</internetconnect>
</trkpt>
<trkpt lat="35.051922" lon="136.426013">
<ele>734.000000</ele>
<time>2026-03-27T07:39:17Z</time>
<speed>0.000000</speed>
<trueHeading>0.000000</trueHeading>
<magneticHeading>0.000000</magneticHeading>
<gpsHeading>0.000000</gpsHeading>
<haccuracy>-1.000000</haccuracy>
<vaccuracy>-1.000000</vaccuracy>
<internetconnect>-1</internetconnect>
</trkpt>
<trkpt lat="35.051843" lon="136.426050">
<ele>734.000000</ele>
<time>2026-03-27T07:39:32Z</time>
<speed>0.000000</speed>
<trueHeading>0.000000</trueHeading>
<magneticHeading>0.000000</magneticHeading>
<gpsHeading>0.000000</gpsHeading>
<haccuracy>-1.000000</haccuracy>
<vaccuracy>-1.000000</vaccuracy>
<internetconnect>-1</internetconnect>
</trkpt>
<trkpt lat="35.051768" lon="136.426093">
<ele>733.000000</ele>
<time>2026-03-27T07:39:46Z</time>
<speed>0.000000</speed>
<trueHeading>0.000000</trueHeading>
<magneticHeading>0.000000</magneticHeading>
<gpsHeading>0.000000</gpsHeading>
<haccuracy>-1.000000</haccuracy>
<vaccuracy>-1.000000</vaccuracy>
<internetconnect>-1</internetconnect>
</trkpt>
<trkpt lat="35.051693" lon="136.426114">
<ele>732.000000</ele>
<time>2026-03-27T07:40:00Z</time>
<speed>0.000000</speed>
<trueHeading>0.000000</trueHeading>
<magneticHeading>0.000000</magneticHeading>
<gpsHeading>0.000000</gpsHeading>
<haccuracy>-1.000000</haccuracy>
<vaccuracy>-1.000000</vaccuracy>
<internetconnect>-1</internetconnect>
</trkpt>
<trkpt lat="35.051632" lon="136.426120">
<ele>731.000000</ele>
<time>2026-03-27T07:40:10Z</time>
<speed>0.000000</speed>
<trueHeading>0.000000</trueHeading>
<magneticHeading>0.000000</magneticHeading>
<gpsHeading>0.000000</gpsHeading>
<haccuracy>-1.000000</haccuracy>
<vaccuracy>-1.000000</vaccuracy>
<internetconnect>-1</internetconnect>
</trkpt>
<trkpt lat="35.051557" lon="136.426136">
<ele>731.000000</ele>
<time>2026-03-27T07:40:24Z</time>
<speed>0.000000</speed>
<trueHeading>0.000000</trueHeading>
<magneticHeading>0.000000</magneticHeading>
<gpsHeading>0.000000</gpsHeading>
<haccuracy>-1.000000</haccuracy>
<vaccuracy>-1.000000</vaccuracy>
<internetconnect>-1</internetconnect>
</trkpt>
<trkpt lat="35.051469" lon="136.426141">
<ele>731.000000</ele>
<time>2026-03-27T07:40:39Z</time>
<speed>0.000000</speed>
<trueHeading>0.000000</trueHeading>
<magneticHeading>0.000000</magneticHeading>
<gpsHeading>0.000000</gpsHeading>
<haccuracy>-1.000000</haccuracy>
<vaccuracy>-1.000000</vaccuracy>
<internetconnect>-1</internetconnect>
</trkpt>
<trkpt lat="35.051267" lon="136.426163">
<ele>732.000000</ele>
<time>2026-03-27T07:41:14Z</time>
<speed>0.000000</speed>
<trueHeading>0.000000</trueHeading>
<magneticHeading>0.000000</magneticHeading>
<gpsHeading>0.000000</gpsHeading>
<haccuracy>-1.000000</haccuracy>
<vaccuracy>-1.000000</vaccuracy>
<internetconnect>-1</internetconnect>
</trkpt>
<trkpt lat="35.051175" lon="136.426195">
<ele>730.000000</ele>
<time>2026-03-27T07:41:31Z</time>
<speed>0.000000</speed>
<trueHeading>0.000000</trueHeading>
<magneticHeading>0.000000</magneticHeading>
<gpsHeading>0.000000</gpsHeading>
<haccuracy>-1.000000</haccuracy>
<vaccuracy>-1.000000</vaccuracy>
<internetconnect>-1</internetconnect>
</trkpt>
<trkpt lat="35.051105" lon="136.426238">
<ele>730.000000</ele>
<time>2026-03-27T07:41:44Z</time>
<speed>0.000000</speed>
<trueHeading>0.000000</trueHeading>
<magneticHeading>0.000000</magneticHeading>
<gpsHeading>0.000000</gpsHeading>
<haccuracy>-1.000000</haccuracy>
<vaccuracy>-1.000000</vaccuracy>
<internetconnect>-1</internetconnect>
</trkpt>
<trkpt lat="35.051061" lon="136.426275">
<ele>731.000000</ele>
<time>2026-03-27T07:41:54Z</time>
<speed>0.000000</speed>
<trueHeading>0.000000</trueHeading>
<magneticHeading>0.000000</magneticHeading>
<gpsHeading>0.000000</gpsHeading>
<haccuracy>-1.000000</haccuracy>
<vaccuracy>-1.000000</vaccuracy>
<internetconnect>-1</internetconnect>
</trkpt>
<trkpt lat="35.051017" lon="136.426313">
<ele>729.000000</ele>
<time>2026-03-27T07:42:03Z</time>
<speed>0.000000</speed>
<trueHeading>0.000000</trueHeading>
<magneticHeading>0.000000</magneticHeading>
<gpsHeading>0.000000</gpsHeading>
<haccuracy>-1.000000</haccuracy>
<vaccuracy>-1.000000</vaccuracy>
<internetconnect>-1</internetconnect>
</trkpt>
<trkpt lat="35.050942" lon="136.426334">
<ele>729.000000</ele>
<time>2026-03-27T07:42:16Z</time>
<speed>0.000000</speed>
<trueHeading>0.000000</trueHeading>
<magneticHeading>0.000000</magneticHeading>
<gpsHeading>0.000000</gpsHeading>
<haccuracy>-1.000000</haccuracy>
<vaccuracy>-1.000000</vaccuracy>
<internetconnect>-1</internetconnect>
</trkpt>
<trkpt lat="35.050872" lon="136.426367">
<ele>729.000000</ele>
<time>2026-03-27T07:42:30Z</time>
<speed>0.000000</speed>
<trueHeading>0.000000</trueHeading>
<magneticHeading>0.000000</magneticHeading>
<gpsHeading>0.000000</gpsHeading>
<haccuracy>-1.000000</haccuracy>
<vaccuracy>-1.000000</vaccuracy>
<internetconnect>-1</internetconnect>
</trkpt>
<trkpt lat="35.050762" lon="136.426388">
<ele>729.000000</ele>
<time>2026-03-27T07:42:49Z</time>
<speed>0.000000</speed>
<trueHeading>0.000000</trueHeading>
<magneticHeading>0.000000</magneticHeading>
<gpsHeading>0.000000</gpsHeading>
<haccuracy>-1.000000</haccuracy>
<vaccuracy>-1.000000</vaccuracy>
<internetconnect>-1</internetconnect>
</trkpt>
<trkpt lat="35.050604" lon="136.426452">
<ele>727.000000</ele>
<time>2026-03-27T07:43:18Z</time>
<speed>0.000000</speed>
<trueHeading>0.000000</trueHeading>
<magneticHeading>0.000000</magneticHeading>
<gpsHeading>0.000000</gpsHeading>
<haccuracy>-1.000000</haccuracy>
<vaccuracy>-1.000000</vaccuracy>
<internetconnect>-1</internetconnect>
</trkpt>
<trkpt lat="35.050477" lon="136.426517">
<ele>725.000000</ele>
<time>2026-03-27T07:43:42Z</time>
<speed>0.000000</speed>
<trueHeading>0.000000</trueHeading>
<magneticHeading>0.000000</magneticHeading>
<gpsHeading>0.000000</gpsHeading>
<haccuracy>-1.000000</haccuracy>
<vaccuracy>-1.000000</vaccuracy>
<internetconnect>-1</internetconnect>
</trkpt>
<trkpt lat="35.050292" lon="136.426629">
<ele>723.000000</ele>
<time>2026-03-27T07:44:18Z</time>
<speed>0.000000</speed>
<trueHeading>0.000000</trueHeading>
<magneticHeading>0.000000</magneticHeading>
<gpsHeading>0.000000</gpsHeading>
<haccuracy>-1.000000</haccuracy>
<vaccuracy>-1.000000</vaccuracy>
<internetconnect>-1</internetconnect>
</trkpt>
<trkpt lat="35.050226" lon="136.426651">
<ele>723.000000</ele>
<time>2026-03-27T07:44:30Z</time>
<speed>0.000000</speed>
<trueHeading>0.000000</trueHeading>
<magneticHeading>0.000000</magneticHeading>
<gpsHeading>0.000000</gpsHeading>
<haccuracy>-1.000000</haccuracy>
<vaccuracy>-1.000000</vaccuracy>
<internetconnect>-1</internetconnect>
</trkpt>
<trkpt lat="35.050161" lon="136.426656">
<ele>722.000000</ele>
<time>2026-03-27T07:44:41Z</time>
<speed>0.000000</speed>
<trueHeading>0.000000</trueHeading>
<magneticHeading>0.000000</magneticHeading>
<gpsHeading>0.000000</gpsHeading>
<haccuracy>-1.000000</haccuracy>
<vaccuracy>-1.000000</vaccuracy>
<internetconnect>-1</internetconnect>
</trkpt>
<trkpt lat="35.050077" lon="136.426640">
<ele>722.000000</ele>
<time>2026-03-27T07:44:56Z</time>
<speed>0.000000</speed>
<trueHeading>0.000000</trueHeading>
<magneticHeading>0.000000</magneticHeading>
<gpsHeading>0.000000</gpsHeading>
<haccuracy>-1.000000</haccuracy>
<vaccuracy>-1.000000</vaccuracy>
<internetconnect>-1</internetconnect>
</trkpt>
<trkpt lat="35.049989" lon="136.426624">
<ele>719.000000</ele>
<time>2026-03-27T07:45:11Z</time>
<speed>0.000000</speed>
<trueHeading>0.000000</trueHeading>
<magneticHeading>0.000000</magneticHeading>
<gpsHeading>0.000000</gpsHeading>
<haccuracy>-1.000000</haccuracy>
<vaccuracy>-1.000000</vaccuracy>
<internetconnect>-1</internetconnect>
</trkpt>
<trkpt lat="35.049897" lon="136.426672">
<ele>719.000000</ele>
<time>2026-03-27T07:45:29Z</time>
<speed>0.000000</speed>
<trueHeading>0.000000</trueHeading>
<magneticHeading>0.000000</magneticHeading>
<gpsHeading>0.000000</gpsHeading>
<haccuracy>-1.000000</haccuracy>
<vaccuracy>-1.000000</vaccuracy>
<internetconnect>-1</internetconnect>
</trkpt>
<trkpt lat="35.049822" lon="136.426731">
<ele>717.000000</ele>
<time>2026-03-27T07:45:44Z</time>
<speed>0.000000</speed>
<trueHeading>0.000000</trueHeading>
<magneticHeading>0.000000</magneticHeading>
<gpsHeading>0.000000</gpsHeading>
<haccuracy>-1.000000</haccuracy>
<vaccuracy>-1.000000</vaccuracy>
<internetconnect>-1</internetconnect>
</trkpt>
<trkpt lat="35.049774" lon="136.426780">
<ele>716.000000</ele>
<time>2026-03-27T07:45:55Z</time>
<speed>0.000000</speed>
<trueHeading>0.000000</trueHeading>
<magneticHeading>0.000000</magneticHeading>
<gpsHeading>0.000000</gpsHeading>
<haccuracy>-1.000000</haccuracy>
<vaccuracy>-1.000000</vaccuracy>
<internetconnect>-1</internetconnect>
</trkpt>
<trkpt lat="35.049726" lon="136.426823">
<ele>716.000000</ele>
<time>2026-03-27T07:46:06Z</time>
<speed>0.000000</speed>
<trueHeading>0.000000</trueHeading>
<magneticHeading>0.000000</magneticHeading>
<gpsHeading>0.000000</gpsHeading>
<haccuracy>-1.000000</haccuracy>
<vaccuracy>-1.000000</vaccuracy>
<internetconnect>-1</internetconnect>
</trkpt>
<trkpt lat="35.049647" lon="136.426849">
<ele>715.000000</ele>
<time>2026-03-27T07:46:20Z</time>
<speed>0.000000</speed>
<trueHeading>0.000000</trueHeading>
<magneticHeading>0.000000</magneticHeading>
<gpsHeading>0.000000</gpsHeading>
<haccuracy>-1.000000</haccuracy>
<vaccuracy>-1.000000</vaccuracy>
<internetconnect>-1</internetconnect>
</trkpt>
<trkpt lat="35.049572" lon="136.426871">
<ele>715.000000</ele>
<time>2026-03-27T07:46:33Z</time>
<speed>0.000000</speed>
<trueHeading>0.000000</trueHeading>
<magneticHeading>0.000000</magneticHeading>
<gpsHeading>0.000000</gpsHeading>
<haccuracy>-1.000000</haccuracy>
<vaccuracy>-1.000000</vaccuracy>
<internetconnect>-1</internetconnect>
</trkpt>
<trkpt lat="35.049515" lon="136.426924">
<ele>714.000000</ele>
<time>2026-03-27T07:46:46Z</time>
<speed>0.000000</speed>
<trueHeading>0.000000</trueHeading>
<magneticHeading>0.000000</magneticHeading>
<gpsHeading>0.000000</gpsHeading>
<haccuracy>-1.000000</haccuracy>
<vaccuracy>-1.000000</vaccuracy>
<internetconnect>-1</internetconnect>
</trkpt>
<trkpt lat="35.049471" lon="136.426967">
<ele>714.000000</ele>
<time>2026-03-27T07:46:56Z</time>
<speed>0.000000</speed>
<trueHeading>0.000000</trueHeading>
<magneticHeading>0.000000</magneticHeading>
<gpsHeading>0.000000</gpsHeading>
<haccuracy>-1.000000</haccuracy>
<vaccuracy>-1.000000</vaccuracy>
<internetconnect>-1</internetconnect>
</trkpt>
<trkpt lat="35.049449" lon="136.427000">
<ele>713.000000</ele>
<time>2026-03-27T07:47:02Z</time>
<speed>0.000000</speed>
<trueHeading>0.000000</trueHeading>
<magneticHeading>0.000000</magneticHeading>
<gpsHeading>0.000000</gpsHeading>
<haccuracy>-1.000000</haccuracy>
<vaccuracy>-1.000000</vaccuracy>
<internetconnect>-1</internetconnect>
</trkpt>
<trkpt lat="35.049427" lon="136.427128">
<ele>712.000000</ele>
<time>2026-03-27T07:47:20Z</time>
<speed>0.000000</speed>
<trueHeading>0.000000</trueHeading>
<magneticHeading>0.000000</magneticHeading>
<gpsHeading>0.000000</gpsHeading>
<haccuracy>-1.000000</haccuracy>
<vaccuracy>-1.000000</vaccuracy>
<internetconnect>-1</internetconnect>
</trkpt>
<trkpt lat="35.049396" lon="136.427246">
<ele>713.000000</ele>
<time>2026-03-27T07:47:38Z</time>
<speed>0.000000</speed>
<trueHeading>0.000000</trueHeading>
<magneticHeading>0.000000</magneticHeading>
<gpsHeading>0.000000</gpsHeading>
<haccuracy>-1.000000</haccuracy>
<vaccuracy>-1.000000</vaccuracy>
<internetconnect>-1</internetconnect>
</trkpt>
<trkpt lat="35.049313" lon="136.427386">
<ele>711.000000</ele>
<time>2026-03-27T07:48:03Z</time>
<speed>0.000000</speed>
<trueHeading>0.000000</trueHeading>
<magneticHeading>0.000000</magneticHeading>
<gpsHeading>0.000000</gpsHeading>
<haccuracy>-1.000000</haccuracy>
<vaccuracy>-1.000000</vaccuracy>
<internetconnect>-1</internetconnect>
</trkpt>
<trkpt lat="35.049238" lon="136.427509">
<ele>710.000000</ele>
<time>2026-03-27T07:48:25Z</time>
<speed>0.000000</speed>
<trueHeading>0.000000</trueHeading>
<magneticHeading>0.000000</magneticHeading>
<gpsHeading>0.000000</gpsHeading>
<haccuracy>-1.000000</haccuracy>
<vaccuracy>-1.000000</vaccuracy>
<internetconnect>-1</internetconnect>
</trkpt>
<trkpt lat="35.049133" lon="136.427649">
<ele>708.000000</ele>
<time>2026-03-27T07:48:52Z</time>
<speed>0.000000</speed>
<trueHeading>0.000000</trueHeading>
<magneticHeading>0.000000</magneticHeading>
<gpsHeading>0.000000</gpsHeading>
<haccuracy>-1.000000</haccuracy>
<vaccuracy>-1.000000</vaccuracy>
<internetconnect>-1</internetconnect>
</trkpt>
<trkpt lat="35.048962" lon="136.427831">
<ele>705.000000</ele>
<time>2026-03-27T07:49:31Z</time>
<speed>0.000000</speed>
<trueHeading>0.000000</trueHeading>
<magneticHeading>0.000000</magneticHeading>
<gpsHeading>0.000000</gpsHeading>
<haccuracy>-1.000000</haccuracy>
<vaccuracy>-1.000000</vaccuracy>
<internetconnect>-1</internetconnect>
</trkpt>
<trkpt lat="35.048843" lon="136.427976">
<ele>705.000000</ele>
<time>2026-03-27T07:50:01Z</time>
<speed>0.000000</speed>
<trueHeading>0.000000</trueHeading>
<magneticHeading>0.000000</magneticHeading>
<gpsHeading>0.000000</gpsHeading>
<haccuracy>-1.000000</haccuracy>
<vaccuracy>-1.000000</vaccuracy>
<internetconnect>-1</internetconnect>
</trkpt>
<trkpt lat="35.048711" lon="136.428040">
<ele>701.000000</ele>
<time>2026-03-27T07:50:25Z</time>
<speed>0.000000</speed>
<trueHeading>0.000000</trueHeading>
<magneticHeading>0.000000</magneticHeading>
<gpsHeading>0.000000</gpsHeading>
<haccuracy>-1.000000</haccuracy>
<vaccuracy>-1.000000</vaccuracy>
<internetconnect>-1</internetconnect>
</trkpt>
<trkpt lat="35.048523" lon="136.428099">
<ele>699.000000</ele>
<time>2026-03-27T07:50:59Z</time>
<speed>0.000000</speed>
<trueHeading>0.000000</trueHeading>
<magneticHeading>0.000000</magneticHeading>
<gpsHeading>0.000000</gpsHeading>
<haccuracy>-1.000000</haccuracy>
<vaccuracy>-1.000000</vaccuracy>
<internetconnect>-1</internetconnect>
</trkpt>
<trkpt lat="35.048321" lon="136.428083">
<ele>695.000000</ele>
<time>2026-03-27T07:51:34Z</time>
<speed>0.000000</speed>
<trueHeading>0.000000</trueHeading>
<magneticHeading>0.000000</magneticHeading>
<gpsHeading>0.000000</gpsHeading>
<haccuracy>-1.000000</haccuracy>
<vaccuracy>-1.000000</vaccuracy>
<internetconnect>-1</internetconnect>
</trkpt>
<trkpt lat="35.048224" lon="136.428099">
<ele>695.000000</ele>
<time>2026-03-27T07:51:51Z</time>
<speed>0.000000</speed>
<trueHeading>0.000000</trueHeading>
<magneticHeading>0.000000</magneticHeading>
<gpsHeading>0.000000</gpsHeading>
<haccuracy>-1.000000</haccuracy>
<vaccuracy>-1.000000</vaccuracy>
<internetconnect>-1</internetconnect>
</trkpt>
<trkpt lat="35.048136" lon="136.428137">
<ele>693.000000</ele>
<time>2026-03-27T07:52:08Z</time>
<speed>0.000000</speed>
<trueHeading>0.000000</trueHeading>
<magneticHeading>0.000000</magneticHeading>
<gpsHeading>0.000000</gpsHeading>
<haccuracy>-1.000000</haccuracy>
<vaccuracy>-1.000000</vaccuracy>
<internetconnect>-1</internetconnect>
</trkpt>
<trkpt lat="35.048031" lon="136.428233">
<ele>691.000000</ele>
<time>2026-03-27T07:52:31Z</time>
<speed>0.000000</speed>
<trueHeading>0.000000</trueHeading>
<magneticHeading>0.000000</magneticHeading>
<gpsHeading>0.000000</gpsHeading>
<haccuracy>-1.000000</haccuracy>
<vaccuracy>-1.000000</vaccuracy>
<internetconnect>-1</internetconnect>
</trkpt>
<trkpt lat="35.047947" lon="136.428325">
<ele>689.000000</ele>
<time>2026-03-27T07:52:50Z</time>
<speed>0.000000</speed>
<trueHeading>0.000000</trueHeading>
<magneticHeading>0.000000</magneticHeading>
<gpsHeading>0.000000</gpsHeading>
<haccuracy>-1.000000</haccuracy>
<vaccuracy>-1.000000</vaccuracy>
<internetconnect>-1</internetconnect>
</trkpt>
<trkpt lat="35.047807" lon="136.428443">
<ele>687.000000</ele>
<time>2026-03-27T07:53:20Z</time>
<speed>0.000000</speed>
<trueHeading>0.000000</trueHeading>
<magneticHeading>0.000000</magneticHeading>
<gpsHeading>0.000000</gpsHeading>
<haccuracy>-1.000000</haccuracy>
<vaccuracy>-1.000000</vaccuracy>
<internetconnect>-1</internetconnect>
</trkpt>
<trkpt lat="35.047701" lon="136.428539">
<ele>686.000000</ele>
<time>2026-03-27T07:53:43Z</time>
<speed>0.000000</speed>
<trueHeading>0.000000</trueHeading>
<magneticHeading>0.000000</magneticHeading>
<gpsHeading>0.000000</gpsHeading>
<haccuracy>-1.000000</haccuracy>
<vaccuracy>-1.000000</vaccuracy>
<internetconnect>-1</internetconnect>
</trkpt>
<trkpt lat="35.047600" lon="136.428593">
<ele>685.000000</ele>
<time>2026-03-27T07:54:02Z</time>
<speed>0.000000</speed>
<trueHeading>0.000000</trueHeading>
<magneticHeading>0.000000</magneticHeading>
<gpsHeading>0.000000</gpsHeading>
<haccuracy>-1.000000</haccuracy>
<vaccuracy>-1.000000</vaccuracy>
<internetconnect>-1</internetconnect>
</trkpt>
<trkpt lat="35.047508" lon="136.428625">
<ele>684.000000</ele>
<time>2026-03-27T07:54:19Z</time>
<speed>0.000000</speed>
<trueHeading>0.000000</trueHeading>
<magneticHeading>0.000000</magneticHeading>
<gpsHeading>0.000000</gpsHeading>
<haccuracy>-1.000000</haccuracy>
<vaccuracy>-1.000000</vaccuracy>
<internetconnect>-1</internetconnect>
</trkpt>
<trkpt lat="35.047455" lon="136.428614">
<ele>683.000000</ele>
<time>2026-03-27T07:54:28Z</time>
<speed>0.000000</speed>
<trueHeading>0.000000</trueHeading>
<magneticHeading>0.000000</magneticHeading>
<gpsHeading>0.000000</gpsHeading>
<haccuracy>-1.000000</haccuracy>
<vaccuracy>-1.000000</vaccuracy>
<internetconnect>-1</internetconnect>
</trkpt>
<trkpt lat="35.047433" lon="136.428582">
<ele>683.000000</ele>
<time>2026-03-27T07:54:34Z</time>
<speed>0.000000</speed>
<trueHeading>0.000000</trueHeading>
<magneticHeading>0.000000</magneticHeading>
<gpsHeading>0.000000</gpsHeading>
<haccuracy>-1.000000</haccuracy>
<vaccuracy>-1.000000</vaccuracy>
<internetconnect>-1</internetconnect>
</trkpt>
<trkpt lat="35.047433" lon="136.428512">
<ele>682.000000</ele>
<time>2026-03-27T07:54:44Z</time>
<speed>0.000000</speed>
<trueHeading>0.000000</trueHeading>
<magneticHeading>0.000000</magneticHeading>
<gpsHeading>0.000000</gpsHeading>
<haccuracy>-1.000000</haccuracy>
<vaccuracy>-1.000000</vaccuracy>
<internetconnect>-1</internetconnect>
</trkpt>
<trkpt lat="35.047442" lon="136.428480">
<ele>682.000000</ele>
<time>2026-03-27T07:54:49Z</time>
<speed>0.000000</speed>
<trueHeading>0.000000</trueHeading>
<magneticHeading>0.000000</magneticHeading>
<gpsHeading>0.000000</gpsHeading>
<haccuracy>-1.000000</haccuracy>
<vaccuracy>-1.000000</vaccuracy>
<internetconnect>-1</internetconnect>
</trkpt>
<trkpt lat="35.047499" lon="136.428405">
<ele>681.000000</ele>
<time>2026-03-27T07:55:03Z</time>
<speed>0.000000</speed>
<trueHeading>0.000000</trueHeading>
<magneticHeading>0.000000</magneticHeading>
<gpsHeading>0.000000</gpsHeading>
<haccuracy>-1.000000</haccuracy>
<vaccuracy>-1.000000</vaccuracy>
<internetconnect>-1</internetconnect>
</trkpt>
<trkpt lat="35.047605" lon="136.428314">
<ele>680.000000</ele>
<time>2026-03-27T07:55:26Z</time>
<speed>0.000000</speed>
<trueHeading>0.000000</trueHeading>
<magneticHeading>0.000000</magneticHeading>
<gpsHeading>0.000000</gpsHeading>
<haccuracy>-1.000000</haccuracy>
<vaccuracy>-1.000000</vaccuracy>
<internetconnect>-1</internetconnect>
</trkpt>
<trkpt lat="35.047657" lon="136.428249">
<ele>679.000000</ele>
<time>2026-03-27T07:55:39Z</time>
<speed>0.000000</speed>
<trueHeading>0.000000</trueHeading>
<magneticHeading>0.000000</magneticHeading>
<gpsHeading>0.000000</gpsHeading>
<haccuracy>-1.000000</haccuracy>
<vaccuracy>-1.000000</vaccuracy>
<internetconnect>-1</internetconnect>
</trkpt>
<trkpt lat="35.047719" lon="136.428196">
<ele>679.000000</ele>
<time>2026-03-27T07:55:52Z</time>
<speed>0.000000</speed>
<trueHeading>0.000000</trueHeading>
<magneticHeading>0.000000</magneticHeading>
<gpsHeading>0.000000</gpsHeading>
<haccuracy>-1.000000</haccuracy>
<vaccuracy>-1.000000</vaccuracy>
<internetconnect>-1</internetconnect>
</trkpt>
<trkpt lat="35.047780" lon="136.428105">
<ele>679.000000</ele>
<time>2026-03-27T07:56:09Z</time>
<speed>0.000000</speed>
<trueHeading>0.000000</trueHeading>
<magneticHeading>0.000000</magneticHeading>
<gpsHeading>0.000000</gpsHeading>
<haccuracy>-1.000000</haccuracy>
<vaccuracy>-1.000000</vaccuracy>
<internetconnect>-1</internetconnect>
</trkpt>
<trkpt lat="35.047807" lon="136.428046">
<ele>678.000000</ele>
<time>2026-03-27T07:56:18Z</time>
<speed>0.000000</speed>
<trueHeading>0.000000</trueHeading>
<magneticHeading>0.000000</magneticHeading>
<gpsHeading>0.000000</gpsHeading>
<haccuracy>-1.000000</haccuracy>
<vaccuracy>-1.000000</vaccuracy>
<internetconnect>-1</internetconnect>
</trkpt>
<trkpt lat="35.047824" lon="136.427976">
<ele>678.000000</ele>
<time>2026-03-27T07:56:29Z</time>
<speed>0.000000</speed>
<trueHeading>0.000000</trueHeading>
<magneticHeading>0.000000</magneticHeading>
<gpsHeading>0.000000</gpsHeading>
<haccuracy>-1.000000</haccuracy>
<vaccuracy>-1.000000</vaccuracy>
<internetconnect>-1</internetconnect>
</trkpt>
<trkpt lat="35.047815" lon="136.427912">
<ele>677.000000</ele>
<time>2026-03-27T07:56:38Z</time>
<speed>0.000000</speed>
<trueHeading>0.000000</trueHeading>
<magneticHeading>0.000000</magneticHeading>
<gpsHeading>0.000000</gpsHeading>
<haccuracy>-1.000000</haccuracy>
<vaccuracy>-1.000000</vaccuracy>
<internetconnect>-1</internetconnect>
</trkpt>
<trkpt lat="35.047780" lon="136.427874">
<ele>676.000000</ele>
<time>2026-03-27T07:56:46Z</time>
<speed>0.000000</speed>
<trueHeading>0.000000</trueHeading>
<magneticHeading>0.000000</magneticHeading>
<gpsHeading>0.000000</gpsHeading>
<haccuracy>-1.000000</haccuracy>
<vaccuracy>-1.000000</vaccuracy>
<internetconnect>-1</internetconnect>
</trkpt>
<trkpt lat="35.047736" lon="136.427863">
<ele>675.000000</ele>
<time>2026-03-27T07:56:54Z</time>
<speed>0.000000</speed>
<trueHeading>0.000000</trueHeading>
<magneticHeading>0.000000</magneticHeading>
<gpsHeading>0.000000</gpsHeading>
<haccuracy>-1.000000</haccuracy>
<vaccuracy>-1.000000</vaccuracy>
<internetconnect>-1</internetconnect>
</trkpt>
<trkpt lat="35.047635" lon="136.427901">
<ele>674.000000</ele>
<time>2026-03-27T07:57:13Z</time>
<speed>0.000000</speed>
<trueHeading>0.000000</trueHeading>
<magneticHeading>0.000000</magneticHeading>
<gpsHeading>0.000000</gpsHeading>
<haccuracy>-1.000000</haccuracy>
<vaccuracy>-1.000000</vaccuracy>
<internetconnect>-1</internetconnect>
</trkpt>
<trkpt lat="35.047495" lon="136.427997">
<ele>673.000000</ele>
<time>2026-03-27T07:57:41Z</time>
<speed>0.000000</speed>
<trueHeading>0.000000</trueHeading>
<magneticHeading>0.000000</magneticHeading>
<gpsHeading>0.000000</gpsHeading>
<haccuracy>-1.000000</haccuracy>
<vaccuracy>-1.000000</vaccuracy>
<internetconnect>-1</internetconnect>
</trkpt>
<trkpt lat="35.047245" lon="136.428115">
<ele>670.000000</ele>
<time>2026-03-27T07:58:27Z</time>
<speed>0.000000</speed>
<trueHeading>0.000000</trueHeading>
<magneticHeading>0.000000</magneticHeading>
<gpsHeading>0.000000</gpsHeading>
<haccuracy>-1.000000</haccuracy>
<vaccuracy>-1.000000</vaccuracy>
<internetconnect>-1</internetconnect>
</trkpt>
<trkpt lat="35.047130" lon="136.428142">
<ele>669.000000</ele>
<time>2026-03-27T07:58:48Z</time>
<speed>0.000000</speed>
<trueHeading>0.000000</trueHeading>
<magneticHeading>0.000000</magneticHeading>
<gpsHeading>0.000000</gpsHeading>
<haccuracy>-1.000000</haccuracy>
<vaccuracy>-1.000000</vaccuracy>
<internetconnect>-1</internetconnect>
</trkpt>
<trkpt lat="35.047047" lon="136.428148">
<ele>668.000000</ele>
<time>2026-03-27T07:59:02Z</time>
<speed>0.000000</speed>
<trueHeading>0.000000</trueHeading>
<magneticHeading>0.000000</magneticHeading>
<gpsHeading>0.000000</gpsHeading>
<haccuracy>-1.000000</haccuracy>
<vaccuracy>-1.000000</vaccuracy>
<internetconnect>-1</internetconnect>
</trkpt>
<trkpt lat="35.046924" lon="136.428094">
<ele>664.000000</ele>
<time>2026-03-27T07:59:25Z</time>
<speed>0.000000</speed>
<trueHeading>0.000000</trueHeading>
<magneticHeading>0.000000</magneticHeading>
<gpsHeading>0.000000</gpsHeading>
<haccuracy>-1.000000</haccuracy>
<vaccuracy>-1.000000</vaccuracy>
<internetconnect>-1</internetconnect>
</trkpt>
<trkpt lat="35.046867" lon="136.427997">
<ele>664.000000</ele>
<time>2026-03-27T07:59:42Z</time>
<speed>0.000000</speed>
<trueHeading>0.000000</trueHeading>
<magneticHeading>0.000000</magneticHeading>
<gpsHeading>0.000000</gpsHeading>
<haccuracy>-1.000000</haccuracy>
<vaccuracy>-1.000000</vaccuracy>
<internetconnect>-1</internetconnect>
</trkpt>
<trkpt lat="35.046819" lon="136.427901">
<ele>662.000000</ele>
<time>2026-03-27T07:59:58Z</time>
<speed>0.000000</speed>
<trueHeading>0.000000</trueHeading>
<magneticHeading>0.000000</magneticHeading>
<gpsHeading>0.000000</gpsHeading>
<haccuracy>-1.000000</haccuracy>
<vaccuracy>-1.000000</vaccuracy>
<internetconnect>-1</internetconnect>
</trkpt>
<trkpt lat="35.046814" lon="136.427815">
<ele>663.000000</ele>
<time>2026-03-27T08:00:10Z</time>
<speed>0.000000</speed>
<trueHeading>0.000000</trueHeading>
<magneticHeading>0.000000</magneticHeading>
<gpsHeading>0.000000</gpsHeading>
<haccuracy>-1.000000</haccuracy>
<vaccuracy>-1.000000</vaccuracy>
<internetconnect>-1</internetconnect>
</trkpt>
<trkpt lat="35.046827" lon="136.427718">
<ele>664.000000</ele>
<time>2026-03-27T08:00:24Z</time>
<speed>0.000000</speed>
<trueHeading>0.000000</trueHeading>
<magneticHeading>0.000000</magneticHeading>
<gpsHeading>0.000000</gpsHeading>
<haccuracy>-1.000000</haccuracy>
<vaccuracy>-1.000000</vaccuracy>
<internetconnect>-1</internetconnect>
</trkpt>
<trkpt lat="35.046840" lon="136.427638">
<ele>663.000000</ele>
<time>2026-03-27T08:00:36Z</time>
<speed>0.000000</speed>
<trueHeading>0.000000</trueHeading>
<magneticHeading>0.000000</magneticHeading>
<gpsHeading>0.000000</gpsHeading>
<haccuracy>-1.000000</haccuracy>
<vaccuracy>-1.000000</vaccuracy>
<internetconnect>-1</internetconnect>
</trkpt>
<trkpt lat="35.046858" lon="136.427595">
<ele>662.000000</ele>
<time>2026-03-27T08:00:43Z</time>
<speed>0.000000</speed>
<trueHeading>0.000000</trueHeading>
<magneticHeading>0.000000</magneticHeading>
<gpsHeading>0.000000</gpsHeading>
<haccuracy>-1.000000</haccuracy>
<vaccuracy>-1.000000</vaccuracy>
<internetconnect>-1</internetconnect>
</trkpt>
<trkpt lat="35.046906" lon="136.427563">
<ele>662.000000</ele>
<time>2026-03-27T08:00:53Z</time>
<speed>0.000000</speed>
<trueHeading>0.000000</trueHeading>
<magneticHeading>0.000000</magneticHeading>
<gpsHeading>0.000000</gpsHeading>
<haccuracy>-1.000000</haccuracy>
<vaccuracy>-1.000000</vaccuracy>
<internetconnect>-1</internetconnect>
</trkpt>
<trkpt lat="35.046968" lon="136.427531">
<ele>661.000000</ele>
<time>2026-03-27T08:01:04Z</time>
<speed>0.000000</speed>
<trueHeading>0.000000</trueHeading>
<magneticHeading>0.000000</magneticHeading>
<gpsHeading>0.000000</gpsHeading>
<haccuracy>-1.000000</haccuracy>
<vaccuracy>-1.000000</vaccuracy>
<internetconnect>-1</internetconnect>
</trkpt>
<trkpt lat="35.047025" lon="136.427509">
<ele>662.000000</ele>
<time>2026-03-27T08:01:15Z</time>
<speed>0.000000</speed>
<trueHeading>0.000000</trueHeading>
<magneticHeading>0.000000</magneticHeading>
<gpsHeading>0.000000</gpsHeading>
<haccuracy>-1.000000</haccuracy>
<vaccuracy>-1.000000</vaccuracy>
<internetconnect>-1</internetconnect>
</trkpt>
<trkpt lat="35.047091" lon="136.427488">
<ele>660.000000</ele>
<time>2026-03-27T08:01:26Z</time>
<speed>0.000000</speed>
<trueHeading>0.000000</trueHeading>
<magneticHeading>0.000000</magneticHeading>
<gpsHeading>0.000000</gpsHeading>
<haccuracy>-1.000000</haccuracy>
<vaccuracy>-1.000000</vaccuracy>
<internetconnect>-1</internetconnect>
</trkpt>
<trkpt lat="35.047240" lon="136.427375">
<ele>660.000000</ele>
<time>2026-03-27T08:01:57Z</time>
<speed>0.000000</speed>
<trueHeading>0.000000</trueHeading>
<magneticHeading>0.000000</magneticHeading>
<gpsHeading>0.000000</gpsHeading>
<haccuracy>-1.000000</haccuracy>
<vaccuracy>-1.000000</vaccuracy>
<internetconnect>-1</internetconnect>
</trkpt>
<trkpt lat="35.047297" lon="136.427311">
<ele>658.000000</ele>
<time>2026-03-27T08:02:11Z</time>
<speed>0.000000</speed>
<trueHeading>0.000000</trueHeading>
<magneticHeading>0.000000</magneticHeading>
<gpsHeading>0.000000</gpsHeading>
<haccuracy>-1.000000</haccuracy>
<vaccuracy>-1.000000</vaccuracy>
<internetconnect>-1</internetconnect>
</trkpt>
<trkpt lat="35.047359" lon="136.427241">
<ele>659.000000</ele>
<time>2026-03-27T08:02:25Z</time>
<speed>0.000000</speed>
<trueHeading>0.000000</trueHeading>
<magneticHeading>0.000000</magneticHeading>
<gpsHeading>0.000000</gpsHeading>
<haccuracy>-1.000000</haccuracy>
<vaccuracy>-1.000000</vaccuracy>
<internetconnect>-1</internetconnect>
</trkpt>
<trkpt lat="35.047469" lon="136.427155">
<ele>656.000000</ele>
<time>2026-03-27T08:02:48Z</time>
<speed>0.000000</speed>
<trueHeading>0.000000</trueHeading>
<magneticHeading>0.000000</magneticHeading>
<gpsHeading>0.000000</gpsHeading>
<haccuracy>-1.000000</haccuracy>
<vaccuracy>-1.000000</vaccuracy>
<internetconnect>-1</internetconnect>
</trkpt>
<trkpt lat="35.047570" lon="136.427139">
<ele>653.000000</ele>
<time>2026-03-27T08:03:06Z</time>
<speed>0.000000</speed>
<trueHeading>0.000000</trueHeading>
<magneticHeading>0.000000</magneticHeading>
<gpsHeading>0.000000</gpsHeading>
<haccuracy>-1.000000</haccuracy>
<vaccuracy>-1.000000</vaccuracy>
<internetconnect>-1</internetconnect>
</trkpt>
<trkpt lat="35.047653" lon="136.427118">
<ele>653.000000</ele>
<time>2026-03-27T08:03:20Z</time>
<speed>0.000000</speed>
<trueHeading>0.000000</trueHeading>
<magneticHeading>0.000000</magneticHeading>
<gpsHeading>0.000000</gpsHeading>
<haccuracy>-1.000000</haccuracy>
<vaccuracy>-1.000000</vaccuracy>
<internetconnect>-1</internetconnect>
</trkpt>
<trkpt lat="35.047710" lon="136.427107">
<ele>652.000000</ele>
<time>2026-03-27T08:03:31Z</time>
<speed>0.000000</speed>
<trueHeading>0.000000</trueHeading>
<magneticHeading>0.000000</magneticHeading>
<gpsHeading>0.000000</gpsHeading>
<haccuracy>-1.000000</haccuracy>
<vaccuracy>-1.000000</vaccuracy>
<internetconnect>-1</internetconnect>
</trkpt>
<trkpt lat="35.047767" lon="136.427101">
<ele>650.000000</ele>
<time>2026-03-27T08:03:40Z</time>
<speed>0.000000</speed>
<trueHeading>0.000000</trueHeading>
<magneticHeading>0.000000</magneticHeading>
<gpsHeading>0.000000</gpsHeading>
<haccuracy>-1.000000</haccuracy>
<vaccuracy>-1.000000</vaccuracy>
<internetconnect>-1</internetconnect>
</trkpt>
<trkpt lat="35.047842" lon="136.427107">
<ele>651.000000</ele>
<time>2026-03-27T08:03:53Z</time>
<speed>0.000000</speed>
<trueHeading>0.000000</trueHeading>
<magneticHeading>0.000000</magneticHeading>
<gpsHeading>0.000000</gpsHeading>
<haccuracy>-1.000000</haccuracy>
<vaccuracy>-1.000000</vaccuracy>
<internetconnect>-1</internetconnect>
</trkpt>
<trkpt lat="35.047930" lon="136.427123">
<ele>649.000000</ele>
<time>2026-03-27T08:04:09Z</time>
<speed>0.000000</speed>
<trueHeading>0.000000</trueHeading>
<magneticHeading>0.000000</magneticHeading>
<gpsHeading>0.000000</gpsHeading>
<haccuracy>-1.000000</haccuracy>
<vaccuracy>-1.000000</vaccuracy>
<internetconnect>-1</internetconnect>
</trkpt>
<trkpt lat="35.047965" lon="136.427101">
<ele>646.000000</ele>
<time>2026-03-27T08:04:16Z</time>
<speed>0.000000</speed>
<trueHeading>0.000000</trueHeading>
<magneticHeading>0.000000</magneticHeading>
<gpsHeading>0.000000</gpsHeading>
<haccuracy>-1.000000</haccuracy>
<vaccuracy>-1.000000</vaccuracy>
<internetconnect>-1</internetconnect>
</trkpt>
<trkpt lat="35.047991" lon="136.427059">
<ele>646.000000</ele>
<time>2026-03-27T08:04:23Z</time>
<speed>0.000000</speed>
<trueHeading>0.000000</trueHeading>
<magneticHeading>0.000000</magneticHeading>
<gpsHeading>0.000000</gpsHeading>
<haccuracy>-1.000000</haccuracy>
<vaccuracy>-1.000000</vaccuracy>
<internetconnect>-1</internetconnect>
</trkpt>
<trkpt lat="35.047978" lon="136.426898">
<ele>641.000000</ele>
<time>2026-03-27T08:04:47Z</time>
<speed>0.000000</speed>
<trueHeading>0.000000</trueHeading>
<magneticHeading>0.000000</magneticHeading>
<gpsHeading>0.000000</gpsHeading>
<haccuracy>-1.000000</haccuracy>
<vaccuracy>-1.000000</vaccuracy>
<internetconnect>-1</internetconnect>
</trkpt>
<trkpt lat="35.047952" lon="136.426876">
<ele>641.000000</ele>
<time>2026-03-27T08:04:52Z</time>
<speed>0.000000</speed>
<trueHeading>0.000000</trueHeading>
<magneticHeading>0.000000</magneticHeading>
<gpsHeading>0.000000</gpsHeading>
<haccuracy>-1.000000</haccuracy>
<vaccuracy>-1.000000</vaccuracy>
<internetconnect>-1</internetconnect>
</trkpt>
<trkpt lat="35.047890" lon="136.426860">
<ele>640.000000</ele>
<time>2026-03-27T08:05:03Z</time>
<speed>0.000000</speed>
<trueHeading>0.000000</trueHeading>
<magneticHeading>0.000000</magneticHeading>
<gpsHeading>0.000000</gpsHeading>
<haccuracy>-1.000000</haccuracy>
<vaccuracy>-1.000000</vaccuracy>
<internetconnect>-1</internetconnect>
</trkpt>
<trkpt lat="35.047679" lon="136.426860">
<ele>641.000000</ele>
<time>2026-03-27T08:05:40Z</time>
<speed>0.000000</speed>
<trueHeading>0.000000</trueHeading>
<magneticHeading>0.000000</magneticHeading>
<gpsHeading>0.000000</gpsHeading>
<haccuracy>-1.000000</haccuracy>
<vaccuracy>-1.000000</vaccuracy>
<internetconnect>-1</internetconnect>
</trkpt>
<trkpt lat="35.047539" lon="136.426855">
<ele>640.000000</ele>
<time>2026-03-27T08:06:04Z</time>
<speed>0.000000</speed>
<trueHeading>0.000000</trueHeading>
<magneticHeading>0.000000</magneticHeading>
<gpsHeading>0.000000</gpsHeading>
<haccuracy>-1.000000</haccuracy>
<vaccuracy>-1.000000</vaccuracy>
<internetconnect>-1</internetconnect>
</trkpt>
<trkpt lat="35.047486" lon="136.426833">
<ele>635.000000</ele>
<time>2026-03-27T08:06:14Z</time>
<speed>0.000000</speed>
<trueHeading>0.000000</trueHeading>
<magneticHeading>0.000000</magneticHeading>
<gpsHeading>0.000000</gpsHeading>
<haccuracy>-1.000000</haccuracy>
<vaccuracy>-1.000000</vaccuracy>
<internetconnect>-1</internetconnect>
</trkpt>
<trkpt lat="35.047469" lon="136.426812">
<ele>635.000000</ele>
<time>2026-03-27T08:06:18Z</time>
<speed>0.000000</speed>
<trueHeading>0.000000</trueHeading>
<magneticHeading>0.000000</magneticHeading>
<gpsHeading>0.000000</gpsHeading>
<haccuracy>-1.000000</haccuracy>
<vaccuracy>-1.000000</vaccuracy>
<internetconnect>-1</internetconnect>
</trkpt>
<trkpt lat="35.047486" lon="136.426758">
<ele>632.000000</ele>
<time>2026-03-27T08:06:26Z</time>
<speed>0.000000</speed>
<trueHeading>0.000000</trueHeading>
<magneticHeading>0.000000</magneticHeading>
<gpsHeading>0.000000</gpsHeading>
<haccuracy>-1.000000</haccuracy>
<vaccuracy>-1.000000</vaccuracy>
<internetconnect>-1</internetconnect>
</trkpt>
<trkpt lat="35.047534" lon="136.426742">
<ele>633.000000</ele>
<time>2026-03-27T08:06:35Z</time>
<speed>0.000000</speed>
<trueHeading>0.000000</trueHeading>
<magneticHeading>0.000000</magneticHeading>
<gpsHeading>0.000000</gpsHeading>
<haccuracy>-1.000000</haccuracy>
<vaccuracy>-1.000000</vaccuracy>
<internetconnect>-1</internetconnect>
</trkpt>
<trkpt lat="35.047613" lon="136.426721">
<ele>630.000000</ele>
<time>2026-03-27T08:06:49Z</time>
<speed>0.000000</speed>
<trueHeading>0.000000</trueHeading>
<magneticHeading>0.000000</magneticHeading>
<gpsHeading>0.000000</gpsHeading>
<haccuracy>-1.000000</haccuracy>
<vaccuracy>-1.000000</vaccuracy>
<internetconnect>-1</internetconnect>
</trkpt>
<trkpt lat="35.047657" lon="136.426705">
<ele>630.000000</ele>
<time>2026-03-27T08:06:57Z</time>
<speed>0.000000</speed>
<trueHeading>0.000000</trueHeading>
<magneticHeading>0.000000</magneticHeading>
<gpsHeading>0.000000</gpsHeading>
<haccuracy>-1.000000</haccuracy>
<vaccuracy>-1.000000</vaccuracy>
<internetconnect>-1</internetconnect>
</trkpt>
<trkpt lat="35.047692" lon="136.426678">
<ele>631.000000</ele>
<time>2026-03-27T08:07:04Z</time>
<speed>0.000000</speed>
<trueHeading>0.000000</trueHeading>
<magneticHeading>0.000000</magneticHeading>
<gpsHeading>0.000000</gpsHeading>
<haccuracy>-1.000000</haccuracy>
<vaccuracy>-1.000000</vaccuracy>
<internetconnect>-1</internetconnect>
</trkpt>
<trkpt lat="35.047719" lon="136.426544">
<ele>628.000000</ele>
<time>2026-03-27T08:07:24Z</time>
<speed>0.000000</speed>
<trueHeading>0.000000</trueHeading>
<magneticHeading>0.000000</magneticHeading>
<gpsHeading>0.000000</gpsHeading>
<haccuracy>-1.000000</haccuracy>
<vaccuracy>-1.000000</vaccuracy>
<internetconnect>-1</internetconnect>
</trkpt>
<trkpt lat="35.047741" lon="136.426452">
<ele>627.000000</ele>
<time>2026-03-27T08:07:38Z</time>
<speed>0.000000</speed>
<trueHeading>0.000000</trueHeading>
<magneticHeading>0.000000</magneticHeading>
<gpsHeading>0.000000</gpsHeading>
<haccuracy>-1.000000</haccuracy>
<vaccuracy>-1.000000</vaccuracy>
<internetconnect>-1</internetconnect>
</trkpt>
<trkpt lat="35.047802" lon="136.426383">
<ele>626.000000</ele>
<time>2026-03-27T08:07:52Z</time>
<speed>0.000000</speed>
<trueHeading>0.000000</trueHeading>
<magneticHeading>0.000000</magneticHeading>
<gpsHeading>0.000000</gpsHeading>
<haccuracy>-1.000000</haccuracy>
<vaccuracy>-1.000000</vaccuracy>
<internetconnect>-1</internetconnect>
</trkpt>
<trkpt lat="35.047851" lon="136.426356">
<ele>624.000000</ele>
<time>2026-03-27T08:08:02Z</time>
<speed>0.000000</speed>
<trueHeading>0.000000</trueHeading>
<magneticHeading>0.000000</magneticHeading>
<gpsHeading>0.000000</gpsHeading>
<haccuracy>-1.000000</haccuracy>
<vaccuracy>-1.000000</vaccuracy>
<internetconnect>-1</internetconnect>
</trkpt>
<trkpt lat="35.047881" lon="136.426329">
<ele>624.000000</ele>
<time>2026-03-27T08:08:08Z</time>
<speed>0.000000</speed>
<trueHeading>0.000000</trueHeading>
<magneticHeading>0.000000</magneticHeading>
<gpsHeading>0.000000</gpsHeading>
<haccuracy>-1.000000</haccuracy>
<vaccuracy>-1.000000</vaccuracy>
<internetconnect>-1</internetconnect>
</trkpt>
<trkpt lat="35.047912" lon="136.426265">
<ele>623.000000</ele>
<time>2026-03-27T08:08:19Z</time>
<speed>0.000000</speed>
<trueHeading>0.000000</trueHeading>
<magneticHeading>0.000000</magneticHeading>
<gpsHeading>0.000000</gpsHeading>
<haccuracy>-1.000000</haccuracy>
<vaccuracy>-1.000000</vaccuracy>
<internetconnect>-1</internetconnect>
</trkpt>
<trkpt lat="35.047925" lon="136.426222">
<ele>623.000000</ele>
<time>2026-03-27T08:08:25Z</time>
<speed>0.000000</speed>
<trueHeading>0.000000</trueHeading>
<magneticHeading>0.000000</magneticHeading>
<gpsHeading>0.000000</gpsHeading>
<haccuracy>-1.000000</haccuracy>
<vaccuracy>-1.000000</vaccuracy>
<internetconnect>-1</internetconnect>
</trkpt>
<trkpt lat="35.047925" lon="136.426147">
<ele>622.000000</ele>
<time>2026-03-27T08:08:36Z</time>
<speed>0.000000</speed>
<trueHeading>0.000000</trueHeading>
<magneticHeading>0.000000</magneticHeading>
<gpsHeading>0.000000</gpsHeading>
<haccuracy>-1.000000</haccuracy>
<vaccuracy>-1.000000</vaccuracy>
<internetconnect>-1</internetconnect>
</trkpt>
<trkpt lat="35.047908" lon="136.426061">
<ele>620.000000</ele>
<time>2026-03-27T08:08:49Z</time>
<speed>0.000000</speed>
<trueHeading>0.000000</trueHeading>
<magneticHeading>0.000000</magneticHeading>
<gpsHeading>0.000000</gpsHeading>
<haccuracy>-1.000000</haccuracy>
<vaccuracy>-1.000000</vaccuracy>
<internetconnect>-1</internetconnect>
</trkpt>
<trkpt lat="35.047864" lon="136.426023">
<ele>619.000000</ele>
<time>2026-03-27T08:08:58Z</time>
<speed>0.000000</speed>
<trueHeading>0.000000</trueHeading>
<magneticHeading>0.000000</magneticHeading>
<gpsHeading>0.000000</gpsHeading>
<haccuracy>-1.000000</haccuracy>
<vaccuracy>-1.000000</vaccuracy>
<internetconnect>-1</internetconnect>
</trkpt>
<trkpt lat="35.047767" lon="136.425991">
<ele>618.000000</ele>
<time>2026-03-27T08:09:16Z</time>
<speed>0.000000</speed>
<trueHeading>0.000000</trueHeading>
<magneticHeading>0.000000</magneticHeading>
<gpsHeading>0.000000</gpsHeading>
<haccuracy>-1.000000</haccuracy>
<vaccuracy>-1.000000</vaccuracy>
<internetconnect>-1</internetconnect>
</trkpt>
<trkpt lat="35.047714" lon="136.425954">
<ele>618.000000</ele>
<time>2026-03-27T08:09:26Z</time>
<speed>0.000000</speed>
<trueHeading>0.000000</trueHeading>
<magneticHeading>0.000000</magneticHeading>
<gpsHeading>0.000000</gpsHeading>
<haccuracy>-1.000000</haccuracy>
<vaccuracy>-1.000000</vaccuracy>
<internetconnect>-1</internetconnect>
</trkpt>
<trkpt lat="35.047679" lon="136.425932">
<ele>617.000000</ele>
<time>2026-03-27T08:09:33Z</time>
<speed>0.000000</speed>
<trueHeading>0.000000</trueHeading>
<magneticHeading>0.000000</magneticHeading>
<gpsHeading>0.000000</gpsHeading>
<haccuracy>-1.000000</haccuracy>
<vaccuracy>-1.000000</vaccuracy>
<internetconnect>-1</internetconnect>
</trkpt>
<trkpt lat="35.047662" lon="136.425884">
<ele>616.000000</ele>
<time>2026-03-27T08:09:41Z</time>
<speed>0.000000</speed>
<trueHeading>0.000000</trueHeading>
<magneticHeading>0.000000</magneticHeading>
<gpsHeading>0.000000</gpsHeading>
<haccuracy>-1.000000</haccuracy>
<vaccuracy>-1.000000</vaccuracy>
<internetconnect>-1</internetconnect>
</trkpt>
<trkpt lat="35.047653" lon="136.425852">
<ele>616.000000</ele>
<time>2026-03-27T08:09:45Z</time>
<speed>0.000000</speed>
<trueHeading>0.000000</trueHeading>
<magneticHeading>0.000000</magneticHeading>
<gpsHeading>0.000000</gpsHeading>
<haccuracy>-1.000000</haccuracy>
<vaccuracy>-1.000000</vaccuracy>
<internetconnect>-1</internetconnect>
</trkpt>
<trkpt lat="35.047675" lon="136.425798">
<ele>616.000000</ele>
<time>2026-03-27T08:09:54Z</time>
<speed>0.000000</speed>
<trueHeading>0.000000</trueHeading>
<magneticHeading>0.000000</magneticHeading>
<gpsHeading>0.000000</gpsHeading>
<haccuracy>-1.000000</haccuracy>
<vaccuracy>-1.000000</vaccuracy>
<internetconnect>-1</internetconnect>
</trkpt>
<trkpt lat="35.047697" lon="136.425766">
<ele>615.000000</ele>
<time>2026-03-27T08:10:00Z</time>
<speed>0.000000</speed>
<trueHeading>0.000000</trueHeading>
<magneticHeading>0.000000</magneticHeading>
<gpsHeading>0.000000</gpsHeading>
<haccuracy>-1.000000</haccuracy>
<vaccuracy>-1.000000</vaccuracy>
<internetconnect>-1</internetconnect>
</trkpt>
<trkpt lat="35.047732" lon="136.425744">
<ele>615.000000</ele>
<time>2026-03-27T08:10:07Z</time>
<speed>0.000000</speed>
<trueHeading>0.000000</trueHeading>
<magneticHeading>0.000000</magneticHeading>
<gpsHeading>0.000000</gpsHeading>
<haccuracy>-1.000000</haccuracy>
<vaccuracy>-1.000000</vaccuracy>
<internetconnect>-1</internetconnect>
</trkpt>
<trkpt lat="35.047793" lon="136.425723">
<ele>614.000000</ele>
<time>2026-03-27T08:10:18Z</time>
<speed>0.000000</speed>
<trueHeading>0.000000</trueHeading>
<magneticHeading>0.000000</magneticHeading>
<gpsHeading>0.000000</gpsHeading>
<haccuracy>-1.000000</haccuracy>
<vaccuracy>-1.000000</vaccuracy>
<internetconnect>-1</internetconnect>
</trkpt>
<trkpt lat="35.047859" lon="136.425723">
<ele>614.000000</ele>
<time>2026-03-27T08:10:29Z</time>
<speed>0.000000</speed>
<trueHeading>0.000000</trueHeading>
<magneticHeading>0.000000</magneticHeading>
<gpsHeading>0.000000</gpsHeading>
<haccuracy>-1.000000</haccuracy>
<vaccuracy>-1.000000</vaccuracy>
<internetconnect>-1</internetconnect>
</trkpt>
<trkpt lat="35.047947" lon="136.425701">
<ele>614.000000</ele>
<time>2026-03-27T08:10:45Z</time>
<speed>0.000000</speed>
<trueHeading>0.000000</trueHeading>
<magneticHeading>0.000000</magneticHeading>
<gpsHeading>0.000000</gpsHeading>
<haccuracy>-1.000000</haccuracy>
<vaccuracy>-1.000000</vaccuracy>
<internetconnect>-1</internetconnect>
</trkpt>
<trkpt lat="35.047978" lon="136.425669">
<ele>613.000000</ele>
<time>2026-03-27T08:10:52Z</time>
<speed>0.000000</speed>
<trueHeading>0.000000</trueHeading>
<magneticHeading>0.000000</magneticHeading>
<gpsHeading>0.000000</gpsHeading>
<haccuracy>-1.000000</haccuracy>
<vaccuracy>-1.000000</vaccuracy>
<internetconnect>-1</internetconnect>
</trkpt>
<trkpt lat="35.048009" lon="136.425594">
<ele>612.000000</ele>
<time>2026-03-27T08:11:04Z</time>
<speed>0.000000</speed>
<trueHeading>0.000000</trueHeading>
<magneticHeading>0.000000</magneticHeading>
<gpsHeading>0.000000</gpsHeading>
<haccuracy>-1.000000</haccuracy>
<vaccuracy>-1.000000</vaccuracy>
<internetconnect>-1</internetconnect>
</trkpt>
<trkpt lat="35.048053" lon="136.425460">
<ele>611.000000</ele>
<time>2026-03-27T08:11:25Z</time>
<speed>0.000000</speed>
<trueHeading>0.000000</trueHeading>
<magneticHeading>0.000000</magneticHeading>
<gpsHeading>0.000000</gpsHeading>
<haccuracy>-1.000000</haccuracy>
<vaccuracy>-1.000000</vaccuracy>
<internetconnect>-1</internetconnect>
</trkpt>
<trkpt lat="35.048088" lon="136.425363">
<ele>609.000000</ele>
<time>2026-03-27T08:11:40Z</time>
<speed>0.000000</speed>
<trueHeading>0.000000</trueHeading>
<magneticHeading>0.000000</magneticHeading>
<gpsHeading>0.000000</gpsHeading>
<haccuracy>-1.000000</haccuracy>
<vaccuracy>-1.000000</vaccuracy>
<internetconnect>-1</internetconnect>
</trkpt>
<trkpt lat="35.048127" lon="136.425272">
<ele>609.000000</ele>
<time>2026-03-27T08:11:55Z</time>
<speed>0.000000</speed>
<trueHeading>0.000000</trueHeading>
<magneticHeading>0.000000</magneticHeading>
<gpsHeading>0.000000</gpsHeading>
<haccuracy>-1.000000</haccuracy>
<vaccuracy>-1.000000</vaccuracy>
<internetconnect>-1</internetconnect>
</trkpt>
<trkpt lat="35.048167" lon="136.425197">
<ele>609.000000</ele>
<time>2026-03-27T08:12:07Z</time>
<speed>0.000000</speed>
<trueHeading>0.000000</trueHeading>
<magneticHeading>0.000000</magneticHeading>
<gpsHeading>0.000000</gpsHeading>
<haccuracy>-1.000000</haccuracy>
<vaccuracy>-1.000000</vaccuracy>
<internetconnect>-1</internetconnect>
</trkpt>
<trkpt lat="35.048233" lon="136.425138">
<ele>609.000000</ele>
<time>2026-03-27T08:12:22Z</time>
<speed>0.000000</speed>
<trueHeading>0.000000</trueHeading>
<magneticHeading>0.000000</magneticHeading>
<gpsHeading>0.000000</gpsHeading>
<haccuracy>-1.000000</haccuracy>
<vaccuracy>-1.000000</vaccuracy>
<internetconnect>-1</internetconnect>
</trkpt>
<trkpt lat="35.048360" lon="136.425074">
<ele>607.000000</ele>
<time>2026-03-27T08:12:46Z</time>
<speed>0.000000</speed>
<trueHeading>0.000000</trueHeading>
<magneticHeading>0.000000</magneticHeading>
<gpsHeading>0.000000</gpsHeading>
<haccuracy>-1.000000</haccuracy>
<vaccuracy>-1.000000</vaccuracy>
<internetconnect>-1</internetconnect>
</trkpt>
<trkpt lat="35.048483" lon="136.424934">
<ele>606.000000</ele>
<time>2026-03-27T08:13:15Z</time>
<speed>0.000000</speed>
<trueHeading>0.000000</trueHeading>
<magneticHeading>0.000000</magneticHeading>
<gpsHeading>0.000000</gpsHeading>
<haccuracy>-1.000000</haccuracy>
<vaccuracy>-1.000000</vaccuracy>
<internetconnect>-1</internetconnect>
</trkpt>
<trkpt lat="35.048487" lon="136.424859">
<ele>604.000000</ele>
<time>2026-03-27T08:13:26Z</time>
<speed>0.000000</speed>
<trueHeading>0.000000</trueHeading>
<magneticHeading>0.000000</magneticHeading>
<gpsHeading>0.000000</gpsHeading>
<haccuracy>-1.000000</haccuracy>
<vaccuracy>-1.000000</vaccuracy>
<internetconnect>-1</internetconnect>
</trkpt>
<trkpt lat="35.048465" lon="136.424757">
<ele>602.000000</ele>
<time>2026-03-27T08:13:41Z</time>
<speed>0.000000</speed>
<trueHeading>0.000000</trueHeading>
<magneticHeading>0.000000</magneticHeading>
<gpsHeading>0.000000</gpsHeading>
<haccuracy>-1.000000</haccuracy>
<vaccuracy>-1.000000</vaccuracy>
<internetconnect>-1</internetconnect>
</trkpt>
<trkpt lat="35.048465" lon="136.424757">
<ele>602.000000</ele>
<time>2026-03-27T08:13:41Z</time>
<speed>0.000000</speed>
<trueHeading>0.000000</trueHeading>
<magneticHeading>0.000000</magneticHeading>
<gpsHeading>0.000000</gpsHeading>
<haccuracy>-1.000000</haccuracy>
<vaccuracy>-1.000000</vaccuracy>
<internetconnect>-1</internetconnect>
</trkpt>
<trkpt lat="35.048342" lon="136.424741">
<ele>599.000000</ele>
<time>2026-03-27T08:14:02Z</time>
<speed>0.000000</speed>
<trueHeading>0.000000</trueHeading>
<magneticHeading>0.000000</magneticHeading>
<gpsHeading>0.000000</gpsHeading>
<haccuracy>-1.000000</haccuracy>
<vaccuracy>-1.000000</vaccuracy>
<internetconnect>-1</internetconnect>
</trkpt>
<trkpt lat="35.048281" lon="136.424747">
<ele>600.000000</ele>
<time>2026-03-27T08:14:13Z</time>
<speed>0.000000</speed>
<trueHeading>0.000000</trueHeading>
<magneticHeading>0.000000</magneticHeading>
<gpsHeading>0.000000</gpsHeading>
<haccuracy>-1.000000</haccuracy>
<vaccuracy>-1.000000</vaccuracy>
<internetconnect>-1</internetconnect>
</trkpt>
<trkpt lat="35.048237" lon="136.424763">
<ele>599.000000</ele>
<time>2026-03-27T08:14:21Z</time>
<speed>0.000000</speed>
<trueHeading>0.000000</trueHeading>
<magneticHeading>0.000000</magneticHeading>
<gpsHeading>0.000000</gpsHeading>
<haccuracy>-1.000000</haccuracy>
<vaccuracy>-1.000000</vaccuracy>
<internetconnect>-1</internetconnect>
</trkpt>
<trkpt lat="35.048145" lon="136.424811">
<ele>598.000000</ele>
<time>2026-03-27T08:14:38Z</time>
<speed>0.000000</speed>
<trueHeading>0.000000</trueHeading>
<magneticHeading>0.000000</magneticHeading>
<gpsHeading>0.000000</gpsHeading>
<haccuracy>-1.000000</haccuracy>
<vaccuracy>-1.000000</vaccuracy>
<internetconnect>-1</internetconnect>
</trkpt>
<trkpt lat="35.048044" lon="136.424865">
<ele>596.000000</ele>
<time>2026-03-27T08:14:58Z</time>
<speed>0.000000</speed>
<trueHeading>0.000000</trueHeading>
<magneticHeading>0.000000</magneticHeading>
<gpsHeading>0.000000</gpsHeading>
<haccuracy>-1.000000</haccuracy>
<vaccuracy>-1.000000</vaccuracy>
<internetconnect>-1</internetconnect>
</trkpt>
<trkpt lat="35.047930" lon="136.424929">
<ele>594.000000</ele>
<time>2026-03-27T08:15:19Z</time>
<speed>0.000000</speed>
<trueHeading>0.000000</trueHeading>
<magneticHeading>0.000000</magneticHeading>
<gpsHeading>0.000000</gpsHeading>
<haccuracy>-1.000000</haccuracy>
<vaccuracy>-1.000000</vaccuracy>
<internetconnect>-1</internetconnect>
</trkpt>
<trkpt lat="35.047842" lon="136.424999">
<ele>591.000000</ele>
<time>2026-03-27T08:15:38Z</time>
<speed>0.000000</speed>
<trueHeading>0.000000</trueHeading>
<magneticHeading>0.000000</magneticHeading>
<gpsHeading>0.000000</gpsHeading>
<haccuracy>-1.000000</haccuracy>
<vaccuracy>-1.000000</vaccuracy>
<internetconnect>-1</internetconnect>
</trkpt>
<trkpt lat="35.047701" lon="136.425111">
<ele>588.000000</ele>
<time>2026-03-27T08:16:07Z</time>
<speed>0.000000</speed>
<trueHeading>0.000000</trueHeading>
<magneticHeading>0.000000</magneticHeading>
<gpsHeading>0.000000</gpsHeading>
<haccuracy>-1.000000</haccuracy>
<vaccuracy>-1.000000</vaccuracy>
<internetconnect>-1</internetconnect>
</trkpt>
<trkpt lat="35.047451" lon="136.425337">
<ele>588.000000</ele>
<time>2026-03-27T08:17:01Z</time>
<speed>0.000000</speed>
<trueHeading>0.000000</trueHeading>
<magneticHeading>0.000000</magneticHeading>
<gpsHeading>0.000000</gpsHeading>
<haccuracy>-1.000000</haccuracy>
<vaccuracy>-1.000000</vaccuracy>
<internetconnect>-1</internetconnect>
</trkpt>
<trkpt lat="35.047376" lon="136.425417">
<ele>588.000000</ele>
<time>2026-03-27T08:17:19Z</time>
<speed>0.000000</speed>
<trueHeading>0.000000</trueHeading>
<magneticHeading>0.000000</magneticHeading>
<gpsHeading>0.000000</gpsHeading>
<haccuracy>-1.000000</haccuracy>
<vaccuracy>-1.000000</vaccuracy>
<internetconnect>-1</internetconnect>
</trkpt>
<trkpt lat="35.047328" lon="136.425492">
<ele>591.000000</ele>
<time>2026-03-27T08:17:32Z</time>
<speed>0.000000</speed>
<trueHeading>0.000000</trueHeading>
<magneticHeading>0.000000</magneticHeading>
<gpsHeading>0.000000</gpsHeading>
<haccuracy>-1.000000</haccuracy>
<vaccuracy>-1.000000</vaccuracy>
<internetconnect>-1</internetconnect>
</trkpt>
<trkpt lat="35.047223" lon="136.425648">
<ele>598.000000</ele>
<time>2026-03-27T08:18:01Z</time>
<speed>0.000000</speed>
<trueHeading>0.000000</trueHeading>
<magneticHeading>0.000000</magneticHeading>
<gpsHeading>0.000000</gpsHeading>
<haccuracy>-1.000000</haccuracy>
<vaccuracy>-1.000000</vaccuracy>
<internetconnect>-1</internetconnect>
</trkpt>
<trkpt lat="35.047130" lon="136.425760">
<ele>595.000000</ele>
<time>2026-03-27T08:18:24Z</time>
<speed>0.000000</speed>
<trueHeading>0.000000</trueHeading>
<magneticHeading>0.000000</magneticHeading>
<gpsHeading>0.000000</gpsHeading>
<haccuracy>-1.000000</haccuracy>
<vaccuracy>-1.000000</vaccuracy>
<internetconnect>-1</internetconnect>
</trkpt>
<trkpt lat="35.047078" lon="136.425809">
<ele>595.000000</ele>
<time>2026-03-27T08:18:35Z</time>
<speed>0.000000</speed>
<trueHeading>0.000000</trueHeading>
<magneticHeading>0.000000</magneticHeading>
<gpsHeading>0.000000</gpsHeading>
<haccuracy>-1.000000</haccuracy>
<vaccuracy>-1.000000</vaccuracy>
<internetconnect>-1</internetconnect>
</trkpt>
<trkpt lat="35.047025" lon="136.425841">
<ele>593.000000</ele>
<time>2026-03-27T08:18:45Z</time>
<speed>0.000000</speed>
<trueHeading>0.000000</trueHeading>
<magneticHeading>0.000000</magneticHeading>
<gpsHeading>0.000000</gpsHeading>
<haccuracy>-1.000000</haccuracy>
<vaccuracy>-1.000000</vaccuracy>
<internetconnect>-1</internetconnect>
</trkpt>
<trkpt lat="35.046990" lon="136.425857">
<ele>589.000000</ele>
<time>2026-03-27T08:18:52Z</time>
<speed>0.000000</speed>
<trueHeading>0.000000</trueHeading>
<magneticHeading>0.000000</magneticHeading>
<gpsHeading>0.000000</gpsHeading>
<haccuracy>-1.000000</haccuracy>
<vaccuracy>-1.000000</vaccuracy>
<internetconnect>-1</internetconnect>
</trkpt>
<trkpt lat="35.046959" lon="136.425852">
<ele>586.000000</ele>
<time>2026-03-27T08:18:57Z</time>
<speed>0.000000</speed>
<trueHeading>0.000000</trueHeading>
<magneticHeading>0.000000</magneticHeading>
<gpsHeading>0.000000</gpsHeading>
<haccuracy>-1.000000</haccuracy>
<vaccuracy>-1.000000</vaccuracy>
<internetconnect>-1</internetconnect>
</trkpt>
<trkpt lat="35.046942" lon="136.425841">
<ele>586.000000</ele>
<time>2026-03-27T08:19:01Z</time>
<speed>0.000000</speed>
<trueHeading>0.000000</trueHeading>
<magneticHeading>0.000000</magneticHeading>
<gpsHeading>0.000000</gpsHeading>
<haccuracy>-1.000000</haccuracy>
<vaccuracy>-1.000000</vaccuracy>
<internetconnect>-1</internetconnect>
</trkpt>
<trkpt lat="35.046942" lon="136.425819">
<ele>584.000000</ele>
<time>2026-03-27T08:19:04Z</time>
<speed>0.000000</speed>
<trueHeading>0.000000</trueHeading>
<magneticHeading>0.000000</magneticHeading>
<gpsHeading>0.000000</gpsHeading>
<haccuracy>-1.000000</haccuracy>
<vaccuracy>-1.000000</vaccuracy>
<internetconnect>-1</internetconnect>
</trkpt>
<trkpt lat="35.046950" lon="136.425776">
<ele>584.000000</ele>
<time>2026-03-27T08:19:10Z</time>
<speed>0.000000</speed>
<trueHeading>0.000000</trueHeading>
<magneticHeading>0.000000</magneticHeading>
<gpsHeading>0.000000</gpsHeading>
<haccuracy>-1.000000</haccuracy>
<vaccuracy>-1.000000</vaccuracy>
<internetconnect>-1</internetconnect>
</trkpt>
<trkpt lat="35.046999" lon="136.425685">
<ele>582.000000</ele>
<time>2026-03-27T08:19:26Z</time>
<speed>0.000000</speed>
<trueHeading>0.000000</trueHeading>
<magneticHeading>0.000000</magneticHeading>
<gpsHeading>0.000000</gpsHeading>
<haccuracy>-1.000000</haccuracy>
<vaccuracy>-1.000000</vaccuracy>
<internetconnect>-1</internetconnect>
</trkpt>
<trkpt lat="35.047130" lon="136.425444">
<ele>580.000000</ele>
<time>2026-03-27T08:20:07Z</time>
<speed>0.000000</speed>
<trueHeading>0.000000</trueHeading>
<magneticHeading>0.000000</magneticHeading>
<gpsHeading>0.000000</gpsHeading>
<haccuracy>-1.000000</haccuracy>
<vaccuracy>-1.000000</vaccuracy>
<internetconnect>-1</internetconnect>
</trkpt>
<trkpt lat="35.047130" lon="136.425396">
<ele>578.000000</ele>
<time>2026-03-27T08:20:14Z</time>
<speed>0.000000</speed>
<trueHeading>0.000000</trueHeading>
<magneticHeading>0.000000</magneticHeading>
<gpsHeading>0.000000</gpsHeading>
<haccuracy>-1.000000</haccuracy>
<vaccuracy>-1.000000</vaccuracy>
<internetconnect>-1</internetconnect>
</trkpt>
<trkpt lat="35.047117" lon="136.425374">
<ele>577.000000</ele>
<time>2026-03-27T08:20:18Z</time>
<speed>0.000000</speed>
<trueHeading>0.000000</trueHeading>
<magneticHeading>0.000000</magneticHeading>
<gpsHeading>0.000000</gpsHeading>
<haccuracy>-1.000000</haccuracy>
<vaccuracy>-1.000000</vaccuracy>
<internetconnect>-1</internetconnect>
</trkpt>
<trkpt lat="35.047091" lon="136.425369">
<ele>577.000000</ele>
<time>2026-03-27T08:20:23Z</time>
<speed>0.000000</speed>
<trueHeading>0.000000</trueHeading>
<magneticHeading>0.000000</magneticHeading>
<gpsHeading>0.000000</gpsHeading>
<haccuracy>-1.000000</haccuracy>
<vaccuracy>-1.000000</vaccuracy>
<internetconnect>-1</internetconnect>
</trkpt>
<trkpt lat="35.047029" lon="136.425390">
<ele>575.000000</ele>
<time>2026-03-27T08:20:34Z</time>
<speed>0.000000</speed>
<trueHeading>0.000000</trueHeading>
<magneticHeading>0.000000</magneticHeading>
<gpsHeading>0.000000</gpsHeading>
<haccuracy>-1.000000</haccuracy>
<vaccuracy>-1.000000</vaccuracy>
<internetconnect>-1</internetconnect>
</trkpt>
<trkpt lat="35.046959" lon="136.425439">
<ele>574.000000</ele>
<time>2026-03-27T08:20:48Z</time>
<speed>0.000000</speed>
<trueHeading>0.000000</trueHeading>
<magneticHeading>0.000000</magneticHeading>
<gpsHeading>0.000000</gpsHeading>
<haccuracy>-1.000000</haccuracy>
<vaccuracy>-1.000000</vaccuracy>
<internetconnect>-1</internetconnect>
</trkpt>
<trkpt lat="35.046889" lon="136.425519">
<ele>573.000000</ele>
<time>2026-03-27T08:21:05Z</time>
<speed>0.000000</speed>
<trueHeading>0.000000</trueHeading>
<magneticHeading>0.000000</magneticHeading>
<gpsHeading>0.000000</gpsHeading>
<haccuracy>-1.000000</haccuracy>
<vaccuracy>-1.000000</vaccuracy>
<internetconnect>-1</internetconnect>
</trkpt>
<trkpt lat="35.046731" lon="136.425680">
<ele>574.000000</ele>
<time>2026-03-27T08:21:40Z</time>
<speed>0.000000</speed>
<trueHeading>0.000000</trueHeading>
<magneticHeading>0.000000</magneticHeading>
<gpsHeading>0.000000</gpsHeading>
<haccuracy>-1.000000</haccuracy>
<vaccuracy>-1.000000</vaccuracy>
<internetconnect>-1</internetconnect>
</trkpt>
<trkpt lat="35.046467" lon="136.425878">
<ele>569.000000</ele>
<time>2026-03-27T08:22:34Z</time>
<speed>0.000000</speed>
<trueHeading>0.000000</trueHeading>
<magneticHeading>0.000000</magneticHeading>
<gpsHeading>0.000000</gpsHeading>
<haccuracy>-1.000000</haccuracy>
<vaccuracy>-1.000000</vaccuracy>
<internetconnect>-1</internetconnect>
</trkpt>
<trkpt lat="35.046318" lon="136.425959">
<ele>569.000000</ele>
<time>2026-03-27T08:23:03Z</time>
<speed>0.000000</speed>
<trueHeading>0.000000</trueHeading>
<magneticHeading>0.000000</magneticHeading>
<gpsHeading>0.000000</gpsHeading>
<haccuracy>-1.000000</haccuracy>
<vaccuracy>-1.000000</vaccuracy>
<internetconnect>-1</internetconnect>
</trkpt>
<trkpt lat="35.046195" lon="136.425996">
<ele>568.000000</ele>
<time>2026-03-27T08:23:25Z</time>
<speed>0.000000</speed>
<trueHeading>0.000000</trueHeading>
<magneticHeading>0.000000</magneticHeading>
<gpsHeading>0.000000</gpsHeading>
<haccuracy>-1.000000</haccuracy>
<vaccuracy>-1.000000</vaccuracy>
<internetconnect>-1</internetconnect>
</trkpt>
<trkpt lat="35.046068" lon="136.426018">
<ele>565.000000</ele>
<time>2026-03-27T08:23:47Z</time>
<speed>0.000000</speed>
<trueHeading>0.000000</trueHeading>
<magneticHeading>0.000000</magneticHeading>
<gpsHeading>0.000000</gpsHeading>
<haccuracy>-1.000000</haccuracy>
<vaccuracy>-1.000000</vaccuracy>
<internetconnect>-1</internetconnect>
</trkpt>
<trkpt lat="35.045997" lon="136.426029">
<ele>563.000000</ele>
<time>2026-03-27T08:24:00Z</time>
<speed>0.000000</speed>
<trueHeading>0.000000</trueHeading>
<magneticHeading>0.000000</magneticHeading>
<gpsHeading>0.000000</gpsHeading>
<haccuracy>-1.000000</haccuracy>
<vaccuracy>-1.000000</vaccuracy>
<internetconnect>-1</internetconnect>
</trkpt>
<trkpt lat="35.045861" lon="136.426093">
<ele>561.000000</ele>
<time>2026-03-27T08:24:00Z</time>
<speed>0.000000</speed>
<trueHeading>0.000000</trueHeading>
<magneticHeading>0.000000</magneticHeading>
<gpsHeading>0.000000</gpsHeading>
<haccuracy>-1.000000</haccuracy>
<vaccuracy>-1.000000</vaccuracy>
<internetconnect>-1</internetconnect>
</trkpt>
<trkpt lat="35.045703" lon="136.426147">
<ele>556.000000</ele>
<time>2026-03-27T08:24:22Z</time>
<speed>0.000000</speed>
<trueHeading>0.000000</trueHeading>
<magneticHeading>0.000000</magneticHeading>
<gpsHeading>0.000000</gpsHeading>
<haccuracy>-1.000000</haccuracy>
<vaccuracy>-1.000000</vaccuracy>
<internetconnect>-1</internetconnect>
</trkpt>
<trkpt lat="35.045606" lon="136.426200">
<ele>556.000000</ele>
<time>2026-03-27T08:24:37Z</time>
<speed>0.000000</speed>
<trueHeading>0.000000</trueHeading>
<magneticHeading>0.000000</magneticHeading>
<gpsHeading>0.000000</gpsHeading>
<haccuracy>-1.000000</haccuracy>
<vaccuracy>-1.000000</vaccuracy>
<internetconnect>-1</internetconnect>
</trkpt>
<trkpt lat="35.045492" lon="136.426286">
<ele>555.000000</ele>
<time>2026-03-27T08:24:56Z</time>
<speed>0.000000</speed>
<trueHeading>0.000000</trueHeading>
<magneticHeading>0.000000</magneticHeading>
<gpsHeading>0.000000</gpsHeading>
<haccuracy>-1.000000</haccuracy>
<vaccuracy>-1.000000</vaccuracy>
<internetconnect>-1</internetconnect>
</trkpt>
<trkpt lat="35.045321" lon="136.426436">
<ele>551.000000</ele>
<time>2026-03-27T08:25:25Z</time>
<speed>0.000000</speed>
<trueHeading>0.000000</trueHeading>
<magneticHeading>0.000000</magneticHeading>
<gpsHeading>0.000000</gpsHeading>
<haccuracy>-1.000000</haccuracy>
<vaccuracy>-1.000000</vaccuracy>
<internetconnect>-1</internetconnect>
</trkpt>
<trkpt lat="35.045264" lon="136.426490">
<ele>549.000000</ele>
<time>2026-03-27T08:25:35Z</time>
<speed>0.000000</speed>
<trueHeading>0.000000</trueHeading>
<magneticHeading>0.000000</magneticHeading>
<gpsHeading>0.000000</gpsHeading>
<haccuracy>-1.000000</haccuracy>
<vaccuracy>-1.000000</vaccuracy>
<internetconnect>-1</internetconnect>
</trkpt>
<trkpt lat="35.045229" lon="136.426501">
<ele>547.000000</ele>
<time>2026-03-27T08:25:40Z</time>
<speed>0.000000</speed>
<trueHeading>0.000000</trueHeading>
<magneticHeading>0.000000</magneticHeading>
<gpsHeading>0.000000</gpsHeading>
<haccuracy>-1.000000</haccuracy>
<vaccuracy>-1.000000</vaccuracy>
<internetconnect>-1</internetconnect>
</trkpt>
<trkpt lat="35.045207" lon="136.426485">
<ele>545.000000</ele>
<time>2026-03-27T08:25:44Z</time>
<speed>0.000000</speed>
<trueHeading>0.000000</trueHeading>
<magneticHeading>0.000000</magneticHeading>
<gpsHeading>0.000000</gpsHeading>
<haccuracy>-1.000000</haccuracy>
<vaccuracy>-1.000000</vaccuracy>
<internetconnect>-1</internetconnect>
</trkpt>
<trkpt lat="35.045207" lon="136.426452">
<ele>544.000000</ele>
<time>2026-03-27T08:25:47Z</time>
<speed>0.000000</speed>
<trueHeading>0.000000</trueHeading>
<magneticHeading>0.000000</magneticHeading>
<gpsHeading>0.000000</gpsHeading>
<haccuracy>-1.000000</haccuracy>
<vaccuracy>-1.000000</vaccuracy>
<internetconnect>-1</internetconnect>
</trkpt>
<trkpt lat="35.045233" lon="136.426383">
<ele>546.000000</ele>
<time>2026-03-27T08:25:56Z</time>
<speed>0.000000</speed>
<trueHeading>0.000000</trueHeading>
<magneticHeading>0.000000</magneticHeading>
<gpsHeading>0.000000</gpsHeading>
<haccuracy>-1.000000</haccuracy>
<vaccuracy>-1.000000</vaccuracy>
<internetconnect>-1</internetconnect>
</trkpt>
<trkpt lat="35.045259" lon="136.426286">
<ele>545.000000</ele>
<time>2026-03-27T08:26:08Z</time>
<speed>0.000000</speed>
<trueHeading>0.000000</trueHeading>
<magneticHeading>0.000000</magneticHeading>
<gpsHeading>0.000000</gpsHeading>
<haccuracy>-1.000000</haccuracy>
<vaccuracy>-1.000000</vaccuracy>
<internetconnect>-1</internetconnect>
</trkpt>
<trkpt lat="35.045255" lon="136.426254">
<ele>545.000000</ele>
<time>2026-03-27T08:26:12Z</time>
<speed>0.000000</speed>
<trueHeading>0.000000</trueHeading>
<magneticHeading>0.000000</magneticHeading>
<gpsHeading>0.000000</gpsHeading>
<haccuracy>-1.000000</haccuracy>
<vaccuracy>-1.000000</vaccuracy>
<internetconnect>-1</internetconnect>
</trkpt>
<trkpt lat="35.045233" lon="136.426243">
<ele>545.000000</ele>
<time>2026-03-27T08:26:15Z</time>
<speed>0.000000</speed>
<trueHeading>0.000000</trueHeading>
<magneticHeading>0.000000</magneticHeading>
<gpsHeading>0.000000</gpsHeading>
<haccuracy>-1.000000</haccuracy>
<vaccuracy>-1.000000</vaccuracy>
<internetconnect>-1</internetconnect>
</trkpt>
<trkpt lat="35.045198" lon="136.426249">
<ele>544.000000</ele>
<time>2026-03-27T08:26:20Z</time>
<speed>0.000000</speed>
<trueHeading>0.000000</trueHeading>
<magneticHeading>0.000000</magneticHeading>
<gpsHeading>0.000000</gpsHeading>
<haccuracy>-1.000000</haccuracy>
<vaccuracy>-1.000000</vaccuracy>
<internetconnect>-1</internetconnect>
</trkpt>
<trkpt lat="35.045176" lon="136.426281">
<ele>544.000000</ele>
<time>2026-03-27T08:26:25Z</time>
<speed>0.000000</speed>
<trueHeading>0.000000</trueHeading>
<magneticHeading>0.000000</magneticHeading>
<gpsHeading>0.000000</gpsHeading>
<haccuracy>-1.000000</haccuracy>
<vaccuracy>-1.000000</vaccuracy>
<internetconnect>-1</internetconnect>
</trkpt>
<trkpt lat="35.045158" lon="136.426329">
<ele>543.000000</ele>
<time>2026-03-27T08:26:31Z</time>
<speed>0.000000</speed>
<trueHeading>0.000000</trueHeading>
<magneticHeading>0.000000</magneticHeading>
<gpsHeading>0.000000</gpsHeading>
<haccuracy>-1.000000</haccuracy>
<vaccuracy>-1.000000</vaccuracy>
<internetconnect>-1</internetconnect>
</trkpt>
<trkpt lat="35.045119" lon="136.426388">
<ele>542.000000</ele>
<time>2026-03-27T08:26:39Z</time>
<speed>0.000000</speed>
<trueHeading>0.000000</trueHeading>
<magneticHeading>0.000000</magneticHeading>
<gpsHeading>0.000000</gpsHeading>
<haccuracy>-1.000000</haccuracy>
<vaccuracy>-1.000000</vaccuracy>
<internetconnect>-1</internetconnect>
</trkpt>
<trkpt lat="35.045057" lon="136.426452">
<ele>539.000000</ele>
<time>2026-03-27T08:26:51Z</time>
<speed>0.000000</speed>
<trueHeading>0.000000</trueHeading>
<magneticHeading>0.000000</magneticHeading>
<gpsHeading>0.000000</gpsHeading>
<haccuracy>-1.000000</haccuracy>
<vaccuracy>-1.000000</vaccuracy>
<internetconnect>-1</internetconnect>
</trkpt>
<trkpt lat="35.045009" lon="136.426544">
<ele>539.000000</ele>
<time>2026-03-27T08:27:03Z</time>
<speed>0.000000</speed>
<trueHeading>0.000000</trueHeading>
<magneticHeading>0.000000</magneticHeading>
<gpsHeading>0.000000</gpsHeading>
<haccuracy>-1.000000</haccuracy>
<vaccuracy>-1.000000</vaccuracy>
<internetconnect>-1</internetconnect>
</trkpt>
<trkpt lat="35.044926" lon="136.426753">
<ele>537.000000</ele>
<time>2026-03-27T08:27:30Z</time>
<speed>0.000000</speed>
<trueHeading>0.000000</trueHeading>
<magneticHeading>0.000000</magneticHeading>
<gpsHeading>0.000000</gpsHeading>
<haccuracy>-1.000000</haccuracy>
<vaccuracy>-1.000000</vaccuracy>
<internetconnect>-1</internetconnect>
</trkpt>
<trkpt lat="35.044833" lon="136.426957">
<ele>534.000000</ele>
<time>2026-03-27T08:27:56Z</time>
<speed>0.000000</speed>
<trueHeading>0.000000</trueHeading>
<magneticHeading>0.000000</magneticHeading>
<gpsHeading>0.000000</gpsHeading>
<haccuracy>-1.000000</haccuracy>
<vaccuracy>-1.000000</vaccuracy>
<internetconnect>-1</internetconnect>
</trkpt>
<trkpt lat="35.044750" lon="136.427085">
<ele>531.000000</ele>
<time>2026-03-27T08:28:15Z</time>
<speed>0.000000</speed>
<trueHeading>0.000000</trueHeading>
<magneticHeading>0.000000</magneticHeading>
<gpsHeading>0.000000</gpsHeading>
<haccuracy>-1.000000</haccuracy>
<vaccuracy>-1.000000</vaccuracy>
<internetconnect>-1</internetconnect>
</trkpt>
<trkpt lat="35.044680" lon="136.427187">
<ele>530.000000</ele>
<time>2026-03-27T08:28:30Z</time>
<speed>0.000000</speed>
<trueHeading>0.000000</trueHeading>
<magneticHeading>0.000000</magneticHeading>
<gpsHeading>0.000000</gpsHeading>
<haccuracy>-1.000000</haccuracy>
<vaccuracy>-1.000000</vaccuracy>
<internetconnect>-1</internetconnect>
</trkpt>
<trkpt lat="35.044636" lon="136.427305">
<ele>528.000000</ele>
<time>2026-03-27T08:28:45Z</time>
<speed>0.000000</speed>
<trueHeading>0.000000</trueHeading>
<magneticHeading>0.000000</magneticHeading>
<gpsHeading>0.000000</gpsHeading>
<haccuracy>-1.000000</haccuracy>
<vaccuracy>-1.000000</vaccuracy>
<internetconnect>-1</internetconnect>
</trkpt>
<trkpt lat="35.044618" lon="136.427423">
<ele>526.000000</ele>
<time>2026-03-27T08:28:59Z</time>
<speed>0.000000</speed>
<trueHeading>0.000000</trueHeading>
<magneticHeading>0.000000</magneticHeading>
<gpsHeading>0.000000</gpsHeading>
<haccuracy>-1.000000</haccuracy>
<vaccuracy>-1.000000</vaccuracy>
<internetconnect>-1</internetconnect>
</trkpt>
<trkpt lat="35.044618" lon="136.427515">
<ele>525.000000</ele>
<time>2026-03-27T08:29:09Z</time>
<speed>0.000000</speed>
<trueHeading>0.000000</trueHeading>
<magneticHeading>0.000000</magneticHeading>
<gpsHeading>0.000000</gpsHeading>
<haccuracy>-1.000000</haccuracy>
<vaccuracy>-1.000000</vaccuracy>
<internetconnect>-1</internetconnect>
</trkpt>
<trkpt lat="35.044609" lon="136.427665">
<ele>525.000000</ele>
<time>2026-03-27T08:29:26Z</time>
<speed>0.000000</speed>
<trueHeading>0.000000</trueHeading>
<magneticHeading>0.000000</magneticHeading>
<gpsHeading>0.000000</gpsHeading>
<haccuracy>-1.000000</haccuracy>
<vaccuracy>-1.000000</vaccuracy>
<internetconnect>-1</internetconnect>
</trkpt>
<trkpt lat="35.044570" lon="136.427879">
<ele>522.000000</ele>
<time>2026-03-27T08:29:51Z</time>
<speed>0.000000</speed>
<trueHeading>0.000000</trueHeading>
<magneticHeading>0.000000</magneticHeading>
<gpsHeading>0.000000</gpsHeading>
<haccuracy>-1.000000</haccuracy>
<vaccuracy>-1.000000</vaccuracy>
<internetconnect>-1</internetconnect>
</trkpt>
<trkpt lat="35.044504" lon="136.428121">
<ele>519.000000</ele>
<time>2026-03-27T08:30:20Z</time>
<speed>0.000000</speed>
<trueHeading>0.000000</trueHeading>
<magneticHeading>0.000000</magneticHeading>
<gpsHeading>0.000000</gpsHeading>
<haccuracy>-1.000000</haccuracy>
<vaccuracy>-1.000000</vaccuracy>
<internetconnect>-1</internetconnect>
</trkpt>
<trkpt lat="35.044495" lon="136.428217">
<ele>520.000000</ele>
<time>2026-03-27T08:30:32Z</time>
<speed>0.000000</speed>
<trueHeading>0.000000</trueHeading>
<magneticHeading>0.000000</magneticHeading>
<gpsHeading>0.000000</gpsHeading>
<haccuracy>-1.000000</haccuracy>
<vaccuracy>-1.000000</vaccuracy>
<internetconnect>-1</internetconnect>
</trkpt>
<trkpt lat="35.044500" lon="136.428346">
<ele>518.000000</ele>
<time>2026-03-27T08:30:46Z</time>
<speed>0.000000</speed>
<trueHeading>0.000000</trueHeading>
<magneticHeading>0.000000</magneticHeading>
<gpsHeading>0.000000</gpsHeading>
<haccuracy>-1.000000</haccuracy>
<vaccuracy>-1.000000</vaccuracy>
<internetconnect>-1</internetconnect>
</trkpt>
<trkpt lat="35.044561" lon="136.428711">
<ele>512.000000</ele>
<time>2026-03-27T08:31:29Z</time>
<speed>0.000000</speed>
<trueHeading>0.000000</trueHeading>
<magneticHeading>0.000000</magneticHeading>
<gpsHeading>0.000000</gpsHeading>
<haccuracy>-1.000000</haccuracy>
<vaccuracy>-1.000000</vaccuracy>
<internetconnect>-1</internetconnect>
</trkpt>
<trkpt lat="35.044587" lon="136.428995">
<ele>511.000000</ele>
<time>2026-03-27T08:32:02Z</time>
<speed>0.000000</speed>
<trueHeading>0.000000</trueHeading>
<magneticHeading>0.000000</magneticHeading>
<gpsHeading>0.000000</gpsHeading>
<haccuracy>-1.000000</haccuracy>
<vaccuracy>-1.000000</vaccuracy>
<internetconnect>-1</internetconnect>
</trkpt>
<trkpt lat="35.044587" lon="136.429135">
<ele>509.000000</ele>
<time>2026-03-27T08:32:17Z</time>
<speed>0.000000</speed>
<trueHeading>0.000000</trueHeading>
<magneticHeading>0.000000</magneticHeading>
<gpsHeading>0.000000</gpsHeading>
<haccuracy>-1.000000</haccuracy>
<vaccuracy>-1.000000</vaccuracy>
<internetconnect>-1</internetconnect>
</trkpt>
<trkpt lat="35.044566" lon="136.429269">
<ele>508.000000</ele>
<time>2026-03-27T08:32:33Z</time>
<speed>0.000000</speed>
<trueHeading>0.000000</trueHeading>
<magneticHeading>0.000000</magneticHeading>
<gpsHeading>0.000000</gpsHeading>
<haccuracy>-1.000000</haccuracy>
<vaccuracy>-1.000000</vaccuracy>
<internetconnect>-1</internetconnect>
</trkpt>
<trkpt lat="35.044526" lon="136.429403">
<ele>506.000000</ele>
<time>2026-03-27T08:32:49Z</time>
<speed>0.000000</speed>
<trueHeading>0.000000</trueHeading>
<magneticHeading>0.000000</magneticHeading>
<gpsHeading>0.000000</gpsHeading>
<haccuracy>-1.000000</haccuracy>
<vaccuracy>-1.000000</vaccuracy>
<internetconnect>-1</internetconnect>
</trkpt>
<trkpt lat="35.044526" lon="136.429483">
<ele>505.000000</ele>
<time>2026-03-27T08:32:59Z</time>
<speed>0.000000</speed>
<trueHeading>0.000000</trueHeading>
<magneticHeading>0.000000</magneticHeading>
<gpsHeading>0.000000</gpsHeading>
<haccuracy>-1.000000</haccuracy>
<vaccuracy>-1.000000</vaccuracy>
<internetconnect>-1</internetconnect>
</trkpt>
<trkpt lat="35.044513" lon="136.429977">
<ele>501.000000</ele>
<time>2026-03-27T08:33:55Z</time>
<speed>0.000000</speed>
<trueHeading>0.000000</trueHeading>
<magneticHeading>0.000000</magneticHeading>
<gpsHeading>0.000000</gpsHeading>
<haccuracy>-1.000000</haccuracy>
<vaccuracy>-1.000000</vaccuracy>
<internetconnect>-1</internetconnect>
</trkpt>
<trkpt lat="35.044491" lon="136.430401">
<ele>498.000000</ele>
<time>2026-03-27T08:34:44Z</time>
<speed>0.000000</speed>
<trueHeading>0.000000</trueHeading>
<magneticHeading>0.000000</magneticHeading>
<gpsHeading>0.000000</gpsHeading>
<haccuracy>-1.000000</haccuracy>
<vaccuracy>-1.000000</vaccuracy>
<internetconnect>-1</internetconnect>
</trkpt>
<trkpt lat="35.044491" lon="136.430540">
<ele>497.000000</ele>
<time>2026-03-27T08:35:00Z</time>
<speed>0.000000</speed>
<trueHeading>0.000000</trueHeading>
<magneticHeading>0.000000</magneticHeading>
<gpsHeading>0.000000</gpsHeading>
<haccuracy>-1.000000</haccuracy>
<vaccuracy>-1.000000</vaccuracy>
<internetconnect>-1</internetconnect>
</trkpt>
<trkpt lat="35.044210" lon="136.431034">
<ele>492.000000</ele>
<time>2026-03-27T08:35:00Z</time>
<speed>0.000000</speed>
<trueHeading>0.000000</trueHeading>
<magneticHeading>0.000000</magneticHeading>
<gpsHeading>0.000000</gpsHeading>
<haccuracy>-1.000000</haccuracy>
<vaccuracy>-1.000000</vaccuracy>
<internetconnect>-1</internetconnect>
</trkpt>
<trkpt lat="35.044087" lon="136.431398">
<ele>489.000000</ele>
<time>2026-03-27T08:37:02Z</time>
<speed>0.000000</speed>
<trueHeading>0.000000</trueHeading>
<magneticHeading>0.000000</magneticHeading>
<gpsHeading>0.000000</gpsHeading>
<haccuracy>-1.000000</haccuracy>
<vaccuracy>-1.000000</vaccuracy>
<internetconnect>-1</internetconnect>
</trkpt>
<trkpt lat="35.044017" lon="136.431892">
<ele>485.000000</ele>
<time>2026-03-27T08:39:38Z</time>
<speed>0.000000</speed>
<trueHeading>0.000000</trueHeading>
<magneticHeading>0.000000</magneticHeading>
<gpsHeading>0.000000</gpsHeading>
<haccuracy>-1.000000</haccuracy>
<vaccuracy>-1.000000</vaccuracy>
<internetconnect>-1</internetconnect>
</trkpt>
<trkpt lat="35.044069" lon="136.432192">
<ele>482.000000</ele>
<time>2026-03-27T08:41:13Z</time>
<speed>0.000000</speed>
<trueHeading>0.000000</trueHeading>
<magneticHeading>0.000000</magneticHeading>
<gpsHeading>0.000000</gpsHeading>
<haccuracy>-1.000000</haccuracy>
<vaccuracy>-1.000000</vaccuracy>
<internetconnect>-1</internetconnect>
</trkpt>
<trkpt lat="35.044034" lon="136.432428">
<ele>480.000000</ele>
<time>2026-03-27T08:42:28Z</time>
<speed>0.000000</speed>
<trueHeading>0.000000</trueHeading>
<magneticHeading>0.000000</magneticHeading>
<gpsHeading>0.000000</gpsHeading>
<haccuracy>-1.000000</haccuracy>
<vaccuracy>-1.000000</vaccuracy>
<internetconnect>-1</internetconnect>
</trkpt>
<trkpt lat="35.044034" lon="136.432750">
<ele>478.000000</ele>
<time>2026-03-27T08:44:08Z</time>
<speed>0.000000</speed>
<trueHeading>0.000000</trueHeading>
<magneticHeading>0.000000</magneticHeading>
<gpsHeading>0.000000</gpsHeading>
<haccuracy>-1.000000</haccuracy>
<vaccuracy>-1.000000</vaccuracy>
<internetconnect>-1</internetconnect>
</trkpt>
<trkpt lat="35.044087" lon="136.433415">
<ele>475.000000</ele>
<time>2026-03-27T08:47:36Z</time>
<speed>0.000000</speed>
<trueHeading>0.000000</trueHeading>
<magneticHeading>0.000000</magneticHeading>
<gpsHeading>0.000000</gpsHeading>
<haccuracy>-1.000000</haccuracy>
<vaccuracy>-1.000000</vaccuracy>
<internetconnect>-1</internetconnect>
</trkpt>
<trkpt lat="35.044052" lon="136.434252">
<ele>470.000000</ele>
<time>2026-03-27T08:51:56Z</time>
<speed>0.000000</speed>
<trueHeading>0.000000</trueHeading>
<magneticHeading>0.000000</magneticHeading>
<gpsHeading>0.000000</gpsHeading>
<haccuracy>-1.000000</haccuracy>
<vaccuracy>-1.000000</vaccuracy>
<internetconnect>-1</internetconnect>
</trkpt>
<trkpt lat="35.043964" lon="136.434681">
<ele>468.000000</ele>
<time>2026-03-27T08:54:14Z</time>
<speed>0.000000</speed>
<trueHeading>0.000000</trueHeading>
<magneticHeading>0.000000</magneticHeading>
<gpsHeading>0.000000</gpsHeading>
<haccuracy>-1.000000</haccuracy>
<vaccuracy>-1.000000</vaccuracy>
<internetconnect>-1</internetconnect>
</trkpt>
<trkpt lat="35.043832" lon="136.435203">
<ele>465.000000</ele>
<time>2026-03-27T08:57:03Z</time>
<speed>0.000000</speed>
<trueHeading>0.000000</trueHeading>
<magneticHeading>0.000000</magneticHeading>
<gpsHeading>0.000000</gpsHeading>
<haccuracy>-1.000000</haccuracy>
<vaccuracy>-1.000000</vaccuracy>
<internetconnect>-1</internetconnect>
</trkpt>
<trkpt lat="35.043823" lon="136.435239">
<ele>465.000000</ele>
<time>2026-03-27T08:57:15Z</time>
<speed>0.000000</speed>
<trueHeading>0.000000</trueHeading>
<magneticHeading>0.000000</magneticHeading>
<gpsHeading>0.000000</gpsHeading>
<haccuracy>-1.000000</haccuracy>
<vaccuracy>-1.000000</vaccuracy>
<internetconnect>-1</internetconnect>
</trkpt>
<trkpt lat="35.043806" lon="136.435583">
<ele>464.000000</ele>
<time>2026-03-27T08:59:02Z</time>
<speed>0.000000</speed>
<trueHeading>0.000000</trueHeading>
<magneticHeading>0.000000</magneticHeading>
<gpsHeading>0.000000</gpsHeading>
<haccuracy>-1.000000</haccuracy>
<vaccuracy>-1.000000</vaccuracy>
<internetconnect>-1</internetconnect>
</trkpt>
<trkpt lat="35.043806" lon="136.435926">
<ele>461.000000</ele>
<time>2026-03-27T09:00:49Z</time>
<speed>0.000000</speed>
<trueHeading>0.000000</trueHeading>
<magneticHeading>0.000000</magneticHeading>
<gpsHeading>0.000000</gpsHeading>
<haccuracy>-1.000000</haccuracy>
<vaccuracy>-1.000000</vaccuracy>
<internetconnect>-1</internetconnect>
</trkpt>
<trkpt lat="35.043718" lon="136.436291">
<ele>459.000000</ele>
<time>2026-03-27T09:02:47Z</time>
<speed>0.000000</speed>
<trueHeading>0.000000</trueHeading>
<magneticHeading>0.000000</magneticHeading>
<gpsHeading>0.000000</gpsHeading>
<haccuracy>-1.000000</haccuracy>
<vaccuracy>-1.000000</vaccuracy>
<internetconnect>-1</internetconnect>
</trkpt>
<trkpt lat="35.043683" lon="136.436570">
<ele>458.000000</ele>
<time>2026-03-27T09:04:15Z</time>
<speed>0.000000</speed>
<trueHeading>0.000000</trueHeading>
<magneticHeading>0.000000</magneticHeading>
<gpsHeading>0.000000</gpsHeading>
<haccuracy>-1.000000</haccuracy>
<vaccuracy>-1.000000</vaccuracy>
<internetconnect>-1</internetconnect>
</trkpt>
<trkpt lat="35.043823" lon="136.436913">
<ele>456.000000</ele>
<time>2026-03-27T09:06:14Z</time>
<speed>0.000000</speed>
<trueHeading>0.000000</trueHeading>
<magneticHeading>0.000000</magneticHeading>
<gpsHeading>0.000000</gpsHeading>
<haccuracy>-1.000000</haccuracy>
<vaccuracy>-1.000000</vaccuracy>
<internetconnect>-1</internetconnect>
</trkpt>
<trkpt lat="35.043929" lon="136.437321">
<ele>452.000000</ele>
<time>2026-03-27T09:08:27Z</time>
<speed>0.000000</speed>
<trueHeading>0.000000</trueHeading>
<magneticHeading>0.000000</magneticHeading>
<gpsHeading>0.000000</gpsHeading>
<haccuracy>-1.000000</haccuracy>
<vaccuracy>-1.000000</vaccuracy>
<internetconnect>-1</internetconnect>
</trkpt>
<trkpt lat="35.043929" lon="136.437321">
<ele>452.000000</ele>
<time>2026-03-27T09:08:27Z</time>
<speed>0.000000</speed>
<trueHeading>0.000000</trueHeading>
<magneticHeading>0.000000</magneticHeading>
<gpsHeading>0.000000</gpsHeading>
<haccuracy>-1.000000</haccuracy>
<vaccuracy>-1.000000</vaccuracy>
<internetconnect>-1</internetconnect>
</trkpt>
<trkpt lat="35.043872" lon="136.437358">
<ele>453.000000</ele>
<time>2026-03-27T09:08:51Z</time>
<speed>0.000000</speed>
<trueHeading>0.000000</trueHeading>
<magneticHeading>0.000000</magneticHeading>
<gpsHeading>0.000000</gpsHeading>
<haccuracy>-1.000000</haccuracy>
<vaccuracy>-1.000000</vaccuracy>
<internetconnect>-1</internetconnect>
</trkpt>
<trkpt lat="35.043819" lon="136.437412">
<ele>452.000000</ele>
<time>2026-03-27T09:09:17Z</time>
<speed>0.000000</speed>
<trueHeading>0.000000</trueHeading>
<magneticHeading>0.000000</magneticHeading>
<gpsHeading>0.000000</gpsHeading>
<haccuracy>-1.000000</haccuracy>
<vaccuracy>-1.000000</vaccuracy>
<internetconnect>-1</internetconnect>
</trkpt>
<trkpt lat="35.043793" lon="136.437466">
<ele>452.000000</ele>
<time>2026-03-27T09:09:37Z</time>
<speed>0.000000</speed>
<trueHeading>0.000000</trueHeading>
<magneticHeading>0.000000</magneticHeading>
<gpsHeading>0.000000</gpsHeading>
<haccuracy>-1.000000</haccuracy>
<vaccuracy>-1.000000</vaccuracy>
<internetconnect>-1</internetconnect>
</trkpt>
<trkpt lat="35.043788" lon="136.437530">
<ele>452.000000</ele>
<time>2026-03-27T09:09:57Z</time>
<speed>0.000000</speed>
<trueHeading>0.000000</trueHeading>
<magneticHeading>0.000000</magneticHeading>
<gpsHeading>0.000000</gpsHeading>
<haccuracy>-1.000000</haccuracy>
<vaccuracy>-1.000000</vaccuracy>
<internetconnect>-1</internetconnect>
</trkpt>
<trkpt lat="35.043766" lon="136.437669">
<ele>453.000000</ele>
<time>2026-03-27T09:10:41Z</time>
<speed>0.000000</speed>
<trueHeading>0.000000</trueHeading>
<magneticHeading>0.000000</magneticHeading>
<gpsHeading>0.000000</gpsHeading>
<haccuracy>-1.000000</haccuracy>
<vaccuracy>-1.000000</vaccuracy>
<internetconnect>-1</internetconnect>
</trkpt>
<trkpt lat="35.043749" lon="136.437723">
<ele>452.000000</ele>
<time>2026-03-27T09:10:59Z</time>
<speed>0.000000</speed>
<trueHeading>0.000000</trueHeading>
<magneticHeading>0.000000</magneticHeading>
<gpsHeading>0.000000</gpsHeading>
<haccuracy>-1.000000</haccuracy>
<vaccuracy>-1.000000</vaccuracy>
<internetconnect>-1</internetconnect>
</trkpt>
<trkpt lat="35.043709" lon="136.437782">
<ele>452.000000</ele>
<time>2026-03-27T09:11:23Z</time>
<speed>0.000000</speed>
<trueHeading>0.000000</trueHeading>
<magneticHeading>0.000000</magneticHeading>
<gpsHeading>0.000000</gpsHeading>
<haccuracy>-1.000000</haccuracy>
<vaccuracy>-1.000000</vaccuracy>
<internetconnect>-1</internetconnect>
</trkpt>
<trkpt lat="35.043670" lon="136.437841">
<ele>453.000000</ele>
<time>2026-03-27T09:11:46Z</time>
<speed>0.000000</speed>
<trueHeading>0.000000</trueHeading>
<magneticHeading>0.000000</magneticHeading>
<gpsHeading>0.000000</gpsHeading>
<haccuracy>-1.000000</haccuracy>
<vaccuracy>-1.000000</vaccuracy>
<internetconnect>-1</internetconnect>
</trkpt>
<trkpt lat="35.043670" lon="136.437841">
<ele>453.000000</ele>
<time>2026-03-27T09:11:46Z</time>
<speed>0.000000</speed>
<trueHeading>0.000000</trueHeading>
<magneticHeading>0.000000</magneticHeading>
<gpsHeading>0.000000</gpsHeading>
<haccuracy>-1.000000</haccuracy>
<vaccuracy>-1.000000</vaccuracy>
<internetconnect>-1</internetconnect>
</trkpt>
<trkpt lat="35.043630" lon="136.437814">
<ele>454.000000</ele>
<time>2026-03-27T09:12:03Z</time>
<speed>0.000000</speed>
<trueHeading>0.000000</trueHeading>
<magneticHeading>0.000000</magneticHeading>
<gpsHeading>0.000000</gpsHeading>
<haccuracy>-1.000000</haccuracy>
<vaccuracy>-1.000000</vaccuracy>
<internetconnect>-1</internetconnect>
</trkpt>
<trkpt lat="35.043481" lon="136.437739">
<ele>458.000000</ele>
<time>2026-03-27T09:13:04Z</time>
<speed>0.000000</speed>
<trueHeading>0.000000</trueHeading>
<magneticHeading>0.000000</magneticHeading>
<gpsHeading>0.000000</gpsHeading>
<haccuracy>-1.000000</haccuracy>
<vaccuracy>-1.000000</vaccuracy>
<internetconnect>-1</internetconnect>
</trkpt>
<trkpt lat="35.043415" lon="136.437696">
<ele>458.000000</ele>
<time>2026-03-27T09:13:33Z</time>
<speed>0.000000</speed>
<trueHeading>0.000000</trueHeading>
<magneticHeading>0.000000</magneticHeading>
<gpsHeading>0.000000</gpsHeading>
<haccuracy>-1.000000</haccuracy>
<vaccuracy>-1.000000</vaccuracy>
<internetconnect>-1</internetconnect>
</trkpt>
<trkpt lat="35.043353" lon="136.437632">
<ele>458.000000</ele>
<time>2026-03-27T09:14:03Z</time>
<speed>0.000000</speed>
<trueHeading>0.000000</trueHeading>
<magneticHeading>0.000000</magneticHeading>
<gpsHeading>0.000000</gpsHeading>
<haccuracy>-1.000000</haccuracy>
<vaccuracy>-1.000000</vaccuracy>
<internetconnect>-1</internetconnect>
</trkpt>
<trkpt lat="35.043287" lon="136.437525">
<ele>461.000000</ele>
<time>2026-03-27T09:14:45Z</time>
<speed>0.000000</speed>
<trueHeading>0.000000</trueHeading>
<magneticHeading>0.000000</magneticHeading>
<gpsHeading>0.000000</gpsHeading>
<haccuracy>-1.000000</haccuracy>
<vaccuracy>-1.000000</vaccuracy>
<internetconnect>-1</internetconnect>
</trkpt>
<trkpt lat="35.043257" lon="136.437487">
<ele>461.000000</ele>
<time>2026-03-27T09:15:01Z</time>
<speed>0.000000</speed>
<trueHeading>0.000000</trueHeading>
<magneticHeading>0.000000</magneticHeading>
<gpsHeading>0.000000</gpsHeading>
<haccuracy>-1.000000</haccuracy>
<vaccuracy>-1.000000</vaccuracy>
<internetconnect>-1</internetconnect>
</trkpt>
<trkpt lat="35.043217" lon="136.437466">
<ele>461.000000</ele>
<time>2026-03-27T09:15:18Z</time>
<speed>0.000000</speed>
<trueHeading>0.000000</trueHeading>
<magneticHeading>0.000000</magneticHeading>
<gpsHeading>0.000000</gpsHeading>
<haccuracy>-1.000000</haccuracy>
<vaccuracy>-1.000000</vaccuracy>
<internetconnect>-1</internetconnect>
</trkpt>
<trkpt lat="35.043165" lon="136.437466">
<ele>462.000000</ele>
<time>2026-03-27T09:15:38Z</time>
<speed>0.000000</speed>
<trueHeading>0.000000</trueHeading>
<magneticHeading>0.000000</magneticHeading>
<gpsHeading>0.000000</gpsHeading>
<haccuracy>-1.000000</haccuracy>
<vaccuracy>-1.000000</vaccuracy>
<internetconnect>-1</internetconnect>
</trkpt>
<trkpt lat="35.043063" lon="136.437466">
<ele>464.000000</ele>
<time>2026-03-27T09:16:16Z</time>
<speed>0.000000</speed>
<trueHeading>0.000000</trueHeading>
<magneticHeading>0.000000</magneticHeading>
<gpsHeading>0.000000</gpsHeading>
<haccuracy>-1.000000</haccuracy>
<vaccuracy>-1.000000</vaccuracy>
<internetconnect>-1</internetconnect>
</trkpt>
<trkpt lat="35.042984" lon="136.437444">
<ele>467.000000</ele>
<time>2026-03-27T09:16:47Z</time>
<speed>0.000000</speed>
<trueHeading>0.000000</trueHeading>
<magneticHeading>0.000000</magneticHeading>
<gpsHeading>0.000000</gpsHeading>
<haccuracy>-1.000000</haccuracy>
<vaccuracy>-1.000000</vaccuracy>
<internetconnect>-1</internetconnect>
</trkpt>
<trkpt lat="35.042853" lon="136.437353">
<ele>468.000000</ele>
<time>2026-03-27T09:17:44Z</time>
<speed>0.000000</speed>
<trueHeading>0.000000</trueHeading>
<magneticHeading>0.000000</magneticHeading>
<gpsHeading>0.000000</gpsHeading>
<haccuracy>-1.000000</haccuracy>
<vaccuracy>-1.000000</vaccuracy>
<internetconnect>-1</internetconnect>
</trkpt>
<trkpt lat="35.042558" lon="136.436999">
<ele>475.000000</ele>
<time>2026-03-27T09:20:20Z</time>
<speed>0.000000</speed>
<trueHeading>0.000000</trueHeading>
<magneticHeading>0.000000</magneticHeading>
<gpsHeading>0.000000</gpsHeading>
<haccuracy>-1.000000</haccuracy>
<vaccuracy>-1.000000</vaccuracy>
<internetconnect>-1</internetconnect>
</trkpt>
<trkpt lat="35.042115" lon="136.436425">
<ele>484.000000</ele>
<time>2026-03-27T09:24:25Z</time>
<speed>0.000000</speed>
<trueHeading>0.000000</trueHeading>
<magneticHeading>0.000000</magneticHeading>
<gpsHeading>0.000000</gpsHeading>
<haccuracy>-1.000000</haccuracy>
<vaccuracy>-1.000000</vaccuracy>
<internetconnect>-1</internetconnect>
</trkpt>
<trkpt lat="35.041733" lon="136.435974">
<ele>495.000000</ele>
<time>2026-03-27T09:27:46Z</time>
<speed>0.000000</speed>
<trueHeading>0.000000</trueHeading>
<magneticHeading>0.000000</magneticHeading>
<gpsHeading>0.000000</gpsHeading>
<haccuracy>-1.000000</haccuracy>
<vaccuracy>-1.000000</vaccuracy>
<internetconnect>-1</internetconnect>
</trkpt>
<trkpt lat="35.041702" lon="136.435926">
<ele>495.000000</ele>
<time>2026-03-27T09:28:05Z</time>
<speed>0.000000</speed>
<trueHeading>0.000000</trueHeading>
<magneticHeading>0.000000</magneticHeading>
<gpsHeading>0.000000</gpsHeading>
<haccuracy>-1.000000</haccuracy>
<vaccuracy>-1.000000</vaccuracy>
<internetconnect>-1</internetconnect>
</trkpt>
<trkpt lat="35.041684" lon="136.435824">
<ele>497.000000</ele>
<time>2026-03-27T09:28:38Z</time>
<speed>0.000000</speed>
<trueHeading>0.000000</trueHeading>
<magneticHeading>0.000000</magneticHeading>
<gpsHeading>0.000000</gpsHeading>
<haccuracy>-1.000000</haccuracy>
<vaccuracy>-1.000000</vaccuracy>
<internetconnect>-1</internetconnect>
</trkpt>
<trkpt lat="35.041689" lon="136.435744">
<ele>497.000000</ele>
<time>2026-03-27T09:29:03Z</time>
<speed>0.000000</speed>
<trueHeading>0.000000</trueHeading>
<magneticHeading>0.000000</magneticHeading>
<gpsHeading>0.000000</gpsHeading>
<haccuracy>-1.000000</haccuracy>
<vaccuracy>-1.000000</vaccuracy>
<internetconnect>-1</internetconnect>
</trkpt>
<trkpt lat="35.041702" lon="136.435679">
<ele>497.000000</ele>
<time>2026-03-27T09:29:23Z</time>
<speed>0.000000</speed>
<trueHeading>0.000000</trueHeading>
<magneticHeading>0.000000</magneticHeading>
<gpsHeading>0.000000</gpsHeading>
<haccuracy>-1.000000</haccuracy>
<vaccuracy>-1.000000</vaccuracy>
<internetconnect>-1</internetconnect>
</trkpt>
<trkpt lat="35.041693" lon="136.435615">
<ele>498.000000</ele>
<time>2026-03-27T09:29:44Z</time>
<speed>0.000000</speed>
<trueHeading>0.000000</trueHeading>
<magneticHeading>0.000000</magneticHeading>
<gpsHeading>0.000000</gpsHeading>
<haccuracy>-1.000000</haccuracy>
<vaccuracy>-1.000000</vaccuracy>
<internetconnect>-1</internetconnect>
</trkpt>
<trkpt lat="35.041605" lon="136.435465">
<ele>500.000000</ele>
<time>2026-03-27T09:30:41Z</time>
<speed>0.000000</speed>
<trueHeading>0.000000</trueHeading>
<magneticHeading>0.000000</magneticHeading>
<gpsHeading>0.000000</gpsHeading>
<haccuracy>-1.000000</haccuracy>
<vaccuracy>-1.000000</vaccuracy>
<internetconnect>-1</internetconnect>
</trkpt>
<trkpt lat="35.041482" lon="136.435212">
<ele>504.000000</ele>
<time>2026-03-27T09:32:12Z</time>
<speed>0.000000</speed>
<trueHeading>0.000000</trueHeading>
<magneticHeading>0.000000</magneticHeading>
<gpsHeading>0.000000</gpsHeading>
<haccuracy>-1.000000</haccuracy>
<vaccuracy>-1.000000</vaccuracy>
<internetconnect>-1</internetconnect>
</trkpt>
<trkpt lat="35.041434" lon="136.435089">
<ele>504.000000</ele>
<time>2026-03-27T09:32:55Z</time>
<speed>0.000000</speed>
<trueHeading>0.000000</trueHeading>
<magneticHeading>0.000000</magneticHeading>
<gpsHeading>0.000000</gpsHeading>
<haccuracy>-1.000000</haccuracy>
<vaccuracy>-1.000000</vaccuracy>
<internetconnect>-1</internetconnect>
</trkpt>
<trkpt lat="35.041403" lon="136.434971">
<ele>506.000000</ele>
<time>2026-03-27T09:33:33Z</time>
<speed>0.000000</speed>
<trueHeading>0.000000</trueHeading>
<magneticHeading>0.000000</magneticHeading>
<gpsHeading>0.000000</gpsHeading>
<haccuracy>-1.000000</haccuracy>
<vaccuracy>-1.000000</vaccuracy>
<internetconnect>-1</internetconnect>
</trkpt>
<trkpt lat="35.041390" lon="136.434858">
<ele>508.000000</ele>
<time>2026-03-27T09:34:09Z</time>
<speed>0.000000</speed>
<trueHeading>0.000000</trueHeading>
<magneticHeading>0.000000</magneticHeading>
<gpsHeading>0.000000</gpsHeading>
<haccuracy>-1.000000</haccuracy>
<vaccuracy>-1.000000</vaccuracy>
<internetconnect>-1</internetconnect>
</trkpt>
<trkpt lat="35.041359" lon="136.434794">
<ele>508.000000</ele>
<time>2026-03-27T09:34:32Z</time>
<speed>0.000000</speed>
<trueHeading>0.000000</trueHeading>
<magneticHeading>0.000000</magneticHeading>
<gpsHeading>0.000000</gpsHeading>
<haccuracy>-1.000000</haccuracy>
<vaccuracy>-1.000000</vaccuracy>
<internetconnect>-1</internetconnect>
</trkpt>
<trkpt lat="35.041263" lon="136.434698">
<ele>511.000000</ele>
<time>2026-03-27T09:35:19Z</time>
<speed>0.000000</speed>
<trueHeading>0.000000</trueHeading>
<magneticHeading>0.000000</magneticHeading>
<gpsHeading>0.000000</gpsHeading>
<haccuracy>-1.000000</haccuracy>
<vaccuracy>-1.000000</vaccuracy>
<internetconnect>-1</internetconnect>
</trkpt>
<trkpt lat="35.041263" lon="136.434698">
<ele>511.000000</ele>
<time>2026-03-27T09:35:19Z</time>
<speed>0.000000</speed>
<trueHeading>0.000000</trueHeading>
<magneticHeading>0.000000</magneticHeading>
<gpsHeading>0.000000</gpsHeading>
<haccuracy>-1.000000</haccuracy>
<vaccuracy>-1.000000</vaccuracy>
<internetconnect>-1</internetconnect>
</trkpt>
<trkpt lat="35.041241" lon="136.434671">
<ele>512.000000</ele>
<time>2026-03-27T09:35:31Z</time>
<speed>0.000000</speed>
<trueHeading>0.000000</trueHeading>
<magneticHeading>0.000000</magneticHeading>
<gpsHeading>0.000000</gpsHeading>
<haccuracy>-1.000000</haccuracy>
<vaccuracy>-1.000000</vaccuracy>
<internetconnect>-1</internetconnect>
</trkpt>
<trkpt lat="35.041153" lon="136.434569">
<ele>514.000000</ele>
<time>2026-03-27T09:36:17Z</time>
<speed>0.000000</speed>
<trueHeading>0.000000</trueHeading>
<magneticHeading>0.000000</magneticHeading>
<gpsHeading>0.000000</gpsHeading>
<haccuracy>-1.000000</haccuracy>
<vaccuracy>-1.000000</vaccuracy>
<internetconnect>-1</internetconnect>
</trkpt>
<trkpt lat="35.041074" lon="136.434478">
<ele>517.000000</ele>
<time>2026-03-27T09:36:58Z</time>
<speed>0.000000</speed>
<trueHeading>0.000000</trueHeading>
<magneticHeading>0.000000</magneticHeading>
<gpsHeading>0.000000</gpsHeading>
<haccuracy>-1.000000</haccuracy>
<vaccuracy>-1.000000</vaccuracy>
<internetconnect>-1</internetconnect>
</trkpt>
<trkpt lat="35.041017" lon="136.434440">
<ele>519.000000</ele>
<time>2026-03-27T09:37:22Z</time>
<speed>0.000000</speed>
<trueHeading>0.000000</trueHeading>
<magneticHeading>0.000000</magneticHeading>
<gpsHeading>0.000000</gpsHeading>
<haccuracy>-1.000000</haccuracy>
<vaccuracy>-1.000000</vaccuracy>
<internetconnect>-1</internetconnect>
</trkpt>
<trkpt lat="35.040925" lon="136.434419">
<ele>522.000000</ele>
<time>2026-03-27T09:37:58Z</time>
<speed>0.000000</speed>
<trueHeading>0.000000</trueHeading>
<magneticHeading>0.000000</magneticHeading>
<gpsHeading>0.000000</gpsHeading>
<haccuracy>-1.000000</haccuracy>
<vaccuracy>-1.000000</vaccuracy>
<internetconnect>-1</internetconnect>
</trkpt>
<trkpt lat="35.040846" lon="136.434424">
<ele>525.000000</ele>
<time>2026-03-27T09:38:28Z</time>
<speed>0.000000</speed>
<trueHeading>0.000000</trueHeading>
<magneticHeading>0.000000</magneticHeading>
<gpsHeading>0.000000</gpsHeading>
<haccuracy>-1.000000</haccuracy>
<vaccuracy>-1.000000</vaccuracy>
<internetconnect>-1</internetconnect>
</trkpt>
<trkpt lat="35.040753" lon="136.434445">
<ele>527.000000</ele>
<time>2026-03-27T09:39:03Z</time>
<speed>0.000000</speed>
<trueHeading>0.000000</trueHeading>
<magneticHeading>0.000000</magneticHeading>
<gpsHeading>0.000000</gpsHeading>
<haccuracy>-1.000000</haccuracy>
<vaccuracy>-1.000000</vaccuracy>
<internetconnect>-1</internetconnect>
</trkpt>
<trkpt lat="35.040753" lon="136.434445">
<ele>527.000000</ele>
<time>2026-03-27T09:39:03Z</time>
<speed>0.000000</speed>
<trueHeading>0.000000</trueHeading>
<magneticHeading>0.000000</magneticHeading>
<gpsHeading>0.000000</gpsHeading>
<haccuracy>-1.000000</haccuracy>
<vaccuracy>-1.000000</vaccuracy>
<internetconnect>-1</internetconnect>
</trkpt>
<trkpt lat="35.040723" lon="136.434467">
<ele>528.000000</ele>
<time>2026-03-27T09:39:17Z</time>
<speed>0.000000</speed>
<trueHeading>0.000000</trueHeading>
<magneticHeading>0.000000</magneticHeading>
<gpsHeading>0.000000</gpsHeading>
<haccuracy>-1.000000</haccuracy>
<vaccuracy>-1.000000</vaccuracy>
<internetconnect>-1</internetconnect>
</trkpt>
<trkpt lat="35.040648" lon="136.434494">
<ele>531.000000</ele>
<time>2026-03-27T09:39:46Z</time>
<speed>0.000000</speed>
<trueHeading>0.000000</trueHeading>
<magneticHeading>0.000000</magneticHeading>
<gpsHeading>0.000000</gpsHeading>
<haccuracy>-1.000000</haccuracy>
<vaccuracy>-1.000000</vaccuracy>
<internetconnect>-1</internetconnect>
</trkpt>
<trkpt lat="35.040578" lon="136.434504">
<ele>535.000000</ele>
<time>2026-03-27T09:40:13Z</time>
<speed>0.000000</speed>
<trueHeading>0.000000</trueHeading>
<magneticHeading>0.000000</magneticHeading>
<gpsHeading>0.000000</gpsHeading>
<haccuracy>-1.000000</haccuracy>
<vaccuracy>-1.000000</vaccuracy>
<internetconnect>-1</internetconnect>
</trkpt>
<trkpt lat="35.040499" lon="136.434494">
<ele>540.000000</ele>
<time>2026-03-27T09:40:43Z</time>
<speed>0.000000</speed>
<trueHeading>0.000000</trueHeading>
<magneticHeading>0.000000</magneticHeading>
<gpsHeading>0.000000</gpsHeading>
<haccuracy>-1.000000</haccuracy>
<vaccuracy>-1.000000</vaccuracy>
<internetconnect>-1</internetconnect>
</trkpt>
<trkpt lat="35.040406" lon="136.434478">
<ele>541.000000</ele>
<time>2026-03-27T09:41:18Z</time>
<speed>0.000000</speed>
<trueHeading>0.000000</trueHeading>
<magneticHeading>0.000000</magneticHeading>
<gpsHeading>0.000000</gpsHeading>
<haccuracy>-1.000000</haccuracy>
<vaccuracy>-1.000000</vaccuracy>
<internetconnect>-1</internetconnect>
</trkpt>
<trkpt lat="35.040349" lon="136.434483">
<ele>543.000000</ele>
<time>2026-03-27T09:41:40Z</time>
<speed>0.000000</speed>
<trueHeading>0.000000</trueHeading>
<magneticHeading>0.000000</magneticHeading>
<gpsHeading>0.000000</gpsHeading>
<haccuracy>-1.000000</haccuracy>
<vaccuracy>-1.000000</vaccuracy>
<internetconnect>-1</internetconnect>
</trkpt>
<trkpt lat="35.040314" lon="136.434504">
<ele>547.000000</ele>
<time>2026-03-27T09:41:55Z</time>
<speed>0.000000</speed>
<trueHeading>0.000000</trueHeading>
<magneticHeading>0.000000</magneticHeading>
<gpsHeading>0.000000</gpsHeading>
<haccuracy>-1.000000</haccuracy>
<vaccuracy>-1.000000</vaccuracy>
<internetconnect>-1</internetconnect>
</trkpt>
<trkpt lat="35.040288" lon="136.434547">
<ele>550.000000</ele>
<time>2026-03-27T09:42:11Z</time>
<speed>0.000000</speed>
<trueHeading>0.000000</trueHeading>
<magneticHeading>0.000000</magneticHeading>
<gpsHeading>0.000000</gpsHeading>
<haccuracy>-1.000000</haccuracy>
<vaccuracy>-1.000000</vaccuracy>
<internetconnect>-1</internetconnect>
</trkpt>
<trkpt lat="35.040266" lon="136.434633">
<ele>554.000000</ele>
<time>2026-03-27T09:42:39Z</time>
<speed>0.000000</speed>
<trueHeading>0.000000</trueHeading>
<magneticHeading>0.000000</magneticHeading>
<gpsHeading>0.000000</gpsHeading>
<haccuracy>-1.000000</haccuracy>
<vaccuracy>-1.000000</vaccuracy>
<internetconnect>-1</internetconnect>
</trkpt>
<trkpt lat="35.040266" lon="136.434816">
<ele>564.000000</ele>
<time>2026-03-27T09:43:36Z</time>
<speed>0.000000</speed>
<trueHeading>0.000000</trueHeading>
<magneticHeading>0.000000</magneticHeading>
<gpsHeading>0.000000</gpsHeading>
<haccuracy>-1.000000</haccuracy>
<vaccuracy>-1.000000</vaccuracy>
<internetconnect>-1</internetconnect>
</trkpt>
<trkpt lat="35.040248" lon="136.434934">
<ele>572.000000</ele>
<time>2026-03-27T09:44:13Z</time>
<speed>0.000000</speed>
<trueHeading>0.000000</trueHeading>
<magneticHeading>0.000000</magneticHeading>
<gpsHeading>0.000000</gpsHeading>
<haccuracy>-1.000000</haccuracy>
<vaccuracy>-1.000000</vaccuracy>
<internetconnect>-1</internetconnect>
</trkpt>
<trkpt lat="35.040231" lon="136.434971">
<ele>573.000000</ele>
<time>2026-03-27T09:44:27Z</time>
<speed>0.000000</speed>
<trueHeading>0.000000</trueHeading>
<magneticHeading>0.000000</magneticHeading>
<gpsHeading>0.000000</gpsHeading>
<haccuracy>-1.000000</haccuracy>
<vaccuracy>-1.000000</vaccuracy>
<internetconnect>-1</internetconnect>
</trkpt>
<trkpt lat="35.040187" lon="136.435009">
<ele>579.000000</ele>
<time>2026-03-27T09:44:47Z</time>
<speed>0.000000</speed>
<trueHeading>0.000000</trueHeading>
<magneticHeading>0.000000</magneticHeading>
<gpsHeading>0.000000</gpsHeading>
<haccuracy>-1.000000</haccuracy>
<vaccuracy>-1.000000</vaccuracy>
<internetconnect>-1</internetconnect>
</trkpt>
<trkpt lat="35.040108" lon="136.435057">
<ele>584.000000</ele>
<time>2026-03-27T09:45:21Z</time>
<speed>0.000000</speed>
<trueHeading>0.000000</trueHeading>
<magneticHeading>0.000000</magneticHeading>
<gpsHeading>0.000000</gpsHeading>
<haccuracy>-1.000000</haccuracy>
<vaccuracy>-1.000000</vaccuracy>
<internetconnect>-1</internetconnect>
</trkpt>
<trkpt lat="35.039993" lon="136.435100">
<ele>591.000000</ele>
<time>2026-03-27T09:46:06Z</time>
<speed>0.000000</speed>
<trueHeading>0.000000</trueHeading>
<magneticHeading>0.000000</magneticHeading>
<gpsHeading>0.000000</gpsHeading>
<haccuracy>-1.000000</haccuracy>
<vaccuracy>-1.000000</vaccuracy>
<internetconnect>-1</internetconnect>
</trkpt>
<trkpt lat="35.039853" lon="136.435159">
<ele>602.000000</ele>
<time>2026-03-27T09:47:02Z</time>
<speed>0.000000</speed>
<trueHeading>0.000000</trueHeading>
<magneticHeading>0.000000</magneticHeading>
<gpsHeading>0.000000</gpsHeading>
<haccuracy>-1.000000</haccuracy>
<vaccuracy>-1.000000</vaccuracy>
<internetconnect>-1</internetconnect>
</trkpt>
<trkpt lat="35.039769" lon="136.435202">
<ele>607.000000</ele>
<time>2026-03-27T09:47:36Z</time>
<speed>0.000000</speed>
<trueHeading>0.000000</trueHeading>
<magneticHeading>0.000000</magneticHeading>
<gpsHeading>0.000000</gpsHeading>
<haccuracy>-1.000000</haccuracy>
<vaccuracy>-1.000000</vaccuracy>
<internetconnect>-1</internetconnect>
</trkpt>
<trkpt lat="35.039598" lon="136.435314">
<ele>618.000000</ele>
<time>2026-03-27T09:48:50Z</time>
<speed>0.000000</speed>
<trueHeading>0.000000</trueHeading>
<magneticHeading>0.000000</magneticHeading>
<gpsHeading>0.000000</gpsHeading>
<haccuracy>-1.000000</haccuracy>
<vaccuracy>-1.000000</vaccuracy>
<internetconnect>-1</internetconnect>
</trkpt>
<trkpt lat="35.039427" lon="136.435422">
<ele>629.000000</ele>
<time>2026-03-27T09:50:03Z</time>
<speed>0.000000</speed>
<trueHeading>0.000000</trueHeading>
<magneticHeading>0.000000</magneticHeading>
<gpsHeading>0.000000</gpsHeading>
<haccuracy>-1.000000</haccuracy>
<vaccuracy>-1.000000</vaccuracy>
<internetconnect>-1</internetconnect>
</trkpt>
<trkpt lat="35.039326" lon="136.435465">
<ele>638.000000</ele>
<time>2026-03-27T09:50:43Z</time>
<speed>0.000000</speed>
<trueHeading>0.000000</trueHeading>
<magneticHeading>0.000000</magneticHeading>
<gpsHeading>0.000000</gpsHeading>
<haccuracy>-1.000000</haccuracy>
<vaccuracy>-1.000000</vaccuracy>
<internetconnect>-1</internetconnect>
</trkpt>
<trkpt lat="35.039247" lon="136.435481">
<ele>643.000000</ele>
<time>2026-03-27T09:51:13Z</time>
<speed>0.000000</speed>
<trueHeading>0.000000</trueHeading>
<magneticHeading>0.000000</magneticHeading>
<gpsHeading>0.000000</gpsHeading>
<haccuracy>-1.000000</haccuracy>
<vaccuracy>-1.000000</vaccuracy>
<internetconnect>-1</internetconnect>
</trkpt>
<trkpt lat="35.039163" lon="136.435481">
<ele>654.000000</ele>
<time>2026-03-27T09:51:45Z</time>
<speed>0.000000</speed>
<trueHeading>0.000000</trueHeading>
<magneticHeading>0.000000</magneticHeading>
<gpsHeading>0.000000</gpsHeading>
<haccuracy>-1.000000</haccuracy>
<vaccuracy>-1.000000</vaccuracy>
<internetconnect>-1</internetconnect>
</trkpt>
<trkpt lat="35.039023" lon="136.435465">
<ele>661.000000</ele>
<time>2026-03-27T09:52:38Z</time>
<speed>0.000000</speed>
<trueHeading>0.000000</trueHeading>
<magneticHeading>0.000000</magneticHeading>
<gpsHeading>0.000000</gpsHeading>
<haccuracy>-1.000000</haccuracy>
<vaccuracy>-1.000000</vaccuracy>
<internetconnect>-1</internetconnect>
</trkpt>
<trkpt lat="35.038856" lon="136.435454">
<ele>662.000000</ele>
<time>2026-03-27T09:53:41Z</time>
<speed>0.000000</speed>
<trueHeading>0.000000</trueHeading>
<magneticHeading>0.000000</magneticHeading>
<gpsHeading>0.000000</gpsHeading>
<haccuracy>-1.000000</haccuracy>
<vaccuracy>-1.000000</vaccuracy>
<internetconnect>-1</internetconnect>
</trkpt>
<trkpt lat="35.038746" lon="136.435465">
<ele>667.000000</ele>
<time>2026-03-27T09:54:23Z</time>
<speed>0.000000</speed>
<trueHeading>0.000000</trueHeading>
<magneticHeading>0.000000</magneticHeading>
<gpsHeading>0.000000</gpsHeading>
<haccuracy>-1.000000</haccuracy>
<vaccuracy>-1.000000</vaccuracy>
<internetconnect>-1</internetconnect>
</trkpt>
<trkpt lat="35.038632" lon="136.435497">
<ele>671.000000</ele>
<time>2026-03-27T09:55:07Z</time>
<speed>0.000000</speed>
<trueHeading>0.000000</trueHeading>
<magneticHeading>0.000000</magneticHeading>
<gpsHeading>0.000000</gpsHeading>
<haccuracy>-1.000000</haccuracy>
<vaccuracy>-1.000000</vaccuracy>
<internetconnect>-1</internetconnect>
</trkpt>
<trkpt lat="35.038452" lon="136.435572">
<ele>675.000000</ele>
<time>2026-03-27T09:56:19Z</time>
<speed>0.000000</speed>
<trueHeading>0.000000</trueHeading>
<magneticHeading>0.000000</magneticHeading>
<gpsHeading>0.000000</gpsHeading>
<haccuracy>-1.000000</haccuracy>
<vaccuracy>-1.000000</vaccuracy>
<internetconnect>-1</internetconnect>
</trkpt>
<trkpt lat="35.038285" lon="136.435674">
<ele>680.000000</ele>
<time>2026-03-27T09:57:30Z</time>
<speed>0.000000</speed>
<trueHeading>0.000000</trueHeading>
<magneticHeading>0.000000</magneticHeading>
<gpsHeading>0.000000</gpsHeading>
<haccuracy>-1.000000</haccuracy>
<vaccuracy>-1.000000</vaccuracy>
<internetconnect>-1</internetconnect>
</trkpt>
<trkpt lat="35.038232" lon="136.435722">
<ele>680.000000</ele>
<time>2026-03-27T09:57:55Z</time>
<speed>0.000000</speed>
<trueHeading>0.000000</trueHeading>
<magneticHeading>0.000000</magneticHeading>
<gpsHeading>0.000000</gpsHeading>
<haccuracy>-1.000000</haccuracy>
<vaccuracy>-1.000000</vaccuracy>
<internetconnect>-1</internetconnect>
</trkpt>
<trkpt lat="35.038179" lon="136.435786">
<ele>678.000000</ele>
<time>2026-03-27T09:58:23Z</time>
<speed>0.000000</speed>
<trueHeading>0.000000</trueHeading>
<magneticHeading>0.000000</magneticHeading>
<gpsHeading>0.000000</gpsHeading>
<haccuracy>-1.000000</haccuracy>
<vaccuracy>-1.000000</vaccuracy>
<internetconnect>-1</internetconnect>
</trkpt>
<trkpt lat="35.038153" lon="136.435862">
<ele>676.000000</ele>
<time>2026-03-27T09:58:49Z</time>
<speed>0.000000</speed>
<trueHeading>0.000000</trueHeading>
<magneticHeading>0.000000</magneticHeading>
<gpsHeading>0.000000</gpsHeading>
<haccuracy>-1.000000</haccuracy>
<vaccuracy>-1.000000</vaccuracy>
<internetconnect>-1</internetconnect>
</trkpt>
<trkpt lat="35.038149" lon="136.435937">
<ele>673.000000</ele>
<time>2026-03-27T09:59:12Z</time>
<speed>0.000000</speed>
<trueHeading>0.000000</trueHeading>
<magneticHeading>0.000000</magneticHeading>
<gpsHeading>0.000000</gpsHeading>
<haccuracy>-1.000000</haccuracy>
<vaccuracy>-1.000000</vaccuracy>
<internetconnect>-1</internetconnect>
</trkpt>
<trkpt lat="35.038166" lon="136.436039">
<ele>680.000000</ele>
<time>2026-03-27T09:59:44Z</time>
<speed>0.000000</speed>
<trueHeading>0.000000</trueHeading>
<magneticHeading>0.000000</magneticHeading>
<gpsHeading>0.000000</gpsHeading>
<haccuracy>-1.000000</haccuracy>
<vaccuracy>-1.000000</vaccuracy>
<internetconnect>-1</internetconnect>
</trkpt>
<trkpt lat="35.038210" lon="136.436146">
<ele>683.000000</ele>
<time>2026-03-27T10:00:22Z</time>
<speed>0.000000</speed>
<trueHeading>0.000000</trueHeading>
<magneticHeading>0.000000</magneticHeading>
<gpsHeading>0.000000</gpsHeading>
<haccuracy>-1.000000</haccuracy>
<vaccuracy>-1.000000</vaccuracy>
<internetconnect>-1</internetconnect>
</trkpt>
<trkpt lat="35.038285" lon="136.436285">
<ele>685.000000</ele>
<time>2026-03-27T10:01:13Z</time>
<speed>0.000000</speed>
<trueHeading>0.000000</trueHeading>
<magneticHeading>0.000000</magneticHeading>
<gpsHeading>0.000000</gpsHeading>
<haccuracy>-1.000000</haccuracy>
<vaccuracy>-1.000000</vaccuracy>
<internetconnect>-1</internetconnect>
</trkpt>
<trkpt lat="35.038298" lon="136.436328">
<ele>683.000000</ele>
<time>2026-03-27T10:01:28Z</time>
<speed>0.000000</speed>
<trueHeading>0.000000</trueHeading>
<magneticHeading>0.000000</magneticHeading>
<gpsHeading>0.000000</gpsHeading>
<haccuracy>-1.000000</haccuracy>
<vaccuracy>-1.000000</vaccuracy>
<internetconnect>-1</internetconnect>
</trkpt>
<trkpt lat="35.038289" lon="136.436377">
<ele>688.000000</ele>
<time>2026-03-27T10:01:43Z</time>
<speed>0.000000</speed>
<trueHeading>0.000000</trueHeading>
<magneticHeading>0.000000</magneticHeading>
<gpsHeading>0.000000</gpsHeading>
<haccuracy>-1.000000</haccuracy>
<vaccuracy>-1.000000</vaccuracy>
<internetconnect>-1</internetconnect>
</trkpt>
<trkpt lat="35.038259" lon="136.436387">
<ele>690.000000</ele>
<time>2026-03-27T10:01:55Z</time>
<speed>0.000000</speed>
<trueHeading>0.000000</trueHeading>
<magneticHeading>0.000000</magneticHeading>
<gpsHeading>0.000000</gpsHeading>
<haccuracy>-1.000000</haccuracy>
<vaccuracy>-1.000000</vaccuracy>
<internetconnect>-1</internetconnect>
</trkpt>
<trkpt lat="35.038153" lon="136.436355">
<ele>695.000000</ele>
<time>2026-03-27T10:02:36Z</time>
<speed>0.000000</speed>
<trueHeading>0.000000</trueHeading>
<magneticHeading>0.000000</magneticHeading>
<gpsHeading>0.000000</gpsHeading>
<haccuracy>-1.000000</haccuracy>
<vaccuracy>-1.000000</vaccuracy>
<internetconnect>-1</internetconnect>
</trkpt>
<trkpt lat="35.038087" lon="136.436355">
<ele>699.000000</ele>
<time>2026-03-27T10:03:01Z</time>
<speed>0.000000</speed>
<trueHeading>0.000000</trueHeading>
<magneticHeading>0.000000</magneticHeading>
<gpsHeading>0.000000</gpsHeading>
<haccuracy>-1.000000</haccuracy>
<vaccuracy>-1.000000</vaccuracy>
<internetconnect>-1</internetconnect>
</trkpt>
<trkpt lat="35.038013" lon="136.436371">
<ele>698.000000</ele>
<time>2026-03-27T10:03:30Z</time>
<speed>0.000000</speed>
<trueHeading>0.000000</trueHeading>
<magneticHeading>0.000000</magneticHeading>
<gpsHeading>0.000000</gpsHeading>
<haccuracy>-1.000000</haccuracy>
<vaccuracy>-1.000000</vaccuracy>
<internetconnect>-1</internetconnect>
</trkpt>
<trkpt lat="35.037951" lon="136.436387">
<ele>695.000000</ele>
<time>2026-03-27T10:03:54Z</time>
<speed>0.000000</speed>
<trueHeading>0.000000</trueHeading>
<magneticHeading>0.000000</magneticHeading>
<gpsHeading>0.000000</gpsHeading>
<haccuracy>-1.000000</haccuracy>
<vaccuracy>-1.000000</vaccuracy>
<internetconnect>-1</internetconnect>
</trkpt>
<trkpt lat="35.037872" lon="136.436414">
<ele>698.000000</ele>
<time>2026-03-27T10:04:25Z</time>
<speed>0.000000</speed>
<trueHeading>0.000000</trueHeading>
<magneticHeading>0.000000</magneticHeading>
<gpsHeading>0.000000</gpsHeading>
<haccuracy>-1.000000</haccuracy>
<vaccuracy>-1.000000</vaccuracy>
<internetconnect>-1</internetconnect>
</trkpt>
<trkpt lat="35.037802" lon="136.436430">
<ele>702.000000</ele>
<time>2026-03-27T10:04:52Z</time>
<speed>0.000000</speed>
<trueHeading>0.000000</trueHeading>
<magneticHeading>0.000000</magneticHeading>
<gpsHeading>0.000000</gpsHeading>
<haccuracy>-1.000000</haccuracy>
<vaccuracy>-1.000000</vaccuracy>
<internetconnect>-1</internetconnect>
</trkpt>
<trkpt lat="35.037736" lon="136.436425">
<ele>704.000000</ele>
<time>2026-03-27T10:05:17Z</time>
<speed>0.000000</speed>
<trueHeading>0.000000</trueHeading>
<magneticHeading>0.000000</magneticHeading>
<gpsHeading>0.000000</gpsHeading>
<haccuracy>-1.000000</haccuracy>
<vaccuracy>-1.000000</vaccuracy>
<internetconnect>-1</internetconnect>
</trkpt>
<trkpt lat="35.037582" lon="136.436366">
<ele>696.000000</ele>
<time>2026-03-27T10:06:18Z</time>
<speed>0.000000</speed>
<trueHeading>0.000000</trueHeading>
<magneticHeading>0.000000</magneticHeading>
<gpsHeading>0.000000</gpsHeading>
<haccuracy>-1.000000</haccuracy>
<vaccuracy>-1.000000</vaccuracy>
<internetconnect>-1</internetconnect>
</trkpt>
<trkpt lat="35.037428" lon="136.436296">
<ele>699.000000</ele>
<time>2026-03-27T10:07:20Z</time>
<speed>0.000000</speed>
<trueHeading>0.000000</trueHeading>
<magneticHeading>0.000000</magneticHeading>
<gpsHeading>0.000000</gpsHeading>
<haccuracy>-1.000000</haccuracy>
<vaccuracy>-1.000000</vaccuracy>
<internetconnect>-1</internetconnect>
</trkpt>
<trkpt lat="35.037371" lon="136.436275">
<ele>705.000000</ele>
<time>2026-03-27T10:07:42Z</time>
<speed>0.000000</speed>
<trueHeading>0.000000</trueHeading>
<magneticHeading>0.000000</magneticHeading>
<gpsHeading>0.000000</gpsHeading>
<haccuracy>-1.000000</haccuracy>
<vaccuracy>-1.000000</vaccuracy>
<internetconnect>-1</internetconnect>
</trkpt>
<trkpt lat="35.037143" lon="136.436167">
<ele>715.000000</ele>
<time>2026-03-27T10:09:15Z</time>
<speed>0.000000</speed>
<trueHeading>0.000000</trueHeading>
<magneticHeading>0.000000</magneticHeading>
<gpsHeading>0.000000</gpsHeading>
<haccuracy>-1.000000</haccuracy>
<vaccuracy>-1.000000</vaccuracy>
<internetconnect>-1</internetconnect>
</trkpt>
<trkpt lat="35.037064" lon="136.436141">
<ele>721.000000</ele>
<time>2026-03-27T10:09:46Z</time>
<speed>0.000000</speed>
<trueHeading>0.000000</trueHeading>
<magneticHeading>0.000000</magneticHeading>
<gpsHeading>0.000000</gpsHeading>
<haccuracy>-1.000000</haccuracy>
<vaccuracy>-1.000000</vaccuracy>
<internetconnect>-1</internetconnect>
</trkpt>
<trkpt lat="35.036985" lon="136.436135">
<ele>727.000000</ele>
<time>2026-03-27T10:10:16Z</time>
<speed>0.000000</speed>
<trueHeading>0.000000</trueHeading>
<magneticHeading>0.000000</magneticHeading>
<gpsHeading>0.000000</gpsHeading>
<haccuracy>-1.000000</haccuracy>
<vaccuracy>-1.000000</vaccuracy>
<internetconnect>-1</internetconnect>
</trkpt>
<trkpt lat="35.036932" lon="136.436151">
<ele>730.000000</ele>
<time>2026-03-27T10:10:36Z</time>
<speed>0.000000</speed>
<trueHeading>0.000000</trueHeading>
<magneticHeading>0.000000</magneticHeading>
<gpsHeading>0.000000</gpsHeading>
<haccuracy>-1.000000</haccuracy>
<vaccuracy>-1.000000</vaccuracy>
<internetconnect>-1</internetconnect>
</trkpt>
<trkpt lat="35.036761" lon="136.436269">
<ele>732.000000</ele>
<time>2026-03-27T10:11:51Z</time>
<speed>0.000000</speed>
<trueHeading>0.000000</trueHeading>
<magneticHeading>0.000000</magneticHeading>
<gpsHeading>0.000000</gpsHeading>
<haccuracy>-1.000000</haccuracy>
<vaccuracy>-1.000000</vaccuracy>
<internetconnect>-1</internetconnect>
</trkpt>
<trkpt lat="35.036708" lon="136.436296">
<ele>731.000000</ele>
<time>2026-03-27T10:12:12Z</time>
<speed>0.000000</speed>
<trueHeading>0.000000</trueHeading>
<magneticHeading>0.000000</magneticHeading>
<gpsHeading>0.000000</gpsHeading>
<haccuracy>-1.000000</haccuracy>
<vaccuracy>-1.000000</vaccuracy>
<internetconnect>-1</internetconnect>
</trkpt>
<trkpt lat="35.036625" lon="136.436318">
<ele>735.000000</ele>
<time>2026-03-27T10:12:44Z</time>
<speed>0.000000</speed>
<trueHeading>0.000000</trueHeading>
<magneticHeading>0.000000</magneticHeading>
<gpsHeading>0.000000</gpsHeading>
<haccuracy>-1.000000</haccuracy>
<vaccuracy>-1.000000</vaccuracy>
<internetconnect>-1</internetconnect>
</trkpt>
<trkpt lat="35.036502" lon="136.436323">
<ele>738.000000</ele>
<time>2026-03-27T10:13:31Z</time>
<speed>0.000000</speed>
<trueHeading>0.000000</trueHeading>
<magneticHeading>0.000000</magneticHeading>
<gpsHeading>0.000000</gpsHeading>
<haccuracy>-1.000000</haccuracy>
<vaccuracy>-1.000000</vaccuracy>
<internetconnect>-1</internetconnect>
</trkpt>
<trkpt lat="35.036291" lon="136.436328">
<ele>749.000000</ele>
<time>2026-03-27T10:14:51Z</time>
<speed>0.000000</speed>
<trueHeading>0.000000</trueHeading>
<magneticHeading>0.000000</magneticHeading>
<gpsHeading>0.000000</gpsHeading>
<haccuracy>-1.000000</haccuracy>
<vaccuracy>-1.000000</vaccuracy>
<internetconnect>-1</internetconnect>
</trkpt>
<trkpt lat="35.036181" lon="136.436350">
<ele>750.000000</ele>
<time>2026-03-27T10:15:33Z</time>
<speed>0.000000</speed>
<trueHeading>0.000000</trueHeading>
<magneticHeading>0.000000</magneticHeading>
<gpsHeading>0.000000</gpsHeading>
<haccuracy>-1.000000</haccuracy>
<vaccuracy>-1.000000</vaccuracy>
<internetconnect>-1</internetconnect>
</trkpt>
<trkpt lat="35.036054" lon="136.436393">
<ele>754.000000</ele>
<time>2026-03-27T10:16:23Z</time>
<speed>0.000000</speed>
<trueHeading>0.000000</trueHeading>
<magneticHeading>0.000000</magneticHeading>
<gpsHeading>0.000000</gpsHeading>
<haccuracy>-1.000000</haccuracy>
<vaccuracy>-1.000000</vaccuracy>
<internetconnect>-1</internetconnect>
</trkpt>
<trkpt lat="35.035843" lon="136.436521">
<ele>765.000000</ele>
<time>2026-03-27T10:17:52Z</time>
<speed>0.000000</speed>
<trueHeading>0.000000</trueHeading>
<magneticHeading>0.000000</magneticHeading>
<gpsHeading>0.000000</gpsHeading>
<haccuracy>-1.000000</haccuracy>
<vaccuracy>-1.000000</vaccuracy>
<internetconnect>-1</internetconnect>
</trkpt>
<trkpt lat="35.035702" lon="136.436602">
<ele>775.000000</ele>
<time>2026-03-27T10:18:51Z</time>
<speed>0.000000</speed>
<trueHeading>0.000000</trueHeading>
<magneticHeading>0.000000</magneticHeading>
<gpsHeading>0.000000</gpsHeading>
<haccuracy>-1.000000</haccuracy>
<vaccuracy>-1.000000</vaccuracy>
<internetconnect>-1</internetconnect>
</trkpt>
<trkpt lat="35.035588" lon="136.436639">
<ele>782.000000</ele>
<time>2026-03-27T10:19:35Z</time>
<speed>0.000000</speed>
<trueHeading>0.000000</trueHeading>
<magneticHeading>0.000000</magneticHeading>
<gpsHeading>0.000000</gpsHeading>
<haccuracy>-1.000000</haccuracy>
<vaccuracy>-1.000000</vaccuracy>
<internetconnect>-1</internetconnect>
</trkpt>
<trkpt lat="35.035491" lon="136.436645">
<ele>785.000000</ele>
<time>2026-03-27T10:20:12Z</time>
<speed>0.000000</speed>
<trueHeading>0.000000</trueHeading>
<magneticHeading>0.000000</magneticHeading>
<gpsHeading>0.000000</gpsHeading>
<haccuracy>-1.000000</haccuracy>
<vaccuracy>-1.000000</vaccuracy>
<internetconnect>-1</internetconnect>
</trkpt>
<trkpt lat="35.035421" lon="136.436634">
<ele>788.000000</ele>
<time>2026-03-27T10:20:39Z</time>
<speed>0.000000</speed>
<trueHeading>0.000000</trueHeading>
<magneticHeading>0.000000</magneticHeading>
<gpsHeading>0.000000</gpsHeading>
<haccuracy>-1.000000</haccuracy>
<vaccuracy>-1.000000</vaccuracy>
<internetconnect>-1</internetconnect>
</trkpt>
<trkpt lat="35.035281" lon="136.436597">
<ele>795.000000</ele>
<time>2026-03-27T10:21:33Z</time>
<speed>0.000000</speed>
<trueHeading>0.000000</trueHeading>
<magneticHeading>0.000000</magneticHeading>
<gpsHeading>0.000000</gpsHeading>
<haccuracy>-1.000000</haccuracy>
<vaccuracy>-1.000000</vaccuracy>
<internetconnect>-1</internetconnect>
</trkpt>
<trkpt lat="35.035083" lon="136.436538">
<ele>807.000000</ele>
<time>2026-03-27T10:22:50Z</time>
<speed>0.000000</speed>
<trueHeading>0.000000</trueHeading>
<magneticHeading>0.000000</magneticHeading>
<gpsHeading>0.000000</gpsHeading>
<haccuracy>-1.000000</haccuracy>
<vaccuracy>-1.000000</vaccuracy>
<internetconnect>-1</internetconnect>
</trkpt>
<trkpt lat="35.034956" lon="136.436521">
<ele>810.000000</ele>
<time>2026-03-27T10:23:38Z</time>
<speed>0.000000</speed>
<trueHeading>0.000000</trueHeading>
<magneticHeading>0.000000</magneticHeading>
<gpsHeading>0.000000</gpsHeading>
<haccuracy>-1.000000</haccuracy>
<vaccuracy>-1.000000</vaccuracy>
<internetconnect>-1</internetconnect>
</trkpt>
<trkpt lat="35.034859" lon="136.436521">
<ele>816.000000</ele>
<time>2026-03-27T10:24:15Z</time>
<speed>0.000000</speed>
<trueHeading>0.000000</trueHeading>
<magneticHeading>0.000000</magneticHeading>
<gpsHeading>0.000000</gpsHeading>
<haccuracy>-1.000000</haccuracy>
<vaccuracy>-1.000000</vaccuracy>
<internetconnect>-1</internetconnect>
</trkpt>
<trkpt lat="35.034723" lon="136.436548">
<ele>825.000000</ele>
<time>2026-03-27T10:25:07Z</time>
<speed>0.000000</speed>
<trueHeading>0.000000</trueHeading>
<magneticHeading>0.000000</magneticHeading>
<gpsHeading>0.000000</gpsHeading>
<haccuracy>-1.000000</haccuracy>
<vaccuracy>-1.000000</vaccuracy>
<internetconnect>-1</internetconnect>
</trkpt>
<trkpt lat="35.034674" lon="136.436543">
<ele>827.000000</ele>
<time>2026-03-27T10:25:25Z</time>
<speed>0.000000</speed>
<trueHeading>0.000000</trueHeading>
<magneticHeading>0.000000</magneticHeading>
<gpsHeading>0.000000</gpsHeading>
<haccuracy>-1.000000</haccuracy>
<vaccuracy>-1.000000</vaccuracy>
<internetconnect>-1</internetconnect>
</trkpt>
<trkpt lat="35.034630" lon="136.436516">
<ele>832.000000</ele>
<time>2026-03-27T10:25:44Z</time>
<speed>0.000000</speed>
<trueHeading>0.000000</trueHeading>
<magneticHeading>0.000000</magneticHeading>
<gpsHeading>0.000000</gpsHeading>
<haccuracy>-1.000000</haccuracy>
<vaccuracy>-1.000000</vaccuracy>
<internetconnect>-1</internetconnect>
</trkpt>
<trkpt lat="35.034556" lon="136.436436">
<ele>839.000000</ele>
<time>2026-03-27T10:26:22Z</time>
<speed>0.000000</speed>
<trueHeading>0.000000</trueHeading>
<magneticHeading>0.000000</magneticHeading>
<gpsHeading>0.000000</gpsHeading>
<haccuracy>-1.000000</haccuracy>
<vaccuracy>-1.000000</vaccuracy>
<internetconnect>-1</internetconnect>
</trkpt>
<trkpt lat="35.034411" lon="136.436248">
<ele>853.000000</ele>
<time>2026-03-27T10:27:42Z</time>
<speed>0.000000</speed>
<trueHeading>0.000000</trueHeading>
<magneticHeading>0.000000</magneticHeading>
<gpsHeading>0.000000</gpsHeading>
<haccuracy>-1.000000</haccuracy>
<vaccuracy>-1.000000</vaccuracy>
<internetconnect>-1</internetconnect>
</trkpt>
<trkpt lat="35.034301" lon="136.436141">
<ele>860.000000</ele>
<time>2026-03-27T10:28:35Z</time>
<speed>0.000000</speed>
<trueHeading>0.000000</trueHeading>
<magneticHeading>0.000000</magneticHeading>
<gpsHeading>0.000000</gpsHeading>
<haccuracy>-1.000000</haccuracy>
<vaccuracy>-1.000000</vaccuracy>
<internetconnect>-1</internetconnect>
</trkpt>
<trkpt lat="35.034213" lon="136.436071">
<ele>868.000000</ele>
<time>2026-03-27T10:29:15Z</time>
<speed>0.000000</speed>
<trueHeading>0.000000</trueHeading>
<magneticHeading>0.000000</magneticHeading>
<gpsHeading>0.000000</gpsHeading>
<haccuracy>-1.000000</haccuracy>
<vaccuracy>-1.000000</vaccuracy>
<internetconnect>-1</internetconnect>
</trkpt>
<trkpt lat="35.034081" lon="136.435985">
<ele>875.000000</ele>
<time>2026-03-27T10:30:11Z</time>
<speed>0.000000</speed>
<trueHeading>0.000000</trueHeading>
<magneticHeading>0.000000</magneticHeading>
<gpsHeading>0.000000</gpsHeading>
<haccuracy>-1.000000</haccuracy>
<vaccuracy>-1.000000</vaccuracy>
<internetconnect>-1</internetconnect>
</trkpt>
<trkpt lat="35.033822" lon="136.435888">
<ele>894.000000</ele>
<time>2026-03-27T10:31:54Z</time>
<speed>0.000000</speed>
<trueHeading>0.000000</trueHeading>
<magneticHeading>0.000000</magneticHeading>
<gpsHeading>0.000000</gpsHeading>
<haccuracy>-1.000000</haccuracy>
<vaccuracy>-1.000000</vaccuracy>
<internetconnect>-1</internetconnect>
</trkpt>
<trkpt lat="35.033695" lon="136.435829">
<ele>898.000000</ele>
<time>2026-03-27T10:32:45Z</time>
<speed>0.000000</speed>
<trueHeading>0.000000</trueHeading>
<magneticHeading>0.000000</magneticHeading>
<gpsHeading>0.000000</gpsHeading>
<haccuracy>-1.000000</haccuracy>
<vaccuracy>-1.000000</vaccuracy>
<internetconnect>-1</internetconnect>
</trkpt>
<trkpt lat="35.033620" lon="136.435786">
<ele>898.000000</ele>
<time>2026-03-27T10:33:16Z</time>
<speed>0.000000</speed>
<trueHeading>0.000000</trueHeading>
<magneticHeading>0.000000</magneticHeading>
<gpsHeading>0.000000</gpsHeading>
<haccuracy>-1.000000</haccuracy>
<vaccuracy>-1.000000</vaccuracy>
<internetconnect>-1</internetconnect>
</trkpt>
<trkpt lat="35.033554" lon="136.435883">
<ele>902.000000</ele>
<time>2026-03-27T10:33:55Z</time>
<speed>0.000000</speed>
<trueHeading>0.000000</trueHeading>
<magneticHeading>0.000000</magneticHeading>
<gpsHeading>0.000000</gpsHeading>
<haccuracy>-1.000000</haccuracy>
<vaccuracy>-1.000000</vaccuracy>
<internetconnect>-1</internetconnect>
</trkpt>
<trkpt lat="35.033484" lon="136.435985">
<ele>903.000000</ele>
<time>2026-03-27T10:34:37Z</time>
<speed>0.000000</speed>
<trueHeading>0.000000</trueHeading>
<magneticHeading>0.000000</magneticHeading>
<gpsHeading>0.000000</gpsHeading>
<haccuracy>-1.000000</haccuracy>
<vaccuracy>-1.000000</vaccuracy>
<internetconnect>-1</internetconnect>
</trkpt>
<trkpt lat="35.033449" lon="136.436044">
<ele>901.000000</ele>
<time>2026-03-27T10:35:00Z</time>
<speed>0.000000</speed>
<trueHeading>0.000000</trueHeading>
<magneticHeading>0.000000</magneticHeading>
<gpsHeading>0.000000</gpsHeading>
<haccuracy>-1.000000</haccuracy>
<vaccuracy>-1.000000</vaccuracy>
<internetconnect>-1</internetconnect>
</trkpt>
<trkpt lat="35.033484" lon="136.435985">
<ele>903.000000</ele>
<time>2026-03-27T10:35:00Z</time>
<speed>0.000000</speed>
<trueHeading>0.000000</trueHeading>
<magneticHeading>0.000000</magneticHeading>
<gpsHeading>0.000000</gpsHeading>
<haccuracy>-1.000000</haccuracy>
<vaccuracy>-1.000000</vaccuracy>
<internetconnect>-1</internetconnect>
</trkpt>
<trkpt lat="35.033554" lon="136.435883">
<ele>902.000000</ele>
<time>2026-03-27T10:35:41Z</time>
<speed>0.000000</speed>
<trueHeading>0.000000</trueHeading>
<magneticHeading>0.000000</magneticHeading>
<gpsHeading>0.000000</gpsHeading>
<haccuracy>-1.000000</haccuracy>
<vaccuracy>-1.000000</vaccuracy>
<internetconnect>-1</internetconnect>
</trkpt>
<trkpt lat="35.033620" lon="136.435786">
<ele>898.000000</ele>
<time>2026-03-27T10:36:19Z</time>
<speed>0.000000</speed>
<trueHeading>0.000000</trueHeading>
<magneticHeading>0.000000</magneticHeading>
<gpsHeading>0.000000</gpsHeading>
<haccuracy>-1.000000</haccuracy>
<vaccuracy>-1.000000</vaccuracy>
<internetconnect>-1</internetconnect>
</trkpt>
<trkpt lat="35.033598" lon="136.435765">
<ele>897.000000</ele>
<time>2026-03-27T10:36:30Z</time>
<speed>0.000000</speed>
<trueHeading>0.000000</trueHeading>
<magneticHeading>0.000000</magneticHeading>
<gpsHeading>0.000000</gpsHeading>
<haccuracy>-1.000000</haccuracy>
<vaccuracy>-1.000000</vaccuracy>
<internetconnect>-1</internetconnect>
</trkpt>
<trkpt lat="35.033427" lon="136.435449">
<ele>875.000000</ele>
<time>2026-03-27T10:38:27Z</time>
<speed>0.000000</speed>
<trueHeading>0.000000</trueHeading>
<magneticHeading>0.000000</magneticHeading>
<gpsHeading>0.000000</gpsHeading>
<haccuracy>-1.000000</haccuracy>
<vaccuracy>-1.000000</vaccuracy>
<internetconnect>-1</internetconnect>
</trkpt>
<trkpt lat="35.033269" lon="136.435175">
<ele>864.000000</ele>
<time>2026-03-27T10:40:10Z</time>
<speed>0.000000</speed>
<trueHeading>0.000000</trueHeading>
<magneticHeading>0.000000</magneticHeading>
<gpsHeading>0.000000</gpsHeading>
<haccuracy>-1.000000</haccuracy>
<vaccuracy>-1.000000</vaccuracy>
<internetconnect>-1</internetconnect>
</trkpt>
<trkpt lat="35.033216" lon="136.435041">
<ele>850.000000</ele>
<time>2026-03-27T10:40:56Z</time>
<speed>0.000000</speed>
<trueHeading>0.000000</trueHeading>
<magneticHeading>0.000000</magneticHeading>
<gpsHeading>0.000000</gpsHeading>
<haccuracy>-1.000000</haccuracy>
<vaccuracy>-1.000000</vaccuracy>
<internetconnect>-1</internetconnect>
</trkpt>
<trkpt lat="35.033190" lon="136.434934">
<ele>843.000000</ele>
<time>2026-03-27T10:41:31Z</time>
<speed>0.000000</speed>
<trueHeading>0.000000</trueHeading>
<magneticHeading>0.000000</magneticHeading>
<gpsHeading>0.000000</gpsHeading>
<haccuracy>-1.000000</haccuracy>
<vaccuracy>-1.000000</vaccuracy>
<internetconnect>-1</internetconnect>
</trkpt>
<trkpt lat="35.033168" lon="136.434773">
<ele>834.000000</ele>
<time>2026-03-27T10:42:21Z</time>
<speed>0.000000</speed>
<trueHeading>0.000000</trueHeading>
<magneticHeading>0.000000</magneticHeading>
<gpsHeading>0.000000</gpsHeading>
<haccuracy>-1.000000</haccuracy>
<vaccuracy>-1.000000</vaccuracy>
<internetconnect>-1</internetconnect>
</trkpt>
<trkpt lat="35.033146" lon="136.434724">
<ele>831.000000</ele>
<time>2026-03-27T10:42:39Z</time>
<speed>0.000000</speed>
<trueHeading>0.000000</trueHeading>
<magneticHeading>0.000000</magneticHeading>
<gpsHeading>0.000000</gpsHeading>
<haccuracy>-1.000000</haccuracy>
<vaccuracy>-1.000000</vaccuracy>
<internetconnect>-1</internetconnect>
</trkpt>
<trkpt lat="35.033111" lon="136.434681">
<ele>826.000000</ele>
<time>2026-03-27T10:42:57Z</time>
<speed>0.000000</speed>
<trueHeading>0.000000</trueHeading>
<magneticHeading>0.000000</magneticHeading>
<gpsHeading>0.000000</gpsHeading>
<haccuracy>-1.000000</haccuracy>
<vaccuracy>-1.000000</vaccuracy>
<internetconnect>-1</internetconnect>
</trkpt>
<trkpt lat="35.032948" lon="136.434585">
<ele>819.000000</ele>
<time>2026-03-27T10:44:05Z</time>
<speed>0.000000</speed>
<trueHeading>0.000000</trueHeading>
<magneticHeading>0.000000</magneticHeading>
<gpsHeading>0.000000</gpsHeading>
<haccuracy>-1.000000</haccuracy>
<vaccuracy>-1.000000</vaccuracy>
<internetconnect>-1</internetconnect>
</trkpt>
<trkpt lat="35.032790" lon="136.434472">
<ele>822.000000</ele>
<time>2026-03-27T10:45:14Z</time>
<speed>0.000000</speed>
<trueHeading>0.000000</trueHeading>
<magneticHeading>0.000000</magneticHeading>
<gpsHeading>0.000000</gpsHeading>
<haccuracy>-1.000000</haccuracy>
<vaccuracy>-1.000000</vaccuracy>
<internetconnect>-1</internetconnect>
</trkpt>
<trkpt lat="35.032693" lon="136.434376">
<ele>829.000000</ele>
<time>2026-03-27T10:46:01Z</time>
<speed>0.000000</speed>
<trueHeading>0.000000</trueHeading>
<magneticHeading>0.000000</magneticHeading>
<gpsHeading>0.000000</gpsHeading>
<haccuracy>-1.000000</haccuracy>
<vaccuracy>-1.000000</vaccuracy>
<internetconnect>-1</internetconnect>
</trkpt>
<trkpt lat="35.032636" lon="136.434295">
<ele>831.000000</ele>
<time>2026-03-27T10:46:34Z</time>
<speed>0.000000</speed>
<trueHeading>0.000000</trueHeading>
<magneticHeading>0.000000</magneticHeading>
<gpsHeading>0.000000</gpsHeading>
<haccuracy>-1.000000</haccuracy>
<vaccuracy>-1.000000</vaccuracy>
<internetconnect>-1</internetconnect>
</trkpt>
<trkpt lat="35.032575" lon="136.434172">
<ele>831.000000</ele>
<time>2026-03-27T10:47:19Z</time>
<speed>0.000000</speed>
<trueHeading>0.000000</trueHeading>
<magneticHeading>0.000000</magneticHeading>
<gpsHeading>0.000000</gpsHeading>
<haccuracy>-1.000000</haccuracy>
<vaccuracy>-1.000000</vaccuracy>
<internetconnect>-1</internetconnect>
</trkpt>
<trkpt lat="35.032535" lon="136.434048">
<ele>827.000000</ele>
<time>2026-03-27T10:48:00Z</time>
<speed>0.000000</speed>
<trueHeading>0.000000</trueHeading>
<magneticHeading>0.000000</magneticHeading>
<gpsHeading>0.000000</gpsHeading>
<haccuracy>-1.000000</haccuracy>
<vaccuracy>-1.000000</vaccuracy>
<internetconnect>-1</internetconnect>
</trkpt>
<trkpt lat="35.032474" lon="136.433861">
<ele>832.000000</ele>
<time>2026-03-27T10:48:00Z</time>
<speed>0.000000</speed>
<trueHeading>0.000000</trueHeading>
<magneticHeading>0.000000</magneticHeading>
<gpsHeading>0.000000</gpsHeading>
<haccuracy>-1.000000</haccuracy>
<vaccuracy>-1.000000</vaccuracy>
<internetconnect>-1</internetconnect>
</trkpt>
<trkpt lat="35.032386" lon="136.433678">
<ele>843.000000</ele>
<time>2026-03-27T10:49:13Z</time>
<speed>0.000000</speed>
<trueHeading>0.000000</trueHeading>
<magneticHeading>0.000000</magneticHeading>
<gpsHeading>0.000000</gpsHeading>
<haccuracy>-1.000000</haccuracy>
<vaccuracy>-1.000000</vaccuracy>
<internetconnect>-1</internetconnect>
</trkpt>
<trkpt lat="35.032285" lon="136.433539">
<ele>850.000000</ele>
<time>2026-03-27T10:50:17Z</time>
<speed>0.000000</speed>
<trueHeading>0.000000</trueHeading>
<magneticHeading>0.000000</magneticHeading>
<gpsHeading>0.000000</gpsHeading>
<haccuracy>-1.000000</haccuracy>
<vaccuracy>-1.000000</vaccuracy>
<internetconnect>-1</internetconnect>
</trkpt>
<trkpt lat="35.032228" lon="136.433458">
<ele>849.000000</ele>
<time>2026-03-27T10:50:53Z</time>
<speed>0.000000</speed>
<trueHeading>0.000000</trueHeading>
<magneticHeading>0.000000</magneticHeading>
<gpsHeading>0.000000</gpsHeading>
<haccuracy>-1.000000</haccuracy>
<vaccuracy>-1.000000</vaccuracy>
<internetconnect>-1</internetconnect>
</trkpt>
<trkpt lat="35.032201" lon="136.433394">
<ele>846.000000</ele>
<time>2026-03-27T10:51:18Z</time>
<speed>0.000000</speed>
<trueHeading>0.000000</trueHeading>
<magneticHeading>0.000000</magneticHeading>
<gpsHeading>0.000000</gpsHeading>
<haccuracy>-1.000000</haccuracy>
<vaccuracy>-1.000000</vaccuracy>
<internetconnect>-1</internetconnect>
</trkpt>
<trkpt lat="35.032197" lon="136.433324">
<ele>847.000000</ele>
<time>2026-03-27T10:51:42Z</time>
<speed>0.000000</speed>
<trueHeading>0.000000</trueHeading>
<magneticHeading>0.000000</magneticHeading>
<gpsHeading>0.000000</gpsHeading>
<haccuracy>-1.000000</haccuracy>
<vaccuracy>-1.000000</vaccuracy>
<internetconnect>-1</internetconnect>
</trkpt>
<trkpt lat="35.032215" lon="136.433265">
<ele>850.000000</ele>
<time>2026-03-27T10:52:04Z</time>
<speed>0.000000</speed>
<trueHeading>0.000000</trueHeading>
<magneticHeading>0.000000</magneticHeading>
<gpsHeading>0.000000</gpsHeading>
<haccuracy>-1.000000</haccuracy>
<vaccuracy>-1.000000</vaccuracy>
<internetconnect>-1</internetconnect>
</trkpt>
<trkpt lat="35.032263" lon="136.433169">
<ele>858.000000</ele>
<time>2026-03-27T10:52:43Z</time>
<speed>0.000000</speed>
<trueHeading>0.000000</trueHeading>
<magneticHeading>0.000000</magneticHeading>
<gpsHeading>0.000000</gpsHeading>
<haccuracy>-1.000000</haccuracy>
<vaccuracy>-1.000000</vaccuracy>
<internetconnect>-1</internetconnect>
</trkpt>
<trkpt lat="35.032298" lon="136.433088">
<ele>868.000000</ele>
<time>2026-03-27T10:53:15Z</time>
<speed>0.000000</speed>
<trueHeading>0.000000</trueHeading>
<magneticHeading>0.000000</magneticHeading>
<gpsHeading>0.000000</gpsHeading>
<haccuracy>-1.000000</haccuracy>
<vaccuracy>-1.000000</vaccuracy>
<internetconnect>-1</internetconnect>
</trkpt>
<trkpt lat="35.032311" lon="136.433008">
<ele>874.000000</ele>
<time>2026-03-27T10:53:43Z</time>
<speed>0.000000</speed>
<trueHeading>0.000000</trueHeading>
<magneticHeading>0.000000</magneticHeading>
<gpsHeading>0.000000</gpsHeading>
<haccuracy>-1.000000</haccuracy>
<vaccuracy>-1.000000</vaccuracy>
<internetconnect>-1</internetconnect>
</trkpt>
<trkpt lat="35.032302" lon="136.432884">
<ele>882.000000</ele>
<time>2026-03-27T10:54:26Z</time>
<speed>0.000000</speed>
<trueHeading>0.000000</trueHeading>
<magneticHeading>0.000000</magneticHeading>
<gpsHeading>0.000000</gpsHeading>
<haccuracy>-1.000000</haccuracy>
<vaccuracy>-1.000000</vaccuracy>
<internetconnect>-1</internetconnect>
</trkpt>
<trkpt lat="35.032263" lon="136.432723">
<ele>897.000000</ele>
<time>2026-03-27T10:55:24Z</time>
<speed>0.000000</speed>
<trueHeading>0.000000</trueHeading>
<magneticHeading>0.000000</magneticHeading>
<gpsHeading>0.000000</gpsHeading>
<haccuracy>-1.000000</haccuracy>
<vaccuracy>-1.000000</vaccuracy>
<internetconnect>-1</internetconnect>
</trkpt>
<trkpt lat="35.032219" lon="136.432600">
<ele>904.000000</ele>
<time>2026-03-27T10:56:10Z</time>
<speed>0.000000</speed>
<trueHeading>0.000000</trueHeading>
<magneticHeading>0.000000</magneticHeading>
<gpsHeading>0.000000</gpsHeading>
<haccuracy>-1.000000</haccuracy>
<vaccuracy>-1.000000</vaccuracy>
<internetconnect>-1</internetconnect>
</trkpt>
<trkpt lat="35.032201" lon="136.432546">
<ele>904.000000</ele>
<time>2026-03-27T10:56:30Z</time>
<speed>0.000000</speed>
<trueHeading>0.000000</trueHeading>
<magneticHeading>0.000000</magneticHeading>
<gpsHeading>0.000000</gpsHeading>
<haccuracy>-1.000000</haccuracy>
<vaccuracy>-1.000000</vaccuracy>
<internetconnect>-1</internetconnect>
</trkpt>
<trkpt lat="35.032201" lon="136.432493">
<ele>907.000000</ele>
<time>2026-03-27T10:56:49Z</time>
<speed>0.000000</speed>
<trueHeading>0.000000</trueHeading>
<magneticHeading>0.000000</magneticHeading>
<gpsHeading>0.000000</gpsHeading>
<haccuracy>-1.000000</haccuracy>
<vaccuracy>-1.000000</vaccuracy>
<internetconnect>-1</internetconnect>
</trkpt>
<trkpt lat="35.032215" lon="136.432455">
<ele>912.000000</ele>
<time>2026-03-27T10:57:03Z</time>
<speed>0.000000</speed>
<trueHeading>0.000000</trueHeading>
<magneticHeading>0.000000</magneticHeading>
<gpsHeading>0.000000</gpsHeading>
<haccuracy>-1.000000</haccuracy>
<vaccuracy>-1.000000</vaccuracy>
<internetconnect>-1</internetconnect>
</trkpt>
<trkpt lat="35.032245" lon="136.432396">
<ele>917.000000</ele>
<time>2026-03-27T10:57:27Z</time>
<speed>0.000000</speed>
<trueHeading>0.000000</trueHeading>
<magneticHeading>0.000000</magneticHeading>
<gpsHeading>0.000000</gpsHeading>
<haccuracy>-1.000000</haccuracy>
<vaccuracy>-1.000000</vaccuracy>
<internetconnect>-1</internetconnect>
</trkpt>
<trkpt lat="35.032272" lon="136.432343">
<ele>920.000000</ele>
<time>2026-03-27T10:57:48Z</time>
<speed>0.000000</speed>
<trueHeading>0.000000</trueHeading>
<magneticHeading>0.000000</magneticHeading>
<gpsHeading>0.000000</gpsHeading>
<haccuracy>-1.000000</haccuracy>
<vaccuracy>-1.000000</vaccuracy>
<internetconnect>-1</internetconnect>
</trkpt>
<trkpt lat="35.032276" lon="136.432305">
<ele>922.000000</ele>
<time>2026-03-27T10:58:02Z</time>
<speed>0.000000</speed>
<trueHeading>0.000000</trueHeading>
<magneticHeading>0.000000</magneticHeading>
<gpsHeading>0.000000</gpsHeading>
<haccuracy>-1.000000</haccuracy>
<vaccuracy>-1.000000</vaccuracy>
<internetconnect>-1</internetconnect>
</trkpt>
<trkpt lat="35.032263" lon="136.432273">
<ele>922.000000</ele>
<time>2026-03-27T10:58:14Z</time>
<speed>0.000000</speed>
<trueHeading>0.000000</trueHeading>
<magneticHeading>0.000000</magneticHeading>
<gpsHeading>0.000000</gpsHeading>
<haccuracy>-1.000000</haccuracy>
<vaccuracy>-1.000000</vaccuracy>
<internetconnect>-1</internetconnect>
</trkpt>
<trkpt lat="35.032193" lon="136.432208">
<ele>928.000000</ele>
<time>2026-03-27T10:58:51Z</time>
<speed>0.000000</speed>
<trueHeading>0.000000</trueHeading>
<magneticHeading>0.000000</magneticHeading>
<gpsHeading>0.000000</gpsHeading>
<haccuracy>-1.000000</haccuracy>
<vaccuracy>-1.000000</vaccuracy>
<internetconnect>-1</internetconnect>
</trkpt>
<trkpt lat="35.032092" lon="136.432133">
<ele>934.000000</ele>
<time>2026-03-27T10:59:41Z</time>
<speed>0.000000</speed>
<trueHeading>0.000000</trueHeading>
<magneticHeading>0.000000</magneticHeading>
<gpsHeading>0.000000</gpsHeading>
<haccuracy>-1.000000</haccuracy>
<vaccuracy>-1.000000</vaccuracy>
<internetconnect>-1</internetconnect>
</trkpt>
<trkpt lat="35.032057" lon="136.432080">
<ele>939.000000</ele>
<time>2026-03-27T11:00:04Z</time>
<speed>0.000000</speed>
<trueHeading>0.000000</trueHeading>
<magneticHeading>0.000000</magneticHeading>
<gpsHeading>0.000000</gpsHeading>
<haccuracy>-1.000000</haccuracy>
<vaccuracy>-1.000000</vaccuracy>
<internetconnect>-1</internetconnect>
</trkpt>
<trkpt lat="35.032035" lon="136.432026">
<ele>941.000000</ele>
<time>2026-03-27T11:00:25Z</time>
<speed>0.000000</speed>
<trueHeading>0.000000</trueHeading>
<magneticHeading>0.000000</magneticHeading>
<gpsHeading>0.000000</gpsHeading>
<haccuracy>-1.000000</haccuracy>
<vaccuracy>-1.000000</vaccuracy>
<internetconnect>-1</internetconnect>
</trkpt>
<trkpt lat="35.032035" lon="136.431972">
<ele>944.000000</ele>
<time>2026-03-27T11:00:44Z</time>
<speed>0.000000</speed>
<trueHeading>0.000000</trueHeading>
<magneticHeading>0.000000</magneticHeading>
<gpsHeading>0.000000</gpsHeading>
<haccuracy>-1.000000</haccuracy>
<vaccuracy>-1.000000</vaccuracy>
<internetconnect>-1</internetconnect>
</trkpt>
<trkpt lat="35.032092" lon="136.431817">
<ele>958.000000</ele>
<time>2026-03-27T11:01:42Z</time>
<speed>0.000000</speed>
<trueHeading>0.000000</trueHeading>
<magneticHeading>0.000000</magneticHeading>
<gpsHeading>0.000000</gpsHeading>
<haccuracy>-1.000000</haccuracy>
<vaccuracy>-1.000000</vaccuracy>
<internetconnect>-1</internetconnect>
</trkpt>
<trkpt lat="35.032118" lon="136.431731">
<ele>959.000000</ele>
<time>2026-03-27T11:02:14Z</time>
<speed>0.000000</speed>
<trueHeading>0.000000</trueHeading>
<magneticHeading>0.000000</magneticHeading>
<gpsHeading>0.000000</gpsHeading>
<haccuracy>-1.000000</haccuracy>
<vaccuracy>-1.000000</vaccuracy>
<internetconnect>-1</internetconnect>
</trkpt>
<trkpt lat="35.032118" lon="136.431677">
<ele>961.000000</ele>
<time>2026-03-27T11:02:33Z</time>
<speed>0.000000</speed>
<trueHeading>0.000000</trueHeading>
<magneticHeading>0.000000</magneticHeading>
<gpsHeading>0.000000</gpsHeading>
<haccuracy>-1.000000</haccuracy>
<vaccuracy>-1.000000</vaccuracy>
<internetconnect>-1</internetconnect>
</trkpt>
<trkpt lat="35.032100" lon="136.431640">
<ele>965.000000</ele>
<time>2026-03-27T11:02:48Z</time>
<speed>0.000000</speed>
<trueHeading>0.000000</trueHeading>
<magneticHeading>0.000000</magneticHeading>
<gpsHeading>0.000000</gpsHeading>
<haccuracy>-1.000000</haccuracy>
<vaccuracy>-1.000000</vaccuracy>
<internetconnect>-1</internetconnect>
</trkpt>
<trkpt lat="35.032039" lon="136.431592">
<ele>968.000000</ele>
<time>2026-03-27T11:03:18Z</time>
<speed>0.000000</speed>
<trueHeading>0.000000</trueHeading>
<magneticHeading>0.000000</magneticHeading>
<gpsHeading>0.000000</gpsHeading>
<haccuracy>-1.000000</haccuracy>
<vaccuracy>-1.000000</vaccuracy>
<internetconnect>-1</internetconnect>
</trkpt>
<trkpt lat="35.032004" lon="136.431538">
<ele>970.000000</ele>
<time>2026-03-27T11:03:42Z</time>
<speed>0.000000</speed>
<trueHeading>0.000000</trueHeading>
<magneticHeading>0.000000</magneticHeading>
<gpsHeading>0.000000</gpsHeading>
<haccuracy>-1.000000</haccuracy>
<vaccuracy>-1.000000</vaccuracy>
<internetconnect>-1</internetconnect>
</trkpt>
<trkpt lat="35.031977" lon="136.431463">
<ele>977.000000</ele>
<time>2026-03-27T11:04:10Z</time>
<speed>0.000000</speed>
<trueHeading>0.000000</trueHeading>
<magneticHeading>0.000000</magneticHeading>
<gpsHeading>0.000000</gpsHeading>
<haccuracy>-1.000000</haccuracy>
<vaccuracy>-1.000000</vaccuracy>
<internetconnect>-1</internetconnect>
</trkpt>
<trkpt lat="35.031912" lon="136.431082">
<ele>990.000000</ele>
<time>2026-03-27T11:06:25Z</time>
<speed>0.000000</speed>
<trueHeading>0.000000</trueHeading>
<magneticHeading>0.000000</magneticHeading>
<gpsHeading>0.000000</gpsHeading>
<haccuracy>-1.000000</haccuracy>
<vaccuracy>-1.000000</vaccuracy>
<internetconnect>-1</internetconnect>
</trkpt>
<trkpt lat="35.031789" lon="136.430470">
<ele>1008.000000</ele>
<time>2026-03-27T11:10:02Z</time>
<speed>0.000000</speed>
<trueHeading>0.000000</trueHeading>
<magneticHeading>0.000000</magneticHeading>
<gpsHeading>0.000000</gpsHeading>
<haccuracy>-1.000000</haccuracy>
<vaccuracy>-1.000000</vaccuracy>
<internetconnect>-1</internetconnect>
</trkpt>
<trkpt lat="35.031745" lon="136.430165">
<ele>1013.000000</ele>
<time>2026-03-27T11:11:49Z</time>
<speed>0.000000</speed>
<trueHeading>0.000000</trueHeading>
<magneticHeading>0.000000</magneticHeading>
<gpsHeading>0.000000</gpsHeading>
<haccuracy>-1.000000</haccuracy>
<vaccuracy>-1.000000</vaccuracy>
<internetconnect>-1</internetconnect>
</trkpt>
<trkpt lat="35.031740" lon="136.430089">
<ele>1013.000000</ele>
<time>2026-03-27T11:12:15Z</time>
<speed>0.000000</speed>
<trueHeading>0.000000</trueHeading>
<magneticHeading>0.000000</magneticHeading>
<gpsHeading>0.000000</gpsHeading>
<haccuracy>-1.000000</haccuracy>
<vaccuracy>-1.000000</vaccuracy>
<internetconnect>-1</internetconnect>
</trkpt>
<trkpt lat="35.031705" lon="136.429832">
<ele>1018.000000</ele>
<time>2026-03-27T11:13:46Z</time>
<speed>0.000000</speed>
<trueHeading>0.000000</trueHeading>
<magneticHeading>0.000000</magneticHeading>
<gpsHeading>0.000000</gpsHeading>
<haccuracy>-1.000000</haccuracy>
<vaccuracy>-1.000000</vaccuracy>
<internetconnect>-1</internetconnect>
</trkpt>
<trkpt lat="35.031648" lon="136.429564">
<ele>1029.000000</ele>
<time>2026-03-27T11:15:21Z</time>
<speed>0.000000</speed>
<trueHeading>0.000000</trueHeading>
<magneticHeading>0.000000</magneticHeading>
<gpsHeading>0.000000</gpsHeading>
<haccuracy>-1.000000</haccuracy>
<vaccuracy>-1.000000</vaccuracy>
<internetconnect>-1</internetconnect>
</trkpt>
<trkpt lat="35.031608" lon="136.429333">
<ele>1037.000000</ele>
<time>2026-03-27T11:16:43Z</time>
<speed>0.000000</speed>
<trueHeading>0.000000</trueHeading>
<magneticHeading>0.000000</magneticHeading>
<gpsHeading>0.000000</gpsHeading>
<haccuracy>-1.000000</haccuracy>
<vaccuracy>-1.000000</vaccuracy>
<internetconnect>-1</internetconnect>
</trkpt>
<trkpt lat="35.031586" lon="136.429102">
<ele>1044.000000</ele>
<time>2026-03-27T11:18:03Z</time>
<speed>0.000000</speed>
<trueHeading>0.000000</trueHeading>
<magneticHeading>0.000000</magneticHeading>
<gpsHeading>0.000000</gpsHeading>
<haccuracy>-1.000000</haccuracy>
<vaccuracy>-1.000000</vaccuracy>
<internetconnect>-1</internetconnect>
</trkpt>
<trkpt lat="35.031586" lon="136.428443">
<ele>1050.000000</ele>
<time>2026-03-27T11:21:51Z</time>
<speed>0.000000</speed>
<trueHeading>0.000000</trueHeading>
<magneticHeading>0.000000</magneticHeading>
<gpsHeading>0.000000</gpsHeading>
<haccuracy>-1.000000</haccuracy>
<vaccuracy>-1.000000</vaccuracy>
<internetconnect>-1</internetconnect>
</trkpt>
<trkpt lat="35.031582" lon="136.427901">
<ele>1056.000000</ele>
<time>2026-03-27T11:24:58Z</time>
<speed>0.000000</speed>
<trueHeading>0.000000</trueHeading>
<magneticHeading>0.000000</magneticHeading>
<gpsHeading>0.000000</gpsHeading>
<haccuracy>-1.000000</haccuracy>
<vaccuracy>-1.000000</vaccuracy>
<internetconnect>-1</internetconnect>
</trkpt>
<trkpt lat="35.031556" lon="136.427590">
<ele>1066.000000</ele>
<time>2026-03-27T11:26:46Z</time>
<speed>0.000000</speed>
<trueHeading>0.000000</trueHeading>
<magneticHeading>0.000000</magneticHeading>
<gpsHeading>0.000000</gpsHeading>
<haccuracy>-1.000000</haccuracy>
<vaccuracy>-1.000000</vaccuracy>
<internetconnect>-1</internetconnect>
</trkpt>
<trkpt lat="35.031507" lon="136.427338">
<ele>1070.000000</ele>
<time>2026-03-27T11:28:15Z</time>
<speed>0.000000</speed>
<trueHeading>0.000000</trueHeading>
<magneticHeading>0.000000</magneticHeading>
<gpsHeading>0.000000</gpsHeading>
<haccuracy>-1.000000</haccuracy>
<vaccuracy>-1.000000</vaccuracy>
<internetconnect>-1</internetconnect>
</trkpt>
<trkpt lat="35.031450" lon="136.427155">
<ele>1071.000000</ele>
<time>2026-03-27T11:29:23Z</time>
<speed>0.000000</speed>
<trueHeading>0.000000</trueHeading>
<magneticHeading>0.000000</magneticHeading>
<gpsHeading>0.000000</gpsHeading>
<haccuracy>-1.000000</haccuracy>
<vaccuracy>-1.000000</vaccuracy>
<internetconnect>-1</internetconnect>
</trkpt>
<trkpt lat="35.031384" lon="136.427032">
<ele>1072.000000</ele>
<time>2026-03-27T11:30:14Z</time>
<speed>0.000000</speed>
<trueHeading>0.000000</trueHeading>
<magneticHeading>0.000000</magneticHeading>
<gpsHeading>0.000000</gpsHeading>
<haccuracy>-1.000000</haccuracy>
<vaccuracy>-1.000000</vaccuracy>
<internetconnect>-1</internetconnect>
</trkpt>
<trkpt lat="35.031384" lon="136.427032">
<ele>1072.000000</ele>
<time>2026-03-27T11:30:14Z</time>
<speed>0.000000</speed>
<trueHeading>0.000000</trueHeading>
<magneticHeading>0.000000</magneticHeading>
<gpsHeading>0.000000</gpsHeading>
<haccuracy>-1.000000</haccuracy>
<vaccuracy>-1.000000</vaccuracy>
<internetconnect>-1</internetconnect>
</trkpt>
<trkpt lat="35.031345" lon="136.426983">
<ele>1072.000000</ele>
<time>2026-03-27T11:30:37Z</time>
<speed>0.000000</speed>
<trueHeading>0.000000</trueHeading>
<magneticHeading>0.000000</magneticHeading>
<gpsHeading>0.000000</gpsHeading>
<haccuracy>-1.000000</haccuracy>
<vaccuracy>-1.000000</vaccuracy>
<internetconnect>-1</internetconnect>
</trkpt>
<trkpt lat="35.031257" lon="136.426865">
<ele>1072.000000</ele>
<time>2026-03-27T11:31:32Z</time>
<speed>0.000000</speed>
<trueHeading>0.000000</trueHeading>
<magneticHeading>0.000000</magneticHeading>
<gpsHeading>0.000000</gpsHeading>
<haccuracy>-1.000000</haccuracy>
<vaccuracy>-1.000000</vaccuracy>
<internetconnect>-1</internetconnect>
</trkpt>
<trkpt lat="35.031147" lon="136.426742">
<ele>1073.000000</ele>
<time>2026-03-27T11:32:35Z</time>
<speed>0.000000</speed>
<trueHeading>0.000000</trueHeading>
<magneticHeading>0.000000</magneticHeading>
<gpsHeading>0.000000</gpsHeading>
<haccuracy>-1.000000</haccuracy>
<vaccuracy>-1.000000</vaccuracy>
<internetconnect>-1</internetconnect>
</trkpt>
<trkpt lat="35.030980" lon="136.426603">
<ele>1070.000000</ele>
<time>2026-03-27T11:34:00Z</time>
<speed>0.000000</speed>
<trueHeading>0.000000</trueHeading>
<magneticHeading>0.000000</magneticHeading>
<gpsHeading>0.000000</gpsHeading>
<haccuracy>-1.000000</haccuracy>
<vaccuracy>-1.000000</vaccuracy>
<internetconnect>-1</internetconnect>
</trkpt>
<trkpt lat="35.030892" lon="136.426511">
<ele>1067.000000</ele>
<time>2026-03-27T11:34:49Z</time>
<speed>0.000000</speed>
<trueHeading>0.000000</trueHeading>
<magneticHeading>0.000000</magneticHeading>
<gpsHeading>0.000000</gpsHeading>
<haccuracy>-1.000000</haccuracy>
<vaccuracy>-1.000000</vaccuracy>
<internetconnect>-1</internetconnect>
</trkpt>
<trkpt lat="35.030822" lon="136.426404">
<ele>1068.000000</ele>
<time>2026-03-27T11:35:36Z</time>
<speed>0.000000</speed>
<trueHeading>0.000000</trueHeading>
<magneticHeading>0.000000</magneticHeading>
<gpsHeading>0.000000</gpsHeading>
<haccuracy>-1.000000</haccuracy>
<vaccuracy>-1.000000</vaccuracy>
<internetconnect>-1</internetconnect>
</trkpt>
<trkpt lat="35.030769" lon="136.426275">
<ele>1071.000000</ele>
<time>2026-03-27T11:36:26Z</time>
<speed>0.000000</speed>
<trueHeading>0.000000</trueHeading>
<magneticHeading>0.000000</magneticHeading>
<gpsHeading>0.000000</gpsHeading>
<haccuracy>-1.000000</haccuracy>
<vaccuracy>-1.000000</vaccuracy>
<internetconnect>-1</internetconnect>
</trkpt>
<trkpt lat="35.030739" lon="136.426147">
<ele>1075.000000</ele>
<time>2026-03-27T11:37:12Z</time>
<speed>0.000000</speed>
<trueHeading>0.000000</trueHeading>
<magneticHeading>0.000000</magneticHeading>
<gpsHeading>0.000000</gpsHeading>
<haccuracy>-1.000000</haccuracy>
<vaccuracy>-1.000000</vaccuracy>
<internetconnect>-1</internetconnect>
</trkpt>
<trkpt lat="35.030734" lon="136.425986">
<ele>1077.000000</ele>
<time>2026-03-27T11:38:08Z</time>
<speed>0.000000</speed>
<trueHeading>0.000000</trueHeading>
<magneticHeading>0.000000</magneticHeading>
<gpsHeading>0.000000</gpsHeading>
<haccuracy>-1.000000</haccuracy>
<vaccuracy>-1.000000</vaccuracy>
<internetconnect>-1</internetconnect>
</trkpt>
<trkpt lat="35.030765" lon="136.425637">
<ele>1079.000000</ele>
<time>2026-03-27T11:40:09Z</time>
<speed>0.000000</speed>
<trueHeading>0.000000</trueHeading>
<magneticHeading>0.000000</magneticHeading>
<gpsHeading>0.000000</gpsHeading>
<haccuracy>-1.000000</haccuracy>
<vaccuracy>-1.000000</vaccuracy>
<internetconnect>-1</internetconnect>
</trkpt>
<trkpt lat="35.030765" lon="136.425444">
<ele>1082.000000</ele>
<time>2026-03-27T11:41:15Z</time>
<speed>0.000000</speed>
<trueHeading>0.000000</trueHeading>
<magneticHeading>0.000000</magneticHeading>
<gpsHeading>0.000000</gpsHeading>
<haccuracy>-1.000000</haccuracy>
<vaccuracy>-1.000000</vaccuracy>
<internetconnect>-1</internetconnect>
</trkpt>
<trkpt lat="35.030756" lon="136.425337">
<ele>1082.000000</ele>
<time>2026-03-27T11:41:53Z</time>
<speed>0.000000</speed>
<trueHeading>0.000000</trueHeading>
<magneticHeading>0.000000</magneticHeading>
<gpsHeading>0.000000</gpsHeading>
<haccuracy>-1.000000</haccuracy>
<vaccuracy>-1.000000</vaccuracy>
<internetconnect>-1</internetconnect>
</trkpt>
<trkpt lat="35.030734" lon="136.425229">
<ele>1083.000000</ele>
<time>2026-03-27T11:42:31Z</time>
<speed>0.000000</speed>
<trueHeading>0.000000</trueHeading>
<magneticHeading>0.000000</magneticHeading>
<gpsHeading>0.000000</gpsHeading>
<haccuracy>-1.000000</haccuracy>
<vaccuracy>-1.000000</vaccuracy>
<internetconnect>-1</internetconnect>
</trkpt>
<trkpt lat="35.030690" lon="136.425101">
<ele>1084.000000</ele>
<time>2026-03-27T11:43:19Z</time>
<speed>0.000000</speed>
<trueHeading>0.000000</trueHeading>
<magneticHeading>0.000000</magneticHeading>
<gpsHeading>0.000000</gpsHeading>
<haccuracy>-1.000000</haccuracy>
<vaccuracy>-1.000000</vaccuracy>
<internetconnect>-1</internetconnect>
</trkpt>
<trkpt lat="35.030629" lon="136.424972">
<ele>1085.000000</ele>
<time>2026-03-27T11:44:10Z</time>
<speed>0.000000</speed>
<trueHeading>0.000000</trueHeading>
<magneticHeading>0.000000</magneticHeading>
<gpsHeading>0.000000</gpsHeading>
<haccuracy>-1.000000</haccuracy>
<vaccuracy>-1.000000</vaccuracy>
<internetconnect>-1</internetconnect>
</trkpt>
<trkpt lat="35.030497" lon="136.424709">
<ele>1084.000000</ele>
<time>2026-03-27T11:45:57Z</time>
<speed>0.000000</speed>
<trueHeading>0.000000</trueHeading>
<magneticHeading>0.000000</magneticHeading>
<gpsHeading>0.000000</gpsHeading>
<haccuracy>-1.000000</haccuracy>
<vaccuracy>-1.000000</vaccuracy>
<internetconnect>-1</internetconnect>
</trkpt>
<trkpt lat="35.030370" lon="136.424510">
<ele>1079.000000</ele>
<time>2026-03-27T11:47:24Z</time>
<speed>0.000000</speed>
<trueHeading>0.000000</trueHeading>
<magneticHeading>0.000000</magneticHeading>
<gpsHeading>0.000000</gpsHeading>
<haccuracy>-1.000000</haccuracy>
<vaccuracy>-1.000000</vaccuracy>
<internetconnect>-1</internetconnect>
</trkpt>
<trkpt lat="35.030295" lon="136.424371">
<ele>1080.000000</ele>
<time>2026-03-27T11:48:21Z</time>
<speed>0.000000</speed>
<trueHeading>0.000000</trueHeading>
<magneticHeading>0.000000</magneticHeading>
<gpsHeading>0.000000</gpsHeading>
<haccuracy>-1.000000</haccuracy>
<vaccuracy>-1.000000</vaccuracy>
<internetconnect>-1</internetconnect>
</trkpt>
<trkpt lat="35.030238" lon="136.424269">
<ele>1084.000000</ele>
<time>2026-03-27T11:49:04Z</time>
<speed>0.000000</speed>
<trueHeading>0.000000</trueHeading>
<magneticHeading>0.000000</magneticHeading>
<gpsHeading>0.000000</gpsHeading>
<haccuracy>-1.000000</haccuracy>
<vaccuracy>-1.000000</vaccuracy>
<internetconnect>-1</internetconnect>
</trkpt>
<trkpt lat="35.030181" lon="136.424205">
<ele>1085.000000</ele>
<time>2026-03-27T11:49:37Z</time>
<speed>0.000000</speed>
<trueHeading>0.000000</trueHeading>
<magneticHeading>0.000000</magneticHeading>
<gpsHeading>0.000000</gpsHeading>
<haccuracy>-1.000000</haccuracy>
<vaccuracy>-1.000000</vaccuracy>
<internetconnect>-1</internetconnect>
</trkpt>
<trkpt lat="35.030106" lon="136.424167">
<ele>1085.000000</ele>
<time>2026-03-27T11:50:10Z</time>
<speed>0.000000</speed>
<trueHeading>0.000000</trueHeading>
<magneticHeading>0.000000</magneticHeading>
<gpsHeading>0.000000</gpsHeading>
<haccuracy>-1.000000</haccuracy>
<vaccuracy>-1.000000</vaccuracy>
<internetconnect>-1</internetconnect>
</trkpt>
<trkpt lat="35.030001" lon="136.424156">
<ele>1082.000000</ele>
<time>2026-03-27T11:50:55Z</time>
<speed>0.000000</speed>
<trueHeading>0.000000</trueHeading>
<magneticHeading>0.000000</magneticHeading>
<gpsHeading>0.000000</gpsHeading>
<haccuracy>-1.000000</haccuracy>
<vaccuracy>-1.000000</vaccuracy>
<internetconnect>-1</internetconnect>
</trkpt>
<trkpt lat="35.029926" lon="136.424167">
<ele>1080.000000</ele>
<time>2026-03-27T11:51:26Z</time>
<speed>0.000000</speed>
<trueHeading>0.000000</trueHeading>
<magneticHeading>0.000000</magneticHeading>
<gpsHeading>0.000000</gpsHeading>
<haccuracy>-1.000000</haccuracy>
<vaccuracy>-1.000000</vaccuracy>
<internetconnect>-1</internetconnect>
</trkpt>
<trkpt lat="35.029856" lon="136.424210">
<ele>1080.000000</ele>
<time>2026-03-27T11:52:00Z</time>
<speed>0.000000</speed>
<trueHeading>0.000000</trueHeading>
<magneticHeading>0.000000</magneticHeading>
<gpsHeading>0.000000</gpsHeading>
<haccuracy>-1.000000</haccuracy>
<vaccuracy>-1.000000</vaccuracy>
<internetconnect>-1</internetconnect>
</trkpt>
<trkpt lat="35.029834" lon="136.424269">
<ele>1080.000000</ele>
<time>2026-03-27T11:52:00Z</time>
<speed>0.000000</speed>
<trueHeading>0.000000</trueHeading>
<magneticHeading>0.000000</magneticHeading>
<gpsHeading>0.000000</gpsHeading>
<haccuracy>-1.000000</haccuracy>
<vaccuracy>-1.000000</vaccuracy>
<internetconnect>-1</internetconnect>
</trkpt>
<trkpt lat="35.029772" lon="136.424403">
<ele>1081.000000</ele>
<time>2026-03-27T11:52:45Z</time>
<speed>0.000000</speed>
<trueHeading>0.000000</trueHeading>
<magneticHeading>0.000000</magneticHeading>
<gpsHeading>0.000000</gpsHeading>
<haccuracy>-1.000000</haccuracy>
<vaccuracy>-1.000000</vaccuracy>
<internetconnect>-1</internetconnect>
</trkpt>
<trkpt lat="35.029711" lon="136.424489">
<ele>1080.000000</ele>
<time>2026-03-27T11:53:18Z</time>
<speed>0.000000</speed>
<trueHeading>0.000000</trueHeading>
<magneticHeading>0.000000</magneticHeading>
<gpsHeading>0.000000</gpsHeading>
<haccuracy>-1.000000</haccuracy>
<vaccuracy>-1.000000</vaccuracy>
<internetconnect>-1</internetconnect>
</trkpt>
<trkpt lat="35.029645" lon="136.424553">
<ele>1079.000000</ele>
<time>2026-03-27T11:53:48Z</time>
<speed>0.000000</speed>
<trueHeading>0.000000</trueHeading>
<magneticHeading>0.000000</magneticHeading>
<gpsHeading>0.000000</gpsHeading>
<haccuracy>-1.000000</haccuracy>
<vaccuracy>-1.000000</vaccuracy>
<internetconnect>-1</internetconnect>
</trkpt>
<trkpt lat="35.029579" lon="136.424591">
<ele>1079.000000</ele>
<time>2026-03-27T11:54:14Z</time>
<speed>0.000000</speed>
<trueHeading>0.000000</trueHeading>
<magneticHeading>0.000000</magneticHeading>
<gpsHeading>0.000000</gpsHeading>
<haccuracy>-1.000000</haccuracy>
<vaccuracy>-1.000000</vaccuracy>
<internetconnect>-1</internetconnect>
</trkpt>
<trkpt lat="35.029500" lon="136.424612">
<ele>1081.000000</ele>
<time>2026-03-27T11:54:43Z</time>
<speed>0.000000</speed>
<trueHeading>0.000000</trueHeading>
<magneticHeading>0.000000</magneticHeading>
<gpsHeading>0.000000</gpsHeading>
<haccuracy>-1.000000</haccuracy>
<vaccuracy>-1.000000</vaccuracy>
<internetconnect>-1</internetconnect>
</trkpt>
<trkpt lat="35.029390" lon="136.424628">
<ele>1087.000000</ele>
<time>2026-03-27T11:55:22Z</time>
<speed>0.000000</speed>
<trueHeading>0.000000</trueHeading>
<magneticHeading>0.000000</magneticHeading>
<gpsHeading>0.000000</gpsHeading>
<haccuracy>-1.000000</haccuracy>
<vaccuracy>-1.000000</vaccuracy>
<internetconnect>-1</internetconnect>
</trkpt>
<trkpt lat="35.029258" lon="136.424645">
<ele>1092.000000</ele>
<time>2026-03-27T11:56:09Z</time>
<speed>0.000000</speed>
<trueHeading>0.000000</trueHeading>
<magneticHeading>0.000000</magneticHeading>
<gpsHeading>0.000000</gpsHeading>
<haccuracy>-1.000000</haccuracy>
<vaccuracy>-1.000000</vaccuracy>
<internetconnect>-1</internetconnect>
</trkpt>
<trkpt lat="35.029193" lon="136.424645">
<ele>1097.000000</ele>
<time>2026-03-27T11:56:33Z</time>
<speed>0.000000</speed>
<trueHeading>0.000000</trueHeading>
<magneticHeading>0.000000</magneticHeading>
<gpsHeading>0.000000</gpsHeading>
<haccuracy>-1.000000</haccuracy>
<vaccuracy>-1.000000</vaccuracy>
<internetconnect>-1</internetconnect>
</trkpt>
<trkpt lat="35.029149" lon="136.424623">
<ele>1102.000000</ele>
<time>2026-03-27T11:56:50Z</time>
<speed>0.000000</speed>
<trueHeading>0.000000</trueHeading>
<magneticHeading>0.000000</magneticHeading>
<gpsHeading>0.000000</gpsHeading>
<haccuracy>-1.000000</haccuracy>
<vaccuracy>-1.000000</vaccuracy>
<internetconnect>-1</internetconnect>
</trkpt>
<trkpt lat="35.029130" lon="136.424598">
<ele>1101.000000</ele>
<time>2026-03-27T11:57:00Z</time>
<speed>0.000000</speed>
<trueHeading>0.000000</trueHeading>
<magneticHeading>0.000000</magneticHeading>
<gpsHeading>0.000000</gpsHeading>
<haccuracy>-1.000000</haccuracy>
<vaccuracy>-1.000000</vaccuracy>
<internetconnect>-1</internetconnect>
</trkpt>
<trkpt lat="35.029105" lon="136.424564">
<ele>1100.000000</ele>
<time>2026-03-27T11:57:00Z</time>
<speed>0.000000</speed>
<trueHeading>0.000000</trueHeading>
<magneticHeading>0.000000</magneticHeading>
<gpsHeading>0.000000</gpsHeading>
<haccuracy>-1.000000</haccuracy>
<vaccuracy>-1.000000</vaccuracy>
<internetconnect>-1</internetconnect>
</trkpt>
<trkpt lat="35.029026" lon="136.424355">
<ele>1096.000000</ele>
<time>2026-03-27T11:58:02Z</time>
<speed>0.000000</speed>
<trueHeading>0.000000</trueHeading>
<magneticHeading>0.000000</magneticHeading>
<gpsHeading>0.000000</gpsHeading>
<haccuracy>-1.000000</haccuracy>
<vaccuracy>-1.000000</vaccuracy>
<internetconnect>-1</internetconnect>
</trkpt>
<trkpt lat="35.028977" lon="136.424264">
<ele>1094.000000</ele>
<time>2026-03-27T11:58:32Z</time>
<speed>0.000000</speed>
<trueHeading>0.000000</trueHeading>
<magneticHeading>0.000000</magneticHeading>
<gpsHeading>0.000000</gpsHeading>
<haccuracy>-1.000000</haccuracy>
<vaccuracy>-1.000000</vaccuracy>
<internetconnect>-1</internetconnect>
</trkpt>
<trkpt lat="35.028933" lon="136.424221">
<ele>1093.000000</ele>
<time>2026-03-27T11:58:50Z</time>
<speed>0.000000</speed>
<trueHeading>0.000000</trueHeading>
<magneticHeading>0.000000</magneticHeading>
<gpsHeading>0.000000</gpsHeading>
<haccuracy>-1.000000</haccuracy>
<vaccuracy>-1.000000</vaccuracy>
<internetconnect>-1</internetconnect>
</trkpt>
<trkpt lat="35.028898" lon="136.424199">
<ele>1093.000000</ele>
<time>2026-03-27T11:59:03Z</time>
<speed>0.000000</speed>
<trueHeading>0.000000</trueHeading>
<magneticHeading>0.000000</magneticHeading>
<gpsHeading>0.000000</gpsHeading>
<haccuracy>-1.000000</haccuracy>
<vaccuracy>-1.000000</vaccuracy>
<internetconnect>-1</internetconnect>
</trkpt>
<trkpt lat="35.028859" lon="136.424199">
<ele>1092.000000</ele>
<time>2026-03-27T11:59:16Z</time>
<speed>0.000000</speed>
<trueHeading>0.000000</trueHeading>
<magneticHeading>0.000000</magneticHeading>
<gpsHeading>0.000000</gpsHeading>
<haccuracy>-1.000000</haccuracy>
<vaccuracy>-1.000000</vaccuracy>
<internetconnect>-1</internetconnect>
</trkpt>
<trkpt lat="35.028788" lon="136.424210">
<ele>1092.000000</ele>
<time>2026-03-27T11:59:40Z</time>
<speed>0.000000</speed>
<trueHeading>0.000000</trueHeading>
<magneticHeading>0.000000</magneticHeading>
<gpsHeading>0.000000</gpsHeading>
<haccuracy>-1.000000</haccuracy>
<vaccuracy>-1.000000</vaccuracy>
<internetconnect>-1</internetconnect>
</trkpt>
<trkpt lat="35.028705" lon="136.424226">
<ele>1091.000000</ele>
<time>2026-03-27T12:00:08Z</time>
<speed>0.000000</speed>
<trueHeading>0.000000</trueHeading>
<magneticHeading>0.000000</magneticHeading>
<gpsHeading>0.000000</gpsHeading>
<haccuracy>-1.000000</haccuracy>
<vaccuracy>-1.000000</vaccuracy>
<internetconnect>-1</internetconnect>
</trkpt>
<trkpt lat="35.028639" lon="136.424221">
<ele>1089.000000</ele>
<time>2026-03-27T12:00:29Z</time>
<speed>0.000000</speed>
<trueHeading>0.000000</trueHeading>
<magneticHeading>0.000000</magneticHeading>
<gpsHeading>0.000000</gpsHeading>
<haccuracy>-1.000000</haccuracy>
<vaccuracy>-1.000000</vaccuracy>
<internetconnect>-1</internetconnect>
</trkpt>
<trkpt lat="35.028586" lon="136.424194">
<ele>1087.000000</ele>
<time>2026-03-27T12:00:48Z</time>
<speed>0.000000</speed>
<trueHeading>0.000000</trueHeading>
<magneticHeading>0.000000</magneticHeading>
<gpsHeading>0.000000</gpsHeading>
<haccuracy>-1.000000</haccuracy>
<vaccuracy>-1.000000</vaccuracy>
<internetconnect>-1</internetconnect>
</trkpt>
<trkpt lat="35.028542" lon="136.424151">
<ele>1088.000000</ele>
<time>2026-03-27T12:01:07Z</time>
<speed>0.000000</speed>
<trueHeading>0.000000</trueHeading>
<magneticHeading>0.000000</magneticHeading>
<gpsHeading>0.000000</gpsHeading>
<haccuracy>-1.000000</haccuracy>
<vaccuracy>-1.000000</vaccuracy>
<internetconnect>-1</internetconnect>
</trkpt>
<trkpt lat="35.028507" lon="136.424087">
<ele>1089.000000</ele>
<time>2026-03-27T12:01:28Z</time>
<speed>0.000000</speed>
<trueHeading>0.000000</trueHeading>
<magneticHeading>0.000000</magneticHeading>
<gpsHeading>0.000000</gpsHeading>
<haccuracy>-1.000000</haccuracy>
<vaccuracy>-1.000000</vaccuracy>
<internetconnect>-1</internetconnect>
</trkpt>
<trkpt lat="35.028472" lon="136.424001">
<ele>1091.000000</ele>
<time>2026-03-27T12:01:54Z</time>
<speed>0.000000</speed>
<trueHeading>0.000000</trueHeading>
<magneticHeading>0.000000</magneticHeading>
<gpsHeading>0.000000</gpsHeading>
<haccuracy>-1.000000</haccuracy>
<vaccuracy>-1.000000</vaccuracy>
<internetconnect>-1</internetconnect>
</trkpt>
<trkpt lat="35.028415" lon="136.423813">
<ele>1094.000000</ele>
<time>2026-03-27T12:02:48Z</time>
<speed>0.000000</speed>
<trueHeading>0.000000</trueHeading>
<magneticHeading>0.000000</magneticHeading>
<gpsHeading>0.000000</gpsHeading>
<haccuracy>-1.000000</haccuracy>
<vaccuracy>-1.000000</vaccuracy>
<internetconnect>-1</internetconnect>
</trkpt>
<trkpt lat="35.028367" lon="136.423695">
<ele>1095.000000</ele>
<time>2026-03-27T12:03:24Z</time>
<speed>0.000000</speed>
<trueHeading>0.000000</trueHeading>
<magneticHeading>0.000000</magneticHeading>
<gpsHeading>0.000000</gpsHeading>
<haccuracy>-1.000000</haccuracy>
<vaccuracy>-1.000000</vaccuracy>
<internetconnect>-1</internetconnect>
</trkpt>
<trkpt lat="35.028314" lon="136.423599">
<ele>1096.000000</ele>
<time>2026-03-27T12:03:56Z</time>
<speed>0.000000</speed>
<trueHeading>0.000000</trueHeading>
<magneticHeading>0.000000</magneticHeading>
<gpsHeading>0.000000</gpsHeading>
<haccuracy>-1.000000</haccuracy>
<vaccuracy>-1.000000</vaccuracy>
<internetconnect>-1</internetconnect>
</trkpt>
<trkpt lat="35.028266" lon="136.423518">
<ele>1100.000000</ele>
<time>2026-03-27T12:04:23Z</time>
<speed>0.000000</speed>
<trueHeading>0.000000</trueHeading>
<magneticHeading>0.000000</magneticHeading>
<gpsHeading>0.000000</gpsHeading>
<haccuracy>-1.000000</haccuracy>
<vaccuracy>-1.000000</vaccuracy>
<internetconnect>-1</internetconnect>
</trkpt>
<trkpt lat="35.028226" lon="136.423438">
<ele>1103.000000</ele>
<time>2026-03-27T12:04:48Z</time>
<speed>0.000000</speed>
<trueHeading>0.000000</trueHeading>
<magneticHeading>0.000000</magneticHeading>
<gpsHeading>0.000000</gpsHeading>
<haccuracy>-1.000000</haccuracy>
<vaccuracy>-1.000000</vaccuracy>
<internetconnect>-1</internetconnect>
</trkpt>
<trkpt lat="35.028191" lon="136.423320">
<ele>1106.000000</ele>
<time>2026-03-27T12:05:22Z</time>
<speed>0.000000</speed>
<trueHeading>0.000000</trueHeading>
<magneticHeading>0.000000</magneticHeading>
<gpsHeading>0.000000</gpsHeading>
<haccuracy>-1.000000</haccuracy>
<vaccuracy>-1.000000</vaccuracy>
<internetconnect>-1</internetconnect>
</trkpt>
<trkpt lat="35.028156" lon="136.423153">
<ele>1103.000000</ele>
<time>2026-03-27T12:06:09Z</time>
<speed>0.000000</speed>
<trueHeading>0.000000</trueHeading>
<magneticHeading>0.000000</magneticHeading>
<gpsHeading>0.000000</gpsHeading>
<haccuracy>-1.000000</haccuracy>
<vaccuracy>-1.000000</vaccuracy>
<internetconnect>-1</internetconnect>
</trkpt>
<trkpt lat="35.028125" lon="136.423046">
<ele>1103.000000</ele>
<time>2026-03-27T12:06:40Z</time>
<speed>0.000000</speed>
<trueHeading>0.000000</trueHeading>
<magneticHeading>0.000000</magneticHeading>
<gpsHeading>0.000000</gpsHeading>
<haccuracy>-1.000000</haccuracy>
<vaccuracy>-1.000000</vaccuracy>
<internetconnect>-1</internetconnect>
</trkpt>
<trkpt lat="35.028077" lon="136.422949">
<ele>1104.000000</ele>
<time>2026-03-27T12:07:11Z</time>
<speed>0.000000</speed>
<trueHeading>0.000000</trueHeading>
<magneticHeading>0.000000</magneticHeading>
<gpsHeading>0.000000</gpsHeading>
<haccuracy>-1.000000</haccuracy>
<vaccuracy>-1.000000</vaccuracy>
<internetconnect>-1</internetconnect>
</trkpt>
<trkpt lat="35.028006" lon="136.422885">
<ele>1105.000000</ele>
<time>2026-03-27T12:07:40Z</time>
<speed>0.000000</speed>
<trueHeading>0.000000</trueHeading>
<magneticHeading>0.000000</magneticHeading>
<gpsHeading>0.000000</gpsHeading>
<haccuracy>-1.000000</haccuracy>
<vaccuracy>-1.000000</vaccuracy>
<internetconnect>-1</internetconnect>
</trkpt>
<trkpt lat="35.027927" lon="136.422842">
<ele>1107.000000</ele>
<time>2026-03-27T12:08:08Z</time>
<speed>0.000000</speed>
<trueHeading>0.000000</trueHeading>
<magneticHeading>0.000000</magneticHeading>
<gpsHeading>0.000000</gpsHeading>
<haccuracy>-1.000000</haccuracy>
<vaccuracy>-1.000000</vaccuracy>
<internetconnect>-1</internetconnect>
</trkpt>
<trkpt lat="35.027848" lon="136.422815">
<ele>1110.000000</ele>
<time>2026-03-27T12:08:36Z</time>
<speed>0.000000</speed>
<trueHeading>0.000000</trueHeading>
<magneticHeading>0.000000</magneticHeading>
<gpsHeading>0.000000</gpsHeading>
<haccuracy>-1.000000</haccuracy>
<vaccuracy>-1.000000</vaccuracy>
<internetconnect>-1</internetconnect>
</trkpt>
<trkpt lat="35.027734" lon="136.422794">
<ele>1115.000000</ele>
<time>2026-03-27T12:09:14Z</time>
<speed>0.000000</speed>
<trueHeading>0.000000</trueHeading>
<magneticHeading>0.000000</magneticHeading>
<gpsHeading>0.000000</gpsHeading>
<haccuracy>-1.000000</haccuracy>
<vaccuracy>-1.000000</vaccuracy>
<internetconnect>-1</internetconnect>
</trkpt>
<trkpt lat="35.027563" lon="136.422751">
<ele>1125.000000</ele>
<time>2026-03-27T12:10:12Z</time>
<speed>0.000000</speed>
<trueHeading>0.000000</trueHeading>
<magneticHeading>0.000000</magneticHeading>
<gpsHeading>0.000000</gpsHeading>
<haccuracy>-1.000000</haccuracy>
<vaccuracy>-1.000000</vaccuracy>
<internetconnect>-1</internetconnect>
</trkpt>
<trkpt lat="35.027431" lon="136.422687">
<ele>1130.000000</ele>
<time>2026-03-27T12:10:58Z</time>
<speed>0.000000</speed>
<trueHeading>0.000000</trueHeading>
<magneticHeading>0.000000</magneticHeading>
<gpsHeading>0.000000</gpsHeading>
<haccuracy>-1.000000</haccuracy>
<vaccuracy>-1.000000</vaccuracy>
<internetconnect>-1</internetconnect>
</trkpt>
<trkpt lat="35.027295" lon="136.422601">
<ele>1135.000000</ele>
<time>2026-03-27T12:11:49Z</time>
<speed>0.000000</speed>
<trueHeading>0.000000</trueHeading>
<magneticHeading>0.000000</magneticHeading>
<gpsHeading>0.000000</gpsHeading>
<haccuracy>-1.000000</haccuracy>
<vaccuracy>-1.000000</vaccuracy>
<internetconnect>-1</internetconnect>
</trkpt>
<trkpt lat="35.027071" lon="136.422413">
<ele>1144.000000</ele>
<time>2026-03-27T12:13:19Z</time>
<speed>0.000000</speed>
<trueHeading>0.000000</trueHeading>
<magneticHeading>0.000000</magneticHeading>
<gpsHeading>0.000000</gpsHeading>
<haccuracy>-1.000000</haccuracy>
<vaccuracy>-1.000000</vaccuracy>
<internetconnect>-1</internetconnect>
</trkpt>
<trkpt lat="35.026939" lon="136.422306">
<ele>1152.000000</ele>
<time>2026-03-27T12:14:12Z</time>
<speed>0.000000</speed>
<trueHeading>0.000000</trueHeading>
<magneticHeading>0.000000</magneticHeading>
<gpsHeading>0.000000</gpsHeading>
<haccuracy>-1.000000</haccuracy>
<vaccuracy>-1.000000</vaccuracy>
<internetconnect>-1</internetconnect>
</trkpt>
<trkpt lat="35.026847" lon="136.422236">
<ele>1156.000000</ele>
<time>2026-03-27T12:14:47Z</time>
<speed>0.000000</speed>
<trueHeading>0.000000</trueHeading>
<magneticHeading>0.000000</magneticHeading>
<gpsHeading>0.000000</gpsHeading>
<haccuracy>-1.000000</haccuracy>
<vaccuracy>-1.000000</vaccuracy>
<internetconnect>-1</internetconnect>
</trkpt>
<trkpt lat="35.026794" lon="136.422215">
<ele>1161.000000</ele>
<time>2026-03-27T12:15:06Z</time>
<speed>0.000000</speed>
<trueHeading>0.000000</trueHeading>
<magneticHeading>0.000000</magneticHeading>
<gpsHeading>0.000000</gpsHeading>
<haccuracy>-1.000000</haccuracy>
<vaccuracy>-1.000000</vaccuracy>
<internetconnect>-1</internetconnect>
</trkpt>
<trkpt lat="35.026763" lon="136.422215">
<ele>1163.000000</ele>
<time>2026-03-27T12:15:16Z</time>
<speed>0.000000</speed>
<trueHeading>0.000000</trueHeading>
<magneticHeading>0.000000</magneticHeading>
<gpsHeading>0.000000</gpsHeading>
<haccuracy>-1.000000</haccuracy>
<vaccuracy>-1.000000</vaccuracy>
<internetconnect>-1</internetconnect>
</trkpt>
<trkpt lat="35.026737" lon="136.422241">
<ele>1163.000000</ele>
<time>2026-03-27T12:15:27Z</time>
<speed>0.000000</speed>
<trueHeading>0.000000</trueHeading>
<magneticHeading>0.000000</magneticHeading>
<gpsHeading>0.000000</gpsHeading>
<haccuracy>-1.000000</haccuracy>
<vaccuracy>-1.000000</vaccuracy>
<internetconnect>-1</internetconnect>
</trkpt>
<trkpt lat="35.026711" lon="136.422295">
<ele>1165.000000</ele>
<time>2026-03-27T12:15:44Z</time>
<speed>0.000000</speed>
<trueHeading>0.000000</trueHeading>
<magneticHeading>0.000000</magneticHeading>
<gpsHeading>0.000000</gpsHeading>
<haccuracy>-1.000000</haccuracy>
<vaccuracy>-1.000000</vaccuracy>
<internetconnect>-1</internetconnect>
</trkpt>
<trkpt lat="35.026675" lon="136.422381">
<ele>1167.000000</ele>
<time>2026-03-27T12:16:10Z</time>
<speed>0.000000</speed>
<trueHeading>0.000000</trueHeading>
<magneticHeading>0.000000</magneticHeading>
<gpsHeading>0.000000</gpsHeading>
<haccuracy>-1.000000</haccuracy>
<vaccuracy>-1.000000</vaccuracy>
<internetconnect>-1</internetconnect>
</trkpt>
<trkpt lat="35.026645" lon="136.422515">
<ele>1168.000000</ele>
<time>2026-03-27T12:16:48Z</time>
<speed>0.000000</speed>
<trueHeading>0.000000</trueHeading>
<magneticHeading>0.000000</magneticHeading>
<gpsHeading>0.000000</gpsHeading>
<haccuracy>-1.000000</haccuracy>
<vaccuracy>-1.000000</vaccuracy>
<internetconnect>-1</internetconnect>
</trkpt>
<trkpt lat="35.026610" lon="136.422746">
<ele>1171.000000</ele>
<time>2026-03-27T12:17:52Z</time>
<speed>0.000000</speed>
<trueHeading>0.000000</trueHeading>
<magneticHeading>0.000000</magneticHeading>
<gpsHeading>0.000000</gpsHeading>
<haccuracy>-1.000000</haccuracy>
<vaccuracy>-1.000000</vaccuracy>
<internetconnect>-1</internetconnect>
</trkpt>
<trkpt lat="35.026588" lon="136.422896">
<ele>1172.000000</ele>
<time>2026-03-27T12:18:33Z</time>
<speed>0.000000</speed>
<trueHeading>0.000000</trueHeading>
<magneticHeading>0.000000</magneticHeading>
<gpsHeading>0.000000</gpsHeading>
<haccuracy>-1.000000</haccuracy>
<vaccuracy>-1.000000</vaccuracy>
<internetconnect>-1</internetconnect>
</trkpt>
<trkpt lat="35.026567" lon="136.422988">
<ele>1171.000000</ele>
<time>2026-03-27T12:19:00Z</time>
<speed>0.000000</speed>
<trueHeading>0.000000</trueHeading>
<magneticHeading>0.000000</magneticHeading>
<gpsHeading>0.000000</gpsHeading>
<haccuracy>-1.000000</haccuracy>
<vaccuracy>-1.000000</vaccuracy>
<internetconnect>-1</internetconnect>
</trkpt>
<trkpt lat="35.026566" lon="136.422992">
<ele>1171.000000</ele>
<time>2026-03-27T12:19:00Z</time>
<speed>0.000000</speed>
<trueHeading>0.000000</trueHeading>
<magneticHeading>0.000000</magneticHeading>
<gpsHeading>0.000000</gpsHeading>
<haccuracy>-1.000000</haccuracy>
<vaccuracy>-1.000000</vaccuracy>
<internetconnect>-1</internetconnect>
</trkpt>
<trkpt lat="35.026535" lon="136.423041">
<ele>1170.000000</ele>
<time>2026-03-27T12:19:08Z</time>
<speed>0.000000</speed>
<trueHeading>0.000000</trueHeading>
<magneticHeading>0.000000</magneticHeading>
<gpsHeading>0.000000</gpsHeading>
<haccuracy>-1.000000</haccuracy>
<vaccuracy>-1.000000</vaccuracy>
<internetconnect>-1</internetconnect>
</trkpt>
<trkpt lat="35.026500" lon="136.423062">
<ele>1170.000000</ele>
<time>2026-03-27T12:19:15Z</time>
<speed>0.000000</speed>
<trueHeading>0.000000</trueHeading>
<magneticHeading>0.000000</magneticHeading>
<gpsHeading>0.000000</gpsHeading>
<haccuracy>-1.000000</haccuracy>
<vaccuracy>-1.000000</vaccuracy>
<internetconnect>-1</internetconnect>
</trkpt>
<trkpt lat="35.026456" lon="136.423067">
<ele>1169.000000</ele>
<time>2026-03-27T12:19:23Z</time>
<speed>0.000000</speed>
<trueHeading>0.000000</trueHeading>
<magneticHeading>0.000000</magneticHeading>
<gpsHeading>0.000000</gpsHeading>
<haccuracy>-1.000000</haccuracy>
<vaccuracy>-1.000000</vaccuracy>
<internetconnect>-1</internetconnect>
</trkpt>
<trkpt lat="35.026364" lon="136.423030">
<ele>1165.000000</ele>
<time>2026-03-27T12:19:40Z</time>
<speed>0.000000</speed>
<trueHeading>0.000000</trueHeading>
<magneticHeading>0.000000</magneticHeading>
<gpsHeading>0.000000</gpsHeading>
<haccuracy>-1.000000</haccuracy>
<vaccuracy>-1.000000</vaccuracy>
<internetconnect>-1</internetconnect>
</trkpt>
<trkpt lat="35.026276" lon="136.422998">
<ele>1163.000000</ele>
<time>2026-03-27T12:19:56Z</time>
<speed>0.000000</speed>
<trueHeading>0.000000</trueHeading>
<magneticHeading>0.000000</magneticHeading>
<gpsHeading>0.000000</gpsHeading>
<haccuracy>-1.000000</haccuracy>
<vaccuracy>-1.000000</vaccuracy>
<internetconnect>-1</internetconnect>
</trkpt>
<trkpt lat="35.026205" lon="136.422982">
<ele>1161.000000</ele>
<time>2026-03-27T12:20:08Z</time>
<speed>0.000000</speed>
<trueHeading>0.000000</trueHeading>
<magneticHeading>0.000000</magneticHeading>
<gpsHeading>0.000000</gpsHeading>
<haccuracy>-1.000000</haccuracy>
<vaccuracy>-1.000000</vaccuracy>
<internetconnect>-1</internetconnect>
</trkpt>
<trkpt lat="35.026157" lon="136.422987">
<ele>1160.000000</ele>
<time>2026-03-27T12:20:17Z</time>
<speed>0.000000</speed>
<trueHeading>0.000000</trueHeading>
<magneticHeading>0.000000</magneticHeading>
<gpsHeading>0.000000</gpsHeading>
<haccuracy>-1.000000</haccuracy>
<vaccuracy>-1.000000</vaccuracy>
<internetconnect>-1</internetconnect>
</trkpt>
<trkpt lat="35.026096" lon="136.423035">
<ele>1161.000000</ele>
<time>2026-03-27T12:20:30Z</time>
<speed>0.000000</speed>
<trueHeading>0.000000</trueHeading>
<magneticHeading>0.000000</magneticHeading>
<gpsHeading>0.000000</gpsHeading>
<haccuracy>-1.000000</haccuracy>
<vaccuracy>-1.000000</vaccuracy>
<internetconnect>-1</internetconnect>
</trkpt>
<trkpt lat="35.026021" lon="136.423110">
<ele>1163.000000</ele>
<time>2026-03-27T12:20:47Z</time>
<speed>0.000000</speed>
<trueHeading>0.000000</trueHeading>
<magneticHeading>0.000000</magneticHeading>
<gpsHeading>0.000000</gpsHeading>
<haccuracy>-1.000000</haccuracy>
<vaccuracy>-1.000000</vaccuracy>
<internetconnect>-1</internetconnect>
</trkpt>
<trkpt lat="35.025955" lon="136.423148">
<ele>1164.000000</ele>
<time>2026-03-27T12:21:00Z</time>
<speed>0.000000</speed>
<trueHeading>0.000000</trueHeading>
<magneticHeading>0.000000</magneticHeading>
<gpsHeading>0.000000</gpsHeading>
<haccuracy>-1.000000</haccuracy>
<vaccuracy>-1.000000</vaccuracy>
<internetconnect>-1</internetconnect>
</trkpt>
<trkpt lat="35.025898" lon="136.423126">
<ele>1165.000000</ele>
<time>2026-03-27T12:21:00Z</time>
<speed>0.000000</speed>
<trueHeading>0.000000</trueHeading>
<magneticHeading>0.000000</magneticHeading>
<gpsHeading>0.000000</gpsHeading>
<haccuracy>-1.000000</haccuracy>
<vaccuracy>-1.000000</vaccuracy>
<internetconnect>-1</internetconnect>
</trkpt>
<trkpt lat="35.025841" lon="136.423110">
<ele>1165.000000</ele>
<time>2026-03-27T12:21:11Z</time>
<speed>0.000000</speed>
<trueHeading>0.000000</trueHeading>
<magneticHeading>0.000000</magneticHeading>
<gpsHeading>0.000000</gpsHeading>
<haccuracy>-1.000000</haccuracy>
<vaccuracy>-1.000000</vaccuracy>
<internetconnect>-1</internetconnect>
</trkpt>
<trkpt lat="35.025801" lon="136.423110">
<ele>1165.000000</ele>
<time>2026-03-27T12:21:18Z</time>
<speed>0.000000</speed>
<trueHeading>0.000000</trueHeading>
<magneticHeading>0.000000</magneticHeading>
<gpsHeading>0.000000</gpsHeading>
<haccuracy>-1.000000</haccuracy>
<vaccuracy>-1.000000</vaccuracy>
<internetconnect>-1</internetconnect>
</trkpt>
<trkpt lat="35.025740" lon="136.423126">
<ele>1165.000000</ele>
<time>2026-03-27T12:21:30Z</time>
<speed>0.000000</speed>
<trueHeading>0.000000</trueHeading>
<magneticHeading>0.000000</magneticHeading>
<gpsHeading>0.000000</gpsHeading>
<haccuracy>-1.000000</haccuracy>
<vaccuracy>-1.000000</vaccuracy>
<internetconnect>-1</internetconnect>
</trkpt>
<trkpt lat="35.025683" lon="136.423121">
<ele>1165.000000</ele>
<time>2026-03-27T12:21:41Z</time>
<speed>0.000000</speed>
<trueHeading>0.000000</trueHeading>
<magneticHeading>0.000000</magneticHeading>
<gpsHeading>0.000000</gpsHeading>
<haccuracy>-1.000000</haccuracy>
<vaccuracy>-1.000000</vaccuracy>
<internetconnect>-1</internetconnect>
</trkpt>
<trkpt lat="35.025639" lon="136.423094">
<ele>1164.000000</ele>
<time>2026-03-27T12:21:51Z</time>
<speed>0.000000</speed>
<trueHeading>0.000000</trueHeading>
<magneticHeading>0.000000</magneticHeading>
<gpsHeading>0.000000</gpsHeading>
<haccuracy>-1.000000</haccuracy>
<vaccuracy>-1.000000</vaccuracy>
<internetconnect>-1</internetconnect>
</trkpt>
<trkpt lat="35.025590" lon="136.423019">
<ele>1164.000000</ele>
<time>2026-03-27T12:22:06Z</time>
<speed>0.000000</speed>
<trueHeading>0.000000</trueHeading>
<magneticHeading>0.000000</magneticHeading>
<gpsHeading>0.000000</gpsHeading>
<haccuracy>-1.000000</haccuracy>
<vaccuracy>-1.000000</vaccuracy>
<internetconnect>-1</internetconnect>
</trkpt>
<trkpt lat="35.025542" lon="136.422960">
<ele>1163.000000</ele>
<time>2026-03-27T12:22:19Z</time>
<speed>0.000000</speed>
<trueHeading>0.000000</trueHeading>
<magneticHeading>0.000000</magneticHeading>
<gpsHeading>0.000000</gpsHeading>
<haccuracy>-1.000000</haccuracy>
<vaccuracy>-1.000000</vaccuracy>
<internetconnect>-1</internetconnect>
</trkpt>
<trkpt lat="35.025494" lon="136.422939">
<ele>1163.000000</ele>
<time>2026-03-27T12:22:29Z</time>
<speed>0.000000</speed>
<trueHeading>0.000000</trueHeading>
<magneticHeading>0.000000</magneticHeading>
<gpsHeading>0.000000</gpsHeading>
<haccuracy>-1.000000</haccuracy>
<vaccuracy>-1.000000</vaccuracy>
<internetconnect>-1</internetconnect>
</trkpt>
<trkpt lat="35.025463" lon="136.422944">
<ele>1163.000000</ele>
<time>2026-03-27T12:22:35Z</time>
<speed>0.000000</speed>
<trueHeading>0.000000</trueHeading>
<magneticHeading>0.000000</magneticHeading>
<gpsHeading>0.000000</gpsHeading>
<haccuracy>-1.000000</haccuracy>
<vaccuracy>-1.000000</vaccuracy>
<internetconnect>-1</internetconnect>
</trkpt>
<trkpt lat="35.025397" lon="136.422982">
<ele>1163.000000</ele>
<time>2026-03-27T12:22:49Z</time>
<speed>0.000000</speed>
<trueHeading>0.000000</trueHeading>
<magneticHeading>0.000000</magneticHeading>
<gpsHeading>0.000000</gpsHeading>
<haccuracy>-1.000000</haccuracy>
<vaccuracy>-1.000000</vaccuracy>
<internetconnect>-1</internetconnect>
</trkpt>
<trkpt lat="35.025353" lon="136.422992">
<ele>1163.000000</ele>
<time>2026-03-27T12:22:57Z</time>
<speed>0.000000</speed>
<trueHeading>0.000000</trueHeading>
<magneticHeading>0.000000</magneticHeading>
<gpsHeading>0.000000</gpsHeading>
<haccuracy>-1.000000</haccuracy>
<vaccuracy>-1.000000</vaccuracy>
<internetconnect>-1</internetconnect>
</trkpt>
<trkpt lat="35.025322" lon="136.422987">
<ele>1163.000000</ele>
<time>2026-03-27T12:23:03Z</time>
<speed>0.000000</speed>
<trueHeading>0.000000</trueHeading>
<magneticHeading>0.000000</magneticHeading>
<gpsHeading>0.000000</gpsHeading>
<haccuracy>-1.000000</haccuracy>
<vaccuracy>-1.000000</vaccuracy>
<internetconnect>-1</internetconnect>
</trkpt>
<trkpt lat="35.025296" lon="136.422955">
<ele>1164.000000</ele>
<time>2026-03-27T12:23:10Z</time>
<speed>0.000000</speed>
<trueHeading>0.000000</trueHeading>
<magneticHeading>0.000000</magneticHeading>
<gpsHeading>0.000000</gpsHeading>
<haccuracy>-1.000000</haccuracy>
<vaccuracy>-1.000000</vaccuracy>
<internetconnect>-1</internetconnect>
</trkpt>
<trkpt lat="35.025270" lon="136.422837">
<ele>1165.000000</ele>
<time>2026-03-27T12:23:29Z</time>
<speed>0.000000</speed>
<trueHeading>0.000000</trueHeading>
<magneticHeading>0.000000</magneticHeading>
<gpsHeading>0.000000</gpsHeading>
<haccuracy>-1.000000</haccuracy>
<vaccuracy>-1.000000</vaccuracy>
<internetconnect>-1</internetconnect>
</trkpt>
<trkpt lat="35.025235" lon="136.422713">
<ele>1162.000000</ele>
<time>2026-03-27T12:23:50Z</time>
<speed>0.000000</speed>
<trueHeading>0.000000</trueHeading>
<magneticHeading>0.000000</magneticHeading>
<gpsHeading>0.000000</gpsHeading>
<haccuracy>-1.000000</haccuracy>
<vaccuracy>-1.000000</vaccuracy>
<internetconnect>-1</internetconnect>
</trkpt>
<trkpt lat="35.025195" lon="136.422611">
<ele>1164.000000</ele>
<time>2026-03-27T12:24:08Z</time>
<speed>0.000000</speed>
<trueHeading>0.000000</trueHeading>
<magneticHeading>0.000000</magneticHeading>
<gpsHeading>0.000000</gpsHeading>
<haccuracy>-1.000000</haccuracy>
<vaccuracy>-1.000000</vaccuracy>
<internetconnect>-1</internetconnect>
</trkpt>
<trkpt lat="35.025160" lon="136.422552">
<ele>1165.000000</ele>
<time>2026-03-27T12:24:19Z</time>
<speed>0.000000</speed>
<trueHeading>0.000000</trueHeading>
<magneticHeading>0.000000</magneticHeading>
<gpsHeading>0.000000</gpsHeading>
<haccuracy>-1.000000</haccuracy>
<vaccuracy>-1.000000</vaccuracy>
<internetconnect>-1</internetconnect>
</trkpt>
<trkpt lat="35.025125" lon="136.422483">
<ele>1165.000000</ele>
<time>2026-03-27T12:24:32Z</time>
<speed>0.000000</speed>
<trueHeading>0.000000</trueHeading>
<magneticHeading>0.000000</magneticHeading>
<gpsHeading>0.000000</gpsHeading>
<haccuracy>-1.000000</haccuracy>
<vaccuracy>-1.000000</vaccuracy>
<internetconnect>-1</internetconnect>
</trkpt>
<trkpt lat="35.025072" lon="136.422418">
<ele>1163.000000</ele>
<time>2026-03-27T12:24:46Z</time>
<speed>0.000000</speed>
<trueHeading>0.000000</trueHeading>
<magneticHeading>0.000000</magneticHeading>
<gpsHeading>0.000000</gpsHeading>
<haccuracy>-1.000000</haccuracy>
<vaccuracy>-1.000000</vaccuracy>
<internetconnect>-1</internetconnect>
</trkpt>
<trkpt lat="35.025011" lon="136.422392">
<ele>1162.000000</ele>
<time>2026-03-27T12:24:59Z</time>
<speed>0.000000</speed>
<trueHeading>0.000000</trueHeading>
<magneticHeading>0.000000</magneticHeading>
<gpsHeading>0.000000</gpsHeading>
<haccuracy>-1.000000</haccuracy>
<vaccuracy>-1.000000</vaccuracy>
<internetconnect>-1</internetconnect>
</trkpt>
<trkpt lat="35.024927" lon="136.422370">
<ele>1153.000000</ele>
<time>2026-03-27T12:25:15Z</time>
<speed>0.000000</speed>
<trueHeading>0.000000</trueHeading>
<magneticHeading>0.000000</magneticHeading>
<gpsHeading>0.000000</gpsHeading>
<haccuracy>-1.000000</haccuracy>
<vaccuracy>-1.000000</vaccuracy>
<internetconnect>-1</internetconnect>
</trkpt>
<trkpt lat="35.024857" lon="136.422359">
<ele>1149.000000</ele>
<time>2026-03-27T12:25:29Z</time>
<speed>0.000000</speed>
<trueHeading>0.000000</trueHeading>
<magneticHeading>0.000000</magneticHeading>
<gpsHeading>0.000000</gpsHeading>
<haccuracy>-1.000000</haccuracy>
<vaccuracy>-1.000000</vaccuracy>
<internetconnect>-1</internetconnect>
</trkpt>
<trkpt lat="35.024791" lon="136.422322">
<ele>1147.000000</ele>
<time>2026-03-27T12:25:43Z</time>
<speed>0.000000</speed>
<trueHeading>0.000000</trueHeading>
<magneticHeading>0.000000</magneticHeading>
<gpsHeading>0.000000</gpsHeading>
<haccuracy>-1.000000</haccuracy>
<vaccuracy>-1.000000</vaccuracy>
<internetconnect>-1</internetconnect>
</trkpt>
<trkpt lat="35.024685" lon="136.422220">
<ele>1144.000000</ele>
<time>2026-03-27T12:26:08Z</time>
<speed>0.000000</speed>
<trueHeading>0.000000</trueHeading>
<magneticHeading>0.000000</magneticHeading>
<gpsHeading>0.000000</gpsHeading>
<haccuracy>-1.000000</haccuracy>
<vaccuracy>-1.000000</vaccuracy>
<internetconnect>-1</internetconnect>
</trkpt>
<trkpt lat="35.024536" lon="136.422086">
<ele>1141.000000</ele>
<time>2026-03-27T12:26:44Z</time>
<speed>0.000000</speed>
<trueHeading>0.000000</trueHeading>
<magneticHeading>0.000000</magneticHeading>
<gpsHeading>0.000000</gpsHeading>
<haccuracy>-1.000000</haccuracy>
<vaccuracy>-1.000000</vaccuracy>
<internetconnect>-1</internetconnect>
</trkpt>
<trkpt lat="35.024356" lon="136.421936">
<ele>1135.000000</ele>
<time>2026-03-27T12:27:26Z</time>
<speed>0.000000</speed>
<trueHeading>0.000000</trueHeading>
<magneticHeading>0.000000</magneticHeading>
<gpsHeading>0.000000</gpsHeading>
<haccuracy>-1.000000</haccuracy>
<vaccuracy>-1.000000</vaccuracy>
<internetconnect>-1</internetconnect>
</trkpt>
<trkpt lat="35.024158" lon="136.421759">
<ele>1125.000000</ele>
<time>2026-03-27T12:28:13Z</time>
<speed>0.000000</speed>
<trueHeading>0.000000</trueHeading>
<magneticHeading>0.000000</magneticHeading>
<gpsHeading>0.000000</gpsHeading>
<haccuracy>-1.000000</haccuracy>
<vaccuracy>-1.000000</vaccuracy>
<internetconnect>-1</internetconnect>
</trkpt>
<trkpt lat="35.024000" lon="136.421603">
<ele>1119.000000</ele>
<time>2026-03-27T12:28:52Z</time>
<speed>0.000000</speed>
<trueHeading>0.000000</trueHeading>
<magneticHeading>0.000000</magneticHeading>
<gpsHeading>0.000000</gpsHeading>
<haccuracy>-1.000000</haccuracy>
<vaccuracy>-1.000000</vaccuracy>
<internetconnect>-1</internetconnect>
</trkpt>
<trkpt lat="35.023921" lon="136.421560">
<ele>1116.000000</ele>
<time>2026-03-27T12:29:08Z</time>
<speed>0.000000</speed>
<trueHeading>0.000000</trueHeading>
<magneticHeading>0.000000</magneticHeading>
<gpsHeading>0.000000</gpsHeading>
<haccuracy>-1.000000</haccuracy>
<vaccuracy>-1.000000</vaccuracy>
<internetconnect>-1</internetconnect>
</trkpt>
<trkpt lat="35.023860" lon="136.421549">
<ele>1113.000000</ele>
<time>2026-03-27T12:29:20Z</time>
<speed>0.000000</speed>
<trueHeading>0.000000</trueHeading>
<magneticHeading>0.000000</magneticHeading>
<gpsHeading>0.000000</gpsHeading>
<haccuracy>-1.000000</haccuracy>
<vaccuracy>-1.000000</vaccuracy>
<internetconnect>-1</internetconnect>
</trkpt>
<trkpt lat="35.023776" lon="136.421560">
<ele>1109.000000</ele>
<time>2026-03-27T12:29:36Z</time>
<speed>0.000000</speed>
<trueHeading>0.000000</trueHeading>
<magneticHeading>0.000000</magneticHeading>
<gpsHeading>0.000000</gpsHeading>
<haccuracy>-1.000000</haccuracy>
<vaccuracy>-1.000000</vaccuracy>
<internetconnect>-1</internetconnect>
</trkpt>
<trkpt lat="35.023636" lon="136.421635">
<ele>1104.000000</ele>
<time>2026-03-27T12:30:06Z</time>
<speed>0.000000</speed>
<trueHeading>0.000000</trueHeading>
<magneticHeading>0.000000</magneticHeading>
<gpsHeading>0.000000</gpsHeading>
<haccuracy>-1.000000</haccuracy>
<vaccuracy>-1.000000</vaccuracy>
<internetconnect>-1</internetconnect>
</trkpt>
<trkpt lat="35.023499" lon="136.421705">
<ele>1097.000000</ele>
<time>2026-03-27T12:30:34Z</time>
<speed>0.000000</speed>
<trueHeading>0.000000</trueHeading>
<magneticHeading>0.000000</magneticHeading>
<gpsHeading>0.000000</gpsHeading>
<haccuracy>-1.000000</haccuracy>
<vaccuracy>-1.000000</vaccuracy>
<internetconnect>-1</internetconnect>
</trkpt>
<trkpt lat="35.023394" lon="136.421737">
<ele>1094.000000</ele>
<time>2026-03-27T12:30:55Z</time>
<speed>0.000000</speed>
<trueHeading>0.000000</trueHeading>
<magneticHeading>0.000000</magneticHeading>
<gpsHeading>0.000000</gpsHeading>
<haccuracy>-1.000000</haccuracy>
<vaccuracy>-1.000000</vaccuracy>
<internetconnect>-1</internetconnect>
</trkpt>
<trkpt lat="35.023293" lon="136.421748">
<ele>1089.000000</ele>
<time>2026-03-27T12:31:14Z</time>
<speed>0.000000</speed>
<trueHeading>0.000000</trueHeading>
<magneticHeading>0.000000</magneticHeading>
<gpsHeading>0.000000</gpsHeading>
<haccuracy>-1.000000</haccuracy>
<vaccuracy>-1.000000</vaccuracy>
<internetconnect>-1</internetconnect>
</trkpt>
<trkpt lat="35.023196" lon="136.421748">
<ele>1086.000000</ele>
<time>2026-03-27T12:31:32Z</time>
<speed>0.000000</speed>
<trueHeading>0.000000</trueHeading>
<magneticHeading>0.000000</magneticHeading>
<gpsHeading>0.000000</gpsHeading>
<haccuracy>-1.000000</haccuracy>
<vaccuracy>-1.000000</vaccuracy>
<internetconnect>-1</internetconnect>
</trkpt>
<trkpt lat="35.023056" lon="136.421732">
<ele>1084.000000</ele>
<time>2026-03-27T12:32:00Z</time>
<speed>0.000000</speed>
<trueHeading>0.000000</trueHeading>
<magneticHeading>0.000000</magneticHeading>
<gpsHeading>0.000000</gpsHeading>
<haccuracy>-1.000000</haccuracy>
<vaccuracy>-1.000000</vaccuracy>
<internetconnect>-1</internetconnect>
</trkpt>
<trkpt lat="35.022911" lon="136.421775">
<ele>1085.000000</ele>
<time>2026-03-27T12:32:00Z</time>
<speed>0.000000</speed>
<trueHeading>0.000000</trueHeading>
<magneticHeading>0.000000</magneticHeading>
<gpsHeading>0.000000</gpsHeading>
<haccuracy>-1.000000</haccuracy>
<vaccuracy>-1.000000</vaccuracy>
<internetconnect>-1</internetconnect>
</trkpt>
<trkpt lat="35.022796" lon="136.421839">
<ele>1087.000000</ele>
<time>2026-03-27T12:32:33Z</time>
<speed>0.000000</speed>
<trueHeading>0.000000</trueHeading>
<magneticHeading>0.000000</magneticHeading>
<gpsHeading>0.000000</gpsHeading>
<haccuracy>-1.000000</haccuracy>
<vaccuracy>-1.000000</vaccuracy>
<internetconnect>-1</internetconnect>
</trkpt>
<trkpt lat="35.022713" lon="136.421919">
<ele>1090.000000</ele>
<time>2026-03-27T12:33:02Z</time>
<speed>0.000000</speed>
<trueHeading>0.000000</trueHeading>
<magneticHeading>0.000000</magneticHeading>
<gpsHeading>0.000000</gpsHeading>
<haccuracy>-1.000000</haccuracy>
<vaccuracy>-1.000000</vaccuracy>
<internetconnect>-1</internetconnect>
</trkpt>
<trkpt lat="35.022669" lon="136.421973">
<ele>1091.000000</ele>
<time>2026-03-27T12:33:19Z</time>
<speed>0.000000</speed>
<trueHeading>0.000000</trueHeading>
<magneticHeading>0.000000</magneticHeading>
<gpsHeading>0.000000</gpsHeading>
<haccuracy>-1.000000</haccuracy>
<vaccuracy>-1.000000</vaccuracy>
<internetconnect>-1</internetconnect>
</trkpt>
<trkpt lat="35.022616" lon="136.422016">
<ele>1093.000000</ele>
<time>2026-03-27T12:33:36Z</time>
<speed>0.000000</speed>
<trueHeading>0.000000</trueHeading>
<magneticHeading>0.000000</magneticHeading>
<gpsHeading>0.000000</gpsHeading>
<haccuracy>-1.000000</haccuracy>
<vaccuracy>-1.000000</vaccuracy>
<internetconnect>-1</internetconnect>
</trkpt>
<trkpt lat="35.022568" lon="136.422043">
<ele>1090.000000</ele>
<time>2026-03-27T12:33:50Z</time>
<speed>0.000000</speed>
<trueHeading>0.000000</trueHeading>
<magneticHeading>0.000000</magneticHeading>
<gpsHeading>0.000000</gpsHeading>
<haccuracy>-1.000000</haccuracy>
<vaccuracy>-1.000000</vaccuracy>
<internetconnect>-1</internetconnect>
</trkpt>
<trkpt lat="35.022493" lon="136.422059">
<ele>1089.000000</ele>
<time>2026-03-27T12:34:11Z</time>
<speed>0.000000</speed>
<trueHeading>0.000000</trueHeading>
<magneticHeading>0.000000</magneticHeading>
<gpsHeading>0.000000</gpsHeading>
<haccuracy>-1.000000</haccuracy>
<vaccuracy>-1.000000</vaccuracy>
<internetconnect>-1</internetconnect>
</trkpt>
<trkpt lat="35.022366" lon="136.422054">
<ele>1088.000000</ele>
<time>2026-03-27T12:34:45Z</time>
<speed>0.000000</speed>
<trueHeading>0.000000</trueHeading>
<magneticHeading>0.000000</magneticHeading>
<gpsHeading>0.000000</gpsHeading>
<haccuracy>-1.000000</haccuracy>
<vaccuracy>-1.000000</vaccuracy>
<internetconnect>-1</internetconnect>
</trkpt>
<trkpt lat="35.022212" lon="136.422054">
<ele>1094.000000</ele>
<time>2026-03-27T12:35:26Z</time>
<speed>0.000000</speed>
<trueHeading>0.000000</trueHeading>
<magneticHeading>0.000000</magneticHeading>
<gpsHeading>0.000000</gpsHeading>
<haccuracy>-1.000000</haccuracy>
<vaccuracy>-1.000000</vaccuracy>
<internetconnect>-1</internetconnect>
</trkpt>
<trkpt lat="35.022138" lon="136.422070">
<ele>1096.000000</ele>
<time>2026-03-27T12:35:47Z</time>
<speed>0.000000</speed>
<trueHeading>0.000000</trueHeading>
<magneticHeading>0.000000</magneticHeading>
<gpsHeading>0.000000</gpsHeading>
<haccuracy>-1.000000</haccuracy>
<vaccuracy>-1.000000</vaccuracy>
<internetconnect>-1</internetconnect>
</trkpt>
<trkpt lat="35.022098" lon="136.422096">
<ele>1099.000000</ele>
<time>2026-03-27T12:35:59Z</time>
<speed>0.000000</speed>
<trueHeading>0.000000</trueHeading>
<magneticHeading>0.000000</magneticHeading>
<gpsHeading>0.000000</gpsHeading>
<haccuracy>-1.000000</haccuracy>
<vaccuracy>-1.000000</vaccuracy>
<internetconnect>-1</internetconnect>
</trkpt>
<trkpt lat="35.022063" lon="136.422139">
<ele>1099.000000</ele>
<time>2026-03-27T12:36:12Z</time>
<speed>0.000000</speed>
<trueHeading>0.000000</trueHeading>
<magneticHeading>0.000000</magneticHeading>
<gpsHeading>0.000000</gpsHeading>
<haccuracy>-1.000000</haccuracy>
<vaccuracy>-1.000000</vaccuracy>
<internetconnect>-1</internetconnect>
</trkpt>
<trkpt lat="35.022041" lon="136.422193">
<ele>1101.000000</ele>
<time>2026-03-27T12:36:26Z</time>
<speed>0.000000</speed>
<trueHeading>0.000000</trueHeading>
<magneticHeading>0.000000</magneticHeading>
<gpsHeading>0.000000</gpsHeading>
<haccuracy>-1.000000</haccuracy>
<vaccuracy>-1.000000</vaccuracy>
<internetconnect>-1</internetconnect>
</trkpt>
<trkpt lat="35.022028" lon="136.422300">
<ele>1106.000000</ele>
<time>2026-03-27T12:36:50Z</time>
<speed>0.000000</speed>
<trueHeading>0.000000</trueHeading>
<magneticHeading>0.000000</magneticHeading>
<gpsHeading>0.000000</gpsHeading>
<haccuracy>-1.000000</haccuracy>
<vaccuracy>-1.000000</vaccuracy>
<internetconnect>-1</internetconnect>
</trkpt>
<trkpt lat="35.022041" lon="136.422472">
<ele>1109.000000</ele>
<time>2026-03-27T12:37:28Z</time>
<speed>0.000000</speed>
<trueHeading>0.000000</trueHeading>
<magneticHeading>0.000000</magneticHeading>
<gpsHeading>0.000000</gpsHeading>
<haccuracy>-1.000000</haccuracy>
<vaccuracy>-1.000000</vaccuracy>
<internetconnect>-1</internetconnect>
</trkpt>
<trkpt lat="35.022102" lon="136.422665">
<ele>1117.000000</ele>
<time>2026-03-27T12:38:14Z</time>
<speed>0.000000</speed>
<trueHeading>0.000000</trueHeading>
<magneticHeading>0.000000</magneticHeading>
<gpsHeading>0.000000</gpsHeading>
<haccuracy>-1.000000</haccuracy>
<vaccuracy>-1.000000</vaccuracy>
<internetconnect>-1</internetconnect>
</trkpt>
<trkpt lat="35.022116" lon="136.422783">
<ele>1120.000000</ele>
<time>2026-03-27T12:38:40Z</time>
<speed>0.000000</speed>
<trueHeading>0.000000</trueHeading>
<magneticHeading>0.000000</magneticHeading>
<gpsHeading>0.000000</gpsHeading>
<haccuracy>-1.000000</haccuracy>
<vaccuracy>-1.000000</vaccuracy>
<internetconnect>-1</internetconnect>
</trkpt>
<trkpt lat="35.022107" lon="136.422896">
<ele>1123.000000</ele>
<time>2026-03-27T12:39:05Z</time>
<speed>0.000000</speed>
<trueHeading>0.000000</trueHeading>
<magneticHeading>0.000000</magneticHeading>
<gpsHeading>0.000000</gpsHeading>
<haccuracy>-1.000000</haccuracy>
<vaccuracy>-1.000000</vaccuracy>
<internetconnect>-1</internetconnect>
</trkpt>
<trkpt lat="35.022080" lon="136.423014">
<ele>1128.000000</ele>
<time>2026-03-27T12:39:32Z</time>
<speed>0.000000</speed>
<trueHeading>0.000000</trueHeading>
<magneticHeading>0.000000</magneticHeading>
<gpsHeading>0.000000</gpsHeading>
<haccuracy>-1.000000</haccuracy>
<vaccuracy>-1.000000</vaccuracy>
<internetconnect>-1</internetconnect>
</trkpt>
<trkpt lat="35.021988" lon="136.423261">
<ele>1136.000000</ele>
<time>2026-03-27T12:40:32Z</time>
<speed>0.000000</speed>
<trueHeading>0.000000</trueHeading>
<magneticHeading>0.000000</magneticHeading>
<gpsHeading>0.000000</gpsHeading>
<haccuracy>-1.000000</haccuracy>
<vaccuracy>-1.000000</vaccuracy>
<internetconnect>-1</internetconnect>
</trkpt>
<trkpt lat="35.021957" lon="136.423362">
<ele>1138.000000</ele>
<time>2026-03-27T12:40:56Z</time>
<speed>0.000000</speed>
<trueHeading>0.000000</trueHeading>
<magneticHeading>0.000000</magneticHeading>
<gpsHeading>0.000000</gpsHeading>
<haccuracy>-1.000000</haccuracy>
<vaccuracy>-1.000000</vaccuracy>
<internetconnect>-1</internetconnect>
</trkpt>
<trkpt lat="35.021953" lon="136.423454">
<ele>1140.000000</ele>
<time>2026-03-27T12:41:16Z</time>
<speed>0.000000</speed>
<trueHeading>0.000000</trueHeading>
<magneticHeading>0.000000</magneticHeading>
<gpsHeading>0.000000</gpsHeading>
<haccuracy>-1.000000</haccuracy>
<vaccuracy>-1.000000</vaccuracy>
<internetconnect>-1</internetconnect>
</trkpt>
<trkpt lat="35.021971" lon="136.423572">
<ele>1142.000000</ele>
<time>2026-03-27T12:41:43Z</time>
<speed>0.000000</speed>
<trueHeading>0.000000</trueHeading>
<magneticHeading>0.000000</magneticHeading>
<gpsHeading>0.000000</gpsHeading>
<haccuracy>-1.000000</haccuracy>
<vaccuracy>-1.000000</vaccuracy>
<internetconnect>-1</internetconnect>
</trkpt>
<trkpt lat="35.021979" lon="136.423674">
<ele>1143.000000</ele>
<time>2026-03-27T12:42:06Z</time>
<speed>0.000000</speed>
<trueHeading>0.000000</trueHeading>
<magneticHeading>0.000000</magneticHeading>
<gpsHeading>0.000000</gpsHeading>
<haccuracy>-1.000000</haccuracy>
<vaccuracy>-1.000000</vaccuracy>
<internetconnect>-1</internetconnect>
</trkpt>
<trkpt lat="35.021979" lon="136.423727">
<ele>1143.000000</ele>
<time>2026-03-27T12:42:18Z</time>
<speed>0.000000</speed>
<trueHeading>0.000000</trueHeading>
<magneticHeading>0.000000</magneticHeading>
<gpsHeading>0.000000</gpsHeading>
<haccuracy>-1.000000</haccuracy>
<vaccuracy>-1.000000</vaccuracy>
<internetconnect>-1</internetconnect>
</trkpt>
<trkpt lat="35.021957" lon="136.423770">
<ele>1142.000000</ele>
<time>2026-03-27T12:42:29Z</time>
<speed>0.000000</speed>
<trueHeading>0.000000</trueHeading>
<magneticHeading>0.000000</magneticHeading>
<gpsHeading>0.000000</gpsHeading>
<haccuracy>-1.000000</haccuracy>
<vaccuracy>-1.000000</vaccuracy>
<internetconnect>-1</internetconnect>
</trkpt>
<trkpt lat="35.021922" lon="136.423786">
<ele>1143.000000</ele>
<time>2026-03-27T12:42:39Z</time>
<speed>0.000000</speed>
<trueHeading>0.000000</trueHeading>
<magneticHeading>0.000000</magneticHeading>
<gpsHeading>0.000000</gpsHeading>
<haccuracy>-1.000000</haccuracy>
<vaccuracy>-1.000000</vaccuracy>
<internetconnect>-1</internetconnect>
</trkpt>
<trkpt lat="35.021856" lon="136.423781">
<ele>1146.000000</ele>
<time>2026-03-27T12:42:57Z</time>
<speed>0.000000</speed>
<trueHeading>0.000000</trueHeading>
<magneticHeading>0.000000</magneticHeading>
<gpsHeading>0.000000</gpsHeading>
<haccuracy>-1.000000</haccuracy>
<vaccuracy>-1.000000</vaccuracy>
<internetconnect>-1</internetconnect>
</trkpt>
<trkpt lat="35.021689" lon="136.423727">
<ele>1151.000000</ele>
<time>2026-03-27T12:43:43Z</time>
<speed>0.000000</speed>
<trueHeading>0.000000</trueHeading>
<magneticHeading>0.000000</magneticHeading>
<gpsHeading>0.000000</gpsHeading>
<haccuracy>-1.000000</haccuracy>
<vaccuracy>-1.000000</vaccuracy>
<internetconnect>-1</internetconnect>
</trkpt>
<trkpt lat="35.021632" lon="136.423727">
<ele>1154.000000</ele>
<time>2026-03-27T12:43:58Z</time>
<speed>0.000000</speed>
<trueHeading>0.000000</trueHeading>
<magneticHeading>0.000000</magneticHeading>
<gpsHeading>0.000000</gpsHeading>
<haccuracy>-1.000000</haccuracy>
<vaccuracy>-1.000000</vaccuracy>
<internetconnect>-1</internetconnect>
</trkpt>
<trkpt lat="35.021584" lon="136.423754">
<ele>1155.000000</ele>
<time>2026-03-27T12:44:13Z</time>
<speed>0.000000</speed>
<trueHeading>0.000000</trueHeading>
<magneticHeading>0.000000</magneticHeading>
<gpsHeading>0.000000</gpsHeading>
<haccuracy>-1.000000</haccuracy>
<vaccuracy>-1.000000</vaccuracy>
<internetconnect>-1</internetconnect>
</trkpt>
<trkpt lat="35.021514" lon="136.423840">
<ele>1156.000000</ele>
<time>2026-03-27T12:44:40Z</time>
<speed>0.000000</speed>
<trueHeading>0.000000</trueHeading>
<magneticHeading>0.000000</magneticHeading>
<gpsHeading>0.000000</gpsHeading>
<haccuracy>-1.000000</haccuracy>
<vaccuracy>-1.000000</vaccuracy>
<internetconnect>-1</internetconnect>
</trkpt>
<trkpt lat="35.021386" lon="136.424028">
<ele>1158.000000</ele>
<time>2026-03-27T12:45:33Z</time>
<speed>0.000000</speed>
<trueHeading>0.000000</trueHeading>
<magneticHeading>0.000000</magneticHeading>
<gpsHeading>0.000000</gpsHeading>
<haccuracy>-1.000000</haccuracy>
<vaccuracy>-1.000000</vaccuracy>
<internetconnect>-1</internetconnect>
</trkpt>
<trkpt lat="35.021303" lon="136.424151">
<ele>1160.000000</ele>
<time>2026-03-27T12:46:09Z</time>
<speed>0.000000</speed>
<trueHeading>0.000000</trueHeading>
<magneticHeading>0.000000</magneticHeading>
<gpsHeading>0.000000</gpsHeading>
<haccuracy>-1.000000</haccuracy>
<vaccuracy>-1.000000</vaccuracy>
<internetconnect>-1</internetconnect>
</trkpt>
<trkpt lat="35.021237" lon="136.424210">
<ele>1164.000000</ele>
<time>2026-03-27T12:46:31Z</time>
<speed>0.000000</speed>
<trueHeading>0.000000</trueHeading>
<magneticHeading>0.000000</magneticHeading>
<gpsHeading>0.000000</gpsHeading>
<haccuracy>-1.000000</haccuracy>
<vaccuracy>-1.000000</vaccuracy>
<internetconnect>-1</internetconnect>
</trkpt>
<trkpt lat="35.021162" lon="136.424253">
<ele>1167.000000</ele>
<time>2026-03-27T12:46:53Z</time>
<speed>0.000000</speed>
<trueHeading>0.000000</trueHeading>
<magneticHeading>0.000000</magneticHeading>
<gpsHeading>0.000000</gpsHeading>
<haccuracy>-1.000000</haccuracy>
<vaccuracy>-1.000000</vaccuracy>
<internetconnect>-1</internetconnect>
</trkpt>
<trkpt lat="35.021039" lon="136.424312">
<ele>1170.000000</ele>
<time>2026-03-27T12:47:29Z</time>
<speed>0.000000</speed>
<trueHeading>0.000000</trueHeading>
<magneticHeading>0.000000</magneticHeading>
<gpsHeading>0.000000</gpsHeading>
<haccuracy>-1.000000</haccuracy>
<vaccuracy>-1.000000</vaccuracy>
<internetconnect>-1</internetconnect>
</trkpt>
<trkpt lat="35.020868" lon="136.424414">
<ele>1178.000000</ele>
<time>2026-03-27T12:48:20Z</time>
<speed>0.000000</speed>
<trueHeading>0.000000</trueHeading>
<magneticHeading>0.000000</magneticHeading>
<gpsHeading>0.000000</gpsHeading>
<haccuracy>-1.000000</haccuracy>
<vaccuracy>-1.000000</vaccuracy>
<internetconnect>-1</internetconnect>
</trkpt>
<trkpt lat="35.020824" lon="136.424441">
<ele>1180.000000</ele>
<time>2026-03-27T12:48:33Z</time>
<speed>0.000000</speed>
<trueHeading>0.000000</trueHeading>
<magneticHeading>0.000000</magneticHeading>
<gpsHeading>0.000000</gpsHeading>
<haccuracy>-1.000000</haccuracy>
<vaccuracy>-1.000000</vaccuracy>
<internetconnect>-1</internetconnect>
</trkpt>
<trkpt lat="35.020727" lon="136.424521">
<ele>1186.000000</ele>
<time>2026-03-27T12:49:05Z</time>
<speed>0.000000</speed>
<trueHeading>0.000000</trueHeading>
<magneticHeading>0.000000</magneticHeading>
<gpsHeading>0.000000</gpsHeading>
<haccuracy>-1.000000</haccuracy>
<vaccuracy>-1.000000</vaccuracy>
<internetconnect>-1</internetconnect>
</trkpt>
<trkpt lat="35.020679" lon="136.424553">
<ele>1188.000000</ele>
<time>2026-03-27T12:49:20Z</time>
<speed>0.000000</speed>
<trueHeading>0.000000</trueHeading>
<magneticHeading>0.000000</magneticHeading>
<gpsHeading>0.000000</gpsHeading>
<haccuracy>-1.000000</haccuracy>
<vaccuracy>-1.000000</vaccuracy>
<internetconnect>-1</internetconnect>
</trkpt>
<trkpt lat="35.020679" lon="136.424553">
<ele>1188.000000</ele>
<time>2026-03-27T12:49:20Z</time>
<speed>0.000000</speed>
<trueHeading>0.000000</trueHeading>
<magneticHeading>0.000000</magneticHeading>
<gpsHeading>0.000000</gpsHeading>
<haccuracy>-1.000000</haccuracy>
<vaccuracy>-1.000000</vaccuracy>
<internetconnect>-1</internetconnect>
</trkpt>
<trkpt lat="35.020675" lon="136.424392">
<ele>1186.000000</ele>
<time>2026-03-27T12:49:55Z</time>
<speed>0.000000</speed>
<trueHeading>0.000000</trueHeading>
<magneticHeading>0.000000</magneticHeading>
<gpsHeading>0.000000</gpsHeading>
<haccuracy>-1.000000</haccuracy>
<vaccuracy>-1.000000</vaccuracy>
<internetconnect>-1</internetconnect>
</trkpt>
<trkpt lat="35.020666" lon="136.424296">
<ele>1184.000000</ele>
<time>2026-03-27T12:50:17Z</time>
<speed>0.000000</speed>
<trueHeading>0.000000</trueHeading>
<magneticHeading>0.000000</magneticHeading>
<gpsHeading>0.000000</gpsHeading>
<haccuracy>-1.000000</haccuracy>
<vaccuracy>-1.000000</vaccuracy>
<internetconnect>-1</internetconnect>
</trkpt>
<trkpt lat="35.020631" lon="136.424151">
<ele>1183.000000</ele>
<time>2026-03-27T12:50:50Z</time>
<speed>0.000000</speed>
<trueHeading>0.000000</trueHeading>
<magneticHeading>0.000000</magneticHeading>
<gpsHeading>0.000000</gpsHeading>
<haccuracy>-1.000000</haccuracy>
<vaccuracy>-1.000000</vaccuracy>
<internetconnect>-1</internetconnect>
</trkpt>
<trkpt lat="35.020578" lon="136.424044">
<ele>1181.000000</ele>
<time>2026-03-27T12:51:18Z</time>
<speed>0.000000</speed>
<trueHeading>0.000000</trueHeading>
<magneticHeading>0.000000</magneticHeading>
<gpsHeading>0.000000</gpsHeading>
<haccuracy>-1.000000</haccuracy>
<vaccuracy>-1.000000</vaccuracy>
<internetconnect>-1</internetconnect>
</trkpt>
<trkpt lat="35.020429" lon="136.423910">
<ele>1178.000000</ele>
<time>2026-03-27T12:52:08Z</time>
<speed>0.000000</speed>
<trueHeading>0.000000</trueHeading>
<magneticHeading>0.000000</magneticHeading>
<gpsHeading>0.000000</gpsHeading>
<haccuracy>-1.000000</haccuracy>
<vaccuracy>-1.000000</vaccuracy>
<internetconnect>-1</internetconnect>
</trkpt>
<trkpt lat="35.020165" lon="136.423819">
<ele>1176.000000</ele>
<time>2026-03-27T12:53:22Z</time>
<speed>0.000000</speed>
<trueHeading>0.000000</trueHeading>
<magneticHeading>0.000000</magneticHeading>
<gpsHeading>0.000000</gpsHeading>
<haccuracy>-1.000000</haccuracy>
<vaccuracy>-1.000000</vaccuracy>
<internetconnect>-1</internetconnect>
</trkpt>
<trkpt lat="35.020165" lon="136.423819">
<ele>1176.000000</ele>
<time>2026-03-27T12:53:22Z</time>
<speed>0.000000</speed>
<trueHeading>0.000000</trueHeading>
<magneticHeading>0.000000</magneticHeading>
<gpsHeading>0.000000</gpsHeading>
<haccuracy>-1.000000</haccuracy>
<vaccuracy>-1.000000</vaccuracy>
<internetconnect>-1</internetconnect>
</trkpt>
<trkpt lat="35.020095" lon="136.423781">
<ele>1174.000000</ele>
<time>2026-03-27T12:53:42Z</time>
<speed>0.000000</speed>
<trueHeading>0.000000</trueHeading>
<magneticHeading>0.000000</magneticHeading>
<gpsHeading>0.000000</gpsHeading>
<haccuracy>-1.000000</haccuracy>
<vaccuracy>-1.000000</vaccuracy>
<internetconnect>-1</internetconnect>
</trkpt>
<trkpt lat="35.019945" lon="136.423706">
<ele>1171.000000</ele>
<time>2026-03-27T12:54:26Z</time>
<speed>0.000000</speed>
<trueHeading>0.000000</trueHeading>
<magneticHeading>0.000000</magneticHeading>
<gpsHeading>0.000000</gpsHeading>
<haccuracy>-1.000000</haccuracy>
<vaccuracy>-1.000000</vaccuracy>
<internetconnect>-1</internetconnect>
</trkpt>
<trkpt lat="35.019734" lon="136.423636">
<ele>1168.000000</ele>
<time>2026-03-27T12:55:25Z</time>
<speed>0.000000</speed>
<trueHeading>0.000000</trueHeading>
<magneticHeading>0.000000</magneticHeading>
<gpsHeading>0.000000</gpsHeading>
<haccuracy>-1.000000</haccuracy>
<vaccuracy>-1.000000</vaccuracy>
<internetconnect>-1</internetconnect>
</trkpt>
<trkpt lat="35.019734" lon="136.423636">
<ele>1168.000000</ele>
<time>2026-03-27T12:55:25Z</time>
<speed>0.000000</speed>
<trueHeading>0.000000</trueHeading>
<magneticHeading>0.000000</magneticHeading>
<gpsHeading>0.000000</gpsHeading>
<haccuracy>-1.000000</haccuracy>
<vaccuracy>-1.000000</vaccuracy>
<internetconnect>-1</internetconnect>
</trkpt>
<trkpt lat="35.019677" lon="136.423636">
<ele>1168.000000</ele>
<time>2026-03-27T12:55:40Z</time>
<speed>0.000000</speed>
<trueHeading>0.000000</trueHeading>
<magneticHeading>0.000000</magneticHeading>
<gpsHeading>0.000000</gpsHeading>
<haccuracy>-1.000000</haccuracy>
<vaccuracy>-1.000000</vaccuracy>
<internetconnect>-1</internetconnect>
</trkpt>
<trkpt lat="35.019607" lon="136.423647">
<ele>1167.000000</ele>
<time>2026-03-27T12:55:59Z</time>
<speed>0.000000</speed>
<trueHeading>0.000000</trueHeading>
<magneticHeading>0.000000</magneticHeading>
<gpsHeading>0.000000</gpsHeading>
<haccuracy>-1.000000</haccuracy>
<vaccuracy>-1.000000</vaccuracy>
<internetconnect>-1</internetconnect>
</trkpt>
<trkpt lat="35.019449" lon="136.423674">
<ele>1163.000000</ele>
<time>2026-03-27T12:56:42Z</time>
<speed>0.000000</speed>
<trueHeading>0.000000</trueHeading>
<magneticHeading>0.000000</magneticHeading>
<gpsHeading>0.000000</gpsHeading>
<haccuracy>-1.000000</haccuracy>
<vaccuracy>-1.000000</vaccuracy>
<internetconnect>-1</internetconnect>
</trkpt>
<trkpt lat="35.019352" lon="136.423679">
<ele>1163.000000</ele>
<time>2026-03-27T12:57:08Z</time>
<speed>0.000000</speed>
<trueHeading>0.000000</trueHeading>
<magneticHeading>0.000000</magneticHeading>
<gpsHeading>0.000000</gpsHeading>
<haccuracy>-1.000000</haccuracy>
<vaccuracy>-1.000000</vaccuracy>
<internetconnect>-1</internetconnect>
</trkpt>
<trkpt lat="35.019304" lon="136.423674">
<ele>1161.000000</ele>
<time>2026-03-27T12:57:21Z</time>
<speed>0.000000</speed>
<trueHeading>0.000000</trueHeading>
<magneticHeading>0.000000</magneticHeading>
<gpsHeading>0.000000</gpsHeading>
<haccuracy>-1.000000</haccuracy>
<vaccuracy>-1.000000</vaccuracy>
<internetconnect>-1</internetconnect>
</trkpt>
<trkpt lat="35.019269" lon="136.423647">
<ele>1161.000000</ele>
<time>2026-03-27T12:57:32Z</time>
<speed>0.000000</speed>
<trueHeading>0.000000</trueHeading>
<magneticHeading>0.000000</magneticHeading>
<gpsHeading>0.000000</gpsHeading>
<haccuracy>-1.000000</haccuracy>
<vaccuracy>-1.000000</vaccuracy>
<internetconnect>-1</internetconnect>
</trkpt>
<trkpt lat="35.019159" lon="136.423416">
<ele>1161.000000</ele>
<time>2026-03-27T12:58:31Z</time>
<speed>0.000000</speed>
<trueHeading>0.000000</trueHeading>
<magneticHeading>0.000000</magneticHeading>
<gpsHeading>0.000000</gpsHeading>
<haccuracy>-1.000000</haccuracy>
<vaccuracy>-1.000000</vaccuracy>
<internetconnect>-1</internetconnect>
</trkpt>
<trkpt lat="35.019159" lon="136.423416">
<ele>1161.000000</ele>
<time>2026-03-27T12:58:31Z</time>
<speed>0.000000</speed>
<trueHeading>0.000000</trueHeading>
<magneticHeading>0.000000</magneticHeading>
<gpsHeading>0.000000</gpsHeading>
<haccuracy>-1.000000</haccuracy>
<vaccuracy>-1.000000</vaccuracy>
<internetconnect>-1</internetconnect>
</trkpt>
<trkpt lat="35.019198" lon="136.423389">
<ele>1161.000000</ele>
<time>2026-03-27T12:58:44Z</time>
<speed>0.000000</speed>
<trueHeading>0.000000</trueHeading>
<magneticHeading>0.000000</magneticHeading>
<gpsHeading>0.000000</gpsHeading>
<haccuracy>-1.000000</haccuracy>
<vaccuracy>-1.000000</vaccuracy>
<internetconnect>-1</internetconnect>
</trkpt>
<trkpt lat="35.019242" lon="136.423336">
<ele>1161.000000</ele>
<time>2026-03-27T12:59:00Z</time>
<speed>0.000000</speed>
<trueHeading>0.000000</trueHeading>
<magneticHeading>0.000000</magneticHeading>
<gpsHeading>0.000000</gpsHeading>
<haccuracy>-1.000000</haccuracy>
<vaccuracy>-1.000000</vaccuracy>
<internetconnect>-1</internetconnect>
</trkpt>
<trkpt lat="35.019286" lon="136.423244">
<ele>1161.000000</ele>
<time>2026-03-27T12:59:24Z</time>
<speed>0.000000</speed>
<trueHeading>0.000000</trueHeading>
<magneticHeading>0.000000</magneticHeading>
<gpsHeading>0.000000</gpsHeading>
<haccuracy>-1.000000</haccuracy>
<vaccuracy>-1.000000</vaccuracy>
<internetconnect>-1</internetconnect>
</trkpt>
<trkpt lat="35.019352" lon="136.423094">
<ele>1160.000000</ele>
<time>2026-03-27T13:00:01Z</time>
<speed>0.000000</speed>
<trueHeading>0.000000</trueHeading>
<magneticHeading>0.000000</magneticHeading>
<gpsHeading>0.000000</gpsHeading>
<haccuracy>-1.000000</haccuracy>
<vaccuracy>-1.000000</vaccuracy>
<internetconnect>-1</internetconnect>
</trkpt>
<trkpt lat="35.019379" lon="136.423057">
<ele>1160.000000</ele>
<time>2026-03-27T13:00:12Z</time>
<speed>0.000000</speed>
<trueHeading>0.000000</trueHeading>
<magneticHeading>0.000000</magneticHeading>
<gpsHeading>0.000000</gpsHeading>
<haccuracy>-1.000000</haccuracy>
<vaccuracy>-1.000000</vaccuracy>
<internetconnect>-1</internetconnect>
</trkpt>
<trkpt lat="35.019418" lon="136.423025">
<ele>1160.000000</ele>
<time>2026-03-27T13:00:25Z</time>
<speed>0.000000</speed>
<trueHeading>0.000000</trueHeading>
<magneticHeading>0.000000</magneticHeading>
<gpsHeading>0.000000</gpsHeading>
<haccuracy>-1.000000</haccuracy>
<vaccuracy>-1.000000</vaccuracy>
<internetconnect>-1</internetconnect>
</trkpt>
<trkpt lat="35.019510" lon="136.422982">
<ele>1159.000000</ele>
<time>2026-03-27T13:00:52Z</time>
<speed>0.000000</speed>
<trueHeading>0.000000</trueHeading>
<magneticHeading>0.000000</magneticHeading>
<gpsHeading>0.000000</gpsHeading>
<haccuracy>-1.000000</haccuracy>
<vaccuracy>-1.000000</vaccuracy>
<internetconnect>-1</internetconnect>
</trkpt>
<trkpt lat="35.019559" lon="136.422944">
<ele>1158.000000</ele>
<time>2026-03-27T13:01:07Z</time>
<speed>0.000000</speed>
<trueHeading>0.000000</trueHeading>
<magneticHeading>0.000000</magneticHeading>
<gpsHeading>0.000000</gpsHeading>
<haccuracy>-1.000000</haccuracy>
<vaccuracy>-1.000000</vaccuracy>
<internetconnect>-1</internetconnect>
</trkpt>
<trkpt lat="35.019594" lon="136.422885">
<ele>1158.000000</ele>
<time>2026-03-27T13:01:23Z</time>
<speed>0.000000</speed>
<trueHeading>0.000000</trueHeading>
<magneticHeading>0.000000</magneticHeading>
<gpsHeading>0.000000</gpsHeading>
<haccuracy>-1.000000</haccuracy>
<vaccuracy>-1.000000</vaccuracy>
<internetconnect>-1</internetconnect>
</trkpt>
<trkpt lat="35.019647" lon="136.422756">
<ele>1155.000000</ele>
<time>2026-03-27T13:01:55Z</time>
<speed>0.000000</speed>
<trueHeading>0.000000</trueHeading>
<magneticHeading>0.000000</magneticHeading>
<gpsHeading>0.000000</gpsHeading>
<haccuracy>-1.000000</haccuracy>
<vaccuracy>-1.000000</vaccuracy>
<internetconnect>-1</internetconnect>
</trkpt>
<trkpt lat="35.019677" lon="136.422697">
<ele>1154.000000</ele>
<time>2026-03-27T13:02:11Z</time>
<speed>0.000000</speed>
<trueHeading>0.000000</trueHeading>
<magneticHeading>0.000000</magneticHeading>
<gpsHeading>0.000000</gpsHeading>
<haccuracy>-1.000000</haccuracy>
<vaccuracy>-1.000000</vaccuracy>
<internetconnect>-1</internetconnect>
</trkpt>
<trkpt lat="35.019743" lon="136.422622">
<ele>1154.000000</ele>
<time>2026-03-27T13:02:35Z</time>
<speed>0.000000</speed>
<trueHeading>0.000000</trueHeading>
<magneticHeading>0.000000</magneticHeading>
<gpsHeading>0.000000</gpsHeading>
<haccuracy>-1.000000</haccuracy>
<vaccuracy>-1.000000</vaccuracy>
<internetconnect>-1</internetconnect>
</trkpt>
<trkpt lat="35.019937" lon="136.422445">
<ele>1152.000000</ele>
<time>2026-03-27T13:03:40Z</time>
<speed>0.000000</speed>
<trueHeading>0.000000</trueHeading>
<magneticHeading>0.000000</magneticHeading>
<gpsHeading>0.000000</gpsHeading>
<haccuracy>-1.000000</haccuracy>
<vaccuracy>-1.000000</vaccuracy>
<internetconnect>-1</internetconnect>
</trkpt>
<trkpt lat="35.020060" lon="136.422333">
<ele>1151.000000</ele>
<time>2026-03-27T13:04:22Z</time>
<speed>0.000000</speed>
<trueHeading>0.000000</trueHeading>
<magneticHeading>0.000000</magneticHeading>
<gpsHeading>0.000000</gpsHeading>
<haccuracy>-1.000000</haccuracy>
<vaccuracy>-1.000000</vaccuracy>
<internetconnect>-1</internetconnect>
</trkpt>
<trkpt lat="35.020125" lon="136.422241">
<ele>1150.000000</ele>
<time>2026-03-27T13:04:48Z</time>
<speed>0.000000</speed>
<trueHeading>0.000000</trueHeading>
<magneticHeading>0.000000</magneticHeading>
<gpsHeading>0.000000</gpsHeading>
<haccuracy>-1.000000</haccuracy>
<vaccuracy>-1.000000</vaccuracy>
<internetconnect>-1</internetconnect>
</trkpt>
<trkpt lat="35.020209" lon="136.422059">
<ele>1149.000000</ele>
<time>2026-03-27T13:05:35Z</time>
<speed>0.000000</speed>
<trueHeading>0.000000</trueHeading>
<magneticHeading>0.000000</magneticHeading>
<gpsHeading>0.000000</gpsHeading>
<haccuracy>-1.000000</haccuracy>
<vaccuracy>-1.000000</vaccuracy>
<internetconnect>-1</internetconnect>
</trkpt>
<trkpt lat="35.020216" lon="136.422025">
<ele>1150.000000</ele>
<time>2026-03-27T13:05:42Z</time>
<speed>0.000000</speed>
<trueHeading>0.000000</trueHeading>
<magneticHeading>0.000000</magneticHeading>
<gpsHeading>0.000000</gpsHeading>
<haccuracy>-1.000000</haccuracy>
<vaccuracy>-1.000000</vaccuracy>
<internetconnect>-1</internetconnect>
</trkpt>
<trkpt lat="35.020216" lon="136.422025">
<ele>1150.000000</ele>
<time>2026-03-27T13:05:42Z</time>
<speed>0.000000</speed>
<trueHeading>0.000000</trueHeading>
<magneticHeading>0.000000</magneticHeading>
<gpsHeading>0.000000</gpsHeading>
<haccuracy>-1.000000</haccuracy>
<vaccuracy>-1.000000</vaccuracy>
<internetconnect>-1</internetconnect>
</trkpt>
<trkpt lat="35.020248" lon="136.421887">
<ele>1149.000000</ele>
<time>2026-03-27T13:06:14Z</time>
<speed>0.000000</speed>
<trueHeading>0.000000</trueHeading>
<magneticHeading>0.000000</magneticHeading>
<gpsHeading>0.000000</gpsHeading>
<haccuracy>-1.000000</haccuracy>
<vaccuracy>-1.000000</vaccuracy>
<internetconnect>-1</internetconnect>
</trkpt>
<trkpt lat="35.020270" lon="136.421780">
<ele>1149.000000</ele>
<time>2026-03-27T13:06:39Z</time>
<speed>0.000000</speed>
<trueHeading>0.000000</trueHeading>
<magneticHeading>0.000000</magneticHeading>
<gpsHeading>0.000000</gpsHeading>
<haccuracy>-1.000000</haccuracy>
<vaccuracy>-1.000000</vaccuracy>
<internetconnect>-1</internetconnect>
</trkpt>
<trkpt lat="35.020284" lon="136.421651">
<ele>1150.000000</ele>
<time>2026-03-27T13:07:07Z</time>
<speed>0.000000</speed>
<trueHeading>0.000000</trueHeading>
<magneticHeading>0.000000</magneticHeading>
<gpsHeading>0.000000</gpsHeading>
<haccuracy>-1.000000</haccuracy>
<vaccuracy>-1.000000</vaccuracy>
<internetconnect>-1</internetconnect>
</trkpt>
<trkpt lat="35.020275" lon="136.421367">
<ele>1151.000000</ele>
<time>2026-03-27T13:08:10Z</time>
<speed>0.000000</speed>
<trueHeading>0.000000</trueHeading>
<magneticHeading>0.000000</magneticHeading>
<gpsHeading>0.000000</gpsHeading>
<haccuracy>-1.000000</haccuracy>
<vaccuracy>-1.000000</vaccuracy>
<internetconnect>-1</internetconnect>
</trkpt>
<trkpt lat="35.020270" lon="136.421260">
<ele>1150.000000</ele>
<time>2026-03-27T13:08:34Z</time>
<speed>0.000000</speed>
<trueHeading>0.000000</trueHeading>
<magneticHeading>0.000000</magneticHeading>
<gpsHeading>0.000000</gpsHeading>
<haccuracy>-1.000000</haccuracy>
<vaccuracy>-1.000000</vaccuracy>
<internetconnect>-1</internetconnect>
</trkpt>
<trkpt lat="35.020284" lon="136.421131">
<ele>1151.000000</ele>
<time>2026-03-27T13:09:03Z</time>
<speed>0.000000</speed>
<trueHeading>0.000000</trueHeading>
<magneticHeading>0.000000</magneticHeading>
<gpsHeading>0.000000</gpsHeading>
<haccuracy>-1.000000</haccuracy>
<vaccuracy>-1.000000</vaccuracy>
<internetconnect>-1</internetconnect>
</trkpt>
<trkpt lat="35.020319" lon="136.420906">
<ele>1152.000000</ele>
<time>2026-03-27T13:09:54Z</time>
<speed>0.000000</speed>
<trueHeading>0.000000</trueHeading>
<magneticHeading>0.000000</magneticHeading>
<gpsHeading>0.000000</gpsHeading>
<haccuracy>-1.000000</haccuracy>
<vaccuracy>-1.000000</vaccuracy>
<internetconnect>-1</internetconnect>
</trkpt>
<trkpt lat="35.020358" lon="136.420820">
<ele>1153.000000</ele>
<time>2026-03-27T13:10:15Z</time>
<speed>0.000000</speed>
<trueHeading>0.000000</trueHeading>
<magneticHeading>0.000000</magneticHeading>
<gpsHeading>0.000000</gpsHeading>
<haccuracy>-1.000000</haccuracy>
<vaccuracy>-1.000000</vaccuracy>
<internetconnect>-1</internetconnect>
</trkpt>
<trkpt lat="35.020398" lon="136.420777">
<ele>1153.000000</ele>
<time>2026-03-27T13:10:30Z</time>
<speed>0.000000</speed>
<trueHeading>0.000000</trueHeading>
<magneticHeading>0.000000</magneticHeading>
<gpsHeading>0.000000</gpsHeading>
<haccuracy>-1.000000</haccuracy>
<vaccuracy>-1.000000</vaccuracy>
<internetconnect>-1</internetconnect>
</trkpt>
<trkpt lat="35.020451" lon="136.420761">
<ele>1153.000000</ele>
<time>2026-03-27T13:10:44Z</time>
<speed>0.000000</speed>
<trueHeading>0.000000</trueHeading>
<magneticHeading>0.000000</magneticHeading>
<gpsHeading>0.000000</gpsHeading>
<haccuracy>-1.000000</haccuracy>
<vaccuracy>-1.000000</vaccuracy>
<internetconnect>-1</internetconnect>
</trkpt>
<trkpt lat="35.020574" lon="136.420766">
<ele>1154.000000</ele>
<time>2026-03-27T13:11:17Z</time>
<speed>0.000000</speed>
<trueHeading>0.000000</trueHeading>
<magneticHeading>0.000000</magneticHeading>
<gpsHeading>0.000000</gpsHeading>
<haccuracy>-1.000000</haccuracy>
<vaccuracy>-1.000000</vaccuracy>
<internetconnect>-1</internetconnect>
</trkpt>
<trkpt lat="35.020574" lon="136.420766">
<ele>1154.000000</ele>
<time>2026-03-27T13:11:17Z</time>
<speed>0.000000</speed>
<trueHeading>0.000000</trueHeading>
<magneticHeading>0.000000</magneticHeading>
<gpsHeading>0.000000</gpsHeading>
<haccuracy>-1.000000</haccuracy>
<vaccuracy>-1.000000</vaccuracy>
<internetconnect>-1</internetconnect>
</trkpt>
<trkpt lat="35.020666" lon="136.420755">
<ele>1158.000000</ele>
<time>2026-03-27T13:11:42Z</time>
<speed>0.000000</speed>
<trueHeading>0.000000</trueHeading>
<magneticHeading>0.000000</magneticHeading>
<gpsHeading>0.000000</gpsHeading>
<haccuracy>-1.000000</haccuracy>
<vaccuracy>-1.000000</vaccuracy>
<internetconnect>-1</internetconnect>
</trkpt>
<trkpt lat="35.020754" lon="136.420734">
<ele>1159.000000</ele>
<time>2026-03-27T13:12:07Z</time>
<speed>0.000000</speed>
<trueHeading>0.000000</trueHeading>
<magneticHeading>0.000000</magneticHeading>
<gpsHeading>0.000000</gpsHeading>
<haccuracy>-1.000000</haccuracy>
<vaccuracy>-1.000000</vaccuracy>
<internetconnect>-1</internetconnect>
</trkpt>
<trkpt lat="35.020833" lon="136.420675">
<ele>1162.000000</ele>
<time>2026-03-27T13:12:31Z</time>
<speed>0.000000</speed>
<trueHeading>0.000000</trueHeading>
<magneticHeading>0.000000</magneticHeading>
<gpsHeading>0.000000</gpsHeading>
<haccuracy>-1.000000</haccuracy>
<vaccuracy>-1.000000</vaccuracy>
<internetconnect>-1</internetconnect>
</trkpt>
<trkpt lat="35.020885" lon="136.420611">
<ele>1166.000000</ele>
<time>2026-03-27T13:12:52Z</time>
<speed>0.000000</speed>
<trueHeading>0.000000</trueHeading>
<magneticHeading>0.000000</magneticHeading>
<gpsHeading>0.000000</gpsHeading>
<haccuracy>-1.000000</haccuracy>
<vaccuracy>-1.000000</vaccuracy>
<internetconnect>-1</internetconnect>
</trkpt>
<trkpt lat="35.020903" lon="136.420535">
<ele>1169.000000</ele>
<time>2026-03-27T13:13:09Z</time>
<speed>0.000000</speed>
<trueHeading>0.000000</trueHeading>
<magneticHeading>0.000000</magneticHeading>
<gpsHeading>0.000000</gpsHeading>
<haccuracy>-1.000000</haccuracy>
<vaccuracy>-1.000000</vaccuracy>
<internetconnect>-1</internetconnect>
</trkpt>
<trkpt lat="35.020899" lon="136.420450">
<ele>1171.000000</ele>
<time>2026-03-27T13:13:28Z</time>
<speed>0.000000</speed>
<trueHeading>0.000000</trueHeading>
<magneticHeading>0.000000</magneticHeading>
<gpsHeading>0.000000</gpsHeading>
<haccuracy>-1.000000</haccuracy>
<vaccuracy>-1.000000</vaccuracy>
<internetconnect>-1</internetconnect>
</trkpt>
<trkpt lat="35.020885" lon="136.420411">
<ele>1172.000000</ele>
<time>2026-03-27T13:13:37Z</time>
<speed>0.000000</speed>
<trueHeading>0.000000</trueHeading>
<magneticHeading>0.000000</magneticHeading>
<gpsHeading>0.000000</gpsHeading>
<haccuracy>-1.000000</haccuracy>
<vaccuracy>-1.000000</vaccuracy>
<internetconnect>-1</internetconnect>
</trkpt>
<trkpt lat="35.020885" lon="136.420411">
<ele>1172.000000</ele>
<time>2026-03-27T13:13:37Z</time>
<speed>0.000000</speed>
<trueHeading>0.000000</trueHeading>
<magneticHeading>0.000000</magneticHeading>
<gpsHeading>0.000000</gpsHeading>
<haccuracy>-1.000000</haccuracy>
<vaccuracy>-1.000000</vaccuracy>
<internetconnect>-1</internetconnect>
</trkpt>
<trkpt lat="35.020859" lon="136.420337">
<ele>1173.000000</ele>
<time>2026-03-27T13:13:55Z</time>
<speed>0.000000</speed>
<trueHeading>0.000000</trueHeading>
<magneticHeading>0.000000</magneticHeading>
<gpsHeading>0.000000</gpsHeading>
<haccuracy>-1.000000</haccuracy>
<vaccuracy>-1.000000</vaccuracy>
<internetconnect>-1</internetconnect>
</trkpt>
<trkpt lat="35.020675" lon="136.420010">
<ele>1183.000000</ele>
<time>2026-03-27T13:15:23Z</time>
<speed>0.000000</speed>
<trueHeading>0.000000</trueHeading>
<magneticHeading>0.000000</magneticHeading>
<gpsHeading>0.000000</gpsHeading>
<haccuracy>-1.000000</haccuracy>
<vaccuracy>-1.000000</vaccuracy>
<internetconnect>-1</internetconnect>
</trkpt>
<trkpt lat="35.020617" lon="136.419870">
<ele>1185.000000</ele>
<time>2026-03-27T13:15:57Z</time>
<speed>0.000000</speed>
<trueHeading>0.000000</trueHeading>
<magneticHeading>0.000000</magneticHeading>
<gpsHeading>0.000000</gpsHeading>
<haccuracy>-1.000000</haccuracy>
<vaccuracy>-1.000000</vaccuracy>
<internetconnect>-1</internetconnect>
</trkpt>
<trkpt lat="35.020613" lon="136.419736">
<ele>1189.000000</ele>
<time>2026-03-27T13:16:27Z</time>
<speed>0.000000</speed>
<trueHeading>0.000000</trueHeading>
<magneticHeading>0.000000</magneticHeading>
<gpsHeading>0.000000</gpsHeading>
<haccuracy>-1.000000</haccuracy>
<vaccuracy>-1.000000</vaccuracy>
<internetconnect>-1</internetconnect>
</trkpt>
<trkpt lat="35.020635" lon="136.419602">
<ele>1192.000000</ele>
<time>2026-03-27T13:16:57Z</time>
<speed>0.000000</speed>
<trueHeading>0.000000</trueHeading>
<magneticHeading>0.000000</magneticHeading>
<gpsHeading>0.000000</gpsHeading>
<haccuracy>-1.000000</haccuracy>
<vaccuracy>-1.000000</vaccuracy>
<internetconnect>-1</internetconnect>
</trkpt>
<trkpt lat="35.020679" lon="136.419452">
<ele>1196.000000</ele>
<time>2026-03-27T13:17:33Z</time>
<speed>0.000000</speed>
<trueHeading>0.000000</trueHeading>
<magneticHeading>0.000000</magneticHeading>
<gpsHeading>0.000000</gpsHeading>
<haccuracy>-1.000000</haccuracy>
<vaccuracy>-1.000000</vaccuracy>
<internetconnect>-1</internetconnect>
</trkpt>
<trkpt lat="35.020688" lon="136.419377">
<ele>1196.000000</ele>
<time>2026-03-27T13:17:49Z</time>
<speed>0.000000</speed>
<trueHeading>0.000000</trueHeading>
<magneticHeading>0.000000</magneticHeading>
<gpsHeading>0.000000</gpsHeading>
<haccuracy>-1.000000</haccuracy>
<vaccuracy>-1.000000</vaccuracy>
<internetconnect>-1</internetconnect>
</trkpt>
<trkpt lat="35.020688" lon="136.419302">
<ele>1197.000000</ele>
<time>2026-03-27T13:18:06Z</time>
<speed>0.000000</speed>
<trueHeading>0.000000</trueHeading>
<magneticHeading>0.000000</magneticHeading>
<gpsHeading>0.000000</gpsHeading>
<haccuracy>-1.000000</haccuracy>
<vaccuracy>-1.000000</vaccuracy>
<internetconnect>-1</internetconnect>
</trkpt>
<trkpt lat="35.020661" lon="136.419253">
<ele>1199.000000</ele>
<time>2026-03-27T13:18:19Z</time>
<speed>0.000000</speed>
<trueHeading>0.000000</trueHeading>
<magneticHeading>0.000000</magneticHeading>
<gpsHeading>0.000000</gpsHeading>
<haccuracy>-1.000000</haccuracy>
<vaccuracy>-1.000000</vaccuracy>
<internetconnect>-1</internetconnect>
</trkpt>
<trkpt lat="35.020587" lon="136.419184">
<ele>1201.000000</ele>
<time>2026-03-27T13:18:44Z</time>
<speed>0.000000</speed>
<trueHeading>0.000000</trueHeading>
<magneticHeading>0.000000</magneticHeading>
<gpsHeading>0.000000</gpsHeading>
<haccuracy>-1.000000</haccuracy>
<vaccuracy>-1.000000</vaccuracy>
<internetconnect>-1</internetconnect>
</trkpt>
<trkpt lat="35.020494" lon="136.419076">
<ele>1203.000000</ele>
<time>2026-03-27T13:19:19Z</time>
<speed>0.000000</speed>
<trueHeading>0.000000</trueHeading>
<magneticHeading>0.000000</magneticHeading>
<gpsHeading>0.000000</gpsHeading>
<haccuracy>-1.000000</haccuracy>
<vaccuracy>-1.000000</vaccuracy>
<internetconnect>-1</internetconnect>
</trkpt>
<trkpt lat="35.020407" lon="136.418990">
<ele>1205.000000</ele>
<time>2026-03-27T13:19:49Z</time>
<speed>0.000000</speed>
<trueHeading>0.000000</trueHeading>
<magneticHeading>0.000000</magneticHeading>
<gpsHeading>0.000000</gpsHeading>
<haccuracy>-1.000000</haccuracy>
<vaccuracy>-1.000000</vaccuracy>
<internetconnect>-1</internetconnect>
</trkpt>
<trkpt lat="35.020393" lon="136.418894">
<ele>1207.000000</ele>
<time>2026-03-27T13:20:11Z</time>
<speed>0.000000</speed>
<trueHeading>0.000000</trueHeading>
<magneticHeading>0.000000</magneticHeading>
<gpsHeading>0.000000</gpsHeading>
<haccuracy>-1.000000</haccuracy>
<vaccuracy>-1.000000</vaccuracy>
<internetconnect>-1</internetconnect>
</trkpt>
<trkpt lat="35.020473" lon="136.418695">
<ele>1208.000000</ele>
<time>2026-03-27T13:21:00Z</time>
<speed>0.000000</speed>
<trueHeading>0.000000</trueHeading>
<magneticHeading>0.000000</magneticHeading>
<gpsHeading>0.000000</gpsHeading>
<haccuracy>-1.000000</haccuracy>
<vaccuracy>-1.000000</vaccuracy>
<internetconnect>-1</internetconnect>
</trkpt>
<trkpt lat="35.020409" lon="136.418618">
<ele>1208.000000</ele>
<time>2026-03-27T13:21:00Z</time>
<speed>0.000000</speed>
<trueHeading>0.000000</trueHeading>
<magneticHeading>0.000000</magneticHeading>
<gpsHeading>0.000000</gpsHeading>
<haccuracy>-1.000000</haccuracy>
<vaccuracy>-1.000000</vaccuracy>
<internetconnect>-1</internetconnect>
</trkpt>
<trkpt lat="35.020360" lon="136.418512">
<ele>1204.000000</ele>
<time>2026-03-27T13:21:15Z</time>
<speed>0.000000</speed>
<trueHeading>0.000000</trueHeading>
<magneticHeading>0.000000</magneticHeading>
<gpsHeading>0.000000</gpsHeading>
<haccuracy>-1.000000</haccuracy>
<vaccuracy>-1.000000</vaccuracy>
<internetconnect>-1</internetconnect>
</trkpt>
<trkpt lat="35.020311" lon="136.418417">
<ele>1204.000000</ele>
<time>2026-03-27T13:21:30Z</time>
<speed>0.000000</speed>
<trueHeading>0.000000</trueHeading>
<magneticHeading>0.000000</magneticHeading>
<gpsHeading>0.000000</gpsHeading>
<haccuracy>-1.000000</haccuracy>
<vaccuracy>-1.000000</vaccuracy>
<internetconnect>-1</internetconnect>
</trkpt>
<trkpt lat="35.020256" lon="136.418328">
<ele>1201.000000</ele>
<time>2026-03-27T13:21:45Z</time>
<speed>0.000000</speed>
<trueHeading>0.000000</trueHeading>
<magneticHeading>0.000000</magneticHeading>
<gpsHeading>0.000000</gpsHeading>
<haccuracy>-1.000000</haccuracy>
<vaccuracy>-1.000000</vaccuracy>
<internetconnect>-1</internetconnect>
</trkpt>
<trkpt lat="35.020189" lon="136.418247">
<ele>1198.000000</ele>
<time>2026-03-27T13:22:00Z</time>
<speed>0.000000</speed>
<trueHeading>0.000000</trueHeading>
<magneticHeading>0.000000</magneticHeading>
<gpsHeading>0.000000</gpsHeading>
<haccuracy>-1.000000</haccuracy>
<vaccuracy>-1.000000</vaccuracy>
<internetconnect>-1</internetconnect>
</trkpt>
<trkpt lat="35.020128" lon="136.418166">
<ele>1196.000000</ele>
<time>2026-03-27T13:22:14Z</time>
<speed>0.000000</speed>
<trueHeading>0.000000</trueHeading>
<magneticHeading>0.000000</magneticHeading>
<gpsHeading>0.000000</gpsHeading>
<haccuracy>-1.000000</haccuracy>
<vaccuracy>-1.000000</vaccuracy>
<internetconnect>-1</internetconnect>
</trkpt>
<trkpt lat="35.020039" lon="136.418152">
<ele>1194.000000</ele>
<time>2026-03-27T13:22:29Z</time>
<speed>0.000000</speed>
<trueHeading>0.000000</trueHeading>
<magneticHeading>0.000000</magneticHeading>
<gpsHeading>0.000000</gpsHeading>
<haccuracy>-1.000000</haccuracy>
<vaccuracy>-1.000000</vaccuracy>
<internetconnect>-1</internetconnect>
</trkpt>
<trkpt lat="35.019952" lon="136.418187">
<ele>1191.000000</ele>
<time>2026-03-27T13:22:43Z</time>
<speed>0.000000</speed>
<trueHeading>0.000000</trueHeading>
<magneticHeading>0.000000</magneticHeading>
<gpsHeading>0.000000</gpsHeading>
<haccuracy>-1.000000</haccuracy>
<vaccuracy>-1.000000</vaccuracy>
<internetconnect>-1</internetconnect>
</trkpt>
<trkpt lat="35.019862" lon="136.418194">
<ele>1185.000000</ele>
<time>2026-03-27T13:22:58Z</time>
<speed>0.000000</speed>
<trueHeading>0.000000</trueHeading>
<magneticHeading>0.000000</magneticHeading>
<gpsHeading>0.000000</gpsHeading>
<haccuracy>-1.000000</haccuracy>
<vaccuracy>-1.000000</vaccuracy>
<internetconnect>-1</internetconnect>
</trkpt>
<trkpt lat="35.019805" lon="136.418106">
<ele>1184.000000</ele>
<time>2026-03-27T13:23:13Z</time>
<speed>0.000000</speed>
<trueHeading>0.000000</trueHeading>
<magneticHeading>0.000000</magneticHeading>
<gpsHeading>0.000000</gpsHeading>
<haccuracy>-1.000000</haccuracy>
<vaccuracy>-1.000000</vaccuracy>
<internetconnect>-1</internetconnect>
</trkpt>
<trkpt lat="35.019724" lon="136.418053">
<ele>1184.000000</ele>
<time>2026-03-27T13:23:27Z</time>
<speed>0.000000</speed>
<trueHeading>0.000000</trueHeading>
<magneticHeading>0.000000</magneticHeading>
<gpsHeading>0.000000</gpsHeading>
<haccuracy>-1.000000</haccuracy>
<vaccuracy>-1.000000</vaccuracy>
<internetconnect>-1</internetconnect>
</trkpt>
<trkpt lat="35.019637" lon="136.418021">
<ele>1182.000000</ele>
<time>2026-03-27T13:23:42Z</time>
<speed>0.000000</speed>
<trueHeading>0.000000</trueHeading>
<magneticHeading>0.000000</magneticHeading>
<gpsHeading>0.000000</gpsHeading>
<haccuracy>-1.000000</haccuracy>
<vaccuracy>-1.000000</vaccuracy>
<internetconnect>-1</internetconnect>
</trkpt>
<trkpt lat="35.019547" lon="136.418000">
<ele>1182.000000</ele>
<time>2026-03-27T13:23:56Z</time>
<speed>0.000000</speed>
<trueHeading>0.000000</trueHeading>
<magneticHeading>0.000000</magneticHeading>
<gpsHeading>0.000000</gpsHeading>
<haccuracy>-1.000000</haccuracy>
<vaccuracy>-1.000000</vaccuracy>
<internetconnect>-1</internetconnect>
</trkpt>
<trkpt lat="35.019461" lon="136.417965">
<ele>1180.000000</ele>
<time>2026-03-27T13:24:11Z</time>
<speed>0.000000</speed>
<trueHeading>0.000000</trueHeading>
<magneticHeading>0.000000</magneticHeading>
<gpsHeading>0.000000</gpsHeading>
<haccuracy>-1.000000</haccuracy>
<vaccuracy>-1.000000</vaccuracy>
<internetconnect>-1</internetconnect>
</trkpt>
<trkpt lat="35.019409" lon="136.417873">
<ele>1178.000000</ele>
<time>2026-03-27T13:24:26Z</time>
<speed>0.000000</speed>
<trueHeading>0.000000</trueHeading>
<magneticHeading>0.000000</magneticHeading>
<gpsHeading>0.000000</gpsHeading>
<haccuracy>-1.000000</haccuracy>
<vaccuracy>-1.000000</vaccuracy>
<internetconnect>-1</internetconnect>
</trkpt>
<trkpt lat="35.019371" lon="136.417764">
<ele>1176.000000</ele>
<time>2026-03-27T13:24:41Z</time>
<speed>0.000000</speed>
<trueHeading>0.000000</trueHeading>
<magneticHeading>0.000000</magneticHeading>
<gpsHeading>0.000000</gpsHeading>
<haccuracy>-1.000000</haccuracy>
<vaccuracy>-1.000000</vaccuracy>
<internetconnect>-1</internetconnect>
</trkpt>
<trkpt lat="35.019311" lon="136.417682">
<ele>1176.000000</ele>
<time>2026-03-27T13:24:56Z</time>
<speed>0.000000</speed>
<trueHeading>0.000000</trueHeading>
<magneticHeading>0.000000</magneticHeading>
<gpsHeading>0.000000</gpsHeading>
<haccuracy>-1.000000</haccuracy>
<vaccuracy>-1.000000</vaccuracy>
<internetconnect>-1</internetconnect>
</trkpt>
<trkpt lat="35.019253" lon="136.417598">
<ele>1177.000000</ele>
<time>2026-03-27T13:25:10Z</time>
<speed>0.000000</speed>
<trueHeading>0.000000</trueHeading>
<magneticHeading>0.000000</magneticHeading>
<gpsHeading>0.000000</gpsHeading>
<haccuracy>-1.000000</haccuracy>
<vaccuracy>-1.000000</vaccuracy>
<internetconnect>-1</internetconnect>
</trkpt>
<trkpt lat="35.019163" lon="136.417615">
<ele>1174.000000</ele>
<time>2026-03-27T13:25:25Z</time>
<speed>0.000000</speed>
<trueHeading>0.000000</trueHeading>
<magneticHeading>0.000000</magneticHeading>
<gpsHeading>0.000000</gpsHeading>
<haccuracy>-1.000000</haccuracy>
<vaccuracy>-1.000000</vaccuracy>
<internetconnect>-1</internetconnect>
</trkpt>
<trkpt lat="35.019085" lon="136.417682">
<ele>1173.000000</ele>
<time>2026-03-27T13:25:40Z</time>
<speed>0.000000</speed>
<trueHeading>0.000000</trueHeading>
<magneticHeading>0.000000</magneticHeading>
<gpsHeading>0.000000</gpsHeading>
<haccuracy>-1.000000</haccuracy>
<vaccuracy>-1.000000</vaccuracy>
<internetconnect>-1</internetconnect>
</trkpt>
<trkpt lat="35.018998" lon="136.417721">
<ele>1172.000000</ele>
<time>2026-03-27T13:25:55Z</time>
<speed>0.000000</speed>
<trueHeading>0.000000</trueHeading>
<magneticHeading>0.000000</magneticHeading>
<gpsHeading>0.000000</gpsHeading>
<haccuracy>-1.000000</haccuracy>
<vaccuracy>-1.000000</vaccuracy>
<internetconnect>-1</internetconnect>
</trkpt>
<trkpt lat="35.018909" lon="136.417742">
<ele>1171.000000</ele>
<time>2026-03-27T13:26:09Z</time>
<speed>0.000000</speed>
<trueHeading>0.000000</trueHeading>
<magneticHeading>0.000000</magneticHeading>
<gpsHeading>0.000000</gpsHeading>
<haccuracy>-1.000000</haccuracy>
<vaccuracy>-1.000000</vaccuracy>
<internetconnect>-1</internetconnect>
</trkpt>
<trkpt lat="35.018816" lon="136.417742">
<ele>1169.000000</ele>
<time>2026-03-27T13:26:24Z</time>
<speed>0.000000</speed>
<trueHeading>0.000000</trueHeading>
<magneticHeading>0.000000</magneticHeading>
<gpsHeading>0.000000</gpsHeading>
<haccuracy>-1.000000</haccuracy>
<vaccuracy>-1.000000</vaccuracy>
<internetconnect>-1</internetconnect>
</trkpt>
<trkpt lat="35.018724" lon="136.417746">
<ele>1169.000000</ele>
<time>2026-03-27T13:26:39Z</time>
<speed>0.000000</speed>
<trueHeading>0.000000</trueHeading>
<magneticHeading>0.000000</magneticHeading>
<gpsHeading>0.000000</gpsHeading>
<haccuracy>-1.000000</haccuracy>
<vaccuracy>-1.000000</vaccuracy>
<internetconnect>-1</internetconnect>
</trkpt>
<trkpt lat="35.018660" lon="136.417767">
<ele>1169.000000</ele>
<time>2026-03-27T13:26:49Z</time>
<speed>0.000000</speed>
<trueHeading>0.000000</trueHeading>
<magneticHeading>0.000000</magneticHeading>
<gpsHeading>0.000000</gpsHeading>
<haccuracy>-1.000000</haccuracy>
<vaccuracy>-1.000000</vaccuracy>
<internetconnect>-1</internetconnect>
</trkpt>
<trkpt lat="35.018597" lon="136.417757">
<ele>1168.000000</ele>
<time>2026-03-27T13:27:00Z</time>
<speed>0.000000</speed>
<trueHeading>0.000000</trueHeading>
<magneticHeading>0.000000</magneticHeading>
<gpsHeading>0.000000</gpsHeading>
<haccuracy>-1.000000</haccuracy>
<vaccuracy>-1.000000</vaccuracy>
<internetconnect>-1</internetconnect>
</trkpt>
<trkpt lat="35.018557" lon="136.417789">
<ele>1165.000000</ele>
<time>2026-03-27T13:27:00Z</time>
<speed>0.000000</speed>
<trueHeading>0.000000</trueHeading>
<magneticHeading>0.000000</magneticHeading>
<gpsHeading>0.000000</gpsHeading>
<haccuracy>-1.000000</haccuracy>
<vaccuracy>-1.000000</vaccuracy>
<internetconnect>-1</internetconnect>
</trkpt>
<trkpt lat="35.018504" lon="136.417853">
<ele>1165.000000</ele>
<time>2026-03-27T13:27:19Z</time>
<speed>0.000000</speed>
<trueHeading>0.000000</trueHeading>
<magneticHeading>0.000000</magneticHeading>
<gpsHeading>0.000000</gpsHeading>
<haccuracy>-1.000000</haccuracy>
<vaccuracy>-1.000000</vaccuracy>
<internetconnect>-1</internetconnect>
</trkpt>
<trkpt lat="35.018460" lon="136.417934">
<ele>1166.000000</ele>
<time>2026-03-27T13:27:39Z</time>
<speed>0.000000</speed>
<trueHeading>0.000000</trueHeading>
<magneticHeading>0.000000</magneticHeading>
<gpsHeading>0.000000</gpsHeading>
<haccuracy>-1.000000</haccuracy>
<vaccuracy>-1.000000</vaccuracy>
<internetconnect>-1</internetconnect>
</trkpt>
<trkpt lat="35.018425" lon="136.418046">
<ele>1166.000000</ele>
<time>2026-03-27T13:28:04Z</time>
<speed>0.000000</speed>
<trueHeading>0.000000</trueHeading>
<magneticHeading>0.000000</magneticHeading>
<gpsHeading>0.000000</gpsHeading>
<haccuracy>-1.000000</haccuracy>
<vaccuracy>-1.000000</vaccuracy>
<internetconnect>-1</internetconnect>
</trkpt>
<trkpt lat="35.018412" lon="136.418138">
<ele>1165.000000</ele>
<time>2026-03-27T13:28:24Z</time>
<speed>0.000000</speed>
<trueHeading>0.000000</trueHeading>
<magneticHeading>0.000000</magneticHeading>
<gpsHeading>0.000000</gpsHeading>
<haccuracy>-1.000000</haccuracy>
<vaccuracy>-1.000000</vaccuracy>
<internetconnect>-1</internetconnect>
</trkpt>
<trkpt lat="35.018399" lon="136.418347">
<ele>1162.000000</ele>
<time>2026-03-27T13:29:08Z</time>
<speed>0.000000</speed>
<trueHeading>0.000000</trueHeading>
<magneticHeading>0.000000</magneticHeading>
<gpsHeading>0.000000</gpsHeading>
<haccuracy>-1.000000</haccuracy>
<vaccuracy>-1.000000</vaccuracy>
<internetconnect>-1</internetconnect>
</trkpt>
<trkpt lat="35.018390" lon="136.418438">
<ele>1162.000000</ele>
<time>2026-03-27T13:29:28Z</time>
<speed>0.000000</speed>
<trueHeading>0.000000</trueHeading>
<magneticHeading>0.000000</magneticHeading>
<gpsHeading>0.000000</gpsHeading>
<haccuracy>-1.000000</haccuracy>
<vaccuracy>-1.000000</vaccuracy>
<internetconnect>-1</internetconnect>
</trkpt>
<trkpt lat="35.018364" lon="136.418486">
<ele>1160.000000</ele>
<time>2026-03-27T13:29:40Z</time>
<speed>0.000000</speed>
<trueHeading>0.000000</trueHeading>
<magneticHeading>0.000000</magneticHeading>
<gpsHeading>0.000000</gpsHeading>
<haccuracy>-1.000000</haccuracy>
<vaccuracy>-1.000000</vaccuracy>
<internetconnect>-1</internetconnect>
</trkpt>
<trkpt lat="35.018298" lon="136.418545">
<ele>1159.000000</ele>
<time>2026-03-27T13:30:01Z</time>
<speed>0.000000</speed>
<trueHeading>0.000000</trueHeading>
<magneticHeading>0.000000</magneticHeading>
<gpsHeading>0.000000</gpsHeading>
<haccuracy>-1.000000</haccuracy>
<vaccuracy>-1.000000</vaccuracy>
<internetconnect>-1</internetconnect>
</trkpt>
<trkpt lat="35.018272" lon="136.418577">
<ele>1159.000000</ele>
<time>2026-03-27T13:30:10Z</time>
<speed>0.000000</speed>
<trueHeading>0.000000</trueHeading>
<magneticHeading>0.000000</magneticHeading>
<gpsHeading>0.000000</gpsHeading>
<haccuracy>-1.000000</haccuracy>
<vaccuracy>-1.000000</vaccuracy>
<internetconnect>-1</internetconnect>
</trkpt>
<trkpt lat="35.018258" lon="136.418636">
<ele>1159.000000</ele>
<time>2026-03-27T13:30:23Z</time>
<speed>0.000000</speed>
<trueHeading>0.000000</trueHeading>
<magneticHeading>0.000000</magneticHeading>
<gpsHeading>0.000000</gpsHeading>
<haccuracy>-1.000000</haccuracy>
<vaccuracy>-1.000000</vaccuracy>
<internetconnect>-1</internetconnect>
</trkpt>
<trkpt lat="35.018267" lon="136.418717">
<ele>1158.000000</ele>
<time>2026-03-27T13:30:41Z</time>
<speed>0.000000</speed>
<trueHeading>0.000000</trueHeading>
<magneticHeading>0.000000</magneticHeading>
<gpsHeading>0.000000</gpsHeading>
<haccuracy>-1.000000</haccuracy>
<vaccuracy>-1.000000</vaccuracy>
<internetconnect>-1</internetconnect>
</trkpt>
<trkpt lat="35.018276" lon="136.418787">
<ele>1158.000000</ele>
<time>2026-03-27T13:30:55Z</time>
<speed>0.000000</speed>
<trueHeading>0.000000</trueHeading>
<magneticHeading>0.000000</magneticHeading>
<gpsHeading>0.000000</gpsHeading>
<haccuracy>-1.000000</haccuracy>
<vaccuracy>-1.000000</vaccuracy>
<internetconnect>-1</internetconnect>
</trkpt>
<trkpt lat="35.018272" lon="136.418899">
<ele>1157.000000</ele>
<time>2026-03-27T13:31:19Z</time>
<speed>0.000000</speed>
<trueHeading>0.000000</trueHeading>
<magneticHeading>0.000000</magneticHeading>
<gpsHeading>0.000000</gpsHeading>
<haccuracy>-1.000000</haccuracy>
<vaccuracy>-1.000000</vaccuracy>
<internetconnect>-1</internetconnect>
</trkpt>
<trkpt lat="35.018254" lon="136.418953">
<ele>1157.000000</ele>
<time>2026-03-27T13:31:31Z</time>
<speed>0.000000</speed>
<trueHeading>0.000000</trueHeading>
<magneticHeading>0.000000</magneticHeading>
<gpsHeading>0.000000</gpsHeading>
<haccuracy>-1.000000</haccuracy>
<vaccuracy>-1.000000</vaccuracy>
<internetconnect>-1</internetconnect>
</trkpt>
<trkpt lat="35.018223" lon="136.418980">
<ele>1157.000000</ele>
<time>2026-03-27T13:31:41Z</time>
<speed>0.000000</speed>
<trueHeading>0.000000</trueHeading>
<magneticHeading>0.000000</magneticHeading>
<gpsHeading>0.000000</gpsHeading>
<haccuracy>-1.000000</haccuracy>
<vaccuracy>-1.000000</vaccuracy>
<internetconnect>-1</internetconnect>
</trkpt>
<trkpt lat="35.018170" lon="136.418996">
<ele>1157.000000</ele>
<time>2026-03-27T13:31:55Z</time>
<speed>0.000000</speed>
<trueHeading>0.000000</trueHeading>
<magneticHeading>0.000000</magneticHeading>
<gpsHeading>0.000000</gpsHeading>
<haccuracy>-1.000000</haccuracy>
<vaccuracy>-1.000000</vaccuracy>
<internetconnect>-1</internetconnect>
</trkpt>
<trkpt lat="35.018127" lon="136.418990">
<ele>1156.000000</ele>
<time>2026-03-27T13:32:06Z</time>
<speed>0.000000</speed>
<trueHeading>0.000000</trueHeading>
<magneticHeading>0.000000</magneticHeading>
<gpsHeading>0.000000</gpsHeading>
<haccuracy>-1.000000</haccuracy>
<vaccuracy>-1.000000</vaccuracy>
<internetconnect>-1</internetconnect>
</trkpt>
<trkpt lat="35.018091" lon="136.418964">
<ele>1156.000000</ele>
<time>2026-03-27T13:32:17Z</time>
<speed>0.000000</speed>
<trueHeading>0.000000</trueHeading>
<magneticHeading>0.000000</magneticHeading>
<gpsHeading>0.000000</gpsHeading>
<haccuracy>-1.000000</haccuracy>
<vaccuracy>-1.000000</vaccuracy>
<internetconnect>-1</internetconnect>
</trkpt>
<trkpt lat="35.018030" lon="136.418872">
<ele>1154.000000</ele>
<time>2026-03-27T13:32:42Z</time>
<speed>0.000000</speed>
<trueHeading>0.000000</trueHeading>
<magneticHeading>0.000000</magneticHeading>
<gpsHeading>0.000000</gpsHeading>
<haccuracy>-1.000000</haccuracy>
<vaccuracy>-1.000000</vaccuracy>
<internetconnect>-1</internetconnect>
</trkpt>
<trkpt lat="35.017960" lon="136.418819">
<ele>1155.000000</ele>
<time>2026-03-27T13:33:03Z</time>
<speed>0.000000</speed>
<trueHeading>0.000000</trueHeading>
<magneticHeading>0.000000</magneticHeading>
<gpsHeading>0.000000</gpsHeading>
<haccuracy>-1.000000</haccuracy>
<vaccuracy>-1.000000</vaccuracy>
<internetconnect>-1</internetconnect>
</trkpt>
<trkpt lat="35.017902" lon="136.418744">
<ele>1153.000000</ele>
<time>2026-03-27T13:33:25Z</time>
<speed>0.000000</speed>
<trueHeading>0.000000</trueHeading>
<magneticHeading>0.000000</magneticHeading>
<gpsHeading>0.000000</gpsHeading>
<haccuracy>-1.000000</haccuracy>
<vaccuracy>-1.000000</vaccuracy>
<internetconnect>-1</internetconnect>
</trkpt>
<trkpt lat="35.017863" lon="136.418679">
<ele>1152.000000</ele>
<time>2026-03-27T13:33:42Z</time>
<speed>0.000000</speed>
<trueHeading>0.000000</trueHeading>
<magneticHeading>0.000000</magneticHeading>
<gpsHeading>0.000000</gpsHeading>
<haccuracy>-1.000000</haccuracy>
<vaccuracy>-1.000000</vaccuracy>
<internetconnect>-1</internetconnect>
</trkpt>
<trkpt lat="35.017832" lon="136.418653">
<ele>1151.000000</ele>
<time>2026-03-27T13:33:51Z</time>
<speed>0.000000</speed>
<trueHeading>0.000000</trueHeading>
<magneticHeading>0.000000</magneticHeading>
<gpsHeading>0.000000</gpsHeading>
<haccuracy>-1.000000</haccuracy>
<vaccuracy>-1.000000</vaccuracy>
<internetconnect>-1</internetconnect>
</trkpt>
<trkpt lat="35.017788" lon="136.418647">
<ele>1152.000000</ele>
<time>2026-03-27T13:34:03Z</time>
<speed>0.000000</speed>
<trueHeading>0.000000</trueHeading>
<magneticHeading>0.000000</magneticHeading>
<gpsHeading>0.000000</gpsHeading>
<haccuracy>-1.000000</haccuracy>
<vaccuracy>-1.000000</vaccuracy>
<internetconnect>-1</internetconnect>
</trkpt>
<trkpt lat="35.017714" lon="136.418636">
<ele>1150.000000</ele>
<time>2026-03-27T13:34:22Z</time>
<speed>0.000000</speed>
<trueHeading>0.000000</trueHeading>
<magneticHeading>0.000000</magneticHeading>
<gpsHeading>0.000000</gpsHeading>
<haccuracy>-1.000000</haccuracy>
<vaccuracy>-1.000000</vaccuracy>
<internetconnect>-1</internetconnect>
</trkpt>
<trkpt lat="35.017656" lon="136.418615">
<ele>1149.000000</ele>
<time>2026-03-27T13:34:37Z</time>
<speed>0.000000</speed>
<trueHeading>0.000000</trueHeading>
<magneticHeading>0.000000</magneticHeading>
<gpsHeading>0.000000</gpsHeading>
<haccuracy>-1.000000</haccuracy>
<vaccuracy>-1.000000</vaccuracy>
<internetconnect>-1</internetconnect>
</trkpt>
<trkpt lat="35.017604" lon="136.418588">
<ele>1148.000000</ele>
<time>2026-03-27T13:34:52Z</time>
<speed>0.000000</speed>
<trueHeading>0.000000</trueHeading>
<magneticHeading>0.000000</magneticHeading>
<gpsHeading>0.000000</gpsHeading>
<haccuracy>-1.000000</haccuracy>
<vaccuracy>-1.000000</vaccuracy>
<internetconnect>-1</internetconnect>
</trkpt>
<trkpt lat="35.017542" lon="136.418588">
<ele>1146.000000</ele>
<time>2026-03-27T13:35:08Z</time>
<speed>0.000000</speed>
<trueHeading>0.000000</trueHeading>
<magneticHeading>0.000000</magneticHeading>
<gpsHeading>0.000000</gpsHeading>
<haccuracy>-1.000000</haccuracy>
<vaccuracy>-1.000000</vaccuracy>
<internetconnect>-1</internetconnect>
</trkpt>
<trkpt lat="35.017494" lon="136.418599">
<ele>1146.000000</ele>
<time>2026-03-27T13:35:20Z</time>
<speed>0.000000</speed>
<trueHeading>0.000000</trueHeading>
<magneticHeading>0.000000</magneticHeading>
<gpsHeading>0.000000</gpsHeading>
<haccuracy>-1.000000</haccuracy>
<vaccuracy>-1.000000</vaccuracy>
<internetconnect>-1</internetconnect>
</trkpt>
<trkpt lat="35.017415" lon="136.418658">
<ele>1144.000000</ele>
<time>2026-03-27T13:35:44Z</time>
<speed>0.000000</speed>
<trueHeading>0.000000</trueHeading>
<magneticHeading>0.000000</magneticHeading>
<gpsHeading>0.000000</gpsHeading>
<haccuracy>-1.000000</haccuracy>
<vaccuracy>-1.000000</vaccuracy>
<internetconnect>-1</internetconnect>
</trkpt>
<trkpt lat="35.017336" lon="136.418738">
<ele>1142.000000</ele>
<time>2026-03-27T13:36:11Z</time>
<speed>0.000000</speed>
<trueHeading>0.000000</trueHeading>
<magneticHeading>0.000000</magneticHeading>
<gpsHeading>0.000000</gpsHeading>
<haccuracy>-1.000000</haccuracy>
<vaccuracy>-1.000000</vaccuracy>
<internetconnect>-1</internetconnect>
</trkpt>
<trkpt lat="35.017257" lon="136.418781">
<ele>1142.000000</ele>
<time>2026-03-27T13:36:33Z</time>
<speed>0.000000</speed>
<trueHeading>0.000000</trueHeading>
<magneticHeading>0.000000</magneticHeading>
<gpsHeading>0.000000</gpsHeading>
<haccuracy>-1.000000</haccuracy>
<vaccuracy>-1.000000</vaccuracy>
<internetconnect>-1</internetconnect>
</trkpt>
<trkpt lat="35.017169" lon="136.418803">
<ele>1142.000000</ele>
<time>2026-03-27T13:36:56Z</time>
<speed>0.000000</speed>
<trueHeading>0.000000</trueHeading>
<magneticHeading>0.000000</magneticHeading>
<gpsHeading>0.000000</gpsHeading>
<haccuracy>-1.000000</haccuracy>
<vaccuracy>-1.000000</vaccuracy>
<internetconnect>-1</internetconnect>
</trkpt>
<trkpt lat="35.017169" lon="136.418803">
<ele>1142.000000</ele>
<time>2026-03-27T13:36:56Z</time>
<speed>0.000000</speed>
<trueHeading>0.000000</trueHeading>
<magneticHeading>0.000000</magneticHeading>
<gpsHeading>0.000000</gpsHeading>
<haccuracy>-1.000000</haccuracy>
<vaccuracy>-1.000000</vaccuracy>
<internetconnect>-1</internetconnect>
</trkpt>
<trkpt lat="35.016923" lon="136.418803">
<ele>1149.000000</ele>
<time>2026-03-27T13:37:59Z</time>
<speed>0.000000</speed>
<trueHeading>0.000000</trueHeading>
<magneticHeading>0.000000</magneticHeading>
<gpsHeading>0.000000</gpsHeading>
<haccuracy>-1.000000</haccuracy>
<vaccuracy>-1.000000</vaccuracy>
<internetconnect>-1</internetconnect>
</trkpt>
<trkpt lat="35.016747" lon="136.418717">
<ele>1152.000000</ele>
<time>2026-03-27T13:38:48Z</time>
<speed>0.000000</speed>
<trueHeading>0.000000</trueHeading>
<magneticHeading>0.000000</magneticHeading>
<gpsHeading>0.000000</gpsHeading>
<haccuracy>-1.000000</haccuracy>
<vaccuracy>-1.000000</vaccuracy>
<internetconnect>-1</internetconnect>
</trkpt>
<trkpt lat="35.016694" lon="136.418567">
<ele>1151.000000</ele>
<time>2026-03-27T13:39:22Z</time>
<speed>0.000000</speed>
<trueHeading>0.000000</trueHeading>
<magneticHeading>0.000000</magneticHeading>
<gpsHeading>0.000000</gpsHeading>
<haccuracy>-1.000000</haccuracy>
<vaccuracy>-1.000000</vaccuracy>
<internetconnect>-1</internetconnect>
</trkpt>
<trkpt lat="35.016642" lon="136.418395">
<ele>1145.000000</ele>
<time>2026-03-27T13:40:01Z</time>
<speed>0.000000</speed>
<trueHeading>0.000000</trueHeading>
<magneticHeading>0.000000</magneticHeading>
<gpsHeading>0.000000</gpsHeading>
<haccuracy>-1.000000</haccuracy>
<vaccuracy>-1.000000</vaccuracy>
<internetconnect>-1</internetconnect>
</trkpt>
<trkpt lat="35.016571" lon="136.418116">
<ele>1135.000000</ele>
<time>2026-03-27T13:41:02Z</time>
<speed>0.000000</speed>
<trueHeading>0.000000</trueHeading>
<magneticHeading>0.000000</magneticHeading>
<gpsHeading>0.000000</gpsHeading>
<haccuracy>-1.000000</haccuracy>
<vaccuracy>-1.000000</vaccuracy>
<internetconnect>-1</internetconnect>
</trkpt>
<trkpt lat="35.016396" lon="136.417966">
<ele>1128.000000</ele>
<time>2026-03-27T13:41:57Z</time>
<speed>0.000000</speed>
<trueHeading>0.000000</trueHeading>
<magneticHeading>0.000000</magneticHeading>
<gpsHeading>0.000000</gpsHeading>
<haccuracy>-1.000000</haccuracy>
<vaccuracy>-1.000000</vaccuracy>
<internetconnect>-1</internetconnect>
</trkpt>
<trkpt lat="35.016044" lon="136.417644">
<ele>1121.000000</ele>
<time>2026-03-27T13:43:50Z</time>
<speed>0.000000</speed>
<trueHeading>0.000000</trueHeading>
<magneticHeading>0.000000</magneticHeading>
<gpsHeading>0.000000</gpsHeading>
<haccuracy>-1.000000</haccuracy>
<vaccuracy>-1.000000</vaccuracy>
<internetconnect>-1</internetconnect>
</trkpt>
<trkpt lat="35.015429" lon="136.417344">
<ele>1095.000000</ele>
<time>2026-03-27T13:46:40Z</time>
<speed>0.000000</speed>
<trueHeading>0.000000</trueHeading>
<magneticHeading>0.000000</magneticHeading>
<gpsHeading>0.000000</gpsHeading>
<haccuracy>-1.000000</haccuracy>
<vaccuracy>-1.000000</vaccuracy>
<internetconnect>-1</internetconnect>
</trkpt>
<trkpt lat="35.014884" lon="136.417000">
<ele>1073.000000</ele>
<time>2026-03-27T13:49:18Z</time>
<speed>0.000000</speed>
<trueHeading>0.000000</trueHeading>
<magneticHeading>0.000000</magneticHeading>
<gpsHeading>0.000000</gpsHeading>
<haccuracy>-1.000000</haccuracy>
<vaccuracy>-1.000000</vaccuracy>
<internetconnect>-1</internetconnect>
</trkpt>
<trkpt lat="35.014462" lon="136.416936">
<ele>1054.000000</ele>
<time>2026-03-27T13:51:07Z</time>
<speed>0.000000</speed>
<trueHeading>0.000000</trueHeading>
<magneticHeading>0.000000</magneticHeading>
<gpsHeading>0.000000</gpsHeading>
<haccuracy>-1.000000</haccuracy>
<vaccuracy>-1.000000</vaccuracy>
<internetconnect>-1</internetconnect>
</trkpt>
<trkpt lat="35.014058" lon="136.416850">
<ele>1025.000000</ele>
<time>2026-03-27T13:52:52Z</time>
<speed>0.000000</speed>
<trueHeading>0.000000</trueHeading>
<magneticHeading>0.000000</magneticHeading>
<gpsHeading>0.000000</gpsHeading>
<haccuracy>-1.000000</haccuracy>
<vaccuracy>-1.000000</vaccuracy>
<internetconnect>-1</internetconnect>
</trkpt>
<trkpt lat="35.013865" lon="136.416872">
<ele>1012.000000</ele>
<time>2026-03-27T13:53:42Z</time>
<speed>0.000000</speed>
<trueHeading>0.000000</trueHeading>
<magneticHeading>0.000000</magneticHeading>
<gpsHeading>0.000000</gpsHeading>
<haccuracy>-1.000000</haccuracy>
<vaccuracy>-1.000000</vaccuracy>
<internetconnect>-1</internetconnect>
</trkpt>
<trkpt lat="35.013584" lon="136.417022">
<ele>995.000000</ele>
<time>2026-03-27T13:55:01Z</time>
<speed>0.000000</speed>
<trueHeading>0.000000</trueHeading>
<magneticHeading>0.000000</magneticHeading>
<gpsHeading>0.000000</gpsHeading>
<haccuracy>-1.000000</haccuracy>
<vaccuracy>-1.000000</vaccuracy>
<internetconnect>-1</internetconnect>
</trkpt>
<trkpt lat="35.013127" lon="136.417172">
<ele>965.000000</ele>
<time>2026-03-27T13:57:02Z</time>
<speed>0.000000</speed>
<trueHeading>0.000000</trueHeading>
<magneticHeading>0.000000</magneticHeading>
<gpsHeading>0.000000</gpsHeading>
<haccuracy>-1.000000</haccuracy>
<vaccuracy>-1.000000</vaccuracy>
<internetconnect>-1</internetconnect>
</trkpt>
<trkpt lat="35.012670" lon="136.417215">
<ele>940.000000</ele>
<time>2026-03-27T13:59:00Z</time>
<speed>0.000000</speed>
<trueHeading>0.000000</trueHeading>
<magneticHeading>0.000000</magneticHeading>
<gpsHeading>0.000000</gpsHeading>
<haccuracy>-1.000000</haccuracy>
<vaccuracy>-1.000000</vaccuracy>
<internetconnect>-1</internetconnect>
</trkpt>
<trkpt lat="35.011791" lon="136.417129">
<ele>907.000000</ele>
<time>2026-03-27T14:02:46Z</time>
<speed>0.000000</speed>
<trueHeading>0.000000</trueHeading>
<magneticHeading>0.000000</magneticHeading>
<gpsHeading>0.000000</gpsHeading>
<haccuracy>-1.000000</haccuracy>
<vaccuracy>-1.000000</vaccuracy>
<internetconnect>-1</internetconnect>
</trkpt>
<trkpt lat="35.011369" lon="136.417065">
<ele>896.000000</ele>
<time>2026-03-27T14:04:35Z</time>
<speed>0.000000</speed>
<trueHeading>0.000000</trueHeading>
<magneticHeading>0.000000</magneticHeading>
<gpsHeading>0.000000</gpsHeading>
<haccuracy>-1.000000</haccuracy>
<vaccuracy>-1.000000</vaccuracy>
<internetconnect>-1</internetconnect>
</trkpt>
<trkpt lat="35.011123" lon="136.417129">
<ele>895.000000</ele>
<time>2026-03-27T14:05:39Z</time>
<speed>0.000000</speed>
<trueHeading>0.000000</trueHeading>
<magneticHeading>0.000000</magneticHeading>
<gpsHeading>0.000000</gpsHeading>
<haccuracy>-1.000000</haccuracy>
<vaccuracy>-1.000000</vaccuracy>
<internetconnect>-1</internetconnect>
</trkpt>
<trkpt lat="35.010596" lon="136.417301">
<ele>874.000000</ele>
<time>2026-03-27T14:08:00Z</time>
<speed>0.000000</speed>
<trueHeading>0.000000</trueHeading>
<magneticHeading>0.000000</magneticHeading>
<gpsHeading>0.000000</gpsHeading>
<haccuracy>-1.000000</haccuracy>
<vaccuracy>-1.000000</vaccuracy>
<internetconnect>-1</internetconnect>
</trkpt>
<trkpt lat="35.010315" lon="136.417301">
<ele>891.000000</ele>
<time>2026-03-27T14:08:00Z</time>
<speed>0.000000</speed>
<trueHeading>0.000000</trueHeading>
<magneticHeading>0.000000</magneticHeading>
<gpsHeading>0.000000</gpsHeading>
<haccuracy>-1.000000</haccuracy>
<vaccuracy>-1.000000</vaccuracy>
<internetconnect>-1</internetconnect>
</trkpt>
<trkpt lat="35.010104" lon="136.417344">
<ele>901.000000</ele>
<time>2026-03-27T14:09:19Z</time>
<speed>0.000000</speed>
<trueHeading>0.000000</trueHeading>
<magneticHeading>0.000000</magneticHeading>
<gpsHeading>0.000000</gpsHeading>
<haccuracy>-1.000000</haccuracy>
<vaccuracy>-1.000000</vaccuracy>
<internetconnect>-1</internetconnect>
</trkpt>
<trkpt lat="35.009999" lon="136.417494">
<ele>904.000000</ele>
<time>2026-03-27T14:10:19Z</time>
<speed>0.000000</speed>
<trueHeading>0.000000</trueHeading>
<magneticHeading>0.000000</magneticHeading>
<gpsHeading>0.000000</gpsHeading>
<haccuracy>-1.000000</haccuracy>
<vaccuracy>-1.000000</vaccuracy>
<internetconnect>-1</internetconnect>
</trkpt>
<trkpt lat="35.009735" lon="136.417730">
<ele>914.000000</ele>
<time>2026-03-27T14:12:21Z</time>
<speed>0.000000</speed>
<trueHeading>0.000000</trueHeading>
<magneticHeading>0.000000</magneticHeading>
<gpsHeading>0.000000</gpsHeading>
<haccuracy>-1.000000</haccuracy>
<vaccuracy>-1.000000</vaccuracy>
<internetconnect>-1</internetconnect>
</trkpt>
<trkpt lat="35.009471" lon="136.417730">
<ele>911.000000</ele>
<time>2026-03-27T14:13:59Z</time>
<speed>0.000000</speed>
<trueHeading>0.000000</trueHeading>
<magneticHeading>0.000000</magneticHeading>
<gpsHeading>0.000000</gpsHeading>
<haccuracy>-1.000000</haccuracy>
<vaccuracy>-1.000000</vaccuracy>
<internetconnect>-1</internetconnect>
</trkpt>
<trkpt lat="35.009260" lon="136.417837">
<ele>907.000000</ele>
<time>2026-03-27T14:15:24Z</time>
<speed>0.000000</speed>
<trueHeading>0.000000</trueHeading>
<magneticHeading>0.000000</magneticHeading>
<gpsHeading>0.000000</gpsHeading>
<haccuracy>-1.000000</haccuracy>
<vaccuracy>-1.000000</vaccuracy>
<internetconnect>-1</internetconnect>
</trkpt>
<trkpt lat="35.009137" lon="136.418073">
<ele>899.000000</ele>
<time>2026-03-27T14:16:49Z</time>
<speed>0.000000</speed>
<trueHeading>0.000000</trueHeading>
<magneticHeading>0.000000</magneticHeading>
<gpsHeading>0.000000</gpsHeading>
<haccuracy>-1.000000</haccuracy>
<vaccuracy>-1.000000</vaccuracy>
<internetconnect>-1</internetconnect>
</trkpt>
<trkpt lat="35.009032" lon="136.418374">
<ele>912.000000</ele>
<time>2026-03-27T14:18:29Z</time>
<speed>0.000000</speed>
<trueHeading>0.000000</trueHeading>
<magneticHeading>0.000000</magneticHeading>
<gpsHeading>0.000000</gpsHeading>
<haccuracy>-1.000000</haccuracy>
<vaccuracy>-1.000000</vaccuracy>
<internetconnect>-1</internetconnect>
</trkpt>
<trkpt lat="35.008926" lon="136.418417">
<ele>918.000000</ele>
<time>2026-03-27T14:19:10Z</time>
<speed>0.000000</speed>
<trueHeading>0.000000</trueHeading>
<magneticHeading>0.000000</magneticHeading>
<gpsHeading>0.000000</gpsHeading>
<haccuracy>-1.000000</haccuracy>
<vaccuracy>-1.000000</vaccuracy>
<internetconnect>-1</internetconnect>
</trkpt>
<trkpt lat="35.008610" lon="136.418459">
<ele>922.000000</ele>
<time>2026-03-27T14:21:08Z</time>
<speed>0.000000</speed>
<trueHeading>0.000000</trueHeading>
<magneticHeading>0.000000</magneticHeading>
<gpsHeading>0.000000</gpsHeading>
<haccuracy>-1.000000</haccuracy>
<vaccuracy>-1.000000</vaccuracy>
<internetconnect>-1</internetconnect>
</trkpt>
<trkpt lat="35.008382" lon="136.418417">
<ele>923.000000</ele>
<time>2026-03-27T14:22:34Z</time>
<speed>0.000000</speed>
<trueHeading>0.000000</trueHeading>
<magneticHeading>0.000000</magneticHeading>
<gpsHeading>0.000000</gpsHeading>
<haccuracy>-1.000000</haccuracy>
<vaccuracy>-1.000000</vaccuracy>
<internetconnect>-1</internetconnect>
</trkpt>
<trkpt lat="35.008276" lon="136.418417">
<ele>928.000000</ele>
<time>2026-03-27T14:23:14Z</time>
<speed>0.000000</speed>
<trueHeading>0.000000</trueHeading>
<magneticHeading>0.000000</magneticHeading>
<gpsHeading>0.000000</gpsHeading>
<haccuracy>-1.000000</haccuracy>
<vaccuracy>-1.000000</vaccuracy>
<internetconnect>-1</internetconnect>
</trkpt>
<trkpt lat="35.008171" lon="136.418438">
<ele>931.000000</ele>
<time>2026-03-27T14:23:53Z</time>
<speed>0.000000</speed>
<trueHeading>0.000000</trueHeading>
<magneticHeading>0.000000</magneticHeading>
<gpsHeading>0.000000</gpsHeading>
<haccuracy>-1.000000</haccuracy>
<vaccuracy>-1.000000</vaccuracy>
<internetconnect>-1</internetconnect>
</trkpt>
<trkpt lat="35.007977" lon="136.418588">
<ele>939.000000</ele>
<time>2026-03-27T14:25:18Z</time>
<speed>0.000000</speed>
<trueHeading>0.000000</trueHeading>
<magneticHeading>0.000000</magneticHeading>
<gpsHeading>0.000000</gpsHeading>
<haccuracy>-1.000000</haccuracy>
<vaccuracy>-1.000000</vaccuracy>
<internetconnect>-1</internetconnect>
</trkpt>
<trkpt lat="35.007626" lon="136.418695">
<ele>932.000000</ele>
<time>2026-03-27T14:27:33Z</time>
<speed>0.000000</speed>
<trueHeading>0.000000</trueHeading>
<magneticHeading>0.000000</magneticHeading>
<gpsHeading>0.000000</gpsHeading>
<haccuracy>-1.000000</haccuracy>
<vaccuracy>-1.000000</vaccuracy>
<internetconnect>-1</internetconnect>
</trkpt>
<trkpt lat="35.007169" lon="136.418717">
<ele>946.000000</ele>
<time>2026-03-27T14:30:23Z</time>
<speed>0.000000</speed>
<trueHeading>0.000000</trueHeading>
<magneticHeading>0.000000</magneticHeading>
<gpsHeading>0.000000</gpsHeading>
<haccuracy>-1.000000</haccuracy>
<vaccuracy>-1.000000</vaccuracy>
<internetconnect>-1</internetconnect>
</trkpt>
<trkpt lat="35.006624" lon="136.418717">
<ele>946.000000</ele>
<time>2026-03-27T14:33:45Z</time>
<speed>0.000000</speed>
<trueHeading>0.000000</trueHeading>
<magneticHeading>0.000000</magneticHeading>
<gpsHeading>0.000000</gpsHeading>
<haccuracy>-1.000000</haccuracy>
<vaccuracy>-1.000000</vaccuracy>
<internetconnect>-1</internetconnect>
</trkpt>
<trkpt lat="35.006308" lon="136.418760">
<ele>946.000000</ele>
<time>2026-03-27T14:35:44Z</time>
<speed>0.000000</speed>
<trueHeading>0.000000</trueHeading>
<magneticHeading>0.000000</magneticHeading>
<gpsHeading>0.000000</gpsHeading>
<haccuracy>-1.000000</haccuracy>
<vaccuracy>-1.000000</vaccuracy>
<internetconnect>-1</internetconnect>
</trkpt>
<trkpt lat="35.005886" lon="136.419017">
<ele>952.000000</ele>
<time>2026-03-27T14:38:39Z</time>
<speed>0.000000</speed>
<trueHeading>0.000000</trueHeading>
<magneticHeading>0.000000</magneticHeading>
<gpsHeading>0.000000</gpsHeading>
<haccuracy>-1.000000</haccuracy>
<vaccuracy>-1.000000</vaccuracy>
<internetconnect>-1</internetconnect>
</trkpt>
<trkpt lat="35.005411" lon="136.419361">
<ele>970.000000</ele>
<time>2026-03-27T14:42:04Z</time>
<speed>0.000000</speed>
<trueHeading>0.000000</trueHeading>
<magneticHeading>0.000000</magneticHeading>
<gpsHeading>0.000000</gpsHeading>
<haccuracy>-1.000000</haccuracy>
<vaccuracy>-1.000000</vaccuracy>
<internetconnect>-1</internetconnect>
</trkpt>
<trkpt lat="35.005183" lon="136.419704">
<ele>987.000000</ele>
<time>2026-03-27T14:44:19Z</time>
<speed>0.000000</speed>
<trueHeading>0.000000</trueHeading>
<magneticHeading>0.000000</magneticHeading>
<gpsHeading>0.000000</gpsHeading>
<haccuracy>-1.000000</haccuracy>
<vaccuracy>-1.000000</vaccuracy>
<internetconnect>-1</internetconnect>
</trkpt>
<trkpt lat="35.005095" lon="136.419983">
<ele>1004.000000</ele>
<time>2026-03-27T14:45:50Z</time>
<speed>0.000000</speed>
<trueHeading>0.000000</trueHeading>
<magneticHeading>0.000000</magneticHeading>
<gpsHeading>0.000000</gpsHeading>
<haccuracy>-1.000000</haccuracy>
<vaccuracy>-1.000000</vaccuracy>
<internetconnect>-1</internetconnect>
</trkpt>
<trkpt lat="35.004990" lon="136.420090">
<ele>1012.000000</ele>
<time>2026-03-27T14:46:41Z</time>
<speed>0.000000</speed>
<trueHeading>0.000000</trueHeading>
<magneticHeading>0.000000</magneticHeading>
<gpsHeading>0.000000</gpsHeading>
<haccuracy>-1.000000</haccuracy>
<vaccuracy>-1.000000</vaccuracy>
<internetconnect>-1</internetconnect>
</trkpt>
<trkpt lat="35.004884" lon="136.420069">
<ele>1016.000000</ele>
<time>2026-03-27T14:47:21Z</time>
<speed>0.000000</speed>
<trueHeading>0.000000</trueHeading>
<magneticHeading>0.000000</magneticHeading>
<gpsHeading>0.000000</gpsHeading>
<haccuracy>-1.000000</haccuracy>
<vaccuracy>-1.000000</vaccuracy>
<internetconnect>-1</internetconnect>
</trkpt>
<trkpt lat="35.004550" lon="136.419961">
<ele>1017.000000</ele>
<time>2026-03-27T14:49:29Z</time>
<speed>0.000000</speed>
<trueHeading>0.000000</trueHeading>
<magneticHeading>0.000000</magneticHeading>
<gpsHeading>0.000000</gpsHeading>
<haccuracy>-1.000000</haccuracy>
<vaccuracy>-1.000000</vaccuracy>
<internetconnect>-1</internetconnect>
</trkpt>
<trkpt lat="35.003917" lon="136.419704">
<ele>1023.000000</ele>
<time>2026-03-27T14:53:37Z</time>
<speed>0.000000</speed>
<trueHeading>0.000000</trueHeading>
<magneticHeading>0.000000</magneticHeading>
<gpsHeading>0.000000</gpsHeading>
<haccuracy>-1.000000</haccuracy>
<vaccuracy>-1.000000</vaccuracy>
<internetconnect>-1</internetconnect>
</trkpt>
<trkpt lat="35.003566" lon="136.419640">
<ele>1036.000000</ele>
<time>2026-03-27T14:55:49Z</time>
<speed>0.000000</speed>
<trueHeading>0.000000</trueHeading>
<magneticHeading>0.000000</magneticHeading>
<gpsHeading>0.000000</gpsHeading>
<haccuracy>-1.000000</haccuracy>
<vaccuracy>-1.000000</vaccuracy>
<internetconnect>-1</internetconnect>
</trkpt>
<trkpt lat="35.003390" lon="136.419661">
<ele>1037.000000</ele>
<time>2026-03-27T14:56:55Z</time>
<speed>0.000000</speed>
<trueHeading>0.000000</trueHeading>
<magneticHeading>0.000000</magneticHeading>
<gpsHeading>0.000000</gpsHeading>
<haccuracy>-1.000000</haccuracy>
<vaccuracy>-1.000000</vaccuracy>
<internetconnect>-1</internetconnect>
</trkpt>
<trkpt lat="35.003249" lon="136.419747">
<ele>1036.000000</ele>
<time>2026-03-27T14:57:53Z</time>
<speed>0.000000</speed>
<trueHeading>0.000000</trueHeading>
<magneticHeading>0.000000</magneticHeading>
<gpsHeading>0.000000</gpsHeading>
<haccuracy>-1.000000</haccuracy>
<vaccuracy>-1.000000</vaccuracy>
<internetconnect>-1</internetconnect>
</trkpt>
<trkpt lat="35.002845" lon="136.419961">
<ele>1047.000000</ele>
<time>2026-03-27T15:00:37Z</time>
<speed>0.000000</speed>
<trueHeading>0.000000</trueHeading>
<magneticHeading>0.000000</magneticHeading>
<gpsHeading>0.000000</gpsHeading>
<haccuracy>-1.000000</haccuracy>
<vaccuracy>-1.000000</vaccuracy>
<internetconnect>-1</internetconnect>
</trkpt>
<trkpt lat="35.002766" lon="136.420047">
<ele>1050.000000</ele>
<time>2026-03-27T15:01:17Z</time>
<speed>0.000000</speed>
<trueHeading>0.000000</trueHeading>
<magneticHeading>0.000000</magneticHeading>
<gpsHeading>0.000000</gpsHeading>
<haccuracy>-1.000000</haccuracy>
<vaccuracy>-1.000000</vaccuracy>
<internetconnect>-1</internetconnect>
</trkpt>
<trkpt lat="35.002727" lon="136.420096">
<ele>1052.000000</ele>
<time>2026-03-27T15:01:37Z</time>
<speed>0.000000</speed>
<trueHeading>0.000000</trueHeading>
<magneticHeading>0.000000</magneticHeading>
<gpsHeading>0.000000</gpsHeading>
<haccuracy>-1.000000</haccuracy>
<vaccuracy>-1.000000</vaccuracy>
<internetconnect>-1</internetconnect>
</trkpt>
<trkpt lat="35.002687" lon="136.420138">
<ele>1053.000000</ele>
<time>2026-03-27T15:01:57Z</time>
<speed>0.000000</speed>
<trueHeading>0.000000</trueHeading>
<magneticHeading>0.000000</magneticHeading>
<gpsHeading>0.000000</gpsHeading>
<haccuracy>-1.000000</haccuracy>
<vaccuracy>-1.000000</vaccuracy>
<internetconnect>-1</internetconnect>
</trkpt>
<trkpt lat="35.002626" lon="136.420176">
<ele>1057.000000</ele>
<time>2026-03-27T15:02:23Z</time>
<speed>0.000000</speed>
<trueHeading>0.000000</trueHeading>
<magneticHeading>0.000000</magneticHeading>
<gpsHeading>0.000000</gpsHeading>
<haccuracy>-1.000000</haccuracy>
<vaccuracy>-1.000000</vaccuracy>
<internetconnect>-1</internetconnect>
</trkpt>
<trkpt lat="35.002582" lon="136.420203">
<ele>1059.000000</ele>
<time>2026-03-27T15:02:41Z</time>
<speed>0.000000</speed>
<trueHeading>0.000000</trueHeading>
<magneticHeading>0.000000</magneticHeading>
<gpsHeading>0.000000</gpsHeading>
<haccuracy>-1.000000</haccuracy>
<vaccuracy>-1.000000</vaccuracy>
<internetconnect>-1</internetconnect>
</trkpt>
<trkpt lat="35.002520" lon="136.420294">
<ele>1065.000000</ele>
<time>2026-03-27T15:03:17Z</time>
<speed>0.000000</speed>
<trueHeading>0.000000</trueHeading>
<magneticHeading>0.000000</magneticHeading>
<gpsHeading>0.000000</gpsHeading>
<haccuracy>-1.000000</haccuracy>
<vaccuracy>-1.000000</vaccuracy>
<internetconnect>-1</internetconnect>
</trkpt>
<trkpt lat="35.002485" lon="136.420342">
<ele>1067.000000</ele>
<time>2026-03-27T15:03:37Z</time>
<speed>0.000000</speed>
<trueHeading>0.000000</trueHeading>
<magneticHeading>0.000000</magneticHeading>
<gpsHeading>0.000000</gpsHeading>
<haccuracy>-1.000000</haccuracy>
<vaccuracy>-1.000000</vaccuracy>
<internetconnect>-1</internetconnect>
</trkpt>
<trkpt lat="35.002459" lon="136.420369">
<ele>1068.000000</ele>
<time>2026-03-27T15:03:49Z</time>
<speed>0.000000</speed>
<trueHeading>0.000000</trueHeading>
<magneticHeading>0.000000</magneticHeading>
<gpsHeading>0.000000</gpsHeading>
<haccuracy>-1.000000</haccuracy>
<vaccuracy>-1.000000</vaccuracy>
<internetconnect>-1</internetconnect>
</trkpt>
<trkpt lat="35.002423" lon="136.420407">
<ele>1070.000000</ele>
<time>2026-03-27T15:04:07Z</time>
<speed>0.000000</speed>
<trueHeading>0.000000</trueHeading>
<magneticHeading>0.000000</magneticHeading>
<gpsHeading>0.000000</gpsHeading>
<haccuracy>-1.000000</haccuracy>
<vaccuracy>-1.000000</vaccuracy>
<internetconnect>-1</internetconnect>
</trkpt>
<trkpt lat="35.002388" lon="136.420444">
<ele>1072.000000</ele>
<time>2026-03-27T15:04:24Z</time>
<speed>0.000000</speed>
<trueHeading>0.000000</trueHeading>
<magneticHeading>0.000000</magneticHeading>
<gpsHeading>0.000000</gpsHeading>
<haccuracy>-1.000000</haccuracy>
<vaccuracy>-1.000000</vaccuracy>
<internetconnect>-1</internetconnect>
</trkpt>
<trkpt lat="35.002366" lon="136.420471">
<ele>1075.000000</ele>
<time>2026-03-27T15:04:36Z</time>
<speed>0.000000</speed>
<trueHeading>0.000000</trueHeading>
<magneticHeading>0.000000</magneticHeading>
<gpsHeading>0.000000</gpsHeading>
<haccuracy>-1.000000</haccuracy>
<vaccuracy>-1.000000</vaccuracy>
<internetconnect>-1</internetconnect>
</trkpt>
<trkpt lat="35.002340" lon="136.420541">
<ele>1077.000000</ele>
<time>2026-03-27T15:04:59Z</time>
<speed>0.000000</speed>
<trueHeading>0.000000</trueHeading>
<magneticHeading>0.000000</magneticHeading>
<gpsHeading>0.000000</gpsHeading>
<haccuracy>-1.000000</haccuracy>
<vaccuracy>-1.000000</vaccuracy>
<internetconnect>-1</internetconnect>
</trkpt>
<trkpt lat="35.002335" lon="136.420589">
<ele>1085.000000</ele>
<time>2026-03-27T15:05:14Z</time>
<speed>0.000000</speed>
<trueHeading>0.000000</trueHeading>
<magneticHeading>0.000000</magneticHeading>
<gpsHeading>0.000000</gpsHeading>
<haccuracy>-1.000000</haccuracy>
<vaccuracy>-1.000000</vaccuracy>
<internetconnect>-1</internetconnect>
</trkpt>
<trkpt lat="35.002357" lon="136.420616">
<ele>1083.000000</ele>
<time>2026-03-27T15:05:26Z</time>
<speed>0.000000</speed>
<trueHeading>0.000000</trueHeading>
<magneticHeading>0.000000</magneticHeading>
<gpsHeading>0.000000</gpsHeading>
<haccuracy>-1.000000</haccuracy>
<vaccuracy>-1.000000</vaccuracy>
<internetconnect>-1</internetconnect>
</trkpt>
<trkpt lat="35.002375" lon="136.420648">
<ele>1086.000000</ele>
<time>2026-03-27T15:05:37Z</time>
<speed>0.000000</speed>
<trueHeading>0.000000</trueHeading>
<magneticHeading>0.000000</magneticHeading>
<gpsHeading>0.000000</gpsHeading>
<haccuracy>-1.000000</haccuracy>
<vaccuracy>-1.000000</vaccuracy>
<internetconnect>-1</internetconnect>
</trkpt>
<trkpt lat="35.002375" lon="136.420680">
<ele>1089.000000</ele>
<time>2026-03-27T15:05:47Z</time>
<speed>0.000000</speed>
<trueHeading>0.000000</trueHeading>
<magneticHeading>0.000000</magneticHeading>
<gpsHeading>0.000000</gpsHeading>
<haccuracy>-1.000000</haccuracy>
<vaccuracy>-1.000000</vaccuracy>
<internetconnect>-1</internetconnect>
</trkpt>
<trkpt lat="35.002353" lon="136.420707">
<ele>1089.000000</ele>
<time>2026-03-27T15:05:59Z</time>
<speed>0.000000</speed>
<trueHeading>0.000000</trueHeading>
<magneticHeading>0.000000</magneticHeading>
<gpsHeading>0.000000</gpsHeading>
<haccuracy>-1.000000</haccuracy>
<vaccuracy>-1.000000</vaccuracy>
<internetconnect>-1</internetconnect>
</trkpt>
<trkpt lat="35.002322" lon="136.420734">
<ele>1094.000000</ele>
<time>2026-03-27T15:06:13Z</time>
<speed>0.000000</speed>
<trueHeading>0.000000</trueHeading>
<magneticHeading>0.000000</magneticHeading>
<gpsHeading>0.000000</gpsHeading>
<haccuracy>-1.000000</haccuracy>
<vaccuracy>-1.000000</vaccuracy>
<internetconnect>-1</internetconnect>
</trkpt>
<trkpt lat="35.002278" lon="136.420761">
<ele>1096.000000</ele>
<time>2026-03-27T15:06:31Z</time>
<speed>0.000000</speed>
<trueHeading>0.000000</trueHeading>
<magneticHeading>0.000000</magneticHeading>
<gpsHeading>0.000000</gpsHeading>
<haccuracy>-1.000000</haccuracy>
<vaccuracy>-1.000000</vaccuracy>
<internetconnect>-1</internetconnect>
</trkpt>
<trkpt lat="35.002221" lon="136.420788">
<ele>1095.000000</ele>
<time>2026-03-27T15:06:54Z</time>
<speed>0.000000</speed>
<trueHeading>0.000000</trueHeading>
<magneticHeading>0.000000</magneticHeading>
<gpsHeading>0.000000</gpsHeading>
<haccuracy>-1.000000</haccuracy>
<vaccuracy>-1.000000</vaccuracy>
<internetconnect>-1</internetconnect>
</trkpt>
<trkpt lat="35.002054" lon="136.420857">
<ele>1103.000000</ele>
<time>2026-03-27T15:08:00Z</time>
<speed>0.000000</speed>
<trueHeading>0.000000</trueHeading>
<magneticHeading>0.000000</magneticHeading>
<gpsHeading>0.000000</gpsHeading>
<haccuracy>-1.000000</haccuracy>
<vaccuracy>-1.000000</vaccuracy>
<internetconnect>-1</internetconnect>
</trkpt>
<trkpt lat="35.002054" lon="136.420857">
<ele>1103.000000</ele>
<time>2026-03-27T15:08:00Z</time>
<speed>0.000000</speed>
<trueHeading>0.000000</trueHeading>
<magneticHeading>0.000000</magneticHeading>
<gpsHeading>0.000000</gpsHeading>
<haccuracy>-1.000000</haccuracy>
<vaccuracy>-1.000000</vaccuracy>
<internetconnect>-1</internetconnect>
</trkpt>
<trkpt lat="35.001984" lon="136.420830">
<ele>1104.000000</ele>
<time>2026-03-27T15:08:40Z</time>
<speed>0.000000</speed>
<trueHeading>0.000000</trueHeading>
<magneticHeading>0.000000</magneticHeading>
<gpsHeading>0.000000</gpsHeading>
<haccuracy>-1.000000</haccuracy>
<vaccuracy>-1.000000</vaccuracy>
<internetconnect>-1</internetconnect>
</trkpt>
<trkpt lat="35.001900" lon="136.420809">
<ele>1103.000000</ele>
<time>2026-03-27T15:09:28Z</time>
<speed>0.000000</speed>
<trueHeading>0.000000</trueHeading>
<magneticHeading>0.000000</magneticHeading>
<gpsHeading>0.000000</gpsHeading>
<haccuracy>-1.000000</haccuracy>
<vaccuracy>-1.000000</vaccuracy>
<internetconnect>-1</internetconnect>
</trkpt>
<trkpt lat="35.001861" lon="136.420809">
<ele>1102.000000</ele>
<time>2026-03-27T15:09:50Z</time>
<speed>0.000000</speed>
<trueHeading>0.000000</trueHeading>
<magneticHeading>0.000000</magneticHeading>
<gpsHeading>0.000000</gpsHeading>
<haccuracy>-1.000000</haccuracy>
<vaccuracy>-1.000000</vaccuracy>
<internetconnect>-1</internetconnect>
</trkpt>
<trkpt lat="35.001799" lon="136.420820">
<ele>1103.000000</ele>
<time>2026-03-27T15:10:24Z</time>
<speed>0.000000</speed>
<trueHeading>0.000000</trueHeading>
<magneticHeading>0.000000</magneticHeading>
<gpsHeading>0.000000</gpsHeading>
<haccuracy>-1.000000</haccuracy>
<vaccuracy>-1.000000</vaccuracy>
<internetconnect>-1</internetconnect>
</trkpt>
<trkpt lat="35.001760" lon="136.420825">
<ele>1104.000000</ele>
<time>2026-03-27T15:10:46Z</time>
<speed>0.000000</speed>
<trueHeading>0.000000</trueHeading>
<magneticHeading>0.000000</magneticHeading>
<gpsHeading>0.000000</gpsHeading>
<haccuracy>-1.000000</haccuracy>
<vaccuracy>-1.000000</vaccuracy>
<internetconnect>-1</internetconnect>
</trkpt>
<trkpt lat="35.001716" lon="136.420841">
<ele>1106.000000</ele>
<time>2026-03-27T15:11:12Z</time>
<speed>0.000000</speed>
<trueHeading>0.000000</trueHeading>
<magneticHeading>0.000000</magneticHeading>
<gpsHeading>0.000000</gpsHeading>
<haccuracy>-1.000000</haccuracy>
<vaccuracy>-1.000000</vaccuracy>
<internetconnect>-1</internetconnect>
</trkpt>
<trkpt lat="35.001685" lon="136.420852">
<ele>1111.000000</ele>
<time>2026-03-27T15:11:30Z</time>
<speed>0.000000</speed>
<trueHeading>0.000000</trueHeading>
<magneticHeading>0.000000</magneticHeading>
<gpsHeading>0.000000</gpsHeading>
<haccuracy>-1.000000</haccuracy>
<vaccuracy>-1.000000</vaccuracy>
<internetconnect>-1</internetconnect>
</trkpt>
<trkpt lat="35.001624" lon="136.420830">
<ele>1113.000000</ele>
<time>2026-03-27T15:12:05Z</time>
<speed>0.000000</speed>
<trueHeading>0.000000</trueHeading>
<magneticHeading>0.000000</magneticHeading>
<gpsHeading>0.000000</gpsHeading>
<haccuracy>-1.000000</haccuracy>
<vaccuracy>-1.000000</vaccuracy>
<internetconnect>-1</internetconnect>
</trkpt>
<trkpt lat="35.001606" lon="136.420798">
<ele>1113.000000</ele>
<time>2026-03-27T15:12:23Z</time>
<speed>0.000000</speed>
<trueHeading>0.000000</trueHeading>
<magneticHeading>0.000000</magneticHeading>
<gpsHeading>0.000000</gpsHeading>
<haccuracy>-1.000000</haccuracy>
<vaccuracy>-1.000000</vaccuracy>
<internetconnect>-1</internetconnect>
</trkpt>
<trkpt lat="35.001584" lon="136.420761">
<ele>1116.000000</ele>
<time>2026-03-27T15:12:44Z</time>
<speed>0.000000</speed>
<trueHeading>0.000000</trueHeading>
<magneticHeading>0.000000</magneticHeading>
<gpsHeading>0.000000</gpsHeading>
<haccuracy>-1.000000</haccuracy>
<vaccuracy>-1.000000</vaccuracy>
<internetconnect>-1</internetconnect>
</trkpt>
<trkpt lat="35.001571" lon="136.420745">
<ele>1118.000000</ele>
<time>2026-03-27T15:12:54Z</time>
<speed>0.000000</speed>
<trueHeading>0.000000</trueHeading>
<magneticHeading>0.000000</magneticHeading>
<gpsHeading>0.000000</gpsHeading>
<haccuracy>-1.000000</haccuracy>
<vaccuracy>-1.000000</vaccuracy>
<internetconnect>-1</internetconnect>
</trkpt>
<trkpt lat="35.001549" lon="136.420745">
<ele>1121.000000</ele>
<time>2026-03-27T15:13:06Z</time>
<speed>0.000000</speed>
<trueHeading>0.000000</trueHeading>
<magneticHeading>0.000000</magneticHeading>
<gpsHeading>0.000000</gpsHeading>
<haccuracy>-1.000000</haccuracy>
<vaccuracy>-1.000000</vaccuracy>
<internetconnect>-1</internetconnect>
</trkpt>
<trkpt lat="35.001487" lon="136.420782">
<ele>1125.000000</ele>
<time>2026-03-27T15:13:45Z</time>
<speed>0.000000</speed>
<trueHeading>0.000000</trueHeading>
<magneticHeading>0.000000</magneticHeading>
<gpsHeading>0.000000</gpsHeading>
<haccuracy>-1.000000</haccuracy>
<vaccuracy>-1.000000</vaccuracy>
<internetconnect>-1</internetconnect>
</trkpt>
<trkpt lat="35.001430" lon="136.420863">
<ele>1129.000000</ele>
<time>2026-03-27T15:14:33Z</time>
<speed>0.000000</speed>
<trueHeading>0.000000</trueHeading>
<magneticHeading>0.000000</magneticHeading>
<gpsHeading>0.000000</gpsHeading>
<haccuracy>-1.000000</haccuracy>
<vaccuracy>-1.000000</vaccuracy>
<internetconnect>-1</internetconnect>
</trkpt>
<trkpt lat="35.001400" lon="136.420895">
<ele>1133.000000</ele>
<time>2026-03-27T15:14:56Z</time>
<speed>0.000000</speed>
<trueHeading>0.000000</trueHeading>
<magneticHeading>0.000000</magneticHeading>
<gpsHeading>0.000000</gpsHeading>
<haccuracy>-1.000000</haccuracy>
<vaccuracy>-1.000000</vaccuracy>
<internetconnect>-1</internetconnect>
</trkpt>
<trkpt lat="35.001356" lon="136.420911">
<ele>1134.000000</ele>
<time>2026-03-27T15:15:21Z</time>
<speed>0.000000</speed>
<trueHeading>0.000000</trueHeading>
<magneticHeading>0.000000</magneticHeading>
<gpsHeading>0.000000</gpsHeading>
<haccuracy>-1.000000</haccuracy>
<vaccuracy>-1.000000</vaccuracy>
<internetconnect>-1</internetconnect>
</trkpt>
<trkpt lat="35.001329" lon="136.420911">
<ele>1137.000000</ele>
<time>2026-03-27T15:15:36Z</time>
<speed>0.000000</speed>
<trueHeading>0.000000</trueHeading>
<magneticHeading>0.000000</magneticHeading>
<gpsHeading>0.000000</gpsHeading>
<haccuracy>-1.000000</haccuracy>
<vaccuracy>-1.000000</vaccuracy>
<internetconnect>-1</internetconnect>
</trkpt>
<trkpt lat="35.001272" lon="136.420906">
<ele>1143.000000</ele>
<time>2026-03-27T15:16:08Z</time>
<speed>0.000000</speed>
<trueHeading>0.000000</trueHeading>
<magneticHeading>0.000000</magneticHeading>
<gpsHeading>0.000000</gpsHeading>
<haccuracy>-1.000000</haccuracy>
<vaccuracy>-1.000000</vaccuracy>
<internetconnect>-1</internetconnect>
</trkpt>
<trkpt lat="35.001237" lon="136.420927">
<ele>1146.000000</ele>
<time>2026-03-27T15:16:30Z</time>
<speed>0.000000</speed>
<trueHeading>0.000000</trueHeading>
<magneticHeading>0.000000</magneticHeading>
<gpsHeading>0.000000</gpsHeading>
<haccuracy>-1.000000</haccuracy>
<vaccuracy>-1.000000</vaccuracy>
<internetconnect>-1</internetconnect>
</trkpt>
<trkpt lat="35.001215" lon="136.420959">
<ele>1146.000000</ele>
<time>2026-03-27T15:16:49Z</time>
<speed>0.000000</speed>
<trueHeading>0.000000</trueHeading>
<magneticHeading>0.000000</magneticHeading>
<gpsHeading>0.000000</gpsHeading>
<haccuracy>-1.000000</haccuracy>
<vaccuracy>-1.000000</vaccuracy>
<internetconnect>-1</internetconnect>
</trkpt>
<trkpt lat="35.001197" lon="136.420997">
<ele>1149.000000</ele>
<time>2026-03-27T15:17:08Z</time>
<speed>0.000000</speed>
<trueHeading>0.000000</trueHeading>
<magneticHeading>0.000000</magneticHeading>
<gpsHeading>0.000000</gpsHeading>
<haccuracy>-1.000000</haccuracy>
<vaccuracy>-1.000000</vaccuracy>
<internetconnect>-1</internetconnect>
</trkpt>
<trkpt lat="35.001180" lon="136.421045">
<ele>1151.000000</ele>
<time>2026-03-27T15:17:33Z</time>
<speed>0.000000</speed>
<trueHeading>0.000000</trueHeading>
<magneticHeading>0.000000</magneticHeading>
<gpsHeading>0.000000</gpsHeading>
<haccuracy>-1.000000</haccuracy>
<vaccuracy>-1.000000</vaccuracy>
<internetconnect>-1</internetconnect>
</trkpt>
<trkpt lat="35.001162" lon="136.421083">
<ele>1151.000000</ele>
<time>2026-03-27T15:17:52Z</time>
<speed>0.000000</speed>
<trueHeading>0.000000</trueHeading>
<magneticHeading>0.000000</magneticHeading>
<gpsHeading>0.000000</gpsHeading>
<haccuracy>-1.000000</haccuracy>
<vaccuracy>-1.000000</vaccuracy>
<internetconnect>-1</internetconnect>
</trkpt>
<trkpt lat="35.001149" lon="136.421142">
<ele>1153.000000</ele>
<time>2026-03-27T15:18:20Z</time>
<speed>0.000000</speed>
<trueHeading>0.000000</trueHeading>
<magneticHeading>0.000000</magneticHeading>
<gpsHeading>0.000000</gpsHeading>
<haccuracy>-1.000000</haccuracy>
<vaccuracy>-1.000000</vaccuracy>
<internetconnect>-1</internetconnect>
</trkpt>
<trkpt lat="35.001145" lon="136.421222">
<ele>1155.000000</ele>
<time>2026-03-27T15:18:57Z</time>
<speed>0.000000</speed>
<trueHeading>0.000000</trueHeading>
<magneticHeading>0.000000</magneticHeading>
<gpsHeading>0.000000</gpsHeading>
<haccuracy>-1.000000</haccuracy>
<vaccuracy>-1.000000</vaccuracy>
<internetconnect>-1</internetconnect>
</trkpt>
<trkpt lat="35.001228" lon="136.421313">
<ele>1154.000000</ele>
<time>2026-03-27T15:20:00Z</time>
<speed>0.000000</speed>
<trueHeading>0.000000</trueHeading>
<magneticHeading>0.000000</magneticHeading>
<gpsHeading>0.000000</gpsHeading>
<haccuracy>-1.000000</haccuracy>
<vaccuracy>-1.000000</vaccuracy>
<internetconnect>-1</internetconnect>
</trkpt>
<trkpt lat="35.001474" lon="136.421249">
<ele>1157.000000</ele>
<time>2026-03-27T15:20:00Z</time>
<speed>0.000000</speed>
<trueHeading>0.000000</trueHeading>
<magneticHeading>0.000000</magneticHeading>
<gpsHeading>0.000000</gpsHeading>
<haccuracy>-1.000000</haccuracy>
<vaccuracy>-1.000000</vaccuracy>
<internetconnect>-1</internetconnect>
</trkpt>
<trkpt lat="35.001509" lon="136.421635">
<ele>1134.000000</ele>
<time>2026-03-27T15:21:52Z</time>
<speed>0.000000</speed>
<trueHeading>0.000000</trueHeading>
<magneticHeading>0.000000</magneticHeading>
<gpsHeading>0.000000</gpsHeading>
<haccuracy>-1.000000</haccuracy>
<vaccuracy>-1.000000</vaccuracy>
<internetconnect>-1</internetconnect>
</trkpt>
<trkpt lat="35.001545" lon="136.421850">
<ele>1126.000000</ele>
<time>2026-03-27T15:22:55Z</time>
<speed>0.000000</speed>
<trueHeading>0.000000</trueHeading>
<magneticHeading>0.000000</magneticHeading>
<gpsHeading>0.000000</gpsHeading>
<haccuracy>-1.000000</haccuracy>
<vaccuracy>-1.000000</vaccuracy>
<internetconnect>-1</internetconnect>
</trkpt>
<trkpt lat="35.001668" lon="136.422107">
<ele>1120.000000</ele>
<time>2026-03-27T15:24:21Z</time>
<speed>0.000000</speed>
<trueHeading>0.000000</trueHeading>
<magneticHeading>0.000000</magneticHeading>
<gpsHeading>0.000000</gpsHeading>
<haccuracy>-1.000000</haccuracy>
<vaccuracy>-1.000000</vaccuracy>
<internetconnect>-1</internetconnect>
</trkpt>
<trkpt lat="35.001808" lon="136.422279">
<ele>1118.000000</ele>
<time>2026-03-27T15:25:31Z</time>
<speed>0.000000</speed>
<trueHeading>0.000000</trueHeading>
<magneticHeading>0.000000</magneticHeading>
<gpsHeading>0.000000</gpsHeading>
<haccuracy>-1.000000</haccuracy>
<vaccuracy>-1.000000</vaccuracy>
<internetconnect>-1</internetconnect>
</trkpt>
<trkpt lat="35.001966" lon="136.422150">
<ele>1110.000000</ele>
<time>2026-03-27T15:26:37Z</time>
<speed>0.000000</speed>
<trueHeading>0.000000</trueHeading>
<magneticHeading>0.000000</magneticHeading>
<gpsHeading>0.000000</gpsHeading>
<haccuracy>-1.000000</haccuracy>
<vaccuracy>-1.000000</vaccuracy>
<internetconnect>-1</internetconnect>
</trkpt>
<trkpt lat="35.002125" lon="136.421978">
<ele>1095.000000</ele>
<time>2026-03-27T15:27:52Z</time>
<speed>0.000000</speed>
<trueHeading>0.000000</trueHeading>
<magneticHeading>0.000000</magneticHeading>
<gpsHeading>0.000000</gpsHeading>
<haccuracy>-1.000000</haccuracy>
<vaccuracy>-1.000000</vaccuracy>
<internetconnect>-1</internetconnect>
</trkpt>
<trkpt lat="35.002283" lon="136.421893">
<ele>1083.000000</ele>
<time>2026-03-27T15:28:52Z</time>
<speed>0.000000</speed>
<trueHeading>0.000000</trueHeading>
<magneticHeading>0.000000</magneticHeading>
<gpsHeading>0.000000</gpsHeading>
<haccuracy>-1.000000</haccuracy>
<vaccuracy>-1.000000</vaccuracy>
<internetconnect>-1</internetconnect>
</trkpt>
<trkpt lat="35.002406" lon="136.422043">
<ele>1077.000000</ele>
<time>2026-03-27T15:29:53Z</time>
<speed>0.000000</speed>
<trueHeading>0.000000</trueHeading>
<magneticHeading>0.000000</magneticHeading>
<gpsHeading>0.000000</gpsHeading>
<haccuracy>-1.000000</haccuracy>
<vaccuracy>-1.000000</vaccuracy>
<internetconnect>-1</internetconnect>
</trkpt>
<trkpt lat="35.002494" lon="136.422236">
<ele>1066.000000</ele>
<time>2026-03-27T15:30:57Z</time>
<speed>0.000000</speed>
<trueHeading>0.000000</trueHeading>
<magneticHeading>0.000000</magneticHeading>
<gpsHeading>0.000000</gpsHeading>
<haccuracy>-1.000000</haccuracy>
<vaccuracy>-1.000000</vaccuracy>
<internetconnect>-1</internetconnect>
</trkpt>
<trkpt lat="35.002599" lon="136.422279">
<ele>1056.000000</ele>
<time>2026-03-27T15:31:36Z</time>
<speed>0.000000</speed>
<trueHeading>0.000000</trueHeading>
<magneticHeading>0.000000</magneticHeading>
<gpsHeading>0.000000</gpsHeading>
<haccuracy>-1.000000</haccuracy>
<vaccuracy>-1.000000</vaccuracy>
<internetconnect>-1</internetconnect>
</trkpt>
<trkpt lat="35.002775" lon="136.422279">
<ele>1037.000000</ele>
<time>2026-03-27T15:32:38Z</time>
<speed>0.000000</speed>
<trueHeading>0.000000</trueHeading>
<magneticHeading>0.000000</magneticHeading>
<gpsHeading>0.000000</gpsHeading>
<haccuracy>-1.000000</haccuracy>
<vaccuracy>-1.000000</vaccuracy>
<internetconnect>-1</internetconnect>
</trkpt>
<trkpt lat="35.002986" lon="136.422408">
<ele>1024.000000</ele>
<time>2026-03-27T15:34:01Z</time>
<speed>0.000000</speed>
<trueHeading>0.000000</trueHeading>
<magneticHeading>0.000000</magneticHeading>
<gpsHeading>0.000000</gpsHeading>
<haccuracy>-1.000000</haccuracy>
<vaccuracy>-1.000000</vaccuracy>
<internetconnect>-1</internetconnect>
</trkpt>
<trkpt lat="35.003162" lon="136.422536">
<ele>1017.000000</ele>
<time>2026-03-27T15:35:12Z</time>
<speed>0.000000</speed>
<trueHeading>0.000000</trueHeading>
<magneticHeading>0.000000</magneticHeading>
<gpsHeading>0.000000</gpsHeading>
<haccuracy>-1.000000</haccuracy>
<vaccuracy>-1.000000</vaccuracy>
<internetconnect>-1</internetconnect>
</trkpt>
<trkpt lat="35.003320" lon="136.422601">
<ele>1013.000000</ele>
<time>2026-03-27T15:36:11Z</time>
<speed>0.000000</speed>
<trueHeading>0.000000</trueHeading>
<magneticHeading>0.000000</magneticHeading>
<gpsHeading>0.000000</gpsHeading>
<haccuracy>-1.000000</haccuracy>
<vaccuracy>-1.000000</vaccuracy>
<internetconnect>-1</internetconnect>
</trkpt>
<trkpt lat="35.003496" lon="136.422687">
<ele>1007.000000</ele>
<time>2026-03-27T15:37:17Z</time>
<speed>0.000000</speed>
<trueHeading>0.000000</trueHeading>
<magneticHeading>0.000000</magneticHeading>
<gpsHeading>0.000000</gpsHeading>
<haccuracy>-1.000000</haccuracy>
<vaccuracy>-1.000000</vaccuracy>
<internetconnect>-1</internetconnect>
</trkpt>
<trkpt lat="35.003671" lon="136.422794">
<ele>1003.000000</ele>
<time>2026-03-27T15:38:26Z</time>
<speed>0.000000</speed>
<trueHeading>0.000000</trueHeading>
<magneticHeading>0.000000</magneticHeading>
<gpsHeading>0.000000</gpsHeading>
<haccuracy>-1.000000</haccuracy>
<vaccuracy>-1.000000</vaccuracy>
<internetconnect>-1</internetconnect>
</trkpt>
<trkpt lat="35.003829" lon="136.422815">
<ele>989.000000</ele>
<time>2026-03-27T15:39:22Z</time>
<speed>0.000000</speed>
<trueHeading>0.000000</trueHeading>
<magneticHeading>0.000000</magneticHeading>
<gpsHeading>0.000000</gpsHeading>
<haccuracy>-1.000000</haccuracy>
<vaccuracy>-1.000000</vaccuracy>
<internetconnect>-1</internetconnect>
</trkpt>
<trkpt lat="35.003988" lon="136.422708">
<ele>981.000000</ele>
<time>2026-03-27T15:40:26Z</time>
<speed>0.000000</speed>
<trueHeading>0.000000</trueHeading>
<magneticHeading>0.000000</magneticHeading>
<gpsHeading>0.000000</gpsHeading>
<haccuracy>-1.000000</haccuracy>
<vaccuracy>-1.000000</vaccuracy>
<internetconnect>-1</internetconnect>
</trkpt>
<trkpt lat="35.004286" lon="136.422558">
<ele>960.000000</ele>
<time>2026-03-27T15:42:19Z</time>
<speed>0.000000</speed>
<trueHeading>0.000000</trueHeading>
<magneticHeading>0.000000</magneticHeading>
<gpsHeading>0.000000</gpsHeading>
<haccuracy>-1.000000</haccuracy>
<vaccuracy>-1.000000</vaccuracy>
<internetconnect>-1</internetconnect>
</trkpt>
<trkpt lat="35.004533" lon="136.422493">
<ele>948.000000</ele>
<time>2026-03-27T15:43:47Z</time>
<speed>0.000000</speed>
<trueHeading>0.000000</trueHeading>
<magneticHeading>0.000000</magneticHeading>
<gpsHeading>0.000000</gpsHeading>
<haccuracy>-1.000000</haccuracy>
<vaccuracy>-1.000000</vaccuracy>
<internetconnect>-1</internetconnect>
</trkpt>
<trkpt lat="35.004743" lon="136.422493">
<ele>943.000000</ele>
<time>2026-03-27T15:45:01Z</time>
<speed>0.000000</speed>
<trueHeading>0.000000</trueHeading>
<magneticHeading>0.000000</magneticHeading>
<gpsHeading>0.000000</gpsHeading>
<haccuracy>-1.000000</haccuracy>
<vaccuracy>-1.000000</vaccuracy>
<internetconnect>-1</internetconnect>
</trkpt>
<trkpt lat="35.005007" lon="136.422622">
<ele>933.000000</ele>
<time>2026-03-27T15:46:41Z</time>
<speed>0.000000</speed>
<trueHeading>0.000000</trueHeading>
<magneticHeading>0.000000</magneticHeading>
<gpsHeading>0.000000</gpsHeading>
<haccuracy>-1.000000</haccuracy>
<vaccuracy>-1.000000</vaccuracy>
<internetconnect>-1</internetconnect>
</trkpt>
<trkpt lat="35.005218" lon="136.422772">
<ele>922.000000</ele>
<time>2026-03-27T15:48:07Z</time>
<speed>0.000000</speed>
<trueHeading>0.000000</trueHeading>
<magneticHeading>0.000000</magneticHeading>
<gpsHeading>0.000000</gpsHeading>
<haccuracy>-1.000000</haccuracy>
<vaccuracy>-1.000000</vaccuracy>
<internetconnect>-1</internetconnect>
</trkpt>
<trkpt lat="35.005341" lon="136.422880">
<ele>918.000000</ele>
<time>2026-03-27T15:49:00Z</time>
<speed>0.000000</speed>
<trueHeading>0.000000</trueHeading>
<magneticHeading>0.000000</magneticHeading>
<gpsHeading>0.000000</gpsHeading>
<haccuracy>-1.000000</haccuracy>
<vaccuracy>-1.000000</vaccuracy>
<internetconnect>-1</internetconnect>
</trkpt>
<trkpt lat="35.005376" lon="136.423008">
<ele>913.000000</ele>
<time>2026-03-27T15:49:39Z</time>
<speed>0.000000</speed>
<trueHeading>0.000000</trueHeading>
<magneticHeading>0.000000</magneticHeading>
<gpsHeading>0.000000</gpsHeading>
<haccuracy>-1.000000</haccuracy>
<vaccuracy>-1.000000</vaccuracy>
<internetconnect>-1</internetconnect>
</trkpt>
<trkpt lat="35.005534" lon="136.423073">
<ele>908.000000</ele>
<time>2026-03-27T15:50:37Z</time>
<speed>0.000000</speed>
<trueHeading>0.000000</trueHeading>
<magneticHeading>0.000000</magneticHeading>
<gpsHeading>0.000000</gpsHeading>
<haccuracy>-1.000000</haccuracy>
<vaccuracy>-1.000000</vaccuracy>
<internetconnect>-1</internetconnect>
</trkpt>
<trkpt lat="35.005763" lon="136.423008">
<ele>897.000000</ele>
<time>2026-03-27T15:52:00Z</time>
<speed>0.000000</speed>
<trueHeading>0.000000</trueHeading>
<magneticHeading>0.000000</magneticHeading>
<gpsHeading>0.000000</gpsHeading>
<haccuracy>-1.000000</haccuracy>
<vaccuracy>-1.000000</vaccuracy>
<internetconnect>-1</internetconnect>
</trkpt>
<trkpt lat="35.005991" lon="136.423094">
<ele>892.000000</ele>
<time>2026-03-27T15:52:00Z</time>
<speed>0.000000</speed>
<trueHeading>0.000000</trueHeading>
<magneticHeading>0.000000</magneticHeading>
<gpsHeading>0.000000</gpsHeading>
<haccuracy>-1.000000</haccuracy>
<vaccuracy>-1.000000</vaccuracy>
<internetconnect>-1</internetconnect>
</trkpt>
<trkpt lat="35.006202" lon="136.423244">
<ele>891.000000</ele>
<time>2026-03-27T15:52:52Z</time>
<speed>0.000000</speed>
<trueHeading>0.000000</trueHeading>
<magneticHeading>0.000000</magneticHeading>
<gpsHeading>0.000000</gpsHeading>
<haccuracy>-1.000000</haccuracy>
<vaccuracy>-1.000000</vaccuracy>
<internetconnect>-1</internetconnect>
</trkpt>
<trkpt lat="35.006150" lon="136.423566">
<ele>886.000000</ele>
<time>2026-03-27T15:53:50Z</time>
<speed>0.000000</speed>
<trueHeading>0.000000</trueHeading>
<magneticHeading>0.000000</magneticHeading>
<gpsHeading>0.000000</gpsHeading>
<haccuracy>-1.000000</haccuracy>
<vaccuracy>-1.000000</vaccuracy>
<internetconnect>-1</internetconnect>
</trkpt>
<trkpt lat="35.006097" lon="136.423910">
<ele>880.000000</ele>
<time>2026-03-27T15:54:52Z</time>
<speed>0.000000</speed>
<trueHeading>0.000000</trueHeading>
<magneticHeading>0.000000</magneticHeading>
<gpsHeading>0.000000</gpsHeading>
<haccuracy>-1.000000</haccuracy>
<vaccuracy>-1.000000</vaccuracy>
<internetconnect>-1</internetconnect>
</trkpt>
<trkpt lat="35.006167" lon="136.424210">
<ele>877.000000</ele>
<time>2026-03-27T15:55:47Z</time>
<speed>0.000000</speed>
<trueHeading>0.000000</trueHeading>
<magneticHeading>0.000000</magneticHeading>
<gpsHeading>0.000000</gpsHeading>
<haccuracy>-1.000000</haccuracy>
<vaccuracy>-1.000000</vaccuracy>
<internetconnect>-1</internetconnect>
</trkpt>
<trkpt lat="35.006290" lon="136.424575">
<ele>873.000000</ele>
<time>2026-03-27T15:56:56Z</time>
<speed>0.000000</speed>
<trueHeading>0.000000</trueHeading>
<magneticHeading>0.000000</magneticHeading>
<gpsHeading>0.000000</gpsHeading>
<haccuracy>-1.000000</haccuracy>
<vaccuracy>-1.000000</vaccuracy>
<internetconnect>-1</internetconnect>
</trkpt>
<trkpt lat="35.006290" lon="136.424747">
<ele>870.000000</ele>
<time>2026-03-27T15:57:27Z</time>
<speed>0.000000</speed>
<trueHeading>0.000000</trueHeading>
<magneticHeading>0.000000</magneticHeading>
<gpsHeading>0.000000</gpsHeading>
<haccuracy>-1.000000</haccuracy>
<vaccuracy>-1.000000</vaccuracy>
<internetconnect>-1</internetconnect>
</trkpt>
<trkpt lat="35.006255" lon="136.425047">
<ele>871.000000</ele>
<time>2026-03-27T15:58:20Z</time>
<speed>0.000000</speed>
<trueHeading>0.000000</trueHeading>
<magneticHeading>0.000000</magneticHeading>
<gpsHeading>0.000000</gpsHeading>
<haccuracy>-1.000000</haccuracy>
<vaccuracy>-1.000000</vaccuracy>
<internetconnect>-1</internetconnect>
</trkpt>
<trkpt lat="35.006255" lon="136.425304">
<ele>875.000000</ele>
<time>2026-03-27T15:59:06Z</time>
<speed>0.000000</speed>
<trueHeading>0.000000</trueHeading>
<magneticHeading>0.000000</magneticHeading>
<gpsHeading>0.000000</gpsHeading>
<haccuracy>-1.000000</haccuracy>
<vaccuracy>-1.000000</vaccuracy>
<internetconnect>-1</internetconnect>
</trkpt>
<trkpt lat="35.006343" lon="136.425669">
<ele>878.000000</ele>
<time>2026-03-27T16:00:13Z</time>
<speed>0.000000</speed>
<trueHeading>0.000000</trueHeading>
<magneticHeading>0.000000</magneticHeading>
<gpsHeading>0.000000</gpsHeading>
<haccuracy>-1.000000</haccuracy>
<vaccuracy>-1.000000</vaccuracy>
<internetconnect>-1</internetconnect>
</trkpt>
<trkpt lat="35.006413" lon="136.425905">
<ele>879.000000</ele>
<time>2026-03-27T16:00:57Z</time>
<speed>0.000000</speed>
<trueHeading>0.000000</trueHeading>
<magneticHeading>0.000000</magneticHeading>
<gpsHeading>0.000000</gpsHeading>
<haccuracy>-1.000000</haccuracy>
<vaccuracy>-1.000000</vaccuracy>
<internetconnect>-1</internetconnect>
</trkpt>
<trkpt lat="35.006606" lon="136.426356">
<ele>875.000000</ele>
<time>2026-03-27T16:02:27Z</time>
<speed>0.000000</speed>
<trueHeading>0.000000</trueHeading>
<magneticHeading>0.000000</magneticHeading>
<gpsHeading>0.000000</gpsHeading>
<haccuracy>-1.000000</haccuracy>
<vaccuracy>-1.000000</vaccuracy>
<internetconnect>-1</internetconnect>
</trkpt>
<trkpt lat="35.006642" lon="136.426699">
<ele>868.000000</ele>
<time>2026-03-27T16:03:28Z</time>
<speed>0.000000</speed>
<trueHeading>0.000000</trueHeading>
<magneticHeading>0.000000</magneticHeading>
<gpsHeading>0.000000</gpsHeading>
<haccuracy>-1.000000</haccuracy>
<vaccuracy>-1.000000</vaccuracy>
<internetconnect>-1</internetconnect>
</trkpt>
<trkpt lat="35.006659" lon="136.426914">
<ele>868.000000</ele>
<time>2026-03-27T16:04:06Z</time>
<speed>0.000000</speed>
<trueHeading>0.000000</trueHeading>
<magneticHeading>0.000000</magneticHeading>
<gpsHeading>0.000000</gpsHeading>
<haccuracy>-1.000000</haccuracy>
<vaccuracy>-1.000000</vaccuracy>
<internetconnect>-1</internetconnect>
</trkpt>
<trkpt lat="35.006712" lon="136.426978">
<ele>867.000000</ele>
<time>2026-03-27T16:04:22Z</time>
<speed>0.000000</speed>
<trueHeading>0.000000</trueHeading>
<magneticHeading>0.000000</magneticHeading>
<gpsHeading>0.000000</gpsHeading>
<haccuracy>-1.000000</haccuracy>
<vaccuracy>-1.000000</vaccuracy>
<internetconnect>-1</internetconnect>
</trkpt>
<trkpt lat="35.006905" lon="136.427279">
<ele>859.000000</ele>
<time>2026-03-27T16:05:30Z</time>
<speed>0.000000</speed>
<trueHeading>0.000000</trueHeading>
<magneticHeading>0.000000</magneticHeading>
<gpsHeading>0.000000</gpsHeading>
<haccuracy>-1.000000</haccuracy>
<vaccuracy>-1.000000</vaccuracy>
<internetconnect>-1</internetconnect>
</trkpt>
<trkpt lat="35.007046" lon="136.427557">
<ele>854.000000</ele>
<time>2026-03-27T16:06:27Z</time>
<speed>0.000000</speed>
<trueHeading>0.000000</trueHeading>
<magneticHeading>0.000000</magneticHeading>
<gpsHeading>0.000000</gpsHeading>
<haccuracy>-1.000000</haccuracy>
<vaccuracy>-1.000000</vaccuracy>
<internetconnect>-1</internetconnect>
</trkpt>
<trkpt lat="35.007151" lon="136.427815">
<ele>845.000000</ele>
<time>2026-03-27T16:07:18Z</time>
<speed>0.000000</speed>
<trueHeading>0.000000</trueHeading>
<magneticHeading>0.000000</magneticHeading>
<gpsHeading>0.000000</gpsHeading>
<haccuracy>-1.000000</haccuracy>
<vaccuracy>-1.000000</vaccuracy>
<internetconnect>-1</internetconnect>
</trkpt>
<trkpt lat="35.007222" lon="136.428008">
<ele>834.000000</ele>
<time>2026-03-27T16:07:55Z</time>
<speed>0.000000</speed>
<trueHeading>0.000000</trueHeading>
<magneticHeading>0.000000</magneticHeading>
<gpsHeading>0.000000</gpsHeading>
<haccuracy>-1.000000</haccuracy>
<vaccuracy>-1.000000</vaccuracy>
<internetconnect>-1</internetconnect>
</trkpt>
<trkpt lat="35.007380" lon="136.428094">
<ele>830.000000</ele>
<time>2026-03-27T16:08:33Z</time>
<speed>0.000000</speed>
<trueHeading>0.000000</trueHeading>
<magneticHeading>0.000000</magneticHeading>
<gpsHeading>0.000000</gpsHeading>
<haccuracy>-1.000000</haccuracy>
<vaccuracy>-1.000000</vaccuracy>
<internetconnect>-1</internetconnect>
</trkpt>
<trkpt lat="35.007626" lon="136.428373">
<ele>815.000000</ele>
<time>2026-03-27T16:09:45Z</time>
<speed>0.000000</speed>
<trueHeading>0.000000</trueHeading>
<magneticHeading>0.000000</magneticHeading>
<gpsHeading>0.000000</gpsHeading>
<haccuracy>-1.000000</haccuracy>
<vaccuracy>-1.000000</vaccuracy>
<internetconnect>-1</internetconnect>
</trkpt>
<trkpt lat="35.007731" lon="136.428502">
<ele>811.000000</ele>
<time>2026-03-27T16:10:17Z</time>
<speed>0.000000</speed>
<trueHeading>0.000000</trueHeading>
<magneticHeading>0.000000</magneticHeading>
<gpsHeading>0.000000</gpsHeading>
<haccuracy>-1.000000</haccuracy>
<vaccuracy>-1.000000</vaccuracy>
<internetconnect>-1</internetconnect>
</trkpt>
<trkpt lat="35.007837" lon="136.428823">
<ele>809.000000</ele>
<time>2026-03-27T16:11:18Z</time>
<speed>0.000000</speed>
<trueHeading>0.000000</trueHeading>
<magneticHeading>0.000000</magneticHeading>
<gpsHeading>0.000000</gpsHeading>
<haccuracy>-1.000000</haccuracy>
<vaccuracy>-1.000000</vaccuracy>
<internetconnect>-1</internetconnect>
</trkpt>
<trkpt lat="35.008013" lon="136.428974">
<ele>802.000000</ele>
<time>2026-03-27T16:12:04Z</time>
<speed>0.000000</speed>
<trueHeading>0.000000</trueHeading>
<magneticHeading>0.000000</magneticHeading>
<gpsHeading>0.000000</gpsHeading>
<haccuracy>-1.000000</haccuracy>
<vaccuracy>-1.000000</vaccuracy>
<internetconnect>-1</internetconnect>
</trkpt>
<trkpt lat="35.008206" lon="136.428974">
<ele>795.000000</ele>
<time>2026-03-27T16:12:46Z</time>
<speed>0.000000</speed>
<trueHeading>0.000000</trueHeading>
<magneticHeading>0.000000</magneticHeading>
<gpsHeading>0.000000</gpsHeading>
<haccuracy>-1.000000</haccuracy>
<vaccuracy>-1.000000</vaccuracy>
<internetconnect>-1</internetconnect>
</trkpt>
<trkpt lat="35.008382" lon="136.429102">
<ele>791.000000</ele>
<time>2026-03-27T16:13:30Z</time>
<speed>0.000000</speed>
<trueHeading>0.000000</trueHeading>
<magneticHeading>0.000000</magneticHeading>
<gpsHeading>0.000000</gpsHeading>
<haccuracy>-1.000000</haccuracy>
<vaccuracy>-1.000000</vaccuracy>
<internetconnect>-1</internetconnect>
</trkpt>
<trkpt lat="35.008540" lon="136.429446">
<ele>777.000000</ele>
<time>2026-03-27T16:14:39Z</time>
<speed>0.000000</speed>
<trueHeading>0.000000</trueHeading>
<magneticHeading>0.000000</magneticHeading>
<gpsHeading>0.000000</gpsHeading>
<haccuracy>-1.000000</haccuracy>
<vaccuracy>-1.000000</vaccuracy>
<internetconnect>-1</internetconnect>
</trkpt>
<trkpt lat="35.008663" lon="136.429467">
<ele>776.000000</ele>
<time>2026-03-27T16:15:06Z</time>
<speed>0.000000</speed>
<trueHeading>0.000000</trueHeading>
<magneticHeading>0.000000</magneticHeading>
<gpsHeading>0.000000</gpsHeading>
<haccuracy>-1.000000</haccuracy>
<vaccuracy>-1.000000</vaccuracy>
<internetconnect>-1</internetconnect>
</trkpt>
<trkpt lat="35.008874" lon="136.429446">
<ele>768.000000</ele>
<time>2026-03-27T16:15:51Z</time>
<speed>0.000000</speed>
<trueHeading>0.000000</trueHeading>
<magneticHeading>0.000000</magneticHeading>
<gpsHeading>0.000000</gpsHeading>
<haccuracy>-1.000000</haccuracy>
<vaccuracy>-1.000000</vaccuracy>
<internetconnect>-1</internetconnect>
</trkpt>
<trkpt lat="35.009067" lon="136.429403">
<ele>772.000000</ele>
<time>2026-03-27T16:16:33Z</time>
<speed>0.000000</speed>
<trueHeading>0.000000</trueHeading>
<magneticHeading>0.000000</magneticHeading>
<gpsHeading>0.000000</gpsHeading>
<haccuracy>-1.000000</haccuracy>
<vaccuracy>-1.000000</vaccuracy>
<internetconnect>-1</internetconnect>
</trkpt>
<trkpt lat="35.009208" lon="136.429532">
<ele>773.000000</ele>
<time>2026-03-27T16:17:11Z</time>
<speed>0.000000</speed>
<trueHeading>0.000000</trueHeading>
<magneticHeading>0.000000</magneticHeading>
<gpsHeading>0.000000</gpsHeading>
<haccuracy>-1.000000</haccuracy>
<vaccuracy>-1.000000</vaccuracy>
<internetconnect>-1</internetconnect>
</trkpt>
<trkpt lat="35.009542" lon="136.429660">
<ele>781.000000</ele>
<time>2026-03-27T16:18:26Z</time>
<speed>0.000000</speed>
<trueHeading>0.000000</trueHeading>
<magneticHeading>0.000000</magneticHeading>
<gpsHeading>0.000000</gpsHeading>
<haccuracy>-1.000000</haccuracy>
<vaccuracy>-1.000000</vaccuracy>
<internetconnect>-1</internetconnect>
</trkpt>
<trkpt lat="35.009981" lon="136.429660">
<ele>784.000000</ele>
<time>2026-03-27T16:20:01Z</time>
<speed>0.000000</speed>
<trueHeading>0.000000</trueHeading>
<magneticHeading>0.000000</magneticHeading>
<gpsHeading>0.000000</gpsHeading>
<haccuracy>-1.000000</haccuracy>
<vaccuracy>-1.000000</vaccuracy>
<internetconnect>-1</internetconnect>
</trkpt>
<trkpt lat="35.010368" lon="136.429789">
<ele>802.000000</ele>
<time>2026-03-27T16:21:27Z</time>
<speed>0.000000</speed>
<trueHeading>0.000000</trueHeading>
<magneticHeading>0.000000</magneticHeading>
<gpsHeading>0.000000</gpsHeading>
<haccuracy>-1.000000</haccuracy>
<vaccuracy>-1.000000</vaccuracy>
<internetconnect>-1</internetconnect>
</trkpt>
<trkpt lat="35.010473" lon="136.429918">
<ele>804.000000</ele>
<time>2026-03-27T16:21:59Z</time>
<speed>0.000000</speed>
<trueHeading>0.000000</trueHeading>
<magneticHeading>0.000000</magneticHeading>
<gpsHeading>0.000000</gpsHeading>
<haccuracy>-1.000000</haccuracy>
<vaccuracy>-1.000000</vaccuracy>
<internetconnect>-1</internetconnect>
</trkpt>
<trkpt lat="35.010474" lon="136.429921">
<ele>804.000000</ele>
<time>2026-03-27T16:22:00Z</time>
<speed>0.000000</speed>
<trueHeading>0.000000</trueHeading>
<magneticHeading>0.000000</magneticHeading>
<gpsHeading>0.000000</gpsHeading>
<haccuracy>-1.000000</haccuracy>
<vaccuracy>-1.000000</vaccuracy>
<internetconnect>-1</internetconnect>
</trkpt>
<trkpt lat="35.010631" lon="136.430283">
<ele>799.000000</ele>
<time>2026-03-27T16:22:00Z</time>
<speed>0.000000</speed>
<trueHeading>0.000000</trueHeading>
<magneticHeading>0.000000</magneticHeading>
<gpsHeading>0.000000</gpsHeading>
<haccuracy>-1.000000</haccuracy>
<vaccuracy>-1.000000</vaccuracy>
<internetconnect>-1</internetconnect>
</trkpt>
<trkpt lat="35.010837" lon="136.430618">
<ele>800.000000</ele>
<time>2026-03-27T16:23:49Z</time>
<speed>0.000000</speed>
<trueHeading>0.000000</trueHeading>
<magneticHeading>0.000000</magneticHeading>
<gpsHeading>0.000000</gpsHeading>
<haccuracy>-1.000000</haccuracy>
<vaccuracy>-1.000000</vaccuracy>
<internetconnect>-1</internetconnect>
</trkpt>
<trkpt lat="35.010895" lon="136.430712">
<ele>796.000000</ele>
<time>2026-03-27T16:24:19Z</time>
<speed>0.000000</speed>
<trueHeading>0.000000</trueHeading>
<magneticHeading>0.000000</magneticHeading>
<gpsHeading>0.000000</gpsHeading>
<haccuracy>-1.000000</haccuracy>
<vaccuracy>-1.000000</vaccuracy>
<internetconnect>-1</internetconnect>
</trkpt>
<trkpt lat="35.010913" lon="136.430818">
<ele>793.000000</ele>
<time>2026-03-27T16:24:47Z</time>
<speed>0.000000</speed>
<trueHeading>0.000000</trueHeading>
<magneticHeading>0.000000</magneticHeading>
<gpsHeading>0.000000</gpsHeading>
<haccuracy>-1.000000</haccuracy>
<vaccuracy>-1.000000</vaccuracy>
<internetconnect>-1</internetconnect>
</trkpt>
<trkpt lat="35.010965" lon="136.431119">
<ele>792.000000</ele>
<time>2026-03-27T16:26:08Z</time>
<speed>0.000000</speed>
<trueHeading>0.000000</trueHeading>
<magneticHeading>0.000000</magneticHeading>
<gpsHeading>0.000000</gpsHeading>
<haccuracy>-1.000000</haccuracy>
<vaccuracy>-1.000000</vaccuracy>
<internetconnect>-1</internetconnect>
</trkpt>
<trkpt lat="35.011035" lon="136.431549">
<ele>777.000000</ele>
<time>2026-03-27T16:28:02Z</time>
<speed>0.000000</speed>
<trueHeading>0.000000</trueHeading>
<magneticHeading>0.000000</magneticHeading>
<gpsHeading>0.000000</gpsHeading>
<haccuracy>-1.000000</haccuracy>
<vaccuracy>-1.000000</vaccuracy>
<internetconnect>-1</internetconnect>
</trkpt>
<trkpt lat="35.011088" lon="136.432192">
<ele>755.000000</ele>
<time>2026-03-27T16:30:50Z</time>
<speed>0.000000</speed>
<trueHeading>0.000000</trueHeading>
<magneticHeading>0.000000</magneticHeading>
<gpsHeading>0.000000</gpsHeading>
<haccuracy>-1.000000</haccuracy>
<vaccuracy>-1.000000</vaccuracy>
<internetconnect>-1</internetconnect>
</trkpt>
<trkpt lat="35.011176" lon="136.432364">
<ele>751.000000</ele>
<time>2026-03-27T16:31:43Z</time>
<speed>0.000000</speed>
<trueHeading>0.000000</trueHeading>
<magneticHeading>0.000000</magneticHeading>
<gpsHeading>0.000000</gpsHeading>
<haccuracy>-1.000000</haccuracy>
<vaccuracy>-1.000000</vaccuracy>
<internetconnect>-1</internetconnect>
</trkpt>
<trkpt lat="35.011352" lon="136.432493">
<ele>746.000000</ele>
<time>2026-03-27T16:32:48Z</time>
<speed>0.000000</speed>
<trueHeading>0.000000</trueHeading>
<magneticHeading>0.000000</magneticHeading>
<gpsHeading>0.000000</gpsHeading>
<haccuracy>-1.000000</haccuracy>
<vaccuracy>-1.000000</vaccuracy>
<internetconnect>-1</internetconnect>
</trkpt>
<trkpt lat="35.011668" lon="136.432729">
<ele>712.000000</ele>
<time>2026-03-27T16:34:46Z</time>
<speed>0.000000</speed>
<trueHeading>0.000000</trueHeading>
<magneticHeading>0.000000</magneticHeading>
<gpsHeading>0.000000</gpsHeading>
<haccuracy>-1.000000</haccuracy>
<vaccuracy>-1.000000</vaccuracy>
<internetconnect>-1</internetconnect>
</trkpt>
<trkpt lat="35.011774" lon="136.432879">
<ele>705.000000</ele>
<time>2026-03-27T16:35:37Z</time>
<speed>0.000000</speed>
<trueHeading>0.000000</trueHeading>
<magneticHeading>0.000000</magneticHeading>
<gpsHeading>0.000000</gpsHeading>
<haccuracy>-1.000000</haccuracy>
<vaccuracy>-1.000000</vaccuracy>
<internetconnect>-1</internetconnect>
</trkpt>
<trkpt lat="35.011984" lon="136.433179">
<ele>685.000000</ele>
<time>2026-03-27T16:37:20Z</time>
<speed>0.000000</speed>
<trueHeading>0.000000</trueHeading>
<magneticHeading>0.000000</magneticHeading>
<gpsHeading>0.000000</gpsHeading>
<haccuracy>-1.000000</haccuracy>
<vaccuracy>-1.000000</vaccuracy>
<internetconnect>-1</internetconnect>
</trkpt>
<trkpt lat="35.012037" lon="136.433394">
<ele>674.000000</ele>
<time>2026-03-27T16:38:19Z</time>
<speed>0.000000</speed>
<trueHeading>0.000000</trueHeading>
<magneticHeading>0.000000</magneticHeading>
<gpsHeading>0.000000</gpsHeading>
<haccuracy>-1.000000</haccuracy>
<vaccuracy>-1.000000</vaccuracy>
<internetconnect>-1</internetconnect>
</trkpt>
<trkpt lat="35.012037" lon="136.433609">
<ele>665.000000</ele>
<time>2026-03-27T16:39:15Z</time>
<speed>0.000000</speed>
<trueHeading>0.000000</trueHeading>
<magneticHeading>0.000000</magneticHeading>
<gpsHeading>0.000000</gpsHeading>
<haccuracy>-1.000000</haccuracy>
<vaccuracy>-1.000000</vaccuracy>
<internetconnect>-1</internetconnect>
</trkpt>
<trkpt lat="35.012160" lon="136.433694">
<ele>659.000000</ele>
<time>2026-03-27T16:40:00Z</time>
<speed>0.000000</speed>
<trueHeading>0.000000</trueHeading>
<magneticHeading>0.000000</magneticHeading>
<gpsHeading>0.000000</gpsHeading>
<haccuracy>-1.000000</haccuracy>
<vaccuracy>-1.000000</vaccuracy>
<internetconnect>-1</internetconnect>
</trkpt>
<trkpt lat="35.012231" lon="136.433930">
<ele>648.000000</ele>
<time>2026-03-27T16:41:05Z</time>
<speed>0.000000</speed>
<trueHeading>0.000000</trueHeading>
<magneticHeading>0.000000</magneticHeading>
<gpsHeading>0.000000</gpsHeading>
<haccuracy>-1.000000</haccuracy>
<vaccuracy>-1.000000</vaccuracy>
<internetconnect>-1</internetconnect>
</trkpt>
<trkpt lat="35.012283" lon="136.434424">
<ele>642.000000</ele>
<time>2026-03-27T16:43:15Z</time>
<speed>0.000000</speed>
<trueHeading>0.000000</trueHeading>
<magneticHeading>0.000000</magneticHeading>
<gpsHeading>0.000000</gpsHeading>
<haccuracy>-1.000000</haccuracy>
<vaccuracy>-1.000000</vaccuracy>
<internetconnect>-1</internetconnect>
</trkpt>
<trkpt lat="35.012354" lon="136.434832">
<ele>631.000000</ele>
<time>2026-03-27T16:45:03Z</time>
<speed>0.000000</speed>
<trueHeading>0.000000</trueHeading>
<magneticHeading>0.000000</magneticHeading>
<gpsHeading>0.000000</gpsHeading>
<haccuracy>-1.000000</haccuracy>
<vaccuracy>-1.000000</vaccuracy>
<internetconnect>-1</internetconnect>
</trkpt>
<trkpt lat="35.012354" lon="136.435282">
<ele>621.000000</ele>
<time>2026-03-27T16:47:01Z</time>
<speed>0.000000</speed>
<trueHeading>0.000000</trueHeading>
<magneticHeading>0.000000</magneticHeading>
<gpsHeading>0.000000</gpsHeading>
<haccuracy>-1.000000</haccuracy>
<vaccuracy>-1.000000</vaccuracy>
<internetconnect>-1</internetconnect>
</trkpt>
<trkpt lat="35.012266" lon="136.435475">
<ele>617.000000</ele>
<time>2026-03-27T16:47:58Z</time>
<speed>0.000000</speed>
<trueHeading>0.000000</trueHeading>
<magneticHeading>0.000000</magneticHeading>
<gpsHeading>0.000000</gpsHeading>
<haccuracy>-1.000000</haccuracy>
<vaccuracy>-1.000000</vaccuracy>
<internetconnect>-1</internetconnect>
</trkpt>
<trkpt lat="35.012143" lon="136.435540">
<ele>613.000000</ele>
<time>2026-03-27T16:48:41Z</time>
<speed>0.000000</speed>
<trueHeading>0.000000</trueHeading>
<magneticHeading>0.000000</magneticHeading>
<gpsHeading>0.000000</gpsHeading>
<haccuracy>-1.000000</haccuracy>
<vaccuracy>-1.000000</vaccuracy>
<internetconnect>-1</internetconnect>
</trkpt>
<trkpt lat="35.012072" lon="136.435604">
<ele>604.000000</ele>
<time>2026-03-27T16:49:09Z</time>
<speed>0.000000</speed>
<trueHeading>0.000000</trueHeading>
<magneticHeading>0.000000</magneticHeading>
<gpsHeading>0.000000</gpsHeading>
<haccuracy>-1.000000</haccuracy>
<vaccuracy>-1.000000</vaccuracy>
<internetconnect>-1</internetconnect>
</trkpt>
<trkpt lat="35.012107" lon="136.435754">
<ele>596.000000</ele>
<time>2026-03-27T16:49:49Z</time>
<speed>0.000000</speed>
<trueHeading>0.000000</trueHeading>
<magneticHeading>0.000000</magneticHeading>
<gpsHeading>0.000000</gpsHeading>
<haccuracy>-1.000000</haccuracy>
<vaccuracy>-1.000000</vaccuracy>
<internetconnect>-1</internetconnect>
</trkpt>
<trkpt lat="35.012107" lon="136.435969">
<ele>580.000000</ele>
<time>2026-03-27T16:50:45Z</time>
<speed>0.000000</speed>
<trueHeading>0.000000</trueHeading>
<magneticHeading>0.000000</magneticHeading>
<gpsHeading>0.000000</gpsHeading>
<haccuracy>-1.000000</haccuracy>
<vaccuracy>-1.000000</vaccuracy>
<internetconnect>-1</internetconnect>
</trkpt>
<trkpt lat="35.011932" lon="136.436183">
<ele>566.000000</ele>
<time>2026-03-27T16:52:04Z</time>
<speed>0.000000</speed>
<trueHeading>0.000000</trueHeading>
<magneticHeading>0.000000</magneticHeading>
<gpsHeading>0.000000</gpsHeading>
<haccuracy>-1.000000</haccuracy>
<vaccuracy>-1.000000</vaccuracy>
<internetconnect>-1</internetconnect>
</trkpt>
<trkpt lat="35.011844" lon="136.436613">
<ele>536.000000</ele>
<time>2026-03-27T16:54:00Z</time>
<speed>0.000000</speed>
<trueHeading>0.000000</trueHeading>
<magneticHeading>0.000000</magneticHeading>
<gpsHeading>0.000000</gpsHeading>
<haccuracy>-1.000000</haccuracy>
<vaccuracy>-1.000000</vaccuracy>
<internetconnect>-1</internetconnect>
</trkpt>
<trkpt lat="35.012266" lon="136.436806">
<ele>517.000000</ele>
<time>2026-03-27T16:54:00Z</time>
<speed>0.000000</speed>
<trueHeading>0.000000</trueHeading>
<magneticHeading>0.000000</magneticHeading>
<gpsHeading>0.000000</gpsHeading>
<haccuracy>-1.000000</haccuracy>
<vaccuracy>-1.000000</vaccuracy>
<internetconnect>-1</internetconnect>
</trkpt>
<trkpt lat="35.012529" lon="136.436827">
<ele>513.000000</ele>
<time>2026-03-27T16:55:11Z</time>
<speed>0.000000</speed>
<trueHeading>0.000000</trueHeading>
<magneticHeading>0.000000</magneticHeading>
<gpsHeading>0.000000</gpsHeading>
<haccuracy>-1.000000</haccuracy>
<vaccuracy>-1.000000</vaccuracy>
<internetconnect>-1</internetconnect>
</trkpt>
<trkpt lat="35.012705" lon="136.436913">
<ele>508.000000</ele>
<time>2026-03-27T16:56:01Z</time>
<speed>0.000000</speed>
<trueHeading>0.000000</trueHeading>
<magneticHeading>0.000000</magneticHeading>
<gpsHeading>0.000000</gpsHeading>
<haccuracy>-1.000000</haccuracy>
<vaccuracy>-1.000000</vaccuracy>
<internetconnect>-1</internetconnect>
</trkpt>
<trkpt lat="35.012898" lon="136.437256">
<ele>504.000000</ele>
<time>2026-03-27T16:57:33Z</time>
<speed>0.000000</speed>
<trueHeading>0.000000</trueHeading>
<magneticHeading>0.000000</magneticHeading>
<gpsHeading>0.000000</gpsHeading>
<haccuracy>-1.000000</haccuracy>
<vaccuracy>-1.000000</vaccuracy>
<internetconnect>-1</internetconnect>
</trkpt>
<trkpt lat="35.013057" lon="136.437364">
<ele>511.000000</ele>
<time>2026-03-27T16:58:22Z</time>
<speed>0.000000</speed>
<trueHeading>0.000000</trueHeading>
<magneticHeading>0.000000</magneticHeading>
<gpsHeading>0.000000</gpsHeading>
<haccuracy>-1.000000</haccuracy>
<vaccuracy>-1.000000</vaccuracy>
<internetconnect>-1</internetconnect>
</trkpt>
<trkpt lat="35.013373" lon="136.437578">
<ele>510.000000</ele>
<time>2026-03-27T17:00:00Z</time>
<speed>0.000000</speed>
<trueHeading>0.000000</trueHeading>
<magneticHeading>0.000000</magneticHeading>
<gpsHeading>0.000000</gpsHeading>
<haccuracy>-1.000000</haccuracy>
<vaccuracy>-1.000000</vaccuracy>
<internetconnect>-1</internetconnect>
</trkpt>
<trkpt lat="35.013478" lon="136.437766">
<ele>508.000000</ele>
<time>2026-03-27T17:00:00Z</time>
<speed>0.000000</speed>
<trueHeading>0.000000</trueHeading>
<magneticHeading>0.000000</magneticHeading>
<gpsHeading>0.000000</gpsHeading>
<haccuracy>-1.000000</haccuracy>
<vaccuracy>-1.000000</vaccuracy>
<internetconnect>-1</internetconnect>
</trkpt>
<trkpt lat="35.013500" lon="136.437830">
<ele>507.000000</ele>
<time>2026-03-27T17:00:14Z</time>
<speed>0.000000</speed>
<trueHeading>0.000000</trueHeading>
<magneticHeading>0.000000</magneticHeading>
<gpsHeading>0.000000</gpsHeading>
<haccuracy>-1.000000</haccuracy>
<vaccuracy>-1.000000</vaccuracy>
<internetconnect>-1</internetconnect>
</trkpt>
<trkpt lat="35.013509" lon="136.437938">
<ele>506.000000</ele>
<time>2026-03-27T17:00:35Z</time>
<speed>0.000000</speed>
<trueHeading>0.000000</trueHeading>
<magneticHeading>0.000000</magneticHeading>
<gpsHeading>0.000000</gpsHeading>
<haccuracy>-1.000000</haccuracy>
<vaccuracy>-1.000000</vaccuracy>
<internetconnect>-1</internetconnect>
</trkpt>
<trkpt lat="35.013518" lon="136.438002">
<ele>506.000000</ele>
<time>2026-03-27T17:00:49Z</time>
<speed>0.000000</speed>
<trueHeading>0.000000</trueHeading>
<magneticHeading>0.000000</magneticHeading>
<gpsHeading>0.000000</gpsHeading>
<haccuracy>-1.000000</haccuracy>
<vaccuracy>-1.000000</vaccuracy>
<internetconnect>-1</internetconnect>
</trkpt>
<trkpt lat="35.013540" lon="136.438061">
<ele>505.000000</ele>
<time>2026-03-27T17:01:02Z</time>
<speed>0.000000</speed>
<trueHeading>0.000000</trueHeading>
<magneticHeading>0.000000</magneticHeading>
<gpsHeading>0.000000</gpsHeading>
<haccuracy>-1.000000</haccuracy>
<vaccuracy>-1.000000</vaccuracy>
<internetconnect>-1</internetconnect>
</trkpt>
<trkpt lat="35.013588" lon="136.438136">
<ele>504.000000</ele>
<time>2026-03-27T17:01:21Z</time>
<speed>0.000000</speed>
<trueHeading>0.000000</trueHeading>
<magneticHeading>0.000000</magneticHeading>
<gpsHeading>0.000000</gpsHeading>
<haccuracy>-1.000000</haccuracy>
<vaccuracy>-1.000000</vaccuracy>
<internetconnect>-1</internetconnect>
</trkpt>
<trkpt lat="35.013768" lon="136.438329">
<ele>501.000000</ele>
<time>2026-03-27T17:02:20Z</time>
<speed>0.000000</speed>
<trueHeading>0.000000</trueHeading>
<magneticHeading>0.000000</magneticHeading>
<gpsHeading>0.000000</gpsHeading>
<haccuracy>-1.000000</haccuracy>
<vaccuracy>-1.000000</vaccuracy>
<internetconnect>-1</internetconnect>
</trkpt>
<trkpt lat="35.014014" lon="136.438603">
<ele>497.000000</ele>
<time>2026-03-27T17:03:42Z</time>
<speed>0.000000</speed>
<trueHeading>0.000000</trueHeading>
<magneticHeading>0.000000</magneticHeading>
<gpsHeading>0.000000</gpsHeading>
<haccuracy>-1.000000</haccuracy>
<vaccuracy>-1.000000</vaccuracy>
<internetconnect>-1</internetconnect>
</trkpt>
<trkpt lat="35.014164" lon="136.438844">
<ele>492.000000</ele>
<time>2026-03-27T17:04:43Z</time>
<speed>0.000000</speed>
<trueHeading>0.000000</trueHeading>
<magneticHeading>0.000000</magneticHeading>
<gpsHeading>0.000000</gpsHeading>
<haccuracy>-1.000000</haccuracy>
<vaccuracy>-1.000000</vaccuracy>
<internetconnect>-1</internetconnect>
</trkpt>
<trkpt lat="35.014216" lon="136.438903">
<ele>494.000000</ele>
<time>2026-03-27T17:05:00Z</time>
<speed>0.000000</speed>
<trueHeading>0.000000</trueHeading>
<magneticHeading>0.000000</magneticHeading>
<gpsHeading>0.000000</gpsHeading>
<haccuracy>-1.000000</haccuracy>
<vaccuracy>-1.000000</vaccuracy>
<internetconnect>-1</internetconnect>
</trkpt>
<trkpt lat="35.014287" lon="136.438941">
<ele>489.000000</ele>
<time>2026-03-27T17:05:19Z</time>
<speed>0.000000</speed>
<trueHeading>0.000000</trueHeading>
<magneticHeading>0.000000</magneticHeading>
<gpsHeading>0.000000</gpsHeading>
<haccuracy>-1.000000</haccuracy>
<vaccuracy>-1.000000</vaccuracy>
<internetconnect>-1</internetconnect>
</trkpt>
<trkpt lat="35.014353" lon="136.438978">
<ele>488.000000</ele>
<time>2026-03-27T17:05:37Z</time>
<speed>0.000000</speed>
<trueHeading>0.000000</trueHeading>
<magneticHeading>0.000000</magneticHeading>
<gpsHeading>0.000000</gpsHeading>
<haccuracy>-1.000000</haccuracy>
<vaccuracy>-1.000000</vaccuracy>
<internetconnect>-1</internetconnect>
</trkpt>
<trkpt lat="35.014423" lon="136.439032">
<ele>488.000000</ele>
<time>2026-03-27T17:05:57Z</time>
<speed>0.000000</speed>
<trueHeading>0.000000</trueHeading>
<magneticHeading>0.000000</magneticHeading>
<gpsHeading>0.000000</gpsHeading>
<haccuracy>-1.000000</haccuracy>
<vaccuracy>-1.000000</vaccuracy>
<internetconnect>-1</internetconnect>
</trkpt>
<trkpt lat="35.014489" lon="136.439112">
<ele>487.000000</ele>
<time>2026-03-27T17:06:20Z</time>
<speed>0.000000</speed>
<trueHeading>0.000000</trueHeading>
<magneticHeading>0.000000</magneticHeading>
<gpsHeading>0.000000</gpsHeading>
<haccuracy>-1.000000</haccuracy>
<vaccuracy>-1.000000</vaccuracy>
<internetconnect>-1</internetconnect>
</trkpt>
<trkpt lat="35.014542" lon="136.439177">
<ele>486.000000</ele>
<time>2026-03-27T17:06:39Z</time>
<speed>0.000000</speed>
<trueHeading>0.000000</trueHeading>
<magneticHeading>0.000000</magneticHeading>
<gpsHeading>0.000000</gpsHeading>
<haccuracy>-1.000000</haccuracy>
<vaccuracy>-1.000000</vaccuracy>
<internetconnect>-1</internetconnect>
</trkpt>
<trkpt lat="35.014585" lon="136.439209">
<ele>485.000000</ele>
<time>2026-03-27T17:06:51Z</time>
<speed>0.000000</speed>
<trueHeading>0.000000</trueHeading>
<magneticHeading>0.000000</magneticHeading>
<gpsHeading>0.000000</gpsHeading>
<haccuracy>-1.000000</haccuracy>
<vaccuracy>-1.000000</vaccuracy>
<internetconnect>-1</internetconnect>
</trkpt>
<trkpt lat="35.014651" lon="136.439214">
<ele>485.000000</ele>
<time>2026-03-27T17:07:08Z</time>
<speed>0.000000</speed>
<trueHeading>0.000000</trueHeading>
<magneticHeading>0.000000</magneticHeading>
<gpsHeading>0.000000</gpsHeading>
<haccuracy>-1.000000</haccuracy>
<vaccuracy>-1.000000</vaccuracy>
<internetconnect>-1</internetconnect>
</trkpt>
<trkpt lat="35.014713" lon="136.439198">
<ele>485.000000</ele>
<time>2026-03-27T17:07:23Z</time>
<speed>0.000000</speed>
<trueHeading>0.000000</trueHeading>
<magneticHeading>0.000000</magneticHeading>
<gpsHeading>0.000000</gpsHeading>
<haccuracy>-1.000000</haccuracy>
<vaccuracy>-1.000000</vaccuracy>
<internetconnect>-1</internetconnect>
</trkpt>
<trkpt lat="35.014744" lon="136.439166">
<ele>484.000000</ele>
<time>2026-03-27T17:07:33Z</time>
<speed>0.000000</speed>
<trueHeading>0.000000</trueHeading>
<magneticHeading>0.000000</magneticHeading>
<gpsHeading>0.000000</gpsHeading>
<haccuracy>-1.000000</haccuracy>
<vaccuracy>-1.000000</vaccuracy>
<internetconnect>-1</internetconnect>
</trkpt>
<trkpt lat="35.014766" lon="136.439107">
<ele>484.000000</ele>
<time>2026-03-27T17:07:46Z</time>
<speed>0.000000</speed>
<trueHeading>0.000000</trueHeading>
<magneticHeading>0.000000</magneticHeading>
<gpsHeading>0.000000</gpsHeading>
<haccuracy>-1.000000</haccuracy>
<vaccuracy>-1.000000</vaccuracy>
<internetconnect>-1</internetconnect>
</trkpt>
<trkpt lat="35.014792" lon="136.438994">
<ele>485.000000</ele>
<time>2026-03-27T17:08:10Z</time>
<speed>0.000000</speed>
<trueHeading>0.000000</trueHeading>
<magneticHeading>0.000000</magneticHeading>
<gpsHeading>0.000000</gpsHeading>
<haccuracy>-1.000000</haccuracy>
<vaccuracy>-1.000000</vaccuracy>
<internetconnect>-1</internetconnect>
</trkpt>
<trkpt lat="35.014810" lon="136.438903">
<ele>486.000000</ele>
<time>2026-03-27T17:08:29Z</time>
<speed>0.000000</speed>
<trueHeading>0.000000</trueHeading>
<magneticHeading>0.000000</magneticHeading>
<gpsHeading>0.000000</gpsHeading>
<haccuracy>-1.000000</haccuracy>
<vaccuracy>-1.000000</vaccuracy>
<internetconnect>-1</internetconnect>
</trkpt>
<trkpt lat="35.014845" lon="136.438844">
<ele>485.000000</ele>
<time>2026-03-27T17:08:43Z</time>
<speed>0.000000</speed>
<trueHeading>0.000000</trueHeading>
<magneticHeading>0.000000</magneticHeading>
<gpsHeading>0.000000</gpsHeading>
<haccuracy>-1.000000</haccuracy>
<vaccuracy>-1.000000</vaccuracy>
<internetconnect>-1</internetconnect>
</trkpt>
<trkpt lat="35.014889" lon="136.438817">
<ele>485.000000</ele>
<time>2026-03-27T17:08:55Z</time>
<speed>0.000000</speed>
<trueHeading>0.000000</trueHeading>
<magneticHeading>0.000000</magneticHeading>
<gpsHeading>0.000000</gpsHeading>
<haccuracy>-1.000000</haccuracy>
<vaccuracy>-1.000000</vaccuracy>
<internetconnect>-1</internetconnect>
</trkpt>
<trkpt lat="35.014950" lon="136.438823">
<ele>484.000000</ele>
<time>2026-03-27T17:09:11Z</time>
<speed>0.000000</speed>
<trueHeading>0.000000</trueHeading>
<magneticHeading>0.000000</magneticHeading>
<gpsHeading>0.000000</gpsHeading>
<haccuracy>-1.000000</haccuracy>
<vaccuracy>-1.000000</vaccuracy>
<internetconnect>-1</internetconnect>
</trkpt>
<trkpt lat="35.015034" lon="136.438855">
<ele>484.000000</ele>
<time>2026-03-27T17:09:32Z</time>
<speed>0.000000</speed>
<trueHeading>0.000000</trueHeading>
<magneticHeading>0.000000</magneticHeading>
<gpsHeading>0.000000</gpsHeading>
<haccuracy>-1.000000</haccuracy>
<vaccuracy>-1.000000</vaccuracy>
<internetconnect>-1</internetconnect>
</trkpt>
<trkpt lat="35.015359" lon="136.439048">
<ele>483.000000</ele>
<time>2026-03-27T17:11:01Z</time>
<speed>0.000000</speed>
<trueHeading>0.000000</trueHeading>
<magneticHeading>0.000000</magneticHeading>
<gpsHeading>0.000000</gpsHeading>
<haccuracy>-1.000000</haccuracy>
<vaccuracy>-1.000000</vaccuracy>
<internetconnect>-1</internetconnect>
</trkpt>
<trkpt lat="35.015420" lon="136.439102">
<ele>482.000000</ele>
<time>2026-03-27T17:11:19Z</time>
<speed>0.000000</speed>
<trueHeading>0.000000</trueHeading>
<magneticHeading>0.000000</magneticHeading>
<gpsHeading>0.000000</gpsHeading>
<haccuracy>-1.000000</haccuracy>
<vaccuracy>-1.000000</vaccuracy>
<internetconnect>-1</internetconnect>
</trkpt>
<trkpt lat="35.015442" lon="136.439139">
<ele>482.000000</ele>
<time>2026-03-27T17:11:29Z</time>
<speed>0.000000</speed>
<trueHeading>0.000000</trueHeading>
<magneticHeading>0.000000</magneticHeading>
<gpsHeading>0.000000</gpsHeading>
<haccuracy>-1.000000</haccuracy>
<vaccuracy>-1.000000</vaccuracy>
<internetconnect>-1</internetconnect>
</trkpt>
<trkpt lat="35.015442" lon="136.439171">
<ele>482.000000</ele>
<time>2026-03-27T17:11:35Z</time>
<speed>0.000000</speed>
<trueHeading>0.000000</trueHeading>
<magneticHeading>0.000000</magneticHeading>
<gpsHeading>0.000000</gpsHeading>
<haccuracy>-1.000000</haccuracy>
<vaccuracy>-1.000000</vaccuracy>
<internetconnect>-1</internetconnect>
</trkpt>
<trkpt lat="35.015425" lon="136.439220">
<ele>481.000000</ele>
<time>2026-03-27T17:11:46Z</time>
<speed>0.000000</speed>
<trueHeading>0.000000</trueHeading>
<magneticHeading>0.000000</magneticHeading>
<gpsHeading>0.000000</gpsHeading>
<haccuracy>-1.000000</haccuracy>
<vaccuracy>-1.000000</vaccuracy>
<internetconnect>-1</internetconnect>
</trkpt>
<trkpt lat="35.015385" lon="136.439289">
<ele>481.000000</ele>
<time>2026-03-27T17:12:03Z</time>
<speed>0.000000</speed>
<trueHeading>0.000000</trueHeading>
<magneticHeading>0.000000</magneticHeading>
<gpsHeading>0.000000</gpsHeading>
<haccuracy>-1.000000</haccuracy>
<vaccuracy>-1.000000</vaccuracy>
<internetconnect>-1</internetconnect>
</trkpt>
<trkpt lat="35.015332" lon="136.439343">
<ele>479.000000</ele>
<time>2026-03-27T17:12:20Z</time>
<speed>0.000000</speed>
<trueHeading>0.000000</trueHeading>
<magneticHeading>0.000000</magneticHeading>
<gpsHeading>0.000000</gpsHeading>
<haccuracy>-1.000000</haccuracy>
<vaccuracy>-1.000000</vaccuracy>
<internetconnect>-1</internetconnect>
</trkpt>
<trkpt lat="35.015196" lon="136.439440">
<ele>476.000000</ele>
<time>2026-03-27T17:12:59Z</time>
<speed>0.000000</speed>
<trueHeading>0.000000</trueHeading>
<magneticHeading>0.000000</magneticHeading>
<gpsHeading>0.000000</gpsHeading>
<haccuracy>-1.000000</haccuracy>
<vaccuracy>-1.000000</vaccuracy>
<internetconnect>-1</internetconnect>
</trkpt>
<trkpt lat="35.014893" lon="136.439606">
<ele>471.000000</ele>
<time>2026-03-27T17:14:20Z</time>
<speed>0.000000</speed>
<trueHeading>0.000000</trueHeading>
<magneticHeading>0.000000</magneticHeading>
<gpsHeading>0.000000</gpsHeading>
<haccuracy>-1.000000</haccuracy>
<vaccuracy>-1.000000</vaccuracy>
<internetconnect>-1</internetconnect>
</trkpt>
<trkpt lat="35.014814" lon="136.439633">
<ele>470.000000</ele>
<time>2026-03-27T17:14:40Z</time>
<speed>0.000000</speed>
<trueHeading>0.000000</trueHeading>
<magneticHeading>0.000000</magneticHeading>
<gpsHeading>0.000000</gpsHeading>
<haccuracy>-1.000000</haccuracy>
<vaccuracy>-1.000000</vaccuracy>
<internetconnect>-1</internetconnect>
</trkpt>
<trkpt lat="35.014752" lon="136.439654">
<ele>469.000000</ele>
<time>2026-03-27T17:14:56Z</time>
<speed>0.000000</speed>
<trueHeading>0.000000</trueHeading>
<magneticHeading>0.000000</magneticHeading>
<gpsHeading>0.000000</gpsHeading>
<haccuracy>-1.000000</haccuracy>
<vaccuracy>-1.000000</vaccuracy>
<internetconnect>-1</internetconnect>
</trkpt>
<trkpt lat="35.014691" lon="136.439654">
<ele>468.000000</ele>
<time>2026-03-27T17:15:11Z</time>
<speed>0.000000</speed>
<trueHeading>0.000000</trueHeading>
<magneticHeading>0.000000</magneticHeading>
<gpsHeading>0.000000</gpsHeading>
<haccuracy>-1.000000</haccuracy>
<vaccuracy>-1.000000</vaccuracy>
<internetconnect>-1</internetconnect>
</trkpt>
<trkpt lat="35.014643" lon="136.439638">
<ele>467.000000</ele>
<time>2026-03-27T17:15:24Z</time>
<speed>0.000000</speed>
<trueHeading>0.000000</trueHeading>
<magneticHeading>0.000000</magneticHeading>
<gpsHeading>0.000000</gpsHeading>
<haccuracy>-1.000000</haccuracy>
<vaccuracy>-1.000000</vaccuracy>
<internetconnect>-1</internetconnect>
</trkpt>
<trkpt lat="35.014563" lon="136.439595">
<ele>466.000000</ele>
<time>2026-03-27T17:15:45Z</time>
<speed>0.000000</speed>
<trueHeading>0.000000</trueHeading>
<magneticHeading>0.000000</magneticHeading>
<gpsHeading>0.000000</gpsHeading>
<haccuracy>-1.000000</haccuracy>
<vaccuracy>-1.000000</vaccuracy>
<internetconnect>-1</internetconnect>
</trkpt>
<trkpt lat="35.014238" lon="136.439354">
<ele>460.000000</ele>
<time>2026-03-27T17:17:18Z</time>
<speed>0.000000</speed>
<trueHeading>0.000000</trueHeading>
<magneticHeading>0.000000</magneticHeading>
<gpsHeading>0.000000</gpsHeading>
<haccuracy>-1.000000</haccuracy>
<vaccuracy>-1.000000</vaccuracy>
<internetconnect>-1</internetconnect>
</trkpt>
<trkpt lat="35.014194" lon="136.439343">
<ele>460.000000</ele>
<time>2026-03-27T17:17:29Z</time>
<speed>0.000000</speed>
<trueHeading>0.000000</trueHeading>
<magneticHeading>0.000000</magneticHeading>
<gpsHeading>0.000000</gpsHeading>
<haccuracy>-1.000000</haccuracy>
<vaccuracy>-1.000000</vaccuracy>
<internetconnect>-1</internetconnect>
</trkpt>
<trkpt lat="35.014164" lon="136.439359">
<ele>460.000000</ele>
<time>2026-03-27T17:17:38Z</time>
<speed>0.000000</speed>
<trueHeading>0.000000</trueHeading>
<magneticHeading>0.000000</magneticHeading>
<gpsHeading>0.000000</gpsHeading>
<haccuracy>-1.000000</haccuracy>
<vaccuracy>-1.000000</vaccuracy>
<internetconnect>-1</internetconnect>
</trkpt>
<trkpt lat="35.014146" lon="136.439381">
<ele>460.000000</ele>
<time>2026-03-27T17:17:44Z</time>
<speed>0.000000</speed>
<trueHeading>0.000000</trueHeading>
<magneticHeading>0.000000</magneticHeading>
<gpsHeading>0.000000</gpsHeading>
<haccuracy>-1.000000</haccuracy>
<vaccuracy>-1.000000</vaccuracy>
<internetconnect>-1</internetconnect>
</trkpt>
<trkpt lat="35.014146" lon="136.439418">
<ele>459.000000</ele>
<time>2026-03-27T17:17:51Z</time>
<speed>0.000000</speed>
<trueHeading>0.000000</trueHeading>
<magneticHeading>0.000000</magneticHeading>
<gpsHeading>0.000000</gpsHeading>
<haccuracy>-1.000000</haccuracy>
<vaccuracy>-1.000000</vaccuracy>
<internetconnect>-1</internetconnect>
</trkpt>
<trkpt lat="35.014159" lon="136.439466">
<ele>458.000000</ele>
<time>2026-03-27T17:18:02Z</time>
<speed>0.000000</speed>
<trueHeading>0.000000</trueHeading>
<magneticHeading>0.000000</magneticHeading>
<gpsHeading>0.000000</gpsHeading>
<haccuracy>-1.000000</haccuracy>
<vaccuracy>-1.000000</vaccuracy>
<internetconnect>-1</internetconnect>
</trkpt>
<trkpt lat="35.014208" lon="136.439558">
<ele>456.000000</ele>
<time>2026-03-27T17:18:24Z</time>
<speed>0.000000</speed>
<trueHeading>0.000000</trueHeading>
<magneticHeading>0.000000</magneticHeading>
<gpsHeading>0.000000</gpsHeading>
<haccuracy>-1.000000</haccuracy>
<vaccuracy>-1.000000</vaccuracy>
<internetconnect>-1</internetconnect>
</trkpt>
<trkpt lat="35.014295" lon="136.439713">
<ele>453.000000</ele>
<time>2026-03-27T17:19:02Z</time>
<speed>0.000000</speed>
<trueHeading>0.000000</trueHeading>
<magneticHeading>0.000000</magneticHeading>
<gpsHeading>0.000000</gpsHeading>
<haccuracy>-1.000000</haccuracy>
<vaccuracy>-1.000000</vaccuracy>
<internetconnect>-1</internetconnect>
</trkpt>
<trkpt lat="35.014317" lon="136.439788">
<ele>452.000000</ele>
<time>2026-03-27T17:19:18Z</time>
<speed>0.000000</speed>
<trueHeading>0.000000</trueHeading>
<magneticHeading>0.000000</magneticHeading>
<gpsHeading>0.000000</gpsHeading>
<haccuracy>-1.000000</haccuracy>
<vaccuracy>-1.000000</vaccuracy>
<internetconnect>-1</internetconnect>
</trkpt>
<trkpt lat="35.014322" lon="136.439869">
<ele>448.000000</ele>
<time>2026-03-27T17:19:34Z</time>
<speed>0.000000</speed>
<trueHeading>0.000000</trueHeading>
<magneticHeading>0.000000</magneticHeading>
<gpsHeading>0.000000</gpsHeading>
<haccuracy>-1.000000</haccuracy>
<vaccuracy>-1.000000</vaccuracy>
<internetconnect>-1</internetconnect>
</trkpt>
<trkpt lat="35.014309" lon="136.439965">
<ele>445.000000</ele>
<time>2026-03-27T17:19:54Z</time>
<speed>0.000000</speed>
<trueHeading>0.000000</trueHeading>
<magneticHeading>0.000000</magneticHeading>
<gpsHeading>0.000000</gpsHeading>
<haccuracy>-1.000000</haccuracy>
<vaccuracy>-1.000000</vaccuracy>
<internetconnect>-1</internetconnect>
</trkpt>
<trkpt lat="35.014295" lon="136.440073">
<ele>449.000000</ele>
<time>2026-03-27T17:20:16Z</time>
<speed>0.000000</speed>
<trueHeading>0.000000</trueHeading>
<magneticHeading>0.000000</magneticHeading>
<gpsHeading>0.000000</gpsHeading>
<haccuracy>-1.000000</haccuracy>
<vaccuracy>-1.000000</vaccuracy>
<internetconnect>-1</internetconnect>
</trkpt>
<trkpt lat="35.014300" lon="136.440137">
<ele>448.000000</ele>
<time>2026-03-27T17:20:29Z</time>
<speed>0.000000</speed>
<trueHeading>0.000000</trueHeading>
<magneticHeading>0.000000</magneticHeading>
<gpsHeading>0.000000</gpsHeading>
<haccuracy>-1.000000</haccuracy>
<vaccuracy>-1.000000</vaccuracy>
<internetconnect>-1</internetconnect>
</trkpt>
<trkpt lat="35.014326" lon="136.440228">
<ele>446.000000</ele>
<time>2026-03-27T17:20:48Z</time>
<speed>0.000000</speed>
<trueHeading>0.000000</trueHeading>
<magneticHeading>0.000000</magneticHeading>
<gpsHeading>0.000000</gpsHeading>
<haccuracy>-1.000000</haccuracy>
<vaccuracy>-1.000000</vaccuracy>
<internetconnect>-1</internetconnect>
</trkpt>
<trkpt lat="35.014379" lon="136.440389">
<ele>443.000000</ele>
<time>2026-03-27T17:21:23Z</time>
<speed>0.000000</speed>
<trueHeading>0.000000</trueHeading>
<magneticHeading>0.000000</magneticHeading>
<gpsHeading>0.000000</gpsHeading>
<haccuracy>-1.000000</haccuracy>
<vaccuracy>-1.000000</vaccuracy>
<internetconnect>-1</internetconnect>
</trkpt>
<trkpt lat="35.014432" lon="136.440625">
<ele>438.000000</ele>
<time>2026-03-27T17:22:13Z</time>
<speed>0.000000</speed>
<trueHeading>0.000000</trueHeading>
<magneticHeading>0.000000</magneticHeading>
<gpsHeading>0.000000</gpsHeading>
<haccuracy>-1.000000</haccuracy>
<vaccuracy>-1.000000</vaccuracy>
<internetconnect>-1</internetconnect>
</trkpt>
<trkpt lat="35.014502" lon="136.440947">
<ele>435.000000</ele>
<time>2026-03-27T17:23:20Z</time>
<speed>0.000000</speed>
<trueHeading>0.000000</trueHeading>
<magneticHeading>0.000000</magneticHeading>
<gpsHeading>0.000000</gpsHeading>
<haccuracy>-1.000000</haccuracy>
<vaccuracy>-1.000000</vaccuracy>
<internetconnect>-1</internetconnect>
</trkpt>
<trkpt lat="35.014550" lon="136.441097">
<ele>433.000000</ele>
<time>2026-03-27T17:23:53Z</time>
<speed>0.000000</speed>
<trueHeading>0.000000</trueHeading>
<magneticHeading>0.000000</magneticHeading>
<gpsHeading>0.000000</gpsHeading>
<haccuracy>-1.000000</haccuracy>
<vaccuracy>-1.000000</vaccuracy>
<internetconnect>-1</internetconnect>
</trkpt>
<trkpt lat="35.014594" lon="136.441194">
<ele>432.000000</ele>
<time>2026-03-27T17:24:15Z</time>
<speed>0.000000</speed>
<trueHeading>0.000000</trueHeading>
<magneticHeading>0.000000</magneticHeading>
<gpsHeading>0.000000</gpsHeading>
<haccuracy>-1.000000</haccuracy>
<vaccuracy>-1.000000</vaccuracy>
<internetconnect>-1</internetconnect>
</trkpt>
<trkpt lat="35.014669" lon="136.441323">
<ele>430.000000</ele>
<time>2026-03-27T17:24:47Z</time>
<speed>0.000000</speed>
<trueHeading>0.000000</trueHeading>
<magneticHeading>0.000000</magneticHeading>
<gpsHeading>0.000000</gpsHeading>
<haccuracy>-1.000000</haccuracy>
<vaccuracy>-1.000000</vaccuracy>
<internetconnect>-1</internetconnect>
</trkpt>
<trkpt lat="35.014884" lon="136.441644">
<ele>427.000000</ele>
<time>2026-03-27T17:26:10Z</time>
<speed>0.000000</speed>
<trueHeading>0.000000</trueHeading>
<magneticHeading>0.000000</magneticHeading>
<gpsHeading>0.000000</gpsHeading>
<haccuracy>-1.000000</haccuracy>
<vaccuracy>-1.000000</vaccuracy>
<internetconnect>-1</internetconnect>
</trkpt>
<trkpt lat="35.014919" lon="136.441698">
<ele>427.000000</ele>
<time>2026-03-27T17:26:24Z</time>
<speed>0.000000</speed>
<trueHeading>0.000000</trueHeading>
<magneticHeading>0.000000</magneticHeading>
<gpsHeading>0.000000</gpsHeading>
<haccuracy>-1.000000</haccuracy>
<vaccuracy>-1.000000</vaccuracy>
<internetconnect>-1</internetconnect>
</trkpt>
<trkpt lat="35.014919" lon="136.441698">
<ele>427.000000</ele>
<time>2026-03-27T17:26:24Z</time>
<speed>0.000000</speed>
<trueHeading>0.000000</trueHeading>
<magneticHeading>0.000000</magneticHeading>
<gpsHeading>0.000000</gpsHeading>
<haccuracy>-1.000000</haccuracy>
<vaccuracy>-1.000000</vaccuracy>
<internetconnect>-1</internetconnect>
</trkpt>
<trkpt lat="35.014915" lon="136.441639">
<ele>427.000000</ele>
<time>2026-03-27T17:26:36Z</time>
<speed>0.000000</speed>
<trueHeading>0.000000</trueHeading>
<magneticHeading>0.000000</magneticHeading>
<gpsHeading>0.000000</gpsHeading>
<haccuracy>-1.000000</haccuracy>
<vaccuracy>-1.000000</vaccuracy>
<internetconnect>-1</internetconnect>
</trkpt>
<trkpt lat="35.014924" lon="136.441596">
<ele>425.000000</ele>
<time>2026-03-27T17:26:45Z</time>
<speed>0.000000</speed>
<trueHeading>0.000000</trueHeading>
<magneticHeading>0.000000</magneticHeading>
<gpsHeading>0.000000</gpsHeading>
<haccuracy>-1.000000</haccuracy>
<vaccuracy>-1.000000</vaccuracy>
<internetconnect>-1</internetconnect>
</trkpt>
<trkpt lat="35.015056" lon="136.441349">
<ele>429.000000</ele>
<time>2026-03-27T17:27:45Z</time>
<speed>0.000000</speed>
<trueHeading>0.000000</trueHeading>
<magneticHeading>0.000000</magneticHeading>
<gpsHeading>0.000000</gpsHeading>
<haccuracy>-1.000000</haccuracy>
<vaccuracy>-1.000000</vaccuracy>
<internetconnect>-1</internetconnect>
</trkpt>
<trkpt lat="35.015056" lon="136.441349">
<ele>429.000000</ele>
<time>2026-03-27T17:27:45Z</time>
<speed>0.000000</speed>
<trueHeading>0.000000</trueHeading>
<magneticHeading>0.000000</magneticHeading>
<gpsHeading>0.000000</gpsHeading>
<haccuracy>-1.000000</haccuracy>
<vaccuracy>-1.000000</vaccuracy>
<internetconnect>-1</internetconnect>
</trkpt>
<trkpt lat="35.015099" lon="136.441317">
<ele>429.000000</ele>
<time>2026-03-27T17:27:57Z</time>
<speed>0.000000</speed>
<trueHeading>0.000000</trueHeading>
<magneticHeading>0.000000</magneticHeading>
<gpsHeading>0.000000</gpsHeading>
<haccuracy>-1.000000</haccuracy>
<vaccuracy>-1.000000</vaccuracy>
<internetconnect>-1</internetconnect>
</trkpt>
<trkpt lat="35.015157" lon="136.441301">
<ele>429.000000</ele>
<time>2026-03-27T17:28:12Z</time>
<speed>0.000000</speed>
<trueHeading>0.000000</trueHeading>
<magneticHeading>0.000000</magneticHeading>
<gpsHeading>0.000000</gpsHeading>
<haccuracy>-1.000000</haccuracy>
<vaccuracy>-1.000000</vaccuracy>
<internetconnect>-1</internetconnect>
</trkpt>
<trkpt lat="35.015363" lon="136.441317">
<ele>431.000000</ele>
<time>2026-03-27T17:29:02Z</time>
<speed>0.000000</speed>
<trueHeading>0.000000</trueHeading>
<magneticHeading>0.000000</magneticHeading>
<gpsHeading>0.000000</gpsHeading>
<haccuracy>-1.000000</haccuracy>
<vaccuracy>-1.000000</vaccuracy>
<internetconnect>-1</internetconnect>
</trkpt>
<trkpt lat="35.015548" lon="136.441371">
<ele>435.000000</ele>
<time>2026-03-27T17:29:49Z</time>
<speed>0.000000</speed>
<trueHeading>0.000000</trueHeading>
<magneticHeading>0.000000</magneticHeading>
<gpsHeading>0.000000</gpsHeading>
<haccuracy>-1.000000</haccuracy>
<vaccuracy>-1.000000</vaccuracy>
<internetconnect>-1</internetconnect>
</trkpt>
<trkpt lat="35.015631" lon="136.441403">
<ele>431.000000</ele>
<time>2026-03-27T17:30:10Z</time>
<speed>0.000000</speed>
<trueHeading>0.000000</trueHeading>
<magneticHeading>0.000000</magneticHeading>
<gpsHeading>0.000000</gpsHeading>
<haccuracy>-1.000000</haccuracy>
<vaccuracy>-1.000000</vaccuracy>
<internetconnect>-1</internetconnect>
</trkpt>
<trkpt lat="35.015662" lon="136.441430">
<ele>432.000000</ele>
<time>2026-03-27T17:30:20Z</time>
<speed>0.000000</speed>
<trueHeading>0.000000</trueHeading>
<magneticHeading>0.000000</magneticHeading>
<gpsHeading>0.000000</gpsHeading>
<haccuracy>-1.000000</haccuracy>
<vaccuracy>-1.000000</vaccuracy>
<internetconnect>-1</internetconnect>
</trkpt>
<trkpt lat="35.015679" lon="136.441462">
<ele>435.000000</ele>
<time>2026-03-27T17:30:28Z</time>
<speed>0.000000</speed>
<trueHeading>0.000000</trueHeading>
<magneticHeading>0.000000</magneticHeading>
<gpsHeading>0.000000</gpsHeading>
<haccuracy>-1.000000</haccuracy>
<vaccuracy>-1.000000</vaccuracy>
<internetconnect>-1</internetconnect>
</trkpt>
<trkpt lat="35.015697" lon="136.441526">
<ele>438.000000</ele>
<time>2026-03-27T17:30:41Z</time>
<speed>0.000000</speed>
<trueHeading>0.000000</trueHeading>
<magneticHeading>0.000000</magneticHeading>
<gpsHeading>0.000000</gpsHeading>
<haccuracy>-1.000000</haccuracy>
<vaccuracy>-1.000000</vaccuracy>
<internetconnect>-1</internetconnect>
</trkpt>
<trkpt lat="35.015719" lon="136.441618">
<ele>436.000000</ele>
<time>2026-03-27T17:31:00Z</time>
<speed>0.000000</speed>
<trueHeading>0.000000</trueHeading>
<magneticHeading>0.000000</magneticHeading>
<gpsHeading>0.000000</gpsHeading>
<haccuracy>-1.000000</haccuracy>
<vaccuracy>-1.000000</vaccuracy>
<internetconnect>-1</internetconnect>
</trkpt>
<trkpt lat="35.015759" lon="136.441741">
<ele>432.000000</ele>
<time>2026-03-27T17:31:27Z</time>
<speed>0.000000</speed>
<trueHeading>0.000000</trueHeading>
<magneticHeading>0.000000</magneticHeading>
<gpsHeading>0.000000</gpsHeading>
<haccuracy>-1.000000</haccuracy>
<vaccuracy>-1.000000</vaccuracy>
<internetconnect>-1</internetconnect>
</trkpt>
<trkpt lat="35.015807" lon="136.441827">
<ele>440.000000</ele>
<time>2026-03-27T17:31:48Z</time>
<speed>0.000000</speed>
<trueHeading>0.000000</trueHeading>
<magneticHeading>0.000000</magneticHeading>
<gpsHeading>0.000000</gpsHeading>
<haccuracy>-1.000000</haccuracy>
<vaccuracy>-1.000000</vaccuracy>
<internetconnect>-1</internetconnect>
</trkpt>
<trkpt lat="35.015939" lon="136.441982">
<ele>434.000000</ele>
<time>2026-03-27T17:32:33Z</time>
<speed>0.000000</speed>
<trueHeading>0.000000</trueHeading>
<magneticHeading>0.000000</magneticHeading>
<gpsHeading>0.000000</gpsHeading>
<haccuracy>-1.000000</haccuracy>
<vaccuracy>-1.000000</vaccuracy>
<internetconnect>-1</internetconnect>
</trkpt>
<trkpt lat="35.016044" lon="136.442090">
<ele>425.000000</ele>
<time>2026-03-27T17:33:07Z</time>
<speed>0.000000</speed>
<trueHeading>0.000000</trueHeading>
<magneticHeading>0.000000</magneticHeading>
<gpsHeading>0.000000</gpsHeading>
<haccuracy>-1.000000</haccuracy>
<vaccuracy>-1.000000</vaccuracy>
<internetconnect>-1</internetconnect>
</trkpt>
<trkpt lat="35.016255" lon="136.442342">
<ele>436.000000</ele>
<time>2026-03-27T17:34:20Z</time>
<speed>0.000000</speed>
<trueHeading>0.000000</trueHeading>
<magneticHeading>0.000000</magneticHeading>
<gpsHeading>0.000000</gpsHeading>
<haccuracy>-1.000000</haccuracy>
<vaccuracy>-1.000000</vaccuracy>
<internetconnect>-1</internetconnect>
</trkpt>
<trkpt lat="35.016387" lon="136.442476">
<ele>442.000000</ele>
<time>2026-03-27T17:35:02Z</time>
<speed>0.000000</speed>
<trueHeading>0.000000</trueHeading>
<magneticHeading>0.000000</magneticHeading>
<gpsHeading>0.000000</gpsHeading>
<haccuracy>-1.000000</haccuracy>
<vaccuracy>-1.000000</vaccuracy>
<internetconnect>-1</internetconnect>
</trkpt>
<trkpt lat="35.016413" lon="136.442535">
<ele>440.000000</ele>
<time>2026-03-27T17:35:16Z</time>
<speed>0.000000</speed>
<trueHeading>0.000000</trueHeading>
<magneticHeading>0.000000</magneticHeading>
<gpsHeading>0.000000</gpsHeading>
<haccuracy>-1.000000</haccuracy>
<vaccuracy>-1.000000</vaccuracy>
<internetconnect>-1</internetconnect>
</trkpt>
<trkpt lat="35.016431" lon="136.442653">
<ele>435.000000</ele>
<time>2026-03-27T17:35:40Z</time>
<speed>0.000000</speed>
<trueHeading>0.000000</trueHeading>
<magneticHeading>0.000000</magneticHeading>
<gpsHeading>0.000000</gpsHeading>
<haccuracy>-1.000000</haccuracy>
<vaccuracy>-1.000000</vaccuracy>
<internetconnect>-1</internetconnect>
</trkpt>
<trkpt lat="35.016444" lon="136.442760">
<ele>441.000000</ele>
<time>2026-03-27T17:36:02Z</time>
<speed>0.000000</speed>
<trueHeading>0.000000</trueHeading>
<magneticHeading>0.000000</magneticHeading>
<gpsHeading>0.000000</gpsHeading>
<haccuracy>-1.000000</haccuracy>
<vaccuracy>-1.000000</vaccuracy>
<internetconnect>-1</internetconnect>
</trkpt>
<trkpt lat="35.016461" lon="136.442809">
<ele>442.000000</ele>
<time>2026-03-27T17:36:12Z</time>
<speed>0.000000</speed>
<trueHeading>0.000000</trueHeading>
<magneticHeading>0.000000</magneticHeading>
<gpsHeading>0.000000</gpsHeading>
<haccuracy>-1.000000</haccuracy>
<vaccuracy>-1.000000</vaccuracy>
<internetconnect>-1</internetconnect>
</trkpt>
<trkpt lat="35.016488" lon="136.442851">
<ele>443.000000</ele>
<time>2026-03-27T17:36:23Z</time>
<speed>0.000000</speed>
<trueHeading>0.000000</trueHeading>
<magneticHeading>0.000000</magneticHeading>
<gpsHeading>0.000000</gpsHeading>
<haccuracy>-1.000000</haccuracy>
<vaccuracy>-1.000000</vaccuracy>
<internetconnect>-1</internetconnect>
</trkpt>
<trkpt lat="35.016549" lon="136.442889">
<ele>443.000000</ele>
<time>2026-03-27T17:36:40Z</time>
<speed>0.000000</speed>
<trueHeading>0.000000</trueHeading>
<magneticHeading>0.000000</magneticHeading>
<gpsHeading>0.000000</gpsHeading>
<haccuracy>-1.000000</haccuracy>
<vaccuracy>-1.000000</vaccuracy>
<internetconnect>-1</internetconnect>
</trkpt>
<trkpt lat="35.016628" lon="136.442921">
<ele>443.000000</ele>
<time>2026-03-27T17:37:00Z</time>
<speed>0.000000</speed>
<trueHeading>0.000000</trueHeading>
<magneticHeading>0.000000</magneticHeading>
<gpsHeading>0.000000</gpsHeading>
<haccuracy>-1.000000</haccuracy>
<vaccuracy>-1.000000</vaccuracy>
<internetconnect>-1</internetconnect>
</trkpt>
<trkpt lat="35.016668" lon="136.442953">
<ele>440.000000</ele>
<time>2026-03-27T17:37:12Z</time>
<speed>0.000000</speed>
<trueHeading>0.000000</trueHeading>
<magneticHeading>0.000000</magneticHeading>
<gpsHeading>0.000000</gpsHeading>
<haccuracy>-1.000000</haccuracy>
<vaccuracy>-1.000000</vaccuracy>
<internetconnect>-1</internetconnect>
</trkpt>
<trkpt lat="35.016707" lon="136.443023">
<ele>443.000000</ele>
<time>2026-03-27T17:37:29Z</time>
<speed>0.000000</speed>
<trueHeading>0.000000</trueHeading>
<magneticHeading>0.000000</magneticHeading>
<gpsHeading>0.000000</gpsHeading>
<haccuracy>-1.000000</haccuracy>
<vaccuracy>-1.000000</vaccuracy>
<internetconnect>-1</internetconnect>
</trkpt>
<trkpt lat="35.016743" lon="136.443146">
<ele>443.000000</ele>
<time>2026-03-27T17:37:56Z</time>
<speed>0.000000</speed>
<trueHeading>0.000000</trueHeading>
<magneticHeading>0.000000</magneticHeading>
<gpsHeading>0.000000</gpsHeading>
<haccuracy>-1.000000</haccuracy>
<vaccuracy>-1.000000</vaccuracy>
<internetconnect>-1</internetconnect>
</trkpt>
<trkpt lat="35.016791" lon="136.443452">
<ele>442.000000</ele>
<time>2026-03-27T17:38:59Z</time>
<speed>0.000000</speed>
<trueHeading>0.000000</trueHeading>
<magneticHeading>0.000000</magneticHeading>
<gpsHeading>0.000000</gpsHeading>
<haccuracy>-1.000000</haccuracy>
<vaccuracy>-1.000000</vaccuracy>
<internetconnect>-1</internetconnect>
</trkpt>
<trkpt lat="35.016813" lon="136.443565">
<ele>433.000000</ele>
<time>2026-03-27T17:39:22Z</time>
<speed>0.000000</speed>
<trueHeading>0.000000</trueHeading>
<magneticHeading>0.000000</magneticHeading>
<gpsHeading>0.000000</gpsHeading>
<haccuracy>-1.000000</haccuracy>
<vaccuracy>-1.000000</vaccuracy>
<internetconnect>-1</internetconnect>
</trkpt>
<trkpt lat="35.016866" lon="136.443720">
<ele>433.000000</ele>
<time>2026-03-27T17:39:56Z</time>
<speed>0.000000</speed>
<trueHeading>0.000000</trueHeading>
<magneticHeading>0.000000</magneticHeading>
<gpsHeading>0.000000</gpsHeading>
<haccuracy>-1.000000</haccuracy>
<vaccuracy>-1.000000</vaccuracy>
<internetconnect>-1</internetconnect>
</trkpt>
<trkpt lat="35.016949" lon="136.443865">
<ele>428.000000</ele>
<time>2026-03-27T17:40:32Z</time>
<speed>0.000000</speed>
<trueHeading>0.000000</trueHeading>
<magneticHeading>0.000000</magneticHeading>
<gpsHeading>0.000000</gpsHeading>
<haccuracy>-1.000000</haccuracy>
<vaccuracy>-1.000000</vaccuracy>
<internetconnect>-1</internetconnect>
</trkpt>
<trkpt lat="35.016980" lon="136.443951">
<ele>432.000000</ele>
<time>2026-03-27T17:40:51Z</time>
<speed>0.000000</speed>
<trueHeading>0.000000</trueHeading>
<magneticHeading>0.000000</magneticHeading>
<gpsHeading>0.000000</gpsHeading>
<haccuracy>-1.000000</haccuracy>
<vaccuracy>-1.000000</vaccuracy>
<internetconnect>-1</internetconnect>
</trkpt>
<trkpt lat="35.016997" lon="136.444085">
<ele>441.000000</ele>
<time>2026-03-27T17:41:18Z</time>
<speed>0.000000</speed>
<trueHeading>0.000000</trueHeading>
<magneticHeading>0.000000</magneticHeading>
<gpsHeading>0.000000</gpsHeading>
<haccuracy>-1.000000</haccuracy>
<vaccuracy>-1.000000</vaccuracy>
<internetconnect>-1</internetconnect>
</trkpt>
<trkpt lat="35.017006" lon="136.444284">
<ele>434.000000</ele>
<time>2026-03-27T17:41:58Z</time>
<speed>0.000000</speed>
<trueHeading>0.000000</trueHeading>
<magneticHeading>0.000000</magneticHeading>
<gpsHeading>0.000000</gpsHeading>
<haccuracy>-1.000000</haccuracy>
<vaccuracy>-1.000000</vaccuracy>
<internetconnect>-1</internetconnect>
</trkpt>
<trkpt lat="35.017006" lon="136.444482">
<ele>423.000000</ele>
<time>2026-03-27T17:42:38Z</time>
<speed>0.000000</speed>
<trueHeading>0.000000</trueHeading>
<magneticHeading>0.000000</magneticHeading>
<gpsHeading>0.000000</gpsHeading>
<haccuracy>-1.000000</haccuracy>
<vaccuracy>-1.000000</vaccuracy>
<internetconnect>-1</internetconnect>
</trkpt>
<trkpt lat="35.017019" lon="136.444573">
<ele>415.000000</ele>
<time>2026-03-27T17:42:57Z</time>
<speed>0.000000</speed>
<trueHeading>0.000000</trueHeading>
<magneticHeading>0.000000</magneticHeading>
<gpsHeading>0.000000</gpsHeading>
<haccuracy>-1.000000</haccuracy>
<vaccuracy>-1.000000</vaccuracy>
<internetconnect>-1</internetconnect>
</trkpt>
<trkpt lat="35.017055" lon="136.444665">
<ele>422.000000</ele>
<time>2026-03-27T17:43:17Z</time>
<speed>0.000000</speed>
<trueHeading>0.000000</trueHeading>
<magneticHeading>0.000000</magneticHeading>
<gpsHeading>0.000000</gpsHeading>
<haccuracy>-1.000000</haccuracy>
<vaccuracy>-1.000000</vaccuracy>
<internetconnect>-1</internetconnect>
</trkpt>
<trkpt lat="35.017098" lon="136.444724">
<ele>424.000000</ele>
<time>2026-03-27T17:43:33Z</time>
<speed>0.000000</speed>
<trueHeading>0.000000</trueHeading>
<magneticHeading>0.000000</magneticHeading>
<gpsHeading>0.000000</gpsHeading>
<haccuracy>-1.000000</haccuracy>
<vaccuracy>-1.000000</vaccuracy>
<internetconnect>-1</internetconnect>
</trkpt>
<trkpt lat="35.017178" lon="136.444793">
<ele>425.000000</ele>
<time>2026-03-27T17:43:57Z</time>
<speed>0.000000</speed>
<trueHeading>0.000000</trueHeading>
<magneticHeading>0.000000</magneticHeading>
<gpsHeading>0.000000</gpsHeading>
<haccuracy>-1.000000</haccuracy>
<vaccuracy>-1.000000</vaccuracy>
<internetconnect>-1</internetconnect>
</trkpt>
<trkpt lat="35.017270" lon="136.444847">
<ele>426.000000</ele>
<time>2026-03-27T17:44:22Z</time>
<speed>0.000000</speed>
<trueHeading>0.000000</trueHeading>
<magneticHeading>0.000000</magneticHeading>
<gpsHeading>0.000000</gpsHeading>
<haccuracy>-1.000000</haccuracy>
<vaccuracy>-1.000000</vaccuracy>
<internetconnect>-1</internetconnect>
</trkpt>
<trkpt lat="35.017403" lon="136.444932">
<ele>441.000000</ele>
<time>2026-03-27T17:45:00Z</time>
<speed>0.000000</speed>
<trueHeading>0.000000</trueHeading>
<magneticHeading>0.000000</magneticHeading>
<gpsHeading>0.000000</gpsHeading>
<haccuracy>-1.000000</haccuracy>
<vaccuracy>-1.000000</vaccuracy>
<internetconnect>-1</internetconnect>
</trkpt>
<trkpt lat="35.017380" lon="136.444976">
<ele>441.000000</ele>
<time>2026-03-27T17:45:00Z</time>
<speed>0.000000</speed>
<trueHeading>0.000000</trueHeading>
<magneticHeading>0.000000</magneticHeading>
<gpsHeading>0.000000</gpsHeading>
<haccuracy>-1.000000</haccuracy>
<vaccuracy>-1.000000</vaccuracy>
<internetconnect>-1</internetconnect>
</trkpt>
<trkpt lat="35.017327" lon="136.445072">
<ele>436.000000</ele>
<time>2026-03-27T17:45:23Z</time>
<speed>0.000000</speed>
<trueHeading>0.000000</trueHeading>
<magneticHeading>0.000000</magneticHeading>
<gpsHeading>0.000000</gpsHeading>
<haccuracy>-1.000000</haccuracy>
<vaccuracy>-1.000000</vaccuracy>
<internetconnect>-1</internetconnect>
</trkpt>
<trkpt lat="35.017287" lon="136.445137">
<ele>433.000000</ele>
<time>2026-03-27T17:45:39Z</time>
<speed>0.000000</speed>
<trueHeading>0.000000</trueHeading>
<magneticHeading>0.000000</magneticHeading>
<gpsHeading>0.000000</gpsHeading>
<haccuracy>-1.000000</haccuracy>
<vaccuracy>-1.000000</vaccuracy>
<internetconnect>-1</internetconnect>
</trkpt>
<trkpt lat="35.017270" lon="136.445163">
<ele>430.000000</ele>
<time>2026-03-27T17:45:46Z</time>
<speed>0.000000</speed>
<trueHeading>0.000000</trueHeading>
<magneticHeading>0.000000</magneticHeading>
<gpsHeading>0.000000</gpsHeading>
<haccuracy>-1.000000</haccuracy>
<vaccuracy>-1.000000</vaccuracy>
<internetconnect>-1</internetconnect>
</trkpt>
<trkpt lat="35.017248" lon="136.445169">
<ele>430.000000</ele>
<time>2026-03-27T17:45:52Z</time>
<speed>0.000000</speed>
<trueHeading>0.000000</trueHeading>
<magneticHeading>0.000000</magneticHeading>
<gpsHeading>0.000000</gpsHeading>
<haccuracy>-1.000000</haccuracy>
<vaccuracy>-1.000000</vaccuracy>
<internetconnect>-1</internetconnect>
</trkpt>
<trkpt lat="35.017235" lon="136.445158">
<ele>426.000000</ele>
<time>2026-03-27T17:45:56Z</time>
<speed>0.000000</speed>
<trueHeading>0.000000</trueHeading>
<magneticHeading>0.000000</magneticHeading>
<gpsHeading>0.000000</gpsHeading>
<haccuracy>-1.000000</haccuracy>
<vaccuracy>-1.000000</vaccuracy>
<internetconnect>-1</internetconnect>
</trkpt>
<trkpt lat="35.017235" lon="136.445099">
<ele>427.000000</ele>
<time>2026-03-27T17:46:08Z</time>
<speed>0.000000</speed>
<trueHeading>0.000000</trueHeading>
<magneticHeading>0.000000</magneticHeading>
<gpsHeading>0.000000</gpsHeading>
<haccuracy>-1.000000</haccuracy>
<vaccuracy>-1.000000</vaccuracy>
<internetconnect>-1</internetconnect>
</trkpt>
<trkpt lat="35.017217" lon="136.445045">
<ele>425.000000</ele>
<time>2026-03-27T17:46:19Z</time>
<speed>0.000000</speed>
<trueHeading>0.000000</trueHeading>
<magneticHeading>0.000000</magneticHeading>
<gpsHeading>0.000000</gpsHeading>
<haccuracy>-1.000000</haccuracy>
<vaccuracy>-1.000000</vaccuracy>
<internetconnect>-1</internetconnect>
</trkpt>
<trkpt lat="35.017200" lon="136.445024">
<ele>422.000000</ele>
<time>2026-03-27T17:46:26Z</time>
<speed>0.000000</speed>
<trueHeading>0.000000</trueHeading>
<magneticHeading>0.000000</magneticHeading>
<gpsHeading>0.000000</gpsHeading>
<haccuracy>-1.000000</haccuracy>
<vaccuracy>-1.000000</vaccuracy>
<internetconnect>-1</internetconnect>
</trkpt>
<trkpt lat="35.017178" lon="136.445024">
<ele>422.000000</ele>
<time>2026-03-27T17:46:31Z</time>
<speed>0.000000</speed>
<trueHeading>0.000000</trueHeading>
<magneticHeading>0.000000</magneticHeading>
<gpsHeading>0.000000</gpsHeading>
<haccuracy>-1.000000</haccuracy>
<vaccuracy>-1.000000</vaccuracy>
<internetconnect>-1</internetconnect>
</trkpt>
<trkpt lat="35.017120" lon="136.445040">
<ele>413.000000</ele>
<time>2026-03-27T17:46:45Z</time>
<speed>0.000000</speed>
<trueHeading>0.000000</trueHeading>
<magneticHeading>0.000000</magneticHeading>
<gpsHeading>0.000000</gpsHeading>
<haccuracy>-1.000000</haccuracy>
<vaccuracy>-1.000000</vaccuracy>
<internetconnect>-1</internetconnect>
</trkpt>
<trkpt lat="35.017063" lon="136.445062">
<ele>409.000000</ele>
<time>2026-03-27T17:47:00Z</time>
<speed>0.000000</speed>
<trueHeading>0.000000</trueHeading>
<magneticHeading>0.000000</magneticHeading>
<gpsHeading>0.000000</gpsHeading>
<haccuracy>-1.000000</haccuracy>
<vaccuracy>-1.000000</vaccuracy>
<internetconnect>-1</internetconnect>
</trkpt>
<trkpt lat="35.017015" lon="136.445062">
<ele>403.000000</ele>
<time>2026-03-27T17:47:12Z</time>
<speed>0.000000</speed>
<trueHeading>0.000000</trueHeading>
<magneticHeading>0.000000</magneticHeading>
<gpsHeading>0.000000</gpsHeading>
<haccuracy>-1.000000</haccuracy>
<vaccuracy>-1.000000</vaccuracy>
<internetconnect>-1</internetconnect>
</trkpt>
<trkpt lat="35.016984" lon="136.445029">
<ele>402.000000</ele>
<time>2026-03-27T17:47:22Z</time>
<speed>0.000000</speed>
<trueHeading>0.000000</trueHeading>
<magneticHeading>0.000000</magneticHeading>
<gpsHeading>0.000000</gpsHeading>
<haccuracy>-1.000000</haccuracy>
<vaccuracy>-1.000000</vaccuracy>
<internetconnect>-1</internetconnect>
</trkpt>
<trkpt lat="35.016958" lon="136.444960">
<ele>406.000000</ele>
<time>2026-03-27T17:47:38Z</time>
<speed>0.000000</speed>
<trueHeading>0.000000</trueHeading>
<magneticHeading>0.000000</magneticHeading>
<gpsHeading>0.000000</gpsHeading>
<haccuracy>-1.000000</haccuracy>
<vaccuracy>-1.000000</vaccuracy>
<internetconnect>-1</internetconnect>
</trkpt>
<trkpt lat="35.016945" lon="136.444890">
<ele>405.000000</ele>
<time>2026-03-27T17:47:52Z</time>
<speed>0.000000</speed>
<trueHeading>0.000000</trueHeading>
<magneticHeading>0.000000</magneticHeading>
<gpsHeading>0.000000</gpsHeading>
<haccuracy>-1.000000</haccuracy>
<vaccuracy>-1.000000</vaccuracy>
<internetconnect>-1</internetconnect>
</trkpt>
<trkpt lat="35.016901" lon="136.444708">
<ele>408.000000</ele>
<time>2026-03-27T17:48:31Z</time>
<speed>0.000000</speed>
<trueHeading>0.000000</trueHeading>
<magneticHeading>0.000000</magneticHeading>
<gpsHeading>0.000000</gpsHeading>
<haccuracy>-1.000000</haccuracy>
<vaccuracy>-1.000000</vaccuracy>
<internetconnect>-1</internetconnect>
</trkpt>
<trkpt lat="35.016879" lon="136.444659">
<ele>403.000000</ele>
<time>2026-03-27T17:48:42Z</time>
<speed>0.000000</speed>
<trueHeading>0.000000</trueHeading>
<magneticHeading>0.000000</magneticHeading>
<gpsHeading>0.000000</gpsHeading>
<haccuracy>-1.000000</haccuracy>
<vaccuracy>-1.000000</vaccuracy>
<internetconnect>-1</internetconnect>
</trkpt>
<trkpt lat="35.016861" lon="136.444643">
<ele>403.000000</ele>
<time>2026-03-27T17:48:47Z</time>
<speed>0.000000</speed>
<trueHeading>0.000000</trueHeading>
<magneticHeading>0.000000</magneticHeading>
<gpsHeading>0.000000</gpsHeading>
<haccuracy>-1.000000</haccuracy>
<vaccuracy>-1.000000</vaccuracy>
<internetconnect>-1</internetconnect>
</trkpt>
<trkpt lat="35.016839" lon="136.444643">
<ele>400.000000</ele>
<time>2026-03-27T17:48:53Z</time>
<speed>0.000000</speed>
<trueHeading>0.000000</trueHeading>
<magneticHeading>0.000000</magneticHeading>
<gpsHeading>0.000000</gpsHeading>
<haccuracy>-1.000000</haccuracy>
<vaccuracy>-1.000000</vaccuracy>
<internetconnect>-1</internetconnect>
</trkpt>
<trkpt lat="35.016826" lon="136.444670">
<ele>401.000000</ele>
<time>2026-03-27T17:48:59Z</time>
<speed>0.000000</speed>
<trueHeading>0.000000</trueHeading>
<magneticHeading>0.000000</magneticHeading>
<gpsHeading>0.000000</gpsHeading>
<haccuracy>-1.000000</haccuracy>
<vaccuracy>-1.000000</vaccuracy>
<internetconnect>-1</internetconnect>
</trkpt>
<trkpt lat="35.016800" lon="136.444729">
<ele>398.000000</ele>
<time>2026-03-27T17:49:13Z</time>
<speed>0.000000</speed>
<trueHeading>0.000000</trueHeading>
<magneticHeading>0.000000</magneticHeading>
<gpsHeading>0.000000</gpsHeading>
<haccuracy>-1.000000</haccuracy>
<vaccuracy>-1.000000</vaccuracy>
<internetconnect>-1</internetconnect>
</trkpt>
<trkpt lat="35.016769" lon="136.444756">
<ele>394.000000</ele>
<time>2026-03-27T17:49:22Z</time>
<speed>0.000000</speed>
<trueHeading>0.000000</trueHeading>
<magneticHeading>0.000000</magneticHeading>
<gpsHeading>0.000000</gpsHeading>
<haccuracy>-1.000000</haccuracy>
<vaccuracy>-1.000000</vaccuracy>
<internetconnect>-1</internetconnect>
</trkpt>
<trkpt lat="35.016699" lon="136.444772">
<ele>388.000000</ele>
<time>2026-03-27T17:49:40Z</time>
<speed>0.000000</speed>
<trueHeading>0.000000</trueHeading>
<magneticHeading>0.000000</magneticHeading>
<gpsHeading>0.000000</gpsHeading>
<haccuracy>-1.000000</haccuracy>
<vaccuracy>-1.000000</vaccuracy>
<internetconnect>-1</internetconnect>
</trkpt>
<trkpt lat="35.016699" lon="136.444772">
<ele>388.000000</ele>
<time>2026-03-27T17:49:40Z</time>
<speed>0.000000</speed>
<trueHeading>0.000000</trueHeading>
<magneticHeading>0.000000</magneticHeading>
<gpsHeading>0.000000</gpsHeading>
<haccuracy>-1.000000</haccuracy>
<vaccuracy>-1.000000</vaccuracy>
<internetconnect>-1</internetconnect>
</trkpt>
<trkpt lat="35.016721" lon="136.444922">
<ele>387.000000</ele>
<time>2026-03-27T17:50:11Z</time>
<speed>0.000000</speed>
<trueHeading>0.000000</trueHeading>
<magneticHeading>0.000000</magneticHeading>
<gpsHeading>0.000000</gpsHeading>
<haccuracy>-1.000000</haccuracy>
<vaccuracy>-1.000000</vaccuracy>
<internetconnect>-1</internetconnect>
</trkpt>
<trkpt lat="35.016743" lon="136.445115">
<ele>385.000000</ele>
<time>2026-03-27T17:50:50Z</time>
<speed>0.000000</speed>
<trueHeading>0.000000</trueHeading>
<magneticHeading>0.000000</magneticHeading>
<gpsHeading>0.000000</gpsHeading>
<haccuracy>-1.000000</haccuracy>
<vaccuracy>-1.000000</vaccuracy>
<internetconnect>-1</internetconnect>
</trkpt>
<trkpt lat="35.016738" lon="136.445357">
<ele>384.000000</ele>
<time>2026-03-27T17:51:39Z</time>
<speed>0.000000</speed>
<trueHeading>0.000000</trueHeading>
<magneticHeading>0.000000</magneticHeading>
<gpsHeading>0.000000</gpsHeading>
<haccuracy>-1.000000</haccuracy>
<vaccuracy>-1.000000</vaccuracy>
<internetconnect>-1</internetconnect>
</trkpt>
<trkpt lat="35.016729" lon="136.445464">
<ele>383.000000</ele>
<time>2026-03-27T17:52:01Z</time>
<speed>0.000000</speed>
<trueHeading>0.000000</trueHeading>
<magneticHeading>0.000000</magneticHeading>
<gpsHeading>0.000000</gpsHeading>
<haccuracy>-1.000000</haccuracy>
<vaccuracy>-1.000000</vaccuracy>
<internetconnect>-1</internetconnect>
</trkpt>
<trkpt lat="35.016721" lon="136.445534">
<ele>383.000000</ele>
<time>2026-03-27T17:52:15Z</time>
<speed>0.000000</speed>
<trueHeading>0.000000</trueHeading>
<magneticHeading>0.000000</magneticHeading>
<gpsHeading>0.000000</gpsHeading>
<haccuracy>-1.000000</haccuracy>
<vaccuracy>-1.000000</vaccuracy>
<internetconnect>-1</internetconnect>
</trkpt>
<trkpt lat="35.016707" lon="136.445641">
<ele>384.000000</ele>
<time>2026-03-27T17:52:37Z</time>
<speed>0.000000</speed>
<trueHeading>0.000000</trueHeading>
<magneticHeading>0.000000</magneticHeading>
<gpsHeading>0.000000</gpsHeading>
<haccuracy>-1.000000</haccuracy>
<vaccuracy>-1.000000</vaccuracy>
<internetconnect>-1</internetconnect>
</trkpt>
<trkpt lat="35.016694" lon="136.445764">
<ele>385.000000</ele>
<time>2026-03-27T17:53:03Z</time>
<speed>0.000000</speed>
<trueHeading>0.000000</trueHeading>
<magneticHeading>0.000000</magneticHeading>
<gpsHeading>0.000000</gpsHeading>
<haccuracy>-1.000000</haccuracy>
<vaccuracy>-1.000000</vaccuracy>
<internetconnect>-1</internetconnect>
</trkpt>
<trkpt lat="35.016681" lon="136.445834">
<ele>385.000000</ele>
<time>2026-03-27T17:53:17Z</time>
<speed>0.000000</speed>
<trueHeading>0.000000</trueHeading>
<magneticHeading>0.000000</magneticHeading>
<gpsHeading>0.000000</gpsHeading>
<haccuracy>-1.000000</haccuracy>
<vaccuracy>-1.000000</vaccuracy>
<internetconnect>-1</internetconnect>
</trkpt>
<trkpt lat="35.016672" lon="136.445984">
<ele>384.000000</ele>
<time>2026-03-27T17:53:48Z</time>
<speed>0.000000</speed>
<trueHeading>0.000000</trueHeading>
<magneticHeading>0.000000</magneticHeading>
<gpsHeading>0.000000</gpsHeading>
<haccuracy>-1.000000</haccuracy>
<vaccuracy>-1.000000</vaccuracy>
<internetconnect>-1</internetconnect>
</trkpt>
<trkpt lat="35.016677" lon="136.446108">
<ele>386.000000</ele>
<time>2026-03-27T17:54:13Z</time>
<speed>0.000000</speed>
<trueHeading>0.000000</trueHeading>
<magneticHeading>0.000000</magneticHeading>
<gpsHeading>0.000000</gpsHeading>
<haccuracy>-1.000000</haccuracy>
<vaccuracy>-1.000000</vaccuracy>
<internetconnect>-1</internetconnect>
</trkpt>
<trkpt lat="35.016694" lon="136.446231">
<ele>386.000000</ele>
<time>2026-03-27T17:54:38Z</time>
<speed>0.000000</speed>
<trueHeading>0.000000</trueHeading>
<magneticHeading>0.000000</magneticHeading>
<gpsHeading>0.000000</gpsHeading>
<haccuracy>-1.000000</haccuracy>
<vaccuracy>-1.000000</vaccuracy>
<internetconnect>-1</internetconnect>
</trkpt>
<trkpt lat="35.016716" lon="136.446360">
<ele>393.000000</ele>
<time>2026-03-27T17:55:05Z</time>
<speed>0.000000</speed>
<trueHeading>0.000000</trueHeading>
<magneticHeading>0.000000</magneticHeading>
<gpsHeading>0.000000</gpsHeading>
<haccuracy>-1.000000</haccuracy>
<vaccuracy>-1.000000</vaccuracy>
<internetconnect>-1</internetconnect>
</trkpt>
<trkpt lat="35.016765" lon="136.446623">
<ele>393.000000</ele>
<time>2026-03-27T17:56:00Z</time>
<speed>0.000000</speed>
<trueHeading>0.000000</trueHeading>
<magneticHeading>0.000000</magneticHeading>
<gpsHeading>0.000000</gpsHeading>
<haccuracy>-1.000000</haccuracy>
<vaccuracy>-1.000000</vaccuracy>
<internetconnect>-1</internetconnect>
</trkpt>
<trkpt lat="35.016712" lon="136.446896">
<ele>393.000000</ele>
<time>2026-03-27T17:56:00Z</time>
<speed>0.000000</speed>
<trueHeading>0.000000</trueHeading>
<magneticHeading>0.000000</magneticHeading>
<gpsHeading>0.000000</gpsHeading>
<haccuracy>-1.000000</haccuracy>
<vaccuracy>-1.000000</vaccuracy>
<internetconnect>-1</internetconnect>
</trkpt>
<trkpt lat="35.016694" lon="136.447030">
<ele>393.000000</ele>
<time>2026-03-27T17:56:17Z</time>
<speed>0.000000</speed>
<trueHeading>0.000000</trueHeading>
<magneticHeading>0.000000</magneticHeading>
<gpsHeading>0.000000</gpsHeading>
<haccuracy>-1.000000</haccuracy>
<vaccuracy>-1.000000</vaccuracy>
<internetconnect>-1</internetconnect>
</trkpt>
<trkpt lat="35.016690" lon="136.447116">
<ele>393.000000</ele>
<time>2026-03-27T17:56:28Z</time>
<speed>0.000000</speed>
<trueHeading>0.000000</trueHeading>
<magneticHeading>0.000000</magneticHeading>
<gpsHeading>0.000000</gpsHeading>
<haccuracy>-1.000000</haccuracy>
<vaccuracy>-1.000000</vaccuracy>
<internetconnect>-1</internetconnect>
</trkpt>
<trkpt lat="35.016694" lon="136.447223">
<ele>393.000000</ele>
<time>2026-03-27T17:56:41Z</time>
<speed>0.000000</speed>
<trueHeading>0.000000</trueHeading>
<magneticHeading>0.000000</magneticHeading>
<gpsHeading>0.000000</gpsHeading>
<haccuracy>-1.000000</haccuracy>
<vaccuracy>-1.000000</vaccuracy>
<internetconnect>-1</internetconnect>
</trkpt>
<trkpt lat="35.016804" lon="136.447894">
<ele>391.000000</ele>
<time>2026-03-27T17:58:08Z</time>
<speed>0.000000</speed>
<trueHeading>0.000000</trueHeading>
<magneticHeading>0.000000</magneticHeading>
<gpsHeading>0.000000</gpsHeading>
<haccuracy>-1.000000</haccuracy>
<vaccuracy>-1.000000</vaccuracy>
<internetconnect>-1</internetconnect>
</trkpt>
<trkpt lat="35.016857" lon="136.448468">
<ele>387.000000</ele>
<time>2026-03-27T17:59:21Z</time>
<speed>0.000000</speed>
<trueHeading>0.000000</trueHeading>
<magneticHeading>0.000000</magneticHeading>
<gpsHeading>0.000000</gpsHeading>
<haccuracy>-1.000000</haccuracy>
<vaccuracy>-1.000000</vaccuracy>
<internetconnect>-1</internetconnect>
</trkpt>
<trkpt lat="35.016984" lon="136.449316">
<ele>380.000000</ele>
<time>2026-03-27T18:01:10Z</time>
<speed>0.000000</speed>
<trueHeading>0.000000</trueHeading>
<magneticHeading>0.000000</magneticHeading>
<gpsHeading>0.000000</gpsHeading>
<haccuracy>-1.000000</haccuracy>
<vaccuracy>-1.000000</vaccuracy>
<internetconnect>-1</internetconnect>
</trkpt>
<trkpt lat="35.017028" lon="136.449691">
<ele>376.000000</ele>
<time>2026-03-27T18:01:58Z</time>
<speed>0.000000</speed>
<trueHeading>0.000000</trueHeading>
<magneticHeading>0.000000</magneticHeading>
<gpsHeading>0.000000</gpsHeading>
<haccuracy>-1.000000</haccuracy>
<vaccuracy>-1.000000</vaccuracy>
<internetconnect>-1</internetconnect>
</trkpt>
<trkpt lat="35.017050" lon="136.449868">
<ele>376.000000</ele>
<time>2026-03-27T18:02:21Z</time>
<speed>0.000000</speed>
<trueHeading>0.000000</trueHeading>
<magneticHeading>0.000000</magneticHeading>
<gpsHeading>0.000000</gpsHeading>
<haccuracy>-1.000000</haccuracy>
<vaccuracy>-1.000000</vaccuracy>
<internetconnect>-1</internetconnect>
</trkpt>
<trkpt lat="35.017164" lon="136.449836">
<ele>375.000000</ele>
<time>2026-03-27T18:02:39Z</time>
<speed>0.000000</speed>
<trueHeading>0.000000</trueHeading>
<magneticHeading>0.000000</magneticHeading>
<gpsHeading>0.000000</gpsHeading>
<haccuracy>-1.000000</haccuracy>
<vaccuracy>-1.000000</vaccuracy>
<internetconnect>-1</internetconnect>
</trkpt>
<trkpt lat="35.017257" lon="136.449788">
<ele>369.000000</ele>
<time>2026-03-27T18:02:54Z</time>
<speed>0.000000</speed>
<trueHeading>0.000000</trueHeading>
<magneticHeading>0.000000</magneticHeading>
<gpsHeading>0.000000</gpsHeading>
<haccuracy>-1.000000</haccuracy>
<vaccuracy>-1.000000</vaccuracy>
<internetconnect>-1</internetconnect>
</trkpt>
<trkpt lat="35.017296" lon="136.449729">
<ele>367.000000</ele>
<time>2026-03-27T18:03:04Z</time>
<speed>0.000000</speed>
<trueHeading>0.000000</trueHeading>
<magneticHeading>0.000000</magneticHeading>
<gpsHeading>0.000000</gpsHeading>
<haccuracy>-1.000000</haccuracy>
<vaccuracy>-1.000000</vaccuracy>
<internetconnect>-1</internetconnect>
</trkpt>
<trkpt lat="35.017331" lon="136.449648">
<ele>366.000000</ele>
<time>2026-03-27T18:03:15Z</time>
<speed>0.000000</speed>
<trueHeading>0.000000</trueHeading>
<magneticHeading>0.000000</magneticHeading>
<gpsHeading>0.000000</gpsHeading>
<haccuracy>-1.000000</haccuracy>
<vaccuracy>-1.000000</vaccuracy>
<internetconnect>-1</internetconnect>
</trkpt>
<trkpt lat="35.017353" lon="136.449584">
<ele>366.000000</ele>
<time>2026-03-27T18:03:24Z</time>
<speed>0.000000</speed>
<trueHeading>0.000000</trueHeading>
<magneticHeading>0.000000</magneticHeading>
<gpsHeading>0.000000</gpsHeading>
<haccuracy>-1.000000</haccuracy>
<vaccuracy>-1.000000</vaccuracy>
<internetconnect>-1</internetconnect>
</trkpt>
<trkpt lat="35.017384" lon="136.449498">
<ele>361.000000</ele>
<time>2026-03-27T18:03:36Z</time>
<speed>0.000000</speed>
<trueHeading>0.000000</trueHeading>
<magneticHeading>0.000000</magneticHeading>
<gpsHeading>0.000000</gpsHeading>
<haccuracy>-1.000000</haccuracy>
<vaccuracy>-1.000000</vaccuracy>
<internetconnect>-1</internetconnect>
</trkpt>
<trkpt lat="35.017419" lon="136.449444">
<ele>359.000000</ele>
<time>2026-03-27T18:03:45Z</time>
<speed>0.000000</speed>
<trueHeading>0.000000</trueHeading>
<magneticHeading>0.000000</magneticHeading>
<gpsHeading>0.000000</gpsHeading>
<haccuracy>-1.000000</haccuracy>
<vaccuracy>-1.000000</vaccuracy>
<internetconnect>-1</internetconnect>
</trkpt>
<trkpt lat="35.017446" lon="136.449423">
<ele>362.000000</ele>
<time>2026-03-27T18:03:50Z</time>
<speed>0.000000</speed>
<trueHeading>0.000000</trueHeading>
<magneticHeading>0.000000</magneticHeading>
<gpsHeading>0.000000</gpsHeading>
<haccuracy>-1.000000</haccuracy>
<vaccuracy>-1.000000</vaccuracy>
<internetconnect>-1</internetconnect>
</trkpt>
<trkpt lat="35.017476" lon="136.449391">
<ele>360.000000</ele>
<time>2026-03-27T18:03:56Z</time>
<speed>0.000000</speed>
<trueHeading>0.000000</trueHeading>
<magneticHeading>0.000000</magneticHeading>
<gpsHeading>0.000000</gpsHeading>
<haccuracy>-1.000000</haccuracy>
<vaccuracy>-1.000000</vaccuracy>
<internetconnect>-1</internetconnect>
</trkpt>
<trkpt lat="35.017538" lon="136.449391">
<ele>354.000000</ele>
<time>2026-03-27T18:04:05Z</time>
<speed>0.000000</speed>
<trueHeading>0.000000</trueHeading>
<magneticHeading>0.000000</magneticHeading>
<gpsHeading>0.000000</gpsHeading>
<haccuracy>-1.000000</haccuracy>
<vaccuracy>-1.000000</vaccuracy>
<internetconnect>-1</internetconnect>
</trkpt>
<trkpt lat="35.017626" lon="136.449364">
<ele>347.000000</ele>
<time>2026-03-27T18:04:19Z</time>
<speed>0.000000</speed>
<trueHeading>0.000000</trueHeading>
<magneticHeading>0.000000</magneticHeading>
<gpsHeading>0.000000</gpsHeading>
<haccuracy>-1.000000</haccuracy>
<vaccuracy>-1.000000</vaccuracy>
<internetconnect>-1</internetconnect>
</trkpt>
<trkpt lat="35.017683" lon="136.449342">
<ele>342.000000</ele>
<time>2026-03-27T18:04:28Z</time>
<speed>0.000000</speed>
<trueHeading>0.000000</trueHeading>
<magneticHeading>0.000000</magneticHeading>
<gpsHeading>0.000000</gpsHeading>
<haccuracy>-1.000000</haccuracy>
<vaccuracy>-1.000000</vaccuracy>
<internetconnect>-1</internetconnect>
</trkpt>
<trkpt lat="35.017736" lon="136.449310">
<ele>339.000000</ele>
<time>2026-03-27T18:04:38Z</time>
<speed>0.000000</speed>
<trueHeading>0.000000</trueHeading>
<magneticHeading>0.000000</magneticHeading>
<gpsHeading>0.000000</gpsHeading>
<haccuracy>-1.000000</haccuracy>
<vaccuracy>-1.000000</vaccuracy>
<internetconnect>-1</internetconnect>
</trkpt>
<trkpt lat="35.017806" lon="136.449251">
<ele>334.000000</ele>
<time>2026-03-27T18:04:51Z</time>
<speed>0.000000</speed>
<trueHeading>0.000000</trueHeading>
<magneticHeading>0.000000</magneticHeading>
<gpsHeading>0.000000</gpsHeading>
<haccuracy>-1.000000</haccuracy>
<vaccuracy>-1.000000</vaccuracy>
<internetconnect>-1</internetconnect>
</trkpt>
<trkpt lat="35.017885" lon="136.449192">
<ele>333.000000</ele>
<time>2026-03-27T18:05:05Z</time>
<speed>0.000000</speed>
<trueHeading>0.000000</trueHeading>
<magneticHeading>0.000000</magneticHeading>
<gpsHeading>0.000000</gpsHeading>
<haccuracy>-1.000000</haccuracy>
<vaccuracy>-1.000000</vaccuracy>
<internetconnect>-1</internetconnect>
</trkpt>
<trkpt lat="35.018025" lon="136.449117">
<ele>335.000000</ele>
<time>2026-03-27T18:05:29Z</time>
<speed>0.000000</speed>
<trueHeading>0.000000</trueHeading>
<magneticHeading>0.000000</magneticHeading>
<gpsHeading>0.000000</gpsHeading>
<haccuracy>-1.000000</haccuracy>
<vaccuracy>-1.000000</vaccuracy>
<internetconnect>-1</internetconnect>
</trkpt>
<trkpt lat="35.018131" lon="136.449080">
<ele>333.000000</ele>
<time>2026-03-27T18:05:46Z</time>
<speed>0.000000</speed>
<trueHeading>0.000000</trueHeading>
<magneticHeading>0.000000</magneticHeading>
<gpsHeading>0.000000</gpsHeading>
<haccuracy>-1.000000</haccuracy>
<vaccuracy>-1.000000</vaccuracy>
<internetconnect>-1</internetconnect>
</trkpt>
<trkpt lat="35.018219" lon="136.449053">
<ele>334.000000</ele>
<time>2026-03-27T18:06:00Z</time>
<speed>0.000000</speed>
<trueHeading>0.000000</trueHeading>
<magneticHeading>0.000000</magneticHeading>
<gpsHeading>0.000000</gpsHeading>
<haccuracy>-1.000000</haccuracy>
<vaccuracy>-1.000000</vaccuracy>
<internetconnect>-1</internetconnect>
</trkpt>
<trkpt lat="35.018289" lon="136.449375">
<ele>330.000000</ele>
<time>2026-03-27T18:06:00Z</time>
<speed>0.000000</speed>
<trueHeading>0.000000</trueHeading>
<magneticHeading>0.000000</magneticHeading>
<gpsHeading>0.000000</gpsHeading>
<haccuracy>-1.000000</haccuracy>
<vaccuracy>-1.000000</vaccuracy>
<internetconnect>-1</internetconnect>
</trkpt>
<trkpt lat="35.018293" lon="136.449535">
<ele>332.000000</ele>
<time>2026-03-27T18:06:35Z</time>
<speed>0.000000</speed>
<trueHeading>0.000000</trueHeading>
<magneticHeading>0.000000</magneticHeading>
<gpsHeading>0.000000</gpsHeading>
<haccuracy>-1.000000</haccuracy>
<vaccuracy>-1.000000</vaccuracy>
<internetconnect>-1</internetconnect>
</trkpt>
<trkpt lat="35.018333" lon="136.449664">
<ele>331.000000</ele>
<time>2026-03-27T18:07:05Z</time>
<speed>0.000000</speed>
<trueHeading>0.000000</trueHeading>
<magneticHeading>0.000000</magneticHeading>
<gpsHeading>0.000000</gpsHeading>
<haccuracy>-1.000000</haccuracy>
<vaccuracy>-1.000000</vaccuracy>
<internetconnect>-1</internetconnect>
</trkpt>
<trkpt lat="35.018337" lon="136.449723">
<ele>330.000000</ele>
<time>2026-03-27T18:07:18Z</time>
<speed>0.000000</speed>
<trueHeading>0.000000</trueHeading>
<magneticHeading>0.000000</magneticHeading>
<gpsHeading>0.000000</gpsHeading>
<haccuracy>-1.000000</haccuracy>
<vaccuracy>-1.000000</vaccuracy>
<internetconnect>-1</internetconnect>
</trkpt>
<trkpt lat="35.018337" lon="136.449831">
<ele>329.000000</ele>
<time>2026-03-27T18:07:41Z</time>
<speed>0.000000</speed>
<trueHeading>0.000000</trueHeading>
<magneticHeading>0.000000</magneticHeading>
<gpsHeading>0.000000</gpsHeading>
<haccuracy>-1.000000</haccuracy>
<vaccuracy>-1.000000</vaccuracy>
<internetconnect>-1</internetconnect>
</trkpt>
<trkpt lat="35.018342" lon="136.449975">
<ele>328.000000</ele>
<time>2026-03-27T18:08:13Z</time>
<speed>0.000000</speed>
<trueHeading>0.000000</trueHeading>
<magneticHeading>0.000000</magneticHeading>
<gpsHeading>0.000000</gpsHeading>
<haccuracy>-1.000000</haccuracy>
<vaccuracy>-1.000000</vaccuracy>
<internetconnect>-1</internetconnect>
</trkpt>
<trkpt lat="35.018342" lon="136.450109">
<ele>326.000000</ele>
<time>2026-03-27T18:08:43Z</time>
<speed>0.000000</speed>
<trueHeading>0.000000</trueHeading>
<magneticHeading>0.000000</magneticHeading>
<gpsHeading>0.000000</gpsHeading>
<haccuracy>-1.000000</haccuracy>
<vaccuracy>-1.000000</vaccuracy>
<internetconnect>-1</internetconnect>
</trkpt>
<trkpt lat="35.018408" lon="136.450276">
<ele>328.000000</ele>
<time>2026-03-27T18:09:23Z</time>
<speed>0.000000</speed>
<trueHeading>0.000000</trueHeading>
<magneticHeading>0.000000</magneticHeading>
<gpsHeading>0.000000</gpsHeading>
<haccuracy>-1.000000</haccuracy>
<vaccuracy>-1.000000</vaccuracy>
<internetconnect>-1</internetconnect>
</trkpt>
<trkpt lat="35.018447" lon="136.450351">
<ele>328.000000</ele>
<time>2026-03-27T18:09:43Z</time>
<speed>0.000000</speed>
<trueHeading>0.000000</trueHeading>
<magneticHeading>0.000000</magneticHeading>
<gpsHeading>0.000000</gpsHeading>
<haccuracy>-1.000000</haccuracy>
<vaccuracy>-1.000000</vaccuracy>
<internetconnect>-1</internetconnect>
</trkpt>
<trkpt lat="35.018513" lon="136.450394">
<ele>329.000000</ele>
<time>2026-03-27T18:10:03Z</time>
<speed>0.000000</speed>
<trueHeading>0.000000</trueHeading>
<magneticHeading>0.000000</magneticHeading>
<gpsHeading>0.000000</gpsHeading>
<haccuracy>-1.000000</haccuracy>
<vaccuracy>-1.000000</vaccuracy>
<internetconnect>-1</internetconnect>
</trkpt>
<trkpt lat="35.018575" lon="136.450437">
<ele>329.000000</ele>
<time>2026-03-27T18:10:22Z</time>
<speed>0.000000</speed>
<trueHeading>0.000000</trueHeading>
<magneticHeading>0.000000</magneticHeading>
<gpsHeading>0.000000</gpsHeading>
<haccuracy>-1.000000</haccuracy>
<vaccuracy>-1.000000</vaccuracy>
<internetconnect>-1</internetconnect>
</trkpt>
<trkpt lat="35.018663" lon="136.450453">
<ele>328.000000</ele>
<time>2026-03-27T18:10:45Z</time>
<speed>0.000000</speed>
<trueHeading>0.000000</trueHeading>
<magneticHeading>0.000000</magneticHeading>
<gpsHeading>0.000000</gpsHeading>
<haccuracy>-1.000000</haccuracy>
<vaccuracy>-1.000000</vaccuracy>
<internetconnect>-1</internetconnect>
</trkpt>
<trkpt lat="35.018720" lon="136.450464">
<ele>331.000000</ele>
<time>2026-03-27T18:11:01Z</time>
<speed>0.000000</speed>
<trueHeading>0.000000</trueHeading>
<magneticHeading>0.000000</magneticHeading>
<gpsHeading>0.000000</gpsHeading>
<haccuracy>-1.000000</haccuracy>
<vaccuracy>-1.000000</vaccuracy>
<internetconnect>-1</internetconnect>
</trkpt>
<trkpt lat="35.018755" lon="136.450490">
<ele>331.000000</ele>
<time>2026-03-27T18:11:12Z</time>
<speed>0.000000</speed>
<trueHeading>0.000000</trueHeading>
<magneticHeading>0.000000</magneticHeading>
<gpsHeading>0.000000</gpsHeading>
<haccuracy>-1.000000</haccuracy>
<vaccuracy>-1.000000</vaccuracy>
<internetconnect>-1</internetconnect>
</trkpt>
<trkpt lat="35.018755" lon="136.450523">
<ele>331.000000</ele>
<time>2026-03-27T18:11:19Z</time>
<speed>0.000000</speed>
<trueHeading>0.000000</trueHeading>
<magneticHeading>0.000000</magneticHeading>
<gpsHeading>0.000000</gpsHeading>
<haccuracy>-1.000000</haccuracy>
<vaccuracy>-1.000000</vaccuracy>
<internetconnect>-1</internetconnect>
</trkpt>
<trkpt lat="35.018750" lon="136.450587">
<ele>332.000000</ele>
<time>2026-03-27T18:11:33Z</time>
<speed>0.000000</speed>
<trueHeading>0.000000</trueHeading>
<magneticHeading>0.000000</magneticHeading>
<gpsHeading>0.000000</gpsHeading>
<haccuracy>-1.000000</haccuracy>
<vaccuracy>-1.000000</vaccuracy>
<internetconnect>-1</internetconnect>
</trkpt>
<trkpt lat="35.018733" lon="136.450689">
<ele>333.000000</ele>
<time>2026-03-27T18:11:56Z</time>
<speed>0.000000</speed>
<trueHeading>0.000000</trueHeading>
<magneticHeading>0.000000</magneticHeading>
<gpsHeading>0.000000</gpsHeading>
<haccuracy>-1.000000</haccuracy>
<vaccuracy>-1.000000</vaccuracy>
<internetconnect>-1</internetconnect>
</trkpt>
<trkpt lat="35.018706" lon="136.450748">
<ele>333.000000</ele>
<time>2026-03-27T18:12:10Z</time>
<speed>0.000000</speed>
<trueHeading>0.000000</trueHeading>
<magneticHeading>0.000000</magneticHeading>
<gpsHeading>0.000000</gpsHeading>
<haccuracy>-1.000000</haccuracy>
<vaccuracy>-1.000000</vaccuracy>
<internetconnect>-1</internetconnect>
</trkpt>
<trkpt lat="35.018658" lon="136.450812">
<ele>333.000000</ele>
<time>2026-03-27T18:12:30Z</time>
<speed>0.000000</speed>
<trueHeading>0.000000</trueHeading>
<magneticHeading>0.000000</magneticHeading>
<gpsHeading>0.000000</gpsHeading>
<haccuracy>-1.000000</haccuracy>
<vaccuracy>-1.000000</vaccuracy>
<internetconnect>-1</internetconnect>
</trkpt>
<trkpt lat="35.018557" lon="136.450968">
<ele>333.000000</ele>
<time>2026-03-27T18:13:13Z</time>
<speed>0.000000</speed>
<trueHeading>0.000000</trueHeading>
<magneticHeading>0.000000</magneticHeading>
<gpsHeading>0.000000</gpsHeading>
<haccuracy>-1.000000</haccuracy>
<vaccuracy>-1.000000</vaccuracy>
<internetconnect>-1</internetconnect>
</trkpt>
<trkpt lat="35.018500" lon="136.451086">
<ele>333.000000</ele>
<time>2026-03-27T18:13:43Z</time>
<speed>0.000000</speed>
<trueHeading>0.000000</trueHeading>
<magneticHeading>0.000000</magneticHeading>
<gpsHeading>0.000000</gpsHeading>
<haccuracy>-1.000000</haccuracy>
<vaccuracy>-1.000000</vaccuracy>
<internetconnect>-1</internetconnect>
</trkpt>
<trkpt lat="35.018487" lon="136.451145">
<ele>335.000000</ele>
<time>2026-03-27T18:13:56Z</time>
<speed>0.000000</speed>
<trueHeading>0.000000</trueHeading>
<magneticHeading>0.000000</magneticHeading>
<gpsHeading>0.000000</gpsHeading>
<haccuracy>-1.000000</haccuracy>
<vaccuracy>-1.000000</vaccuracy>
<internetconnect>-1</internetconnect>
</trkpt>
<trkpt lat="35.018491" lon="136.451198">
<ele>337.000000</ele>
<time>2026-03-27T18:14:08Z</time>
<speed>0.000000</speed>
<trueHeading>0.000000</trueHeading>
<magneticHeading>0.000000</magneticHeading>
<gpsHeading>0.000000</gpsHeading>
<haccuracy>-1.000000</haccuracy>
<vaccuracy>-1.000000</vaccuracy>
<internetconnect>-1</internetconnect>
</trkpt>
<trkpt lat="35.018496" lon="136.451274">
<ele>339.000000</ele>
<time>2026-03-27T18:14:25Z</time>
<speed>0.000000</speed>
<trueHeading>0.000000</trueHeading>
<magneticHeading>0.000000</magneticHeading>
<gpsHeading>0.000000</gpsHeading>
<haccuracy>-1.000000</haccuracy>
<vaccuracy>-1.000000</vaccuracy>
<internetconnect>-1</internetconnect>
</trkpt>
<trkpt lat="35.018544" lon="136.451467">
<ele>334.000000</ele>
<time>2026-03-27T18:15:09Z</time>
<speed>0.000000</speed>
<trueHeading>0.000000</trueHeading>
<magneticHeading>0.000000</magneticHeading>
<gpsHeading>0.000000</gpsHeading>
<haccuracy>-1.000000</haccuracy>
<vaccuracy>-1.000000</vaccuracy>
<internetconnect>-1</internetconnect>
</trkpt>
<trkpt lat="35.018601" lon="136.451542">
<ele>335.000000</ele>
<time>2026-03-27T18:15:32Z</time>
<speed>0.000000</speed>
<trueHeading>0.000000</trueHeading>
<magneticHeading>0.000000</magneticHeading>
<gpsHeading>0.000000</gpsHeading>
<haccuracy>-1.000000</haccuracy>
<vaccuracy>-1.000000</vaccuracy>
<internetconnect>-1</internetconnect>
</trkpt>
<trkpt lat="35.018671" lon="136.451692">
<ele>346.000000</ele>
<time>2026-03-27T18:16:09Z</time>
<speed>0.000000</speed>
<trueHeading>0.000000</trueHeading>
<magneticHeading>0.000000</magneticHeading>
<gpsHeading>0.000000</gpsHeading>
<haccuracy>-1.000000</haccuracy>
<vaccuracy>-1.000000</vaccuracy>
<internetconnect>-1</internetconnect>
</trkpt>
<trkpt lat="35.018684" lon="136.451756">
<ele>348.000000</ele>
<time>2026-03-27T18:16:24Z</time>
<speed>0.000000</speed>
<trueHeading>0.000000</trueHeading>
<magneticHeading>0.000000</magneticHeading>
<gpsHeading>0.000000</gpsHeading>
<haccuracy>-1.000000</haccuracy>
<vaccuracy>-1.000000</vaccuracy>
<internetconnect>-1</internetconnect>
</trkpt>
<trkpt lat="35.018768" lon="136.451976">
<ele>349.000000</ele>
<time>2026-03-27T18:17:17Z</time>
<speed>0.000000</speed>
<trueHeading>0.000000</trueHeading>
<magneticHeading>0.000000</magneticHeading>
<gpsHeading>0.000000</gpsHeading>
<haccuracy>-1.000000</haccuracy>
<vaccuracy>-1.000000</vaccuracy>
<internetconnect>-1</internetconnect>
</trkpt>
<trkpt lat="35.018878" lon="136.452067">
<ele>338.000000</ele>
<time>2026-03-27T18:17:53Z</time>
<speed>0.000000</speed>
<trueHeading>0.000000</trueHeading>
<magneticHeading>0.000000</magneticHeading>
<gpsHeading>0.000000</gpsHeading>
<haccuracy>-1.000000</haccuracy>
<vaccuracy>-1.000000</vaccuracy>
<internetconnect>-1</internetconnect>
</trkpt>
<trkpt lat="35.018944" lon="136.452100">
<ele>336.000000</ele>
<time>2026-03-27T18:18:11Z</time>
<speed>0.000000</speed>
<trueHeading>0.000000</trueHeading>
<magneticHeading>0.000000</magneticHeading>
<gpsHeading>0.000000</gpsHeading>
<haccuracy>-1.000000</haccuracy>
<vaccuracy>-1.000000</vaccuracy>
<internetconnect>-1</internetconnect>
</trkpt>
<trkpt lat="35.019014" lon="136.452143">
<ele>337.000000</ele>
<time>2026-03-27T18:18:32Z</time>
<speed>0.000000</speed>
<trueHeading>0.000000</trueHeading>
<magneticHeading>0.000000</magneticHeading>
<gpsHeading>0.000000</gpsHeading>
<haccuracy>-1.000000</haccuracy>
<vaccuracy>-1.000000</vaccuracy>
<internetconnect>-1</internetconnect>
</trkpt>
<trkpt lat="35.019102" lon="136.452202">
<ele>336.000000</ele>
<time>2026-03-27T18:18:59Z</time>
<speed>0.000000</speed>
<trueHeading>0.000000</trueHeading>
<magneticHeading>0.000000</magneticHeading>
<gpsHeading>0.000000</gpsHeading>
<haccuracy>-1.000000</haccuracy>
<vaccuracy>-1.000000</vaccuracy>
<internetconnect>-1</internetconnect>
</trkpt>
<trkpt lat="35.019203" lon="136.452266">
<ele>335.000000</ele>
<time>2026-03-27T18:19:30Z</time>
<speed>0.000000</speed>
<trueHeading>0.000000</trueHeading>
<magneticHeading>0.000000</magneticHeading>
<gpsHeading>0.000000</gpsHeading>
<haccuracy>-1.000000</haccuracy>
<vaccuracy>-1.000000</vaccuracy>
<internetconnect>-1</internetconnect>
</trkpt>
<trkpt lat="35.019251" lon="136.452304">
<ele>332.000000</ele>
<time>2026-03-27T18:19:45Z</time>
<speed>0.000000</speed>
<trueHeading>0.000000</trueHeading>
<magneticHeading>0.000000</magneticHeading>
<gpsHeading>0.000000</gpsHeading>
<haccuracy>-1.000000</haccuracy>
<vaccuracy>-1.000000</vaccuracy>
<internetconnect>-1</internetconnect>
</trkpt>
<trkpt lat="35.019295" lon="136.452330">
<ele>332.000000</ele>
<time>2026-03-27T18:19:58Z</time>
<speed>0.000000</speed>
<trueHeading>0.000000</trueHeading>
<magneticHeading>0.000000</magneticHeading>
<gpsHeading>0.000000</gpsHeading>
<haccuracy>-1.000000</haccuracy>
<vaccuracy>-1.000000</vaccuracy>
<internetconnect>-1</internetconnect>
</trkpt>
<trkpt lat="35.019401" lon="136.452389">
<ele>332.000000</ele>
<time>2026-03-27T18:20:29Z</time>
<speed>0.000000</speed>
<trueHeading>0.000000</trueHeading>
<magneticHeading>0.000000</magneticHeading>
<gpsHeading>0.000000</gpsHeading>
<haccuracy>-1.000000</haccuracy>
<vaccuracy>-1.000000</vaccuracy>
<internetconnect>-1</internetconnect>
</trkpt>
<trkpt lat="35.019427" lon="136.452411">
<ele>333.000000</ele>
<time>2026-03-27T18:20:37Z</time>
<speed>0.000000</speed>
<trueHeading>0.000000</trueHeading>
<magneticHeading>0.000000</magneticHeading>
<gpsHeading>0.000000</gpsHeading>
<haccuracy>-1.000000</haccuracy>
<vaccuracy>-1.000000</vaccuracy>
<internetconnect>-1</internetconnect>
</trkpt>
<trkpt lat="35.019423" lon="136.452518">
<ele>341.000000</ele>
<time>2026-03-27T18:21:01Z</time>
<speed>0.000000</speed>
<trueHeading>0.000000</trueHeading>
<magneticHeading>0.000000</magneticHeading>
<gpsHeading>0.000000</gpsHeading>
<haccuracy>-1.000000</haccuracy>
<vaccuracy>-1.000000</vaccuracy>
<internetconnect>-1</internetconnect>
</trkpt>
<trkpt lat="35.019379" lon="136.452599">
<ele>341.000000</ele>
<time>2026-03-27T18:21:22Z</time>
<speed>0.000000</speed>
<trueHeading>0.000000</trueHeading>
<magneticHeading>0.000000</magneticHeading>
<gpsHeading>0.000000</gpsHeading>
<haccuracy>-1.000000</haccuracy>
<vaccuracy>-1.000000</vaccuracy>
<internetconnect>-1</internetconnect>
</trkpt>
<trkpt lat="35.019330" lon="136.452647">
<ele>342.000000</ele>
<time>2026-03-27T18:21:39Z</time>
<speed>0.000000</speed>
<trueHeading>0.000000</trueHeading>
<magneticHeading>0.000000</magneticHeading>
<gpsHeading>0.000000</gpsHeading>
<haccuracy>-1.000000</haccuracy>
<vaccuracy>-1.000000</vaccuracy>
<internetconnect>-1</internetconnect>
</trkpt>
<trkpt lat="35.019291" lon="136.452695">
<ele>342.000000</ele>
<time>2026-03-27T18:21:54Z</time>
<speed>0.000000</speed>
<trueHeading>0.000000</trueHeading>
<magneticHeading>0.000000</magneticHeading>
<gpsHeading>0.000000</gpsHeading>
<haccuracy>-1.000000</haccuracy>
<vaccuracy>-1.000000</vaccuracy>
<internetconnect>-1</internetconnect>
</trkpt>
<trkpt lat="35.019264" lon="136.452733">
<ele>342.000000</ele>
<time>2026-03-27T18:22:05Z</time>
<speed>0.000000</speed>
<trueHeading>0.000000</trueHeading>
<magneticHeading>0.000000</magneticHeading>
<gpsHeading>0.000000</gpsHeading>
<haccuracy>-1.000000</haccuracy>
<vaccuracy>-1.000000</vaccuracy>
<internetconnect>-1</internetconnect>
</trkpt>
<trkpt lat="35.019256" lon="136.452808">
<ele>346.000000</ele>
<time>2026-03-27T18:22:21Z</time>
<speed>0.000000</speed>
<trueHeading>0.000000</trueHeading>
<magneticHeading>0.000000</magneticHeading>
<gpsHeading>0.000000</gpsHeading>
<haccuracy>-1.000000</haccuracy>
<vaccuracy>-1.000000</vaccuracy>
<internetconnect>-1</internetconnect>
</trkpt>
<trkpt lat="35.019251" lon="136.452883">
<ele>352.000000</ele>
<time>2026-03-27T18:22:38Z</time>
<speed>0.000000</speed>
<trueHeading>0.000000</trueHeading>
<magneticHeading>0.000000</magneticHeading>
<gpsHeading>0.000000</gpsHeading>
<haccuracy>-1.000000</haccuracy>
<vaccuracy>-1.000000</vaccuracy>
<internetconnect>-1</internetconnect>
</trkpt>
<trkpt lat="35.019295" lon="136.453028">
<ele>361.000000</ele>
<time>2026-03-27T18:23:12Z</time>
<speed>0.000000</speed>
<trueHeading>0.000000</trueHeading>
<magneticHeading>0.000000</magneticHeading>
<gpsHeading>0.000000</gpsHeading>
<haccuracy>-1.000000</haccuracy>
<vaccuracy>-1.000000</vaccuracy>
<internetconnect>-1</internetconnect>
</trkpt>
<trkpt lat="35.019343" lon="136.453044">
<ele>363.000000</ele>
<time>2026-03-27T18:23:25Z</time>
<speed>0.000000</speed>
<trueHeading>0.000000</trueHeading>
<magneticHeading>0.000000</magneticHeading>
<gpsHeading>0.000000</gpsHeading>
<haccuracy>-1.000000</haccuracy>
<vaccuracy>-1.000000</vaccuracy>
<internetconnect>-1</internetconnect>
</trkpt>
<trkpt lat="35.019414" lon="136.453022">
<ele>366.000000</ele>
<time>2026-03-27T18:23:44Z</time>
<speed>0.000000</speed>
<trueHeading>0.000000</trueHeading>
<magneticHeading>0.000000</magneticHeading>
<gpsHeading>0.000000</gpsHeading>
<haccuracy>-1.000000</haccuracy>
<vaccuracy>-1.000000</vaccuracy>
<internetconnect>-1</internetconnect>
</trkpt>
<trkpt lat="35.019497" lon="136.453001">
<ele>366.000000</ele>
<time>2026-03-27T18:24:07Z</time>
<speed>0.000000</speed>
<trueHeading>0.000000</trueHeading>
<magneticHeading>0.000000</magneticHeading>
<gpsHeading>0.000000</gpsHeading>
<haccuracy>-1.000000</haccuracy>
<vaccuracy>-1.000000</vaccuracy>
<internetconnect>-1</internetconnect>
</trkpt>
<trkpt lat="35.019598" lon="136.452942">
<ele>368.000000</ele>
<time>2026-03-27T18:24:37Z</time>
<speed>0.000000</speed>
<trueHeading>0.000000</trueHeading>
<magneticHeading>0.000000</magneticHeading>
<gpsHeading>0.000000</gpsHeading>
<haccuracy>-1.000000</haccuracy>
<vaccuracy>-1.000000</vaccuracy>
<internetconnect>-1</internetconnect>
</trkpt>
<trkpt lat="35.019691" lon="136.452867">
<ele>369.000000</ele>
<time>2026-03-27T18:25:06Z</time>
<speed>0.000000</speed>
<trueHeading>0.000000</trueHeading>
<magneticHeading>0.000000</magneticHeading>
<gpsHeading>0.000000</gpsHeading>
<haccuracy>-1.000000</haccuracy>
<vaccuracy>-1.000000</vaccuracy>
<internetconnect>-1</internetconnect>
</trkpt>
<trkpt lat="35.019857" lon="136.452679">
<ele>371.000000</ele>
<time>2026-03-27T18:26:07Z</time>
<speed>0.000000</speed>
<trueHeading>0.000000</trueHeading>
<magneticHeading>0.000000</magneticHeading>
<gpsHeading>0.000000</gpsHeading>
<haccuracy>-1.000000</haccuracy>
<vaccuracy>-1.000000</vaccuracy>
<internetconnect>-1</internetconnect>
</trkpt>
<trkpt lat="35.019998" lon="136.452588">
<ele>371.000000</ele>
<time>2026-03-27T18:26:50Z</time>
<speed>0.000000</speed>
<trueHeading>0.000000</trueHeading>
<magneticHeading>0.000000</magneticHeading>
<gpsHeading>0.000000</gpsHeading>
<haccuracy>-1.000000</haccuracy>
<vaccuracy>-1.000000</vaccuracy>
<internetconnect>-1</internetconnect>
</trkpt>
<trkpt lat="35.020060" lon="136.452540">
<ele>374.000000</ele>
<time>2026-03-27T18:27:09Z</time>
<speed>0.000000</speed>
<trueHeading>0.000000</trueHeading>
<magneticHeading>0.000000</magneticHeading>
<gpsHeading>0.000000</gpsHeading>
<haccuracy>-1.000000</haccuracy>
<vaccuracy>-1.000000</vaccuracy>
<internetconnect>-1</internetconnect>
</trkpt>
<trkpt lat="35.020143" lon="136.452523">
<ele>376.000000</ele>
<time>2026-03-27T18:27:32Z</time>
<speed>0.000000</speed>
<trueHeading>0.000000</trueHeading>
<magneticHeading>0.000000</magneticHeading>
<gpsHeading>0.000000</gpsHeading>
<haccuracy>-1.000000</haccuracy>
<vaccuracy>-1.000000</vaccuracy>
<internetconnect>-1</internetconnect>
</trkpt>
<trkpt lat="35.020196" lon="136.452540">
<ele>379.000000</ele>
<time>2026-03-27T18:27:46Z</time>
<speed>0.000000</speed>
<trueHeading>0.000000</trueHeading>
<magneticHeading>0.000000</magneticHeading>
<gpsHeading>0.000000</gpsHeading>
<haccuracy>-1.000000</haccuracy>
<vaccuracy>-1.000000</vaccuracy>
<internetconnect>-1</internetconnect>
</trkpt>
<trkpt lat="35.020253" lon="136.452572">
<ele>380.000000</ele>
<time>2026-03-27T18:28:03Z</time>
<speed>0.000000</speed>
<trueHeading>0.000000</trueHeading>
<magneticHeading>0.000000</magneticHeading>
<gpsHeading>0.000000</gpsHeading>
<haccuracy>-1.000000</haccuracy>
<vaccuracy>-1.000000</vaccuracy>
<internetconnect>-1</internetconnect>
</trkpt>
<trkpt lat="35.020301" lon="136.452620">
<ele>380.000000</ele>
<time>2026-03-27T18:28:20Z</time>
<speed>0.000000</speed>
<trueHeading>0.000000</trueHeading>
<magneticHeading>0.000000</magneticHeading>
<gpsHeading>0.000000</gpsHeading>
<haccuracy>-1.000000</haccuracy>
<vaccuracy>-1.000000</vaccuracy>
<internetconnect>-1</internetconnect>
</trkpt>
<trkpt lat="35.020341" lon="136.452658">
<ele>379.000000</ele>
<time>2026-03-27T18:28:33Z</time>
<speed>0.000000</speed>
<trueHeading>0.000000</trueHeading>
<magneticHeading>0.000000</magneticHeading>
<gpsHeading>0.000000</gpsHeading>
<haccuracy>-1.000000</haccuracy>
<vaccuracy>-1.000000</vaccuracy>
<internetconnect>-1</internetconnect>
</trkpt>
<trkpt lat="35.020411" lon="136.452743">
<ele>378.000000</ele>
<time>2026-03-27T18:29:00Z</time>
<speed>0.000000</speed>
<trueHeading>0.000000</trueHeading>
<magneticHeading>0.000000</magneticHeading>
<gpsHeading>0.000000</gpsHeading>
<haccuracy>-1.000000</haccuracy>
<vaccuracy>-1.000000</vaccuracy>
<internetconnect>-1</internetconnect>
</trkpt>
<trkpt lat="35.020354" lon="136.452808">
<ele>378.000000</ele>
<time>2026-03-27T18:29:00Z</time>
<speed>0.000000</speed>
<trueHeading>0.000000</trueHeading>
<magneticHeading>0.000000</magneticHeading>
<gpsHeading>0.000000</gpsHeading>
<haccuracy>-1.000000</haccuracy>
<vaccuracy>-1.000000</vaccuracy>
<internetconnect>-1</internetconnect>
</trkpt>
<trkpt lat="35.020332" lon="136.452872">
<ele>378.000000</ele>
<time>2026-03-27T18:29:14Z</time>
<speed>0.000000</speed>
<trueHeading>0.000000</trueHeading>
<magneticHeading>0.000000</magneticHeading>
<gpsHeading>0.000000</gpsHeading>
<haccuracy>-1.000000</haccuracy>
<vaccuracy>-1.000000</vaccuracy>
<internetconnect>-1</internetconnect>
</trkpt>
<trkpt lat="35.020332" lon="136.452969">
<ele>377.000000</ele>
<time>2026-03-27T18:29:34Z</time>
<speed>0.000000</speed>
<trueHeading>0.000000</trueHeading>
<magneticHeading>0.000000</magneticHeading>
<gpsHeading>0.000000</gpsHeading>
<haccuracy>-1.000000</haccuracy>
<vaccuracy>-1.000000</vaccuracy>
<internetconnect>-1</internetconnect>
</trkpt>
<trkpt lat="35.020354" lon="136.453242">
<ele>361.000000</ele>
<time>2026-03-27T18:30:31Z</time>
<speed>0.000000</speed>
<trueHeading>0.000000</trueHeading>
<magneticHeading>0.000000</magneticHeading>
<gpsHeading>0.000000</gpsHeading>
<haccuracy>-1.000000</haccuracy>
<vaccuracy>-1.000000</vaccuracy>
<internetconnect>-1</internetconnect>
</trkpt>
<trkpt lat="35.020420" lon="136.453505">
<ele>352.000000</ele>
<time>2026-03-27T18:31:28Z</time>
<speed>0.000000</speed>
<trueHeading>0.000000</trueHeading>
<magneticHeading>0.000000</magneticHeading>
<gpsHeading>0.000000</gpsHeading>
<haccuracy>-1.000000</haccuracy>
<vaccuracy>-1.000000</vaccuracy>
<internetconnect>-1</internetconnect>
</trkpt>
<trkpt lat="35.020455" lon="136.453570">
<ele>354.000000</ele>
<time>2026-03-27T18:31:45Z</time>
<speed>0.000000</speed>
<trueHeading>0.000000</trueHeading>
<magneticHeading>0.000000</magneticHeading>
<gpsHeading>0.000000</gpsHeading>
<haccuracy>-1.000000</haccuracy>
<vaccuracy>-1.000000</vaccuracy>
<internetconnect>-1</internetconnect>
</trkpt>
<trkpt lat="35.020499" lon="136.453618">
<ele>357.000000</ele>
<time>2026-03-27T18:32:00Z</time>
<speed>0.000000</speed>
<trueHeading>0.000000</trueHeading>
<magneticHeading>0.000000</magneticHeading>
<gpsHeading>0.000000</gpsHeading>
<haccuracy>-1.000000</haccuracy>
<vaccuracy>-1.000000</vaccuracy>
<internetconnect>-1</internetconnect>
</trkpt>
<trkpt lat="35.020631" lon="136.453747">
<ele>353.000000</ele>
<time>2026-03-27T18:32:42Z</time>
<speed>0.000000</speed>
<trueHeading>0.000000</trueHeading>
<magneticHeading>0.000000</magneticHeading>
<gpsHeading>0.000000</gpsHeading>
<haccuracy>-1.000000</haccuracy>
<vaccuracy>-1.000000</vaccuracy>
<internetconnect>-1</internetconnect>
</trkpt>
<trkpt lat="35.020811" lon="136.453902">
<ele>358.000000</ele>
<time>2026-03-27T18:33:38Z</time>
<speed>0.000000</speed>
<trueHeading>0.000000</trueHeading>
<magneticHeading>0.000000</magneticHeading>
<gpsHeading>0.000000</gpsHeading>
<haccuracy>-1.000000</haccuracy>
<vaccuracy>-1.000000</vaccuracy>
<internetconnect>-1</internetconnect>
</trkpt>
<trkpt lat="35.020842" lon="136.453972">
<ele>358.000000</ele>
<time>2026-03-27T18:33:55Z</time>
<speed>0.000000</speed>
<trueHeading>0.000000</trueHeading>
<magneticHeading>0.000000</magneticHeading>
<gpsHeading>0.000000</gpsHeading>
<haccuracy>-1.000000</haccuracy>
<vaccuracy>-1.000000</vaccuracy>
<internetconnect>-1</internetconnect>
</trkpt>
<trkpt lat="35.020850" lon="136.454042">
<ele>353.000000</ele>
<time>2026-03-27T18:34:09Z</time>
<speed>0.000000</speed>
<trueHeading>0.000000</trueHeading>
<magneticHeading>0.000000</magneticHeading>
<gpsHeading>0.000000</gpsHeading>
<haccuracy>-1.000000</haccuracy>
<vaccuracy>-1.000000</vaccuracy>
<internetconnect>-1</internetconnect>
</trkpt>
<trkpt lat="35.020828" lon="136.454165">
<ele>343.000000</ele>
<time>2026-03-27T18:34:36Z</time>
<speed>0.000000</speed>
<trueHeading>0.000000</trueHeading>
<magneticHeading>0.000000</magneticHeading>
<gpsHeading>0.000000</gpsHeading>
<haccuracy>-1.000000</haccuracy>
<vaccuracy>-1.000000</vaccuracy>
<internetconnect>-1</internetconnect>
</trkpt>
<trkpt lat="35.020798" lon="136.454229">
<ele>337.000000</ele>
<time>2026-03-27T18:34:51Z</time>
<speed>0.000000</speed>
<trueHeading>0.000000</trueHeading>
<magneticHeading>0.000000</magneticHeading>
<gpsHeading>0.000000</gpsHeading>
<haccuracy>-1.000000</haccuracy>
<vaccuracy>-1.000000</vaccuracy>
<internetconnect>-1</internetconnect>
</trkpt>
<trkpt lat="35.020762" lon="136.454262">
<ele>336.000000</ele>
<time>2026-03-27T18:35:02Z</time>
<speed>0.000000</speed>
<trueHeading>0.000000</trueHeading>
<magneticHeading>0.000000</magneticHeading>
<gpsHeading>0.000000</gpsHeading>
<haccuracy>-1.000000</haccuracy>
<vaccuracy>-1.000000</vaccuracy>
<internetconnect>-1</internetconnect>
</trkpt>
<trkpt lat="35.020648" lon="136.454315">
<ele>345.000000</ele>
<time>2026-03-27T18:35:33Z</time>
<speed>0.000000</speed>
<trueHeading>0.000000</trueHeading>
<magneticHeading>0.000000</magneticHeading>
<gpsHeading>0.000000</gpsHeading>
<haccuracy>-1.000000</haccuracy>
<vaccuracy>-1.000000</vaccuracy>
<internetconnect>-1</internetconnect>
</trkpt>
<trkpt lat="35.020363" lon="136.454455">
<ele>352.000000</ele>
<time>2026-03-27T18:36:51Z</time>
<speed>0.000000</speed>
<trueHeading>0.000000</trueHeading>
<magneticHeading>0.000000</magneticHeading>
<gpsHeading>0.000000</gpsHeading>
<haccuracy>-1.000000</haccuracy>
<vaccuracy>-1.000000</vaccuracy>
<internetconnect>-1</internetconnect>
</trkpt>
<trkpt lat="35.020350" lon="136.454487">
<ele>352.000000</ele>
<time>2026-03-27T18:36:58Z</time>
<speed>0.000000</speed>
<trueHeading>0.000000</trueHeading>
<magneticHeading>0.000000</magneticHeading>
<gpsHeading>0.000000</gpsHeading>
<haccuracy>-1.000000</haccuracy>
<vaccuracy>-1.000000</vaccuracy>
<internetconnect>-1</internetconnect>
</trkpt>
<trkpt lat="35.020354" lon="136.454524">
<ele>354.000000</ele>
<time>2026-03-27T18:37:06Z</time>
<speed>0.000000</speed>
<trueHeading>0.000000</trueHeading>
<magneticHeading>0.000000</magneticHeading>
<gpsHeading>0.000000</gpsHeading>
<haccuracy>-1.000000</haccuracy>
<vaccuracy>-1.000000</vaccuracy>
<internetconnect>-1</internetconnect>
</trkpt>
<trkpt lat="35.020367" lon="136.454551">
<ele>355.000000</ele>
<time>2026-03-27T18:37:13Z</time>
<speed>0.000000</speed>
<trueHeading>0.000000</trueHeading>
<magneticHeading>0.000000</magneticHeading>
<gpsHeading>0.000000</gpsHeading>
<haccuracy>-1.000000</haccuracy>
<vaccuracy>-1.000000</vaccuracy>
<internetconnect>-1</internetconnect>
</trkpt>
<trkpt lat="35.020398" lon="136.454573">
<ele>357.000000</ele>
<time>2026-03-27T18:37:22Z</time>
<speed>0.000000</speed>
<trueHeading>0.000000</trueHeading>
<magneticHeading>0.000000</magneticHeading>
<gpsHeading>0.000000</gpsHeading>
<haccuracy>-1.000000</haccuracy>
<vaccuracy>-1.000000</vaccuracy>
<internetconnect>-1</internetconnect>
</trkpt>
<trkpt lat="35.020468" lon="136.454594">
<ele>356.000000</ele>
<time>2026-03-27T18:37:40Z</time>
<speed>0.000000</speed>
<trueHeading>0.000000</trueHeading>
<magneticHeading>0.000000</magneticHeading>
<gpsHeading>0.000000</gpsHeading>
<haccuracy>-1.000000</haccuracy>
<vaccuracy>-1.000000</vaccuracy>
<internetconnect>-1</internetconnect>
</trkpt>
<trkpt lat="35.020648" lon="136.454610">
<ele>359.000000</ele>
<time>2026-03-27T18:38:26Z</time>
<speed>0.000000</speed>
<trueHeading>0.000000</trueHeading>
<magneticHeading>0.000000</magneticHeading>
<gpsHeading>0.000000</gpsHeading>
<haccuracy>-1.000000</haccuracy>
<vaccuracy>-1.000000</vaccuracy>
<internetconnect>-1</internetconnect>
</trkpt>
<trkpt lat="35.021118" lon="136.454632">
<ele>372.000000</ele>
<time>2026-03-27T18:40:25Z</time>
<speed>0.000000</speed>
<trueHeading>0.000000</trueHeading>
<magneticHeading>0.000000</magneticHeading>
<gpsHeading>0.000000</gpsHeading>
<haccuracy>-1.000000</haccuracy>
<vaccuracy>-1.000000</vaccuracy>
<internetconnect>-1</internetconnect>
</trkpt>
<trkpt lat="35.021325" lon="136.454637">
<ele>375.000000</ele>
<time>2026-03-27T18:41:17Z</time>
<speed>0.000000</speed>
<trueHeading>0.000000</trueHeading>
<magneticHeading>0.000000</magneticHeading>
<gpsHeading>0.000000</gpsHeading>
<haccuracy>-1.000000</haccuracy>
<vaccuracy>-1.000000</vaccuracy>
<internetconnect>-1</internetconnect>
</trkpt>
<trkpt lat="35.021430" lon="136.454669">
<ele>377.000000</ele>
<time>2026-03-27T18:41:45Z</time>
<speed>0.000000</speed>
<trueHeading>0.000000</trueHeading>
<magneticHeading>0.000000</magneticHeading>
<gpsHeading>0.000000</gpsHeading>
<haccuracy>-1.000000</haccuracy>
<vaccuracy>-1.000000</vaccuracy>
<internetconnect>-1</internetconnect>
</trkpt>
<trkpt lat="35.021496" lon="136.454728">
<ele>379.000000</ele>
<time>2026-03-27T18:42:05Z</time>
<speed>0.000000</speed>
<trueHeading>0.000000</trueHeading>
<magneticHeading>0.000000</magneticHeading>
<gpsHeading>0.000000</gpsHeading>
<haccuracy>-1.000000</haccuracy>
<vaccuracy>-1.000000</vaccuracy>
<internetconnect>-1</internetconnect>
</trkpt>
<trkpt lat="35.021562" lon="136.454841">
<ele>373.000000</ele>
<time>2026-03-27T18:42:34Z</time>
<speed>0.000000</speed>
<trueHeading>0.000000</trueHeading>
<magneticHeading>0.000000</magneticHeading>
<gpsHeading>0.000000</gpsHeading>
<haccuracy>-1.000000</haccuracy>
<vaccuracy>-1.000000</vaccuracy>
<internetconnect>-1</internetconnect>
</trkpt>
<trkpt lat="35.021645" lon="136.455066">
<ele>364.000000</ele>
<time>2026-03-27T18:43:25Z</time>
<speed>0.000000</speed>
<trueHeading>0.000000</trueHeading>
<magneticHeading>0.000000</magneticHeading>
<gpsHeading>0.000000</gpsHeading>
<haccuracy>-1.000000</haccuracy>
<vaccuracy>-1.000000</vaccuracy>
<internetconnect>-1</internetconnect>
</trkpt>
<trkpt lat="35.021672" lon="136.455249">
<ele>360.000000</ele>
<time>2026-03-27T18:44:04Z</time>
<speed>0.000000</speed>
<trueHeading>0.000000</trueHeading>
<magneticHeading>0.000000</magneticHeading>
<gpsHeading>0.000000</gpsHeading>
<haccuracy>-1.000000</haccuracy>
<vaccuracy>-1.000000</vaccuracy>
<internetconnect>-1</internetconnect>
</trkpt>
<trkpt lat="35.021676" lon="136.455388">
<ele>358.000000</ele>
<time>2026-03-27T18:44:33Z</time>
<speed>0.000000</speed>
<trueHeading>0.000000</trueHeading>
<magneticHeading>0.000000</magneticHeading>
<gpsHeading>0.000000</gpsHeading>
<haccuracy>-1.000000</haccuracy>
<vaccuracy>-1.000000</vaccuracy>
<internetconnect>-1</internetconnect>
</trkpt>
<trkpt lat="35.021659" lon="136.455597">
<ele>360.000000</ele>
<time>2026-03-27T18:45:17Z</time>
<speed>0.000000</speed>
<trueHeading>0.000000</trueHeading>
<magneticHeading>0.000000</magneticHeading>
<gpsHeading>0.000000</gpsHeading>
<haccuracy>-1.000000</haccuracy>
<vaccuracy>-1.000000</vaccuracy>
<internetconnect>-1</internetconnect>
</trkpt>
<trkpt lat="35.021597" lon="136.455871">
<ele>362.000000</ele>
<time>2026-03-27T18:46:16Z</time>
<speed>0.000000</speed>
<trueHeading>0.000000</trueHeading>
<magneticHeading>0.000000</magneticHeading>
<gpsHeading>0.000000</gpsHeading>
<haccuracy>-1.000000</haccuracy>
<vaccuracy>-1.000000</vaccuracy>
<internetconnect>-1</internetconnect>
</trkpt>
<trkpt lat="35.021588" lon="136.455973">
<ele>365.000000</ele>
<time>2026-03-27T18:46:37Z</time>
<speed>0.000000</speed>
<trueHeading>0.000000</trueHeading>
<magneticHeading>0.000000</magneticHeading>
<gpsHeading>0.000000</gpsHeading>
<haccuracy>-1.000000</haccuracy>
<vaccuracy>-1.000000</vaccuracy>
<internetconnect>-1</internetconnect>
</trkpt>
<trkpt lat="35.021602" lon="136.456059">
<ele>362.000000</ele>
<time>2026-03-27T18:46:55Z</time>
<speed>0.000000</speed>
<trueHeading>0.000000</trueHeading>
<magneticHeading>0.000000</magneticHeading>
<gpsHeading>0.000000</gpsHeading>
<haccuracy>-1.000000</haccuracy>
<vaccuracy>-1.000000</vaccuracy>
<internetconnect>-1</internetconnect>
</trkpt>
<trkpt lat="35.021720" lon="136.456391">
<ele>351.000000</ele>
<time>2026-03-27T18:48:11Z</time>
<speed>0.000000</speed>
<trueHeading>0.000000</trueHeading>
<magneticHeading>0.000000</magneticHeading>
<gpsHeading>0.000000</gpsHeading>
<haccuracy>-1.000000</haccuracy>
<vaccuracy>-1.000000</vaccuracy>
<internetconnect>-1</internetconnect>
</trkpt>
<trkpt lat="35.021742" lon="136.456493">
<ele>349.000000</ele>
<time>2026-03-27T18:48:33Z</time>
<speed>0.000000</speed>
<trueHeading>0.000000</trueHeading>
<magneticHeading>0.000000</magneticHeading>
<gpsHeading>0.000000</gpsHeading>
<haccuracy>-1.000000</haccuracy>
<vaccuracy>-1.000000</vaccuracy>
<internetconnect>-1</internetconnect>
</trkpt>
<trkpt lat="35.021760" lon="136.456622">
<ele>347.000000</ele>
<time>2026-03-27T18:49:00Z</time>
<speed>0.000000</speed>
<trueHeading>0.000000</trueHeading>
<magneticHeading>0.000000</magneticHeading>
<gpsHeading>0.000000</gpsHeading>
<haccuracy>-1.000000</haccuracy>
<vaccuracy>-1.000000</vaccuracy>
<internetconnect>-1</internetconnect>
</trkpt>
<trkpt lat="35.021760" lon="136.456740">
<ele>346.000000</ele>
<time>2026-03-27T18:49:24Z</time>
<speed>0.000000</speed>
<trueHeading>0.000000</trueHeading>
<magneticHeading>0.000000</magneticHeading>
<gpsHeading>0.000000</gpsHeading>
<haccuracy>-1.000000</haccuracy>
<vaccuracy>-1.000000</vaccuracy>
<internetconnect>-1</internetconnect>
</trkpt>
<trkpt lat="35.021729" lon="136.456987">
<ele>345.000000</ele>
<time>2026-03-27T18:50:16Z</time>
<speed>0.000000</speed>
<trueHeading>0.000000</trueHeading>
<magneticHeading>0.000000</magneticHeading>
<gpsHeading>0.000000</gpsHeading>
<haccuracy>-1.000000</haccuracy>
<vaccuracy>-1.000000</vaccuracy>
<internetconnect>-1</internetconnect>
</trkpt>
<trkpt lat="35.021659" lon="136.457437">
<ele>342.000000</ele>
<time>2026-03-27T18:51:52Z</time>
<speed>0.000000</speed>
<trueHeading>0.000000</trueHeading>
<magneticHeading>0.000000</magneticHeading>
<gpsHeading>0.000000</gpsHeading>
<haccuracy>-1.000000</haccuracy>
<vaccuracy>-1.000000</vaccuracy>
<internetconnect>-1</internetconnect>
</trkpt>
<trkpt lat="35.021619" lon="136.457550">
<ele>343.000000</ele>
<time>2026-03-27T18:52:17Z</time>
<speed>0.000000</speed>
<trueHeading>0.000000</trueHeading>
<magneticHeading>0.000000</magneticHeading>
<gpsHeading>0.000000</gpsHeading>
<haccuracy>-1.000000</haccuracy>
<vaccuracy>-1.000000</vaccuracy>
<internetconnect>-1</internetconnect>
</trkpt>
<trkpt lat="35.021575" lon="136.457625">
<ele>344.000000</ele>
<time>2026-03-27T18:52:36Z</time>
<speed>0.000000</speed>
<trueHeading>0.000000</trueHeading>
<magneticHeading>0.000000</magneticHeading>
<gpsHeading>0.000000</gpsHeading>
<haccuracy>-1.000000</haccuracy>
<vaccuracy>-1.000000</vaccuracy>
<internetconnect>-1</internetconnect>
</trkpt>
<trkpt lat="35.021487" lon="136.457754">
<ele>344.000000</ele>
<time>2026-03-27T18:53:11Z</time>
<speed>0.000000</speed>
<trueHeading>0.000000</trueHeading>
<magneticHeading>0.000000</magneticHeading>
<gpsHeading>0.000000</gpsHeading>
<haccuracy>-1.000000</haccuracy>
<vaccuracy>-1.000000</vaccuracy>
<internetconnect>-1</internetconnect>
</trkpt>
<trkpt lat="35.021325" lon="136.457920">
<ele>341.000000</ele>
<time>2026-03-27T18:54:05Z</time>
<speed>0.000000</speed>
<trueHeading>0.000000</trueHeading>
<magneticHeading>0.000000</magneticHeading>
<gpsHeading>0.000000</gpsHeading>
<haccuracy>-1.000000</haccuracy>
<vaccuracy>-1.000000</vaccuracy>
<internetconnect>-1</internetconnect>
</trkpt>
<trkpt lat="35.021290" lon="136.457974">
<ele>339.000000</ele>
<time>2026-03-27T18:54:19Z</time>
<speed>0.000000</speed>
<trueHeading>0.000000</trueHeading>
<magneticHeading>0.000000</magneticHeading>
<gpsHeading>0.000000</gpsHeading>
<haccuracy>-1.000000</haccuracy>
<vaccuracy>-1.000000</vaccuracy>
<internetconnect>-1</internetconnect>
</trkpt>
<trkpt lat="35.021285" lon="136.458011">
<ele>336.000000</ele>
<time>2026-03-27T18:54:27Z</time>
<speed>0.000000</speed>
<trueHeading>0.000000</trueHeading>
<magneticHeading>0.000000</magneticHeading>
<gpsHeading>0.000000</gpsHeading>
<haccuracy>-1.000000</haccuracy>
<vaccuracy>-1.000000</vaccuracy>
<internetconnect>-1</internetconnect>
</trkpt>
<trkpt lat="35.021294" lon="136.458043">
<ele>336.000000</ele>
<time>2026-03-27T18:54:34Z</time>
<speed>0.000000</speed>
<trueHeading>0.000000</trueHeading>
<magneticHeading>0.000000</magneticHeading>
<gpsHeading>0.000000</gpsHeading>
<haccuracy>-1.000000</haccuracy>
<vaccuracy>-1.000000</vaccuracy>
<internetconnect>-1</internetconnect>
</trkpt>
<trkpt lat="35.021329" lon="136.458076">
<ele>333.000000</ele>
<time>2026-03-27T18:54:45Z</time>
<speed>0.000000</speed>
<trueHeading>0.000000</trueHeading>
<magneticHeading>0.000000</magneticHeading>
<gpsHeading>0.000000</gpsHeading>
<haccuracy>-1.000000</haccuracy>
<vaccuracy>-1.000000</vaccuracy>
<internetconnect>-1</internetconnect>
</trkpt>
<trkpt lat="35.021421" lon="136.458097">
<ele>328.000000</ele>
<time>2026-03-27T18:55:09Z</time>
<speed>0.000000</speed>
<trueHeading>0.000000</trueHeading>
<magneticHeading>0.000000</magneticHeading>
<gpsHeading>0.000000</gpsHeading>
<haccuracy>-1.000000</haccuracy>
<vaccuracy>-1.000000</vaccuracy>
<internetconnect>-1</internetconnect>
</trkpt>
<trkpt lat="35.021615" lon="136.458108">
<ele>321.000000</ele>
<time>2026-03-27T18:55:58Z</time>
<speed>0.000000</speed>
<trueHeading>0.000000</trueHeading>
<magneticHeading>0.000000</magneticHeading>
<gpsHeading>0.000000</gpsHeading>
<haccuracy>-1.000000</haccuracy>
<vaccuracy>-1.000000</vaccuracy>
<internetconnect>-1</internetconnect>
</trkpt>
<trkpt lat="35.021790" lon="136.458081">
<ele>318.000000</ele>
<time>2026-03-27T18:56:43Z</time>
<speed>0.000000</speed>
<trueHeading>0.000000</trueHeading>
<magneticHeading>0.000000</magneticHeading>
<gpsHeading>0.000000</gpsHeading>
<haccuracy>-1.000000</haccuracy>
<vaccuracy>-1.000000</vaccuracy>
<internetconnect>-1</internetconnect>
</trkpt>
<trkpt lat="35.021856" lon="136.458067">
<ele>317.000000</ele>
<time>2026-03-27T18:57:00Z</time>
<speed>0.000000</speed>
<trueHeading>0.000000</trueHeading>
<magneticHeading>0.000000</magneticHeading>
<gpsHeading>0.000000</gpsHeading>
<haccuracy>-1.000000</haccuracy>
<vaccuracy>-1.000000</vaccuracy>
<internetconnect>-1</internetconnect>
</trkpt>
<trkpt lat="35.021870" lon="136.458328">
<ele>324.000000</ele>
<time>2026-03-27T18:57:00Z</time>
<speed>0.000000</speed>
<trueHeading>0.000000</trueHeading>
<magneticHeading>0.000000</magneticHeading>
<gpsHeading>0.000000</gpsHeading>
<haccuracy>-1.000000</haccuracy>
<vaccuracy>-1.000000</vaccuracy>
<internetconnect>-1</internetconnect>
</trkpt>
<trkpt lat="35.021870" lon="136.458424">
<ele>325.000000</ele>
<time>2026-03-27T18:57:17Z</time>
<speed>0.000000</speed>
<trueHeading>0.000000</trueHeading>
<magneticHeading>0.000000</magneticHeading>
<gpsHeading>0.000000</gpsHeading>
<haccuracy>-1.000000</haccuracy>
<vaccuracy>-1.000000</vaccuracy>
<internetconnect>-1</internetconnect>
</trkpt>
<trkpt lat="35.021852" lon="136.458526">
<ele>323.000000</ele>
<time>2026-03-27T18:57:35Z</time>
<speed>0.000000</speed>
<trueHeading>0.000000</trueHeading>
<magneticHeading>0.000000</magneticHeading>
<gpsHeading>0.000000</gpsHeading>
<haccuracy>-1.000000</haccuracy>
<vaccuracy>-1.000000</vaccuracy>
<internetconnect>-1</internetconnect>
</trkpt>
<trkpt lat="35.021834" lon="136.458660">
<ele>323.000000</ele>
<time>2026-03-27T18:57:59Z</time>
<speed>0.000000</speed>
<trueHeading>0.000000</trueHeading>
<magneticHeading>0.000000</magneticHeading>
<gpsHeading>0.000000</gpsHeading>
<haccuracy>-1.000000</haccuracy>
<vaccuracy>-1.000000</vaccuracy>
<internetconnect>-1</internetconnect>
</trkpt>
<trkpt lat="35.021892" lon="136.458912">
<ele>324.000000</ele>
<time>2026-03-27T18:58:46Z</time>
<speed>0.000000</speed>
<trueHeading>0.000000</trueHeading>
<magneticHeading>0.000000</magneticHeading>
<gpsHeading>0.000000</gpsHeading>
<haccuracy>-1.000000</haccuracy>
<vaccuracy>-1.000000</vaccuracy>
<internetconnect>-1</internetconnect>
</trkpt>
<trkpt lat="35.021971" lon="136.459143">
<ele>328.000000</ele>
<time>2026-03-27T18:59:31Z</time>
<speed>0.000000</speed>
<trueHeading>0.000000</trueHeading>
<magneticHeading>0.000000</magneticHeading>
<gpsHeading>0.000000</gpsHeading>
<haccuracy>-1.000000</haccuracy>
<vaccuracy>-1.000000</vaccuracy>
<internetconnect>-1</internetconnect>
</trkpt>
<trkpt lat="35.021984" lon="136.459218">
<ele>328.000000</ele>
<time>2026-03-27T18:59:44Z</time>
<speed>0.000000</speed>
<trueHeading>0.000000</trueHeading>
<magneticHeading>0.000000</magneticHeading>
<gpsHeading>0.000000</gpsHeading>
<haccuracy>-1.000000</haccuracy>
<vaccuracy>-1.000000</vaccuracy>
<internetconnect>-1</internetconnect>
</trkpt>
<trkpt lat="35.021997" lon="136.459336">
<ele>328.000000</ele>
<time>2026-03-27T19:00:05Z</time>
<speed>0.000000</speed>
<trueHeading>0.000000</trueHeading>
<magneticHeading>0.000000</magneticHeading>
<gpsHeading>0.000000</gpsHeading>
<haccuracy>-1.000000</haccuracy>
<vaccuracy>-1.000000</vaccuracy>
<internetconnect>-1</internetconnect>
</trkpt>
<trkpt lat="35.021988" lon="136.459449">
<ele>329.000000</ele>
<time>2026-03-27T19:00:26Z</time>
<speed>0.000000</speed>
<trueHeading>0.000000</trueHeading>
<magneticHeading>0.000000</magneticHeading>
<gpsHeading>0.000000</gpsHeading>
<haccuracy>-1.000000</haccuracy>
<vaccuracy>-1.000000</vaccuracy>
<internetconnect>-1</internetconnect>
</trkpt>
<trkpt lat="35.021962" lon="136.459562">
<ele>333.000000</ele>
<time>2026-03-27T19:00:46Z</time>
<speed>0.000000</speed>
<trueHeading>0.000000</trueHeading>
<magneticHeading>0.000000</magneticHeading>
<gpsHeading>0.000000</gpsHeading>
<haccuracy>-1.000000</haccuracy>
<vaccuracy>-1.000000</vaccuracy>
<internetconnect>-1</internetconnect>
</trkpt>
<trkpt lat="35.021935" lon="136.459615">
<ele>332.000000</ele>
<time>2026-03-27T19:00:58Z</time>
<speed>0.000000</speed>
<trueHeading>0.000000</trueHeading>
<magneticHeading>0.000000</magneticHeading>
<gpsHeading>0.000000</gpsHeading>
<haccuracy>-1.000000</haccuracy>
<vaccuracy>-1.000000</vaccuracy>
<internetconnect>-1</internetconnect>
</trkpt>
<trkpt lat="35.021909" lon="136.459637">
<ele>332.000000</ele>
<time>2026-03-27T19:01:04Z</time>
<speed>0.000000</speed>
<trueHeading>0.000000</trueHeading>
<magneticHeading>0.000000</magneticHeading>
<gpsHeading>0.000000</gpsHeading>
<haccuracy>-1.000000</haccuracy>
<vaccuracy>-1.000000</vaccuracy>
<internetconnect>-1</internetconnect>
</trkpt>
<trkpt lat="35.021865" lon="136.459637">
<ele>333.000000</ele>
<time>2026-03-27T19:01:14Z</time>
<speed>0.000000</speed>
<trueHeading>0.000000</trueHeading>
<magneticHeading>0.000000</magneticHeading>
<gpsHeading>0.000000</gpsHeading>
<haccuracy>-1.000000</haccuracy>
<vaccuracy>-1.000000</vaccuracy>
<internetconnect>-1</internetconnect>
</trkpt>
<trkpt lat="35.021808" lon="136.459621">
<ele>334.000000</ele>
<time>2026-03-27T19:01:27Z</time>
<speed>0.000000</speed>
<trueHeading>0.000000</trueHeading>
<magneticHeading>0.000000</magneticHeading>
<gpsHeading>0.000000</gpsHeading>
<haccuracy>-1.000000</haccuracy>
<vaccuracy>-1.000000</vaccuracy>
<internetconnect>-1</internetconnect>
</trkpt>
<trkpt lat="35.021768" lon="136.459621">
<ele>334.000000</ele>
<time>2026-03-27T19:01:35Z</time>
<speed>0.000000</speed>
<trueHeading>0.000000</trueHeading>
<magneticHeading>0.000000</magneticHeading>
<gpsHeading>0.000000</gpsHeading>
<haccuracy>-1.000000</haccuracy>
<vaccuracy>-1.000000</vaccuracy>
<internetconnect>-1</internetconnect>
</trkpt>
<trkpt lat="35.021720" lon="136.459626">
<ele>333.000000</ele>
<time>2026-03-27T19:01:46Z</time>
<speed>0.000000</speed>
<trueHeading>0.000000</trueHeading>
<magneticHeading>0.000000</magneticHeading>
<gpsHeading>0.000000</gpsHeading>
<haccuracy>-1.000000</haccuracy>
<vaccuracy>-1.000000</vaccuracy>
<internetconnect>-1</internetconnect>
</trkpt>
<trkpt lat="35.021676" lon="136.459626">
<ele>332.000000</ele>
<time>2026-03-27T19:01:55Z</time>
<speed>0.000000</speed>
<trueHeading>0.000000</trueHeading>
<magneticHeading>0.000000</magneticHeading>
<gpsHeading>0.000000</gpsHeading>
<haccuracy>-1.000000</haccuracy>
<vaccuracy>-1.000000</vaccuracy>
<internetconnect>-1</internetconnect>
</trkpt>
<trkpt lat="35.021575" lon="136.459621">
<ele>328.000000</ele>
<time>2026-03-27T19:02:17Z</time>
<speed>0.000000</speed>
<trueHeading>0.000000</trueHeading>
<magneticHeading>0.000000</magneticHeading>
<gpsHeading>0.000000</gpsHeading>
<haccuracy>-1.000000</haccuracy>
<vaccuracy>-1.000000</vaccuracy>
<internetconnect>-1</internetconnect>
</trkpt>
<trkpt lat="35.021531" lon="136.459621">
<ele>326.000000</ele>
<time>2026-03-27T19:02:27Z</time>
<speed>0.000000</speed>
<trueHeading>0.000000</trueHeading>
<magneticHeading>0.000000</magneticHeading>
<gpsHeading>0.000000</gpsHeading>
<haccuracy>-1.000000</haccuracy>
<vaccuracy>-1.000000</vaccuracy>
<internetconnect>-1</internetconnect>
</trkpt>
<trkpt lat="35.021479" lon="136.459631">
<ele>326.000000</ele>
<time>2026-03-27T19:02:38Z</time>
<speed>0.000000</speed>
<trueHeading>0.000000</trueHeading>
<magneticHeading>0.000000</magneticHeading>
<gpsHeading>0.000000</gpsHeading>
<haccuracy>-1.000000</haccuracy>
<vaccuracy>-1.000000</vaccuracy>
<internetconnect>-1</internetconnect>
</trkpt>
<trkpt lat="35.021426" lon="136.459658">
<ele>325.000000</ele>
<time>2026-03-27T19:02:51Z</time>
<speed>0.000000</speed>
<trueHeading>0.000000</trueHeading>
<magneticHeading>0.000000</magneticHeading>
<gpsHeading>0.000000</gpsHeading>
<haccuracy>-1.000000</haccuracy>
<vaccuracy>-1.000000</vaccuracy>
<internetconnect>-1</internetconnect>
</trkpt>
<trkpt lat="35.021356" lon="136.459701">
<ele>326.000000</ele>
<time>2026-03-27T19:03:08Z</time>
<speed>0.000000</speed>
<trueHeading>0.000000</trueHeading>
<magneticHeading>0.000000</magneticHeading>
<gpsHeading>0.000000</gpsHeading>
<haccuracy>-1.000000</haccuracy>
<vaccuracy>-1.000000</vaccuracy>
<internetconnect>-1</internetconnect>
</trkpt>
<trkpt lat="35.021320" lon="136.459760">
<ele>324.000000</ele>
<time>2026-03-27T19:03:21Z</time>
<speed>0.000000</speed>
<trueHeading>0.000000</trueHeading>
<magneticHeading>0.000000</magneticHeading>
<gpsHeading>0.000000</gpsHeading>
<haccuracy>-1.000000</haccuracy>
<vaccuracy>-1.000000</vaccuracy>
<internetconnect>-1</internetconnect>
</trkpt>
<trkpt lat="35.021281" lon="136.459819">
<ele>323.000000</ele>
<time>2026-03-27T19:03:34Z</time>
<speed>0.000000</speed>
<trueHeading>0.000000</trueHeading>
<magneticHeading>0.000000</magneticHeading>
<gpsHeading>0.000000</gpsHeading>
<haccuracy>-1.000000</haccuracy>
<vaccuracy>-1.000000</vaccuracy>
<internetconnect>-1</internetconnect>
</trkpt>
<trkpt lat="35.021215" lon="136.459900">
<ele>321.000000</ele>
<time>2026-03-27T19:03:54Z</time>
<speed>0.000000</speed>
<trueHeading>0.000000</trueHeading>
<magneticHeading>0.000000</magneticHeading>
<gpsHeading>0.000000</gpsHeading>
<haccuracy>-1.000000</haccuracy>
<vaccuracy>-1.000000</vaccuracy>
<internetconnect>-1</internetconnect>
</trkpt>
<trkpt lat="35.021066" lon="136.460012">
<ele>322.000000</ele>
<time>2026-03-27T19:04:32Z</time>
<speed>0.000000</speed>
<trueHeading>0.000000</trueHeading>
<magneticHeading>0.000000</magneticHeading>
<gpsHeading>0.000000</gpsHeading>
<haccuracy>-1.000000</haccuracy>
<vaccuracy>-1.000000</vaccuracy>
<internetconnect>-1</internetconnect>
</trkpt>
<trkpt lat="35.020956" lon="136.460077">
<ele>324.000000</ele>
<time>2026-03-27T19:04:59Z</time>
<speed>0.000000</speed>
<trueHeading>0.000000</trueHeading>
<magneticHeading>0.000000</magneticHeading>
<gpsHeading>0.000000</gpsHeading>
<haccuracy>-1.000000</haccuracy>
<vaccuracy>-1.000000</vaccuracy>
<internetconnect>-1</internetconnect>
</trkpt>
<trkpt lat="35.020899" lon="136.460109">
<ele>322.000000</ele>
<time>2026-03-27T19:05:12Z</time>
<speed>0.000000</speed>
<trueHeading>0.000000</trueHeading>
<magneticHeading>0.000000</magneticHeading>
<gpsHeading>0.000000</gpsHeading>
<haccuracy>-1.000000</haccuracy>
<vaccuracy>-1.000000</vaccuracy>
<internetconnect>-1</internetconnect>
</trkpt>
<trkpt lat="35.020833" lon="136.460141">
<ele>324.000000</ele>
<time>2026-03-27T19:05:28Z</time>
<speed>0.000000</speed>
<trueHeading>0.000000</trueHeading>
<magneticHeading>0.000000</magneticHeading>
<gpsHeading>0.000000</gpsHeading>
<haccuracy>-1.000000</haccuracy>
<vaccuracy>-1.000000</vaccuracy>
<internetconnect>-1</internetconnect>
</trkpt>
<trkpt lat="35.020793" lon="136.460168">
<ele>324.000000</ele>
<time>2026-03-27T19:05:38Z</time>
<speed>0.000000</speed>
<trueHeading>0.000000</trueHeading>
<magneticHeading>0.000000</magneticHeading>
<gpsHeading>0.000000</gpsHeading>
<haccuracy>-1.000000</haccuracy>
<vaccuracy>-1.000000</vaccuracy>
<internetconnect>-1</internetconnect>
</trkpt>
<trkpt lat="35.020754" lon="136.460227">
<ele>329.000000</ele>
<time>2026-03-27T19:05:51Z</time>
<speed>0.000000</speed>
<trueHeading>0.000000</trueHeading>
<magneticHeading>0.000000</magneticHeading>
<gpsHeading>0.000000</gpsHeading>
<haccuracy>-1.000000</haccuracy>
<vaccuracy>-1.000000</vaccuracy>
<internetconnect>-1</internetconnect>
</trkpt>
<trkpt lat="35.020719" lon="136.460307">
<ele>332.000000</ele>
<time>2026-03-27T19:06:07Z</time>
<speed>0.000000</speed>
<trueHeading>0.000000</trueHeading>
<magneticHeading>0.000000</magneticHeading>
<gpsHeading>0.000000</gpsHeading>
<haccuracy>-1.000000</haccuracy>
<vaccuracy>-1.000000</vaccuracy>
<internetconnect>-1</internetconnect>
</trkpt>
<trkpt lat="35.020692" lon="136.460388">
<ele>334.000000</ele>
<time>2026-03-27T19:06:23Z</time>
<speed>0.000000</speed>
<trueHeading>0.000000</trueHeading>
<magneticHeading>0.000000</magneticHeading>
<gpsHeading>0.000000</gpsHeading>
<haccuracy>-1.000000</haccuracy>
<vaccuracy>-1.000000</vaccuracy>
<internetconnect>-1</internetconnect>
</trkpt>
<trkpt lat="35.020679" lon="136.460441">
<ele>335.000000</ele>
<time>2026-03-27T19:06:33Z</time>
<speed>0.000000</speed>
<trueHeading>0.000000</trueHeading>
<magneticHeading>0.000000</magneticHeading>
<gpsHeading>0.000000</gpsHeading>
<haccuracy>-1.000000</haccuracy>
<vaccuracy>-1.000000</vaccuracy>
<internetconnect>-1</internetconnect>
</trkpt>
<trkpt lat="35.020666" lon="136.460543">
<ele>334.000000</ele>
<time>2026-03-27T19:06:51Z</time>
<speed>0.000000</speed>
<trueHeading>0.000000</trueHeading>
<magneticHeading>0.000000</magneticHeading>
<gpsHeading>0.000000</gpsHeading>
<haccuracy>-1.000000</haccuracy>
<vaccuracy>-1.000000</vaccuracy>
<internetconnect>-1</internetconnect>
</trkpt>
<trkpt lat="35.020657" lon="136.460618">
<ele>334.000000</ele>
<time>2026-03-27T19:07:05Z</time>
<speed>0.000000</speed>
<trueHeading>0.000000</trueHeading>
<magneticHeading>0.000000</magneticHeading>
<gpsHeading>0.000000</gpsHeading>
<haccuracy>-1.000000</haccuracy>
<vaccuracy>-1.000000</vaccuracy>
<internetconnect>-1</internetconnect>
</trkpt>
<trkpt lat="35.020644" lon="136.460688">
<ele>333.000000</ele>
<time>2026-03-27T19:07:17Z</time>
<speed>0.000000</speed>
<trueHeading>0.000000</trueHeading>
<magneticHeading>0.000000</magneticHeading>
<gpsHeading>0.000000</gpsHeading>
<haccuracy>-1.000000</haccuracy>
<vaccuracy>-1.000000</vaccuracy>
<internetconnect>-1</internetconnect>
</trkpt>
<trkpt lat="35.020617" lon="136.460779">
<ele>335.000000</ele>
<time>2026-03-27T19:07:35Z</time>
<speed>0.000000</speed>
<trueHeading>0.000000</trueHeading>
<magneticHeading>0.000000</magneticHeading>
<gpsHeading>0.000000</gpsHeading>
<haccuracy>-1.000000</haccuracy>
<vaccuracy>-1.000000</vaccuracy>
<internetconnect>-1</internetconnect>
</trkpt>
<trkpt lat="35.020596" lon="136.460844">
<ele>336.000000</ele>
<time>2026-03-27T19:07:47Z</time>
<speed>0.000000</speed>
<trueHeading>0.000000</trueHeading>
<magneticHeading>0.000000</magneticHeading>
<gpsHeading>0.000000</gpsHeading>
<haccuracy>-1.000000</haccuracy>
<vaccuracy>-1.000000</vaccuracy>
<internetconnect>-1</internetconnect>
</trkpt>
<trkpt lat="35.020582" lon="136.460881">
<ele>336.000000</ele>
<time>2026-03-27T19:07:54Z</time>
<speed>0.000000</speed>
<trueHeading>0.000000</trueHeading>
<magneticHeading>0.000000</magneticHeading>
<gpsHeading>0.000000</gpsHeading>
<haccuracy>-1.000000</haccuracy>
<vaccuracy>-1.000000</vaccuracy>
<internetconnect>-1</internetconnect>
</trkpt>
<trkpt lat="35.020569" lon="136.460951">
<ele>338.000000</ele>
<time>2026-03-27T19:08:07Z</time>
<speed>0.000000</speed>
<trueHeading>0.000000</trueHeading>
<magneticHeading>0.000000</magneticHeading>
<gpsHeading>0.000000</gpsHeading>
<haccuracy>-1.000000</haccuracy>
<vaccuracy>-1.000000</vaccuracy>
<internetconnect>-1</internetconnect>
</trkpt>
<trkpt lat="35.020560" lon="136.460989">
<ele>340.000000</ele>
<time>2026-03-27T19:08:14Z</time>
<speed>0.000000</speed>
<trueHeading>0.000000</trueHeading>
<magneticHeading>0.000000</magneticHeading>
<gpsHeading>0.000000</gpsHeading>
<haccuracy>-1.000000</haccuracy>
<vaccuracy>-1.000000</vaccuracy>
<internetconnect>-1</internetconnect>
</trkpt>
<trkpt lat="35.020547" lon="136.461021">
<ele>341.000000</ele>
<time>2026-03-27T19:08:20Z</time>
<speed>0.000000</speed>
<trueHeading>0.000000</trueHeading>
<magneticHeading>0.000000</magneticHeading>
<gpsHeading>0.000000</gpsHeading>
<haccuracy>-1.000000</haccuracy>
<vaccuracy>-1.000000</vaccuracy>
<internetconnect>-1</internetconnect>
</trkpt>
<trkpt lat="35.020525" lon="136.461048">
<ele>341.000000</ele>
<time>2026-03-27T19:08:27Z</time>
<speed>0.000000</speed>
<trueHeading>0.000000</trueHeading>
<magneticHeading>0.000000</magneticHeading>
<gpsHeading>0.000000</gpsHeading>
<haccuracy>-1.000000</haccuracy>
<vaccuracy>-1.000000</vaccuracy>
<internetconnect>-1</internetconnect>
</trkpt>
<trkpt lat="35.020433" lon="136.461096">
<ele>340.000000</ele>
<time>2026-03-27T19:08:49Z</time>
<speed>0.000000</speed>
<trueHeading>0.000000</trueHeading>
<magneticHeading>0.000000</magneticHeading>
<gpsHeading>0.000000</gpsHeading>
<haccuracy>-1.000000</haccuracy>
<vaccuracy>-1.000000</vaccuracy>
<internetconnect>-1</internetconnect>
</trkpt>
<trkpt lat="35.020363" lon="136.461133">
<ele>338.000000</ele>
<time>2026-03-27T19:09:06Z</time>
<speed>0.000000</speed>
<trueHeading>0.000000</trueHeading>
<magneticHeading>0.000000</magneticHeading>
<gpsHeading>0.000000</gpsHeading>
<haccuracy>-1.000000</haccuracy>
<vaccuracy>-1.000000</vaccuracy>
<internetconnect>-1</internetconnect>
</trkpt>
<trkpt lat="35.020288" lon="136.461187">
<ele>338.000000</ele>
<time>2026-03-27T19:09:24Z</time>
<speed>0.000000</speed>
<trueHeading>0.000000</trueHeading>
<magneticHeading>0.000000</magneticHeading>
<gpsHeading>0.000000</gpsHeading>
<haccuracy>-1.000000</haccuracy>
<vaccuracy>-1.000000</vaccuracy>
<internetconnect>-1</internetconnect>
</trkpt>
<trkpt lat="35.020240" lon="136.461284">
<ele>338.000000</ele>
<time>2026-03-27T19:09:45Z</time>
<speed>0.000000</speed>
<trueHeading>0.000000</trueHeading>
<magneticHeading>0.000000</magneticHeading>
<gpsHeading>0.000000</gpsHeading>
<haccuracy>-1.000000</haccuracy>
<vaccuracy>-1.000000</vaccuracy>
<internetconnect>-1</internetconnect>
</trkpt>
<trkpt lat="35.020222" lon="136.461332">
<ele>337.000000</ele>
<time>2026-03-27T19:09:54Z</time>
<speed>0.000000</speed>
<trueHeading>0.000000</trueHeading>
<magneticHeading>0.000000</magneticHeading>
<gpsHeading>0.000000</gpsHeading>
<haccuracy>-1.000000</haccuracy>
<vaccuracy>-1.000000</vaccuracy>
<internetconnect>-1</internetconnect>
</trkpt>
<trkpt lat="35.020205" lon="136.461423">
<ele>337.000000</ele>
<time>2026-03-27T19:10:11Z</time>
<speed>0.000000</speed>
<trueHeading>0.000000</trueHeading>
<magneticHeading>0.000000</magneticHeading>
<gpsHeading>0.000000</gpsHeading>
<haccuracy>-1.000000</haccuracy>
<vaccuracy>-1.000000</vaccuracy>
<internetconnect>-1</internetconnect>
</trkpt>
<trkpt lat="35.020200" lon="136.461498">
<ele>339.000000</ele>
<time>2026-03-27T19:10:24Z</time>
<speed>0.000000</speed>
<trueHeading>0.000000</trueHeading>
<magneticHeading>0.000000</magneticHeading>
<gpsHeading>0.000000</gpsHeading>
<haccuracy>-1.000000</haccuracy>
<vaccuracy>-1.000000</vaccuracy>
<internetconnect>-1</internetconnect>
</trkpt>
<trkpt lat="35.020196" lon="136.461568">
<ele>340.000000</ele>
<time>2026-03-27T19:10:36Z</time>
<speed>0.000000</speed>
<trueHeading>0.000000</trueHeading>
<magneticHeading>0.000000</magneticHeading>
<gpsHeading>0.000000</gpsHeading>
<haccuracy>-1.000000</haccuracy>
<vaccuracy>-1.000000</vaccuracy>
<internetconnect>-1</internetconnect>
</trkpt>
<trkpt lat="35.020174" lon="136.461723">
<ele>342.000000</ele>
<time>2026-03-27T19:11:05Z</time>
<speed>0.000000</speed>
<trueHeading>0.000000</trueHeading>
<magneticHeading>0.000000</magneticHeading>
<gpsHeading>0.000000</gpsHeading>
<haccuracy>-1.000000</haccuracy>
<vaccuracy>-1.000000</vaccuracy>
<internetconnect>-1</internetconnect>
</trkpt>
<trkpt lat="35.020152" lon="136.461756">
<ele>345.000000</ele>
<time>2026-03-27T19:11:12Z</time>
<speed>0.000000</speed>
<trueHeading>0.000000</trueHeading>
<magneticHeading>0.000000</magneticHeading>
<gpsHeading>0.000000</gpsHeading>
<haccuracy>-1.000000</haccuracy>
<vaccuracy>-1.000000</vaccuracy>
<internetconnect>-1</internetconnect>
</trkpt>
<trkpt lat="35.020112" lon="136.461874">
<ele>348.000000</ele>
<time>2026-03-27T19:11:35Z</time>
<speed>0.000000</speed>
<trueHeading>0.000000</trueHeading>
<magneticHeading>0.000000</magneticHeading>
<gpsHeading>0.000000</gpsHeading>
<haccuracy>-1.000000</haccuracy>
<vaccuracy>-1.000000</vaccuracy>
<internetconnect>-1</internetconnect>
</trkpt>
<trkpt lat="35.020103" lon="136.461943">
<ele>349.000000</ele>
<time>2026-03-27T19:11:47Z</time>
<speed>0.000000</speed>
<trueHeading>0.000000</trueHeading>
<magneticHeading>0.000000</magneticHeading>
<gpsHeading>0.000000</gpsHeading>
<haccuracy>-1.000000</haccuracy>
<vaccuracy>-1.000000</vaccuracy>
<internetconnect>-1</internetconnect>
</trkpt>
<trkpt lat="35.020103" lon="136.462051">
<ele>352.000000</ele>
<time>2026-03-27T19:12:06Z</time>
<speed>0.000000</speed>
<trueHeading>0.000000</trueHeading>
<magneticHeading>0.000000</magneticHeading>
<gpsHeading>0.000000</gpsHeading>
<haccuracy>-1.000000</haccuracy>
<vaccuracy>-1.000000</vaccuracy>
<internetconnect>-1</internetconnect>
</trkpt>
<trkpt lat="35.020139" lon="136.462201">
<ele>354.000000</ele>
<time>2026-03-27T19:12:34Z</time>
<speed>0.000000</speed>
<trueHeading>0.000000</trueHeading>
<magneticHeading>0.000000</magneticHeading>
<gpsHeading>0.000000</gpsHeading>
<haccuracy>-1.000000</haccuracy>
<vaccuracy>-1.000000</vaccuracy>
<internetconnect>-1</internetconnect>
</trkpt>
<trkpt lat="35.020165" lon="136.462324">
<ele>356.000000</ele>
<time>2026-03-27T19:12:57Z</time>
<speed>0.000000</speed>
<trueHeading>0.000000</trueHeading>
<magneticHeading>0.000000</magneticHeading>
<gpsHeading>0.000000</gpsHeading>
<haccuracy>-1.000000</haccuracy>
<vaccuracy>-1.000000</vaccuracy>
<internetconnect>-1</internetconnect>
</trkpt>
<trkpt lat="35.020191" lon="136.462442">
<ele>356.000000</ele>
<time>2026-03-27T19:13:19Z</time>
<speed>0.000000</speed>
<trueHeading>0.000000</trueHeading>
<magneticHeading>0.000000</magneticHeading>
<gpsHeading>0.000000</gpsHeading>
<haccuracy>-1.000000</haccuracy>
<vaccuracy>-1.000000</vaccuracy>
<internetconnect>-1</internetconnect>
</trkpt>
<trkpt lat="35.020231" lon="136.462614">
<ele>355.000000</ele>
<time>2026-03-27T19:13:50Z</time>
<speed>0.000000</speed>
<trueHeading>0.000000</trueHeading>
<magneticHeading>0.000000</magneticHeading>
<gpsHeading>0.000000</gpsHeading>
<haccuracy>-1.000000</haccuracy>
<vaccuracy>-1.000000</vaccuracy>
<internetconnect>-1</internetconnect>
</trkpt>
<trkpt lat="35.020231" lon="136.462700">
<ele>356.000000</ele>
<time>2026-03-27T19:14:06Z</time>
<speed>0.000000</speed>
<trueHeading>0.000000</trueHeading>
<magneticHeading>0.000000</magneticHeading>
<gpsHeading>0.000000</gpsHeading>
<haccuracy>-1.000000</haccuracy>
<vaccuracy>-1.000000</vaccuracy>
<internetconnect>-1</internetconnect>
</trkpt>
<trkpt lat="35.020227" lon="136.462770">
<ele>356.000000</ele>
<time>2026-03-27T19:14:18Z</time>
<speed>0.000000</speed>
<trueHeading>0.000000</trueHeading>
<magneticHeading>0.000000</magneticHeading>
<gpsHeading>0.000000</gpsHeading>
<haccuracy>-1.000000</haccuracy>
<vaccuracy>-1.000000</vaccuracy>
<internetconnect>-1</internetconnect>
</trkpt>
<trkpt lat="35.020227" lon="136.462871">
<ele>360.000000</ele>
<time>2026-03-27T19:14:36Z</time>
<speed>0.000000</speed>
<trueHeading>0.000000</trueHeading>
<magneticHeading>0.000000</magneticHeading>
<gpsHeading>0.000000</gpsHeading>
<haccuracy>-1.000000</haccuracy>
<vaccuracy>-1.000000</vaccuracy>
<internetconnect>-1</internetconnect>
</trkpt>
<trkpt lat="35.020248" lon="136.462936">
<ele>361.000000</ele>
<time>2026-03-27T19:14:49Z</time>
<speed>0.000000</speed>
<trueHeading>0.000000</trueHeading>
<magneticHeading>0.000000</magneticHeading>
<gpsHeading>0.000000</gpsHeading>
<haccuracy>-1.000000</haccuracy>
<vaccuracy>-1.000000</vaccuracy>
<internetconnect>-1</internetconnect>
</trkpt>
<trkpt lat="35.020284" lon="136.463000">
<ele>364.000000</ele>
<time>2026-03-27T19:15:03Z</time>
<speed>0.000000</speed>
<trueHeading>0.000000</trueHeading>
<magneticHeading>0.000000</magneticHeading>
<gpsHeading>0.000000</gpsHeading>
<haccuracy>-1.000000</haccuracy>
<vaccuracy>-1.000000</vaccuracy>
<internetconnect>-1</internetconnect>
</trkpt>
<trkpt lat="35.020319" lon="136.463129">
<ele>365.000000</ele>
<time>2026-03-27T19:15:27Z</time>
<speed>0.000000</speed>
<trueHeading>0.000000</trueHeading>
<magneticHeading>0.000000</magneticHeading>
<gpsHeading>0.000000</gpsHeading>
<haccuracy>-1.000000</haccuracy>
<vaccuracy>-1.000000</vaccuracy>
<internetconnect>-1</internetconnect>
</trkpt>
<trkpt lat="35.020275" lon="136.463166">
<ele>366.000000</ele>
<time>2026-03-27T19:15:38Z</time>
<speed>0.000000</speed>
<trueHeading>0.000000</trueHeading>
<magneticHeading>0.000000</magneticHeading>
<gpsHeading>0.000000</gpsHeading>
<haccuracy>-1.000000</haccuracy>
<vaccuracy>-1.000000</vaccuracy>
<internetconnect>-1</internetconnect>
</trkpt>
<trkpt lat="35.020196" lon="136.463236">
<ele>368.000000</ele>
<time>2026-03-27T19:16:00Z</time>
<speed>0.000000</speed>
<trueHeading>0.000000</trueHeading>
<magneticHeading>0.000000</magneticHeading>
<gpsHeading>0.000000</gpsHeading>
<haccuracy>-1.000000</haccuracy>
<vaccuracy>-1.000000</vaccuracy>
<internetconnect>-1</internetconnect>
</trkpt>
<trkpt lat="35.020288" lon="136.463196">
<ele>369.000000</ele>
<time>2026-03-27T19:16:00Z</time>
<speed>0.000000</speed>
<trueHeading>0.000000</trueHeading>
<magneticHeading>0.000000</magneticHeading>
<gpsHeading>0.000000</gpsHeading>
<haccuracy>-1.000000</haccuracy>
<vaccuracy>-1.000000</vaccuracy>
<internetconnect>-1</internetconnect>
</trkpt>
<trkpt lat="35.020387" lon="136.463188">
<ele>366.000000</ele>
<time>2026-03-27T19:16:13Z</time>
<speed>0.000000</speed>
<trueHeading>0.000000</trueHeading>
<magneticHeading>0.000000</magneticHeading>
<gpsHeading>0.000000</gpsHeading>
<haccuracy>-1.000000</haccuracy>
<vaccuracy>-1.000000</vaccuracy>
<internetconnect>-1</internetconnect>
</trkpt>
<trkpt lat="35.020479" lon="136.463188">
<ele>365.000000</ele>
<time>2026-03-27T19:16:25Z</time>
<speed>0.000000</speed>
<trueHeading>0.000000</trueHeading>
<magneticHeading>0.000000</magneticHeading>
<gpsHeading>0.000000</gpsHeading>
<haccuracy>-1.000000</haccuracy>
<vaccuracy>-1.000000</vaccuracy>
<internetconnect>-1</internetconnect>
</trkpt>
<trkpt lat="35.020572" lon="136.463188">
<ele>364.000000</ele>
<time>2026-03-27T19:16:38Z</time>
<speed>0.000000</speed>
<trueHeading>0.000000</trueHeading>
<magneticHeading>0.000000</magneticHeading>
<gpsHeading>0.000000</gpsHeading>
<haccuracy>-1.000000</haccuracy>
<vaccuracy>-1.000000</vaccuracy>
<internetconnect>-1</internetconnect>
</trkpt>
<trkpt lat="35.020664" lon="136.463228">
<ele>362.000000</ele>
<time>2026-03-27T19:16:51Z</time>
<speed>0.000000</speed>
<trueHeading>0.000000</trueHeading>
<magneticHeading>0.000000</magneticHeading>
<gpsHeading>0.000000</gpsHeading>
<haccuracy>-1.000000</haccuracy>
<vaccuracy>-1.000000</vaccuracy>
<internetconnect>-1</internetconnect>
</trkpt>
<trkpt lat="35.020717" lon="136.463325">
<ele>361.000000</ele>
<time>2026-03-27T19:17:04Z</time>
<speed>0.000000</speed>
<trueHeading>0.000000</trueHeading>
<magneticHeading>0.000000</magneticHeading>
<gpsHeading>0.000000</gpsHeading>
<haccuracy>-1.000000</haccuracy>
<vaccuracy>-1.000000</vaccuracy>
<internetconnect>-1</internetconnect>
</trkpt>
<trkpt lat="35.020802" lon="136.463381">
<ele>354.000000</ele>
<time>2026-03-27T19:17:17Z</time>
<speed>0.000000</speed>
<trueHeading>0.000000</trueHeading>
<magneticHeading>0.000000</magneticHeading>
<gpsHeading>0.000000</gpsHeading>
<haccuracy>-1.000000</haccuracy>
<vaccuracy>-1.000000</vaccuracy>
<internetconnect>-1</internetconnect>
</trkpt>
<trkpt lat="35.020895" lon="136.463430">
<ele>347.000000</ele>
<time>2026-03-27T19:17:31Z</time>
<speed>0.000000</speed>
<trueHeading>0.000000</trueHeading>
<magneticHeading>0.000000</magneticHeading>
<gpsHeading>0.000000</gpsHeading>
<haccuracy>-1.000000</haccuracy>
<vaccuracy>-1.000000</vaccuracy>
<internetconnect>-1</internetconnect>
</trkpt>
<trkpt lat="35.020987" lon="136.463446">
<ele>343.000000</ele>
<time>2026-03-27T19:17:43Z</time>
<speed>0.000000</speed>
<trueHeading>0.000000</trueHeading>
<magneticHeading>0.000000</magneticHeading>
<gpsHeading>0.000000</gpsHeading>
<haccuracy>-1.000000</haccuracy>
<vaccuracy>-1.000000</vaccuracy>
<internetconnect>-1</internetconnect>
</trkpt>
<trkpt lat="35.021079" lon="136.463446">
<ele>335.000000</ele>
<time>2026-03-27T19:17:56Z</time>
<speed>0.000000</speed>
<trueHeading>0.000000</trueHeading>
<magneticHeading>0.000000</magneticHeading>
<gpsHeading>0.000000</gpsHeading>
<haccuracy>-1.000000</haccuracy>
<vaccuracy>-1.000000</vaccuracy>
<internetconnect>-1</internetconnect>
</trkpt>
<trkpt lat="35.021158" lon="136.463381">
<ele>332.000000</ele>
<time>2026-03-27T19:18:08Z</time>
<speed>0.000000</speed>
<trueHeading>0.000000</trueHeading>
<magneticHeading>0.000000</magneticHeading>
<gpsHeading>0.000000</gpsHeading>
<haccuracy>-1.000000</haccuracy>
<vaccuracy>-1.000000</vaccuracy>
<internetconnect>-1</internetconnect>
</trkpt>
<trkpt lat="35.021205" lon="136.463284">
<ele>332.000000</ele>
<time>2026-03-27T19:18:21Z</time>
<speed>0.000000</speed>
<trueHeading>0.000000</trueHeading>
<magneticHeading>0.000000</magneticHeading>
<gpsHeading>0.000000</gpsHeading>
<haccuracy>-1.000000</haccuracy>
<vaccuracy>-1.000000</vaccuracy>
<internetconnect>-1</internetconnect>
</trkpt>
<trkpt lat="35.021277" lon="136.463196">
<ele>326.000000</ele>
<time>2026-03-27T19:18:35Z</time>
<speed>0.000000</speed>
<trueHeading>0.000000</trueHeading>
<magneticHeading>0.000000</magneticHeading>
<gpsHeading>0.000000</gpsHeading>
<haccuracy>-1.000000</haccuracy>
<vaccuracy>-1.000000</vaccuracy>
<internetconnect>-1</internetconnect>
</trkpt>
<trkpt lat="35.021317" lon="136.463091">
<ele>318.000000</ele>
<time>2026-03-27T19:18:47Z</time>
<speed>0.000000</speed>
<trueHeading>0.000000</trueHeading>
<magneticHeading>0.000000</magneticHeading>
<gpsHeading>0.000000</gpsHeading>
<haccuracy>-1.000000</haccuracy>
<vaccuracy>-1.000000</vaccuracy>
<internetconnect>-1</internetconnect>
</trkpt>
<trkpt lat="35.021376" lon="136.463003">
<ele>310.000000</ele>
<time>2026-03-27T19:19:00Z</time>
<speed>0.000000</speed>
<trueHeading>0.000000</trueHeading>
<magneticHeading>0.000000</magneticHeading>
<gpsHeading>0.000000</gpsHeading>
<haccuracy>-1.000000</haccuracy>
<vaccuracy>-1.000000</vaccuracy>
<internetconnect>-1</internetconnect>
</trkpt>
<trkpt lat="35.021442" lon="136.462914">
<ele>304.000000</ele>
<time>2026-03-27T19:19:13Z</time>
<speed>0.000000</speed>
<trueHeading>0.000000</trueHeading>
<magneticHeading>0.000000</magneticHeading>
<gpsHeading>0.000000</gpsHeading>
<haccuracy>-1.000000</haccuracy>
<vaccuracy>-1.000000</vaccuracy>
<internetconnect>-1</internetconnect>
</trkpt>
<trkpt lat="35.021528" lon="136.462858">
<ele>298.000000</ele>
<time>2026-03-27T19:19:26Z</time>
<speed>0.000000</speed>
<trueHeading>0.000000</trueHeading>
<magneticHeading>0.000000</magneticHeading>
<gpsHeading>0.000000</gpsHeading>
<haccuracy>-1.000000</haccuracy>
<vaccuracy>-1.000000</vaccuracy>
<internetconnect>-1</internetconnect>
</trkpt>
<trkpt lat="35.021613" lon="136.462810">
<ele>295.000000</ele>
<time>2026-03-27T19:19:39Z</time>
<speed>0.000000</speed>
<trueHeading>0.000000</trueHeading>
<magneticHeading>0.000000</magneticHeading>
<gpsHeading>0.000000</gpsHeading>
<haccuracy>-1.000000</haccuracy>
<vaccuracy>-1.000000</vaccuracy>
<internetconnect>-1</internetconnect>
</trkpt>
<trkpt lat="35.021692" lon="136.462737">
<ele>292.000000</ele>
<time>2026-03-27T19:19:52Z</time>
<speed>0.000000</speed>
<trueHeading>0.000000</trueHeading>
<magneticHeading>0.000000</magneticHeading>
<gpsHeading>0.000000</gpsHeading>
<haccuracy>-1.000000</haccuracy>
<vaccuracy>-1.000000</vaccuracy>
<internetconnect>-1</internetconnect>
</trkpt>
<trkpt lat="35.021745" lon="136.462640">
<ele>288.000000</ele>
<time>2026-03-27T19:20:05Z</time>
<speed>0.000000</speed>
<trueHeading>0.000000</trueHeading>
<magneticHeading>0.000000</magneticHeading>
<gpsHeading>0.000000</gpsHeading>
<haccuracy>-1.000000</haccuracy>
<vaccuracy>-1.000000</vaccuracy>
<internetconnect>-1</internetconnect>
</trkpt>
<trkpt lat="35.021825" lon="136.462568">
<ele>286.000000</ele>
<time>2026-03-27T19:20:19Z</time>
<speed>0.000000</speed>
<trueHeading>0.000000</trueHeading>
<magneticHeading>0.000000</magneticHeading>
<gpsHeading>0.000000</gpsHeading>
<haccuracy>-1.000000</haccuracy>
<vaccuracy>-1.000000</vaccuracy>
<internetconnect>-1</internetconnect>
</trkpt>
<trkpt lat="35.021890" lon="136.462479">
<ele>284.000000</ele>
<time>2026-03-27T19:20:32Z</time>
<speed>0.000000</speed>
<trueHeading>0.000000</trueHeading>
<magneticHeading>0.000000</magneticHeading>
<gpsHeading>0.000000</gpsHeading>
<haccuracy>-1.000000</haccuracy>
<vaccuracy>-1.000000</vaccuracy>
<internetconnect>-1</internetconnect>
</trkpt>
<trkpt lat="35.021937" lon="136.462383">
<ele>281.000000</ele>
<time>2026-03-27T19:20:44Z</time>
<speed>0.000000</speed>
<trueHeading>0.000000</trueHeading>
<magneticHeading>0.000000</magneticHeading>
<gpsHeading>0.000000</gpsHeading>
<haccuracy>-1.000000</haccuracy>
<vaccuracy>-1.000000</vaccuracy>
<internetconnect>-1</internetconnect>
</trkpt>
<trkpt lat="35.021950" lon="136.462270">
<ele>280.000000</ele>
<time>2026-03-27T19:20:57Z</time>
<speed>0.000000</speed>
<trueHeading>0.000000</trueHeading>
<magneticHeading>0.000000</magneticHeading>
<gpsHeading>0.000000</gpsHeading>
<haccuracy>-1.000000</haccuracy>
<vaccuracy>-1.000000</vaccuracy>
<internetconnect>-1</internetconnect>
</trkpt>
<trkpt lat="35.021950" lon="136.462142">
<ele>277.000000</ele>
<time>2026-03-27T19:21:11Z</time>
<speed>0.000000</speed>
<trueHeading>0.000000</trueHeading>
<magneticHeading>0.000000</magneticHeading>
<gpsHeading>0.000000</gpsHeading>
<haccuracy>-1.000000</haccuracy>
<vaccuracy>-1.000000</vaccuracy>
<internetconnect>-1</internetconnect>
</trkpt>
<trkpt lat="35.021983" lon="136.462037">
<ele>276.000000</ele>
<time>2026-03-27T19:21:24Z</time>
<speed>0.000000</speed>
<trueHeading>0.000000</trueHeading>
<magneticHeading>0.000000</magneticHeading>
<gpsHeading>0.000000</gpsHeading>
<haccuracy>-1.000000</haccuracy>
<vaccuracy>-1.000000</vaccuracy>
<internetconnect>-1</internetconnect>
</trkpt>
<trkpt lat="35.022082" lon="136.462037">
<ele>274.000000</ele>
<time>2026-03-27T19:21:37Z</time>
<speed>0.000000</speed>
<trueHeading>0.000000</trueHeading>
<magneticHeading>0.000000</magneticHeading>
<gpsHeading>0.000000</gpsHeading>
<haccuracy>-1.000000</haccuracy>
<vaccuracy>-1.000000</vaccuracy>
<internetconnect>-1</internetconnect>
</trkpt>
<trkpt lat="35.022174" lon="136.462037">
<ele>273.000000</ele>
<time>2026-03-27T19:21:49Z</time>
<speed>0.000000</speed>
<trueHeading>0.000000</trueHeading>
<magneticHeading>0.000000</magneticHeading>
<gpsHeading>0.000000</gpsHeading>
<haccuracy>-1.000000</haccuracy>
<vaccuracy>-1.000000</vaccuracy>
<internetconnect>-1</internetconnect>
</trkpt>
<trkpt lat="35.022266" lon="136.462037">
<ele>273.000000</ele>
<time>2026-03-27T19:22:02Z</time>
<speed>0.000000</speed>
<trueHeading>0.000000</trueHeading>
<magneticHeading>0.000000</magneticHeading>
<gpsHeading>0.000000</gpsHeading>
<haccuracy>-1.000000</haccuracy>
<vaccuracy>-1.000000</vaccuracy>
<internetconnect>-1</internetconnect>
</trkpt>
<trkpt lat="35.022359" lon="136.462021">
<ele>274.000000</ele>
<time>2026-03-27T19:22:14Z</time>
<speed>0.000000</speed>
<trueHeading>0.000000</trueHeading>
<magneticHeading>0.000000</magneticHeading>
<gpsHeading>0.000000</gpsHeading>
<haccuracy>-1.000000</haccuracy>
<vaccuracy>-1.000000</vaccuracy>
<internetconnect>-1</internetconnect>
</trkpt>
<trkpt lat="35.022451" lon="136.461988">
<ele>274.000000</ele>
<time>2026-03-27T19:22:27Z</time>
<speed>0.000000</speed>
<trueHeading>0.000000</trueHeading>
<magneticHeading>0.000000</magneticHeading>
<gpsHeading>0.000000</gpsHeading>
<haccuracy>-1.000000</haccuracy>
<vaccuracy>-1.000000</vaccuracy>
<internetconnect>-1</internetconnect>
</trkpt>
<trkpt lat="35.022543" lon="136.461956">
<ele>274.000000</ele>
<time>2026-03-27T19:22:40Z</time>
<speed>0.000000</speed>
<trueHeading>0.000000</trueHeading>
<magneticHeading>0.000000</magneticHeading>
<gpsHeading>0.000000</gpsHeading>
<haccuracy>-1.000000</haccuracy>
<vaccuracy>-1.000000</vaccuracy>
<internetconnect>-1</internetconnect>
</trkpt>
<trkpt lat="35.022642" lon="136.461948">
<ele>275.000000</ele>
<time>2026-03-27T19:22:54Z</time>
<speed>0.000000</speed>
<trueHeading>0.000000</trueHeading>
<magneticHeading>0.000000</magneticHeading>
<gpsHeading>0.000000</gpsHeading>
<haccuracy>-1.000000</haccuracy>
<vaccuracy>-1.000000</vaccuracy>
<internetconnect>-1</internetconnect>
</trkpt>
<trkpt lat="35.022734" lon="136.461948">
<ele>274.000000</ele>
<time>2026-03-27T19:23:06Z</time>
<speed>0.000000</speed>
<trueHeading>0.000000</trueHeading>
<magneticHeading>0.000000</magneticHeading>
<gpsHeading>0.000000</gpsHeading>
<haccuracy>-1.000000</haccuracy>
<vaccuracy>-1.000000</vaccuracy>
<internetconnect>-1</internetconnect>
</trkpt>
<trkpt lat="35.022833" lon="136.461956">
<ele>271.000000</ele>
<time>2026-03-27T19:23:19Z</time>
<speed>0.000000</speed>
<trueHeading>0.000000</trueHeading>
<magneticHeading>0.000000</magneticHeading>
<gpsHeading>0.000000</gpsHeading>
<haccuracy>-1.000000</haccuracy>
<vaccuracy>-1.000000</vaccuracy>
<internetconnect>-1</internetconnect>
</trkpt>
<trkpt lat="35.022899" lon="136.462037">
<ele>270.000000</ele>
<time>2026-03-27T19:23:32Z</time>
<speed>0.000000</speed>
<trueHeading>0.000000</trueHeading>
<magneticHeading>0.000000</magneticHeading>
<gpsHeading>0.000000</gpsHeading>
<haccuracy>-1.000000</haccuracy>
<vaccuracy>-1.000000</vaccuracy>
<internetconnect>-1</internetconnect>
</trkpt>
<trkpt lat="35.022906" lon="136.462166">
<ele>269.000000</ele>
<time>2026-03-27T19:23:46Z</time>
<speed>0.000000</speed>
<trueHeading>0.000000</trueHeading>
<magneticHeading>0.000000</magneticHeading>
<gpsHeading>0.000000</gpsHeading>
<haccuracy>-1.000000</haccuracy>
<vaccuracy>-1.000000</vaccuracy>
<internetconnect>-1</internetconnect>
</trkpt>
<trkpt lat="35.022906" lon="136.462286">
<ele>268.000000</ele>
<time>2026-03-27T19:24:00Z</time>
<speed>0.000000</speed>
<trueHeading>0.000000</trueHeading>
<magneticHeading>0.000000</magneticHeading>
<gpsHeading>0.000000</gpsHeading>
<haccuracy>-1.000000</haccuracy>
<vaccuracy>-1.000000</vaccuracy>
<internetconnect>-1</internetconnect>
</trkpt>
<trkpt lat="35.022906" lon="136.462399">
<ele>266.000000</ele>
<time>2026-03-27T19:24:12Z</time>
<speed>0.000000</speed>
<trueHeading>0.000000</trueHeading>
<magneticHeading>0.000000</magneticHeading>
<gpsHeading>0.000000</gpsHeading>
<haccuracy>-1.000000</haccuracy>
<vaccuracy>-1.000000</vaccuracy>
<internetconnect>-1</internetconnect>
</trkpt>
<trkpt lat="35.022853" lon="136.462504">
<ele>266.000000</ele>
<time>2026-03-27T19:24:26Z</time>
<speed>0.000000</speed>
<trueHeading>0.000000</trueHeading>
<magneticHeading>0.000000</magneticHeading>
<gpsHeading>0.000000</gpsHeading>
<haccuracy>-1.000000</haccuracy>
<vaccuracy>-1.000000</vaccuracy>
<internetconnect>-1</internetconnect>
</trkpt>
<trkpt lat="35.022781" lon="136.462584">
<ele>266.000000</ele>
<time>2026-03-27T19:24:39Z</time>
<speed>0.000000</speed>
<trueHeading>0.000000</trueHeading>
<magneticHeading>0.000000</magneticHeading>
<gpsHeading>0.000000</gpsHeading>
<haccuracy>-1.000000</haccuracy>
<vaccuracy>-1.000000</vaccuracy>
<internetconnect>-1</internetconnect>
</trkpt>
<trkpt lat="35.022695" lon="136.462640">
<ele>267.000000</ele>
<time>2026-03-27T19:24:52Z</time>
<speed>0.000000</speed>
<trueHeading>0.000000</trueHeading>
<magneticHeading>0.000000</magneticHeading>
<gpsHeading>0.000000</gpsHeading>
<haccuracy>-1.000000</haccuracy>
<vaccuracy>-1.000000</vaccuracy>
<internetconnect>-1</internetconnect>
</trkpt>
<trkpt lat="35.022602" lon="136.462697">
<ele>265.000000</ele>
<time>2026-03-27T19:25:06Z</time>
<speed>0.000000</speed>
<trueHeading>0.000000</trueHeading>
<magneticHeading>0.000000</magneticHeading>
<gpsHeading>0.000000</gpsHeading>
<haccuracy>-1.000000</haccuracy>
<vaccuracy>-1.000000</vaccuracy>
<internetconnect>-1</internetconnect>
</trkpt>
<trkpt lat="35.022523" lon="136.462761">
<ele>263.000000</ele>
<time>2026-03-27T19:25:19Z</time>
<speed>0.000000</speed>
<trueHeading>0.000000</trueHeading>
<magneticHeading>0.000000</magneticHeading>
<gpsHeading>0.000000</gpsHeading>
<haccuracy>-1.000000</haccuracy>
<vaccuracy>-1.000000</vaccuracy>
<internetconnect>-1</internetconnect>
</trkpt>
<trkpt lat="35.022457" lon="136.462842">
<ele>264.000000</ele>
<time>2026-03-27T19:25:32Z</time>
<speed>0.000000</speed>
<trueHeading>0.000000</trueHeading>
<magneticHeading>0.000000</magneticHeading>
<gpsHeading>0.000000</gpsHeading>
<haccuracy>-1.000000</haccuracy>
<vaccuracy>-1.000000</vaccuracy>
<internetconnect>-1</internetconnect>
</trkpt>
<trkpt lat="35.022391" lon="136.462922">
<ele>266.000000</ele>
<time>2026-03-27T19:25:44Z</time>
<speed>0.000000</speed>
<trueHeading>0.000000</trueHeading>
<magneticHeading>0.000000</magneticHeading>
<gpsHeading>0.000000</gpsHeading>
<haccuracy>-1.000000</haccuracy>
<vaccuracy>-1.000000</vaccuracy>
<internetconnect>-1</internetconnect>
</trkpt>
<trkpt lat="35.022339" lon="136.463019">
<ele>264.000000</ele>
<time>2026-03-27T19:25:57Z</time>
<speed>0.000000</speed>
<trueHeading>0.000000</trueHeading>
<magneticHeading>0.000000</magneticHeading>
<gpsHeading>0.000000</gpsHeading>
<haccuracy>-1.000000</haccuracy>
<vaccuracy>-1.000000</vaccuracy>
<internetconnect>-1</internetconnect>
</trkpt>
<trkpt lat="35.022279" lon="136.463107">
<ele>264.000000</ele>
<time>2026-03-27T19:26:10Z</time>
<speed>0.000000</speed>
<trueHeading>0.000000</trueHeading>
<magneticHeading>0.000000</magneticHeading>
<gpsHeading>0.000000</gpsHeading>
<haccuracy>-1.000000</haccuracy>
<vaccuracy>-1.000000</vaccuracy>
<internetconnect>-1</internetconnect>
</trkpt>
<trkpt lat="35.022226" lon="136.463204">
<ele>265.000000</ele>
<time>2026-03-27T19:26:22Z</time>
<speed>0.000000</speed>
<trueHeading>0.000000</trueHeading>
<magneticHeading>0.000000</magneticHeading>
<gpsHeading>0.000000</gpsHeading>
<haccuracy>-1.000000</haccuracy>
<vaccuracy>-1.000000</vaccuracy>
<internetconnect>-1</internetconnect>
</trkpt>
<trkpt lat="35.022180" lon="136.463317">
<ele>265.000000</ele>
<time>2026-03-27T19:26:36Z</time>
<speed>0.000000</speed>
<trueHeading>0.000000</trueHeading>
<magneticHeading>0.000000</magneticHeading>
<gpsHeading>0.000000</gpsHeading>
<haccuracy>-1.000000</haccuracy>
<vaccuracy>-1.000000</vaccuracy>
<internetconnect>-1</internetconnect>
</trkpt>
<trkpt lat="35.022147" lon="136.463430">
<ele>262.000000</ele>
<time>2026-03-27T19:26:50Z</time>
<speed>0.000000</speed>
<trueHeading>0.000000</trueHeading>
<magneticHeading>0.000000</magneticHeading>
<gpsHeading>0.000000</gpsHeading>
<haccuracy>-1.000000</haccuracy>
<vaccuracy>-1.000000</vaccuracy>
<internetconnect>-1</internetconnect>
</trkpt>
<trkpt lat="35.022101" lon="136.463526">
<ele>265.000000</ele>
<time>2026-03-27T19:27:02Z</time>
<speed>0.000000</speed>
<trueHeading>0.000000</trueHeading>
<magneticHeading>0.000000</magneticHeading>
<gpsHeading>0.000000</gpsHeading>
<haccuracy>-1.000000</haccuracy>
<vaccuracy>-1.000000</vaccuracy>
<internetconnect>-1</internetconnect>
</trkpt>
<trkpt lat="35.022035" lon="136.463607">
<ele>269.000000</ele>
<time>2026-03-27T19:27:15Z</time>
<speed>0.000000</speed>
<trueHeading>0.000000</trueHeading>
<magneticHeading>0.000000</magneticHeading>
<gpsHeading>0.000000</gpsHeading>
<haccuracy>-1.000000</haccuracy>
<vaccuracy>-1.000000</vaccuracy>
<internetconnect>-1</internetconnect>
</trkpt>
<trkpt lat="35.021956" lon="136.463671">
<ele>273.000000</ele>
<time>2026-03-27T19:27:27Z</time>
<speed>0.000000</speed>
<trueHeading>0.000000</trueHeading>
<magneticHeading>0.000000</magneticHeading>
<gpsHeading>0.000000</gpsHeading>
<haccuracy>-1.000000</haccuracy>
<vaccuracy>-1.000000</vaccuracy>
<internetconnect>-1</internetconnect>
</trkpt>
<trkpt lat="35.021890" lon="136.463760">
<ele>275.000000</ele>
<time>2026-03-27T19:27:41Z</time>
<speed>0.000000</speed>
<trueHeading>0.000000</trueHeading>
<magneticHeading>0.000000</magneticHeading>
<gpsHeading>0.000000</gpsHeading>
<haccuracy>-1.000000</haccuracy>
<vaccuracy>-1.000000</vaccuracy>
<internetconnect>-1</internetconnect>
</trkpt>
<trkpt lat="35.021831" lon="136.463864">
<ele>277.000000</ele>
<time>2026-03-27T19:27:55Z</time>
<speed>0.000000</speed>
<trueHeading>0.000000</trueHeading>
<magneticHeading>0.000000</magneticHeading>
<gpsHeading>0.000000</gpsHeading>
<haccuracy>-1.000000</haccuracy>
<vaccuracy>-1.000000</vaccuracy>
<internetconnect>-1</internetconnect>
</trkpt>
<trkpt lat="35.021785" lon="136.463977">
<ele>274.000000</ele>
<time>2026-03-27T19:28:09Z</time>
<speed>0.000000</speed>
<trueHeading>0.000000</trueHeading>
<magneticHeading>0.000000</magneticHeading>
<gpsHeading>0.000000</gpsHeading>
<haccuracy>-1.000000</haccuracy>
<vaccuracy>-1.000000</vaccuracy>
<internetconnect>-1</internetconnect>
</trkpt>
<trkpt lat="35.021752" lon="136.464090">
<ele>275.000000</ele>
<time>2026-03-27T19:28:22Z</time>
<speed>0.000000</speed>
<trueHeading>0.000000</trueHeading>
<magneticHeading>0.000000</magneticHeading>
<gpsHeading>0.000000</gpsHeading>
<haccuracy>-1.000000</haccuracy>
<vaccuracy>-1.000000</vaccuracy>
<internetconnect>-1</internetconnect>
</trkpt>
<trkpt lat="35.021712" lon="136.464202">
<ele>265.000000</ele>
<time>2026-03-27T19:28:36Z</time>
<speed>0.000000</speed>
<trueHeading>0.000000</trueHeading>
<magneticHeading>0.000000</magneticHeading>
<gpsHeading>0.000000</gpsHeading>
<haccuracy>-1.000000</haccuracy>
<vaccuracy>-1.000000</vaccuracy>
<internetconnect>-1</internetconnect>
</trkpt>
<trkpt lat="35.021666" lon="136.464299">
<ele>264.000000</ele>
<time>2026-03-27T19:28:48Z</time>
<speed>0.000000</speed>
<trueHeading>0.000000</trueHeading>
<magneticHeading>0.000000</magneticHeading>
<gpsHeading>0.000000</gpsHeading>
<haccuracy>-1.000000</haccuracy>
<vaccuracy>-1.000000</vaccuracy>
<internetconnect>-1</internetconnect>
</trkpt>
<trkpt lat="35.021600" lon="136.464380">
<ele>262.000000</ele>
<time>2026-03-27T19:29:01Z</time>
<speed>0.000000</speed>
<trueHeading>0.000000</trueHeading>
<magneticHeading>0.000000</magneticHeading>
<gpsHeading>0.000000</gpsHeading>
<haccuracy>-1.000000</haccuracy>
<vaccuracy>-1.000000</vaccuracy>
<internetconnect>-1</internetconnect>
</trkpt>
<trkpt lat="35.021534" lon="136.464484">
<ele>264.000000</ele>
<time>2026-03-27T19:29:15Z</time>
<speed>0.000000</speed>
<trueHeading>0.000000</trueHeading>
<magneticHeading>0.000000</magneticHeading>
<gpsHeading>0.000000</gpsHeading>
<haccuracy>-1.000000</haccuracy>
<vaccuracy>-1.000000</vaccuracy>
<internetconnect>-1</internetconnect>
</trkpt>
<trkpt lat="35.021475" lon="136.464581">
<ele>263.000000</ele>
<time>2026-03-27T19:29:29Z</time>
<speed>0.000000</speed>
<trueHeading>0.000000</trueHeading>
<magneticHeading>0.000000</magneticHeading>
<gpsHeading>0.000000</gpsHeading>
<haccuracy>-1.000000</haccuracy>
<vaccuracy>-1.000000</vaccuracy>
<internetconnect>-1</internetconnect>
</trkpt>
<trkpt lat="35.021435" lon="136.464686">
<ele>257.000000</ele>
<time>2026-03-27T19:29:41Z</time>
<speed>0.000000</speed>
<trueHeading>0.000000</trueHeading>
<magneticHeading>0.000000</magneticHeading>
<gpsHeading>0.000000</gpsHeading>
<haccuracy>-1.000000</haccuracy>
<vaccuracy>-1.000000</vaccuracy>
<internetconnect>-1</internetconnect>
</trkpt>
<trkpt lat="35.021402" lon="136.464790">
<ele>252.000000</ele>
<time>2026-03-27T19:29:54Z</time>
<speed>0.000000</speed>
<trueHeading>0.000000</trueHeading>
<magneticHeading>0.000000</magneticHeading>
<gpsHeading>0.000000</gpsHeading>
<haccuracy>-1.000000</haccuracy>
<vaccuracy>-1.000000</vaccuracy>
<internetconnect>-1</internetconnect>
</trkpt>
<trkpt lat="35.021330" lon="136.464879">
<ele>254.000000</ele>
<time>2026-03-27T19:30:08Z</time>
<speed>0.000000</speed>
<trueHeading>0.000000</trueHeading>
<magneticHeading>0.000000</magneticHeading>
<gpsHeading>0.000000</gpsHeading>
<haccuracy>-1.000000</haccuracy>
<vaccuracy>-1.000000</vaccuracy>
<internetconnect>-1</internetconnect>
</trkpt>
<trkpt lat="35.021264" lon="136.464959">
<ele>253.000000</ele>
<time>2026-03-27T19:30:20Z</time>
<speed>0.000000</speed>
<trueHeading>0.000000</trueHeading>
<magneticHeading>0.000000</magneticHeading>
<gpsHeading>0.000000</gpsHeading>
<haccuracy>-1.000000</haccuracy>
<vaccuracy>-1.000000</vaccuracy>
<internetconnect>-1</internetconnect>
</trkpt>
<trkpt lat="35.021198" lon="136.465040">
<ele>257.000000</ele>
<time>2026-03-27T19:30:33Z</time>
<speed>0.000000</speed>
<trueHeading>0.000000</trueHeading>
<magneticHeading>0.000000</magneticHeading>
<gpsHeading>0.000000</gpsHeading>
<haccuracy>-1.000000</haccuracy>
<vaccuracy>-1.000000</vaccuracy>
<internetconnect>-1</internetconnect>
</trkpt>
<trkpt lat="35.021125" lon="136.465120">
<ele>254.000000</ele>
<time>2026-03-27T19:30:46Z</time>
<speed>0.000000</speed>
<trueHeading>0.000000</trueHeading>
<magneticHeading>0.000000</magneticHeading>
<gpsHeading>0.000000</gpsHeading>
<haccuracy>-1.000000</haccuracy>
<vaccuracy>-1.000000</vaccuracy>
<internetconnect>-1</internetconnect>
</trkpt>
<trkpt lat="35.021053" lon="136.465193">
<ele>250.000000</ele>
<time>2026-03-27T19:30:59Z</time>
<speed>0.000000</speed>
<trueHeading>0.000000</trueHeading>
<magneticHeading>0.000000</magneticHeading>
<gpsHeading>0.000000</gpsHeading>
<haccuracy>-1.000000</haccuracy>
<vaccuracy>-1.000000</vaccuracy>
<internetconnect>-1</internetconnect>
</trkpt>
<trkpt lat="35.020974" lon="136.465257">
<ele>244.000000</ele>
<time>2026-03-27T19:31:12Z</time>
<speed>0.000000</speed>
<trueHeading>0.000000</trueHeading>
<magneticHeading>0.000000</magneticHeading>
<gpsHeading>0.000000</gpsHeading>
<haccuracy>-1.000000</haccuracy>
<vaccuracy>-1.000000</vaccuracy>
<internetconnect>-1</internetconnect>
</trkpt>
<trkpt lat="35.020888" lon="136.465297">
<ele>245.000000</ele>
<time>2026-03-27T19:31:24Z</time>
<speed>0.000000</speed>
<trueHeading>0.000000</trueHeading>
<magneticHeading>0.000000</magneticHeading>
<gpsHeading>0.000000</gpsHeading>
<haccuracy>-1.000000</haccuracy>
<vaccuracy>-1.000000</vaccuracy>
<internetconnect>-1</internetconnect>
</trkpt>
<trkpt lat="35.020809" lon="136.465362">
<ele>241.000000</ele>
<time>2026-03-27T19:31:37Z</time>
<speed>0.000000</speed>
<trueHeading>0.000000</trueHeading>
<magneticHeading>0.000000</magneticHeading>
<gpsHeading>0.000000</gpsHeading>
<haccuracy>-1.000000</haccuracy>
<vaccuracy>-1.000000</vaccuracy>
<internetconnect>-1</internetconnect>
</trkpt>
<trkpt lat="35.020730" lon="136.465426">
<ele>239.000000</ele>
<time>2026-03-27T19:31:50Z</time>
<speed>0.000000</speed>
<trueHeading>0.000000</trueHeading>
<magneticHeading>0.000000</magneticHeading>
<gpsHeading>0.000000</gpsHeading>
<haccuracy>-1.000000</haccuracy>
<vaccuracy>-1.000000</vaccuracy>
<internetconnect>-1</internetconnect>
</trkpt>
<trkpt lat="35.020651" lon="136.465491">
<ele>238.000000</ele>
<time>2026-03-27T19:32:02Z</time>
<speed>0.000000</speed>
<trueHeading>0.000000</trueHeading>
<magneticHeading>0.000000</magneticHeading>
<gpsHeading>0.000000</gpsHeading>
<haccuracy>-1.000000</haccuracy>
<vaccuracy>-1.000000</vaccuracy>
<internetconnect>-1</internetconnect>
</trkpt>
<trkpt lat="35.020552" lon="136.465563">
<ele>237.000000</ele>
<time>2026-03-27T19:32:18Z</time>
<speed>0.000000</speed>
<trueHeading>0.000000</trueHeading>
<magneticHeading>0.000000</magneticHeading>
<gpsHeading>0.000000</gpsHeading>
<haccuracy>-1.000000</haccuracy>
<vaccuracy>-1.000000</vaccuracy>
<internetconnect>-1</internetconnect>
</trkpt>
<trkpt lat="35.020473" lon="136.465619">
<ele>236.000000</ele>
<time>2026-03-27T19:32:30Z</time>
<speed>0.000000</speed>
<trueHeading>0.000000</trueHeading>
<magneticHeading>0.000000</magneticHeading>
<gpsHeading>0.000000</gpsHeading>
<haccuracy>-1.000000</haccuracy>
<vaccuracy>-1.000000</vaccuracy>
<internetconnect>-1</internetconnect>
</trkpt>
<trkpt lat="35.020380" lon="136.465652">
<ele>235.000000</ele>
<time>2026-03-27T19:32:43Z</time>
<speed>0.000000</speed>
<trueHeading>0.000000</trueHeading>
<magneticHeading>0.000000</magneticHeading>
<gpsHeading>0.000000</gpsHeading>
<haccuracy>-1.000000</haccuracy>
<vaccuracy>-1.000000</vaccuracy>
<internetconnect>-1</internetconnect>
</trkpt>
<trkpt lat="35.020288" lon="136.465660">
<ele>234.000000</ele>
<time>2026-03-27T19:32:56Z</time>
<speed>0.000000</speed>
<trueHeading>0.000000</trueHeading>
<magneticHeading>0.000000</magneticHeading>
<gpsHeading>0.000000</gpsHeading>
<haccuracy>-1.000000</haccuracy>
<vaccuracy>-1.000000</vaccuracy>
<internetconnect>-1</internetconnect>
</trkpt>
<trkpt lat="35.020183" lon="136.465660">
<ele>232.000000</ele>
<time>2026-03-27T19:33:10Z</time>
<speed>0.000000</speed>
<trueHeading>0.000000</trueHeading>
<magneticHeading>0.000000</magneticHeading>
<gpsHeading>0.000000</gpsHeading>
<haccuracy>-1.000000</haccuracy>
<vaccuracy>-1.000000</vaccuracy>
<internetconnect>-1</internetconnect>
</trkpt>
<trkpt lat="35.020090" lon="136.465660">
<ele>230.000000</ele>
<time>2026-03-27T19:33:22Z</time>
<speed>0.000000</speed>
<trueHeading>0.000000</trueHeading>
<magneticHeading>0.000000</magneticHeading>
<gpsHeading>0.000000</gpsHeading>
<haccuracy>-1.000000</haccuracy>
<vaccuracy>-1.000000</vaccuracy>
<internetconnect>-1</internetconnect>
</trkpt>
<trkpt lat="35.019998" lon="136.465668">
<ele>229.000000</ele>
<time>2026-03-27T19:33:35Z</time>
<speed>0.000000</speed>
<trueHeading>0.000000</trueHeading>
<magneticHeading>0.000000</magneticHeading>
<gpsHeading>0.000000</gpsHeading>
<haccuracy>-1.000000</haccuracy>
<vaccuracy>-1.000000</vaccuracy>
<internetconnect>-1</internetconnect>
</trkpt>
<trkpt lat="35.019906" lon="136.465684">
<ele>229.000000</ele>
<time>2026-03-27T19:33:47Z</time>
<speed>0.000000</speed>
<trueHeading>0.000000</trueHeading>
<magneticHeading>0.000000</magneticHeading>
<gpsHeading>0.000000</gpsHeading>
<haccuracy>-1.000000</haccuracy>
<vaccuracy>-1.000000</vaccuracy>
<internetconnect>-1</internetconnect>
</trkpt>
<trkpt lat="35.019813" lon="136.465724">
<ele>229.000000</ele>
<time>2026-03-27T19:34:01Z</time>
<speed>0.000000</speed>
<trueHeading>0.000000</trueHeading>
<magneticHeading>0.000000</magneticHeading>
<gpsHeading>0.000000</gpsHeading>
<haccuracy>-1.000000</haccuracy>
<vaccuracy>-1.000000</vaccuracy>
<internetconnect>-1</internetconnect>
</trkpt>
<trkpt lat="35.019734" lon="136.465789">
<ele>227.000000</ele>
<time>2026-03-27T19:34:13Z</time>
<speed>0.000000</speed>
<trueHeading>0.000000</trueHeading>
<magneticHeading>0.000000</magneticHeading>
<gpsHeading>0.000000</gpsHeading>
<haccuracy>-1.000000</haccuracy>
<vaccuracy>-1.000000</vaccuracy>
<internetconnect>-1</internetconnect>
</trkpt>
<trkpt lat="35.019649" lon="136.465861">
<ele>226.000000</ele>
<time>2026-03-27T19:34:28Z</time>
<speed>0.000000</speed>
<trueHeading>0.000000</trueHeading>
<magneticHeading>0.000000</magneticHeading>
<gpsHeading>0.000000</gpsHeading>
<haccuracy>-1.000000</haccuracy>
<vaccuracy>-1.000000</vaccuracy>
<internetconnect>-1</internetconnect>
</trkpt>
<trkpt lat="35.019556" lon="136.465893">
<ele>226.000000</ele>
<time>2026-03-27T19:34:40Z</time>
<speed>0.000000</speed>
<trueHeading>0.000000</trueHeading>
<magneticHeading>0.000000</magneticHeading>
<gpsHeading>0.000000</gpsHeading>
<haccuracy>-1.000000</haccuracy>
<vaccuracy>-1.000000</vaccuracy>
<internetconnect>-1</internetconnect>
</trkpt>
<trkpt lat="35.019464" lon="136.465893">
<ele>226.000000</ele>
<time>2026-03-27T19:34:53Z</time>
<speed>0.000000</speed>
<trueHeading>0.000000</trueHeading>
<magneticHeading>0.000000</magneticHeading>
<gpsHeading>0.000000</gpsHeading>
<haccuracy>-1.000000</haccuracy>
<vaccuracy>-1.000000</vaccuracy>
<internetconnect>-1</internetconnect>
</trkpt>
<trkpt lat="35.019365" lon="136.465893">
<ele>226.000000</ele>
<time>2026-03-27T19:35:06Z</time>
<speed>0.000000</speed>
<trueHeading>0.000000</trueHeading>
<magneticHeading>0.000000</magneticHeading>
<gpsHeading>0.000000</gpsHeading>
<haccuracy>-1.000000</haccuracy>
<vaccuracy>-1.000000</vaccuracy>
<internetconnect>-1</internetconnect>
</trkpt>
<trkpt lat="35.019273" lon="136.465893">
<ele>225.000000</ele>
<time>2026-03-27T19:35:19Z</time>
<speed>0.000000</speed>
<trueHeading>0.000000</trueHeading>
<magneticHeading>0.000000</magneticHeading>
<gpsHeading>0.000000</gpsHeading>
<haccuracy>-1.000000</haccuracy>
<vaccuracy>-1.000000</vaccuracy>
<internetconnect>-1</internetconnect>
</trkpt>
<trkpt lat="35.019180" lon="136.465901">
<ele>225.000000</ele>
<time>2026-03-27T19:35:31Z</time>
<speed>0.000000</speed>
<trueHeading>0.000000</trueHeading>
<magneticHeading>0.000000</magneticHeading>
<gpsHeading>0.000000</gpsHeading>
<haccuracy>-1.000000</haccuracy>
<vaccuracy>-1.000000</vaccuracy>
<internetconnect>-1</internetconnect>
</trkpt>
<trkpt lat="35.019082" lon="136.465917">
<ele>223.000000</ele>
<time>2026-03-27T19:35:45Z</time>
<speed>0.000000</speed>
<trueHeading>0.000000</trueHeading>
<magneticHeading>0.000000</magneticHeading>
<gpsHeading>0.000000</gpsHeading>
<haccuracy>-1.000000</haccuracy>
<vaccuracy>-1.000000</vaccuracy>
<internetconnect>-1</internetconnect>
</trkpt>
<trkpt lat="35.018989" lon="136.465925">
<ele>223.000000</ele>
<time>2026-03-27T19:35:57Z</time>
<speed>0.000000</speed>
<trueHeading>0.000000</trueHeading>
<magneticHeading>0.000000</magneticHeading>
<gpsHeading>0.000000</gpsHeading>
<haccuracy>-1.000000</haccuracy>
<vaccuracy>-1.000000</vaccuracy>
<internetconnect>-1</internetconnect>
</trkpt>
<trkpt lat="35.018897" lon="136.465942">
<ele>224.000000</ele>
<time>2026-03-27T19:36:10Z</time>
<speed>0.000000</speed>
<trueHeading>0.000000</trueHeading>
<magneticHeading>0.000000</magneticHeading>
<gpsHeading>0.000000</gpsHeading>
<haccuracy>-1.000000</haccuracy>
<vaccuracy>-1.000000</vaccuracy>
<internetconnect>-1</internetconnect>
</trkpt>
<trkpt lat="35.018804" lon="136.465950">
<ele>224.000000</ele>
<time>2026-03-27T19:36:22Z</time>
<speed>0.000000</speed>
<trueHeading>0.000000</trueHeading>
<magneticHeading>0.000000</magneticHeading>
<gpsHeading>0.000000</gpsHeading>
<haccuracy>-1.000000</haccuracy>
<vaccuracy>-1.000000</vaccuracy>
<internetconnect>-1</internetconnect>
</trkpt>
<trkpt lat="35.018706" lon="136.465950">
<ele>224.000000</ele>
<time>2026-03-27T19:36:35Z</time>
<speed>0.000000</speed>
<trueHeading>0.000000</trueHeading>
<magneticHeading>0.000000</magneticHeading>
<gpsHeading>0.000000</gpsHeading>
<haccuracy>-1.000000</haccuracy>
<vaccuracy>-1.000000</vaccuracy>
<internetconnect>-1</internetconnect>
</trkpt>
<trkpt lat="35.018613" lon="136.465950">
<ele>225.000000</ele>
<time>2026-03-27T19:36:48Z</time>
<speed>0.000000</speed>
<trueHeading>0.000000</trueHeading>
<magneticHeading>0.000000</magneticHeading>
<gpsHeading>0.000000</gpsHeading>
<haccuracy>-1.000000</haccuracy>
<vaccuracy>-1.000000</vaccuracy>
<internetconnect>-1</internetconnect>
</trkpt>
<trkpt lat="35.018515" lon="136.465950">
<ele>220.000000</ele>
<time>2026-03-27T19:37:01Z</time>
<speed>0.000000</speed>
<trueHeading>0.000000</trueHeading>
<magneticHeading>0.000000</magneticHeading>
<gpsHeading>0.000000</gpsHeading>
<haccuracy>-1.000000</haccuracy>
<vaccuracy>-1.000000</vaccuracy>
<internetconnect>-1</internetconnect>
</trkpt>
<trkpt lat="35.018422" lon="136.465950">
<ele>219.000000</ele>
<time>2026-03-27T19:37:14Z</time>
<speed>0.000000</speed>
<trueHeading>0.000000</trueHeading>
<magneticHeading>0.000000</magneticHeading>
<gpsHeading>0.000000</gpsHeading>
<haccuracy>-1.000000</haccuracy>
<vaccuracy>-1.000000</vaccuracy>
<internetconnect>-1</internetconnect>
</trkpt>
<trkpt lat="35.018323" lon="136.465950">
<ele>217.000000</ele>
<time>2026-03-27T19:37:27Z</time>
<speed>0.000000</speed>
<trueHeading>0.000000</trueHeading>
<magneticHeading>0.000000</magneticHeading>
<gpsHeading>0.000000</gpsHeading>
<haccuracy>-1.000000</haccuracy>
<vaccuracy>-1.000000</vaccuracy>
<internetconnect>-1</internetconnect>
</trkpt>
<trkpt lat="35.018231" lon="136.465950">
<ele>217.000000</ele>
<time>2026-03-27T19:37:39Z</time>
<speed>0.000000</speed>
<trueHeading>0.000000</trueHeading>
<magneticHeading>0.000000</magneticHeading>
<gpsHeading>0.000000</gpsHeading>
<haccuracy>-1.000000</haccuracy>
<vaccuracy>-1.000000</vaccuracy>
<internetconnect>-1</internetconnect>
</trkpt>
<trkpt lat="35.018132" lon="136.465950">
<ele>216.000000</ele>
<time>2026-03-27T19:37:53Z</time>
<speed>0.000000</speed>
<trueHeading>0.000000</trueHeading>
<magneticHeading>0.000000</magneticHeading>
<gpsHeading>0.000000</gpsHeading>
<haccuracy>-1.000000</haccuracy>
<vaccuracy>-1.000000</vaccuracy>
<internetconnect>-1</internetconnect>
</trkpt>
<trkpt lat="35.018033" lon="136.465950">
<ele>213.000000</ele>
<time>2026-03-27T19:38:06Z</time>
<speed>0.000000</speed>
<trueHeading>0.000000</trueHeading>
<magneticHeading>0.000000</magneticHeading>
<gpsHeading>0.000000</gpsHeading>
<haccuracy>-1.000000</haccuracy>
<vaccuracy>-1.000000</vaccuracy>
<internetconnect>-1</internetconnect>
</trkpt>
<trkpt lat="35.017941" lon="136.465942">
<ele>211.000000</ele>
<time>2026-03-27T19:38:18Z</time>
<speed>0.000000</speed>
<trueHeading>0.000000</trueHeading>
<magneticHeading>0.000000</magneticHeading>
<gpsHeading>0.000000</gpsHeading>
<haccuracy>-1.000000</haccuracy>
<vaccuracy>-1.000000</vaccuracy>
<internetconnect>-1</internetconnect>
</trkpt>
<trkpt lat="35.017842" lon="136.465934">
<ele>210.000000</ele>
<time>2026-03-27T19:38:32Z</time>
<speed>0.000000</speed>
<trueHeading>0.000000</trueHeading>
<magneticHeading>0.000000</magneticHeading>
<gpsHeading>0.000000</gpsHeading>
<haccuracy>-1.000000</haccuracy>
<vaccuracy>-1.000000</vaccuracy>
<internetconnect>-1</internetconnect>
</trkpt>
<trkpt lat="35.017743" lon="136.465934">
<ele>207.000000</ele>
<time>2026-03-27T19:38:45Z</time>
<speed>0.000000</speed>
<trueHeading>0.000000</trueHeading>
<magneticHeading>0.000000</magneticHeading>
<gpsHeading>0.000000</gpsHeading>
<haccuracy>-1.000000</haccuracy>
<vaccuracy>-1.000000</vaccuracy>
<internetconnect>-1</internetconnect>
</trkpt>
<trkpt lat="35.017644" lon="136.465934">
<ele>208.000000</ele>
<time>2026-03-27T19:38:58Z</time>
<speed>0.000000</speed>
<trueHeading>0.000000</trueHeading>
<magneticHeading>0.000000</magneticHeading>
<gpsHeading>0.000000</gpsHeading>
<haccuracy>-1.000000</haccuracy>
<vaccuracy>-1.000000</vaccuracy>
<internetconnect>-1</internetconnect>
</trkpt>
<trkpt lat="35.017552" lon="136.465934">
<ele>208.000000</ele>
<time>2026-03-27T19:39:11Z</time>
<speed>0.000000</speed>
<trueHeading>0.000000</trueHeading>
<magneticHeading>0.000000</magneticHeading>
<gpsHeading>0.000000</gpsHeading>
<haccuracy>-1.000000</haccuracy>
<vaccuracy>-1.000000</vaccuracy>
<internetconnect>-1</internetconnect>
</trkpt>
<trkpt lat="35.017459" lon="136.465934">
<ele>207.000000</ele>
<time>2026-03-27T19:39:23Z</time>
<speed>0.000000</speed>
<trueHeading>0.000000</trueHeading>
<magneticHeading>0.000000</magneticHeading>
<gpsHeading>0.000000</gpsHeading>
<haccuracy>-1.000000</haccuracy>
<vaccuracy>-1.000000</vaccuracy>
<internetconnect>-1</internetconnect>
</trkpt>
<trkpt lat="35.017360" lon="136.465934">
<ele>207.000000</ele>
<time>2026-03-27T19:39:37Z</time>
<speed>0.000000</speed>
<trueHeading>0.000000</trueHeading>
<magneticHeading>0.000000</magneticHeading>
<gpsHeading>0.000000</gpsHeading>
<haccuracy>-1.000000</haccuracy>
<vaccuracy>-1.000000</vaccuracy>
<internetconnect>-1</internetconnect>
</trkpt>
<trkpt lat="35.017255" lon="136.465950">
<ele>206.000000</ele>
<time>2026-03-27T19:39:51Z</time>
<speed>0.000000</speed>
<trueHeading>0.000000</trueHeading>
<magneticHeading>0.000000</magneticHeading>
<gpsHeading>0.000000</gpsHeading>
<haccuracy>-1.000000</haccuracy>
<vaccuracy>-1.000000</vaccuracy>
<internetconnect>-1</internetconnect>
</trkpt>
<trkpt lat="35.017163" lon="136.465958">
<ele>205.000000</ele>
<time>2026-03-27T19:40:03Z</time>
<speed>0.000000</speed>
<trueHeading>0.000000</trueHeading>
<magneticHeading>0.000000</magneticHeading>
<gpsHeading>0.000000</gpsHeading>
<haccuracy>-1.000000</haccuracy>
<vaccuracy>-1.000000</vaccuracy>
<internetconnect>-1</internetconnect>
</trkpt>
<trkpt lat="35.017064" lon="136.465958">
<ele>205.000000</ele>
<time>2026-03-27T19:40:17Z</time>
<speed>0.000000</speed>
<trueHeading>0.000000</trueHeading>
<magneticHeading>0.000000</magneticHeading>
<gpsHeading>0.000000</gpsHeading>
<haccuracy>-1.000000</haccuracy>
<vaccuracy>-1.000000</vaccuracy>
<internetconnect>-1</internetconnect>
</trkpt>
<trkpt lat="35.016971" lon="136.465966">
<ele>203.000000</ele>
<time>2026-03-27T19:40:29Z</time>
<speed>0.000000</speed>
<trueHeading>0.000000</trueHeading>
<magneticHeading>0.000000</magneticHeading>
<gpsHeading>0.000000</gpsHeading>
<haccuracy>-1.000000</haccuracy>
<vaccuracy>-1.000000</vaccuracy>
<internetconnect>-1</internetconnect>
</trkpt>
<trkpt lat="35.016873" lon="136.465974">
<ele>203.000000</ele>
<time>2026-03-27T19:40:43Z</time>
<speed>0.000000</speed>
<trueHeading>0.000000</trueHeading>
<magneticHeading>0.000000</magneticHeading>
<gpsHeading>0.000000</gpsHeading>
<haccuracy>-1.000000</haccuracy>
<vaccuracy>-1.000000</vaccuracy>
<internetconnect>-1</internetconnect>
</trkpt>
<trkpt lat="35.016780" lon="136.465998">
<ele>200.000000</ele>
<time>2026-03-27T19:40:55Z</time>
<speed>0.000000</speed>
<trueHeading>0.000000</trueHeading>
<magneticHeading>0.000000</magneticHeading>
<gpsHeading>0.000000</gpsHeading>
<haccuracy>-1.000000</haccuracy>
<vaccuracy>-1.000000</vaccuracy>
<internetconnect>-1</internetconnect>
</trkpt>
<trkpt lat="35.016688" lon="136.465998">
<ele>200.000000</ele>
<time>2026-03-27T19:41:08Z</time>
<speed>0.000000</speed>
<trueHeading>0.000000</trueHeading>
<magneticHeading>0.000000</magneticHeading>
<gpsHeading>0.000000</gpsHeading>
<haccuracy>-1.000000</haccuracy>
<vaccuracy>-1.000000</vaccuracy>
<internetconnect>-1</internetconnect>
</trkpt>
<trkpt lat="35.016596" lon="136.465998">
<ele>199.000000</ele>
<time>2026-03-27T19:41:20Z</time>
<speed>0.000000</speed>
<trueHeading>0.000000</trueHeading>
<magneticHeading>0.000000</magneticHeading>
<gpsHeading>0.000000</gpsHeading>
<haccuracy>-1.000000</haccuracy>
<vaccuracy>-1.000000</vaccuracy>
<internetconnect>-1</internetconnect>
</trkpt>
<trkpt lat="35.016503" lon="136.465974">
<ele>199.000000</ele>
<time>2026-03-27T19:41:33Z</time>
<speed>0.000000</speed>
<trueHeading>0.000000</trueHeading>
<magneticHeading>0.000000</magneticHeading>
<gpsHeading>0.000000</gpsHeading>
<haccuracy>-1.000000</haccuracy>
<vaccuracy>-1.000000</vaccuracy>
<internetconnect>-1</internetconnect>
</trkpt>
<trkpt lat="35.016464" lon="136.465869">
<ele>199.000000</ele>
<time>2026-03-27T19:41:46Z</time>
<speed>0.000000</speed>
<trueHeading>0.000000</trueHeading>
<magneticHeading>0.000000</magneticHeading>
<gpsHeading>0.000000</gpsHeading>
<haccuracy>-1.000000</haccuracy>
<vaccuracy>-1.000000</vaccuracy>
<internetconnect>-1</internetconnect>
</trkpt>
<trkpt lat="35.016398" lon="136.465765">
<ele>199.000000</ele>
<time>2026-03-27T19:42:00Z</time>
<speed>0.000000</speed>
<trueHeading>0.000000</trueHeading>
<magneticHeading>0.000000</magneticHeading>
<gpsHeading>0.000000</gpsHeading>
<haccuracy>-1.000000</haccuracy>
<vaccuracy>-1.000000</vaccuracy>
<internetconnect>-1</internetconnect>
</trkpt>
<trkpt lat="35.016305" lon="136.465740">
<ele>199.000000</ele>
<time>2026-03-27T19:42:13Z</time>
<speed>0.000000</speed>
<trueHeading>0.000000</trueHeading>
<magneticHeading>0.000000</magneticHeading>
<gpsHeading>0.000000</gpsHeading>
<haccuracy>-1.000000</haccuracy>
<vaccuracy>-1.000000</vaccuracy>
<internetconnect>-1</internetconnect>
</trkpt>
<trkpt lat="35.016279" lon="136.465853">
<ele>199.000000</ele>
<time>2026-03-27T19:42:26Z</time>
<speed>0.000000</speed>
<trueHeading>0.000000</trueHeading>
<magneticHeading>0.000000</magneticHeading>
<gpsHeading>0.000000</gpsHeading>
<haccuracy>-1.000000</haccuracy>
<vaccuracy>-1.000000</vaccuracy>
<internetconnect>-1</internetconnect>
</trkpt>
<trkpt lat="35.016279" lon="136.465990">
<ele>198.000000</ele>
<time>2026-03-27T19:42:41Z</time>
<speed>0.000000</speed>
<trueHeading>0.000000</trueHeading>
<magneticHeading>0.000000</magneticHeading>
<gpsHeading>0.000000</gpsHeading>
<haccuracy>-1.000000</haccuracy>
<vaccuracy>-1.000000</vaccuracy>
<internetconnect>-1</internetconnect>
</trkpt>
<trkpt lat="35.016279" lon="136.466102">
<ele>197.000000</ele>
<time>2026-03-27T19:42:54Z</time>
<speed>0.000000</speed>
<trueHeading>0.000000</trueHeading>
<magneticHeading>0.000000</magneticHeading>
<gpsHeading>0.000000</gpsHeading>
<haccuracy>-1.000000</haccuracy>
<vaccuracy>-1.000000</vaccuracy>
<internetconnect>-1</internetconnect>
</trkpt>
<trkpt lat="35.016220" lon="136.466199">
<ele>197.000000</ele>
<time>2026-03-27T19:43:07Z</time>
<speed>0.000000</speed>
<trueHeading>0.000000</trueHeading>
<magneticHeading>0.000000</magneticHeading>
<gpsHeading>0.000000</gpsHeading>
<haccuracy>-1.000000</haccuracy>
<vaccuracy>-1.000000</vaccuracy>
<internetconnect>-1</internetconnect>
</trkpt>
<trkpt lat="35.016141" lon="136.466264">
<ele>196.000000</ele>
<time>2026-03-27T19:43:20Z</time>
<speed>0.000000</speed>
<trueHeading>0.000000</trueHeading>
<magneticHeading>0.000000</magneticHeading>
<gpsHeading>0.000000</gpsHeading>
<haccuracy>-1.000000</haccuracy>
<vaccuracy>-1.000000</vaccuracy>
<internetconnect>-1</internetconnect>
</trkpt>
<trkpt lat="35.016075" lon="136.466344">
<ele>195.000000</ele>
<time>2026-03-27T19:43:33Z</time>
<speed>0.000000</speed>
<trueHeading>0.000000</trueHeading>
<magneticHeading>0.000000</magneticHeading>
<gpsHeading>0.000000</gpsHeading>
<haccuracy>-1.000000</haccuracy>
<vaccuracy>-1.000000</vaccuracy>
<internetconnect>-1</internetconnect>
</trkpt>
<trkpt lat="35.016009" lon="136.466425">
<ele>195.000000</ele>
<time>2026-03-27T19:43:45Z</time>
<speed>0.000000</speed>
<trueHeading>0.000000</trueHeading>
<magneticHeading>0.000000</magneticHeading>
<gpsHeading>0.000000</gpsHeading>
<haccuracy>-1.000000</haccuracy>
<vaccuracy>-1.000000</vaccuracy>
<internetconnect>-1</internetconnect>
</trkpt>
<trkpt lat="35.015930" lon="136.466513">
<ele>194.000000</ele>
<time>2026-03-27T19:44:00Z</time>
<speed>0.000000</speed>
<trueHeading>0.000000</trueHeading>
<magneticHeading>0.000000</magneticHeading>
<gpsHeading>0.000000</gpsHeading>
<haccuracy>-1.000000</haccuracy>
<vaccuracy>-1.000000</vaccuracy>
<internetconnect>-1</internetconnect>
</trkpt>
<trkpt lat="35.015857" lon="136.466594">
<ele>194.000000</ele>
<time>2026-03-27T19:44:13Z</time>
<speed>0.000000</speed>
<trueHeading>0.000000</trueHeading>
<magneticHeading>0.000000</magneticHeading>
<gpsHeading>0.000000</gpsHeading>
<haccuracy>-1.000000</haccuracy>
<vaccuracy>-1.000000</vaccuracy>
<internetconnect>-1</internetconnect>
</trkpt>
<trkpt lat="35.015818" lon="136.466706">
<ele>193.000000</ele>
<time>2026-03-27T19:44:26Z</time>
<speed>0.000000</speed>
<trueHeading>0.000000</trueHeading>
<magneticHeading>0.000000</magneticHeading>
<gpsHeading>0.000000</gpsHeading>
<haccuracy>-1.000000</haccuracy>
<vaccuracy>-1.000000</vaccuracy>
<internetconnect>-1</internetconnect>
</trkpt>
<trkpt lat="35.015804" lon="136.466827">
<ele>193.000000</ele>
<time>2026-03-27T19:44:40Z</time>
<speed>0.000000</speed>
<trueHeading>0.000000</trueHeading>
<magneticHeading>0.000000</magneticHeading>
<gpsHeading>0.000000</gpsHeading>
<haccuracy>-1.000000</haccuracy>
<vaccuracy>-1.000000</vaccuracy>
<internetconnect>-1</internetconnect>
</trkpt>
<trkpt lat="35.015771" lon="136.466940">
<ele>191.000000</ele>
<time>2026-03-27T19:44:53Z</time>
<speed>0.000000</speed>
<trueHeading>0.000000</trueHeading>
<magneticHeading>0.000000</magneticHeading>
<gpsHeading>0.000000</gpsHeading>
<haccuracy>-1.000000</haccuracy>
<vaccuracy>-1.000000</vaccuracy>
<internetconnect>-1</internetconnect>
</trkpt>
<trkpt lat="35.015699" lon="136.467012">
<ele>191.000000</ele>
<time>2026-03-27T19:45:06Z</time>
<speed>0.000000</speed>
<trueHeading>0.000000</trueHeading>
<magneticHeading>0.000000</magneticHeading>
<gpsHeading>0.000000</gpsHeading>
<haccuracy>-1.000000</haccuracy>
<vaccuracy>-1.000000</vaccuracy>
<internetconnect>-1</internetconnect>
</trkpt>
<trkpt lat="35.015600" lon="136.467101">
<ele>191.000000</ele>
<time>2026-03-27T19:45:22Z</time>
<speed>0.000000</speed>
<trueHeading>0.000000</trueHeading>
<magneticHeading>0.000000</magneticHeading>
<gpsHeading>0.000000</gpsHeading>
<haccuracy>-1.000000</haccuracy>
<vaccuracy>-1.000000</vaccuracy>
<internetconnect>-1</internetconnect>
</trkpt>
<trkpt lat="35.015547" lon="136.467004">
<ele>191.000000</ele>
<time>2026-03-27T19:45:35Z</time>
<speed>0.000000</speed>
<trueHeading>0.000000</trueHeading>
<magneticHeading>0.000000</magneticHeading>
<gpsHeading>0.000000</gpsHeading>
<haccuracy>-1.000000</haccuracy>
<vaccuracy>-1.000000</vaccuracy>
<internetconnect>-1</internetconnect>
</trkpt>
<trkpt lat="35.015455" lon="136.467004">
<ele>191.000000</ele>
<time>2026-03-27T19:45:48Z</time>
<speed>0.000000</speed>
<trueHeading>0.000000</trueHeading>
<magneticHeading>0.000000</magneticHeading>
<gpsHeading>0.000000</gpsHeading>
<haccuracy>-1.000000</haccuracy>
<vaccuracy>-1.000000</vaccuracy>
<internetconnect>-1</internetconnect>
</trkpt>
<trkpt lat="35.015362" lon="136.467004">
<ele>191.000000</ele>
<time>2026-03-27T19:46:00Z</time>
<speed>0.000000</speed>
<trueHeading>0.000000</trueHeading>
<magneticHeading>0.000000</magneticHeading>
<gpsHeading>0.000000</gpsHeading>
<haccuracy>-1.000000</haccuracy>
<vaccuracy>-1.000000</vaccuracy>
<internetconnect>-1</internetconnect>
</trkpt>
<trkpt lat="35.015270" lon="136.467004">
<ele>190.000000</ele>
<time>2026-03-27T19:46:13Z</time>
<speed>0.000000</speed>
<trueHeading>0.000000</trueHeading>
<magneticHeading>0.000000</magneticHeading>
<gpsHeading>0.000000</gpsHeading>
<haccuracy>-1.000000</haccuracy>
<vaccuracy>-1.000000</vaccuracy>
<internetconnect>-1</internetconnect>
</trkpt>
<trkpt lat="35.015171" lon="136.467004">
<ele>190.000000</ele>
<time>2026-03-27T19:46:26Z</time>
<speed>0.000000</speed>
<trueHeading>0.000000</trueHeading>
<magneticHeading>0.000000</magneticHeading>
<gpsHeading>0.000000</gpsHeading>
<haccuracy>-1.000000</haccuracy>
<vaccuracy>-1.000000</vaccuracy>
<internetconnect>-1</internetconnect>
</trkpt>
<trkpt lat="35.015072" lon="136.467004">
<ele>190.000000</ele>
<time>2026-03-27T19:46:39Z</time>
<speed>0.000000</speed>
<trueHeading>0.000000</trueHeading>
<magneticHeading>0.000000</magneticHeading>
<gpsHeading>0.000000</gpsHeading>
<haccuracy>-1.000000</haccuracy>
<vaccuracy>-1.000000</vaccuracy>
<internetconnect>-1</internetconnect>
</trkpt>
<trkpt lat="35.014980" lon="136.467004">
<ele>190.000000</ele>
<time>2026-03-27T19:46:52Z</time>
<speed>0.000000</speed>
<trueHeading>0.000000</trueHeading>
<magneticHeading>0.000000</magneticHeading>
<gpsHeading>0.000000</gpsHeading>
<haccuracy>-1.000000</haccuracy>
<vaccuracy>-1.000000</vaccuracy>
<internetconnect>-1</internetconnect>
</trkpt>
<trkpt lat="35.014920" lon="136.467101">
<ele>189.000000</ele>
<time>2026-03-27T19:47:05Z</time>
<speed>0.000000</speed>
<trueHeading>0.000000</trueHeading>
<magneticHeading>0.000000</magneticHeading>
<gpsHeading>0.000000</gpsHeading>
<haccuracy>-1.000000</haccuracy>
<vaccuracy>-1.000000</vaccuracy>
<internetconnect>-1</internetconnect>
</trkpt>
<trkpt lat="35.014888" lon="136.467222">
<ele>188.000000</ele>
<time>2026-03-27T19:47:19Z</time>
<speed>0.000000</speed>
<trueHeading>0.000000</trueHeading>
<magneticHeading>0.000000</magneticHeading>
<gpsHeading>0.000000</gpsHeading>
<haccuracy>-1.000000</haccuracy>
<vaccuracy>-1.000000</vaccuracy>
<internetconnect>-1</internetconnect>
</trkpt>
<trkpt lat="35.014874" lon="136.467335">
<ele>188.000000</ele>
<time>2026-03-27T19:47:32Z</time>
<speed>0.000000</speed>
<trueHeading>0.000000</trueHeading>
<magneticHeading>0.000000</magneticHeading>
<gpsHeading>0.000000</gpsHeading>
<haccuracy>-1.000000</haccuracy>
<vaccuracy>-1.000000</vaccuracy>
<internetconnect>-1</internetconnect>
</trkpt>
<trkpt lat="35.014868" lon="136.467455">
<ele>187.000000</ele>
<time>2026-03-27T19:47:45Z</time>
<speed>0.000000</speed>
<trueHeading>0.000000</trueHeading>
<magneticHeading>0.000000</magneticHeading>
<gpsHeading>0.000000</gpsHeading>
<haccuracy>-1.000000</haccuracy>
<vaccuracy>-1.000000</vaccuracy>
<internetconnect>-1</internetconnect>
</trkpt>
<trkpt lat="35.014868" lon="136.467568">
<ele>186.000000</ele>
<time>2026-03-27T19:47:58Z</time>
<speed>0.000000</speed>
<trueHeading>0.000000</trueHeading>
<magneticHeading>0.000000</magneticHeading>
<gpsHeading>0.000000</gpsHeading>
<haccuracy>-1.000000</haccuracy>
<vaccuracy>-1.000000</vaccuracy>
<internetconnect>-1</internetconnect>
</trkpt>
<trkpt lat="35.014868" lon="136.467681">
<ele>186.000000</ele>
<time>2026-03-27T19:48:10Z</time>
<speed>0.000000</speed>
<trueHeading>0.000000</trueHeading>
<magneticHeading>0.000000</magneticHeading>
<gpsHeading>0.000000</gpsHeading>
<haccuracy>-1.000000</haccuracy>
<vaccuracy>-1.000000</vaccuracy>
<internetconnect>-1</internetconnect>
</trkpt>
<trkpt lat="35.014868" lon="136.467794">
<ele>184.000000</ele>
<time>2026-03-27T19:48:23Z</time>
<speed>0.000000</speed>
<trueHeading>0.000000</trueHeading>
<magneticHeading>0.000000</magneticHeading>
<gpsHeading>0.000000</gpsHeading>
<haccuracy>-1.000000</haccuracy>
<vaccuracy>-1.000000</vaccuracy>
<internetconnect>-1</internetconnect>
</trkpt>
<trkpt lat="35.014868" lon="136.467914">
<ele>184.000000</ele>
<time>2026-03-27T19:48:36Z</time>
<speed>0.000000</speed>
<trueHeading>0.000000</trueHeading>
<magneticHeading>0.000000</magneticHeading>
<gpsHeading>0.000000</gpsHeading>
<haccuracy>-1.000000</haccuracy>
<vaccuracy>-1.000000</vaccuracy>
<internetconnect>-1</internetconnect>
</trkpt>
<trkpt lat="35.014835" lon="136.468035">
<ele>184.000000</ele>
<time>2026-03-27T19:48:50Z</time>
<speed>0.000000</speed>
<trueHeading>0.000000</trueHeading>
<magneticHeading>0.000000</magneticHeading>
<gpsHeading>0.000000</gpsHeading>
<haccuracy>-1.000000</haccuracy>
<vaccuracy>-1.000000</vaccuracy>
<internetconnect>-1</internetconnect>
</trkpt>
<trkpt lat="35.014815" lon="136.468156">
<ele>183.000000</ele>
<time>2026-03-27T19:49:04Z</time>
<speed>0.000000</speed>
<trueHeading>0.000000</trueHeading>
<magneticHeading>0.000000</magneticHeading>
<gpsHeading>0.000000</gpsHeading>
<haccuracy>-1.000000</haccuracy>
<vaccuracy>-1.000000</vaccuracy>
<internetconnect>-1</internetconnect>
</trkpt>
<trkpt lat="35.014802" lon="136.468293">
<ele>182.000000</ele>
<time>2026-03-27T19:49:19Z</time>
<speed>0.000000</speed>
<trueHeading>0.000000</trueHeading>
<magneticHeading>0.000000</magneticHeading>
<gpsHeading>0.000000</gpsHeading>
<haccuracy>-1.000000</haccuracy>
<vaccuracy>-1.000000</vaccuracy>
<internetconnect>-1</internetconnect>
</trkpt>
<trkpt lat="35.014802" lon="136.468406">
<ele>181.000000</ele>
<time>2026-03-27T19:49:32Z</time>
<speed>0.000000</speed>
<trueHeading>0.000000</trueHeading>
<magneticHeading>0.000000</magneticHeading>
<gpsHeading>0.000000</gpsHeading>
<haccuracy>-1.000000</haccuracy>
<vaccuracy>-1.000000</vaccuracy>
<internetconnect>-1</internetconnect>
</trkpt>
<trkpt lat="35.014802" lon="136.468526">
<ele>180.000000</ele>
<time>2026-03-27T19:49:45Z</time>
<speed>0.000000</speed>
<trueHeading>0.000000</trueHeading>
<magneticHeading>0.000000</magneticHeading>
<gpsHeading>0.000000</gpsHeading>
<haccuracy>-1.000000</haccuracy>
<vaccuracy>-1.000000</vaccuracy>
<internetconnect>-1</internetconnect>
</trkpt>
<trkpt lat="35.014802" lon="136.468639">
<ele>180.000000</ele>
<time>2026-03-27T19:49:57Z</time>
<speed>0.000000</speed>
<trueHeading>0.000000</trueHeading>
<magneticHeading>0.000000</magneticHeading>
<gpsHeading>0.000000</gpsHeading>
<haccuracy>-1.000000</haccuracy>
<vaccuracy>-1.000000</vaccuracy>
<internetconnect>-1</internetconnect>
</trkpt>
<trkpt lat="35.014802" lon="136.468752">
<ele>178.000000</ele>
<time>2026-03-27T19:50:10Z</time>
<speed>0.000000</speed>
<trueHeading>0.000000</trueHeading>
<magneticHeading>0.000000</magneticHeading>
<gpsHeading>0.000000</gpsHeading>
<haccuracy>-1.000000</haccuracy>
<vaccuracy>-1.000000</vaccuracy>
<internetconnect>-1</internetconnect>
</trkpt>
<trkpt lat="35.014802" lon="136.468864">
<ele>178.000000</ele>
<time>2026-03-27T19:50:22Z</time>
<speed>0.000000</speed>
<trueHeading>0.000000</trueHeading>
<magneticHeading>0.000000</magneticHeading>
<gpsHeading>0.000000</gpsHeading>
<haccuracy>-1.000000</haccuracy>
<vaccuracy>-1.000000</vaccuracy>
<internetconnect>-1</internetconnect>
</trkpt>
<trkpt lat="35.014802" lon="136.468977">
<ele>177.000000</ele>
<time>2026-03-27T19:50:35Z</time>
<speed>0.000000</speed>
<trueHeading>0.000000</trueHeading>
<magneticHeading>0.000000</magneticHeading>
<gpsHeading>0.000000</gpsHeading>
<haccuracy>-1.000000</haccuracy>
<vaccuracy>-1.000000</vaccuracy>
<internetconnect>-1</internetconnect>
</trkpt>
<trkpt lat="35.014782" lon="136.469098">
<ele>175.000000</ele>
<time>2026-03-27T19:50:49Z</time>
<speed>0.000000</speed>
<trueHeading>0.000000</trueHeading>
<magneticHeading>0.000000</magneticHeading>
<gpsHeading>0.000000</gpsHeading>
<haccuracy>-1.000000</haccuracy>
<vaccuracy>-1.000000</vaccuracy>
<internetconnect>-1</internetconnect>
</trkpt>
<trkpt lat="35.014762" lon="136.469219">
<ele>175.000000</ele>
<time>2026-03-27T19:51:02Z</time>
<speed>0.000000</speed>
<trueHeading>0.000000</trueHeading>
<magneticHeading>0.000000</magneticHeading>
<gpsHeading>0.000000</gpsHeading>
<haccuracy>-1.000000</haccuracy>
<vaccuracy>-1.000000</vaccuracy>
<internetconnect>-1</internetconnect>
</trkpt>
<trkpt lat="35.014743" lon="136.469339">
<ele>173.000000</ele>
<time>2026-03-27T19:51:16Z</time>
<speed>0.000000</speed>
<trueHeading>0.000000</trueHeading>
<magneticHeading>0.000000</magneticHeading>
<gpsHeading>0.000000</gpsHeading>
<haccuracy>-1.000000</haccuracy>
<vaccuracy>-1.000000</vaccuracy>
<internetconnect>-1</internetconnect>
</trkpt>
<trkpt lat="35.014736" lon="136.469452">
<ele>173.000000</ele>
<time>2026-03-27T19:51:28Z</time>
<speed>0.000000</speed>
<trueHeading>0.000000</trueHeading>
<magneticHeading>0.000000</magneticHeading>
<gpsHeading>0.000000</gpsHeading>
<haccuracy>-1.000000</haccuracy>
<vaccuracy>-1.000000</vaccuracy>
<internetconnect>-1</internetconnect>
</trkpt>
<trkpt lat="35.014729" lon="136.469573">
<ele>172.000000</ele>
<time>2026-03-27T19:51:42Z</time>
<speed>0.000000</speed>
<trueHeading>0.000000</trueHeading>
<magneticHeading>0.000000</magneticHeading>
<gpsHeading>0.000000</gpsHeading>
<haccuracy>-1.000000</haccuracy>
<vaccuracy>-1.000000</vaccuracy>
<internetconnect>-1</internetconnect>
</trkpt>
<trkpt lat="35.014716" lon="136.469686">
<ele>170.000000</ele>
<time>2026-03-27T19:51:54Z</time>
<speed>0.000000</speed>
<trueHeading>0.000000</trueHeading>
<magneticHeading>0.000000</magneticHeading>
<gpsHeading>0.000000</gpsHeading>
<haccuracy>-1.000000</haccuracy>
<vaccuracy>-1.000000</vaccuracy>
<internetconnect>-1</internetconnect>
</trkpt>
<trkpt lat="35.014690" lon="136.469814">
<ele>170.000000</ele>
<time>2026-03-27T19:52:09Z</time>
<speed>0.000000</speed>
<trueHeading>0.000000</trueHeading>
<magneticHeading>0.000000</magneticHeading>
<gpsHeading>0.000000</gpsHeading>
<haccuracy>-1.000000</haccuracy>
<vaccuracy>-1.000000</vaccuracy>
<internetconnect>-1</internetconnect>
</trkpt>
<trkpt lat="35.014663" lon="136.469927">
<ele>168.000000</ele>
<time>2026-03-27T19:52:22Z</time>
<speed>0.000000</speed>
<trueHeading>0.000000</trueHeading>
<magneticHeading>0.000000</magneticHeading>
<gpsHeading>0.000000</gpsHeading>
<haccuracy>-1.000000</haccuracy>
<vaccuracy>-1.000000</vaccuracy>
<internetconnect>-1</internetconnect>
</trkpt>
<trkpt lat="35.014657" lon="136.470048">
<ele>167.000000</ele>
<time>2026-03-27T19:52:36Z</time>
<speed>0.000000</speed>
<trueHeading>0.000000</trueHeading>
<magneticHeading>0.000000</magneticHeading>
<gpsHeading>0.000000</gpsHeading>
<haccuracy>-1.000000</haccuracy>
<vaccuracy>-1.000000</vaccuracy>
<internetconnect>-1</internetconnect>
</trkpt>
<trkpt lat="35.014663" lon="136.470169">
<ele>167.000000</ele>
<time>2026-03-27T19:52:49Z</time>
<speed>0.000000</speed>
<trueHeading>0.000000</trueHeading>
<magneticHeading>0.000000</magneticHeading>
<gpsHeading>0.000000</gpsHeading>
<haccuracy>-1.000000</haccuracy>
<vaccuracy>-1.000000</vaccuracy>
<internetconnect>-1</internetconnect>
</trkpt>
<trkpt lat="35.014710" lon="136.470273">
<ele>167.000000</ele>
<time>2026-03-27T19:53:02Z</time>
<speed>0.000000</speed>
<trueHeading>0.000000</trueHeading>
<magneticHeading>0.000000</magneticHeading>
<gpsHeading>0.000000</gpsHeading>
<haccuracy>-1.000000</haccuracy>
<vaccuracy>-1.000000</vaccuracy>
<internetconnect>-1</internetconnect>
</trkpt>
<trkpt lat="35.014729" lon="136.470386">
<ele>167.000000</ele>
<time>2026-03-27T19:53:15Z</time>
<speed>0.000000</speed>
<trueHeading>0.000000</trueHeading>
<magneticHeading>0.000000</magneticHeading>
<gpsHeading>0.000000</gpsHeading>
<haccuracy>-1.000000</haccuracy>
<vaccuracy>-1.000000</vaccuracy>
<internetconnect>-1</internetconnect>
</trkpt>
<trkpt lat="35.014729" lon="136.470515">
<ele>166.000000</ele>
<time>2026-03-27T19:53:29Z</time>
<speed>0.000000</speed>
<trueHeading>0.000000</trueHeading>
<magneticHeading>0.000000</magneticHeading>
<gpsHeading>0.000000</gpsHeading>
<haccuracy>-1.000000</haccuracy>
<vaccuracy>-1.000000</vaccuracy>
<internetconnect>-1</internetconnect>
</trkpt>
<trkpt lat="35.014729" lon="136.470627">
<ele>164.000000</ele>
<time>2026-03-27T19:53:42Z</time>
<speed>0.000000</speed>
<trueHeading>0.000000</trueHeading>
<magneticHeading>0.000000</magneticHeading>
<gpsHeading>0.000000</gpsHeading>
<haccuracy>-1.000000</haccuracy>
<vaccuracy>-1.000000</vaccuracy>
<internetconnect>-1</internetconnect>
</trkpt>
<trkpt lat="35.014729" lon="136.470740">
<ele>163.000000</ele>
<time>2026-03-27T19:53:54Z</time>
<speed>0.000000</speed>
<trueHeading>0.000000</trueHeading>
<magneticHeading>0.000000</magneticHeading>
<gpsHeading>0.000000</gpsHeading>
<haccuracy>-1.000000</haccuracy>
<vaccuracy>-1.000000</vaccuracy>
<internetconnect>-1</internetconnect>
</trkpt>
<trkpt lat="35.014729" lon="136.470917">
<ele>162.000000</ele>
<time>2026-03-27T19:54:14Z</time>
<speed>0.000000</speed>
<trueHeading>0.000000</trueHeading>
<magneticHeading>0.000000</magneticHeading>
<gpsHeading>0.000000</gpsHeading>
<haccuracy>-1.000000</haccuracy>
<vaccuracy>-1.000000</vaccuracy>
<internetconnect>-1</internetconnect>
</trkpt>
<trkpt lat="35.014729" lon="136.471030">
<ele>161.000000</ele>
<time>2026-03-27T19:54:26Z</time>
<speed>0.000000</speed>
<trueHeading>0.000000</trueHeading>
<magneticHeading>0.000000</magneticHeading>
<gpsHeading>0.000000</gpsHeading>
<haccuracy>-1.000000</haccuracy>
<vaccuracy>-1.000000</vaccuracy>
<internetconnect>-1</internetconnect>
</trkpt>
<trkpt lat="35.014683" lon="136.471135">
<ele>160.000000</ele>
<time>2026-03-27T19:54:39Z</time>
<speed>0.000000</speed>
<trueHeading>0.000000</trueHeading>
<magneticHeading>0.000000</magneticHeading>
<gpsHeading>0.000000</gpsHeading>
<haccuracy>-1.000000</haccuracy>
<vaccuracy>-1.000000</vaccuracy>
<internetconnect>-1</internetconnect>
</trkpt>
<trkpt lat="35.014630" lon="136.471207">
<ele>159.000000</ele>
<time>2026-03-27T19:54:50Z</time>
<speed>0.000000</speed>
<trueHeading>0.000000</trueHeading>
<magneticHeading>0.000000</magneticHeading>
<gpsHeading>0.000000</gpsHeading>
<haccuracy>-1.000000</haccuracy>
<vaccuracy>-1.000000</vaccuracy>
<internetconnect>-1</internetconnect>
</trkpt>
<trkpt lat="35.014670" lon="136.471312">
<ele>158.000000</ele>
<time>2026-03-27T19:55:03Z</time>
<speed>0.000000</speed>
<trueHeading>0.000000</trueHeading>
<magneticHeading>0.000000</magneticHeading>
<gpsHeading>0.000000</gpsHeading>
<haccuracy>-1.000000</haccuracy>
<vaccuracy>-1.000000</vaccuracy>
<internetconnect>-1</internetconnect>
</trkpt>
<trkpt lat="35.014670" lon="136.471432">
<ele>158.000000</ele>
<time>2026-03-27T19:55:16Z</time>
<speed>0.000000</speed>
<trueHeading>0.000000</trueHeading>
<magneticHeading>0.000000</magneticHeading>
<gpsHeading>0.000000</gpsHeading>
<haccuracy>-1.000000</haccuracy>
<vaccuracy>-1.000000</vaccuracy>
<internetconnect>-1</internetconnect>
</trkpt>
<trkpt lat="35.014663" lon="136.471561">
<ele>157.000000</ele>
<time>2026-03-27T19:55:31Z</time>
<speed>0.000000</speed>
<trueHeading>0.000000</trueHeading>
<magneticHeading>0.000000</magneticHeading>
<gpsHeading>0.000000</gpsHeading>
<haccuracy>-1.000000</haccuracy>
<vaccuracy>-1.000000</vaccuracy>
<internetconnect>-1</internetconnect>
</trkpt>
<trkpt lat="35.014637" lon="136.471674">
<ele>156.000000</ele>
<time>2026-03-27T19:55:44Z</time>
<speed>0.000000</speed>
<trueHeading>0.000000</trueHeading>
<magneticHeading>0.000000</magneticHeading>
<gpsHeading>0.000000</gpsHeading>
<haccuracy>-1.000000</haccuracy>
<vaccuracy>-1.000000</vaccuracy>
<internetconnect>-1</internetconnect>
</trkpt>
<trkpt lat="35.014617" lon="136.471787">
<ele>155.000000</ele>
<time>2026-03-27T19:55:56Z</time>
<speed>0.000000</speed>
<trueHeading>0.000000</trueHeading>
<magneticHeading>0.000000</magneticHeading>
<gpsHeading>0.000000</gpsHeading>
<haccuracy>-1.000000</haccuracy>
<vaccuracy>-1.000000</vaccuracy>
<internetconnect>-1</internetconnect>
</trkpt>
<trkpt lat="35.014617" lon="136.471916">
<ele>155.000000</ele>
<time>2026-03-27T19:56:11Z</time>
<speed>0.000000</speed>
<trueHeading>0.000000</trueHeading>
<magneticHeading>0.000000</magneticHeading>
<gpsHeading>0.000000</gpsHeading>
<haccuracy>-1.000000</haccuracy>
<vaccuracy>-1.000000</vaccuracy>
<internetconnect>-1</internetconnect>
</trkpt>
<trkpt lat="35.014617" lon="136.472036">
<ele>154.000000</ele>
<time>2026-03-27T19:56:24Z</time>
<speed>0.000000</speed>
<trueHeading>0.000000</trueHeading>
<magneticHeading>0.000000</magneticHeading>
<gpsHeading>0.000000</gpsHeading>
<haccuracy>-1.000000</haccuracy>
<vaccuracy>-1.000000</vaccuracy>
<internetconnect>-1</internetconnect>
</trkpt>
<trkpt lat="35.014611" lon="136.472157">
<ele>154.000000</ele>
<time>2026-03-27T19:56:38Z</time>
<speed>0.000000</speed>
<trueHeading>0.000000</trueHeading>
<magneticHeading>0.000000</magneticHeading>
<gpsHeading>0.000000</gpsHeading>
<haccuracy>-1.000000</haccuracy>
<vaccuracy>-1.000000</vaccuracy>
<internetconnect>-1</internetconnect>
</trkpt>
<trkpt lat="35.014598" lon="136.472270">
<ele>153.000000</ele>
<time>2026-03-27T19:56:50Z</time>
<speed>0.000000</speed>
<trueHeading>0.000000</trueHeading>
<magneticHeading>0.000000</magneticHeading>
<gpsHeading>0.000000</gpsHeading>
<haccuracy>-1.000000</haccuracy>
<vaccuracy>-1.000000</vaccuracy>
<internetconnect>-1</internetconnect>
</trkpt>
<trkpt lat="35.014565" lon="136.472383">
<ele>153.000000</ele>
<time>2026-03-27T19:57:03Z</time>
<speed>0.000000</speed>
<trueHeading>0.000000</trueHeading>
<magneticHeading>0.000000</magneticHeading>
<gpsHeading>0.000000</gpsHeading>
<haccuracy>-1.000000</haccuracy>
<vaccuracy>-1.000000</vaccuracy>
<internetconnect>-1</internetconnect>
</trkpt>
<trkpt lat="35.014551" lon="136.472503">
<ele>153.000000</ele>
<time>2026-03-27T19:57:17Z</time>
<speed>0.000000</speed>
<trueHeading>0.000000</trueHeading>
<magneticHeading>0.000000</magneticHeading>
<gpsHeading>0.000000</gpsHeading>
<haccuracy>-1.000000</haccuracy>
<vaccuracy>-1.000000</vaccuracy>
<internetconnect>-1</internetconnect>
</trkpt>
<trkpt lat="35.014551" lon="136.472640">
<ele>152.000000</ele>
<time>2026-03-27T19:57:32Z</time>
<speed>0.000000</speed>
<trueHeading>0.000000</trueHeading>
<magneticHeading>0.000000</magneticHeading>
<gpsHeading>0.000000</gpsHeading>
<haccuracy>-1.000000</haccuracy>
<vaccuracy>-1.000000</vaccuracy>
<internetconnect>-1</internetconnect>
</trkpt>
<trkpt lat="35.014551" lon="136.472761">
<ele>152.000000</ele>
<time>2026-03-27T19:57:45Z</time>
<speed>0.000000</speed>
<trueHeading>0.000000</trueHeading>
<magneticHeading>0.000000</magneticHeading>
<gpsHeading>0.000000</gpsHeading>
<haccuracy>-1.000000</haccuracy>
<vaccuracy>-1.000000</vaccuracy>
<internetconnect>-1</internetconnect>
</trkpt>
<trkpt lat="35.014551" lon="136.472874">
<ele>151.000000</ele>
<time>2026-03-27T19:57:58Z</time>
<speed>0.000000</speed>
<trueHeading>0.000000</trueHeading>
<magneticHeading>0.000000</magneticHeading>
<gpsHeading>0.000000</gpsHeading>
<haccuracy>-1.000000</haccuracy>
<vaccuracy>-1.000000</vaccuracy>
<internetconnect>-1</internetconnect>
</trkpt>
<trkpt lat="35.014545" lon="136.472994">
<ele>151.000000</ele>
<time>2026-03-27T19:58:11Z</time>
<speed>0.000000</speed>
<trueHeading>0.000000</trueHeading>
<magneticHeading>0.000000</magneticHeading>
<gpsHeading>0.000000</gpsHeading>
<haccuracy>-1.000000</haccuracy>
<vaccuracy>-1.000000</vaccuracy>
<internetconnect>-1</internetconnect>
</trkpt>
<trkpt lat="35.014525" lon="136.473115">
<ele>150.000000</ele>
<time>2026-03-27T19:58:25Z</time>
<speed>0.000000</speed>
<trueHeading>0.000000</trueHeading>
<magneticHeading>0.000000</magneticHeading>
<gpsHeading>0.000000</gpsHeading>
<haccuracy>-1.000000</haccuracy>
<vaccuracy>-1.000000</vaccuracy>
<internetconnect>-1</internetconnect>
</trkpt>
<trkpt lat="35.014512" lon="136.473236">
<ele>149.000000</ele>
<time>2026-03-27T19:58:38Z</time>
<speed>0.000000</speed>
<trueHeading>0.000000</trueHeading>
<magneticHeading>0.000000</magneticHeading>
<gpsHeading>0.000000</gpsHeading>
<haccuracy>-1.000000</haccuracy>
<vaccuracy>-1.000000</vaccuracy>
<internetconnect>-1</internetconnect>
</trkpt>
<trkpt lat="35.014499" lon="136.473357">
<ele>149.000000</ele>
<time>2026-03-27T19:58:52Z</time>
<speed>0.000000</speed>
<trueHeading>0.000000</trueHeading>
<magneticHeading>0.000000</magneticHeading>
<gpsHeading>0.000000</gpsHeading>
<haccuracy>-1.000000</haccuracy>
<vaccuracy>-1.000000</vaccuracy>
<internetconnect>-1</internetconnect>
</trkpt>
<trkpt lat="35.014492" lon="136.473470">
<ele>148.000000</ele>
<time>2026-03-27T19:59:05Z</time>
<speed>0.000000</speed>
<trueHeading>0.000000</trueHeading>
<magneticHeading>0.000000</magneticHeading>
<gpsHeading>0.000000</gpsHeading>
<haccuracy>-1.000000</haccuracy>
<vaccuracy>-1.000000</vaccuracy>
<internetconnect>-1</internetconnect>
</trkpt>
<trkpt lat="35.014492" lon="136.473582">
<ele>147.000000</ele>
<time>2026-03-27T19:59:17Z</time>
<speed>0.000000</speed>
<trueHeading>0.000000</trueHeading>
<magneticHeading>0.000000</magneticHeading>
<gpsHeading>0.000000</gpsHeading>
<haccuracy>-1.000000</haccuracy>
<vaccuracy>-1.000000</vaccuracy>
<internetconnect>-1</internetconnect>
</trkpt>
<trkpt lat="35.014486" lon="136.473703">
<ele>147.000000</ele>
<time>2026-03-27T19:59:30Z</time>
<speed>0.000000</speed>
<trueHeading>0.000000</trueHeading>
<magneticHeading>0.000000</magneticHeading>
<gpsHeading>0.000000</gpsHeading>
<haccuracy>-1.000000</haccuracy>
<vaccuracy>-1.000000</vaccuracy>
<internetconnect>-1</internetconnect>
</trkpt>
<trkpt lat="35.014479" lon="136.473832">
<ele>147.000000</ele>
<time>2026-03-27T19:59:45Z</time>
<speed>0.000000</speed>
<trueHeading>0.000000</trueHeading>
<magneticHeading>0.000000</magneticHeading>
<gpsHeading>0.000000</gpsHeading>
<haccuracy>-1.000000</haccuracy>
<vaccuracy>-1.000000</vaccuracy>
<internetconnect>-1</internetconnect>
</trkpt>
<trkpt lat="35.014459" lon="136.473953">
<ele>146.000000</ele>
<time>2026-03-27T19:59:58Z</time>
<speed>0.000000</speed>
<trueHeading>0.000000</trueHeading>
<magneticHeading>0.000000</magneticHeading>
<gpsHeading>0.000000</gpsHeading>
<haccuracy>-1.000000</haccuracy>
<vaccuracy>-1.000000</vaccuracy>
<internetconnect>-1</internetconnect>
</trkpt>
<trkpt lat="35.014433" lon="136.474073">
<ele>146.000000</ele>
<time>2026-03-27T20:00:12Z</time>
<speed>0.000000</speed>
<trueHeading>0.000000</trueHeading>
<magneticHeading>0.000000</magneticHeading>
<gpsHeading>0.000000</gpsHeading>
<haccuracy>-1.000000</haccuracy>
<vaccuracy>-1.000000</vaccuracy>
<internetconnect>-1</internetconnect>
</trkpt>
<trkpt lat="35.014413" lon="136.474186">
<ele>146.000000</ele>
<time>2026-03-27T20:00:25Z</time>
<speed>0.000000</speed>
<trueHeading>0.000000</trueHeading>
<magneticHeading>0.000000</magneticHeading>
<gpsHeading>0.000000</gpsHeading>
<haccuracy>-1.000000</haccuracy>
<vaccuracy>-1.000000</vaccuracy>
<internetconnect>-1</internetconnect>
</trkpt>
<trkpt lat="35.014400" lon="136.474307">
<ele>145.000000</ele>
<time>2026-03-27T20:00:39Z</time>
<speed>0.000000</speed>
<trueHeading>0.000000</trueHeading>
<magneticHeading>0.000000</magneticHeading>
<gpsHeading>0.000000</gpsHeading>
<haccuracy>-1.000000</haccuracy>
<vaccuracy>-1.000000</vaccuracy>
<internetconnect>-1</internetconnect>
</trkpt>
<trkpt lat="35.014393" lon="136.474427">
<ele>145.000000</ele>
<time>2026-03-27T20:00:52Z</time>
<speed>0.000000</speed>
<trueHeading>0.000000</trueHeading>
<magneticHeading>0.000000</magneticHeading>
<gpsHeading>0.000000</gpsHeading>
<haccuracy>-1.000000</haccuracy>
<vaccuracy>-1.000000</vaccuracy>
<internetconnect>-1</internetconnect>
</trkpt>
<trkpt lat="35.014386" lon="136.474556">
<ele>145.000000</ele>
<time>2026-03-27T20:01:06Z</time>
<speed>0.000000</speed>
<trueHeading>0.000000</trueHeading>
<magneticHeading>0.000000</magneticHeading>
<gpsHeading>0.000000</gpsHeading>
<haccuracy>-1.000000</haccuracy>
<vaccuracy>-1.000000</vaccuracy>
<internetconnect>-1</internetconnect>
</trkpt>
<trkpt lat="35.014386" lon="136.474677">
<ele>145.000000</ele>
<time>2026-03-27T20:01:20Z</time>
<speed>0.000000</speed>
<trueHeading>0.000000</trueHeading>
<magneticHeading>0.000000</magneticHeading>
<gpsHeading>0.000000</gpsHeading>
<haccuracy>-1.000000</haccuracy>
<vaccuracy>-1.000000</vaccuracy>
<internetconnect>-1</internetconnect>
</trkpt>
<trkpt lat="35.014373" lon="136.474798">
<ele>144.000000</ele>
<time>2026-03-27T20:01:33Z</time>
<speed>0.000000</speed>
<trueHeading>0.000000</trueHeading>
<magneticHeading>0.000000</magneticHeading>
<gpsHeading>0.000000</gpsHeading>
<haccuracy>-1.000000</haccuracy>
<vaccuracy>-1.000000</vaccuracy>
<internetconnect>-1</internetconnect>
</trkpt>
<trkpt lat="35.014373" lon="136.474911">
<ele>144.000000</ele>
<time>2026-03-27T20:01:46Z</time>
<speed>0.000000</speed>
<trueHeading>0.000000</trueHeading>
<magneticHeading>0.000000</magneticHeading>
<gpsHeading>0.000000</gpsHeading>
<haccuracy>-1.000000</haccuracy>
<vaccuracy>-1.000000</vaccuracy>
<internetconnect>-1</internetconnect>
</trkpt>
<trkpt lat="35.014360" lon="136.475032">
<ele>143.000000</ele>
<time>2026-03-27T20:01:59Z</time>
<speed>0.000000</speed>
<trueHeading>0.000000</trueHeading>
<magneticHeading>0.000000</magneticHeading>
<gpsHeading>0.000000</gpsHeading>
<haccuracy>-1.000000</haccuracy>
<vaccuracy>-1.000000</vaccuracy>
<internetconnect>-1</internetconnect>
</trkpt>
<trkpt lat="35.014353" lon="136.475160">
<ele>142.000000</ele>
<time>2026-03-27T20:02:13Z</time>
<speed>0.000000</speed>
<trueHeading>0.000000</trueHeading>
<magneticHeading>0.000000</magneticHeading>
<gpsHeading>0.000000</gpsHeading>
<haccuracy>-1.000000</haccuracy>
<vaccuracy>-1.000000</vaccuracy>
<internetconnect>-1</internetconnect>
</trkpt>
<trkpt lat="35.014347" lon="136.475281">
<ele>141.000000</ele>
<time>2026-03-27T20:02:27Z</time>
<speed>0.000000</speed>
<trueHeading>0.000000</trueHeading>
<magneticHeading>0.000000</magneticHeading>
<gpsHeading>0.000000</gpsHeading>
<haccuracy>-1.000000</haccuracy>
<vaccuracy>-1.000000</vaccuracy>
<internetconnect>-1</internetconnect>
</trkpt>
<trkpt lat="35.014327" lon="136.475394">
<ele>141.000000</ele>
<time>2026-03-27T20:02:40Z</time>
<speed>0.000000</speed>
<trueHeading>0.000000</trueHeading>
<magneticHeading>0.000000</magneticHeading>
<gpsHeading>0.000000</gpsHeading>
<haccuracy>-1.000000</haccuracy>
<vaccuracy>-1.000000</vaccuracy>
<internetconnect>-1</internetconnect>
</trkpt>
<trkpt lat="35.014307" lon="136.475538">
<ele>139.000000</ele>
<time>2026-03-27T20:02:56Z</time>
<speed>0.000000</speed>
<trueHeading>0.000000</trueHeading>
<magneticHeading>0.000000</magneticHeading>
<gpsHeading>0.000000</gpsHeading>
<haccuracy>-1.000000</haccuracy>
<vaccuracy>-1.000000</vaccuracy>
<internetconnect>-1</internetconnect>
</trkpt>
<trkpt lat="35.014294" lon="136.475651">
<ele>138.000000</ele>
<time>2026-03-27T20:03:09Z</time>
<speed>0.000000</speed>
<trueHeading>0.000000</trueHeading>
<magneticHeading>0.000000</magneticHeading>
<gpsHeading>0.000000</gpsHeading>
<haccuracy>-1.000000</haccuracy>
<vaccuracy>-1.000000</vaccuracy>
<internetconnect>-1</internetconnect>
</trkpt>
<trkpt lat="35.014288" lon="136.475772">
<ele>137.000000</ele>
<time>2026-03-27T20:03:22Z</time>
<speed>0.000000</speed>
<trueHeading>0.000000</trueHeading>
<magneticHeading>0.000000</magneticHeading>
<gpsHeading>0.000000</gpsHeading>
<haccuracy>-1.000000</haccuracy>
<vaccuracy>-1.000000</vaccuracy>
<internetconnect>-1</internetconnect>
</trkpt>
<trkpt lat="35.014288" lon="136.475893">
<ele>133.000000</ele>
<time>2026-03-27T20:03:35Z</time>
<speed>0.000000</speed>
<trueHeading>0.000000</trueHeading>
<magneticHeading>0.000000</magneticHeading>
<gpsHeading>0.000000</gpsHeading>
<haccuracy>-1.000000</haccuracy>
<vaccuracy>-1.000000</vaccuracy>
<internetconnect>-1</internetconnect>
</trkpt>
<trkpt lat="35.014288" lon="136.476014">
<ele>133.000000</ele>
<time>2026-03-27T20:03:49Z</time>
<speed>0.000000</speed>
<trueHeading>0.000000</trueHeading>
<magneticHeading>0.000000</magneticHeading>
<gpsHeading>0.000000</gpsHeading>
<haccuracy>-1.000000</haccuracy>
<vaccuracy>-1.000000</vaccuracy>
<internetconnect>-1</internetconnect>
</trkpt>
<trkpt lat="35.014288" lon="136.476134">
<ele>132.000000</ele>
<time>2026-03-27T20:04:02Z</time>
<speed>0.000000</speed>
<trueHeading>0.000000</trueHeading>
<magneticHeading>0.000000</magneticHeading>
<gpsHeading>0.000000</gpsHeading>
<haccuracy>-1.000000</haccuracy>
<vaccuracy>-1.000000</vaccuracy>
<internetconnect>-1</internetconnect>
</trkpt>
<trkpt lat="35.014288" lon="136.476255">
<ele>132.000000</ele>
<time>2026-03-27T20:04:16Z</time>
<speed>0.000000</speed>
<trueHeading>0.000000</trueHeading>
<magneticHeading>0.000000</magneticHeading>
<gpsHeading>0.000000</gpsHeading>
<haccuracy>-1.000000</haccuracy>
<vaccuracy>-1.000000</vaccuracy>
<internetconnect>-1</internetconnect>
</trkpt>
<trkpt lat="35.014288" lon="136.476368">
<ele>132.000000</ele>
<time>2026-03-27T20:04:28Z</time>
<speed>0.000000</speed>
<trueHeading>0.000000</trueHeading>
<magneticHeading>0.000000</magneticHeading>
<gpsHeading>0.000000</gpsHeading>
<haccuracy>-1.000000</haccuracy>
<vaccuracy>-1.000000</vaccuracy>
<internetconnect>-1</internetconnect>
</trkpt>
<trkpt lat="35.014261" lon="136.476481">
<ele>132.000000</ele>
<time>2026-03-27T20:04:41Z</time>
<speed>0.000000</speed>
<trueHeading>0.000000</trueHeading>
<magneticHeading>0.000000</magneticHeading>
<gpsHeading>0.000000</gpsHeading>
<haccuracy>-1.000000</haccuracy>
<vaccuracy>-1.000000</vaccuracy>
<internetconnect>-1</internetconnect>
</trkpt>
<trkpt lat="35.014195" lon="136.476561">
<ele>132.000000</ele>
<time>2026-03-27T20:04:54Z</time>
<speed>0.000000</speed>
<trueHeading>0.000000</trueHeading>
<magneticHeading>0.000000</magneticHeading>
<gpsHeading>0.000000</gpsHeading>
<haccuracy>-1.000000</haccuracy>
<vaccuracy>-1.000000</vaccuracy>
<internetconnect>-1</internetconnect>
</trkpt>
<trkpt lat="35.014136" lon="136.476650">
<ele>131.000000</ele>
<time>2026-03-27T20:05:06Z</time>
<speed>0.000000</speed>
<trueHeading>0.000000</trueHeading>
<magneticHeading>0.000000</magneticHeading>
<gpsHeading>0.000000</gpsHeading>
<haccuracy>-1.000000</haccuracy>
<vaccuracy>-1.000000</vaccuracy>
<internetconnect>-1</internetconnect>
</trkpt>
<trkpt lat="35.014110" lon="136.476762">
<ele>130.000000</ele>
<time>2026-03-27T20:05:19Z</time>
<speed>0.000000</speed>
<trueHeading>0.000000</trueHeading>
<magneticHeading>0.000000</magneticHeading>
<gpsHeading>0.000000</gpsHeading>
<haccuracy>-1.000000</haccuracy>
<vaccuracy>-1.000000</vaccuracy>
<internetconnect>-1</internetconnect>
</trkpt>
<trkpt lat="35.014110" lon="136.476883">
<ele>129.000000</ele>
<time>2026-03-27T20:05:33Z</time>
<speed>0.000000</speed>
<trueHeading>0.000000</trueHeading>
<magneticHeading>0.000000</magneticHeading>
<gpsHeading>0.000000</gpsHeading>
<haccuracy>-1.000000</haccuracy>
<vaccuracy>-1.000000</vaccuracy>
<internetconnect>-1</internetconnect>
</trkpt>
<trkpt lat="35.014110" lon="136.476996">
<ele>127.000000</ele>
<time>2026-03-27T20:05:45Z</time>
<speed>0.000000</speed>
<trueHeading>0.000000</trueHeading>
<magneticHeading>0.000000</magneticHeading>
<gpsHeading>0.000000</gpsHeading>
<haccuracy>-1.000000</haccuracy>
<vaccuracy>-1.000000</vaccuracy>
<internetconnect>-1</internetconnect>
</trkpt>
<trkpt lat="35.014123" lon="136.477109">
<ele>128.000000</ele>
<time>2026-03-27T20:05:58Z</time>
<speed>0.000000</speed>
<trueHeading>0.000000</trueHeading>
<magneticHeading>0.000000</magneticHeading>
<gpsHeading>0.000000</gpsHeading>
<haccuracy>-1.000000</haccuracy>
<vaccuracy>-1.000000</vaccuracy>
<internetconnect>-1</internetconnect>
</trkpt>
<trkpt lat="35.014149" lon="136.477221">
<ele>128.000000</ele>
<time>2026-03-27T20:06:11Z</time>
<speed>0.000000</speed>
<trueHeading>0.000000</trueHeading>
<magneticHeading>0.000000</magneticHeading>
<gpsHeading>0.000000</gpsHeading>
<haccuracy>-1.000000</haccuracy>
<vaccuracy>-1.000000</vaccuracy>
<internetconnect>-1</internetconnect>
</trkpt>
<trkpt lat="35.014191" lon="136.477318">
<ele>129.000000</ele>
<time>2026-03-27T20:06:23Z</time>
<speed>0.000000</speed>
<trueHeading>0.000000</trueHeading>
<magneticHeading>0.000000</magneticHeading>
<gpsHeading>0.000000</gpsHeading>
<haccuracy>-1.000000</haccuracy>
<vaccuracy>-1.000000</vaccuracy>
<internetconnect>-1</internetconnect>
</trkpt>
<trkpt lat="35.014155" lon="136.477422">
<ele>127.000000</ele>
<time>2026-03-27T20:06:35Z</time>
<speed>0.000000</speed>
<trueHeading>0.000000</trueHeading>
<magneticHeading>0.000000</magneticHeading>
<gpsHeading>0.000000</gpsHeading>
<haccuracy>-1.000000</haccuracy>
<vaccuracy>-1.000000</vaccuracy>
<internetconnect>-1</internetconnect>
</trkpt>
<trkpt lat="35.014124" lon="136.477527">
<ele>127.000000</ele>
<time>2026-03-27T20:06:48Z</time>
<speed>0.000000</speed>
<trueHeading>0.000000</trueHeading>
<magneticHeading>0.000000</magneticHeading>
<gpsHeading>0.000000</gpsHeading>
<haccuracy>-1.000000</haccuracy>
<vaccuracy>-1.000000</vaccuracy>
<internetconnect>-1</internetconnect>
</trkpt>
<trkpt lat="35.014069" lon="136.477626">
<ele>125.000000</ele>
<time>2026-03-27T20:07:01Z</time>
<speed>0.000000</speed>
<trueHeading>0.000000</trueHeading>
<magneticHeading>0.000000</magneticHeading>
<gpsHeading>0.000000</gpsHeading>
<haccuracy>-1.000000</haccuracy>
<vaccuracy>-1.000000</vaccuracy>
<internetconnect>-1</internetconnect>
</trkpt>
<trkpt lat="35.013988" lon="136.477685">
<ele>124.000000</ele>
<time>2026-03-27T20:07:14Z</time>
<speed>0.000000</speed>
<trueHeading>0.000000</trueHeading>
<magneticHeading>0.000000</magneticHeading>
<gpsHeading>0.000000</gpsHeading>
<haccuracy>-1.000000</haccuracy>
<vaccuracy>-1.000000</vaccuracy>
<internetconnect>-1</internetconnect>
</trkpt>
<trkpt lat="35.013902" lon="136.477717">
<ele>124.000000</ele>
<time>2026-03-27T20:07:26Z</time>
<speed>0.000000</speed>
<trueHeading>0.000000</trueHeading>
<magneticHeading>0.000000</magneticHeading>
<gpsHeading>0.000000</gpsHeading>
<haccuracy>-1.000000</haccuracy>
<vaccuracy>-1.000000</vaccuracy>
<internetconnect>-1</internetconnect>
</trkpt>
<trkpt lat="35.013815" lon="136.477750">
<ele>123.000000</ele>
<time>2026-03-27T20:07:38Z</time>
<speed>0.000000</speed>
<trueHeading>0.000000</trueHeading>
<magneticHeading>0.000000</magneticHeading>
<gpsHeading>0.000000</gpsHeading>
<haccuracy>-1.000000</haccuracy>
<vaccuracy>-1.000000</vaccuracy>
<internetconnect>-1</internetconnect>
</trkpt>
<trkpt lat="35.013811" lon="136.477864">
<ele>123.000000</ele>
<time>2026-03-27T20:07:51Z</time>
<speed>0.000000</speed>
<trueHeading>0.000000</trueHeading>
<magneticHeading>0.000000</magneticHeading>
<gpsHeading>0.000000</gpsHeading>
<haccuracy>-1.000000</haccuracy>
<vaccuracy>-1.000000</vaccuracy>
<internetconnect>-1</internetconnect>
</trkpt>
<trkpt lat="35.013861" lon="136.477960">
<ele>124.000000</ele>
<time>2026-03-27T20:08:03Z</time>
<speed>0.000000</speed>
<trueHeading>0.000000</trueHeading>
<magneticHeading>0.000000</magneticHeading>
<gpsHeading>0.000000</gpsHeading>
<haccuracy>-1.000000</haccuracy>
<vaccuracy>-1.000000</vaccuracy>
<internetconnect>-1</internetconnect>
</trkpt>
<trkpt lat="35.013890" lon="136.478071">
<ele>123.000000</ele>
<time>2026-03-27T20:08:16Z</time>
<speed>0.000000</speed>
<trueHeading>0.000000</trueHeading>
<magneticHeading>0.000000</magneticHeading>
<gpsHeading>0.000000</gpsHeading>
<haccuracy>-1.000000</haccuracy>
<vaccuracy>-1.000000</vaccuracy>
<internetconnect>-1</internetconnect>
</trkpt>
<trkpt lat="35.013921" lon="136.478177">
<ele>123.000000</ele>
<time>2026-03-27T20:08:29Z</time>
<speed>0.000000</speed>
<trueHeading>0.000000</trueHeading>
<magneticHeading>0.000000</magneticHeading>
<gpsHeading>0.000000</gpsHeading>
<haccuracy>-1.000000</haccuracy>
<vaccuracy>-1.000000</vaccuracy>
<internetconnect>-1</internetconnect>
</trkpt>
<trkpt lat="35.013938" lon="136.478286">
<ele>123.000000</ele>
<time>2026-03-27T20:08:41Z</time>
<speed>0.000000</speed>
<trueHeading>0.000000</trueHeading>
<magneticHeading>0.000000</magneticHeading>
<gpsHeading>0.000000</gpsHeading>
<haccuracy>-1.000000</haccuracy>
<vaccuracy>-1.000000</vaccuracy>
<internetconnect>-1</internetconnect>
</trkpt>
<trkpt lat="35.013852" lon="136.478326">
<ele>123.000000</ele>
<time>2026-03-27T20:08:53Z</time>
<speed>0.000000</speed>
<trueHeading>0.000000</trueHeading>
<magneticHeading>0.000000</magneticHeading>
<gpsHeading>0.000000</gpsHeading>
<haccuracy>-1.000000</haccuracy>
<vaccuracy>-1.000000</vaccuracy>
<internetconnect>-1</internetconnect>
</trkpt>
<trkpt lat="35.013765" lon="136.478361">
<ele>123.000000</ele>
<time>2026-03-27T20:09:06Z</time>
<speed>0.000000</speed>
<trueHeading>0.000000</trueHeading>
<magneticHeading>0.000000</magneticHeading>
<gpsHeading>0.000000</gpsHeading>
<haccuracy>-1.000000</haccuracy>
<vaccuracy>-1.000000</vaccuracy>
<internetconnect>-1</internetconnect>
</trkpt>
<trkpt lat="35.013672" lon="136.478378">
<ele>122.000000</ele>
<time>2026-03-27T20:09:18Z</time>
<speed>0.000000</speed>
<trueHeading>0.000000</trueHeading>
<magneticHeading>0.000000</magneticHeading>
<gpsHeading>0.000000</gpsHeading>
<haccuracy>-1.000000</haccuracy>
<vaccuracy>-1.000000</vaccuracy>
<internetconnect>-1</internetconnect>
</trkpt>
<trkpt lat="35.013583" lon="136.478404">
<ele>122.000000</ele>
<time>2026-03-27T20:09:31Z</time>
<speed>0.000000</speed>
<trueHeading>0.000000</trueHeading>
<magneticHeading>0.000000</magneticHeading>
<gpsHeading>0.000000</gpsHeading>
<haccuracy>-1.000000</haccuracy>
<vaccuracy>-1.000000</vaccuracy>
<internetconnect>-1</internetconnect>
</trkpt>
<trkpt lat="35.013493" lon="136.478431">
<ele>121.000000</ele>
<time>2026-03-27T20:09:43Z</time>
<speed>0.000000</speed>
<trueHeading>0.000000</trueHeading>
<magneticHeading>0.000000</magneticHeading>
<gpsHeading>0.000000</gpsHeading>
<haccuracy>-1.000000</haccuracy>
<vaccuracy>-1.000000</vaccuracy>
<internetconnect>-1</internetconnect>
</trkpt>
<trkpt lat="35.013400" lon="136.478454">
<ele>120.000000</ele>
<time>2026-03-27T20:09:56Z</time>
<speed>0.000000</speed>
<trueHeading>0.000000</trueHeading>
<magneticHeading>0.000000</magneticHeading>
<gpsHeading>0.000000</gpsHeading>
<haccuracy>-1.000000</haccuracy>
<vaccuracy>-1.000000</vaccuracy>
<internetconnect>-1</internetconnect>
</trkpt>
<trkpt lat="35.013310" lon="136.478477">
<ele>119.000000</ele>
<time>2026-03-27T20:10:09Z</time>
<speed>0.000000</speed>
<trueHeading>0.000000</trueHeading>
<magneticHeading>0.000000</magneticHeading>
<gpsHeading>0.000000</gpsHeading>
<haccuracy>-1.000000</haccuracy>
<vaccuracy>-1.000000</vaccuracy>
<internetconnect>-1</internetconnect>
</trkpt>
<trkpt lat="35.013222" lon="136.478504">
<ele>119.000000</ele>
<time>2026-03-27T20:10:21Z</time>
<speed>0.000000</speed>
<trueHeading>0.000000</trueHeading>
<magneticHeading>0.000000</magneticHeading>
<gpsHeading>0.000000</gpsHeading>
<haccuracy>-1.000000</haccuracy>
<vaccuracy>-1.000000</vaccuracy>
<internetconnect>-1</internetconnect>
</trkpt>
<trkpt lat="35.013136" lon="136.478536">
<ele>118.000000</ele>
<time>2026-03-27T20:10:33Z</time>
<speed>0.000000</speed>
<trueHeading>0.000000</trueHeading>
<magneticHeading>0.000000</magneticHeading>
<gpsHeading>0.000000</gpsHeading>
<haccuracy>-1.000000</haccuracy>
<vaccuracy>-1.000000</vaccuracy>
<internetconnect>-1</internetconnect>
</trkpt>
<trkpt lat="35.013046" lon="136.478563">
<ele>119.000000</ele>
<time>2026-03-27T20:10:45Z</time>
<speed>0.000000</speed>
<trueHeading>0.000000</trueHeading>
<magneticHeading>0.000000</magneticHeading>
<gpsHeading>0.000000</gpsHeading>
<haccuracy>-1.000000</haccuracy>
<vaccuracy>-1.000000</vaccuracy>
<internetconnect>-1</internetconnect>
</trkpt>
<trkpt lat="35.012955" lon="136.478580">
<ele>119.000000</ele>
<time>2026-03-27T20:10:58Z</time>
<speed>0.000000</speed>
<trueHeading>0.000000</trueHeading>
<magneticHeading>0.000000</magneticHeading>
<gpsHeading>0.000000</gpsHeading>
<haccuracy>-1.000000</haccuracy>
<vaccuracy>-1.000000</vaccuracy>
<internetconnect>-1</internetconnect>
</trkpt>
<trkpt lat="35.012866" lon="136.478614">
<ele>120.000000</ele>
<time>2026-03-27T20:11:10Z</time>
<speed>0.000000</speed>
<trueHeading>0.000000</trueHeading>
<magneticHeading>0.000000</magneticHeading>
<gpsHeading>0.000000</gpsHeading>
<haccuracy>-1.000000</haccuracy>
<vaccuracy>-1.000000</vaccuracy>
<internetconnect>-1</internetconnect>
</trkpt>
<trkpt lat="35.012777" lon="136.478639">
<ele>120.000000</ele>
<time>2026-03-27T20:11:23Z</time>
<speed>0.000000</speed>
<trueHeading>0.000000</trueHeading>
<magneticHeading>0.000000</magneticHeading>
<gpsHeading>0.000000</gpsHeading>
<haccuracy>-1.000000</haccuracy>
<vaccuracy>-1.000000</vaccuracy>
<internetconnect>-1</internetconnect>
</trkpt>
<trkpt lat="35.012691" lon="136.478675">
<ele>121.000000</ele>
<time>2026-03-27T20:11:35Z</time>
<speed>0.000000</speed>
<trueHeading>0.000000</trueHeading>
<magneticHeading>0.000000</magneticHeading>
<gpsHeading>0.000000</gpsHeading>
<haccuracy>-1.000000</haccuracy>
<vaccuracy>-1.000000</vaccuracy>
<internetconnect>-1</internetconnect>
</trkpt>
<trkpt lat="35.012603" lon="136.478712">
<ele>121.000000</ele>
<time>2026-03-27T20:11:47Z</time>
<speed>0.000000</speed>
<trueHeading>0.000000</trueHeading>
<magneticHeading>0.000000</magneticHeading>
<gpsHeading>0.000000</gpsHeading>
<haccuracy>-1.000000</haccuracy>
<vaccuracy>-1.000000</vaccuracy>
<internetconnect>-1</internetconnect>
</trkpt>
<trkpt lat="35.012578" lon="136.478725">
<ele>121.000000</ele>
<time>2026-03-27T20:11:51Z</time>
<speed>0.000000</speed>
<trueHeading>0.000000</trueHeading>
<magneticHeading>0.000000</magneticHeading>
<gpsHeading>0.000000</gpsHeading>
<haccuracy>-1.000000</haccuracy>
<vaccuracy>-1.000000</vaccuracy>
<internetconnect>-1</internetconnect>
</trkpt>
<trkpt lat="35.012496" lon="136.478775">
<ele>121.000000</ele>
<time>2026-03-27T20:12:03Z</time>
<speed>0.000000</speed>
<trueHeading>0.000000</trueHeading>
<magneticHeading>0.000000</magneticHeading>
<gpsHeading>0.000000</gpsHeading>
<haccuracy>-1.000000</haccuracy>
<vaccuracy>-1.000000</vaccuracy>
<internetconnect>-1</internetconnect>
</trkpt>
<trkpt lat="35.012408" lon="136.478816">
<ele>121.000000</ele>
<time>2026-03-27T20:12:16Z</time>
<speed>0.000000</speed>
<trueHeading>0.000000</trueHeading>
<magneticHeading>0.000000</magneticHeading>
<gpsHeading>0.000000</gpsHeading>
<haccuracy>-1.000000</haccuracy>
<vaccuracy>-1.000000</vaccuracy>
<internetconnect>-1</internetconnect>
</trkpt>
<trkpt lat="35.012336" lon="136.478889">
<ele>120.000000</ele>
<time>2026-03-27T20:12:29Z</time>
<speed>0.000000</speed>
<trueHeading>0.000000</trueHeading>
<magneticHeading>0.000000</magneticHeading>
<gpsHeading>0.000000</gpsHeading>
<haccuracy>-1.000000</haccuracy>
<vaccuracy>-1.000000</vaccuracy>
<internetconnect>-1</internetconnect>
</trkpt>
<trkpt lat="35.012270" lon="136.478969">
<ele>120.000000</ele>
<time>2026-03-27T20:12:41Z</time>
<speed>0.000000</speed>
<trueHeading>0.000000</trueHeading>
<magneticHeading>0.000000</magneticHeading>
<gpsHeading>0.000000</gpsHeading>
<haccuracy>-1.000000</haccuracy>
<vaccuracy>-1.000000</vaccuracy>
<internetconnect>-1</internetconnect>
</trkpt>
<trkpt lat="35.012219" lon="136.479063">
<ele>120.000000</ele>
<time>2026-03-27T20:12:54Z</time>
<speed>0.000000</speed>
<trueHeading>0.000000</trueHeading>
<magneticHeading>0.000000</magneticHeading>
<gpsHeading>0.000000</gpsHeading>
<haccuracy>-1.000000</haccuracy>
<vaccuracy>-1.000000</vaccuracy>
<internetconnect>-1</internetconnect>
</trkpt>
<trkpt lat="35.012150" lon="136.479137">
<ele>119.000000</ele>
<time>2026-03-27T20:13:06Z</time>
<speed>0.000000</speed>
<trueHeading>0.000000</trueHeading>
<magneticHeading>0.000000</magneticHeading>
<gpsHeading>0.000000</gpsHeading>
<haccuracy>-1.000000</haccuracy>
<vaccuracy>-1.000000</vaccuracy>
<internetconnect>-1</internetconnect>
</trkpt>
<trkpt lat="35.012097" lon="136.479233">
<ele>119.000000</ele>
<time>2026-03-27T20:13:19Z</time>
<speed>0.000000</speed>
<trueHeading>0.000000</trueHeading>
<magneticHeading>0.000000</magneticHeading>
<gpsHeading>0.000000</gpsHeading>
<haccuracy>-1.000000</haccuracy>
<vaccuracy>-1.000000</vaccuracy>
<internetconnect>-1</internetconnect>
</trkpt>
<trkpt lat="35.012044" lon="136.479322">
<ele>119.000000</ele>
<time>2026-03-27T20:13:31Z</time>
<speed>0.000000</speed>
<trueHeading>0.000000</trueHeading>
<magneticHeading>0.000000</magneticHeading>
<gpsHeading>0.000000</gpsHeading>
<haccuracy>-1.000000</haccuracy>
<vaccuracy>-1.000000</vaccuracy>
<internetconnect>-1</internetconnect>
</trkpt>
<trkpt lat="35.012003" lon="136.479423">
<ele>119.000000</ele>
<time>2026-03-27T20:13:44Z</time>
<speed>0.000000</speed>
<trueHeading>0.000000</trueHeading>
<magneticHeading>0.000000</magneticHeading>
<gpsHeading>0.000000</gpsHeading>
<haccuracy>-1.000000</haccuracy>
<vaccuracy>-1.000000</vaccuracy>
<internetconnect>-1</internetconnect>
</trkpt>
<trkpt lat="35.011984" lon="136.479536">
<ele>118.000000</ele>
<time>2026-03-27T20:13:56Z</time>
<speed>0.000000</speed>
<trueHeading>0.000000</trueHeading>
<magneticHeading>0.000000</magneticHeading>
<gpsHeading>0.000000</gpsHeading>
<haccuracy>-1.000000</haccuracy>
<vaccuracy>-1.000000</vaccuracy>
<internetconnect>-1</internetconnect>
</trkpt>
<trkpt lat="35.012051" lon="136.479614">
<ele>118.000000</ele>
<time>2026-03-27T20:14:09Z</time>
<speed>0.000000</speed>
<trueHeading>0.000000</trueHeading>
<magneticHeading>0.000000</magneticHeading>
<gpsHeading>0.000000</gpsHeading>
<haccuracy>-1.000000</haccuracy>
<vaccuracy>-1.000000</vaccuracy>
<internetconnect>-1</internetconnect>
</trkpt>
<trkpt lat="35.012135" lon="136.479656">
<ele>118.000000</ele>
<time>2026-03-27T20:14:21Z</time>
<speed>0.000000</speed>
<trueHeading>0.000000</trueHeading>
<magneticHeading>0.000000</magneticHeading>
<gpsHeading>0.000000</gpsHeading>
<haccuracy>-1.000000</haccuracy>
<vaccuracy>-1.000000</vaccuracy>
<internetconnect>-1</internetconnect>
</trkpt>
<trkpt lat="35.012215" lon="136.479716">
<ele>118.000000</ele>
<time>2026-03-27T20:14:34Z</time>
<speed>0.000000</speed>
<trueHeading>0.000000</trueHeading>
<magneticHeading>0.000000</magneticHeading>
<gpsHeading>0.000000</gpsHeading>
<haccuracy>-1.000000</haccuracy>
<vaccuracy>-1.000000</vaccuracy>
<internetconnect>-1</internetconnect>
</trkpt>
<trkpt lat="35.012244" lon="136.479748">
<ele>118.000000</ele>
<time>2026-03-27T20:14:39Z</time>
<speed>0.000000</speed>
<trueHeading>0.000000</trueHeading>
<magneticHeading>0.000000</magneticHeading>
<gpsHeading>0.000000</gpsHeading>
<haccuracy>-1.000000</haccuracy>
<vaccuracy>-1.000000</vaccuracy>
<internetconnect>-1</internetconnect>
</trkpt>
<trkpt lat="35.012319" lon="136.479815">
<ele>118.000000</ele>
<time>2026-03-27T20:14:52Z</time>
<speed>0.000000</speed>
<trueHeading>0.000000</trueHeading>
<magneticHeading>0.000000</magneticHeading>
<gpsHeading>0.000000</gpsHeading>
<haccuracy>-1.000000</haccuracy>
<vaccuracy>-1.000000</vaccuracy>
<internetconnect>-1</internetconnect>
</trkpt>
<trkpt lat="35.012406" lon="136.479850">
<ele>118.000000</ele>
<time>2026-03-27T20:15:04Z</time>
<speed>0.000000</speed>
<trueHeading>0.000000</trueHeading>
<magneticHeading>0.000000</magneticHeading>
<gpsHeading>0.000000</gpsHeading>
<haccuracy>-1.000000</haccuracy>
<vaccuracy>-1.000000</vaccuracy>
<internetconnect>-1</internetconnect>
</trkpt>
<trkpt lat="35.012502" lon="136.479875">
<ele>118.000000</ele>
<time>2026-03-27T20:15:17Z</time>
<speed>0.000000</speed>
<trueHeading>0.000000</trueHeading>
<magneticHeading>0.000000</magneticHeading>
<gpsHeading>0.000000</gpsHeading>
<haccuracy>-1.000000</haccuracy>
<vaccuracy>-1.000000</vaccuracy>
<internetconnect>-1</internetconnect>
</trkpt>
<trkpt lat="35.012542" lon="136.479776">
<ele>118.000000</ele>
<time>2026-03-27T20:15:29Z</time>
<speed>0.000000</speed>
<trueHeading>0.000000</trueHeading>
<magneticHeading>0.000000</magneticHeading>
<gpsHeading>0.000000</gpsHeading>
<haccuracy>-1.000000</haccuracy>
<vaccuracy>-1.000000</vaccuracy>
<internetconnect>-1</internetconnect>
</trkpt>
<trkpt lat="35.012614" lon="136.479706">
<ele>118.000000</ele>
<time>2026-03-27T20:15:42Z</time>
<speed>0.000000</speed>
<trueHeading>0.000000</trueHeading>
<magneticHeading>0.000000</magneticHeading>
<gpsHeading>0.000000</gpsHeading>
<haccuracy>-1.000000</haccuracy>
<vaccuracy>-1.000000</vaccuracy>
<internetconnect>-1</internetconnect>
</trkpt>
<trkpt lat="35.012640" lon="136.479596">
<ele>118.000000</ele>
<time>2026-03-27T20:15:54Z</time>
<speed>0.000000</speed>
<trueHeading>0.000000</trueHeading>
<magneticHeading>0.000000</magneticHeading>
<gpsHeading>0.000000</gpsHeading>
<haccuracy>-1.000000</haccuracy>
<vaccuracy>-1.000000</vaccuracy>
<internetconnect>-1</internetconnect>
</trkpt>
<trkpt lat="35.012660" lon="136.479557">
<ele>118.000000</ele>
<time>2026-03-27T20:16:00Z</time>
<speed>0.000000</speed>
<trueHeading>0.000000</trueHeading>
<magneticHeading>0.000000</magneticHeading>
<gpsHeading>0.000000</gpsHeading>
<haccuracy>-1.000000</haccuracy>
<vaccuracy>-1.000000</vaccuracy>
<internetconnect>-1</internetconnect>
</trkpt>
</trkseg></trk></gpx>
